<?xml version="1.0" encoding="UTF-8"?>
<gpx version="1.1" creator="https://www.youtrack.es" xsi:schemaLocation="http://www.topografix.com/GPX/1/1 http://www.topografix.com/GPX/1/1/gpx.xsd http://www.garmin.com/xmlschemas/GpxExtensions/v3 http://www.garmin.com/xmlschemas/GpxExtensionsv3.xsd http://www.garmin.com/xmlschemas/TrackPointExtension/v1 http://www.garmin.com/xmlschemas/TrackPointExtensionv1.xsd" xmlns:gpxtpx="http://www.garmin.com/xmlschemas/TrackPointExtension/v1" xmlns:gpxx="http://www.garmin.com/xmlschemas/GpxExtensions/v3" xmlns:xsi="http://www.w3.org/2001/XMLSchema-instance">
  <metadata>
    <link href="https://www.youtrack.es">
      <text>YouTrack.es</text>
    </link>
    <time>2026-05-08T11:06:05Z</time>
  </metadata>
  <trk>
    <src>https://www.youtrack.es</src>
    <link href="https://www.youtrack.es/ruta/38683-margie-lindrum">
      <text>YouTrack.es</text>
    </link>
    <trkseg>
      <trkpt lat="40.969520" lon="-5.665490">
        <ele>815</ele>
        <time>2022-12-03T19:10:24Z</time>
      </trkpt>
      <trkpt lat="40.968930" lon="-5.666580">
        <ele>813</ele>
        <time>2022-12-03T19:10:42Z</time>
      </trkpt>
      <trkpt lat="40.968900" lon="-5.666560">
        <ele>813</ele>
        <time>2022-12-03T19:10:43Z</time>
      </trkpt>
      <trkpt lat="40.968890" lon="-5.666550">
        <ele>813</ele>
        <time>2022-12-03T19:10:43Z</time>
      </trkpt>
      <trkpt lat="40.968870" lon="-5.666530">
        <ele>813</ele>
        <time>2022-12-03T19:10:43Z</time>
      </trkpt>
      <trkpt lat="40.969590" lon="-5.665190">
        <ele>814</ele>
        <time>2022-12-03T19:11:05Z</time>
      </trkpt>
      <trkpt lat="40.969710" lon="-5.664920">
        <ele>814</ele>
        <time>2022-12-03T19:11:10Z</time>
      </trkpt>
      <trkpt lat="40.969790" lon="-5.664570">
        <ele>814</ele>
        <time>2022-12-03T19:11:15Z</time>
      </trkpt>
      <trkpt lat="40.969900" lon="-5.663590">
        <ele>816</ele>
        <time>2022-12-03T19:11:28Z</time>
      </trkpt>
      <trkpt lat="40.969900" lon="-5.663470">
        <ele>817</ele>
        <time>2022-12-03T19:11:29Z</time>
      </trkpt>
      <trkpt lat="40.969900" lon="-5.663390">
        <ele>817</ele>
        <time>2022-12-03T19:11:30Z</time>
      </trkpt>
      <trkpt lat="40.969920" lon="-5.663310">
        <ele>817</ele>
        <time>2022-12-03T19:11:32Z</time>
      </trkpt>
      <trkpt lat="40.969990" lon="-5.663230">
        <ele>817</ele>
        <time>2022-12-03T19:11:33Z</time>
      </trkpt>
      <trkpt lat="40.970090" lon="-5.663220">
        <ele>818</ele>
        <time>2022-12-03T19:11:35Z</time>
      </trkpt>
      <trkpt lat="40.970120" lon="-5.663230">
        <ele>818</ele>
        <time>2022-12-03T19:11:36Z</time>
      </trkpt>
      <trkpt lat="40.970160" lon="-5.663280">
        <ele>818</ele>
        <time>2022-12-03T19:11:37Z</time>
      </trkpt>
      <trkpt lat="40.970190" lon="-5.663340">
        <ele>818</ele>
        <time>2022-12-03T19:11:38Z</time>
      </trkpt>
      <trkpt lat="40.970210" lon="-5.663400">
        <ele>818</ele>
        <time>2022-12-03T19:11:38Z</time>
      </trkpt>
      <trkpt lat="40.970200" lon="-5.663480">
        <ele>817</ele>
        <time>2022-12-03T19:11:40Z</time>
      </trkpt>
      <trkpt lat="40.970340" lon="-5.663520">
        <ele>818</ele>
        <time>2022-12-03T19:11:42Z</time>
      </trkpt>
      <trkpt lat="40.972130" lon="-5.663250">
        <ele>822</ele>
        <time>2022-12-03T19:12:14Z</time>
      </trkpt>
      <trkpt lat="40.972380" lon="-5.663150">
        <ele>822</ele>
        <time>2022-12-03T19:12:19Z</time>
      </trkpt>
      <trkpt lat="40.972410" lon="-5.663120">
        <ele>822</ele>
        <time>2022-12-03T19:12:19Z</time>
      </trkpt>
      <trkpt lat="40.972480" lon="-5.663090">
        <ele>823</ele>
        <time>2022-12-03T19:12:21Z</time>
      </trkpt>
      <trkpt lat="40.972540" lon="-5.663120">
        <ele>822</ele>
        <time>2022-12-03T19:12:22Z</time>
      </trkpt>
      <trkpt lat="40.972580" lon="-5.663170">
        <ele>822</ele>
        <time>2022-12-03T19:12:23Z</time>
      </trkpt>
      <trkpt lat="40.972920" lon="-5.663090">
        <ele>821</ele>
        <time>2022-12-03T19:12:29Z</time>
      </trkpt>
      <trkpt lat="40.974910" lon="-5.662780">
        <ele>820</ele>
        <time>2022-12-03T19:13:05Z</time>
      </trkpt>
      <trkpt lat="40.975340" lon="-5.662620">
        <ele>818</ele>
        <time>2022-12-03T19:13:13Z</time>
      </trkpt>
      <trkpt lat="40.975720" lon="-5.662380">
        <ele>817</ele>
        <time>2022-12-03T19:13:20Z</time>
      </trkpt>
      <trkpt lat="40.975770" lon="-5.662310">
        <ele>817</ele>
        <time>2022-12-03T19:13:21Z</time>
      </trkpt>
      <trkpt lat="40.975830" lon="-5.662140">
        <ele>819</ele>
        <time>2022-12-03T19:13:24Z</time>
      </trkpt>
      <trkpt lat="40.975970" lon="-5.661960">
        <ele>820</ele>
        <time>2022-12-03T19:13:27Z</time>
      </trkpt>
      <trkpt lat="40.976200" lon="-5.661740">
        <ele>820</ele>
        <time>2022-12-03T19:13:32Z</time>
      </trkpt>
      <trkpt lat="40.979260" lon="-5.657850">
        <ele>822</ele>
        <time>2022-12-03T19:14:48Z</time>
      </trkpt>
      <trkpt lat="40.979310" lon="-5.657900">
        <ele>822</ele>
        <time>2022-12-03T19:14:49Z</time>
      </trkpt>
      <trkpt lat="40.979490" lon="-5.658100">
        <ele>823</ele>
        <time>2022-12-03T19:14:53Z</time>
      </trkpt>
      <trkpt lat="40.979560" lon="-5.658090">
        <ele>823</ele>
        <time>2022-12-03T19:14:54Z</time>
      </trkpt>
      <trkpt lat="40.979660" lon="-5.658090">
        <ele>823</ele>
        <time>2022-12-03T19:14:56Z</time>
      </trkpt>
      <trkpt lat="40.979750" lon="-5.658080">
        <ele>824</ele>
        <time>2022-12-03T19:14:58Z</time>
      </trkpt>
      <trkpt lat="40.979800" lon="-5.658050">
        <ele>824</ele>
        <time>2022-12-03T19:14:59Z</time>
      </trkpt>
      <trkpt lat="40.979990" lon="-5.657610">
        <ele>824</ele>
        <time>2022-12-03T19:15:06Z</time>
      </trkpt>
      <trkpt lat="40.980000" lon="-5.657260">
        <ele>825</ele>
        <time>2022-12-03T19:15:10Z</time>
      </trkpt>
      <trkpt lat="40.980040" lon="-5.657130">
        <ele>825</ele>
        <time>2022-12-03T19:15:12Z</time>
      </trkpt>
      <trkpt lat="40.980100" lon="-5.656970">
        <ele>825</ele>
        <time>2022-12-03T19:15:15Z</time>
      </trkpt>
      <trkpt lat="40.981090" lon="-5.655650">
        <ele>825</ele>
        <time>2022-12-03T19:15:40Z</time>
      </trkpt>
      <trkpt lat="40.981100" lon="-5.655580">
        <ele>825</ele>
        <time>2022-12-03T19:15:41Z</time>
      </trkpt>
      <trkpt lat="40.981130" lon="-5.655550">
        <ele>825</ele>
        <time>2022-12-03T19:15:41Z</time>
      </trkpt>
      <trkpt lat="40.985890" lon="-5.649480">
        <ele>831</ele>
        <time>2022-12-03T19:17:39Z</time>
      </trkpt>
      <trkpt lat="40.985850" lon="-5.649460">
        <ele>831</ele>
        <time>2022-12-03T19:17:40Z</time>
      </trkpt>
      <trkpt lat="40.987500" lon="-5.647360">
        <ele>837</ele>
        <time>2022-12-03T19:18:20Z</time>
      </trkpt>
      <trkpt lat="40.987660" lon="-5.647100">
        <ele>838</ele>
        <time>2022-12-03T19:18:25Z</time>
      </trkpt>
      <trkpt lat="40.987700" lon="-5.647030">
        <ele>838</ele>
        <time>2022-12-03T19:18:26Z</time>
      </trkpt>
      <trkpt lat="40.987720" lon="-5.646880">
        <ele>839</ele>
        <time>2022-12-03T19:18:28Z</time>
      </trkpt>
      <trkpt lat="40.987660" lon="-5.646780">
        <ele>839</ele>
        <time>2022-12-03T19:18:30Z</time>
      </trkpt>
      <trkpt lat="40.987650" lon="-5.646650">
        <ele>839</ele>
        <time>2022-12-03T19:18:31Z</time>
      </trkpt>
      <trkpt lat="40.987690" lon="-5.646520">
        <ele>839</ele>
        <time>2022-12-03T19:18:33Z</time>
      </trkpt>
      <trkpt lat="40.987780" lon="-5.646440">
        <ele>839</ele>
        <time>2022-12-03T19:18:35Z</time>
      </trkpt>
      <trkpt lat="40.987850" lon="-5.646430">
        <ele>840</ele>
        <time>2022-12-03T19:18:37Z</time>
      </trkpt>
      <trkpt lat="40.987940" lon="-5.646470">
        <ele>840</ele>
        <time>2022-12-03T19:18:38Z</time>
      </trkpt>
      <trkpt lat="40.988050" lon="-5.646430">
        <ele>840</ele>
        <time>2022-12-03T19:18:40Z</time>
      </trkpt>
      <trkpt lat="40.988210" lon="-5.646300">
        <ele>840</ele>
        <time>2022-12-03T19:18:44Z</time>
      </trkpt>
      <trkpt lat="40.988500" lon="-5.645960">
        <ele>840</ele>
        <time>2022-12-03T19:18:50Z</time>
      </trkpt>
      <trkpt lat="40.989400" lon="-5.644610">
        <ele>843</ele>
        <time>2022-12-03T19:19:15Z</time>
      </trkpt>
      <trkpt lat="40.993010" lon="-5.638820">
        <ele>838</ele>
        <time>2022-12-03T19:20:56Z</time>
      </trkpt>
      <trkpt lat="40.995660" lon="-5.634550">
        <ele>834</ele>
        <time>2022-12-03T19:22:10Z</time>
      </trkpt>
      <trkpt lat="40.995740" lon="-5.634390">
        <ele>834</ele>
        <time>2022-12-03T19:22:12Z</time>
      </trkpt>
      <trkpt lat="40.995820" lon="-5.633940">
        <ele>834</ele>
        <time>2022-12-03T19:22:19Z</time>
      </trkpt>
      <trkpt lat="40.995780" lon="-5.633780">
        <ele>834</ele>
        <time>2022-12-03T19:22:21Z</time>
      </trkpt>
      <trkpt lat="40.995790" lon="-5.633700">
        <ele>834</ele>
        <time>2022-12-03T19:22:22Z</time>
      </trkpt>
      <trkpt lat="40.995810" lon="-5.633620">
        <ele>833</ele>
        <time>2022-12-03T19:22:23Z</time>
      </trkpt>
      <trkpt lat="40.995860" lon="-5.633550">
        <ele>833</ele>
        <time>2022-12-03T19:22:24Z</time>
      </trkpt>
      <trkpt lat="40.995960" lon="-5.633480">
        <ele>833</ele>
        <time>2022-12-03T19:22:26Z</time>
      </trkpt>
      <trkpt lat="40.996080" lon="-5.633490">
        <ele>833</ele>
        <time>2022-12-03T19:22:28Z</time>
      </trkpt>
      <trkpt lat="40.996200" lon="-5.633360">
        <ele>833</ele>
        <time>2022-12-03T19:22:31Z</time>
      </trkpt>
      <trkpt lat="40.996820" lon="-5.632450">
        <ele>832</ele>
        <time>2022-12-03T19:22:48Z</time>
      </trkpt>
      <trkpt lat="40.998270" lon="-5.630200">
        <ele>838</ele>
        <time>2022-12-03T19:23:27Z</time>
      </trkpt>
      <trkpt lat="40.998600" lon="-5.629720">
        <ele>839</ele>
        <time>2022-12-03T19:23:36Z</time>
      </trkpt>
      <trkpt lat="40.999930" lon="-5.627670">
        <ele>842</ele>
        <time>2022-12-03T19:24:12Z</time>
      </trkpt>
      <trkpt lat="41.001040" lon="-5.625880">
        <ele>840</ele>
        <time>2022-12-03T19:24:44Z</time>
      </trkpt>
      <trkpt lat="41.001710" lon="-5.624820">
        <ele>838</ele>
        <time>2022-12-03T19:25:02Z</time>
      </trkpt>
      <trkpt lat="41.001850" lon="-5.624580">
        <ele>837</ele>
        <time>2022-12-03T19:25:06Z</time>
      </trkpt>
      <trkpt lat="41.003060" lon="-5.622650">
        <ele>835</ele>
        <time>2022-12-03T19:25:40Z</time>
      </trkpt>
      <trkpt lat="41.003430" lon="-5.622090">
        <ele>836</ele>
        <time>2022-12-03T19:25:50Z</time>
      </trkpt>
      <trkpt lat="41.004370" lon="-5.620590">
        <ele>838</ele>
        <time>2022-12-03T19:26:16Z</time>
      </trkpt>
      <trkpt lat="41.006290" lon="-5.617500">
        <ele>853</ele>
        <time>2022-12-03T19:27:10Z</time>
      </trkpt>
      <trkpt lat="41.007650" lon="-5.615310">
        <ele>860</ele>
        <time>2022-12-03T19:27:48Z</time>
      </trkpt>
      <trkpt lat="41.008750" lon="-5.613490">
        <ele>862</ele>
        <time>2022-12-03T19:28:19Z</time>
      </trkpt>
      <trkpt lat="41.009110" lon="-5.612870">
        <ele>861</ele>
        <time>2022-12-03T19:28:30Z</time>
      </trkpt>
      <trkpt lat="41.009880" lon="-5.611430">
        <ele>857</ele>
        <time>2022-12-03T19:28:53Z</time>
      </trkpt>
      <trkpt lat="41.009970" lon="-5.611230">
        <ele>856</ele>
        <time>2022-12-03T19:28:57Z</time>
      </trkpt>
      <trkpt lat="41.010020" lon="-5.611070">
        <ele>856</ele>
        <time>2022-12-03T19:28:59Z</time>
      </trkpt>
      <trkpt lat="41.010040" lon="-5.610940">
        <ele>855</ele>
        <time>2022-12-03T19:29:01Z</time>
      </trkpt>
      <trkpt lat="41.010020" lon="-5.610860">
        <ele>855</ele>
        <time>2022-12-03T19:29:02Z</time>
      </trkpt>
      <trkpt lat="41.010020" lon="-5.610780">
        <ele>855</ele>
        <time>2022-12-03T19:29:03Z</time>
      </trkpt>
      <trkpt lat="41.010050" lon="-5.610680">
        <ele>855</ele>
        <time>2022-12-03T19:29:04Z</time>
      </trkpt>
      <trkpt lat="41.010150" lon="-5.610580">
        <ele>855</ele>
        <time>2022-12-03T19:29:07Z</time>
      </trkpt>
      <trkpt lat="41.010240" lon="-5.610570">
        <ele>856</ele>
        <time>2022-12-03T19:29:08Z</time>
      </trkpt>
      <trkpt lat="41.010480" lon="-5.610330">
        <ele>855</ele>
        <time>2022-12-03T19:29:13Z</time>
      </trkpt>
      <trkpt lat="41.010580" lon="-5.610150">
        <ele>855</ele>
        <time>2022-12-03T19:29:16Z</time>
      </trkpt>
      <trkpt lat="41.011530" lon="-5.608400">
        <ele>851</ele>
        <time>2022-12-03T19:29:45Z</time>
      </trkpt>
      <trkpt lat="41.012900" lon="-5.605830">
        <ele>849</ele>
        <time>2022-12-03T19:30:28Z</time>
      </trkpt>
      <trkpt lat="41.013920" lon="-5.603980">
        <ele>846</ele>
        <time>2022-12-03T19:30:58Z</time>
      </trkpt>
      <trkpt lat="41.016940" lon="-5.598520">
        <ele>840</ele>
        <time>2022-12-03T19:32:29Z</time>
      </trkpt>
      <trkpt lat="41.019980" lon="-5.592940">
        <ele>835</ele>
        <time>2022-12-03T19:34:02Z</time>
      </trkpt>
      <trkpt lat="41.020530" lon="-5.591980">
        <ele>833</ele>
        <time>2022-12-03T19:34:18Z</time>
      </trkpt>
      <trkpt lat="41.020610" lon="-5.591770">
        <ele>833</ele>
        <time>2022-12-03T19:34:21Z</time>
      </trkpt>
      <trkpt lat="41.020630" lon="-5.591660">
        <ele>833</ele>
        <time>2022-12-03T19:34:23Z</time>
      </trkpt>
      <trkpt lat="41.020630" lon="-5.591560">
        <ele>833</ele>
        <time>2022-12-03T19:34:24Z</time>
      </trkpt>
      <trkpt lat="41.020640" lon="-5.591510">
        <ele>834</ele>
        <time>2022-12-03T19:34:25Z</time>
      </trkpt>
      <trkpt lat="41.020710" lon="-5.591450">
        <ele>834</ele>
        <time>2022-12-03T19:34:26Z</time>
      </trkpt>
      <trkpt lat="41.020780" lon="-5.591450">
        <ele>834</ele>
        <time>2022-12-03T19:34:27Z</time>
      </trkpt>
      <trkpt lat="41.020980" lon="-5.591290">
        <ele>833</ele>
        <time>2022-12-03T19:34:32Z</time>
      </trkpt>
      <trkpt lat="41.021560" lon="-5.590510">
        <ele>832</ele>
        <time>2022-12-03T19:34:46Z</time>
      </trkpt>
      <trkpt lat="41.022770" lon="-5.589140">
        <ele>831</ele>
        <time>2022-12-03T19:35:15Z</time>
      </trkpt>
      <trkpt lat="41.042880" lon="-5.566900">
        <ele>831</ele>
        <time>2022-12-03T19:43:00Z</time>
      </trkpt>
      <trkpt lat="41.059730" lon="-5.548310">
        <ele>819</ele>
        <time>2022-12-03T19:49:31Z</time>
      </trkpt>
      <trkpt lat="41.059900" lon="-5.547910">
        <ele>819</ele>
        <time>2022-12-03T19:49:37Z</time>
      </trkpt>
      <trkpt lat="41.059910" lon="-5.547850">
        <ele>819</ele>
        <time>2022-12-03T19:49:37Z</time>
      </trkpt>
      <trkpt lat="41.060000" lon="-5.547750">
        <ele>820</ele>
        <time>2022-12-03T19:49:40Z</time>
      </trkpt>
      <trkpt lat="41.060070" lon="-5.547730">
        <ele>820</ele>
        <time>2022-12-03T19:49:41Z</time>
      </trkpt>
      <trkpt lat="41.060120" lon="-5.547740">
        <ele>820</ele>
        <time>2022-12-03T19:49:42Z</time>
      </trkpt>
      <trkpt lat="41.060190" lon="-5.547790">
        <ele>819</ele>
        <time>2022-12-03T19:49:43Z</time>
      </trkpt>
      <trkpt lat="41.062600" lon="-5.545120">
        <ele>819</ele>
        <time>2022-12-03T19:50:39Z</time>
      </trkpt>
      <trkpt lat="41.062880" lon="-5.544610">
        <ele>819</ele>
        <time>2022-12-03T19:50:48Z</time>
      </trkpt>
      <trkpt lat="41.062900" lon="-5.544530">
        <ele>819</ele>
        <time>2022-12-03T19:50:49Z</time>
      </trkpt>
      <trkpt lat="41.062940" lon="-5.544460">
        <ele>820</ele>
        <time>2022-12-03T19:50:50Z</time>
      </trkpt>
      <trkpt lat="41.063030" lon="-5.544410">
        <ele>820</ele>
        <time>2022-12-03T19:50:52Z</time>
      </trkpt>
      <trkpt lat="41.063120" lon="-5.544450">
        <ele>820</ele>
        <time>2022-12-03T19:50:53Z</time>
      </trkpt>
      <trkpt lat="41.063170" lon="-5.544490">
        <ele>820</ele>
        <time>2022-12-03T19:50:54Z</time>
      </trkpt>
      <trkpt lat="41.064570" lon="-5.542770">
        <ele>819</ele>
        <time>2022-12-03T19:51:28Z</time>
      </trkpt>
      <trkpt lat="41.065260" lon="-5.541860">
        <ele>818</ele>
        <time>2022-12-03T19:51:46Z</time>
      </trkpt>
      <trkpt lat="41.081350" lon="-5.519980">
        <ele>837</ele>
        <time>2022-12-03T19:58:36Z</time>
      </trkpt>
      <trkpt lat="41.087720" lon="-5.511150">
        <ele>825</ele>
        <time>2022-12-03T20:01:19Z</time>
      </trkpt>
      <trkpt lat="41.088100" lon="-5.510630">
        <ele>826</ele>
        <time>2022-12-03T20:01:29Z</time>
      </trkpt>
      <trkpt lat="41.088820" lon="-5.509540">
        <ele>825</ele>
        <time>2022-12-03T20:01:49Z</time>
      </trkpt>
      <trkpt lat="41.089690" lon="-5.508150">
        <ele>823</ele>
        <time>2022-12-03T20:02:13Z</time>
      </trkpt>
      <trkpt lat="41.092550" lon="-5.503360">
        <ele>826</ele>
        <time>2022-12-03T20:03:35Z</time>
      </trkpt>
      <trkpt lat="41.093240" lon="-5.502190">
        <ele>826</ele>
        <time>2022-12-03T20:03:55Z</time>
      </trkpt>
      <trkpt lat="41.093960" lon="-5.501010">
        <ele>825</ele>
        <time>2022-12-03T20:04:15Z</time>
      </trkpt>
      <trkpt lat="41.096440" lon="-5.496800">
        <ele>819</ele>
        <time>2022-12-03T20:05:27Z</time>
      </trkpt>
      <trkpt lat="41.101980" lon="-5.487480">
        <ele>818</ele>
        <time>2022-12-03T20:08:06Z</time>
      </trkpt>
      <trkpt lat="41.103210" lon="-5.485410">
        <ele>819</ele>
        <time>2022-12-03T20:08:41Z</time>
      </trkpt>
      <trkpt lat="41.103790" lon="-5.484530">
        <ele>820</ele>
        <time>2022-12-03T20:08:57Z</time>
      </trkpt>
      <trkpt lat="41.104200" lon="-5.483960">
        <ele>821</ele>
        <time>2022-12-03T20:09:07Z</time>
      </trkpt>
      <trkpt lat="41.104620" lon="-5.483420">
        <ele>820</ele>
        <time>2022-12-03T20:09:18Z</time>
      </trkpt>
      <trkpt lat="41.105240" lon="-5.482680">
        <ele>820</ele>
        <time>2022-12-03T20:09:33Z</time>
      </trkpt>
      <trkpt lat="41.121450" lon="-5.463640">
        <ele>833</ele>
        <time>2022-12-03T20:15:58Z</time>
      </trkpt>
      <trkpt lat="41.144050" lon="-5.437090">
        <ele>849</ele>
        <time>2022-12-03T20:24:55Z</time>
      </trkpt>
      <trkpt lat="41.144900" lon="-5.435960">
        <ele>848</ele>
        <time>2022-12-03T20:25:16Z</time>
      </trkpt>
      <trkpt lat="41.145130" lon="-5.435570">
        <ele>847</ele>
        <time>2022-12-03T20:25:23Z</time>
      </trkpt>
      <trkpt lat="41.145620" lon="-5.434670">
        <ele>845</ele>
        <time>2022-12-03T20:25:38Z</time>
      </trkpt>
      <trkpt lat="41.145840" lon="-5.434230">
        <ele>844</ele>
        <time>2022-12-03T20:25:45Z</time>
      </trkpt>
      <trkpt lat="41.146140" lon="-5.433690">
        <ele>844</ele>
        <time>2022-12-03T20:25:54Z</time>
      </trkpt>
      <trkpt lat="41.146320" lon="-5.433340">
        <ele>843</ele>
        <time>2022-12-03T20:25:59Z</time>
      </trkpt>
      <trkpt lat="41.146380" lon="-5.433300">
        <ele>843</ele>
        <time>2022-12-03T20:26:01Z</time>
      </trkpt>
      <trkpt lat="41.146320" lon="-5.433250">
        <ele>843</ele>
        <time>2022-12-03T20:26:02Z</time>
      </trkpt>
      <trkpt lat="41.147300" lon="-5.431230">
        <ele>844</ele>
        <time>2022-12-03T20:26:34Z</time>
      </trkpt>
      <trkpt lat="41.147480" lon="-5.430780">
        <ele>844</ele>
        <time>2022-12-03T20:26:41Z</time>
      </trkpt>
      <trkpt lat="41.147670" lon="-5.430220">
        <ele>844</ele>
        <time>2022-12-03T20:26:49Z</time>
      </trkpt>
      <trkpt lat="41.148000" lon="-5.429040">
        <ele>841</ele>
        <time>2022-12-03T20:27:06Z</time>
      </trkpt>
      <trkpt lat="41.150320" lon="-5.420600">
        <ele>833</ele>
        <time>2022-12-03T20:29:06Z</time>
      </trkpt>
      <trkpt lat="41.150780" lon="-5.418770">
        <ele>832</ele>
        <time>2022-12-03T20:29:32Z</time>
      </trkpt>
      <trkpt lat="41.151100" lon="-5.417260">
        <ele>827</ele>
        <time>2022-12-03T20:29:53Z</time>
      </trkpt>
      <trkpt lat="41.151640" lon="-5.414350">
        <ele>821</ele>
        <time>2022-12-03T20:30:33Z</time>
      </trkpt>
      <trkpt lat="41.151860" lon="-5.413450">
        <ele>821</ele>
        <time>2022-12-03T20:30:46Z</time>
      </trkpt>
      <trkpt lat="41.152060" lon="-5.412830">
        <ele>821</ele>
        <time>2022-12-03T20:30:55Z</time>
      </trkpt>
      <trkpt lat="41.152270" lon="-5.412260">
        <ele>820</ele>
        <time>2022-12-03T20:31:04Z</time>
      </trkpt>
      <trkpt lat="41.152530" lon="-5.411650">
        <ele>819</ele>
        <time>2022-12-03T20:31:13Z</time>
      </trkpt>
      <trkpt lat="41.153450" lon="-5.409910">
        <ele>817</ele>
        <time>2022-12-03T20:31:42Z</time>
      </trkpt>
      <trkpt lat="41.155660" lon="-5.405780">
        <ele>818</ele>
        <time>2022-12-03T20:32:49Z</time>
      </trkpt>
      <trkpt lat="41.155960" lon="-5.405180">
        <ele>818</ele>
        <time>2022-12-03T20:32:59Z</time>
      </trkpt>
      <trkpt lat="41.156160" lon="-5.404760">
        <ele>818</ele>
        <time>2022-12-03T20:33:06Z</time>
      </trkpt>
      <trkpt lat="41.156310" lon="-5.404350">
        <ele>818</ele>
        <time>2022-12-03T20:33:12Z</time>
      </trkpt>
      <trkpt lat="41.156630" lon="-5.403270">
        <ele>814</ele>
        <time>2022-12-03T20:33:27Z</time>
      </trkpt>
      <trkpt lat="41.156990" lon="-5.401750">
        <ele>810</ele>
        <time>2022-12-03T20:33:49Z</time>
      </trkpt>
      <trkpt lat="41.157200" lon="-5.401050">
        <ele>810</ele>
        <time>2022-12-03T20:33:59Z</time>
      </trkpt>
      <trkpt lat="41.157340" lon="-5.400650">
        <ele>810</ele>
        <time>2022-12-03T20:34:05Z</time>
      </trkpt>
      <trkpt lat="41.157590" lon="-5.400100">
        <ele>811</ele>
        <time>2022-12-03T20:34:13Z</time>
      </trkpt>
      <trkpt lat="41.157790" lon="-5.399710">
        <ele>812</ele>
        <time>2022-12-03T20:34:20Z</time>
      </trkpt>
      <trkpt lat="41.158000" lon="-5.399380">
        <ele>813</ele>
        <time>2022-12-03T20:34:25Z</time>
      </trkpt>
      <trkpt lat="41.159110" lon="-5.397770">
        <ele>809</ele>
        <time>2022-12-03T20:34:55Z</time>
      </trkpt>
      <trkpt lat="41.158980" lon="-5.397590">
        <ele>810</ele>
        <time>2022-12-03T20:34:58Z</time>
      </trkpt>
      <trkpt lat="41.158780" lon="-5.397240">
        <ele>812</ele>
        <time>2022-12-03T20:35:04Z</time>
      </trkpt>
      <trkpt lat="41.158730" lon="-5.397040">
        <ele>812</ele>
        <time>2022-12-03T20:35:07Z</time>
      </trkpt>
      <trkpt lat="41.158790" lon="-5.396640">
        <ele>812</ele>
        <time>2022-12-03T20:35:12Z</time>
      </trkpt>
      <trkpt lat="41.159410" lon="-5.393750">
        <ele>809</ele>
        <time>2022-12-03T20:35:52Z</time>
      </trkpt>
      <trkpt lat="41.159490" lon="-5.393450">
        <ele>809</ele>
        <time>2022-12-03T20:35:57Z</time>
      </trkpt>
      <trkpt lat="41.159700" lon="-5.392770">
        <ele>808</ele>
        <time>2022-12-03T20:36:07Z</time>
      </trkpt>
      <trkpt lat="41.166340" lon="-5.372710">
        <ele>791</ele>
        <time>2022-12-03T20:41:00Z</time>
      </trkpt>
      <trkpt lat="41.166660" lon="-5.371880">
        <ele>791</ele>
        <time>2022-12-03T20:41:13Z</time>
      </trkpt>
      <trkpt lat="41.166940" lon="-5.371320">
        <ele>790</ele>
        <time>2022-12-03T20:41:22Z</time>
      </trkpt>
      <trkpt lat="41.168170" lon="-5.372030">
        <ele>790</ele>
        <time>2022-12-03T20:41:45Z</time>
      </trkpt>
      <trkpt lat="41.168310" lon="-5.372080">
        <ele>791</ele>
        <time>2022-12-03T20:41:48Z</time>
      </trkpt>
      <trkpt lat="41.168400" lon="-5.372090">
        <ele>792</ele>
        <time>2022-12-03T20:41:50Z</time>
      </trkpt>
      <trkpt lat="41.168490" lon="-5.372050">
        <ele>792</ele>
        <time>2022-12-03T20:41:51Z</time>
      </trkpt>
      <trkpt lat="41.168590" lon="-5.371950">
        <ele>793</ele>
        <time>2022-12-03T20:41:54Z</time>
      </trkpt>
      <trkpt lat="41.169150" lon="-5.371020">
        <ele>790</ele>
        <time>2022-12-03T20:42:09Z</time>
      </trkpt>
      <trkpt lat="41.169350" lon="-5.370750">
        <ele>791</ele>
        <time>2022-12-03T20:42:15Z</time>
      </trkpt>
      <trkpt lat="41.169460" lon="-5.370640">
        <ele>793</ele>
        <time>2022-12-03T20:42:17Z</time>
      </trkpt>
      <trkpt lat="41.169620" lon="-5.370520">
        <ele>794</ele>
        <time>2022-12-03T20:42:20Z</time>
      </trkpt>
      <trkpt lat="41.169780" lon="-5.370460">
        <ele>796</ele>
        <time>2022-12-03T20:42:23Z</time>
      </trkpt>
      <trkpt lat="41.169890" lon="-5.370490">
        <ele>797</ele>
        <time>2022-12-03T20:42:25Z</time>
      </trkpt>
      <trkpt lat="41.168610" lon="-5.373040">
        <ele>797</ele>
        <time>2022-12-03T20:43:06Z</time>
      </trkpt>
      <trkpt lat="41.169520" lon="-5.371210">
        <ele>796</ele>
        <time>2022-12-03T20:43:36Z</time>
      </trkpt>
      <trkpt lat="41.169650" lon="-5.370790">
        <ele>795</ele>
        <time>2022-12-03T20:43:42Z</time>
      </trkpt>
      <trkpt lat="41.169610" lon="-5.370710">
        <ele>795</ele>
        <time>2022-12-03T20:43:43Z</time>
      </trkpt>
      <trkpt lat="41.169550" lon="-5.370650">
        <ele>794</ele>
        <time>2022-12-03T20:43:44Z</time>
      </trkpt>
      <trkpt lat="41.169460" lon="-5.370640">
        <ele>793</ele>
        <time>2022-12-03T20:43:46Z</time>
      </trkpt>
      <trkpt lat="41.169350" lon="-5.370750">
        <ele>791</ele>
        <time>2022-12-03T20:43:48Z</time>
      </trkpt>
      <trkpt lat="41.169150" lon="-5.371020">
        <ele>790</ele>
        <time>2022-12-03T20:43:53Z</time>
      </trkpt>
      <trkpt lat="41.168590" lon="-5.371950">
        <ele>793</ele>
        <time>2022-12-03T20:44:09Z</time>
      </trkpt>
      <trkpt lat="41.168490" lon="-5.372050">
        <ele>792</ele>
        <time>2022-12-03T20:44:12Z</time>
      </trkpt>
      <trkpt lat="41.168400" lon="-5.372090">
        <ele>792</ele>
        <time>2022-12-03T20:44:13Z</time>
      </trkpt>
      <trkpt lat="41.168310" lon="-5.372080">
        <ele>791</ele>
        <time>2022-12-03T20:44:15Z</time>
      </trkpt>
      <trkpt lat="41.168170" lon="-5.372030">
        <ele>790</ele>
        <time>2022-12-03T20:44:18Z</time>
      </trkpt>
      <trkpt lat="41.166940" lon="-5.371320">
        <ele>790</ele>
        <time>2022-12-03T20:44:41Z</time>
      </trkpt>
      <trkpt lat="41.166910" lon="-5.371250">
        <ele>791</ele>
        <time>2022-12-03T20:44:42Z</time>
      </trkpt>
      <trkpt lat="41.166890" lon="-5.371180">
        <ele>791</ele>
        <time>2022-12-03T20:44:43Z</time>
      </trkpt>
      <trkpt lat="41.166910" lon="-5.371030">
        <ele>791</ele>
        <time>2022-12-03T20:44:46Z</time>
      </trkpt>
      <trkpt lat="41.166880" lon="-5.370980">
        <ele>791</ele>
        <time>2022-12-03T20:44:46Z</time>
      </trkpt>
      <trkpt lat="41.166870" lon="-5.370910">
        <ele>792</ele>
        <time>2022-12-03T20:44:47Z</time>
      </trkpt>
      <trkpt lat="41.166880" lon="-5.370610">
        <ele>792</ele>
        <time>2022-12-03T20:44:51Z</time>
      </trkpt>
      <trkpt lat="41.166790" lon="-5.370470">
        <ele>793</ele>
        <time>2022-12-03T20:44:54Z</time>
      </trkpt>
      <trkpt lat="41.166670" lon="-5.370330">
        <ele>794</ele>
        <time>2022-12-03T20:44:57Z</time>
      </trkpt>
      <trkpt lat="41.166590" lon="-5.370270">
        <ele>795</ele>
        <time>2022-12-03T20:44:58Z</time>
      </trkpt>
      <trkpt lat="41.166450" lon="-5.370200">
        <ele>797</ele>
        <time>2022-12-03T20:45:01Z</time>
      </trkpt>
      <trkpt lat="41.166390" lon="-5.370210">
        <ele>797</ele>
        <time>2022-12-03T20:45:02Z</time>
      </trkpt>
      <trkpt lat="41.165920" lon="-5.370440">
        <ele>802</ele>
        <time>2022-12-03T20:45:11Z</time>
      </trkpt>
      <trkpt lat="41.165900" lon="-5.370220">
        <ele>802</ele>
        <time>2022-12-03T20:45:14Z</time>
      </trkpt>
      <trkpt lat="41.165870" lon="-5.370120">
        <ele>803</ele>
        <time>2022-12-03T20:45:15Z</time>
      </trkpt>
      <trkpt lat="41.165680" lon="-5.369780">
        <ele>801</ele>
        <time>2022-12-03T20:45:21Z</time>
      </trkpt>
      <trkpt lat="41.165580" lon="-5.369460">
        <ele>799</ele>
        <time>2022-12-03T20:45:26Z</time>
      </trkpt>
      <trkpt lat="41.165540" lon="-5.369250">
        <ele>798</ele>
        <time>2022-12-03T20:45:29Z</time>
      </trkpt>
      <trkpt lat="41.165540" lon="-5.369120">
        <ele>798</ele>
        <time>2022-12-03T20:45:30Z</time>
      </trkpt>
      <trkpt lat="41.165520" lon="-5.369040">
        <ele>798</ele>
        <time>2022-12-03T20:45:31Z</time>
      </trkpt>
      <trkpt lat="41.165480" lon="-5.368970">
        <ele>798</ele>
        <time>2022-12-03T20:45:33Z</time>
      </trkpt>
      <trkpt lat="41.165450" lon="-5.368880">
        <ele>798</ele>
        <time>2022-12-03T20:45:34Z</time>
      </trkpt>
      <trkpt lat="41.165400" lon="-5.368700">
        <ele>798</ele>
        <time>2022-12-03T20:45:37Z</time>
      </trkpt>
      <trkpt lat="41.165370" lon="-5.368470">
        <ele>798</ele>
        <time>2022-12-03T20:45:40Z</time>
      </trkpt>
      <trkpt lat="41.165310" lon="-5.368250">
        <ele>798</ele>
        <time>2022-12-03T20:45:43Z</time>
      </trkpt>
      <trkpt lat="41.165230" lon="-5.368050">
        <ele>798</ele>
        <time>2022-12-03T20:45:46Z</time>
      </trkpt>
      <trkpt lat="41.164980" lon="-5.367670">
        <ele>799</ele>
        <time>2022-12-03T20:45:53Z</time>
      </trkpt>
      <trkpt lat="41.164520" lon="-5.367150">
        <ele>798</ele>
        <time>2022-12-03T20:46:03Z</time>
      </trkpt>
      <trkpt lat="41.164210" lon="-5.366880">
        <ele>796</ele>
        <time>2022-12-03T20:46:10Z</time>
      </trkpt>
      <trkpt lat="41.163530" lon="-5.366440">
        <ele>795</ele>
        <time>2022-12-03T20:46:23Z</time>
      </trkpt>
      <trkpt lat="41.163470" lon="-5.366370">
        <ele>794</ele>
        <time>2022-12-03T20:46:25Z</time>
      </trkpt>
      <trkpt lat="41.163440" lon="-5.366270">
        <ele>794</ele>
        <time>2022-12-03T20:46:26Z</time>
      </trkpt>
      <trkpt lat="41.163430" lon="-5.366080">
        <ele>793</ele>
        <time>2022-12-03T20:46:29Z</time>
      </trkpt>
      <trkpt lat="41.163440" lon="-5.365690">
        <ele>792</ele>
        <time>2022-12-03T20:46:34Z</time>
      </trkpt>
      <trkpt lat="41.163410" lon="-5.365550">
        <ele>792</ele>
        <time>2022-12-03T20:46:36Z</time>
      </trkpt>
      <trkpt lat="41.163260" lon="-5.365270">
        <ele>793</ele>
        <time>2022-12-03T20:46:41Z</time>
      </trkpt>
      <trkpt lat="41.163250" lon="-5.365120">
        <ele>793</ele>
        <time>2022-12-03T20:46:43Z</time>
      </trkpt>
      <trkpt lat="41.163110" lon="-5.365080">
        <ele>793</ele>
        <time>2022-12-03T20:46:45Z</time>
      </trkpt>
      <trkpt lat="41.162550" lon="-5.364790">
        <ele>796</ele>
        <time>2022-12-03T20:46:56Z</time>
      </trkpt>
      <trkpt lat="41.159300" lon="-5.363020">
        <ele>813</ele>
        <time>2022-12-03T20:47:58Z</time>
      </trkpt>
      <trkpt lat="41.158960" lon="-5.362770">
        <ele>815</ele>
        <time>2022-12-03T20:48:05Z</time>
      </trkpt>
      <trkpt lat="41.156730" lon="-5.360820">
        <ele>824</ele>
        <time>2022-12-03T20:48:53Z</time>
      </trkpt>
      <trkpt lat="41.153700" lon="-5.358250">
        <ele>822</ele>
        <time>2022-12-03T20:49:57Z</time>
      </trkpt>
      <trkpt lat="41.153460" lon="-5.358000">
        <ele>823</ele>
        <time>2022-12-03T20:50:02Z</time>
      </trkpt>
      <trkpt lat="41.153270" lon="-5.357760">
        <ele>824</ele>
        <time>2022-12-03T20:50:07Z</time>
      </trkpt>
      <trkpt lat="41.150590" lon="-5.353680">
        <ele>826</ele>
        <time>2022-12-03T20:51:19Z</time>
      </trkpt>
      <trkpt lat="41.148250" lon="-5.350810">
        <ele>817</ele>
        <time>2022-12-03T20:52:16Z</time>
      </trkpt>
      <trkpt lat="41.146500" lon="-5.348340">
        <ele>807</ele>
        <time>2022-12-03T20:53:01Z</time>
      </trkpt>
      <trkpt lat="41.146100" lon="-5.347730">
        <ele>806</ele>
        <time>2022-12-03T20:53:12Z</time>
      </trkpt>
      <trkpt lat="41.141050" lon="-5.338150">
        <ele>788</ele>
        <time>2022-12-03T20:55:49Z</time>
      </trkpt>
      <trkpt lat="41.140820" lon="-5.337620">
        <ele>786</ele>
        <time>2022-12-03T20:55:57Z</time>
      </trkpt>
      <trkpt lat="41.140680" lon="-5.337190">
        <ele>784</ele>
        <time>2022-12-03T20:56:03Z</time>
      </trkpt>
      <trkpt lat="41.139620" lon="-5.333470">
        <ele>773</ele>
        <time>2022-12-03T20:56:57Z</time>
      </trkpt>
      <trkpt lat="41.139370" lon="-5.332690">
        <ele>768</ele>
        <time>2022-12-03T20:57:08Z</time>
      </trkpt>
      <trkpt lat="41.138990" lon="-5.331790">
        <ele>765</ele>
        <time>2022-12-03T20:57:22Z</time>
      </trkpt>
      <trkpt lat="41.138900" lon="-5.331580">
        <ele>765</ele>
        <time>2022-12-03T20:57:25Z</time>
      </trkpt>
      <trkpt lat="41.137420" lon="-5.328220">
        <ele>758</ele>
        <time>2022-12-03T20:58:17Z</time>
      </trkpt>
      <trkpt lat="41.137200" lon="-5.327710">
        <ele>758</ele>
        <time>2022-12-03T20:58:25Z</time>
      </trkpt>
      <trkpt lat="41.137010" lon="-5.327240">
        <ele>758</ele>
        <time>2022-12-03T20:58:32Z</time>
      </trkpt>
      <trkpt lat="41.136960" lon="-5.327070">
        <ele>757</ele>
        <time>2022-12-03T20:58:35Z</time>
      </trkpt>
      <trkpt lat="41.136890" lon="-5.326680">
        <ele>757</ele>
        <time>2022-12-03T20:58:40Z</time>
      </trkpt>
      <trkpt lat="41.136790" lon="-5.326330">
        <ele>757</ele>
        <time>2022-12-03T20:58:45Z</time>
      </trkpt>
      <trkpt lat="41.136600" lon="-5.325950">
        <ele>758</ele>
        <time>2022-12-03T20:58:51Z</time>
      </trkpt>
      <trkpt lat="41.136430" lon="-5.325700">
        <ele>760</ele>
        <time>2022-12-03T20:58:56Z</time>
      </trkpt>
      <trkpt lat="41.136050" lon="-5.325370">
        <ele>763</ele>
        <time>2022-12-03T20:59:04Z</time>
      </trkpt>
      <trkpt lat="41.135960" lon="-5.325250">
        <ele>764</ele>
        <time>2022-12-03T20:59:06Z</time>
      </trkpt>
      <trkpt lat="41.135380" lon="-5.323990">
        <ele>772</ele>
        <time>2022-12-03T20:59:26Z</time>
      </trkpt>
      <trkpt lat="41.135340" lon="-5.323850">
        <ele>773</ele>
        <time>2022-12-03T20:59:28Z</time>
      </trkpt>
      <trkpt lat="41.135320" lon="-5.323590">
        <ele>775</ele>
        <time>2022-12-03T20:59:31Z</time>
      </trkpt>
      <trkpt lat="41.135280" lon="-5.322870">
        <ele>776</ele>
        <time>2022-12-03T20:59:41Z</time>
      </trkpt>
      <trkpt lat="41.135260" lon="-5.322590">
        <ele>776</ele>
        <time>2022-12-03T20:59:45Z</time>
      </trkpt>
      <trkpt lat="41.135170" lon="-5.322290">
        <ele>777</ele>
        <time>2022-12-03T20:59:49Z</time>
      </trkpt>
      <trkpt lat="41.135020" lon="-5.322010">
        <ele>778</ele>
        <time>2022-12-03T20:59:54Z</time>
      </trkpt>
      <trkpt lat="41.134840" lon="-5.321830">
        <ele>778</ele>
        <time>2022-12-03T20:59:58Z</time>
      </trkpt>
      <trkpt lat="41.134680" lon="-5.321740">
        <ele>778</ele>
        <time>2022-12-03T21:00:01Z</time>
      </trkpt>
      <trkpt lat="41.133180" lon="-5.321220">
        <ele>783</ele>
        <time>2022-12-03T21:00:29Z</time>
      </trkpt>
      <trkpt lat="41.132920" lon="-5.321110">
        <ele>784</ele>
        <time>2022-12-03T21:00:33Z</time>
      </trkpt>
      <trkpt lat="41.132750" lon="-5.321020">
        <ele>785</ele>
        <time>2022-12-03T21:00:37Z</time>
      </trkpt>
      <trkpt lat="41.132570" lon="-5.320900">
        <ele>786</ele>
        <time>2022-12-03T21:00:40Z</time>
      </trkpt>
      <trkpt lat="41.132350" lon="-5.320710">
        <ele>787</ele>
        <time>2022-12-03T21:00:45Z</time>
      </trkpt>
      <trkpt lat="41.131880" lon="-5.320240">
        <ele>790</ele>
        <time>2022-12-03T21:00:55Z</time>
      </trkpt>
      <trkpt lat="41.131620" lon="-5.319950">
        <ele>791</ele>
        <time>2022-12-03T21:01:01Z</time>
      </trkpt>
      <trkpt lat="41.131460" lon="-5.319730">
        <ele>791</ele>
        <time>2022-12-03T21:01:06Z</time>
      </trkpt>
      <trkpt lat="41.125890" lon="-5.310300">
        <ele>783</ele>
        <time>2022-12-03T21:03:46Z</time>
      </trkpt>
      <trkpt lat="41.119700" lon="-5.299830">
        <ele>783</ele>
        <time>2022-12-03T21:06:45Z</time>
      </trkpt>
      <trkpt lat="41.119340" lon="-5.299370">
        <ele>784</ele>
        <time>2022-12-03T21:06:53Z</time>
      </trkpt>
      <trkpt lat="41.119000" lon="-5.299080">
        <ele>785</ele>
        <time>2022-12-03T21:07:01Z</time>
      </trkpt>
      <trkpt lat="41.118730" lon="-5.298920">
        <ele>784</ele>
        <time>2022-12-03T21:07:06Z</time>
      </trkpt>
      <trkpt lat="41.118370" lon="-5.298780">
        <ele>784</ele>
        <time>2022-12-03T21:07:13Z</time>
      </trkpt>
      <trkpt lat="41.117820" lon="-5.298710">
        <ele>784</ele>
        <time>2022-12-03T21:07:22Z</time>
      </trkpt>
      <trkpt lat="41.116030" lon="-5.298720">
        <ele>775</ele>
        <time>2022-12-03T21:07:54Z</time>
      </trkpt>
      <trkpt lat="41.115620" lon="-5.298690">
        <ele>775</ele>
        <time>2022-12-03T21:08:02Z</time>
      </trkpt>
      <trkpt lat="41.115090" lon="-5.298690">
        <ele>776</ele>
        <time>2022-12-03T21:08:11Z</time>
      </trkpt>
      <trkpt lat="41.115020" lon="-5.298640">
        <ele>776</ele>
        <time>2022-12-03T21:08:12Z</time>
      </trkpt>
      <trkpt lat="41.114980" lon="-5.298590">
        <ele>776</ele>
        <time>2022-12-03T21:08:13Z</time>
      </trkpt>
      <trkpt lat="41.114930" lon="-5.298470">
        <ele>776</ele>
        <time>2022-12-03T21:08:15Z</time>
      </trkpt>
      <trkpt lat="41.114940" lon="-5.298260">
        <ele>776</ele>
        <time>2022-12-03T21:08:18Z</time>
      </trkpt>
      <trkpt lat="41.115030" lon="-5.298020">
        <ele>776</ele>
        <time>2022-12-03T21:08:22Z</time>
      </trkpt>
      <trkpt lat="41.115120" lon="-5.297710">
        <ele>776</ele>
        <time>2022-12-03T21:08:26Z</time>
      </trkpt>
      <trkpt lat="41.115200" lon="-5.297440">
        <ele>777</ele>
        <time>2022-12-03T21:08:30Z</time>
      </trkpt>
      <trkpt lat="41.115390" lon="-5.297000">
        <ele>776</ele>
        <time>2022-12-03T21:08:37Z</time>
      </trkpt>
      <trkpt lat="41.116480" lon="-5.294810">
        <ele>774</ele>
        <time>2022-12-03T21:09:12Z</time>
      </trkpt>
      <trkpt lat="41.116810" lon="-5.294130">
        <ele>774</ele>
        <time>2022-12-03T21:09:23Z</time>
      </trkpt>
      <trkpt lat="41.116920" lon="-5.293840">
        <ele>774</ele>
        <time>2022-12-03T21:09:27Z</time>
      </trkpt>
      <trkpt lat="41.117090" lon="-5.293390">
        <ele>774</ele>
        <time>2022-12-03T21:09:34Z</time>
      </trkpt>
      <trkpt lat="41.117180" lon="-5.293060">
        <ele>774</ele>
        <time>2022-12-03T21:09:39Z</time>
      </trkpt>
      <trkpt lat="41.117270" lon="-5.292670">
        <ele>775</ele>
        <time>2022-12-03T21:09:44Z</time>
      </trkpt>
      <trkpt lat="41.117350" lon="-5.292180">
        <ele>776</ele>
        <time>2022-12-03T21:09:51Z</time>
      </trkpt>
      <trkpt lat="41.117390" lon="-5.291860">
        <ele>776</ele>
        <time>2022-12-03T21:09:55Z</time>
      </trkpt>
      <trkpt lat="41.117420" lon="-5.291230">
        <ele>775</ele>
        <time>2022-12-03T21:10:04Z</time>
      </trkpt>
      <trkpt lat="41.117420" lon="-5.290740">
        <ele>774</ele>
        <time>2022-12-03T21:10:10Z</time>
      </trkpt>
      <trkpt lat="41.117370" lon="-5.290170">
        <ele>774</ele>
        <time>2022-12-03T21:10:18Z</time>
      </trkpt>
      <trkpt lat="41.116610" lon="-5.284460">
        <ele>769</ele>
        <time>2022-12-03T21:11:36Z</time>
      </trkpt>
      <trkpt lat="41.116560" lon="-5.284050">
        <ele>769</ele>
        <time>2022-12-03T21:11:41Z</time>
      </trkpt>
      <trkpt lat="41.113520" lon="-5.261090">
        <ele>788</ele>
        <time>2022-12-03T21:16:54Z</time>
      </trkpt>
      <trkpt lat="41.113380" lon="-5.260220">
        <ele>790</ele>
        <time>2022-12-03T21:17:06Z</time>
      </trkpt>
      <trkpt lat="41.113240" lon="-5.259530">
        <ele>793</ele>
        <time>2022-12-03T21:17:15Z</time>
      </trkpt>
      <trkpt lat="41.112310" lon="-5.255610">
        <ele>793</ele>
        <time>2022-12-03T21:18:10Z</time>
      </trkpt>
      <trkpt lat="41.110930" lon="-5.249690">
        <ele>789</ele>
        <time>2022-12-03T21:19:33Z</time>
      </trkpt>
      <trkpt lat="41.110750" lon="-5.248800">
        <ele>788</ele>
        <time>2022-12-03T21:19:46Z</time>
      </trkpt>
      <trkpt lat="41.110530" lon="-5.247380">
        <ele>784</ele>
        <time>2022-12-03T21:20:05Z</time>
      </trkpt>
      <trkpt lat="41.110360" lon="-5.246070">
        <ele>784</ele>
        <time>2022-12-03T21:20:23Z</time>
      </trkpt>
      <trkpt lat="41.110250" lon="-5.244840">
        <ele>784</ele>
        <time>2022-12-03T21:20:39Z</time>
      </trkpt>
      <trkpt lat="41.110210" lon="-5.244120">
        <ele>784</ele>
        <time>2022-12-03T21:20:49Z</time>
      </trkpt>
      <trkpt lat="41.109960" lon="-5.237760">
        <ele>779</ele>
        <time>2022-12-03T21:22:15Z</time>
      </trkpt>
      <trkpt lat="41.109950" lon="-5.237600">
        <ele>780</ele>
        <time>2022-12-03T21:22:17Z</time>
      </trkpt>
      <trkpt lat="41.109700" lon="-5.230860">
        <ele>782</ele>
        <time>2022-12-03T21:23:47Z</time>
      </trkpt>
      <trkpt lat="41.109680" lon="-5.229670">
        <ele>785</ele>
        <time>2022-12-03T21:24:03Z</time>
      </trkpt>
      <trkpt lat="41.109690" lon="-5.228920">
        <ele>785</ele>
        <time>2022-12-03T21:24:13Z</time>
      </trkpt>
      <trkpt lat="41.109730" lon="-5.228180">
        <ele>784</ele>
        <time>2022-12-03T21:24:23Z</time>
      </trkpt>
      <trkpt lat="41.109870" lon="-5.226780">
        <ele>785</ele>
        <time>2022-12-03T21:24:42Z</time>
      </trkpt>
      <trkpt lat="41.109950" lon="-5.226210">
        <ele>785</ele>
        <time>2022-12-03T21:24:50Z</time>
      </trkpt>
      <trkpt lat="41.110190" lon="-5.224950">
        <ele>784</ele>
        <time>2022-12-03T21:25:07Z</time>
      </trkpt>
      <trkpt lat="41.112710" lon="-5.212700">
        <ele>796</ele>
        <time>2022-12-03T21:27:57Z</time>
      </trkpt>
      <trkpt lat="41.113130" lon="-5.210520">
        <ele>799</ele>
        <time>2022-12-03T21:28:28Z</time>
      </trkpt>
      <trkpt lat="41.113380" lon="-5.208820">
        <ele>802</ele>
        <time>2022-12-03T21:28:51Z</time>
      </trkpt>
      <trkpt lat="41.113520" lon="-5.207400">
        <ele>801</ele>
        <time>2022-12-03T21:29:10Z</time>
      </trkpt>
      <trkpt lat="41.113590" lon="-5.206450">
        <ele>799</ele>
        <time>2022-12-03T21:29:23Z</time>
      </trkpt>
      <trkpt lat="41.113640" lon="-5.205240">
        <ele>796</ele>
        <time>2022-12-03T21:29:39Z</time>
      </trkpt>
      <trkpt lat="41.114160" lon="-5.185850">
        <ele>781</ele>
        <time>2022-12-03T21:33:59Z</time>
      </trkpt>
      <trkpt lat="41.114190" lon="-5.184840">
        <ele>782</ele>
        <time>2022-12-03T21:34:13Z</time>
      </trkpt>
      <trkpt lat="41.114150" lon="-5.184460">
        <ele>783</ele>
        <time>2022-12-03T21:34:18Z</time>
      </trkpt>
      <trkpt lat="41.114160" lon="-5.184240">
        <ele>783</ele>
        <time>2022-12-03T21:34:21Z</time>
      </trkpt>
      <trkpt lat="41.114110" lon="-5.184040">
        <ele>783</ele>
        <time>2022-12-03T21:34:24Z</time>
      </trkpt>
      <trkpt lat="41.114060" lon="-5.183980">
        <ele>783</ele>
        <time>2022-12-03T21:34:25Z</time>
      </trkpt>
      <trkpt lat="41.113910" lon="-5.183960">
        <ele>783</ele>
        <time>2022-12-03T21:34:28Z</time>
      </trkpt>
      <trkpt lat="41.113800" lon="-5.183980">
        <ele>783</ele>
        <time>2022-12-03T21:34:30Z</time>
      </trkpt>
      <trkpt lat="41.111740" lon="-5.184820">
        <ele>785</ele>
        <time>2022-12-03T21:35:08Z</time>
      </trkpt>
      <trkpt lat="41.111180" lon="-5.185020">
        <ele>785</ele>
        <time>2022-12-03T21:35:18Z</time>
      </trkpt>
      <trkpt lat="41.110260" lon="-5.185280">
        <ele>784</ele>
        <time>2022-12-03T21:35:35Z</time>
      </trkpt>
      <trkpt lat="41.106770" lon="-5.186190">
        <ele>784</ele>
        <time>2022-12-03T21:36:38Z</time>
      </trkpt>
      <trkpt lat="41.105950" lon="-5.186430">
        <ele>784</ele>
        <time>2022-12-03T21:36:53Z</time>
      </trkpt>
      <trkpt lat="41.105220" lon="-5.186680">
        <ele>786</ele>
        <time>2022-12-03T21:37:07Z</time>
      </trkpt>
      <trkpt lat="41.104550" lon="-5.186980">
        <ele>786</ele>
        <time>2022-12-03T21:37:19Z</time>
      </trkpt>
      <trkpt lat="41.102900" lon="-5.187790">
        <ele>787</ele>
        <time>2022-12-03T21:37:50Z</time>
      </trkpt>
      <trkpt lat="41.102580" lon="-5.187910">
        <ele>788</ele>
        <time>2022-12-03T21:37:56Z</time>
      </trkpt>
      <trkpt lat="41.102400" lon="-5.187960">
        <ele>788</ele>
        <time>2022-12-03T21:38:00Z</time>
      </trkpt>
      <trkpt lat="41.102070" lon="-5.187960">
        <ele>789</ele>
        <time>2022-12-03T21:38:06Z</time>
      </trkpt>
      <trkpt lat="41.101800" lon="-5.187910">
        <ele>790</ele>
        <time>2022-12-03T21:38:10Z</time>
      </trkpt>
      <trkpt lat="41.101630" lon="-5.187860">
        <ele>790</ele>
        <time>2022-12-03T21:38:13Z</time>
      </trkpt>
      <trkpt lat="41.100770" lon="-5.187430">
        <ele>789</ele>
        <time>2022-12-03T21:38:30Z</time>
      </trkpt>
      <trkpt lat="41.100540" lon="-5.187350">
        <ele>789</ele>
        <time>2022-12-03T21:38:34Z</time>
      </trkpt>
      <trkpt lat="41.100170" lon="-5.187300">
        <ele>789</ele>
        <time>2022-12-03T21:38:41Z</time>
      </trkpt>
      <trkpt lat="41.099570" lon="-5.187350">
        <ele>789</ele>
        <time>2022-12-03T21:38:51Z</time>
      </trkpt>
      <trkpt lat="41.091620" lon="-5.188600">
        <ele>797</ele>
        <time>2022-12-03T21:41:14Z</time>
      </trkpt>
      <trkpt lat="41.091320" lon="-5.188670">
        <ele>797</ele>
        <time>2022-12-03T21:41:19Z</time>
      </trkpt>
      <trkpt lat="41.091070" lon="-5.188770">
        <ele>797</ele>
        <time>2022-12-03T21:41:24Z</time>
      </trkpt>
      <trkpt lat="41.090810" lon="-5.188890">
        <ele>797</ele>
        <time>2022-12-03T21:41:29Z</time>
      </trkpt>
      <trkpt lat="41.090570" lon="-5.189040">
        <ele>797</ele>
        <time>2022-12-03T21:41:33Z</time>
      </trkpt>
      <trkpt lat="41.089650" lon="-5.189760">
        <ele>796</ele>
        <time>2022-12-03T21:41:52Z</time>
      </trkpt>
      <trkpt lat="41.089380" lon="-5.189920">
        <ele>797</ele>
        <time>2022-12-03T21:41:58Z</time>
      </trkpt>
      <trkpt lat="41.088970" lon="-5.190120">
        <ele>797</ele>
        <time>2022-12-03T21:42:06Z</time>
      </trkpt>
      <trkpt lat="41.085160" lon="-5.191170">
        <ele>795</ele>
        <time>2022-12-03T21:43:15Z</time>
      </trkpt>
      <trkpt lat="41.084770" lon="-5.191300">
        <ele>795</ele>
        <time>2022-12-03T21:43:22Z</time>
      </trkpt>
      <trkpt lat="41.083630" lon="-5.191770">
        <ele>796</ele>
        <time>2022-12-03T21:43:43Z</time>
      </trkpt>
      <trkpt lat="41.082940" lon="-5.192010">
        <ele>796</ele>
        <time>2022-12-03T21:43:56Z</time>
      </trkpt>
      <trkpt lat="41.082340" lon="-5.192110">
        <ele>796</ele>
        <time>2022-12-03T21:44:07Z</time>
      </trkpt>
      <trkpt lat="41.081730" lon="-5.192120">
        <ele>797</ele>
        <time>2022-12-03T21:44:17Z</time>
      </trkpt>
      <trkpt lat="41.078660" lon="-5.191870">
        <ele>804</ele>
        <time>2022-12-03T21:45:12Z</time>
      </trkpt>
      <trkpt lat="41.078440" lon="-5.191860">
        <ele>804</ele>
        <time>2022-12-03T21:45:16Z</time>
      </trkpt>
      <trkpt lat="41.077880" lon="-5.191750">
        <ele>805</ele>
        <time>2022-12-03T21:45:26Z</time>
      </trkpt>
      <trkpt lat="41.077500" lon="-5.191620">
        <ele>806</ele>
        <time>2022-12-03T21:45:33Z</time>
      </trkpt>
      <trkpt lat="41.076140" lon="-5.191000">
        <ele>810</ele>
        <time>2022-12-03T21:45:59Z</time>
      </trkpt>
      <trkpt lat="41.075570" lon="-5.190800">
        <ele>810</ele>
        <time>2022-12-03T21:46:09Z</time>
      </trkpt>
      <trkpt lat="41.075020" lon="-5.190700">
        <ele>810</ele>
        <time>2022-12-03T21:46:19Z</time>
      </trkpt>
      <trkpt lat="41.074750" lon="-5.190680">
        <ele>809</ele>
        <time>2022-12-03T21:46:24Z</time>
      </trkpt>
      <trkpt lat="41.074500" lon="-5.190690">
        <ele>809</ele>
        <time>2022-12-03T21:46:28Z</time>
      </trkpt>
      <trkpt lat="41.074030" lon="-5.190750">
        <ele>808</ele>
        <time>2022-12-03T21:46:37Z</time>
      </trkpt>
      <trkpt lat="41.073490" lon="-5.190910">
        <ele>808</ele>
        <time>2022-12-03T21:46:47Z</time>
      </trkpt>
      <trkpt lat="41.072210" lon="-5.191470">
        <ele>808</ele>
        <time>2022-12-03T21:47:11Z</time>
      </trkpt>
      <trkpt lat="41.071730" lon="-5.191660">
        <ele>808</ele>
        <time>2022-12-03T21:47:20Z</time>
      </trkpt>
      <trkpt lat="41.071300" lon="-5.191780">
        <ele>807</ele>
        <time>2022-12-03T21:47:27Z</time>
      </trkpt>
      <trkpt lat="41.070990" lon="-5.191840">
        <ele>806</ele>
        <time>2022-12-03T21:47:33Z</time>
      </trkpt>
      <trkpt lat="41.070690" lon="-5.191870">
        <ele>805</ele>
        <time>2022-12-03T21:47:38Z</time>
      </trkpt>
      <trkpt lat="41.070040" lon="-5.191900">
        <ele>805</ele>
        <time>2022-12-03T21:47:50Z</time>
      </trkpt>
      <trkpt lat="41.067620" lon="-5.191700">
        <ele>802</ele>
        <time>2022-12-03T21:48:33Z</time>
      </trkpt>
      <trkpt lat="41.066960" lon="-5.191720">
        <ele>803</ele>
        <time>2022-12-03T21:48:45Z</time>
      </trkpt>
      <trkpt lat="41.066140" lon="-5.191810">
        <ele>803</ele>
        <time>2022-12-03T21:48:59Z</time>
      </trkpt>
      <trkpt lat="41.065550" lon="-5.191840">
        <ele>804</ele>
        <time>2022-12-03T21:49:10Z</time>
      </trkpt>
      <trkpt lat="41.065230" lon="-5.191810">
        <ele>804</ele>
        <time>2022-12-03T21:49:16Z</time>
      </trkpt>
      <trkpt lat="41.063960" lon="-5.191640">
        <ele>802</ele>
        <time>2022-12-03T21:49:38Z</time>
      </trkpt>
      <trkpt lat="41.063680" lon="-5.191630">
        <ele>803</ele>
        <time>2022-12-03T21:49:43Z</time>
      </trkpt>
      <trkpt lat="41.063310" lon="-5.191650">
        <ele>803</ele>
        <time>2022-12-03T21:49:50Z</time>
      </trkpt>
      <trkpt lat="41.061930" lon="-5.191860">
        <ele>804</ele>
        <time>2022-12-03T21:50:15Z</time>
      </trkpt>
      <trkpt lat="41.061080" lon="-5.192050">
        <ele>803</ele>
        <time>2022-12-03T21:50:30Z</time>
      </trkpt>
      <trkpt lat="41.060700" lon="-5.192180">
        <ele>803</ele>
        <time>2022-12-03T21:50:37Z</time>
      </trkpt>
      <trkpt lat="41.057400" lon="-5.193670">
        <ele>804</ele>
        <time>2022-12-03T21:51:39Z</time>
      </trkpt>
      <trkpt lat="41.055880" lon="-5.194160">
        <ele>803</ele>
        <time>2022-12-03T21:52:07Z</time>
      </trkpt>
      <trkpt lat="41.055560" lon="-5.194310">
        <ele>803</ele>
        <time>2022-12-03T21:52:13Z</time>
      </trkpt>
      <trkpt lat="41.055470" lon="-5.194360">
        <ele>803</ele>
        <time>2022-12-03T21:52:15Z</time>
      </trkpt>
      <trkpt lat="41.055300" lon="-5.194510">
        <ele>803</ele>
        <time>2022-12-03T21:52:18Z</time>
      </trkpt>
      <trkpt lat="41.055120" lon="-5.194750">
        <ele>803</ele>
        <time>2022-12-03T21:52:23Z</time>
      </trkpt>
      <trkpt lat="41.054960" lon="-5.194930">
        <ele>803</ele>
        <time>2022-12-03T21:52:26Z</time>
      </trkpt>
      <trkpt lat="41.054790" lon="-5.194970">
        <ele>804</ele>
        <time>2022-12-03T21:52:30Z</time>
      </trkpt>
      <trkpt lat="41.054540" lon="-5.194900">
        <ele>804</ele>
        <time>2022-12-03T21:52:34Z</time>
      </trkpt>
      <trkpt lat="41.053690" lon="-5.194300">
        <ele>805</ele>
        <time>2022-12-03T21:52:51Z</time>
      </trkpt>
      <trkpt lat="41.053590" lon="-5.194170">
        <ele>805</ele>
        <time>2022-12-03T21:52:54Z</time>
      </trkpt>
      <trkpt lat="41.053120" lon="-5.193320">
        <ele>804</ele>
        <time>2022-12-03T21:53:08Z</time>
      </trkpt>
      <trkpt lat="41.052950" lon="-5.193300">
        <ele>804</ele>
        <time>2022-12-03T21:53:11Z</time>
      </trkpt>
      <trkpt lat="41.052780" lon="-5.193320">
        <ele>805</ele>
        <time>2022-12-03T21:53:14Z</time>
      </trkpt>
      <trkpt lat="41.052360" lon="-5.193490">
        <ele>806</ele>
        <time>2022-12-03T21:53:22Z</time>
      </trkpt>
      <trkpt lat="41.051900" lon="-5.193550">
        <ele>807</ele>
        <time>2022-12-03T21:53:30Z</time>
      </trkpt>
      <trkpt lat="41.051540" lon="-5.193730">
        <ele>807</ele>
        <time>2022-12-03T21:53:37Z</time>
      </trkpt>
      <trkpt lat="41.051440" lon="-5.193750">
        <ele>807</ele>
        <time>2022-12-03T21:53:39Z</time>
      </trkpt>
      <trkpt lat="41.051370" lon="-5.193740">
        <ele>806</ele>
        <time>2022-12-03T21:53:40Z</time>
      </trkpt>
      <trkpt lat="41.051070" lon="-5.193530">
        <ele>806</ele>
        <time>2022-12-03T21:53:46Z</time>
      </trkpt>
      <trkpt lat="41.050410" lon="-5.192820">
        <ele>806</ele>
        <time>2022-12-03T21:54:01Z</time>
      </trkpt>
      <trkpt lat="41.050110" lon="-5.192550">
        <ele>807</ele>
        <time>2022-12-03T21:54:07Z</time>
      </trkpt>
      <trkpt lat="41.049880" lon="-5.192370">
        <ele>807</ele>
        <time>2022-12-03T21:54:12Z</time>
      </trkpt>
      <trkpt lat="41.049500" lon="-5.192180">
        <ele>807</ele>
        <time>2022-12-03T21:54:19Z</time>
      </trkpt>
      <trkpt lat="41.049140" lon="-5.192060">
        <ele>808</ele>
        <time>2022-12-03T21:54:26Z</time>
      </trkpt>
      <trkpt lat="41.047670" lon="-5.192080">
        <ele>807</ele>
        <time>2022-12-03T21:54:52Z</time>
      </trkpt>
      <trkpt lat="41.046720" lon="-5.191840">
        <ele>808</ele>
        <time>2022-12-03T21:55:09Z</time>
      </trkpt>
      <trkpt lat="41.046460" lon="-5.191800">
        <ele>808</ele>
        <time>2022-12-03T21:55:14Z</time>
      </trkpt>
      <trkpt lat="41.046050" lon="-5.191780">
        <ele>808</ele>
        <time>2022-12-03T21:55:21Z</time>
      </trkpt>
      <trkpt lat="41.044750" lon="-5.191920">
        <ele>809</ele>
        <time>2022-12-03T21:55:45Z</time>
      </trkpt>
      <trkpt lat="41.044020" lon="-5.191960">
        <ele>810</ele>
        <time>2022-12-03T21:55:58Z</time>
      </trkpt>
      <trkpt lat="41.043710" lon="-5.191920">
        <ele>811</ele>
        <time>2022-12-03T21:56:03Z</time>
      </trkpt>
      <trkpt lat="41.043540" lon="-5.191880">
        <ele>811</ele>
        <time>2022-12-03T21:56:06Z</time>
      </trkpt>
      <trkpt lat="41.042730" lon="-5.191460">
        <ele>814</ele>
        <time>2022-12-03T21:56:22Z</time>
      </trkpt>
      <trkpt lat="41.041890" lon="-5.190960">
        <ele>815</ele>
        <time>2022-12-03T21:56:38Z</time>
      </trkpt>
      <trkpt lat="41.041660" lon="-5.190860">
        <ele>815</ele>
        <time>2022-12-03T21:56:42Z</time>
      </trkpt>
      <trkpt lat="41.041330" lon="-5.190780">
        <ele>815</ele>
        <time>2022-12-03T21:56:48Z</time>
      </trkpt>
      <trkpt lat="41.041090" lon="-5.190770">
        <ele>814</ele>
        <time>2022-12-03T21:56:53Z</time>
      </trkpt>
      <trkpt lat="41.040870" lon="-5.190790">
        <ele>814</ele>
        <time>2022-12-03T21:56:56Z</time>
      </trkpt>
      <trkpt lat="41.039890" lon="-5.191000">
        <ele>813</ele>
        <time>2022-12-03T21:57:14Z</time>
      </trkpt>
      <trkpt lat="41.039710" lon="-5.191000">
        <ele>813</ele>
        <time>2022-12-03T21:57:17Z</time>
      </trkpt>
      <trkpt lat="41.039490" lon="-5.191000">
        <ele>813</ele>
        <time>2022-12-03T21:57:21Z</time>
      </trkpt>
      <trkpt lat="41.036970" lon="-5.190710">
        <ele>813</ele>
        <time>2022-12-03T21:58:06Z</time>
      </trkpt>
      <trkpt lat="41.036460" lon="-5.190690">
        <ele>812</ele>
        <time>2022-12-03T21:58:15Z</time>
      </trkpt>
      <trkpt lat="41.035760" lon="-5.190740">
        <ele>811</ele>
        <time>2022-12-03T21:58:28Z</time>
      </trkpt>
      <trkpt lat="41.034630" lon="-5.190990">
        <ele>812</ele>
        <time>2022-12-03T21:58:48Z</time>
      </trkpt>
      <trkpt lat="41.032740" lon="-5.191470">
        <ele>815</ele>
        <time>2022-12-03T21:59:22Z</time>
      </trkpt>
      <trkpt lat="41.032280" lon="-5.191640">
        <ele>817</ele>
        <time>2022-12-03T21:59:31Z</time>
      </trkpt>
      <trkpt lat="41.031920" lon="-5.191830">
        <ele>818</ele>
        <time>2022-12-03T21:59:38Z</time>
      </trkpt>
      <trkpt lat="41.031680" lon="-5.192010">
        <ele>818</ele>
        <time>2022-12-03T21:59:43Z</time>
      </trkpt>
      <trkpt lat="41.030910" lon="-5.192700">
        <ele>819</ele>
        <time>2022-12-03T21:59:59Z</time>
      </trkpt>
      <trkpt lat="41.030280" lon="-5.193210">
        <ele>821</ele>
        <time>2022-12-03T22:00:12Z</time>
      </trkpt>
      <trkpt lat="41.029810" lon="-5.193470">
        <ele>823</ele>
        <time>2022-12-03T22:00:21Z</time>
      </trkpt>
      <trkpt lat="41.029490" lon="-5.193590">
        <ele>823</ele>
        <time>2022-12-03T22:00:27Z</time>
      </trkpt>
      <trkpt lat="41.029120" lon="-5.193690">
        <ele>824</ele>
        <time>2022-12-03T22:00:34Z</time>
      </trkpt>
      <trkpt lat="41.027790" lon="-5.194010">
        <ele>822</ele>
        <time>2022-12-03T22:00:58Z</time>
      </trkpt>
      <trkpt lat="41.027250" lon="-5.194110">
        <ele>822</ele>
        <time>2022-12-03T22:01:08Z</time>
      </trkpt>
      <trkpt lat="41.026430" lon="-5.194210">
        <ele>825</ele>
        <time>2022-12-03T22:01:23Z</time>
      </trkpt>
      <trkpt lat="41.024890" lon="-5.194340">
        <ele>827</ele>
        <time>2022-12-03T22:01:50Z</time>
      </trkpt>
      <trkpt lat="41.021900" lon="-5.194470">
        <ele>823</ele>
        <time>2022-12-03T22:02:43Z</time>
      </trkpt>
      <trkpt lat="41.021140" lon="-5.194520">
        <ele>823</ele>
        <time>2022-12-03T22:02:57Z</time>
      </trkpt>
      <trkpt lat="41.020890" lon="-5.194560">
        <ele>823</ele>
        <time>2022-12-03T22:03:01Z</time>
      </trkpt>
      <trkpt lat="41.020600" lon="-5.194620">
        <ele>823</ele>
        <time>2022-12-03T22:03:06Z</time>
      </trkpt>
      <trkpt lat="41.020200" lon="-5.194740">
        <ele>824</ele>
        <time>2022-12-03T22:03:14Z</time>
      </trkpt>
      <trkpt lat="41.018060" lon="-5.195420">
        <ele>828</ele>
        <time>2022-12-03T22:03:53Z</time>
      </trkpt>
      <trkpt lat="41.017000" lon="-5.195790">
        <ele>829</ele>
        <time>2022-12-03T22:04:12Z</time>
      </trkpt>
      <trkpt lat="41.016440" lon="-5.196010">
        <ele>829</ele>
        <time>2022-12-03T22:04:23Z</time>
      </trkpt>
      <trkpt lat="41.016280" lon="-5.196050">
        <ele>829</ele>
        <time>2022-12-03T22:04:26Z</time>
      </trkpt>
      <trkpt lat="41.016140" lon="-5.196050">
        <ele>829</ele>
        <time>2022-12-03T22:04:28Z</time>
      </trkpt>
      <trkpt lat="41.015940" lon="-5.196030">
        <ele>829</ele>
        <time>2022-12-03T22:04:32Z</time>
      </trkpt>
      <trkpt lat="41.014570" lon="-5.195660">
        <ele>831</ele>
        <time>2022-12-03T22:04:57Z</time>
      </trkpt>
      <trkpt lat="41.014430" lon="-5.195640">
        <ele>831</ele>
        <time>2022-12-03T22:04:59Z</time>
      </trkpt>
      <trkpt lat="41.014320" lon="-5.195670">
        <ele>831</ele>
        <time>2022-12-03T22:05:01Z</time>
      </trkpt>
      <trkpt lat="41.014110" lon="-5.195790">
        <ele>831</ele>
        <time>2022-12-03T22:05:05Z</time>
      </trkpt>
      <trkpt lat="41.013720" lon="-5.196130">
        <ele>831</ele>
        <time>2022-12-03T22:05:14Z</time>
      </trkpt>
      <trkpt lat="41.013440" lon="-5.196470">
        <ele>831</ele>
        <time>2022-12-03T22:05:20Z</time>
      </trkpt>
      <trkpt lat="41.013250" lon="-5.196530">
        <ele>831</ele>
        <time>2022-12-03T22:05:24Z</time>
      </trkpt>
      <trkpt lat="41.013080" lon="-5.196600">
        <ele>831</ele>
        <time>2022-12-03T22:05:27Z</time>
      </trkpt>
      <trkpt lat="41.012840" lon="-5.196620">
        <ele>832</ele>
        <time>2022-12-03T22:05:31Z</time>
      </trkpt>
      <trkpt lat="41.012760" lon="-5.196720">
        <ele>832</ele>
        <time>2022-12-03T22:05:33Z</time>
      </trkpt>
      <trkpt lat="41.012620" lon="-5.196970">
        <ele>831</ele>
        <time>2022-12-03T22:05:37Z</time>
      </trkpt>
      <trkpt lat="41.012510" lon="-5.197100">
        <ele>831</ele>
        <time>2022-12-03T22:05:40Z</time>
      </trkpt>
      <trkpt lat="41.012420" lon="-5.197180">
        <ele>831</ele>
        <time>2022-12-03T22:05:42Z</time>
      </trkpt>
      <trkpt lat="41.012210" lon="-5.197300">
        <ele>830</ele>
        <time>2022-12-03T22:05:46Z</time>
      </trkpt>
      <trkpt lat="41.011040" lon="-5.197910">
        <ele>830</ele>
        <time>2022-12-03T22:06:08Z</time>
      </trkpt>
      <trkpt lat="41.010480" lon="-5.198160">
        <ele>829</ele>
        <time>2022-12-03T22:06:19Z</time>
      </trkpt>
      <trkpt lat="41.009460" lon="-5.198520">
        <ele>828</ele>
        <time>2022-12-03T22:06:38Z</time>
      </trkpt>
      <trkpt lat="41.009210" lon="-5.198560">
        <ele>828</ele>
        <time>2022-12-03T22:06:42Z</time>
      </trkpt>
      <trkpt lat="41.008220" lon="-5.198580">
        <ele>829</ele>
        <time>2022-12-03T22:07:00Z</time>
      </trkpt>
      <trkpt lat="41.008000" lon="-5.198620">
        <ele>829</ele>
        <time>2022-12-03T22:07:04Z</time>
      </trkpt>
      <trkpt lat="41.007720" lon="-5.198690">
        <ele>828</ele>
        <time>2022-12-03T22:07:09Z</time>
      </trkpt>
      <trkpt lat="41.006730" lon="-5.199100">
        <ele>829</ele>
        <time>2022-12-03T22:07:27Z</time>
      </trkpt>
      <trkpt lat="41.006380" lon="-5.199290">
        <ele>829</ele>
        <time>2022-12-03T22:07:34Z</time>
      </trkpt>
      <trkpt lat="41.004240" lon="-5.200590">
        <ele>834</ele>
        <time>2022-12-03T22:08:16Z</time>
      </trkpt>
      <trkpt lat="41.000550" lon="-5.203150">
        <ele>835</ele>
        <time>2022-12-03T22:09:30Z</time>
      </trkpt>
      <trkpt lat="41.000420" lon="-5.203270">
        <ele>835</ele>
        <time>2022-12-03T22:09:33Z</time>
      </trkpt>
      <trkpt lat="41.000120" lon="-5.203530">
        <ele>836</ele>
        <time>2022-12-03T22:09:39Z</time>
      </trkpt>
      <trkpt lat="40.999900" lon="-5.203780">
        <ele>836</ele>
        <time>2022-12-03T22:09:44Z</time>
      </trkpt>
      <trkpt lat="40.999080" lon="-5.204890">
        <ele>834</ele>
        <time>2022-12-03T22:10:05Z</time>
      </trkpt>
      <trkpt lat="40.998610" lon="-5.205380">
        <ele>835</ele>
        <time>2022-12-03T22:10:16Z</time>
      </trkpt>
      <trkpt lat="40.997940" lon="-5.205970">
        <ele>836</ele>
        <time>2022-12-03T22:10:30Z</time>
      </trkpt>
      <trkpt lat="40.996500" lon="-5.207130">
        <ele>835</ele>
        <time>2022-12-03T22:11:00Z</time>
      </trkpt>
      <trkpt lat="40.995840" lon="-5.207600">
        <ele>834</ele>
        <time>2022-12-03T22:11:13Z</time>
      </trkpt>
      <trkpt lat="40.995410" lon="-5.207820">
        <ele>835</ele>
        <time>2022-12-03T22:11:22Z</time>
      </trkpt>
      <trkpt lat="40.995000" lon="-5.207940">
        <ele>836</ele>
        <time>2022-12-03T22:11:29Z</time>
      </trkpt>
      <trkpt lat="40.994600" lon="-5.208020">
        <ele>837</ele>
        <time>2022-12-03T22:11:36Z</time>
      </trkpt>
      <trkpt lat="40.993370" lon="-5.208130">
        <ele>836</ele>
        <time>2022-12-03T22:11:58Z</time>
      </trkpt>
      <trkpt lat="40.992970" lon="-5.208120">
        <ele>836</ele>
        <time>2022-12-03T22:12:05Z</time>
      </trkpt>
      <trkpt lat="40.991680" lon="-5.208010">
        <ele>837</ele>
        <time>2022-12-03T22:12:28Z</time>
      </trkpt>
      <trkpt lat="40.991090" lon="-5.208030">
        <ele>837</ele>
        <time>2022-12-03T22:12:39Z</time>
      </trkpt>
      <trkpt lat="40.990490" lon="-5.208170">
        <ele>836</ele>
        <time>2022-12-03T22:12:50Z</time>
      </trkpt>
      <trkpt lat="40.988870" lon="-5.208820">
        <ele>838</ele>
        <time>2022-12-03T22:13:20Z</time>
      </trkpt>
      <trkpt lat="40.988070" lon="-5.209200">
        <ele>839</ele>
        <time>2022-12-03T22:13:35Z</time>
      </trkpt>
      <trkpt lat="40.987720" lon="-5.209420">
        <ele>839</ele>
        <time>2022-12-03T22:13:42Z</time>
      </trkpt>
      <trkpt lat="40.987110" lon="-5.209870">
        <ele>838</ele>
        <time>2022-12-03T22:13:54Z</time>
      </trkpt>
      <trkpt lat="40.985660" lon="-5.211150">
        <ele>841</ele>
        <time>2022-12-03T22:14:25Z</time>
      </trkpt>
      <trkpt lat="40.985000" lon="-5.211760">
        <ele>841</ele>
        <time>2022-12-03T22:14:40Z</time>
      </trkpt>
      <trkpt lat="40.983670" lon="-5.213120">
        <ele>842</ele>
        <time>2022-12-03T22:15:09Z</time>
      </trkpt>
      <trkpt lat="40.983510" lon="-5.213240">
        <ele>842</ele>
        <time>2022-12-03T22:15:13Z</time>
      </trkpt>
      <trkpt lat="40.983250" lon="-5.213400">
        <ele>841</ele>
        <time>2022-12-03T22:15:18Z</time>
      </trkpt>
      <trkpt lat="40.982950" lon="-5.213560">
        <ele>842</ele>
        <time>2022-12-03T22:15:24Z</time>
      </trkpt>
      <trkpt lat="40.981450" lon="-5.214190">
        <ele>843</ele>
        <time>2022-12-03T22:15:52Z</time>
      </trkpt>
      <trkpt lat="40.980730" lon="-5.214460">
        <ele>844</ele>
        <time>2022-12-03T22:16:05Z</time>
      </trkpt>
      <trkpt lat="40.980310" lon="-5.214580">
        <ele>843</ele>
        <time>2022-12-03T22:16:13Z</time>
      </trkpt>
      <trkpt lat="40.977470" lon="-5.215220">
        <ele>842</ele>
        <time>2022-12-03T22:17:04Z</time>
      </trkpt>
      <trkpt lat="40.977250" lon="-5.215230">
        <ele>842</ele>
        <time>2022-12-03T22:17:08Z</time>
      </trkpt>
      <trkpt lat="40.977060" lon="-5.215210">
        <ele>842</ele>
        <time>2022-12-03T22:17:11Z</time>
      </trkpt>
      <trkpt lat="40.976830" lon="-5.215150">
        <ele>842</ele>
        <time>2022-12-03T22:17:15Z</time>
      </trkpt>
      <trkpt lat="40.976160" lon="-5.214800">
        <ele>842</ele>
        <time>2022-12-03T22:17:28Z</time>
      </trkpt>
      <trkpt lat="40.975890" lon="-5.214680">
        <ele>842</ele>
        <time>2022-12-03T22:17:33Z</time>
      </trkpt>
      <trkpt lat="40.975630" lon="-5.214640">
        <ele>843</ele>
        <time>2022-12-03T22:17:38Z</time>
      </trkpt>
      <trkpt lat="40.975450" lon="-5.214640">
        <ele>843</ele>
        <time>2022-12-03T22:17:41Z</time>
      </trkpt>
      <trkpt lat="40.975080" lon="-5.214690">
        <ele>843</ele>
        <time>2022-12-03T22:17:48Z</time>
      </trkpt>
      <trkpt lat="40.974520" lon="-5.214840">
        <ele>844</ele>
        <time>2022-12-03T22:17:58Z</time>
      </trkpt>
      <trkpt lat="40.974090" lon="-5.215080">
        <ele>844</ele>
        <time>2022-12-03T22:18:06Z</time>
      </trkpt>
      <trkpt lat="40.972100" lon="-5.216590">
        <ele>846</ele>
        <time>2022-12-03T22:18:47Z</time>
      </trkpt>
      <trkpt lat="40.971870" lon="-5.216750">
        <ele>846</ele>
        <time>2022-12-03T22:18:52Z</time>
      </trkpt>
      <trkpt lat="40.971490" lon="-5.216880">
        <ele>847</ele>
        <time>2022-12-03T22:18:58Z</time>
      </trkpt>
      <trkpt lat="40.971330" lon="-5.216910">
        <ele>848</ele>
        <time>2022-12-03T22:19:01Z</time>
      </trkpt>
      <trkpt lat="40.971130" lon="-5.216910">
        <ele>848</ele>
        <time>2022-12-03T22:19:05Z</time>
      </trkpt>
      <trkpt lat="40.970880" lon="-5.216840">
        <ele>849</ele>
        <time>2022-12-03T22:19:09Z</time>
      </trkpt>
      <trkpt lat="40.970710" lon="-5.216770">
        <ele>849</ele>
        <time>2022-12-03T22:19:13Z</time>
      </trkpt>
      <trkpt lat="40.970530" lon="-5.216660">
        <ele>848</ele>
        <time>2022-12-03T22:19:16Z</time>
      </trkpt>
      <trkpt lat="40.970340" lon="-5.216500">
        <ele>848</ele>
        <time>2022-12-03T22:19:20Z</time>
      </trkpt>
      <trkpt lat="40.969710" lon="-5.215760">
        <ele>847</ele>
        <time>2022-12-03T22:19:35Z</time>
      </trkpt>
      <trkpt lat="40.969440" lon="-5.215510">
        <ele>848</ele>
        <time>2022-12-03T22:19:41Z</time>
      </trkpt>
      <trkpt lat="40.969280" lon="-5.215410">
        <ele>848</ele>
        <time>2022-12-03T22:19:44Z</time>
      </trkpt>
      <trkpt lat="40.968810" lon="-5.215180">
        <ele>848</ele>
        <time>2022-12-03T22:19:53Z</time>
      </trkpt>
      <trkpt lat="40.967960" lon="-5.214830">
        <ele>848</ele>
        <time>2022-12-03T22:20:09Z</time>
      </trkpt>
      <trkpt lat="40.967460" lon="-5.214610">
        <ele>848</ele>
        <time>2022-12-03T22:20:18Z</time>
      </trkpt>
      <trkpt lat="40.967020" lon="-5.214360">
        <ele>849</ele>
        <time>2022-12-03T22:20:27Z</time>
      </trkpt>
      <trkpt lat="40.966210" lon="-5.213860">
        <ele>850</ele>
        <time>2022-12-03T22:20:43Z</time>
      </trkpt>
      <trkpt lat="40.966030" lon="-5.213730">
        <ele>849</ele>
        <time>2022-12-03T22:20:46Z</time>
      </trkpt>
      <trkpt lat="40.965650" lon="-5.213400">
        <ele>849</ele>
        <time>2022-12-03T22:20:54Z</time>
      </trkpt>
      <trkpt lat="40.965380" lon="-5.213060">
        <ele>850</ele>
        <time>2022-12-03T22:21:01Z</time>
      </trkpt>
      <trkpt lat="40.964430" lon="-5.211610">
        <ele>850</ele>
        <time>2022-12-03T22:21:27Z</time>
      </trkpt>
      <trkpt lat="40.964230" lon="-5.211340">
        <ele>850</ele>
        <time>2022-12-03T22:21:32Z</time>
      </trkpt>
      <trkpt lat="40.963860" lon="-5.210950">
        <ele>850</ele>
        <time>2022-12-03T22:21:40Z</time>
      </trkpt>
      <trkpt lat="40.963330" lon="-5.210580">
        <ele>852</ele>
        <time>2022-12-03T22:21:51Z</time>
      </trkpt>
      <trkpt lat="40.961690" lon="-5.209520">
        <ele>854</ele>
        <time>2022-12-03T22:22:24Z</time>
      </trkpt>
      <trkpt lat="40.960700" lon="-5.208910">
        <ele>854</ele>
        <time>2022-12-03T22:22:43Z</time>
      </trkpt>
      <trkpt lat="40.960420" lon="-5.208760">
        <ele>854</ele>
        <time>2022-12-03T22:22:48Z</time>
      </trkpt>
      <trkpt lat="40.960050" lon="-5.208640">
        <ele>854</ele>
        <time>2022-12-03T22:22:55Z</time>
      </trkpt>
      <trkpt lat="40.959570" lon="-5.208610">
        <ele>855</ele>
        <time>2022-12-03T22:23:04Z</time>
      </trkpt>
      <trkpt lat="40.959110" lon="-5.208710">
        <ele>855</ele>
        <time>2022-12-03T22:23:12Z</time>
      </trkpt>
      <trkpt lat="40.958740" lon="-5.208870">
        <ele>855</ele>
        <time>2022-12-03T22:23:19Z</time>
      </trkpt>
      <trkpt lat="40.957890" lon="-5.209310">
        <ele>855</ele>
        <time>2022-12-03T22:23:35Z</time>
      </trkpt>
      <trkpt lat="40.957570" lon="-5.209520">
        <ele>856</ele>
        <time>2022-12-03T22:23:41Z</time>
      </trkpt>
      <trkpt lat="40.955610" lon="-5.211200">
        <ele>858</ele>
        <time>2022-12-03T22:24:23Z</time>
      </trkpt>
      <trkpt lat="40.955370" lon="-5.211380">
        <ele>858</ele>
        <time>2022-12-03T22:24:28Z</time>
      </trkpt>
      <trkpt lat="40.955240" lon="-5.211440">
        <ele>859</ele>
        <time>2022-12-03T22:24:30Z</time>
      </trkpt>
      <trkpt lat="40.954990" lon="-5.211520">
        <ele>859</ele>
        <time>2022-12-03T22:24:35Z</time>
      </trkpt>
      <trkpt lat="40.954620" lon="-5.211540">
        <ele>859</ele>
        <time>2022-12-03T22:24:42Z</time>
      </trkpt>
      <trkpt lat="40.953820" lon="-5.211470">
        <ele>859</ele>
        <time>2022-12-03T22:24:56Z</time>
      </trkpt>
      <trkpt lat="40.953110" lon="-5.211330">
        <ele>860</ele>
        <time>2022-12-03T22:25:09Z</time>
      </trkpt>
      <trkpt lat="40.952350" lon="-5.211100">
        <ele>861</ele>
        <time>2022-12-03T22:25:22Z</time>
      </trkpt>
      <trkpt lat="40.951810" lon="-5.210980">
        <ele>861</ele>
        <time>2022-12-03T22:25:32Z</time>
      </trkpt>
      <trkpt lat="40.951400" lon="-5.210940">
        <ele>861</ele>
        <time>2022-12-03T22:25:39Z</time>
      </trkpt>
      <trkpt lat="40.951140" lon="-5.210950">
        <ele>860</ele>
        <time>2022-12-03T22:25:44Z</time>
      </trkpt>
      <trkpt lat="40.950190" lon="-5.211050">
        <ele>861</ele>
        <time>2022-12-03T22:26:01Z</time>
      </trkpt>
      <trkpt lat="40.949660" lon="-5.211020">
        <ele>862</ele>
        <time>2022-12-03T22:26:11Z</time>
      </trkpt>
      <trkpt lat="40.949350" lon="-5.210960">
        <ele>863</ele>
        <time>2022-12-03T22:26:16Z</time>
      </trkpt>
      <trkpt lat="40.949150" lon="-5.210880">
        <ele>863</ele>
        <time>2022-12-03T22:26:20Z</time>
      </trkpt>
      <trkpt lat="40.948540" lon="-5.210570">
        <ele>863</ele>
        <time>2022-12-03T22:26:31Z</time>
      </trkpt>
      <trkpt lat="40.947640" lon="-5.209970">
        <ele>863</ele>
        <time>2022-12-03T22:26:49Z</time>
      </trkpt>
      <trkpt lat="40.947030" lon="-5.209640">
        <ele>864</ele>
        <time>2022-12-03T22:27:01Z</time>
      </trkpt>
      <trkpt lat="40.946540" lon="-5.209410">
        <ele>865</ele>
        <time>2022-12-03T22:27:10Z</time>
      </trkpt>
      <trkpt lat="40.945480" lon="-5.208970">
        <ele>867</ele>
        <time>2022-12-03T22:27:30Z</time>
      </trkpt>
      <trkpt lat="40.943560" lon="-5.208370">
        <ele>867</ele>
        <time>2022-12-03T22:28:05Z</time>
      </trkpt>
      <trkpt lat="40.943460" lon="-5.208480">
        <ele>867</ele>
        <time>2022-12-03T22:28:08Z</time>
      </trkpt>
      <trkpt lat="40.943340" lon="-5.208680">
        <ele>867</ele>
        <time>2022-12-03T22:28:11Z</time>
      </trkpt>
      <trkpt lat="40.943280" lon="-5.208760">
        <ele>867</ele>
        <time>2022-12-03T22:28:12Z</time>
      </trkpt>
      <trkpt lat="40.943020" lon="-5.208440">
        <ele>867</ele>
        <time>2022-12-03T22:28:19Z</time>
      </trkpt>
      <trkpt lat="40.942890" lon="-5.208330">
        <ele>868</ele>
        <time>2022-12-03T22:28:22Z</time>
      </trkpt>
      <trkpt lat="40.942470" lon="-5.208150">
        <ele>869</ele>
        <time>2022-12-03T22:28:29Z</time>
      </trkpt>
      <trkpt lat="40.941720" lon="-5.207670">
        <ele>871</ele>
        <time>2022-12-03T22:28:44Z</time>
      </trkpt>
      <trkpt lat="40.941260" lon="-5.207690">
        <ele>870</ele>
        <time>2022-12-03T22:28:52Z</time>
      </trkpt>
      <trkpt lat="40.939460" lon="-5.207080">
        <ele>868</ele>
        <time>2022-12-03T22:29:25Z</time>
      </trkpt>
      <trkpt lat="40.939130" lon="-5.207040">
        <ele>868</ele>
        <time>2022-12-03T22:29:31Z</time>
      </trkpt>
      <trkpt lat="40.937640" lon="-5.207000">
        <ele>871</ele>
        <time>2022-12-03T22:29:58Z</time>
      </trkpt>
      <trkpt lat="40.936820" lon="-5.206940">
        <ele>873</ele>
        <time>2022-12-03T22:30:12Z</time>
      </trkpt>
      <trkpt lat="40.935950" lon="-5.206600">
        <ele>873</ele>
        <time>2022-12-03T22:30:29Z</time>
      </trkpt>
      <trkpt lat="40.935440" lon="-5.206420">
        <ele>873</ele>
        <time>2022-12-03T22:30:38Z</time>
      </trkpt>
      <trkpt lat="40.935240" lon="-5.206360">
        <ele>872</ele>
        <time>2022-12-03T22:30:42Z</time>
      </trkpt>
      <trkpt lat="40.934970" lon="-5.206330">
        <ele>872</ele>
        <time>2022-12-03T22:30:46Z</time>
      </trkpt>
      <trkpt lat="40.931390" lon="-5.206200">
        <ele>875</ele>
        <time>2022-12-03T22:31:50Z</time>
      </trkpt>
      <trkpt lat="40.930280" lon="-5.205950">
        <ele>877</ele>
        <time>2022-12-03T22:32:10Z</time>
      </trkpt>
      <trkpt lat="40.929420" lon="-5.205780">
        <ele>875</ele>
        <time>2022-12-03T22:32:26Z</time>
      </trkpt>
      <trkpt lat="40.929150" lon="-5.205740">
        <ele>874</ele>
        <time>2022-12-03T22:32:31Z</time>
      </trkpt>
      <trkpt lat="40.928830" lon="-5.205740">
        <ele>874</ele>
        <time>2022-12-03T22:32:36Z</time>
      </trkpt>
      <trkpt lat="40.928580" lon="-5.205750">
        <ele>875</ele>
        <time>2022-12-03T22:32:41Z</time>
      </trkpt>
      <trkpt lat="40.922880" lon="-5.206180">
        <ele>883</ele>
        <time>2022-12-03T22:34:22Z</time>
      </trkpt>
      <trkpt lat="40.921980" lon="-5.206310">
        <ele>882</ele>
        <time>2022-12-03T22:34:38Z</time>
      </trkpt>
      <trkpt lat="40.921190" lon="-5.206310">
        <ele>882</ele>
        <time>2022-12-03T22:34:52Z</time>
      </trkpt>
      <trkpt lat="40.920530" lon="-5.206250">
        <ele>882</ele>
        <time>2022-12-03T22:35:04Z</time>
      </trkpt>
      <trkpt lat="40.919920" lon="-5.206160">
        <ele>883</ele>
        <time>2022-12-03T22:35:15Z</time>
      </trkpt>
      <trkpt lat="40.910430" lon="-5.204040">
        <ele>889</ele>
        <time>2022-12-03T22:38:06Z</time>
      </trkpt>
      <trkpt lat="40.910040" lon="-5.203870">
        <ele>890</ele>
        <time>2022-12-03T22:38:14Z</time>
      </trkpt>
      <trkpt lat="40.908740" lon="-5.202810">
        <ele>891</ele>
        <time>2022-12-03T22:38:41Z</time>
      </trkpt>
      <trkpt lat="40.907780" lon="-5.202130">
        <ele>894</ele>
        <time>2022-12-03T22:39:00Z</time>
      </trkpt>
      <trkpt lat="40.907730" lon="-5.202200">
        <ele>894</ele>
        <time>2022-12-03T22:39:02Z</time>
      </trkpt>
      <trkpt lat="40.907680" lon="-5.202250">
        <ele>894</ele>
        <time>2022-12-03T22:39:03Z</time>
      </trkpt>
      <trkpt lat="40.907610" lon="-5.202280">
        <ele>894</ele>
        <time>2022-12-03T22:39:04Z</time>
      </trkpt>
      <trkpt lat="40.907490" lon="-5.202240">
        <ele>894</ele>
        <time>2022-12-03T22:39:06Z</time>
      </trkpt>
      <trkpt lat="40.907450" lon="-5.202190">
        <ele>894</ele>
        <time>2022-12-03T22:39:07Z</time>
      </trkpt>
      <trkpt lat="40.907410" lon="-5.202120">
        <ele>893</ele>
        <time>2022-12-03T22:39:08Z</time>
      </trkpt>
      <trkpt lat="40.907390" lon="-5.202040">
        <ele>893</ele>
        <time>2022-12-03T22:39:09Z</time>
      </trkpt>
      <trkpt lat="40.907400" lon="-5.201960">
        <ele>893</ele>
        <time>2022-12-03T22:39:11Z</time>
      </trkpt>
      <trkpt lat="40.907240" lon="-5.201790">
        <ele>893</ele>
        <time>2022-12-03T22:39:14Z</time>
      </trkpt>
      <trkpt lat="40.906050" lon="-5.201190">
        <ele>893</ele>
        <time>2022-12-03T22:39:37Z</time>
      </trkpt>
      <trkpt lat="40.905610" lon="-5.201030">
        <ele>895</ele>
        <time>2022-12-03T22:39:45Z</time>
      </trkpt>
      <trkpt lat="40.905360" lon="-5.201300">
        <ele>895</ele>
        <time>2022-12-03T22:39:51Z</time>
      </trkpt>
      <trkpt lat="40.904740" lon="-5.201830">
        <ele>898</ele>
        <time>2022-12-03T22:40:04Z</time>
      </trkpt>
      <trkpt lat="40.904590" lon="-5.201990">
        <ele>898</ele>
        <time>2022-12-03T22:40:07Z</time>
      </trkpt>
      <trkpt lat="40.904540" lon="-5.202060">
        <ele>898</ele>
        <time>2022-12-03T22:40:09Z</time>
      </trkpt>
      <trkpt lat="40.904500" lon="-5.202080">
        <ele>899</ele>
        <time>2022-12-03T22:40:09Z</time>
      </trkpt>
      <trkpt lat="40.904340" lon="-5.202230">
        <ele>899</ele>
        <time>2022-12-03T22:40:13Z</time>
      </trkpt>
      <trkpt lat="40.903910" lon="-5.202960">
        <ele>900</ele>
        <time>2022-12-03T22:40:25Z</time>
      </trkpt>
      <trkpt lat="40.903700" lon="-5.203220">
        <ele>900</ele>
        <time>2022-12-03T22:40:30Z</time>
      </trkpt>
      <trkpt lat="40.902170" lon="-5.204990">
        <ele>900</ele>
        <time>2022-12-03T22:41:07Z</time>
      </trkpt>
      <trkpt lat="40.900930" lon="-5.203870">
        <ele>904</ele>
        <time>2022-12-03T22:41:33Z</time>
      </trkpt>
      <trkpt lat="40.900830" lon="-5.203880">
        <ele>904</ele>
        <time>2022-12-03T22:41:35Z</time>
      </trkpt>
      <trkpt lat="40.900730" lon="-5.203920">
        <ele>904</ele>
        <time>2022-12-03T22:41:37Z</time>
      </trkpt>
      <trkpt lat="40.900650" lon="-5.204110">
        <ele>903</ele>
        <time>2022-12-03T22:41:40Z</time>
      </trkpt>
      <trkpt lat="40.900480" lon="-5.205310">
        <ele>902</ele>
        <time>2022-12-03T22:41:56Z</time>
      </trkpt>
      <trkpt lat="40.899340" lon="-5.212880">
        <ele>898</ele>
        <time>2022-12-03T22:43:40Z</time>
      </trkpt>
      <trkpt lat="40.899230" lon="-5.213180">
        <ele>898</ele>
        <time>2022-12-03T22:43:45Z</time>
      </trkpt>
      <trkpt lat="40.899070" lon="-5.213320">
        <ele>898</ele>
        <time>2022-12-03T22:43:48Z</time>
      </trkpt>
      <trkpt lat="40.876230" lon="-5.225580">
        <ele>876</ele>
        <time>2022-12-03T22:51:06Z</time>
      </trkpt>
      <trkpt lat="40.875690" lon="-5.225850">
        <ele>878</ele>
        <time>2022-12-03T22:51:17Z</time>
      </trkpt>
      <trkpt lat="40.875370" lon="-5.225970">
        <ele>879</ele>
        <time>2022-12-03T22:51:23Z</time>
      </trkpt>
      <trkpt lat="40.872410" lon="-5.226720">
        <ele>871</ele>
        <time>2022-12-03T22:52:16Z</time>
      </trkpt>
      <trkpt lat="40.872000" lon="-5.226820">
        <ele>871</ele>
        <time>2022-12-03T22:52:24Z</time>
      </trkpt>
      <trkpt lat="40.871470" lon="-5.226960">
        <ele>871</ele>
        <time>2022-12-03T22:52:33Z</time>
      </trkpt>
      <trkpt lat="40.871140" lon="-5.227090">
        <ele>870</ele>
        <time>2022-12-03T22:52:39Z</time>
      </trkpt>
      <trkpt lat="40.870720" lon="-5.227340">
        <ele>869</ele>
        <time>2022-12-03T22:52:48Z</time>
      </trkpt>
      <trkpt lat="40.870450" lon="-5.227530">
        <ele>869</ele>
        <time>2022-12-03T22:52:53Z</time>
      </trkpt>
      <trkpt lat="40.870130" lon="-5.227840">
        <ele>870</ele>
        <time>2022-12-03T22:53:00Z</time>
      </trkpt>
      <trkpt lat="40.869830" lon="-5.228190">
        <ele>869</ele>
        <time>2022-12-03T22:53:07Z</time>
      </trkpt>
      <trkpt lat="40.855460" lon="-5.247050">
        <ele>888</ele>
        <time>2022-12-03T22:59:08Z</time>
      </trkpt>
      <trkpt lat="40.847990" lon="-5.256820">
        <ele>903</ele>
        <time>2022-12-03T23:02:15Z</time>
      </trkpt>
      <trkpt lat="40.841100" lon="-5.265800">
        <ele>921</ele>
        <time>2022-12-03T23:05:07Z</time>
      </trkpt>
      <trkpt lat="40.835270" lon="-5.273340">
        <ele>927</ele>
        <time>2022-12-03T23:07:32Z</time>
      </trkpt>
      <trkpt lat="40.833150" lon="-5.276110">
        <ele>918</ele>
        <time>2022-12-03T23:08:25Z</time>
      </trkpt>
      <trkpt lat="40.830710" lon="-5.279230">
        <ele>899</ele>
        <time>2022-12-03T23:09:25Z</time>
      </trkpt>
      <trkpt lat="40.830570" lon="-5.279330">
        <ele>898</ele>
        <time>2022-12-03T23:09:28Z</time>
      </trkpt>
      <trkpt lat="40.830490" lon="-5.279360">
        <ele>898</ele>
        <time>2022-12-03T23:09:30Z</time>
      </trkpt>
      <trkpt lat="40.828390" lon="-5.279970">
        <ele>898</ele>
        <time>2022-12-03T23:10:08Z</time>
      </trkpt>
      <trkpt lat="40.820780" lon="-5.282130">
        <ele>893</ele>
        <time>2022-12-03T23:12:26Z</time>
      </trkpt>
      <trkpt lat="40.820420" lon="-5.282260">
        <ele>894</ele>
        <time>2022-12-03T23:12:33Z</time>
      </trkpt>
      <trkpt lat="40.820160" lon="-5.282390">
        <ele>895</ele>
        <time>2022-12-03T23:12:38Z</time>
      </trkpt>
      <trkpt lat="40.819960" lon="-5.282530">
        <ele>895</ele>
        <time>2022-12-03T23:12:42Z</time>
      </trkpt>
      <trkpt lat="40.819140" lon="-5.283200">
        <ele>892</ele>
        <time>2022-12-03T23:12:59Z</time>
      </trkpt>
      <trkpt lat="40.818840" lon="-5.283360">
        <ele>890</ele>
        <time>2022-12-03T23:13:05Z</time>
      </trkpt>
      <trkpt lat="40.818610" lon="-5.283460">
        <ele>889</ele>
        <time>2022-12-03T23:13:09Z</time>
      </trkpt>
      <trkpt lat="40.818310" lon="-5.283530">
        <ele>887</ele>
        <time>2022-12-03T23:13:15Z</time>
      </trkpt>
      <trkpt lat="40.818070" lon="-5.283550">
        <ele>887</ele>
        <time>2022-12-03T23:13:19Z</time>
      </trkpt>
      <trkpt lat="40.817670" lon="-5.283500">
        <ele>886</ele>
        <time>2022-12-03T23:13:26Z</time>
      </trkpt>
      <trkpt lat="40.817380" lon="-5.283410">
        <ele>886</ele>
        <time>2022-12-03T23:13:31Z</time>
      </trkpt>
      <trkpt lat="40.813340" lon="-5.281540">
        <ele>902</ele>
        <time>2022-12-03T23:14:47Z</time>
      </trkpt>
      <trkpt lat="40.812950" lon="-5.281400">
        <ele>902</ele>
        <time>2022-12-03T23:14:55Z</time>
      </trkpt>
      <trkpt lat="40.812630" lon="-5.281350">
        <ele>902</ele>
        <time>2022-12-03T23:15:00Z</time>
      </trkpt>
      <trkpt lat="40.812270" lon="-5.281360">
        <ele>902</ele>
        <time>2022-12-03T23:15:07Z</time>
      </trkpt>
      <trkpt lat="40.810930" lon="-5.281580">
        <ele>908</ele>
        <time>2022-12-03T23:15:31Z</time>
      </trkpt>
      <trkpt lat="40.810460" lon="-5.281590">
        <ele>905</ele>
        <time>2022-12-03T23:15:39Z</time>
      </trkpt>
      <trkpt lat="40.810260" lon="-5.281560">
        <ele>904</ele>
        <time>2022-12-03T23:15:43Z</time>
      </trkpt>
      <trkpt lat="40.809240" lon="-5.281290">
        <ele>900</ele>
        <time>2022-12-03T23:16:01Z</time>
      </trkpt>
      <trkpt lat="40.808820" lon="-5.281130">
        <ele>898</ele>
        <time>2022-12-03T23:16:09Z</time>
      </trkpt>
      <trkpt lat="40.808670" lon="-5.281050">
        <ele>897</ele>
        <time>2022-12-03T23:16:12Z</time>
      </trkpt>
      <trkpt lat="40.808350" lon="-5.280820">
        <ele>895</ele>
        <time>2022-12-03T23:16:18Z</time>
      </trkpt>
      <trkpt lat="40.807600" lon="-5.280220">
        <ele>892</ele>
        <time>2022-12-03T23:16:34Z</time>
      </trkpt>
      <trkpt lat="40.807360" lon="-5.279970">
        <ele>891</ele>
        <time>2022-12-03T23:16:39Z</time>
      </trkpt>
      <trkpt lat="40.805490" lon="-5.277690">
        <ele>878</ele>
        <time>2022-12-03T23:17:25Z</time>
      </trkpt>
      <trkpt lat="40.804890" lon="-5.276990">
        <ele>877</ele>
        <time>2022-12-03T23:17:39Z</time>
      </trkpt>
      <trkpt lat="40.804620" lon="-5.276760">
        <ele>876</ele>
        <time>2022-12-03T23:17:45Z</time>
      </trkpt>
      <trkpt lat="40.804380" lon="-5.276590">
        <ele>874</ele>
        <time>2022-12-03T23:17:50Z</time>
      </trkpt>
      <trkpt lat="40.804200" lon="-5.276470">
        <ele>873</ele>
        <time>2022-12-03T23:17:53Z</time>
      </trkpt>
      <trkpt lat="40.803970" lon="-5.276360">
        <ele>871</ele>
        <time>2022-12-03T23:17:57Z</time>
      </trkpt>
      <trkpt lat="40.803520" lon="-5.276210">
        <ele>868</ele>
        <time>2022-12-03T23:18:06Z</time>
      </trkpt>
      <trkpt lat="40.802970" lon="-5.276100">
        <ele>867</ele>
        <time>2022-12-03T23:18:16Z</time>
      </trkpt>
      <trkpt lat="40.802520" lon="-5.276010">
        <ele>867</ele>
        <time>2022-12-03T23:18:24Z</time>
      </trkpt>
      <trkpt lat="40.801510" lon="-5.275790">
        <ele>869</ele>
        <time>2022-12-03T23:18:42Z</time>
      </trkpt>
      <trkpt lat="40.801050" lon="-5.275740">
        <ele>870</ele>
        <time>2022-12-03T23:18:50Z</time>
      </trkpt>
      <trkpt lat="40.799370" lon="-5.275700">
        <ele>874</ele>
        <time>2022-12-03T23:19:20Z</time>
      </trkpt>
      <trkpt lat="40.799150" lon="-5.275710">
        <ele>875</ele>
        <time>2022-12-03T23:19:24Z</time>
      </trkpt>
      <trkpt lat="40.798970" lon="-5.275750">
        <ele>875</ele>
        <time>2022-12-03T23:19:27Z</time>
      </trkpt>
      <trkpt lat="40.782770" lon="-5.280140">
        <ele>905</ele>
        <time>2022-12-03T23:24:21Z</time>
      </trkpt>
      <trkpt lat="40.780950" lon="-5.280620">
        <ele>905</ele>
        <time>2022-12-03T23:24:54Z</time>
      </trkpt>
      <trkpt lat="40.766680" lon="-5.283390">
        <ele>901</ele>
        <time>2022-12-03T23:29:11Z</time>
      </trkpt>
      <trkpt lat="40.766280" lon="-5.283500">
        <ele>900</ele>
        <time>2022-12-03T23:29:18Z</time>
      </trkpt>
      <trkpt lat="40.765820" lon="-5.283760">
        <ele>898</ele>
        <time>2022-12-03T23:29:27Z</time>
      </trkpt>
      <trkpt lat="40.764510" lon="-5.284570">
        <ele>898</ele>
        <time>2022-12-03T23:29:53Z</time>
      </trkpt>
      <trkpt lat="40.763340" lon="-5.285310">
        <ele>899</ele>
        <time>2022-12-03T23:30:16Z</time>
      </trkpt>
      <trkpt lat="40.762800" lon="-5.285630">
        <ele>897</ele>
        <time>2022-12-03T23:30:27Z</time>
      </trkpt>
      <trkpt lat="40.762310" lon="-5.285840">
        <ele>895</ele>
        <time>2022-12-03T23:30:36Z</time>
      </trkpt>
      <trkpt lat="40.761850" lon="-5.285990">
        <ele>891</ele>
        <time>2022-12-03T23:30:44Z</time>
      </trkpt>
      <trkpt lat="40.761260" lon="-5.286090">
        <ele>887</ele>
        <time>2022-12-03T23:30:55Z</time>
      </trkpt>
      <trkpt lat="40.759930" lon="-5.286210">
        <ele>878</ele>
        <time>2022-12-03T23:31:19Z</time>
      </trkpt>
      <trkpt lat="40.759480" lon="-5.286220">
        <ele>877</ele>
        <time>2022-12-03T23:31:27Z</time>
      </trkpt>
      <trkpt lat="40.759280" lon="-5.286180">
        <ele>877</ele>
        <time>2022-12-03T23:31:30Z</time>
      </trkpt>
      <trkpt lat="40.759030" lon="-5.286090">
        <ele>877</ele>
        <time>2022-12-03T23:31:35Z</time>
      </trkpt>
      <trkpt lat="40.757680" lon="-5.285330">
        <ele>877</ele>
        <time>2022-12-03T23:32:01Z</time>
      </trkpt>
      <trkpt lat="40.757370" lon="-5.285200">
        <ele>877</ele>
        <time>2022-12-03T23:32:07Z</time>
      </trkpt>
      <trkpt lat="40.757000" lon="-5.285140">
        <ele>877</ele>
        <time>2022-12-03T23:32:13Z</time>
      </trkpt>
      <trkpt lat="40.756300" lon="-5.285140">
        <ele>878</ele>
        <time>2022-12-03T23:32:26Z</time>
      </trkpt>
      <trkpt lat="40.756080" lon="-5.285120">
        <ele>879</ele>
        <time>2022-12-03T23:32:30Z</time>
      </trkpt>
      <trkpt lat="40.755810" lon="-5.285040">
        <ele>880</ele>
        <time>2022-12-03T23:32:35Z</time>
      </trkpt>
      <trkpt lat="40.755510" lon="-5.284880">
        <ele>879</ele>
        <time>2022-12-03T23:32:40Z</time>
      </trkpt>
      <trkpt lat="40.750550" lon="-5.281680">
        <ele>881</ele>
        <time>2022-12-03T23:34:19Z</time>
      </trkpt>
      <trkpt lat="40.750340" lon="-5.281590">
        <ele>881</ele>
        <time>2022-12-03T23:34:22Z</time>
      </trkpt>
      <trkpt lat="40.750240" lon="-5.281570">
        <ele>881</ele>
        <time>2022-12-03T23:34:24Z</time>
      </trkpt>
      <trkpt lat="40.744850" lon="-5.282160">
        <ele>882</ele>
        <time>2022-12-03T23:36:01Z</time>
      </trkpt>
      <trkpt lat="40.744520" lon="-5.282180">
        <ele>883</ele>
        <time>2022-12-03T23:36:06Z</time>
      </trkpt>
      <trkpt lat="40.744370" lon="-5.282170">
        <ele>883</ele>
        <time>2022-12-03T23:36:09Z</time>
      </trkpt>
      <trkpt lat="40.744230" lon="-5.282140">
        <ele>884</ele>
        <time>2022-12-03T23:36:12Z</time>
      </trkpt>
      <trkpt lat="40.744020" lon="-5.282080">
        <ele>884</ele>
        <time>2022-12-03T23:36:15Z</time>
      </trkpt>
      <trkpt lat="40.743770" lon="-5.281960">
        <ele>884</ele>
        <time>2022-12-03T23:36:20Z</time>
      </trkpt>
      <trkpt lat="40.742570" lon="-5.281230">
        <ele>887</ele>
        <time>2022-12-03T23:36:44Z</time>
      </trkpt>
      <trkpt lat="40.733860" lon="-5.275890">
        <ele>920</ele>
        <time>2022-12-03T23:39:35Z</time>
      </trkpt>
      <trkpt lat="40.733560" lon="-5.275690">
        <ele>921</ele>
        <time>2022-12-03T23:39:41Z</time>
      </trkpt>
      <trkpt lat="40.733330" lon="-5.275500">
        <ele>921</ele>
        <time>2022-12-03T23:39:45Z</time>
      </trkpt>
      <trkpt lat="40.733180" lon="-5.275340">
        <ele>920</ele>
        <time>2022-12-03T23:39:49Z</time>
      </trkpt>
      <trkpt lat="40.732930" lon="-5.275030">
        <ele>920</ele>
        <time>2022-12-03T23:39:55Z</time>
      </trkpt>
      <trkpt lat="40.732060" lon="-5.273920">
        <ele>924</ele>
        <time>2022-12-03T23:40:16Z</time>
      </trkpt>
      <trkpt lat="40.731920" lon="-5.273750">
        <ele>925</ele>
        <time>2022-12-03T23:40:20Z</time>
      </trkpt>
      <trkpt lat="40.731630" lon="-5.273490">
        <ele>926</ele>
        <time>2022-12-03T23:40:26Z</time>
      </trkpt>
      <trkpt lat="40.731340" lon="-5.273290">
        <ele>927</ele>
        <time>2022-12-03T23:40:32Z</time>
      </trkpt>
      <trkpt lat="40.730750" lon="-5.272940">
        <ele>929</ele>
        <time>2022-12-03T23:40:43Z</time>
      </trkpt>
      <trkpt lat="40.730440" lon="-5.272810">
        <ele>930</ele>
        <time>2022-12-03T23:40:49Z</time>
      </trkpt>
      <trkpt lat="40.730270" lon="-5.272770">
        <ele>930</ele>
        <time>2022-12-03T23:40:52Z</time>
      </trkpt>
      <trkpt lat="40.730000" lon="-5.272750">
        <ele>931</ele>
        <time>2022-12-03T23:40:57Z</time>
      </trkpt>
      <trkpt lat="40.729870" lon="-5.272770">
        <ele>931</ele>
        <time>2022-12-03T23:40:59Z</time>
      </trkpt>
      <trkpt lat="40.729570" lon="-5.272850">
        <ele>932</ele>
        <time>2022-12-03T23:41:05Z</time>
      </trkpt>
      <trkpt lat="40.729240" lon="-5.273050">
        <ele>933</ele>
        <time>2022-12-03T23:41:11Z</time>
      </trkpt>
      <trkpt lat="40.728930" lon="-5.273360">
        <ele>934</ele>
        <time>2022-12-03T23:41:18Z</time>
      </trkpt>
      <trkpt lat="40.728050" lon="-5.274550">
        <ele>944</ele>
        <time>2022-12-03T23:41:41Z</time>
      </trkpt>
      <trkpt lat="40.727910" lon="-5.274690">
        <ele>946</ele>
        <time>2022-12-03T23:41:44Z</time>
      </trkpt>
      <trkpt lat="40.727780" lon="-5.274800">
        <ele>947</ele>
        <time>2022-12-03T23:41:46Z</time>
      </trkpt>
      <trkpt lat="40.727520" lon="-5.274950">
        <ele>951</ele>
        <time>2022-12-03T23:41:52Z</time>
      </trkpt>
      <trkpt lat="40.727180" lon="-5.275060">
        <ele>954</ele>
        <time>2022-12-03T23:41:58Z</time>
      </trkpt>
      <trkpt lat="40.726980" lon="-5.275080">
        <ele>956</ele>
        <time>2022-12-03T23:42:01Z</time>
      </trkpt>
      <trkpt lat="40.724750" lon="-5.274950">
        <ele>959</ele>
        <time>2022-12-03T23:42:41Z</time>
      </trkpt>
      <trkpt lat="40.724550" lon="-5.274910">
        <ele>959</ele>
        <time>2022-12-03T23:42:45Z</time>
      </trkpt>
      <trkpt lat="40.724300" lon="-5.274850">
        <ele>960</ele>
        <time>2022-12-03T23:42:49Z</time>
      </trkpt>
      <trkpt lat="40.723990" lon="-5.274700">
        <ele>961</ele>
        <time>2022-12-03T23:42:55Z</time>
      </trkpt>
      <trkpt lat="40.723390" lon="-5.274350">
        <ele>964</ele>
        <time>2022-12-03T23:43:07Z</time>
      </trkpt>
      <trkpt lat="40.722710" lon="-5.274060">
        <ele>964</ele>
        <time>2022-12-03T23:43:19Z</time>
      </trkpt>
      <trkpt lat="40.722020" lon="-5.273830">
        <ele>964</ele>
        <time>2022-12-03T23:43:32Z</time>
      </trkpt>
      <trkpt lat="40.721400" lon="-5.273590">
        <ele>965</ele>
        <time>2022-12-03T23:43:44Z</time>
      </trkpt>
      <trkpt lat="40.720000" lon="-5.273150">
        <ele>963</ele>
        <time>2022-12-03T23:44:09Z</time>
      </trkpt>
      <trkpt lat="40.717340" lon="-5.272590">
        <ele>958</ele>
        <time>2022-12-03T23:44:57Z</time>
      </trkpt>
      <trkpt lat="40.716690" lon="-5.272520">
        <ele>956</ele>
        <time>2022-12-03T23:45:09Z</time>
      </trkpt>
      <trkpt lat="40.716180" lon="-5.272510">
        <ele>953</ele>
        <time>2022-12-03T23:45:18Z</time>
      </trkpt>
      <trkpt lat="40.714510" lon="-5.272780">
        <ele>943</ele>
        <time>2022-12-03T23:45:48Z</time>
      </trkpt>
      <trkpt lat="40.714250" lon="-5.272850">
        <ele>942</ele>
        <time>2022-12-03T23:45:52Z</time>
      </trkpt>
      <trkpt lat="40.713970" lon="-5.272980">
        <ele>942</ele>
        <time>2022-12-03T23:45:58Z</time>
      </trkpt>
      <trkpt lat="40.713560" lon="-5.273290">
        <ele>941</ele>
        <time>2022-12-03T23:46:06Z</time>
      </trkpt>
      <trkpt lat="40.712320" lon="-5.274830">
        <ele>936</ele>
        <time>2022-12-03T23:46:36Z</time>
      </trkpt>
      <trkpt lat="40.712080" lon="-5.275150">
        <ele>936</ele>
        <time>2022-12-03T23:46:43Z</time>
      </trkpt>
      <trkpt lat="40.711770" lon="-5.275520">
        <ele>939</ele>
        <time>2022-12-03T23:46:50Z</time>
      </trkpt>
      <trkpt lat="40.711480" lon="-5.275830">
        <ele>942</ele>
        <time>2022-12-03T23:46:57Z</time>
      </trkpt>
      <trkpt lat="40.711140" lon="-5.276160">
        <ele>944</ele>
        <time>2022-12-03T23:47:04Z</time>
      </trkpt>
      <trkpt lat="40.710180" lon="-5.277010">
        <ele>951</ele>
        <time>2022-12-03T23:47:25Z</time>
      </trkpt>
      <trkpt lat="40.709780" lon="-5.277440">
        <ele>956</ele>
        <time>2022-12-03T23:47:34Z</time>
      </trkpt>
      <trkpt lat="40.709520" lon="-5.277780">
        <ele>958</ele>
        <time>2022-12-03T23:47:40Z</time>
      </trkpt>
      <trkpt lat="40.706570" lon="-5.282280">
        <ele>979</ele>
        <time>2022-12-03T23:49:01Z</time>
      </trkpt>
      <trkpt lat="40.706090" lon="-5.282900">
        <ele>984</ele>
        <time>2022-12-03T23:49:13Z</time>
      </trkpt>
      <trkpt lat="40.705730" lon="-5.283260">
        <ele>987</ele>
        <time>2022-12-03T23:49:21Z</time>
      </trkpt>
      <trkpt lat="40.705420" lon="-5.283520">
        <ele>989</ele>
        <time>2022-12-03T23:49:27Z</time>
      </trkpt>
      <trkpt lat="40.705080" lon="-5.283750">
        <ele>992</ele>
        <time>2022-12-03T23:49:34Z</time>
      </trkpt>
      <trkpt lat="40.704700" lon="-5.283960">
        <ele>995</ele>
        <time>2022-12-03T23:49:41Z</time>
      </trkpt>
      <trkpt lat="40.704310" lon="-5.284130">
        <ele>997</ele>
        <time>2022-12-03T23:49:49Z</time>
      </trkpt>
      <trkpt lat="40.703870" lon="-5.284290">
        <ele>999</ele>
        <time>2022-12-03T23:49:57Z</time>
      </trkpt>
      <trkpt lat="40.701860" lon="-5.284870">
        <ele>1006</ele>
        <time>2022-12-03T23:50:33Z</time>
      </trkpt>
      <trkpt lat="40.701130" lon="-5.285060">
        <ele>1009</ele>
        <time>2022-12-03T23:50:47Z</time>
      </trkpt>
      <trkpt lat="40.700670" lon="-5.285160">
        <ele>1013</ele>
        <time>2022-12-03T23:50:55Z</time>
      </trkpt>
      <trkpt lat="40.698380" lon="-5.285440">
        <ele>1029</ele>
        <time>2022-12-03T23:51:36Z</time>
      </trkpt>
      <trkpt lat="40.693460" lon="-5.286110">
        <ele>1032</ele>
        <time>2022-12-03T23:53:04Z</time>
      </trkpt>
      <trkpt lat="40.692690" lon="-5.286290">
        <ele>1032</ele>
        <time>2022-12-03T23:53:18Z</time>
      </trkpt>
      <trkpt lat="40.692200" lon="-5.286440">
        <ele>1033</ele>
        <time>2022-12-03T23:53:27Z</time>
      </trkpt>
      <trkpt lat="40.688180" lon="-5.288320">
        <ele>1032</ele>
        <time>2022-12-03T23:54:43Z</time>
      </trkpt>
      <trkpt lat="40.687710" lon="-5.288470">
        <ele>1030</ele>
        <time>2022-12-03T23:54:51Z</time>
      </trkpt>
      <trkpt lat="40.687380" lon="-5.288540">
        <ele>1030</ele>
        <time>2022-12-03T23:54:57Z</time>
      </trkpt>
      <trkpt lat="40.687120" lon="-5.288560">
        <ele>1031</ele>
        <time>2022-12-03T23:55:02Z</time>
      </trkpt>
      <trkpt lat="40.686460" lon="-5.288550">
        <ele>1036</ele>
        <time>2022-12-03T23:55:13Z</time>
      </trkpt>
      <trkpt lat="40.684740" lon="-5.288180">
        <ele>1048</ele>
        <time>2022-12-03T23:55:44Z</time>
      </trkpt>
      <trkpt lat="40.684280" lon="-5.288140">
        <ele>1048</ele>
        <time>2022-12-03T23:55:53Z</time>
      </trkpt>
      <trkpt lat="40.683940" lon="-5.288140">
        <ele>1048</ele>
        <time>2022-12-03T23:55:59Z</time>
      </trkpt>
      <trkpt lat="40.683050" lon="-5.288270">
        <ele>1051</ele>
        <time>2022-12-03T23:56:15Z</time>
      </trkpt>
      <trkpt lat="40.677210" lon="-5.289480">
        <ele>1071</ele>
        <time>2022-12-03T23:58:00Z</time>
      </trkpt>
      <trkpt lat="40.676690" lon="-5.289710">
        <ele>1073</ele>
        <time>2022-12-03T23:58:10Z</time>
      </trkpt>
      <trkpt lat="40.675960" lon="-5.290180">
        <ele>1077</ele>
        <time>2022-12-03T23:58:24Z</time>
      </trkpt>
      <trkpt lat="40.675700" lon="-5.290410">
        <ele>1078</ele>
        <time>2022-12-03T23:58:30Z</time>
      </trkpt>
      <trkpt lat="40.675450" lon="-5.290650">
        <ele>1080</ele>
        <time>2022-12-03T23:58:35Z</time>
      </trkpt>
      <trkpt lat="40.675220" lon="-5.290890">
        <ele>1081</ele>
        <time>2022-12-03T23:58:40Z</time>
      </trkpt>
      <trkpt lat="40.675070" lon="-5.291080">
        <ele>1082</ele>
        <time>2022-12-03T23:58:44Z</time>
      </trkpt>
      <trkpt lat="40.674750" lon="-5.291550">
        <ele>1084</ele>
        <time>2022-12-03T23:58:53Z</time>
      </trkpt>
      <trkpt lat="40.674430" lon="-5.292120">
        <ele>1085</ele>
        <time>2022-12-03T23:59:02Z</time>
      </trkpt>
      <trkpt lat="40.673730" lon="-5.293830">
        <ele>1090</ele>
        <time>2022-12-03T23:59:28Z</time>
      </trkpt>
      <trkpt lat="40.672850" lon="-5.296060">
        <ele>1099</ele>
        <time>2022-12-04T00:00:02Z</time>
      </trkpt>
      <trkpt lat="40.672450" lon="-5.296940">
        <ele>1098</ele>
        <time>2022-12-04T00:00:16Z</time>
      </trkpt>
      <trkpt lat="40.671260" lon="-5.299290">
        <ele>1092</ele>
        <time>2022-12-04T00:00:54Z</time>
      </trkpt>
      <trkpt lat="40.668840" lon="-5.304370">
        <ele>1081</ele>
        <time>2022-12-04T00:02:15Z</time>
      </trkpt>
      <trkpt lat="40.668580" lon="-5.304800">
        <ele>1078</ele>
        <time>2022-12-04T00:02:23Z</time>
      </trkpt>
      <trkpt lat="40.668340" lon="-5.305140">
        <ele>1075</ele>
        <time>2022-12-04T00:02:29Z</time>
      </trkpt>
      <trkpt lat="40.667850" lon="-5.305690">
        <ele>1072</ele>
        <time>2022-12-04T00:02:40Z</time>
      </trkpt>
      <trkpt lat="40.666280" lon="-5.307160">
        <ele>1063</ele>
        <time>2022-12-04T00:03:15Z</time>
      </trkpt>
      <trkpt lat="40.663220" lon="-5.310030">
        <ele>1056</ele>
        <time>2022-12-04T00:04:21Z</time>
      </trkpt>
      <trkpt lat="40.661660" lon="-5.311470">
        <ele>1045</ele>
        <time>2022-12-04T00:04:55Z</time>
      </trkpt>
      <trkpt lat="40.661280" lon="-5.311830">
        <ele>1046</ele>
        <time>2022-12-04T00:05:04Z</time>
      </trkpt>
      <trkpt lat="40.660500" lon="-5.312610">
        <ele>1054</ele>
        <time>2022-12-04T00:05:21Z</time>
      </trkpt>
      <trkpt lat="40.660060" lon="-5.313100">
        <ele>1058</ele>
        <time>2022-12-04T00:05:31Z</time>
      </trkpt>
      <trkpt lat="40.659460" lon="-5.313880">
        <ele>1065</ele>
        <time>2022-12-04T00:05:46Z</time>
      </trkpt>
      <trkpt lat="40.658910" lon="-5.314740">
        <ele>1072</ele>
        <time>2022-12-04T00:06:02Z</time>
      </trkpt>
      <trkpt lat="40.655930" lon="-5.319630">
        <ele>1086</ele>
        <time>2022-12-04T00:07:26Z</time>
      </trkpt>
      <trkpt lat="40.655500" lon="-5.320240">
        <ele>1086</ele>
        <time>2022-12-04T00:07:37Z</time>
      </trkpt>
      <trkpt lat="40.655090" lon="-5.320790">
        <ele>1086</ele>
        <time>2022-12-04T00:07:48Z</time>
      </trkpt>
      <trkpt lat="40.654550" lon="-5.321440">
        <ele>1087</ele>
        <time>2022-12-04T00:08:01Z</time>
      </trkpt>
      <trkpt lat="40.653300" lon="-5.322710">
        <ele>1086</ele>
        <time>2022-12-04T00:08:29Z</time>
      </trkpt>
      <trkpt lat="40.650600" lon="-5.325320">
        <ele>1081</ele>
        <time>2022-12-04T00:09:28Z</time>
      </trkpt>
      <trkpt lat="40.649260" lon="-5.326720">
        <ele>1079</ele>
        <time>2022-12-04T00:09:59Z</time>
      </trkpt>
      <trkpt lat="40.648050" lon="-5.328010">
        <ele>1078</ele>
        <time>2022-12-04T00:10:27Z</time>
      </trkpt>
      <trkpt lat="40.647200" lon="-5.328870">
        <ele>1078</ele>
        <time>2022-12-04T00:10:46Z</time>
      </trkpt>
      <trkpt lat="40.647000" lon="-5.329030">
        <ele>1077</ele>
        <time>2022-12-04T00:10:50Z</time>
      </trkpt>
      <trkpt lat="40.645800" lon="-5.329800">
        <ele>1072</ele>
        <time>2022-12-04T00:11:14Z</time>
      </trkpt>
      <trkpt lat="40.645120" lon="-5.330170">
        <ele>1070</ele>
        <time>2022-12-04T00:11:27Z</time>
      </trkpt>
      <trkpt lat="40.644360" lon="-5.330490">
        <ele>1066</ele>
        <time>2022-12-04T00:11:41Z</time>
      </trkpt>
      <trkpt lat="40.643430" lon="-5.330800">
        <ele>1061</ele>
        <time>2022-12-04T00:11:58Z</time>
      </trkpt>
      <trkpt lat="40.643270" lon="-5.330870">
        <ele>1061</ele>
        <time>2022-12-04T00:12:01Z</time>
      </trkpt>
      <trkpt lat="40.642580" lon="-5.331070">
        <ele>1065</ele>
        <time>2022-12-04T00:12:14Z</time>
      </trkpt>
      <trkpt lat="40.641730" lon="-5.331370">
        <ele>1070</ele>
        <time>2022-12-04T00:12:29Z</time>
      </trkpt>
      <trkpt lat="40.641010" lon="-5.331520">
        <ele>1072</ele>
        <time>2022-12-04T00:12:42Z</time>
      </trkpt>
      <trkpt lat="40.640390" lon="-5.331530">
        <ele>1076</ele>
        <time>2022-12-04T00:12:53Z</time>
      </trkpt>
      <trkpt lat="40.638270" lon="-5.331230">
        <ele>1094</ele>
        <time>2022-12-04T00:13:31Z</time>
      </trkpt>
      <trkpt lat="40.637730" lon="-5.331220">
        <ele>1094</ele>
        <time>2022-12-04T00:13:41Z</time>
      </trkpt>
      <trkpt lat="40.633480" lon="-5.331490">
        <ele>1110</ele>
        <time>2022-12-04T00:14:56Z</time>
      </trkpt>
      <trkpt lat="40.633000" lon="-5.331560">
        <ele>1113</ele>
        <time>2022-12-04T00:15:05Z</time>
      </trkpt>
      <trkpt lat="40.632680" lon="-5.331650">
        <ele>1115</ele>
        <time>2022-12-04T00:15:11Z</time>
      </trkpt>
      <trkpt lat="40.632170" lon="-5.331850">
        <ele>1117</ele>
        <time>2022-12-04T00:15:20Z</time>
      </trkpt>
      <trkpt lat="40.630870" lon="-5.332540">
        <ele>1121</ele>
        <time>2022-12-04T00:15:45Z</time>
      </trkpt>
      <trkpt lat="40.629430" lon="-5.333340">
        <ele>1123</ele>
        <time>2022-12-04T00:16:13Z</time>
      </trkpt>
      <trkpt lat="40.628940" lon="-5.333670">
        <ele>1124</ele>
        <time>2022-12-04T00:16:23Z</time>
      </trkpt>
      <trkpt lat="40.628510" lon="-5.334040">
        <ele>1124</ele>
        <time>2022-12-04T00:16:32Z</time>
      </trkpt>
      <trkpt lat="40.625870" lon="-5.336660">
        <ele>1121</ele>
        <time>2022-12-04T00:17:31Z</time>
      </trkpt>
      <trkpt lat="40.625190" lon="-5.337520">
        <ele>1120</ele>
        <time>2022-12-04T00:17:48Z</time>
      </trkpt>
      <trkpt lat="40.625010" lon="-5.337950">
        <ele>1118</ele>
        <time>2022-12-04T00:17:54Z</time>
      </trkpt>
      <trkpt lat="40.624990" lon="-5.338060">
        <ele>1118</ele>
        <time>2022-12-04T00:17:56Z</time>
      </trkpt>
      <trkpt lat="40.625010" lon="-5.338240">
        <ele>1117</ele>
        <time>2022-12-04T00:17:58Z</time>
      </trkpt>
      <trkpt lat="40.625790" lon="-5.340120">
        <ele>1114</ele>
        <time>2022-12-04T00:18:27Z</time>
      </trkpt>
      <trkpt lat="40.625890" lon="-5.340420">
        <ele>1114</ele>
        <time>2022-12-04T00:18:32Z</time>
      </trkpt>
      <trkpt lat="40.626010" lon="-5.341220">
        <ele>1114</ele>
        <time>2022-12-04T00:18:43Z</time>
      </trkpt>
      <trkpt lat="40.626090" lon="-5.341450">
        <ele>1114</ele>
        <time>2022-12-04T00:18:46Z</time>
      </trkpt>
      <trkpt lat="40.627170" lon="-5.342900">
        <ele>1111</ele>
        <time>2022-12-04T00:19:13Z</time>
      </trkpt>
      <trkpt lat="40.627610" lon="-5.343400">
        <ele>1110</ele>
        <time>2022-12-04T00:19:24Z</time>
      </trkpt>
      <trkpt lat="40.628090" lon="-5.343900">
        <ele>1109</ele>
        <time>2022-12-04T00:19:35Z</time>
      </trkpt>
      <trkpt lat="40.628550" lon="-5.344450">
        <ele>1108</ele>
        <time>2022-12-04T00:19:46Z</time>
      </trkpt>
      <trkpt lat="40.628820" lon="-5.344840">
        <ele>1107</ele>
        <time>2022-12-04T00:19:53Z</time>
      </trkpt>
      <trkpt lat="40.628910" lon="-5.345020">
        <ele>1107</ele>
        <time>2022-12-04T00:19:56Z</time>
      </trkpt>
      <trkpt lat="40.629180" lon="-5.345770">
        <ele>1107</ele>
        <time>2022-12-04T00:20:07Z</time>
      </trkpt>
      <trkpt lat="40.629250" lon="-5.346060">
        <ele>1107</ele>
        <time>2022-12-04T00:20:11Z</time>
      </trkpt>
      <trkpt lat="40.629300" lon="-5.346630">
        <ele>1108</ele>
        <time>2022-12-04T00:20:19Z</time>
      </trkpt>
      <trkpt lat="40.629500" lon="-5.347470">
        <ele>1107</ele>
        <time>2022-12-04T00:20:31Z</time>
      </trkpt>
      <trkpt lat="40.629560" lon="-5.347620">
        <ele>1107</ele>
        <time>2022-12-04T00:20:33Z</time>
      </trkpt>
      <trkpt lat="40.629790" lon="-5.348020">
        <ele>1105</ele>
        <time>2022-12-04T00:20:40Z</time>
      </trkpt>
      <trkpt lat="40.630340" lon="-5.348220">
        <ele>1102</ele>
        <time>2022-12-04T00:20:50Z</time>
      </trkpt>
      <trkpt lat="40.630650" lon="-5.348620">
        <ele>1101</ele>
        <time>2022-12-04T00:20:58Z</time>
      </trkpt>
      <trkpt lat="40.631930" lon="-5.349290">
        <ele>1096</ele>
        <time>2022-12-04T00:21:22Z</time>
      </trkpt>
      <trkpt lat="40.632050" lon="-5.349390">
        <ele>1095</ele>
        <time>2022-12-04T00:21:25Z</time>
      </trkpt>
      <trkpt lat="40.632910" lon="-5.350400">
        <ele>1090</ele>
        <time>2022-12-04T00:21:45Z</time>
      </trkpt>
      <trkpt lat="40.633080" lon="-5.350670">
        <ele>1089</ele>
        <time>2022-12-04T00:21:50Z</time>
      </trkpt>
      <trkpt lat="40.633400" lon="-5.351240">
        <ele>1087</ele>
        <time>2022-12-04T00:21:59Z</time>
      </trkpt>
      <trkpt lat="40.633870" lon="-5.352140">
        <ele>1085</ele>
        <time>2022-12-04T00:22:14Z</time>
      </trkpt>
      <trkpt lat="40.634580" lon="-5.353080">
        <ele>1082</ele>
        <time>2022-12-04T00:22:32Z</time>
      </trkpt>
      <trkpt lat="40.634710" lon="-5.353300">
        <ele>1081</ele>
        <time>2022-12-04T00:22:36Z</time>
      </trkpt>
      <trkpt lat="40.635410" lon="-5.354990">
        <ele>1076</ele>
        <time>2022-12-04T00:23:02Z</time>
      </trkpt>
      <trkpt lat="40.635960" lon="-5.356880">
        <ele>1072</ele>
        <time>2022-12-04T00:23:29Z</time>
      </trkpt>
      <trkpt lat="40.636070" lon="-5.357210">
        <ele>1072</ele>
        <time>2022-12-04T00:23:34Z</time>
      </trkpt>
      <trkpt lat="40.636960" lon="-5.359090">
        <ele>1065</ele>
        <time>2022-12-04T00:24:04Z</time>
      </trkpt>
      <trkpt lat="40.637070" lon="-5.359270">
        <ele>1065</ele>
        <time>2022-12-04T00:24:07Z</time>
      </trkpt>
      <trkpt lat="40.638450" lon="-5.360910">
        <ele>1060</ele>
        <time>2022-12-04T00:24:40Z</time>
      </trkpt>
      <trkpt lat="40.638600" lon="-5.361180">
        <ele>1060</ele>
        <time>2022-12-04T00:24:45Z</time>
      </trkpt>
      <trkpt lat="40.638860" lon="-5.361940">
        <ele>1057</ele>
        <time>2022-12-04T00:24:56Z</time>
      </trkpt>
      <trkpt lat="40.638920" lon="-5.362040">
        <ele>1057</ele>
        <time>2022-12-04T00:24:58Z</time>
      </trkpt>
      <trkpt lat="40.639240" lon="-5.362420">
        <ele>1056</ele>
        <time>2022-12-04T00:25:05Z</time>
      </trkpt>
      <trkpt lat="40.639560" lon="-5.363190">
        <ele>1052</ele>
        <time>2022-12-04T00:25:17Z</time>
      </trkpt>
      <trkpt lat="40.639880" lon="-5.363770">
        <ele>1047</ele>
        <time>2022-12-04T00:25:27Z</time>
      </trkpt>
      <trkpt lat="40.639940" lon="-5.363910">
        <ele>1046</ele>
        <time>2022-12-04T00:25:29Z</time>
      </trkpt>
      <trkpt lat="40.639980" lon="-5.364100">
        <ele>1044</ele>
        <time>2022-12-04T00:25:32Z</time>
      </trkpt>
      <trkpt lat="40.640120" lon="-5.365150">
        <ele>1038</ele>
        <time>2022-12-04T00:25:46Z</time>
      </trkpt>
      <trkpt lat="40.640320" lon="-5.366170">
        <ele>1035</ele>
        <time>2022-12-04T00:26:00Z</time>
      </trkpt>
      <trkpt lat="40.640580" lon="-5.367140">
        <ele>1034</ele>
        <time>2022-12-04T00:26:14Z</time>
      </trkpt>
      <trkpt lat="40.640810" lon="-5.368490">
        <ele>1035</ele>
        <time>2022-12-04T00:26:33Z</time>
      </trkpt>
      <trkpt lat="40.641100" lon="-5.369850">
        <ele>1035</ele>
        <time>2022-12-04T00:26:52Z</time>
      </trkpt>
      <trkpt lat="40.641320" lon="-5.370700">
        <ele>1037</ele>
        <time>2022-12-04T00:27:04Z</time>
      </trkpt>
      <trkpt lat="40.641430" lon="-5.371010">
        <ele>1037</ele>
        <time>2022-12-04T00:27:09Z</time>
      </trkpt>
      <trkpt lat="40.641770" lon="-5.371890">
        <ele>1039</ele>
        <time>2022-12-04T00:27:22Z</time>
      </trkpt>
      <trkpt lat="40.641880" lon="-5.372140">
        <ele>1039</ele>
        <time>2022-12-04T00:27:26Z</time>
      </trkpt>
      <trkpt lat="40.642580" lon="-5.373330">
        <ele>1039</ele>
        <time>2022-12-04T00:27:46Z</time>
      </trkpt>
      <trkpt lat="40.642700" lon="-5.373560">
        <ele>1040</ele>
        <time>2022-12-04T00:27:50Z</time>
      </trkpt>
      <trkpt lat="40.642770" lon="-5.373750">
        <ele>1041</ele>
        <time>2022-12-04T00:27:53Z</time>
      </trkpt>
      <trkpt lat="40.643030" lon="-5.374260">
        <ele>1043</ele>
        <time>2022-12-04T00:28:01Z</time>
      </trkpt>
      <trkpt lat="40.643950" lon="-5.375920">
        <ele>1046</ele>
        <time>2022-12-04T00:28:29Z</time>
      </trkpt>
      <trkpt lat="40.644400" lon="-5.376610">
        <ele>1049</ele>
        <time>2022-12-04T00:28:41Z</time>
      </trkpt>
      <trkpt lat="40.645100" lon="-5.377540">
        <ele>1050</ele>
        <time>2022-12-04T00:28:59Z</time>
      </trkpt>
      <trkpt lat="40.645630" lon="-5.378170">
        <ele>1050</ele>
        <time>2022-12-04T00:29:12Z</time>
      </trkpt>
      <trkpt lat="40.646130" lon="-5.378800">
        <ele>1048</ele>
        <time>2022-12-04T00:29:24Z</time>
      </trkpt>
      <trkpt lat="40.646210" lon="-5.378960">
        <ele>1048</ele>
        <time>2022-12-04T00:29:26Z</time>
      </trkpt>
      <trkpt lat="40.646500" lon="-5.380420">
        <ele>1048</ele>
        <time>2022-12-04T00:29:47Z</time>
      </trkpt>
      <trkpt lat="40.646560" lon="-5.380510">
        <ele>1048</ele>
        <time>2022-12-04T00:29:48Z</time>
      </trkpt>
      <trkpt lat="40.647190" lon="-5.381090">
        <ele>1047</ele>
        <time>2022-12-04T00:30:02Z</time>
      </trkpt>
      <trkpt lat="40.647270" lon="-5.381200">
        <ele>1047</ele>
        <time>2022-12-04T00:30:04Z</time>
      </trkpt>
      <trkpt lat="40.647370" lon="-5.381480">
        <ele>1046</ele>
        <time>2022-12-04T00:30:08Z</time>
      </trkpt>
      <trkpt lat="40.648110" lon="-5.383850">
        <ele>1041</ele>
        <time>2022-12-04T00:30:43Z</time>
      </trkpt>
      <trkpt lat="40.647300" lon="-5.384670">
        <ele>1039</ele>
        <time>2022-12-04T00:31:01Z</time>
      </trkpt>
      <trkpt lat="40.646690" lon="-5.385360">
        <ele>1031</ele>
        <time>2022-12-04T00:31:15Z</time>
      </trkpt>
      <trkpt lat="40.646600" lon="-5.385470">
        <ele>1031</ele>
        <time>2022-12-04T00:31:18Z</time>
      </trkpt>
      <trkpt lat="40.646450" lon="-5.385790">
        <ele>1029</ele>
        <time>2022-12-04T00:31:23Z</time>
      </trkpt>
      <trkpt lat="40.646420" lon="-5.385920">
        <ele>1028</ele>
        <time>2022-12-04T00:31:25Z</time>
      </trkpt>
      <trkpt lat="40.646370" lon="-5.386220">
        <ele>1027</ele>
        <time>2022-12-04T00:31:29Z</time>
      </trkpt>
      <trkpt lat="40.646320" lon="-5.386760">
        <ele>1024</ele>
        <time>2022-12-04T00:31:36Z</time>
      </trkpt>
      <trkpt lat="40.646380" lon="-5.387030">
        <ele>1023</ele>
        <time>2022-12-04T00:31:40Z</time>
      </trkpt>
      <trkpt lat="40.646800" lon="-5.388200">
        <ele>1017</ele>
        <time>2022-12-04T00:31:57Z</time>
      </trkpt>
      <trkpt lat="40.646830" lon="-5.388330">
        <ele>1017</ele>
        <time>2022-12-04T00:31:59Z</time>
      </trkpt>
      <trkpt lat="40.646840" lon="-5.388530">
        <ele>1017</ele>
        <time>2022-12-04T00:32:02Z</time>
      </trkpt>
      <trkpt lat="40.646730" lon="-5.388960">
        <ele>1017</ele>
        <time>2022-12-04T00:32:08Z</time>
      </trkpt>
      <trkpt lat="40.646650" lon="-5.389170">
        <ele>1016</ele>
        <time>2022-12-04T00:32:11Z</time>
      </trkpt>
      <trkpt lat="40.646210" lon="-5.390070">
        <ele>1017</ele>
        <time>2022-12-04T00:32:26Z</time>
      </trkpt>
      <trkpt lat="40.646000" lon="-5.390460">
        <ele>1017</ele>
        <time>2022-12-04T00:32:32Z</time>
      </trkpt>
      <trkpt lat="40.645860" lon="-5.390660">
        <ele>1016</ele>
        <time>2022-12-04T00:32:36Z</time>
      </trkpt>
      <trkpt lat="40.645730" lon="-5.390800">
        <ele>1015</ele>
        <time>2022-12-04T00:32:39Z</time>
      </trkpt>
      <trkpt lat="40.645600" lon="-5.390900">
        <ele>1015</ele>
        <time>2022-12-04T00:32:41Z</time>
      </trkpt>
      <trkpt lat="40.645320" lon="-5.391010">
        <ele>1014</ele>
        <time>2022-12-04T00:32:47Z</time>
      </trkpt>
      <trkpt lat="40.645200" lon="-5.391090">
        <ele>1013</ele>
        <time>2022-12-04T00:32:49Z</time>
      </trkpt>
      <trkpt lat="40.645110" lon="-5.391190">
        <ele>1013</ele>
        <time>2022-12-04T00:32:51Z</time>
      </trkpt>
      <trkpt lat="40.645050" lon="-5.391450">
        <ele>1012</ele>
        <time>2022-12-04T00:32:55Z</time>
      </trkpt>
      <trkpt lat="40.645050" lon="-5.391740">
        <ele>1012</ele>
        <time>2022-12-04T00:32:59Z</time>
      </trkpt>
      <trkpt lat="40.645180" lon="-5.393450">
        <ele>1007</ele>
        <time>2022-12-04T00:33:22Z</time>
      </trkpt>
      <trkpt lat="40.645190" lon="-5.393720">
        <ele>1008</ele>
        <time>2022-12-04T00:33:26Z</time>
      </trkpt>
      <trkpt lat="40.645260" lon="-5.394600">
        <ele>1006</ele>
        <time>2022-12-04T00:33:37Z</time>
      </trkpt>
      <trkpt lat="40.645230" lon="-5.394940">
        <ele>1004</ele>
        <time>2022-12-04T00:33:42Z</time>
      </trkpt>
      <trkpt lat="40.645190" lon="-5.395110">
        <ele>1004</ele>
        <time>2022-12-04T00:33:45Z</time>
      </trkpt>
      <trkpt lat="40.645090" lon="-5.395380">
        <ele>1003</ele>
        <time>2022-12-04T00:33:49Z</time>
      </trkpt>
      <trkpt lat="40.644920" lon="-5.395750">
        <ele>1003</ele>
        <time>2022-12-04T00:33:54Z</time>
      </trkpt>
      <trkpt lat="40.644140" lon="-5.397130">
        <ele>1000</ele>
        <time>2022-12-04T00:34:18Z</time>
      </trkpt>
      <trkpt lat="40.643920" lon="-5.397550">
        <ele>1000</ele>
        <time>2022-12-04T00:34:25Z</time>
      </trkpt>
      <trkpt lat="40.643750" lon="-5.397950">
        <ele>1000</ele>
        <time>2022-12-04T00:34:31Z</time>
      </trkpt>
      <trkpt lat="40.643630" lon="-5.398140">
        <ele>1000</ele>
        <time>2022-12-04T00:34:34Z</time>
      </trkpt>
      <trkpt lat="40.643520" lon="-5.398280">
        <ele>999</ele>
        <time>2022-12-04T00:34:37Z</time>
      </trkpt>
      <trkpt lat="40.643360" lon="-5.398390">
        <ele>998</ele>
        <time>2022-12-04T00:34:40Z</time>
      </trkpt>
      <trkpt lat="40.642960" lon="-5.398620">
        <ele>999</ele>
        <time>2022-12-04T00:34:48Z</time>
      </trkpt>
      <trkpt lat="40.642760" lon="-5.398840">
        <ele>999</ele>
        <time>2022-12-04T00:34:52Z</time>
      </trkpt>
      <trkpt lat="40.642510" lon="-5.398650">
        <ele>1000</ele>
        <time>2022-12-04T00:34:58Z</time>
      </trkpt>
      <trkpt lat="40.642760" lon="-5.398840">
        <ele>999</ele>
        <time>2022-12-04T00:35:03Z</time>
      </trkpt>
      <trkpt lat="40.642280" lon="-5.399500">
        <ele>1002</ele>
        <time>2022-12-04T00:35:15Z</time>
      </trkpt>
      <trkpt lat="40.642210" lon="-5.399630">
        <ele>1003</ele>
        <time>2022-12-04T00:35:17Z</time>
      </trkpt>
      <trkpt lat="40.642170" lon="-5.399780">
        <ele>1004</ele>
        <time>2022-12-04T00:35:19Z</time>
      </trkpt>
      <trkpt lat="40.642160" lon="-5.400380">
        <ele>1006</ele>
        <time>2022-12-04T00:35:27Z</time>
      </trkpt>
      <trkpt lat="40.642170" lon="-5.400690">
        <ele>1007</ele>
        <time>2022-12-04T00:35:32Z</time>
      </trkpt>
      <trkpt lat="40.642190" lon="-5.400820">
        <ele>1007</ele>
        <time>2022-12-04T00:35:33Z</time>
      </trkpt>
      <trkpt lat="40.642290" lon="-5.401080">
        <ele>1004</ele>
        <time>2022-12-04T00:35:37Z</time>
      </trkpt>
      <trkpt lat="40.642570" lon="-5.401630">
        <ele>1001</ele>
        <time>2022-12-04T00:35:46Z</time>
      </trkpt>
      <trkpt lat="40.642720" lon="-5.401970">
        <ele>1000</ele>
        <time>2022-12-04T00:35:52Z</time>
      </trkpt>
      <trkpt lat="40.642760" lon="-5.402120">
        <ele>1000</ele>
        <time>2022-12-04T00:35:54Z</time>
      </trkpt>
      <trkpt lat="40.642780" lon="-5.402290">
        <ele>1000</ele>
        <time>2022-12-04T00:35:56Z</time>
      </trkpt>
      <trkpt lat="40.642810" lon="-5.403070">
        <ele>997</ele>
        <time>2022-12-04T00:36:07Z</time>
      </trkpt>
      <trkpt lat="40.642790" lon="-5.403240">
        <ele>997</ele>
        <time>2022-12-04T00:36:09Z</time>
      </trkpt>
      <trkpt lat="40.642760" lon="-5.403380">
        <ele>997</ele>
        <time>2022-12-04T00:36:11Z</time>
      </trkpt>
      <trkpt lat="40.642360" lon="-5.404680">
        <ele>991</ele>
        <time>2022-12-04T00:36:30Z</time>
      </trkpt>
      <trkpt lat="40.642100" lon="-5.405450">
        <ele>989</ele>
        <time>2022-12-04T00:36:41Z</time>
      </trkpt>
      <trkpt lat="40.642080" lon="-5.405530">
        <ele>989</ele>
        <time>2022-12-04T00:36:42Z</time>
      </trkpt>
      <trkpt lat="40.642050" lon="-5.405740">
        <ele>989</ele>
        <time>2022-12-04T00:36:45Z</time>
      </trkpt>
      <trkpt lat="40.642060" lon="-5.406020">
        <ele>989</ele>
        <time>2022-12-04T00:36:49Z</time>
      </trkpt>
      <trkpt lat="40.641700" lon="-5.406020">
        <ele>993</ele>
        <time>2022-12-04T00:36:55Z</time>
      </trkpt>
      <trkpt lat="40.641510" lon="-5.405990">
        <ele>994</ele>
        <time>2022-12-04T00:36:59Z</time>
      </trkpt>
      <trkpt lat="40.641090" lon="-5.405700">
        <ele>997</ele>
        <time>2022-12-04T00:37:07Z</time>
      </trkpt>
      <trkpt lat="40.640720" lon="-5.405540">
        <ele>999</ele>
        <time>2022-12-04T00:37:14Z</time>
      </trkpt>
      <trkpt lat="40.640480" lon="-5.405910">
        <ele>1003</ele>
        <time>2022-12-04T00:37:21Z</time>
      </trkpt>
      <trkpt lat="40.640340" lon="-5.405930">
        <ele>1004</ele>
        <time>2022-12-04T00:37:23Z</time>
      </trkpt>
      <trkpt lat="40.640260" lon="-5.405980">
        <ele>1004</ele>
        <time>2022-12-04T00:37:25Z</time>
      </trkpt>
      <trkpt lat="40.640200" lon="-5.406100">
        <ele>1004</ele>
        <time>2022-12-04T00:37:27Z</time>
      </trkpt>
      <trkpt lat="40.639810" lon="-5.406010">
        <ele>1007</ele>
        <time>2022-12-04T00:37:34Z</time>
      </trkpt>
      <trkpt lat="40.639740" lon="-5.406100">
        <ele>1006</ele>
        <time>2022-12-04T00:37:36Z</time>
      </trkpt>
      <trkpt lat="40.639620" lon="-5.406140">
        <ele>1006</ele>
        <time>2022-12-04T00:37:38Z</time>
      </trkpt>
      <trkpt lat="40.639200" lon="-5.406190">
        <ele>1008</ele>
        <time>2022-12-04T00:37:45Z</time>
      </trkpt>
      <trkpt lat="40.639050" lon="-5.406250">
        <ele>1008</ele>
        <time>2022-12-04T00:37:48Z</time>
      </trkpt>
      <trkpt lat="40.638900" lon="-5.406340">
        <ele>1007</ele>
        <time>2022-12-04T00:37:51Z</time>
      </trkpt>
      <trkpt lat="40.638890" lon="-5.406410">
        <ele>1006</ele>
        <time>2022-12-04T00:37:52Z</time>
      </trkpt>
      <trkpt lat="40.638840" lon="-5.406540">
        <ele>1005</ele>
        <time>2022-12-04T00:37:54Z</time>
      </trkpt>
      <trkpt lat="40.638720" lon="-5.406680">
        <ele>1004</ele>
        <time>2022-12-04T00:37:57Z</time>
      </trkpt>
      <trkpt lat="40.638440" lon="-5.406810">
        <ele>1004</ele>
        <time>2022-12-04T00:38:02Z</time>
      </trkpt>
      <trkpt lat="40.638050" lon="-5.407070">
        <ele>1002</ele>
        <time>2022-12-04T00:38:10Z</time>
      </trkpt>
      <trkpt lat="40.637770" lon="-5.407170">
        <ele>1001</ele>
        <time>2022-12-04T00:38:15Z</time>
      </trkpt>
      <trkpt lat="40.637690" lon="-5.407280">
        <ele>999</ele>
        <time>2022-12-04T00:38:17Z</time>
      </trkpt>
      <trkpt lat="40.637640" lon="-5.407420">
        <ele>998</ele>
        <time>2022-12-04T00:38:19Z</time>
      </trkpt>
      <trkpt lat="40.637490" lon="-5.407940">
        <ele>998</ele>
        <time>2022-12-04T00:38:27Z</time>
      </trkpt>
      <trkpt lat="40.637400" lon="-5.408190">
        <ele>999</ele>
        <time>2022-12-04T00:38:30Z</time>
      </trkpt>
      <trkpt lat="40.637340" lon="-5.408310">
        <ele>1000</ele>
        <time>2022-12-04T00:38:32Z</time>
      </trkpt>
      <trkpt lat="40.637260" lon="-5.408400">
        <ele>1001</ele>
        <time>2022-12-04T00:38:34Z</time>
      </trkpt>
      <trkpt lat="40.637200" lon="-5.408440">
        <ele>1001</ele>
        <time>2022-12-04T00:38:35Z</time>
      </trkpt>
      <trkpt lat="40.635680" lon="-5.408780">
        <ele>1009</ele>
        <time>2022-12-04T00:39:03Z</time>
      </trkpt>
      <trkpt lat="40.635570" lon="-5.408810">
        <ele>1010</ele>
        <time>2022-12-04T00:39:05Z</time>
      </trkpt>
      <trkpt lat="40.635430" lon="-5.408880">
        <ele>1011</ele>
        <time>2022-12-04T00:39:07Z</time>
      </trkpt>
      <trkpt lat="40.635290" lon="-5.409010">
        <ele>1012</ele>
        <time>2022-12-04T00:39:11Z</time>
      </trkpt>
      <trkpt lat="40.635230" lon="-5.409100">
        <ele>1012</ele>
        <time>2022-12-04T00:39:12Z</time>
      </trkpt>
      <trkpt lat="40.634030" lon="-5.410790">
        <ele>1025</ele>
        <time>2022-12-04T00:39:43Z</time>
      </trkpt>
      <trkpt lat="40.633910" lon="-5.411020">
        <ele>1027</ele>
        <time>2022-12-04T00:39:47Z</time>
      </trkpt>
      <trkpt lat="40.633730" lon="-5.411510">
        <ele>1032</ele>
        <time>2022-12-04T00:39:55Z</time>
      </trkpt>
      <trkpt lat="40.633690" lon="-5.411730">
        <ele>1033</ele>
        <time>2022-12-04T00:39:58Z</time>
      </trkpt>
      <trkpt lat="40.633690" lon="-5.412290">
        <ele>1037</ele>
        <time>2022-12-04T00:40:05Z</time>
      </trkpt>
      <trkpt lat="40.633810" lon="-5.412940">
        <ele>1042</ele>
        <time>2022-12-04T00:40:14Z</time>
      </trkpt>
      <trkpt lat="40.633780" lon="-5.413130">
        <ele>1044</ele>
        <time>2022-12-04T00:40:17Z</time>
      </trkpt>
      <trkpt lat="40.633590" lon="-5.413640">
        <ele>1048</ele>
        <time>2022-12-04T00:40:24Z</time>
      </trkpt>
      <trkpt lat="40.633560" lon="-5.414070">
        <ele>1051</ele>
        <time>2022-12-04T00:40:30Z</time>
      </trkpt>
      <trkpt lat="40.633560" lon="-5.414510">
        <ele>1053</ele>
        <time>2022-12-04T00:40:36Z</time>
      </trkpt>
      <trkpt lat="40.633590" lon="-5.414730">
        <ele>1055</ele>
        <time>2022-12-04T00:40:39Z</time>
      </trkpt>
      <trkpt lat="40.633640" lon="-5.414920">
        <ele>1055</ele>
        <time>2022-12-04T00:40:42Z</time>
      </trkpt>
      <trkpt lat="40.633890" lon="-5.415480">
        <ele>1057</ele>
        <time>2022-12-04T00:40:51Z</time>
      </trkpt>
      <trkpt lat="40.633920" lon="-5.415570">
        <ele>1057</ele>
        <time>2022-12-04T00:40:52Z</time>
      </trkpt>
      <trkpt lat="40.633940" lon="-5.415700">
        <ele>1057</ele>
        <time>2022-12-04T00:40:54Z</time>
      </trkpt>
      <trkpt lat="40.633920" lon="-5.415850">
        <ele>1058</ele>
        <time>2022-12-04T00:40:56Z</time>
      </trkpt>
      <trkpt lat="40.633880" lon="-5.415960">
        <ele>1058</ele>
        <time>2022-12-04T00:40:58Z</time>
      </trkpt>
      <trkpt lat="40.633760" lon="-5.416170">
        <ele>1058</ele>
        <time>2022-12-04T00:41:01Z</time>
      </trkpt>
      <trkpt lat="40.633400" lon="-5.416510">
        <ele>1057</ele>
        <time>2022-12-04T00:41:09Z</time>
      </trkpt>
      <trkpt lat="40.633300" lon="-5.416630">
        <ele>1057</ele>
        <time>2022-12-04T00:41:11Z</time>
      </trkpt>
      <trkpt lat="40.633180" lon="-5.416900">
        <ele>1056</ele>
        <time>2022-12-04T00:41:16Z</time>
      </trkpt>
      <trkpt lat="40.633150" lon="-5.417040">
        <ele>1055</ele>
        <time>2022-12-04T00:41:18Z</time>
      </trkpt>
      <trkpt lat="40.633150" lon="-5.417480">
        <ele>1054</ele>
        <time>2022-12-04T00:41:24Z</time>
      </trkpt>
      <trkpt lat="40.633200" lon="-5.418270">
        <ele>1050</ele>
        <time>2022-12-04T00:41:34Z</time>
      </trkpt>
      <trkpt lat="40.633190" lon="-5.418410">
        <ele>1049</ele>
        <time>2022-12-04T00:41:36Z</time>
      </trkpt>
      <trkpt lat="40.633140" lon="-5.418600">
        <ele>1047</ele>
        <time>2022-12-04T00:41:39Z</time>
      </trkpt>
      <trkpt lat="40.633060" lon="-5.418720">
        <ele>1046</ele>
        <time>2022-12-04T00:41:41Z</time>
      </trkpt>
      <trkpt lat="40.632930" lon="-5.418800">
        <ele>1044</ele>
        <time>2022-12-04T00:41:44Z</time>
      </trkpt>
      <trkpt lat="40.632710" lon="-5.418810">
        <ele>1041</ele>
        <time>2022-12-04T00:41:47Z</time>
      </trkpt>
      <trkpt lat="40.632220" lon="-5.418800">
        <ele>1038</ele>
        <time>2022-12-04T00:41:56Z</time>
      </trkpt>
      <trkpt lat="40.632100" lon="-5.418830">
        <ele>1037</ele>
        <time>2022-12-04T00:41:58Z</time>
      </trkpt>
      <trkpt lat="40.631930" lon="-5.418910">
        <ele>1036</ele>
        <time>2022-12-04T00:42:02Z</time>
      </trkpt>
      <trkpt lat="40.631730" lon="-5.419120">
        <ele>1035</ele>
        <time>2022-12-04T00:42:06Z</time>
      </trkpt>
      <trkpt lat="40.630460" lon="-5.421170">
        <ele>1024</ele>
        <time>2022-12-04T00:42:42Z</time>
      </trkpt>
      <trkpt lat="40.630340" lon="-5.421320">
        <ele>1024</ele>
        <time>2022-12-04T00:42:45Z</time>
      </trkpt>
      <trkpt lat="40.630280" lon="-5.421370">
        <ele>1023</ele>
        <time>2022-12-04T00:42:46Z</time>
      </trkpt>
      <trkpt lat="40.630190" lon="-5.421400">
        <ele>1023</ele>
        <time>2022-12-04T00:42:48Z</time>
      </trkpt>
      <trkpt lat="40.630050" lon="-5.421390">
        <ele>1024</ele>
        <time>2022-12-04T00:42:50Z</time>
      </trkpt>
      <trkpt lat="40.629530" lon="-5.421200">
        <ele>1023</ele>
        <time>2022-12-04T00:43:00Z</time>
      </trkpt>
      <trkpt lat="40.629410" lon="-5.421170">
        <ele>1023</ele>
        <time>2022-12-04T00:43:02Z</time>
      </trkpt>
      <trkpt lat="40.629280" lon="-5.421160">
        <ele>1023</ele>
        <time>2022-12-04T00:43:04Z</time>
      </trkpt>
      <trkpt lat="40.629180" lon="-5.421190">
        <ele>1022</ele>
        <time>2022-12-04T00:43:06Z</time>
      </trkpt>
      <trkpt lat="40.629060" lon="-5.421290">
        <ele>1022</ele>
        <time>2022-12-04T00:43:09Z</time>
      </trkpt>
      <trkpt lat="40.628990" lon="-5.421380">
        <ele>1021</ele>
        <time>2022-12-04T00:43:10Z</time>
      </trkpt>
      <trkpt lat="40.628920" lon="-5.421540">
        <ele>1021</ele>
        <time>2022-12-04T00:43:13Z</time>
      </trkpt>
      <trkpt lat="40.628740" lon="-5.422460">
        <ele>1022</ele>
        <time>2022-12-04T00:43:26Z</time>
      </trkpt>
      <trkpt lat="40.628600" lon="-5.423320">
        <ele>1026</ele>
        <time>2022-12-04T00:43:38Z</time>
      </trkpt>
      <trkpt lat="40.628560" lon="-5.424530">
        <ele>1028</ele>
        <time>2022-12-04T00:43:54Z</time>
      </trkpt>
      <trkpt lat="40.628490" lon="-5.424840">
        <ele>1029</ele>
        <time>2022-12-04T00:43:58Z</time>
      </trkpt>
      <trkpt lat="40.628460" lon="-5.424930">
        <ele>1029</ele>
        <time>2022-12-04T00:44:00Z</time>
      </trkpt>
      <trkpt lat="40.628300" lon="-5.425170">
        <ele>1031</ele>
        <time>2022-12-04T00:44:04Z</time>
      </trkpt>
      <trkpt lat="40.627820" lon="-5.425610">
        <ele>1034</ele>
        <time>2022-12-04T00:44:14Z</time>
      </trkpt>
      <trkpt lat="40.627680" lon="-5.425840">
        <ele>1035</ele>
        <time>2022-12-04T00:44:18Z</time>
      </trkpt>
      <trkpt lat="40.627600" lon="-5.426040">
        <ele>1036</ele>
        <time>2022-12-04T00:44:21Z</time>
      </trkpt>
      <trkpt lat="40.627570" lon="-5.426190">
        <ele>1036</ele>
        <time>2022-12-04T00:44:23Z</time>
      </trkpt>
      <trkpt lat="40.627500" lon="-5.427400">
        <ele>1037</ele>
        <time>2022-12-04T00:44:40Z</time>
      </trkpt>
      <trkpt lat="40.627430" lon="-5.427780">
        <ele>1037</ele>
        <time>2022-12-04T00:44:45Z</time>
      </trkpt>
      <trkpt lat="40.627350" lon="-5.427930">
        <ele>1037</ele>
        <time>2022-12-04T00:44:48Z</time>
      </trkpt>
      <trkpt lat="40.627230" lon="-5.428050">
        <ele>1037</ele>
        <time>2022-12-04T00:44:50Z</time>
      </trkpt>
      <trkpt lat="40.626820" lon="-5.428330">
        <ele>1037</ele>
        <time>2022-12-04T00:44:59Z</time>
      </trkpt>
      <trkpt lat="40.626620" lon="-5.428430">
        <ele>1036</ele>
        <time>2022-12-04T00:45:02Z</time>
      </trkpt>
      <trkpt lat="40.626430" lon="-5.428470">
        <ele>1035</ele>
        <time>2022-12-04T00:45:06Z</time>
      </trkpt>
      <trkpt lat="40.625450" lon="-5.428480">
        <ele>1030</ele>
        <time>2022-12-04T00:45:23Z</time>
      </trkpt>
      <trkpt lat="40.625240" lon="-5.428510">
        <ele>1029</ele>
        <time>2022-12-04T00:45:27Z</time>
      </trkpt>
      <trkpt lat="40.625140" lon="-5.428560">
        <ele>1028</ele>
        <time>2022-12-04T00:45:29Z</time>
      </trkpt>
      <trkpt lat="40.623990" lon="-5.429640">
        <ele>1013</ele>
        <time>2022-12-04T00:45:54Z</time>
      </trkpt>
      <trkpt lat="40.623920" lon="-5.429740">
        <ele>1012</ele>
        <time>2022-12-04T00:45:56Z</time>
      </trkpt>
      <trkpt lat="40.623890" lon="-5.429850">
        <ele>1011</ele>
        <time>2022-12-04T00:45:57Z</time>
      </trkpt>
      <trkpt lat="40.623880" lon="-5.430060">
        <ele>1009</ele>
        <time>2022-12-04T00:46:00Z</time>
      </trkpt>
      <trkpt lat="40.623910" lon="-5.430350">
        <ele>1007</ele>
        <time>2022-12-04T00:46:04Z</time>
      </trkpt>
      <trkpt lat="40.623970" lon="-5.430580">
        <ele>1006</ele>
        <time>2022-12-04T00:46:07Z</time>
      </trkpt>
      <trkpt lat="40.624030" lon="-5.430680">
        <ele>1006</ele>
        <time>2022-12-04T00:46:09Z</time>
      </trkpt>
      <trkpt lat="40.624070" lon="-5.430740">
        <ele>1006</ele>
        <time>2022-12-04T00:46:10Z</time>
      </trkpt>
      <trkpt lat="40.624320" lon="-5.430930">
        <ele>1005</ele>
        <time>2022-12-04T00:46:15Z</time>
      </trkpt>
      <trkpt lat="40.624450" lon="-5.431060">
        <ele>1005</ele>
        <time>2022-12-04T00:46:18Z</time>
      </trkpt>
      <trkpt lat="40.624510" lon="-5.431190">
        <ele>1004</ele>
        <time>2022-12-04T00:46:20Z</time>
      </trkpt>
      <trkpt lat="40.624540" lon="-5.431330">
        <ele>1003</ele>
        <time>2022-12-04T00:46:22Z</time>
      </trkpt>
      <trkpt lat="40.624540" lon="-5.431710">
        <ele>1000</ele>
        <time>2022-12-04T00:46:27Z</time>
      </trkpt>
      <trkpt lat="40.624520" lon="-5.431850">
        <ele>999</ele>
        <time>2022-12-04T00:46:29Z</time>
      </trkpt>
      <trkpt lat="40.624260" lon="-5.432370">
        <ele>995</ele>
        <time>2022-12-04T00:46:38Z</time>
      </trkpt>
      <trkpt lat="40.624220" lon="-5.432520">
        <ele>994</ele>
        <time>2022-12-04T00:46:40Z</time>
      </trkpt>
      <trkpt lat="40.624230" lon="-5.432650">
        <ele>994</ele>
        <time>2022-12-04T00:46:42Z</time>
      </trkpt>
      <trkpt lat="40.624350" lon="-5.433000">
        <ele>993</ele>
        <time>2022-12-04T00:46:47Z</time>
      </trkpt>
      <trkpt lat="40.624420" lon="-5.433170">
        <ele>993</ele>
        <time>2022-12-04T00:46:50Z</time>
      </trkpt>
      <trkpt lat="40.624550" lon="-5.433370">
        <ele>992</ele>
        <time>2022-12-04T00:46:53Z</time>
      </trkpt>
      <trkpt lat="40.624610" lon="-5.433510">
        <ele>992</ele>
        <time>2022-12-04T00:46:55Z</time>
      </trkpt>
      <trkpt lat="40.624640" lon="-5.433660">
        <ele>991</ele>
        <time>2022-12-04T00:46:57Z</time>
      </trkpt>
      <trkpt lat="40.624680" lon="-5.434070">
        <ele>991</ele>
        <time>2022-12-04T00:47:03Z</time>
      </trkpt>
      <trkpt lat="40.624670" lon="-5.434150">
        <ele>990</ele>
        <time>2022-12-04T00:47:04Z</time>
      </trkpt>
      <trkpt lat="40.624630" lon="-5.434290">
        <ele>991</ele>
        <time>2022-12-04T00:47:06Z</time>
      </trkpt>
      <trkpt lat="40.624520" lon="-5.434420">
        <ele>993</ele>
        <time>2022-12-04T00:47:09Z</time>
      </trkpt>
      <trkpt lat="40.624210" lon="-5.434670">
        <ele>997</ele>
        <time>2022-12-04T00:47:15Z</time>
      </trkpt>
      <trkpt lat="40.624130" lon="-5.434710">
        <ele>998</ele>
        <time>2022-12-04T00:47:17Z</time>
      </trkpt>
      <trkpt lat="40.624020" lon="-5.434730">
        <ele>998</ele>
        <time>2022-12-04T00:47:19Z</time>
      </trkpt>
      <trkpt lat="40.623740" lon="-5.434680">
        <ele>1000</ele>
        <time>2022-12-04T00:47:24Z</time>
      </trkpt>
      <trkpt lat="40.623220" lon="-5.434530">
        <ele>1004</ele>
        <time>2022-12-04T00:47:33Z</time>
      </trkpt>
      <trkpt lat="40.623070" lon="-5.434470">
        <ele>1005</ele>
        <time>2022-12-04T00:47:36Z</time>
      </trkpt>
      <trkpt lat="40.622700" lon="-5.434280">
        <ele>1007</ele>
        <time>2022-12-04T00:47:43Z</time>
      </trkpt>
      <trkpt lat="40.622530" lon="-5.434220">
        <ele>1008</ele>
        <time>2022-12-04T00:47:46Z</time>
      </trkpt>
      <trkpt lat="40.622350" lon="-5.434220">
        <ele>1009</ele>
        <time>2022-12-04T00:47:49Z</time>
      </trkpt>
      <trkpt lat="40.620960" lon="-5.434520">
        <ele>1018</ele>
        <time>2022-12-04T00:48:14Z</time>
      </trkpt>
      <trkpt lat="40.620770" lon="-5.434520">
        <ele>1020</ele>
        <time>2022-12-04T00:48:18Z</time>
      </trkpt>
      <trkpt lat="40.620550" lon="-5.434430">
        <ele>1020</ele>
        <time>2022-12-04T00:48:22Z</time>
      </trkpt>
      <trkpt lat="40.620020" lon="-5.434080">
        <ele>1023</ele>
        <time>2022-12-04T00:48:32Z</time>
      </trkpt>
      <trkpt lat="40.619950" lon="-5.434040">
        <ele>1024</ele>
        <time>2022-12-04T00:48:34Z</time>
      </trkpt>
      <trkpt lat="40.619840" lon="-5.434040">
        <ele>1025</ele>
        <time>2022-12-04T00:48:36Z</time>
      </trkpt>
      <trkpt lat="40.619740" lon="-5.434100">
        <ele>1026</ele>
        <time>2022-12-04T00:48:38Z</time>
      </trkpt>
      <trkpt lat="40.619670" lon="-5.434180">
        <ele>1026</ele>
        <time>2022-12-04T00:48:39Z</time>
      </trkpt>
      <trkpt lat="40.619350" lon="-5.434730">
        <ele>1029</ele>
        <time>2022-12-04T00:48:49Z</time>
      </trkpt>
      <trkpt lat="40.619230" lon="-5.434920">
        <ele>1030</ele>
        <time>2022-12-04T00:48:52Z</time>
      </trkpt>
      <trkpt lat="40.619140" lon="-5.435030">
        <ele>1031</ele>
        <time>2022-12-04T00:48:54Z</time>
      </trkpt>
      <trkpt lat="40.618650" lon="-5.435470">
        <ele>1038</ele>
        <time>2022-12-04T00:49:05Z</time>
      </trkpt>
      <trkpt lat="40.618520" lon="-5.435520">
        <ele>1040</ele>
        <time>2022-12-04T00:49:07Z</time>
      </trkpt>
      <trkpt lat="40.618340" lon="-5.435510">
        <ele>1042</ele>
        <time>2022-12-04T00:49:10Z</time>
      </trkpt>
      <trkpt lat="40.617460" lon="-5.435320">
        <ele>1041</ele>
        <time>2022-12-04T00:49:26Z</time>
      </trkpt>
      <trkpt lat="40.617240" lon="-5.435300">
        <ele>1040</ele>
        <time>2022-12-04T00:49:30Z</time>
      </trkpt>
      <trkpt lat="40.617100" lon="-5.435330">
        <ele>1039</ele>
        <time>2022-12-04T00:49:33Z</time>
      </trkpt>
      <trkpt lat="40.616070" lon="-5.435810">
        <ele>1032</ele>
        <time>2022-12-04T00:49:52Z</time>
      </trkpt>
      <trkpt lat="40.615920" lon="-5.435810">
        <ele>1031</ele>
        <time>2022-12-04T00:49:55Z</time>
      </trkpt>
      <trkpt lat="40.615870" lon="-5.435790">
        <ele>1030</ele>
        <time>2022-12-04T00:49:56Z</time>
      </trkpt>
      <trkpt lat="40.615760" lon="-5.435680">
        <ele>1029</ele>
        <time>2022-12-04T00:49:58Z</time>
      </trkpt>
      <trkpt lat="40.615240" lon="-5.434680">
        <ele>1023</ele>
        <time>2022-12-04T00:50:15Z</time>
      </trkpt>
      <trkpt lat="40.615200" lon="-5.434640">
        <ele>1023</ele>
        <time>2022-12-04T00:50:15Z</time>
      </trkpt>
      <trkpt lat="40.615090" lon="-5.434610">
        <ele>1022</ele>
        <time>2022-12-04T00:50:17Z</time>
      </trkpt>
      <trkpt lat="40.614990" lon="-5.434630">
        <ele>1021</ele>
        <time>2022-12-04T00:50:19Z</time>
      </trkpt>
      <trkpt lat="40.614250" lon="-5.435220">
        <ele>1018</ele>
        <time>2022-12-04T00:50:35Z</time>
      </trkpt>
      <trkpt lat="40.614050" lon="-5.435340">
        <ele>1016</ele>
        <time>2022-12-04T00:50:39Z</time>
      </trkpt>
      <trkpt lat="40.613870" lon="-5.435400">
        <ele>1016</ele>
        <time>2022-12-04T00:50:42Z</time>
      </trkpt>
      <trkpt lat="40.613330" lon="-5.435480">
        <ele>1016</ele>
        <time>2022-12-04T00:50:52Z</time>
      </trkpt>
      <trkpt lat="40.612720" lon="-5.435410">
        <ele>1012</ele>
        <time>2022-12-04T00:51:02Z</time>
      </trkpt>
      <trkpt lat="40.612150" lon="-5.435420">
        <ele>1009</ele>
        <time>2022-12-04T00:51:13Z</time>
      </trkpt>
      <trkpt lat="40.611340" lon="-5.435260">
        <ele>1005</ele>
        <time>2022-12-04T00:51:27Z</time>
      </trkpt>
      <trkpt lat="40.611140" lon="-5.435190">
        <ele>1004</ele>
        <time>2022-12-04T00:51:31Z</time>
      </trkpt>
      <trkpt lat="40.610710" lon="-5.434850">
        <ele>1003</ele>
        <time>2022-12-04T00:51:40Z</time>
      </trkpt>
      <trkpt lat="40.610560" lon="-5.434780">
        <ele>1002</ele>
        <time>2022-12-04T00:51:43Z</time>
      </trkpt>
      <trkpt lat="40.610390" lon="-5.434750">
        <ele>1001</ele>
        <time>2022-12-04T00:51:46Z</time>
      </trkpt>
      <trkpt lat="40.610240" lon="-5.434690">
        <ele>1001</ele>
        <time>2022-12-04T00:51:48Z</time>
      </trkpt>
      <trkpt lat="40.609860" lon="-5.434490">
        <ele>1000</ele>
        <time>2022-12-04T00:51:56Z</time>
      </trkpt>
      <trkpt lat="40.609660" lon="-5.434310">
        <ele>1001</ele>
        <time>2022-12-04T00:52:00Z</time>
      </trkpt>
      <trkpt lat="40.609510" lon="-5.434230">
        <ele>1000</ele>
        <time>2022-12-04T00:52:03Z</time>
      </trkpt>
      <trkpt lat="40.609420" lon="-5.434220">
        <ele>1000</ele>
        <time>2022-12-04T00:52:04Z</time>
      </trkpt>
      <trkpt lat="40.609040" lon="-5.434230">
        <ele>1000</ele>
        <time>2022-12-04T00:52:11Z</time>
      </trkpt>
      <trkpt lat="40.608510" lon="-5.434500">
        <ele>1004</ele>
        <time>2022-12-04T00:52:21Z</time>
      </trkpt>
      <trkpt lat="40.608390" lon="-5.434550">
        <ele>1004</ele>
        <time>2022-12-04T00:52:24Z</time>
      </trkpt>
      <trkpt lat="40.608210" lon="-5.434540">
        <ele>1005</ele>
        <time>2022-12-04T00:52:27Z</time>
      </trkpt>
      <trkpt lat="40.608120" lon="-5.434520">
        <ele>1006</ele>
        <time>2022-12-04T00:52:28Z</time>
      </trkpt>
      <trkpt lat="40.608010" lon="-5.434380">
        <ele>1007</ele>
        <time>2022-12-04T00:52:31Z</time>
      </trkpt>
      <trkpt lat="40.607900" lon="-5.434050">
        <ele>1008</ele>
        <time>2022-12-04T00:52:36Z</time>
      </trkpt>
      <trkpt lat="40.607790" lon="-5.433930">
        <ele>1010</ele>
        <time>2022-12-04T00:52:39Z</time>
      </trkpt>
      <trkpt lat="40.607590" lon="-5.433800">
        <ele>1011</ele>
        <time>2022-12-04T00:52:43Z</time>
      </trkpt>
      <trkpt lat="40.607490" lon="-5.433760">
        <ele>1012</ele>
        <time>2022-12-04T00:52:44Z</time>
      </trkpt>
      <trkpt lat="40.606660" lon="-5.433830">
        <ele>1014</ele>
        <time>2022-12-04T00:52:59Z</time>
      </trkpt>
      <trkpt lat="40.606540" lon="-5.433900">
        <ele>1013</ele>
        <time>2022-12-04T00:53:02Z</time>
      </trkpt>
      <trkpt lat="40.605540" lon="-5.434850">
        <ele>1016</ele>
        <time>2022-12-04T00:53:23Z</time>
      </trkpt>
      <trkpt lat="40.603500" lon="-5.436910">
        <ele>1041</ele>
        <time>2022-12-04T00:54:09Z</time>
      </trkpt>
      <trkpt lat="40.603390" lon="-5.437080">
        <ele>1042</ele>
        <time>2022-12-04T00:54:12Z</time>
      </trkpt>
      <trkpt lat="40.603360" lon="-5.437210">
        <ele>1043</ele>
        <time>2022-12-04T00:54:14Z</time>
      </trkpt>
      <trkpt lat="40.603370" lon="-5.437310">
        <ele>1044</ele>
        <time>2022-12-04T00:54:15Z</time>
      </trkpt>
      <trkpt lat="40.603460" lon="-5.437610">
        <ele>1046</ele>
        <time>2022-12-04T00:54:20Z</time>
      </trkpt>
      <trkpt lat="40.603460" lon="-5.437750">
        <ele>1047</ele>
        <time>2022-12-04T00:54:22Z</time>
      </trkpt>
      <trkpt lat="40.603410" lon="-5.437940">
        <ele>1048</ele>
        <time>2022-12-04T00:54:24Z</time>
      </trkpt>
      <trkpt lat="40.603270" lon="-5.438180">
        <ele>1050</ele>
        <time>2022-12-04T00:54:28Z</time>
      </trkpt>
      <trkpt lat="40.603190" lon="-5.438290">
        <ele>1051</ele>
        <time>2022-12-04T00:54:31Z</time>
      </trkpt>
      <trkpt lat="40.602130" lon="-5.439260">
        <ele>1063</ele>
        <time>2022-12-04T00:54:53Z</time>
      </trkpt>
      <trkpt lat="40.601880" lon="-5.439660">
        <ele>1066</ele>
        <time>2022-12-04T00:55:00Z</time>
      </trkpt>
      <trkpt lat="40.601690" lon="-5.439990">
        <ele>1068</ele>
        <time>2022-12-04T00:55:06Z</time>
      </trkpt>
      <trkpt lat="40.601600" lon="-5.440120">
        <ele>1068</ele>
        <time>2022-12-04T00:55:08Z</time>
      </trkpt>
      <trkpt lat="40.600960" lon="-5.440640">
        <ele>1069</ele>
        <time>2022-12-04T00:55:22Z</time>
      </trkpt>
      <trkpt lat="40.600240" lon="-5.441610">
        <ele>1068</ele>
        <time>2022-12-04T00:55:40Z</time>
      </trkpt>
      <trkpt lat="40.599890" lon="-5.442010">
        <ele>1068</ele>
        <time>2022-12-04T00:55:48Z</time>
      </trkpt>
      <trkpt lat="40.599690" lon="-5.442310">
        <ele>1067</ele>
        <time>2022-12-04T00:55:54Z</time>
      </trkpt>
      <trkpt lat="40.599390" lon="-5.442850">
        <ele>1066</ele>
        <time>2022-12-04T00:56:03Z</time>
      </trkpt>
      <trkpt lat="40.598830" lon="-5.443660">
        <ele>1060</ele>
        <time>2022-12-04T00:56:18Z</time>
      </trkpt>
      <trkpt lat="40.598780" lon="-5.443760">
        <ele>1059</ele>
        <time>2022-12-04T00:56:19Z</time>
      </trkpt>
      <trkpt lat="40.598710" lon="-5.443960">
        <ele>1058</ele>
        <time>2022-12-04T00:56:22Z</time>
      </trkpt>
      <trkpt lat="40.598690" lon="-5.444240">
        <ele>1057</ele>
        <time>2022-12-04T00:56:26Z</time>
      </trkpt>
      <trkpt lat="40.598690" lon="-5.444540">
        <ele>1055</ele>
        <time>2022-12-04T00:56:30Z</time>
      </trkpt>
      <trkpt lat="40.598700" lon="-5.444860">
        <ele>1053</ele>
        <time>2022-12-04T00:56:34Z</time>
      </trkpt>
      <trkpt lat="40.598670" lon="-5.444970">
        <ele>1052</ele>
        <time>2022-12-04T00:56:36Z</time>
      </trkpt>
      <trkpt lat="40.598570" lon="-5.445140">
        <ele>1051</ele>
        <time>2022-12-04T00:56:39Z</time>
      </trkpt>
      <trkpt lat="40.598440" lon="-5.445240">
        <ele>1049</ele>
        <time>2022-12-04T00:56:42Z</time>
      </trkpt>
      <trkpt lat="40.596880" lon="-5.446050">
        <ele>1038</ele>
        <time>2022-12-04T00:57:11Z</time>
      </trkpt>
      <trkpt lat="40.595820" lon="-5.446580">
        <ele>1036</ele>
        <time>2022-12-04T00:57:32Z</time>
      </trkpt>
      <trkpt lat="40.595650" lon="-5.446620">
        <ele>1037</ele>
        <time>2022-12-04T00:57:35Z</time>
      </trkpt>
      <trkpt lat="40.595170" lon="-5.446660">
        <ele>1041</ele>
        <time>2022-12-04T00:57:43Z</time>
      </trkpt>
      <trkpt lat="40.595100" lon="-5.446690">
        <ele>1041</ele>
        <time>2022-12-04T00:57:45Z</time>
      </trkpt>
      <trkpt lat="40.593620" lon="-5.447490">
        <ele>1056</ele>
        <time>2022-12-04T00:58:13Z</time>
      </trkpt>
      <trkpt lat="40.593440" lon="-5.447710">
        <ele>1057</ele>
        <time>2022-12-04T00:58:17Z</time>
      </trkpt>
      <trkpt lat="40.593100" lon="-5.447340">
        <ele>1059</ele>
        <time>2022-12-04T00:58:25Z</time>
      </trkpt>
      <trkpt lat="40.593040" lon="-5.447230">
        <ele>1060</ele>
        <time>2022-12-04T00:58:27Z</time>
      </trkpt>
      <trkpt lat="40.593020" lon="-5.447140">
        <ele>1060</ele>
        <time>2022-12-04T00:58:28Z</time>
      </trkpt>
      <trkpt lat="40.593030" lon="-5.446530">
        <ele>1061</ele>
        <time>2022-12-04T00:58:37Z</time>
      </trkpt>
      <trkpt lat="40.593000" lon="-5.446330">
        <ele>1062</ele>
        <time>2022-12-04T00:58:39Z</time>
      </trkpt>
      <trkpt lat="40.592880" lon="-5.445950">
        <ele>1063</ele>
        <time>2022-12-04T00:58:45Z</time>
      </trkpt>
      <trkpt lat="40.592360" lon="-5.443680">
        <ele>1071</ele>
        <time>2022-12-04T00:59:17Z</time>
      </trkpt>
      <trkpt lat="40.592180" lon="-5.443290">
        <ele>1071</ele>
        <time>2022-12-04T00:59:23Z</time>
      </trkpt>
      <trkpt lat="40.592050" lon="-5.442900">
        <ele>1072</ele>
        <time>2022-12-04T00:59:29Z</time>
      </trkpt>
      <trkpt lat="40.591760" lon="-5.441450">
        <ele>1079</ele>
        <time>2022-12-04T00:59:49Z</time>
      </trkpt>
      <trkpt lat="40.591710" lon="-5.441250">
        <ele>1079</ele>
        <time>2022-12-04T00:59:52Z</time>
      </trkpt>
      <trkpt lat="40.591490" lon="-5.440670">
        <ele>1080</ele>
        <time>2022-12-04T01:00:01Z</time>
      </trkpt>
      <trkpt lat="40.591360" lon="-5.440400">
        <ele>1081</ele>
        <time>2022-12-04T01:00:05Z</time>
      </trkpt>
      <trkpt lat="40.591140" lon="-5.440050">
        <ele>1083</ele>
        <time>2022-12-04T01:00:11Z</time>
      </trkpt>
      <trkpt lat="40.590220" lon="-5.438880">
        <ele>1087</ele>
        <time>2022-12-04T01:00:34Z</time>
      </trkpt>
      <trkpt lat="40.589070" lon="-5.437550">
        <ele>1091</ele>
        <time>2022-12-04T01:01:01Z</time>
      </trkpt>
      <trkpt lat="40.588950" lon="-5.437320">
        <ele>1091</ele>
        <time>2022-12-04T01:01:05Z</time>
      </trkpt>
      <trkpt lat="40.588870" lon="-5.437140">
        <ele>1091</ele>
        <time>2022-12-04T01:01:08Z</time>
      </trkpt>
      <trkpt lat="40.588610" lon="-5.436310">
        <ele>1091</ele>
        <time>2022-12-04T01:01:20Z</time>
      </trkpt>
      <trkpt lat="40.588550" lon="-5.436160">
        <ele>1091</ele>
        <time>2022-12-04T01:01:22Z</time>
      </trkpt>
      <trkpt lat="40.588420" lon="-5.435950">
        <ele>1091</ele>
        <time>2022-12-04T01:01:26Z</time>
      </trkpt>
      <trkpt lat="40.587200" lon="-5.434250">
        <ele>1098</ele>
        <time>2022-12-04T01:01:57Z</time>
      </trkpt>
      <trkpt lat="40.587040" lon="-5.434040">
        <ele>1099</ele>
        <time>2022-12-04T01:02:01Z</time>
      </trkpt>
      <trkpt lat="40.586920" lon="-5.433920">
        <ele>1100</ele>
        <time>2022-12-04T01:02:04Z</time>
      </trkpt>
      <trkpt lat="40.586700" lon="-5.433760">
        <ele>1102</ele>
        <time>2022-12-04T01:02:09Z</time>
      </trkpt>
      <trkpt lat="40.585610" lon="-5.433140">
        <ele>1109</ele>
        <time>2022-12-04T01:02:30Z</time>
      </trkpt>
      <trkpt lat="40.583500" lon="-5.432270">
        <ele>1119</ele>
        <time>2022-12-04T01:03:09Z</time>
      </trkpt>
      <trkpt lat="40.583330" lon="-5.432150">
        <ele>1120</ele>
        <time>2022-12-04T01:03:12Z</time>
      </trkpt>
      <trkpt lat="40.583140" lon="-5.431970">
        <ele>1121</ele>
        <time>2022-12-04T01:03:17Z</time>
      </trkpt>
      <trkpt lat="40.582730" lon="-5.431480">
        <ele>1124</ele>
        <time>2022-12-04T01:03:26Z</time>
      </trkpt>
      <trkpt lat="40.582490" lon="-5.431250">
        <ele>1126</ele>
        <time>2022-12-04T01:03:32Z</time>
      </trkpt>
      <trkpt lat="40.582320" lon="-5.431120">
        <ele>1127</ele>
        <time>2022-12-04T01:03:35Z</time>
      </trkpt>
      <trkpt lat="40.581060" lon="-5.430390">
        <ele>1137</ele>
        <time>2022-12-04T01:04:00Z</time>
      </trkpt>
      <trkpt lat="40.580980" lon="-5.430320">
        <ele>1138</ele>
        <time>2022-12-04T01:04:01Z</time>
      </trkpt>
      <trkpt lat="40.580720" lon="-5.430620">
        <ele>1138</ele>
        <time>2022-12-04T01:04:08Z</time>
      </trkpt>
      <trkpt lat="40.580610" lon="-5.430780">
        <ele>1138</ele>
        <time>2022-12-04T01:04:11Z</time>
      </trkpt>
      <trkpt lat="40.580540" lon="-5.430930">
        <ele>1139</ele>
        <time>2022-12-04T01:04:13Z</time>
      </trkpt>
      <trkpt lat="40.580510" lon="-5.431070">
        <ele>1139</ele>
        <time>2022-12-04T01:04:15Z</time>
      </trkpt>
      <trkpt lat="40.580500" lon="-5.431490">
        <ele>1140</ele>
        <time>2022-12-04T01:04:21Z</time>
      </trkpt>
      <trkpt lat="40.580450" lon="-5.431600">
        <ele>1140</ele>
        <time>2022-12-04T01:04:22Z</time>
      </trkpt>
      <trkpt lat="40.580350" lon="-5.431750">
        <ele>1142</ele>
        <time>2022-12-04T01:04:25Z</time>
      </trkpt>
      <trkpt lat="40.579880" lon="-5.432090">
        <ele>1146</ele>
        <time>2022-12-04T01:04:35Z</time>
      </trkpt>
      <trkpt lat="40.579590" lon="-5.432260">
        <ele>1149</ele>
        <time>2022-12-04T01:04:40Z</time>
      </trkpt>
      <trkpt lat="40.579130" lon="-5.432460">
        <ele>1152</ele>
        <time>2022-12-04T01:04:49Z</time>
      </trkpt>
      <trkpt lat="40.578900" lon="-5.432770">
        <ele>1152</ele>
        <time>2022-12-04T01:04:55Z</time>
      </trkpt>
      <trkpt lat="40.578800" lon="-5.432850">
        <ele>1152</ele>
        <time>2022-12-04T01:04:57Z</time>
      </trkpt>
      <trkpt lat="40.578610" lon="-5.432930">
        <ele>1152</ele>
        <time>2022-12-04T01:05:00Z</time>
      </trkpt>
      <trkpt lat="40.578450" lon="-5.432950">
        <ele>1153</ele>
        <time>2022-12-04T01:05:03Z</time>
      </trkpt>
      <trkpt lat="40.578240" lon="-5.432930">
        <ele>1154</ele>
        <time>2022-12-04T01:05:07Z</time>
      </trkpt>
      <trkpt lat="40.577430" lon="-5.432770">
        <ele>1158</ele>
        <time>2022-12-04T01:05:21Z</time>
      </trkpt>
      <trkpt lat="40.577230" lon="-5.432760">
        <ele>1159</ele>
        <time>2022-12-04T01:05:25Z</time>
      </trkpt>
      <trkpt lat="40.577050" lon="-5.432780">
        <ele>1160</ele>
        <time>2022-12-04T01:05:28Z</time>
      </trkpt>
      <trkpt lat="40.576220" lon="-5.432970">
        <ele>1165</ele>
        <time>2022-12-04T01:05:43Z</time>
      </trkpt>
      <trkpt lat="40.576070" lon="-5.432950">
        <ele>1166</ele>
        <time>2022-12-04T01:05:46Z</time>
      </trkpt>
      <trkpt lat="40.575250" lon="-5.433690">
        <ele>1170</ele>
        <time>2022-12-04T01:06:04Z</time>
      </trkpt>
      <trkpt lat="40.575130" lon="-5.433720">
        <ele>1171</ele>
        <time>2022-12-04T01:06:06Z</time>
      </trkpt>
      <trkpt lat="40.573800" lon="-5.434840">
        <ele>1172</ele>
        <time>2022-12-04T01:06:34Z</time>
      </trkpt>
      <trkpt lat="40.573290" lon="-5.435240">
        <ele>1171</ele>
        <time>2022-12-04T01:06:44Z</time>
      </trkpt>
      <trkpt lat="40.572680" lon="-5.435590">
        <ele>1175</ele>
        <time>2022-12-04T01:06:56Z</time>
      </trkpt>
      <trkpt lat="40.572490" lon="-5.435640">
        <ele>1176</ele>
        <time>2022-12-04T01:07:00Z</time>
      </trkpt>
      <trkpt lat="40.572300" lon="-5.435680">
        <ele>1178</ele>
        <time>2022-12-04T01:07:03Z</time>
      </trkpt>
      <trkpt lat="40.571380" lon="-5.435770">
        <ele>1183</ele>
        <time>2022-12-04T01:07:20Z</time>
      </trkpt>
      <trkpt lat="40.570590" lon="-5.435540">
        <ele>1190</ele>
        <time>2022-12-04T01:07:34Z</time>
      </trkpt>
      <trkpt lat="40.569750" lon="-5.435230">
        <ele>1194</ele>
        <time>2022-12-04T01:07:49Z</time>
      </trkpt>
      <trkpt lat="40.569480" lon="-5.435150">
        <ele>1196</ele>
        <time>2022-12-04T01:07:54Z</time>
      </trkpt>
      <trkpt lat="40.569340" lon="-5.435130">
        <ele>1197</ele>
        <time>2022-12-04T01:07:57Z</time>
      </trkpt>
      <trkpt lat="40.569220" lon="-5.435140">
        <ele>1198</ele>
        <time>2022-12-04T01:07:59Z</time>
      </trkpt>
      <trkpt lat="40.568330" lon="-5.435420">
        <ele>1204</ele>
        <time>2022-12-04T01:08:15Z</time>
      </trkpt>
      <trkpt lat="40.568190" lon="-5.435430">
        <ele>1205</ele>
        <time>2022-12-04T01:08:18Z</time>
      </trkpt>
      <trkpt lat="40.568050" lon="-5.435420">
        <ele>1206</ele>
        <time>2022-12-04T01:08:20Z</time>
      </trkpt>
      <trkpt lat="40.567950" lon="-5.435370">
        <ele>1207</ele>
        <time>2022-12-04T01:08:22Z</time>
      </trkpt>
      <trkpt lat="40.567670" lon="-5.435180">
        <ele>1211</ele>
        <time>2022-12-04T01:08:28Z</time>
      </trkpt>
      <trkpt lat="40.567520" lon="-5.435120">
        <ele>1212</ele>
        <time>2022-12-04T01:08:31Z</time>
      </trkpt>
      <trkpt lat="40.567410" lon="-5.435120">
        <ele>1213</ele>
        <time>2022-12-04T01:08:33Z</time>
      </trkpt>
      <trkpt lat="40.567300" lon="-5.435170">
        <ele>1214</ele>
        <time>2022-12-04T01:08:35Z</time>
      </trkpt>
      <trkpt lat="40.566940" lon="-5.435380">
        <ele>1217</ele>
        <time>2022-12-04T01:08:42Z</time>
      </trkpt>
      <trkpt lat="40.566250" lon="-5.435620">
        <ele>1222</ele>
        <time>2022-12-04T01:08:54Z</time>
      </trkpt>
      <trkpt lat="40.565360" lon="-5.435900">
        <ele>1223</ele>
        <time>2022-12-04T01:09:11Z</time>
      </trkpt>
      <trkpt lat="40.563970" lon="-5.436750">
        <ele>1214</ele>
        <time>2022-12-04T01:09:38Z</time>
      </trkpt>
      <trkpt lat="40.563810" lon="-5.436830">
        <ele>1213</ele>
        <time>2022-12-04T01:09:41Z</time>
      </trkpt>
      <trkpt lat="40.562970" lon="-5.436990">
        <ele>1206</ele>
        <time>2022-12-04T01:09:56Z</time>
      </trkpt>
      <trkpt lat="40.562870" lon="-5.437050">
        <ele>1205</ele>
        <time>2022-12-04T01:09:58Z</time>
      </trkpt>
      <trkpt lat="40.562660" lon="-5.437230">
        <ele>1204</ele>
        <time>2022-12-04T01:10:02Z</time>
      </trkpt>
      <trkpt lat="40.561440" lon="-5.439120">
        <ele>1191</ele>
        <time>2022-12-04T01:10:36Z</time>
      </trkpt>
      <trkpt lat="40.561340" lon="-5.439240">
        <ele>1190</ele>
        <time>2022-12-04T01:10:38Z</time>
      </trkpt>
      <trkpt lat="40.561240" lon="-5.439310">
        <ele>1189</ele>
        <time>2022-12-04T01:10:40Z</time>
      </trkpt>
      <trkpt lat="40.561120" lon="-5.439370">
        <ele>1188</ele>
        <time>2022-12-04T01:10:43Z</time>
      </trkpt>
      <trkpt lat="40.558570" lon="-5.440170">
        <ele>1180</ele>
        <time>2022-12-04T01:11:29Z</time>
      </trkpt>
      <trkpt lat="40.555020" lon="-5.440800">
        <ele>1163</ele>
        <time>2022-12-04T01:12:33Z</time>
      </trkpt>
      <trkpt lat="40.554480" lon="-5.441010">
        <ele>1160</ele>
        <time>2022-12-04T01:12:43Z</time>
      </trkpt>
      <trkpt lat="40.554190" lon="-5.441190">
        <ele>1158</ele>
        <time>2022-12-04T01:12:49Z</time>
      </trkpt>
      <trkpt lat="40.553870" lon="-5.441480">
        <ele>1155</ele>
        <time>2022-12-04T01:12:56Z</time>
      </trkpt>
      <trkpt lat="40.553740" lon="-5.441560">
        <ele>1154</ele>
        <time>2022-12-04T01:12:58Z</time>
      </trkpt>
      <trkpt lat="40.553540" lon="-5.441670">
        <ele>1153</ele>
        <time>2022-12-04T01:13:02Z</time>
      </trkpt>
      <trkpt lat="40.552670" lon="-5.442030">
        <ele>1146</ele>
        <time>2022-12-04T01:13:18Z</time>
      </trkpt>
      <trkpt lat="40.552070" lon="-5.442460">
        <ele>1142</ele>
        <time>2022-12-04T01:13:31Z</time>
      </trkpt>
      <trkpt lat="40.551960" lon="-5.442520">
        <ele>1141</ele>
        <time>2022-12-04T01:13:33Z</time>
      </trkpt>
      <trkpt lat="40.551830" lon="-5.442550">
        <ele>1140</ele>
        <time>2022-12-04T01:13:35Z</time>
      </trkpt>
      <trkpt lat="40.551500" lon="-5.442550">
        <ele>1138</ele>
        <time>2022-12-04T01:13:41Z</time>
      </trkpt>
      <trkpt lat="40.551420" lon="-5.442570">
        <ele>1138</ele>
        <time>2022-12-04T01:13:42Z</time>
      </trkpt>
      <trkpt lat="40.551340" lon="-5.442630">
        <ele>1138</ele>
        <time>2022-12-04T01:13:44Z</time>
      </trkpt>
      <trkpt lat="40.551200" lon="-5.442790">
        <ele>1137</ele>
        <time>2022-12-04T01:13:47Z</time>
      </trkpt>
      <trkpt lat="40.551090" lon="-5.442880">
        <ele>1136</ele>
        <time>2022-12-04T01:13:50Z</time>
      </trkpt>
      <trkpt lat="40.550030" lon="-5.443400">
        <ele>1129</ele>
        <time>2022-12-04T01:14:10Z</time>
      </trkpt>
      <trkpt lat="40.549720" lon="-5.443580">
        <ele>1128</ele>
        <time>2022-12-04T01:14:16Z</time>
      </trkpt>
      <trkpt lat="40.549510" lon="-5.443760">
        <ele>1128</ele>
        <time>2022-12-04T01:14:20Z</time>
      </trkpt>
      <trkpt lat="40.548980" lon="-5.444430">
        <ele>1125</ele>
        <time>2022-12-04T01:14:33Z</time>
      </trkpt>
      <trkpt lat="40.548870" lon="-5.444540">
        <ele>1125</ele>
        <time>2022-12-04T01:14:36Z</time>
      </trkpt>
      <trkpt lat="40.547740" lon="-5.445310">
        <ele>1121</ele>
        <time>2022-12-04T01:14:58Z</time>
      </trkpt>
      <trkpt lat="40.547660" lon="-5.445390">
        <ele>1120</ele>
        <time>2022-12-04T01:15:00Z</time>
      </trkpt>
      <trkpt lat="40.547450" lon="-5.445660">
        <ele>1120</ele>
        <time>2022-12-04T01:15:05Z</time>
      </trkpt>
      <trkpt lat="40.546900" lon="-5.446130">
        <ele>1119</ele>
        <time>2022-12-04T01:15:17Z</time>
      </trkpt>
      <trkpt lat="40.546490" lon="-5.446550">
        <ele>1117</ele>
        <time>2022-12-04T01:15:26Z</time>
      </trkpt>
      <trkpt lat="40.546210" lon="-5.446920">
        <ele>1115</ele>
        <time>2022-12-04T01:15:33Z</time>
      </trkpt>
      <trkpt lat="40.546030" lon="-5.447090">
        <ele>1114</ele>
        <time>2022-12-04T01:15:37Z</time>
      </trkpt>
      <trkpt lat="40.545810" lon="-5.447260">
        <ele>1113</ele>
        <time>2022-12-04T01:15:42Z</time>
      </trkpt>
      <trkpt lat="40.545500" lon="-5.447450">
        <ele>1111</ele>
        <time>2022-12-04T01:15:48Z</time>
      </trkpt>
      <trkpt lat="40.545350" lon="-5.447520">
        <ele>1110</ele>
        <time>2022-12-04T01:15:51Z</time>
      </trkpt>
      <trkpt lat="40.545220" lon="-5.447560">
        <ele>1110</ele>
        <time>2022-12-04T01:15:53Z</time>
      </trkpt>
      <trkpt lat="40.544280" lon="-5.447670">
        <ele>1107</ele>
        <time>2022-12-04T01:16:10Z</time>
      </trkpt>
      <trkpt lat="40.544060" lon="-5.447700">
        <ele>1106</ele>
        <time>2022-12-04T01:16:14Z</time>
      </trkpt>
      <trkpt lat="40.543520" lon="-5.447760">
        <ele>1106</ele>
        <time>2022-12-04T01:16:23Z</time>
      </trkpt>
      <trkpt lat="40.543400" lon="-5.447800">
        <ele>1106</ele>
        <time>2022-12-04T01:16:26Z</time>
      </trkpt>
      <trkpt lat="40.543300" lon="-5.447860">
        <ele>1107</ele>
        <time>2022-12-04T01:16:28Z</time>
      </trkpt>
      <trkpt lat="40.543210" lon="-5.447930">
        <ele>1107</ele>
        <time>2022-12-04T01:16:29Z</time>
      </trkpt>
      <trkpt lat="40.542430" lon="-5.448780">
        <ele>1110</ele>
        <time>2022-12-04T01:16:47Z</time>
      </trkpt>
      <trkpt lat="40.542290" lon="-5.448910">
        <ele>1110</ele>
        <time>2022-12-04T01:16:51Z</time>
      </trkpt>
      <trkpt lat="40.542140" lon="-5.449000">
        <ele>1110</ele>
        <time>2022-12-04T01:16:53Z</time>
      </trkpt>
      <trkpt lat="40.541560" lon="-5.449220">
        <ele>1110</ele>
        <time>2022-12-04T01:17:04Z</time>
      </trkpt>
      <trkpt lat="40.541330" lon="-5.449280">
        <ele>1110</ele>
        <time>2022-12-04T01:17:08Z</time>
      </trkpt>
      <trkpt lat="40.539980" lon="-5.449460">
        <ele>1110</ele>
        <time>2022-12-04T01:17:33Z</time>
      </trkpt>
      <trkpt lat="40.539860" lon="-5.449490">
        <ele>1110</ele>
        <time>2022-12-04T01:17:35Z</time>
      </trkpt>
      <trkpt lat="40.539500" lon="-5.449650">
        <ele>1111</ele>
        <time>2022-12-04T01:17:41Z</time>
      </trkpt>
      <trkpt lat="40.539420" lon="-5.449660">
        <ele>1111</ele>
        <time>2022-12-04T01:17:43Z</time>
      </trkpt>
      <trkpt lat="40.538290" lon="-5.449200">
        <ele>1110</ele>
        <time>2022-12-04T01:18:04Z</time>
      </trkpt>
      <trkpt lat="40.538210" lon="-5.449140">
        <ele>1110</ele>
        <time>2022-12-04T01:18:06Z</time>
      </trkpt>
      <trkpt lat="40.538170" lon="-5.449100">
        <ele>1110</ele>
        <time>2022-12-04T01:18:06Z</time>
      </trkpt>
      <trkpt lat="40.537750" lon="-5.448510">
        <ele>1110</ele>
        <time>2022-12-04T01:18:17Z</time>
      </trkpt>
      <trkpt lat="40.537300" lon="-5.448020">
        <ele>1110</ele>
        <time>2022-12-04T01:18:28Z</time>
      </trkpt>
      <trkpt lat="40.537240" lon="-5.447970">
        <ele>1110</ele>
        <time>2022-12-04T01:18:29Z</time>
      </trkpt>
      <trkpt lat="40.537160" lon="-5.447940">
        <ele>1110</ele>
        <time>2022-12-04T01:18:31Z</time>
      </trkpt>
      <trkpt lat="40.537090" lon="-5.447880">
        <ele>1110</ele>
        <time>2022-12-04T01:18:32Z</time>
      </trkpt>
      <trkpt lat="40.537000" lon="-5.447610">
        <ele>1110</ele>
        <time>2022-12-04T01:18:36Z</time>
      </trkpt>
      <trkpt lat="40.536950" lon="-5.447520">
        <ele>1110</ele>
        <time>2022-12-04T01:18:38Z</time>
      </trkpt>
      <trkpt lat="40.536710" lon="-5.447290">
        <ele>1110</ele>
        <time>2022-12-04T01:18:43Z</time>
      </trkpt>
      <trkpt lat="40.536500" lon="-5.447020">
        <ele>1111</ele>
        <time>2022-12-04T01:18:48Z</time>
      </trkpt>
      <trkpt lat="40.536390" lon="-5.446850">
        <ele>1112</ele>
        <time>2022-12-04T01:18:51Z</time>
      </trkpt>
      <trkpt lat="40.536320" lon="-5.446730">
        <ele>1112</ele>
        <time>2022-12-04T01:18:53Z</time>
      </trkpt>
      <trkpt lat="40.536230" lon="-5.446610">
        <ele>1113</ele>
        <time>2022-12-04T01:18:55Z</time>
      </trkpt>
      <trkpt lat="40.536170" lon="-5.446590">
        <ele>1114</ele>
        <time>2022-12-04T01:18:56Z</time>
      </trkpt>
      <trkpt lat="40.536120" lon="-5.446580">
        <ele>1115</ele>
        <time>2022-12-04T01:18:57Z</time>
      </trkpt>
      <trkpt lat="40.536050" lon="-5.446610">
        <ele>1115</ele>
        <time>2022-12-04T01:18:59Z</time>
      </trkpt>
      <trkpt lat="40.535580" lon="-5.447000">
        <ele>1115</ele>
        <time>2022-12-04T01:19:09Z</time>
      </trkpt>
      <trkpt lat="40.535490" lon="-5.447040">
        <ele>1115</ele>
        <time>2022-12-04T01:19:10Z</time>
      </trkpt>
      <trkpt lat="40.535430" lon="-5.447050">
        <ele>1115</ele>
        <time>2022-12-04T01:19:11Z</time>
      </trkpt>
      <trkpt lat="40.534630" lon="-5.448030">
        <ele>1113</ele>
        <time>2022-12-04T01:19:31Z</time>
      </trkpt>
      <trkpt lat="40.534560" lon="-5.448150">
        <ele>1114</ele>
        <time>2022-12-04T01:19:33Z</time>
      </trkpt>
      <trkpt lat="40.534520" lon="-5.448300">
        <ele>1113</ele>
        <time>2022-12-04T01:19:35Z</time>
      </trkpt>
      <trkpt lat="40.534510" lon="-5.448450">
        <ele>1113</ele>
        <time>2022-12-04T01:19:37Z</time>
      </trkpt>
      <trkpt lat="40.534550" lon="-5.449770">
        <ele>1114</ele>
        <time>2022-12-04T01:19:55Z</time>
      </trkpt>
      <trkpt lat="40.534550" lon="-5.450110">
        <ele>1114</ele>
        <time>2022-12-04T01:19:59Z</time>
      </trkpt>
      <trkpt lat="40.534530" lon="-5.450280">
        <ele>1114</ele>
        <time>2022-12-04T01:20:02Z</time>
      </trkpt>
      <trkpt lat="40.534440" lon="-5.450670">
        <ele>1114</ele>
        <time>2022-12-04T01:20:07Z</time>
      </trkpt>
      <trkpt lat="40.534230" lon="-5.451200">
        <ele>1117</ele>
        <time>2022-12-04T01:20:15Z</time>
      </trkpt>
      <trkpt lat="40.534190" lon="-5.451370">
        <ele>1118</ele>
        <time>2022-12-04T01:20:18Z</time>
      </trkpt>
      <trkpt lat="40.534190" lon="-5.451500">
        <ele>1118</ele>
        <time>2022-12-04T01:20:20Z</time>
      </trkpt>
      <trkpt lat="40.534230" lon="-5.451770">
        <ele>1117</ele>
        <time>2022-12-04T01:20:23Z</time>
      </trkpt>
      <trkpt lat="40.534420" lon="-5.452410">
        <ele>1116</ele>
        <time>2022-12-04T01:20:33Z</time>
      </trkpt>
      <trkpt lat="40.534450" lon="-5.452610">
        <ele>1116</ele>
        <time>2022-12-04T01:20:35Z</time>
      </trkpt>
      <trkpt lat="40.534460" lon="-5.452790">
        <ele>1116</ele>
        <time>2022-12-04T01:20:38Z</time>
      </trkpt>
      <trkpt lat="40.534250" lon="-5.455530">
        <ele>1117</ele>
        <time>2022-12-04T01:21:15Z</time>
      </trkpt>
      <trkpt lat="40.534210" lon="-5.455730">
        <ele>1117</ele>
        <time>2022-12-04T01:21:18Z</time>
      </trkpt>
      <trkpt lat="40.533920" lon="-5.456760">
        <ele>1115</ele>
        <time>2022-12-04T01:21:33Z</time>
      </trkpt>
      <trkpt lat="40.533890" lon="-5.456920">
        <ele>1115</ele>
        <time>2022-12-04T01:21:35Z</time>
      </trkpt>
      <trkpt lat="40.533880" lon="-5.457090">
        <ele>1115</ele>
        <time>2022-12-04T01:21:37Z</time>
      </trkpt>
      <trkpt lat="40.533890" lon="-5.457350">
        <ele>1115</ele>
        <time>2022-12-04T01:21:41Z</time>
      </trkpt>
      <trkpt lat="40.534120" lon="-5.458740">
        <ele>1111</ele>
        <time>2022-12-04T01:22:00Z</time>
      </trkpt>
      <trkpt lat="40.534100" lon="-5.459160">
        <ele>1111</ele>
        <time>2022-12-04T01:22:06Z</time>
      </trkpt>
      <trkpt lat="40.534050" lon="-5.459410">
        <ele>1110</ele>
        <time>2022-12-04T01:22:09Z</time>
      </trkpt>
      <trkpt lat="40.533900" lon="-5.459760">
        <ele>1109</ele>
        <time>2022-12-04T01:22:15Z</time>
      </trkpt>
      <trkpt lat="40.533390" lon="-5.460580">
        <ele>1104</ele>
        <time>2022-12-04T01:22:29Z</time>
      </trkpt>
      <trkpt lat="40.533270" lon="-5.460820">
        <ele>1103</ele>
        <time>2022-12-04T01:22:33Z</time>
      </trkpt>
      <trkpt lat="40.533190" lon="-5.461050">
        <ele>1103</ele>
        <time>2022-12-04T01:22:36Z</time>
      </trkpt>
      <trkpt lat="40.533160" lon="-5.461330">
        <ele>1102</ele>
        <time>2022-12-04T01:22:40Z</time>
      </trkpt>
      <trkpt lat="40.532890" lon="-5.465440">
        <ele>1090</ele>
        <time>2022-12-04T01:23:36Z</time>
      </trkpt>
      <trkpt lat="40.532890" lon="-5.465750">
        <ele>1090</ele>
        <time>2022-12-04T01:23:40Z</time>
      </trkpt>
      <trkpt lat="40.533130" lon="-5.468260">
        <ele>1086</ele>
        <time>2022-12-04T01:24:14Z</time>
      </trkpt>
      <trkpt lat="40.533130" lon="-5.468800">
        <ele>1085</ele>
        <time>2022-12-04T01:24:22Z</time>
      </trkpt>
      <trkpt lat="40.533080" lon="-5.469390">
        <ele>1084</ele>
        <time>2022-12-04T01:24:30Z</time>
      </trkpt>
      <trkpt lat="40.532700" lon="-5.471870">
        <ele>1079</ele>
        <time>2022-12-04T01:25:04Z</time>
      </trkpt>
      <trkpt lat="40.532640" lon="-5.472090">
        <ele>1078</ele>
        <time>2022-12-04T01:25:07Z</time>
      </trkpt>
      <trkpt lat="40.532570" lon="-5.472320">
        <ele>1077</ele>
        <time>2022-12-04T01:25:10Z</time>
      </trkpt>
      <trkpt lat="40.531350" lon="-5.475780">
        <ele>1066</ele>
        <time>2022-12-04T01:26:02Z</time>
      </trkpt>
      <trkpt lat="40.531200" lon="-5.476390">
        <ele>1063</ele>
        <time>2022-12-04T01:26:11Z</time>
      </trkpt>
      <trkpt lat="40.530970" lon="-5.477880">
        <ele>1058</ele>
        <time>2022-12-04T01:26:31Z</time>
      </trkpt>
      <trkpt lat="40.530930" lon="-5.478090">
        <ele>1057</ele>
        <time>2022-12-04T01:26:34Z</time>
      </trkpt>
      <trkpt lat="40.530840" lon="-5.478310">
        <ele>1057</ele>
        <time>2022-12-04T01:26:37Z</time>
      </trkpt>
      <trkpt lat="40.530680" lon="-5.478520">
        <ele>1056</ele>
        <time>2022-12-04T01:26:41Z</time>
      </trkpt>
      <trkpt lat="40.530590" lon="-5.478600">
        <ele>1055</ele>
        <time>2022-12-04T01:26:43Z</time>
      </trkpt>
      <trkpt lat="40.529620" lon="-5.479100">
        <ele>1050</ele>
        <time>2022-12-04T01:27:02Z</time>
      </trkpt>
      <trkpt lat="40.529390" lon="-5.479260">
        <ele>1049</ele>
        <time>2022-12-04T01:27:07Z</time>
      </trkpt>
      <trkpt lat="40.529270" lon="-5.479430">
        <ele>1048</ele>
        <time>2022-12-04T01:27:10Z</time>
      </trkpt>
      <trkpt lat="40.529160" lon="-5.479680">
        <ele>1047</ele>
        <time>2022-12-04T01:27:14Z</time>
      </trkpt>
      <trkpt lat="40.529020" lon="-5.480150">
        <ele>1047</ele>
        <time>2022-12-04T01:27:20Z</time>
      </trkpt>
      <trkpt lat="40.528210" lon="-5.483060">
        <ele>1043</ele>
        <time>2022-12-04T01:28:02Z</time>
      </trkpt>
      <trkpt lat="40.528140" lon="-5.483290">
        <ele>1042</ele>
        <time>2022-12-04T01:28:06Z</time>
      </trkpt>
      <trkpt lat="40.528080" lon="-5.483450">
        <ele>1042</ele>
        <time>2022-12-04T01:28:08Z</time>
      </trkpt>
      <trkpt lat="40.527920" lon="-5.483690">
        <ele>1041</ele>
        <time>2022-12-04T01:28:12Z</time>
      </trkpt>
      <trkpt lat="40.527850" lon="-5.483770">
        <ele>1041</ele>
        <time>2022-12-04T01:28:14Z</time>
      </trkpt>
      <trkpt lat="40.527350" lon="-5.484200">
        <ele>1040</ele>
        <time>2022-12-04T01:28:25Z</time>
      </trkpt>
      <trkpt lat="40.527240" lon="-5.484320">
        <ele>1040</ele>
        <time>2022-12-04T01:28:27Z</time>
      </trkpt>
      <trkpt lat="40.527170" lon="-5.484410">
        <ele>1040</ele>
        <time>2022-12-04T01:28:29Z</time>
      </trkpt>
      <trkpt lat="40.527110" lon="-5.484550">
        <ele>1040</ele>
        <time>2022-12-04T01:28:31Z</time>
      </trkpt>
      <trkpt lat="40.527070" lon="-5.484680">
        <ele>1039</ele>
        <time>2022-12-04T01:28:33Z</time>
      </trkpt>
      <trkpt lat="40.526950" lon="-5.485220">
        <ele>1037</ele>
        <time>2022-12-04T01:28:41Z</time>
      </trkpt>
      <trkpt lat="40.526920" lon="-5.485320">
        <ele>1036</ele>
        <time>2022-12-04T01:28:42Z</time>
      </trkpt>
      <trkpt lat="40.526820" lon="-5.485460">
        <ele>1036</ele>
        <time>2022-12-04T01:28:45Z</time>
      </trkpt>
      <trkpt lat="40.526690" lon="-5.485580">
        <ele>1036</ele>
        <time>2022-12-04T01:28:47Z</time>
      </trkpt>
      <trkpt lat="40.525690" lon="-5.486360">
        <ele>1032</ele>
        <time>2022-12-04T01:29:08Z</time>
      </trkpt>
      <trkpt lat="40.525590" lon="-5.486470">
        <ele>1031</ele>
        <time>2022-12-04T01:29:10Z</time>
      </trkpt>
      <trkpt lat="40.525490" lon="-5.486670">
        <ele>1029</ele>
        <time>2022-12-04T01:29:14Z</time>
      </trkpt>
      <trkpt lat="40.525450" lon="-5.486770">
        <ele>1029</ele>
        <time>2022-12-04T01:29:15Z</time>
      </trkpt>
      <trkpt lat="40.524940" lon="-5.489270">
        <ele>1020</ele>
        <time>2022-12-04T01:29:50Z</time>
      </trkpt>
      <trkpt lat="40.524890" lon="-5.489470">
        <ele>1019</ele>
        <time>2022-12-04T01:29:53Z</time>
      </trkpt>
      <trkpt lat="40.524790" lon="-5.489770">
        <ele>1018</ele>
        <time>2022-12-04T01:29:58Z</time>
      </trkpt>
      <trkpt lat="40.523670" lon="-5.492470">
        <ele>1010</ele>
        <time>2022-12-04T01:30:39Z</time>
      </trkpt>
      <trkpt lat="40.523500" lon="-5.492930">
        <ele>1009</ele>
        <time>2022-12-04T01:30:46Z</time>
      </trkpt>
      <trkpt lat="40.523470" lon="-5.493080">
        <ele>1008</ele>
        <time>2022-12-04T01:30:48Z</time>
      </trkpt>
      <trkpt lat="40.523460" lon="-5.493230">
        <ele>1007</ele>
        <time>2022-12-04T01:30:50Z</time>
      </trkpt>
      <trkpt lat="40.523370" lon="-5.493260">
        <ele>1007</ele>
        <time>2022-12-04T01:30:52Z</time>
      </trkpt>
      <trkpt lat="40.523040" lon="-5.493440">
        <ele>1008</ele>
        <time>2022-12-04T01:30:58Z</time>
      </trkpt>
      <trkpt lat="40.522950" lon="-5.493530">
        <ele>1008</ele>
        <time>2022-12-04T01:31:00Z</time>
      </trkpt>
      <trkpt lat="40.522870" lon="-5.493740">
        <ele>1007</ele>
        <time>2022-12-04T01:31:03Z</time>
      </trkpt>
      <trkpt lat="40.522570" lon="-5.494710">
        <ele>1006</ele>
        <time>2022-12-04T01:31:18Z</time>
      </trkpt>
      <trkpt lat="40.522430" lon="-5.494950">
        <ele>1006</ele>
        <time>2022-12-04T01:31:22Z</time>
      </trkpt>
      <trkpt lat="40.522320" lon="-5.495030">
        <ele>1006</ele>
        <time>2022-12-04T01:31:24Z</time>
      </trkpt>
      <trkpt lat="40.522050" lon="-5.495110">
        <ele>1006</ele>
        <time>2022-12-04T01:31:29Z</time>
      </trkpt>
      <trkpt lat="40.521860" lon="-5.495190">
        <ele>1006</ele>
        <time>2022-12-04T01:31:32Z</time>
      </trkpt>
      <trkpt lat="40.521770" lon="-5.495240">
        <ele>1006</ele>
        <time>2022-12-04T01:31:34Z</time>
      </trkpt>
      <trkpt lat="40.520920" lon="-5.496050">
        <ele>1000</ele>
        <time>2022-12-04T01:31:53Z</time>
      </trkpt>
      <trkpt lat="40.520240" lon="-5.496840">
        <ele>997</ele>
        <time>2022-12-04T01:32:09Z</time>
      </trkpt>
      <trkpt lat="40.519750" lon="-5.497240">
        <ele>996</ele>
        <time>2022-12-04T01:32:19Z</time>
      </trkpt>
      <trkpt lat="40.519320" lon="-5.497560">
        <ele>996</ele>
        <time>2022-12-04T01:32:28Z</time>
      </trkpt>
      <trkpt lat="40.519240" lon="-5.497650">
        <ele>996</ele>
        <time>2022-12-04T01:32:30Z</time>
      </trkpt>
      <trkpt lat="40.518330" lon="-5.499270">
        <ele>994</ele>
        <time>2022-12-04T01:32:57Z</time>
      </trkpt>
      <trkpt lat="40.518190" lon="-5.499490">
        <ele>994</ele>
        <time>2022-12-04T01:33:01Z</time>
      </trkpt>
      <trkpt lat="40.518100" lon="-5.499600">
        <ele>994</ele>
        <time>2022-12-04T01:33:03Z</time>
      </trkpt>
      <trkpt lat="40.517870" lon="-5.499790">
        <ele>995</ele>
        <time>2022-12-04T01:33:08Z</time>
      </trkpt>
      <trkpt lat="40.517150" lon="-5.500190">
        <ele>997</ele>
        <time>2022-12-04T01:33:22Z</time>
      </trkpt>
      <trkpt lat="40.516860" lon="-5.500320">
        <ele>997</ele>
        <time>2022-12-04T01:33:27Z</time>
      </trkpt>
      <trkpt lat="40.516560" lon="-5.500390">
        <ele>996</ele>
        <time>2022-12-04T01:33:33Z</time>
      </trkpt>
      <trkpt lat="40.515820" lon="-5.500440">
        <ele>994</ele>
        <time>2022-12-04T01:33:46Z</time>
      </trkpt>
      <trkpt lat="40.515560" lon="-5.500500">
        <ele>995</ele>
        <time>2022-12-04T01:33:51Z</time>
      </trkpt>
      <trkpt lat="40.515290" lon="-5.500600">
        <ele>996</ele>
        <time>2022-12-04T01:33:56Z</time>
      </trkpt>
      <trkpt lat="40.514700" lon="-5.500950">
        <ele>995</ele>
        <time>2022-12-04T01:34:07Z</time>
      </trkpt>
      <trkpt lat="40.514220" lon="-5.501200">
        <ele>996</ele>
        <time>2022-12-04T01:34:16Z</time>
      </trkpt>
      <trkpt lat="40.514010" lon="-5.501260">
        <ele>997</ele>
        <time>2022-12-04T01:34:20Z</time>
      </trkpt>
      <trkpt lat="40.513710" lon="-5.501310">
        <ele>997</ele>
        <time>2022-12-04T01:34:26Z</time>
      </trkpt>
      <trkpt lat="40.512870" lon="-5.501400">
        <ele>994</ele>
        <time>2022-12-04T01:34:41Z</time>
      </trkpt>
      <trkpt lat="40.512580" lon="-5.501490">
        <ele>993</ele>
        <time>2022-12-04T01:34:46Z</time>
      </trkpt>
      <trkpt lat="40.511530" lon="-5.502040">
        <ele>984</ele>
        <time>2022-12-04T01:35:06Z</time>
      </trkpt>
      <trkpt lat="40.511210" lon="-5.502270">
        <ele>984</ele>
        <time>2022-12-04T01:35:12Z</time>
      </trkpt>
      <trkpt lat="40.510870" lon="-5.502570">
        <ele>983</ele>
        <time>2022-12-04T01:35:20Z</time>
      </trkpt>
      <trkpt lat="40.509980" lon="-5.503440">
        <ele>984</ele>
        <time>2022-12-04T01:35:39Z</time>
      </trkpt>
      <trkpt lat="40.508910" lon="-5.504780">
        <ele>988</ele>
        <time>2022-12-04T01:36:06Z</time>
      </trkpt>
      <trkpt lat="40.508730" lon="-5.504980">
        <ele>987</ele>
        <time>2022-12-04T01:36:10Z</time>
      </trkpt>
      <trkpt lat="40.508660" lon="-5.504950">
        <ele>988</ele>
        <time>2022-12-04T01:36:11Z</time>
      </trkpt>
      <trkpt lat="40.508510" lon="-5.504960">
        <ele>989</ele>
        <time>2022-12-04T01:36:14Z</time>
      </trkpt>
      <trkpt lat="40.508660" lon="-5.504950">
        <ele>988</ele>
        <time>2022-12-04T01:36:17Z</time>
      </trkpt>
      <trkpt lat="40.508730" lon="-5.504980">
        <ele>987</ele>
        <time>2022-12-04T01:36:18Z</time>
      </trkpt>
      <trkpt lat="40.508580" lon="-5.505190">
        <ele>988</ele>
        <time>2022-12-04T01:36:22Z</time>
      </trkpt>
      <trkpt lat="40.507180" lon="-5.506930">
        <ele>994</ele>
        <time>2022-12-04T01:36:56Z</time>
      </trkpt>
      <trkpt lat="40.506920" lon="-5.507200">
        <ele>994</ele>
        <time>2022-12-04T01:37:02Z</time>
      </trkpt>
      <trkpt lat="40.506700" lon="-5.507350">
        <ele>994</ele>
        <time>2022-12-04T01:37:06Z</time>
      </trkpt>
      <trkpt lat="40.505670" lon="-5.507840">
        <ele>984</ele>
        <time>2022-12-04T01:37:26Z</time>
      </trkpt>
      <trkpt lat="40.505260" lon="-5.508080">
        <ele>981</ele>
        <time>2022-12-04T01:37:34Z</time>
      </trkpt>
      <trkpt lat="40.504670" lon="-5.508540">
        <ele>976</ele>
        <time>2022-12-04T01:37:46Z</time>
      </trkpt>
      <trkpt lat="40.503400" lon="-5.509700">
        <ele>967</ele>
        <time>2022-12-04T01:38:14Z</time>
      </trkpt>
      <trkpt lat="40.503070" lon="-5.510080">
        <ele>966</ele>
        <time>2022-12-04T01:38:21Z</time>
      </trkpt>
      <trkpt lat="40.501490" lon="-5.512020">
        <ele>970</ele>
        <time>2022-12-04T01:39:00Z</time>
      </trkpt>
      <trkpt lat="40.501240" lon="-5.512280">
        <ele>970</ele>
        <time>2022-12-04T01:39:06Z</time>
      </trkpt>
      <trkpt lat="40.497450" lon="-5.515950">
        <ele>957</ele>
        <time>2022-12-04T01:40:29Z</time>
      </trkpt>
      <trkpt lat="40.497210" lon="-5.516210">
        <ele>956</ele>
        <time>2022-12-04T01:40:35Z</time>
      </trkpt>
      <trkpt lat="40.496510" lon="-5.517110">
        <ele>955</ele>
        <time>2022-12-04T01:40:52Z</time>
      </trkpt>
      <trkpt lat="40.495890" lon="-5.517530">
        <ele>954</ele>
        <time>2022-12-04T01:41:05Z</time>
      </trkpt>
      <trkpt lat="40.495790" lon="-5.517640">
        <ele>954</ele>
        <time>2022-12-04T01:41:07Z</time>
      </trkpt>
      <trkpt lat="40.495700" lon="-5.517780">
        <ele>953</ele>
        <time>2022-12-04T01:41:09Z</time>
      </trkpt>
      <trkpt lat="40.495360" lon="-5.518470">
        <ele>949</ele>
        <time>2022-12-04T01:41:21Z</time>
      </trkpt>
      <trkpt lat="40.494210" lon="-5.520070">
        <ele>938</ele>
        <time>2022-12-04T01:41:50Z</time>
      </trkpt>
      <trkpt lat="40.493470" lon="-5.520890">
        <ele>935</ele>
        <time>2022-12-04T01:42:08Z</time>
      </trkpt>
      <trkpt lat="40.493280" lon="-5.521090">
        <ele>934</ele>
        <time>2022-12-04T01:42:12Z</time>
      </trkpt>
      <trkpt lat="40.493070" lon="-5.521230">
        <ele>934</ele>
        <time>2022-12-04T01:42:16Z</time>
      </trkpt>
      <trkpt lat="40.492920" lon="-5.521300">
        <ele>934</ele>
        <time>2022-12-04T01:42:19Z</time>
      </trkpt>
      <trkpt lat="40.491950" lon="-5.521550">
        <ele>935</ele>
        <time>2022-12-04T01:42:36Z</time>
      </trkpt>
      <trkpt lat="40.491010" lon="-5.521990">
        <ele>934</ele>
        <time>2022-12-04T01:42:54Z</time>
      </trkpt>
      <trkpt lat="40.490790" lon="-5.521620">
        <ele>936</ele>
        <time>2022-12-04T01:43:01Z</time>
      </trkpt>
      <trkpt lat="40.490760" lon="-5.521600">
        <ele>936</ele>
        <time>2022-12-04T01:43:01Z</time>
      </trkpt>
      <trkpt lat="40.490620" lon="-5.521650">
        <ele>937</ele>
        <time>2022-12-04T01:43:04Z</time>
      </trkpt>
      <trkpt lat="40.490710" lon="-5.522130">
        <ele>934</ele>
        <time>2022-12-04T01:43:10Z</time>
      </trkpt>
      <trkpt lat="40.490730" lon="-5.522430">
        <ele>932</ele>
        <time>2022-12-04T01:43:15Z</time>
      </trkpt>
      <trkpt lat="40.490730" lon="-5.522940">
        <ele>931</ele>
        <time>2022-12-04T01:43:21Z</time>
      </trkpt>
      <trkpt lat="40.490690" lon="-5.523250">
        <ele>931</ele>
        <time>2022-12-04T01:43:26Z</time>
      </trkpt>
      <trkpt lat="40.490450" lon="-5.525370">
        <ele>929</ele>
        <time>2022-12-04T01:43:55Z</time>
      </trkpt>
      <trkpt lat="40.490410" lon="-5.525600">
        <ele>931</ele>
        <time>2022-12-04T01:43:58Z</time>
      </trkpt>
      <trkpt lat="40.490370" lon="-5.525730">
        <ele>933</ele>
        <time>2022-12-04T01:44:00Z</time>
      </trkpt>
      <trkpt lat="40.490300" lon="-5.525860">
        <ele>934</ele>
        <time>2022-12-04T01:44:02Z</time>
      </trkpt>
      <trkpt lat="40.490180" lon="-5.525970">
        <ele>935</ele>
        <time>2022-12-04T01:44:05Z</time>
      </trkpt>
      <trkpt lat="40.490050" lon="-5.526070">
        <ele>936</ele>
        <time>2022-12-04T01:44:07Z</time>
      </trkpt>
      <trkpt lat="40.489720" lon="-5.526260">
        <ele>937</ele>
        <time>2022-12-04T01:44:14Z</time>
      </trkpt>
      <trkpt lat="40.489600" lon="-5.526370">
        <ele>937</ele>
        <time>2022-12-04T01:44:16Z</time>
      </trkpt>
      <trkpt lat="40.489470" lon="-5.526590">
        <ele>938</ele>
        <time>2022-12-04T01:44:20Z</time>
      </trkpt>
      <trkpt lat="40.489370" lon="-5.526800">
        <ele>939</ele>
        <time>2022-12-04T01:44:23Z</time>
      </trkpt>
      <trkpt lat="40.489190" lon="-5.527340">
        <ele>943</ele>
        <time>2022-12-04T01:44:31Z</time>
      </trkpt>
      <trkpt lat="40.488260" lon="-5.530230">
        <ele>956</ele>
        <time>2022-12-04T01:45:14Z</time>
      </trkpt>
      <trkpt lat="40.488070" lon="-5.530690">
        <ele>957</ele>
        <time>2022-12-04T01:45:21Z</time>
      </trkpt>
      <trkpt lat="40.487850" lon="-5.531070">
        <ele>957</ele>
        <time>2022-12-04T01:45:27Z</time>
      </trkpt>
      <trkpt lat="40.487450" lon="-5.531690">
        <ele>958</ele>
        <time>2022-12-04T01:45:38Z</time>
      </trkpt>
      <trkpt lat="40.486870" lon="-5.532530">
        <ele>962</ele>
        <time>2022-12-04T01:45:54Z</time>
      </trkpt>
      <trkpt lat="40.483400" lon="-5.537370">
        <ele>969</ele>
        <time>2022-12-04T01:47:24Z</time>
      </trkpt>
      <trkpt lat="40.481000" lon="-5.540600">
        <ele>975</ele>
        <time>2022-12-04T01:48:25Z</time>
      </trkpt>
      <trkpt lat="40.480810" lon="-5.540960">
        <ele>976</ele>
        <time>2022-12-04T01:48:31Z</time>
      </trkpt>
      <trkpt lat="40.480650" lon="-5.541420">
        <ele>978</ele>
        <time>2022-12-04T01:48:38Z</time>
      </trkpt>
      <trkpt lat="40.480360" lon="-5.542600">
        <ele>982</ele>
        <time>2022-12-04T01:48:54Z</time>
      </trkpt>
      <trkpt lat="40.480370" lon="-5.543020">
        <ele>983</ele>
        <time>2022-12-04T01:49:00Z</time>
      </trkpt>
      <trkpt lat="40.480350" lon="-5.543050">
        <ele>983</ele>
        <time>2022-12-04T01:49:01Z</time>
      </trkpt>
      <trkpt lat="40.480310" lon="-5.543090">
        <ele>983</ele>
        <time>2022-12-04T01:49:01Z</time>
      </trkpt>
      <trkpt lat="40.480320" lon="-5.543430">
        <ele>985</ele>
        <time>2022-12-04T01:49:06Z</time>
      </trkpt>
      <trkpt lat="40.480580" lon="-5.545380">
        <ele>989</ele>
        <time>2022-12-04T01:49:33Z</time>
      </trkpt>
      <trkpt lat="40.480620" lon="-5.545790">
        <ele>991</ele>
        <time>2022-12-04T01:49:38Z</time>
      </trkpt>
      <trkpt lat="40.480620" lon="-5.545970">
        <ele>992</ele>
        <time>2022-12-04T01:49:41Z</time>
      </trkpt>
      <trkpt lat="40.480570" lon="-5.546690">
        <ele>993</ele>
        <time>2022-12-04T01:49:51Z</time>
      </trkpt>
      <trkpt lat="40.480450" lon="-5.548260">
        <ele>997</ele>
        <time>2022-12-04T01:50:12Z</time>
      </trkpt>
      <trkpt lat="40.480420" lon="-5.548830">
        <ele>998</ele>
        <time>2022-12-04T01:50:20Z</time>
      </trkpt>
      <trkpt lat="40.480460" lon="-5.549190">
        <ele>1000</ele>
        <time>2022-12-04T01:50:25Z</time>
      </trkpt>
      <trkpt lat="40.480520" lon="-5.549580">
        <ele>1002</ele>
        <time>2022-12-04T01:50:30Z</time>
      </trkpt>
      <trkpt lat="40.481420" lon="-5.554630">
        <ele>1018</ele>
        <time>2022-12-04T01:51:40Z</time>
      </trkpt>
      <trkpt lat="40.481470" lon="-5.555030">
        <ele>1020</ele>
        <time>2022-12-04T01:51:46Z</time>
      </trkpt>
      <trkpt lat="40.481470" lon="-5.555390">
        <ele>1021</ele>
        <time>2022-12-04T01:51:51Z</time>
      </trkpt>
      <trkpt lat="40.481460" lon="-5.555550">
        <ele>1021</ele>
        <time>2022-12-04T01:51:53Z</time>
      </trkpt>
      <trkpt lat="40.481440" lon="-5.555710">
        <ele>1022</ele>
        <time>2022-12-04T01:51:55Z</time>
      </trkpt>
      <trkpt lat="40.481180" lon="-5.556900">
        <ele>1026</ele>
        <time>2022-12-04T01:52:12Z</time>
      </trkpt>
      <trkpt lat="40.481140" lon="-5.557200">
        <ele>1027</ele>
        <time>2022-12-04T01:52:16Z</time>
      </trkpt>
      <trkpt lat="40.481130" lon="-5.557560">
        <ele>1029</ele>
        <time>2022-12-04T01:52:21Z</time>
      </trkpt>
      <trkpt lat="40.481180" lon="-5.557940">
        <ele>1030</ele>
        <time>2022-12-04T01:52:26Z</time>
      </trkpt>
      <trkpt lat="40.481260" lon="-5.558220">
        <ele>1031</ele>
        <time>2022-12-04T01:52:30Z</time>
      </trkpt>
      <trkpt lat="40.481770" lon="-5.559590">
        <ele>1030</ele>
        <time>2022-12-04T01:52:51Z</time>
      </trkpt>
      <trkpt lat="40.481840" lon="-5.559820">
        <ele>1029</ele>
        <time>2022-12-04T01:52:54Z</time>
      </trkpt>
      <trkpt lat="40.481920" lon="-5.560180">
        <ele>1028</ele>
        <time>2022-12-04T01:52:59Z</time>
      </trkpt>
      <trkpt lat="40.482510" lon="-5.564880">
        <ele>1013</ele>
        <time>2022-12-04T01:54:04Z</time>
      </trkpt>
      <trkpt lat="40.482570" lon="-5.565570">
        <ele>1011</ele>
        <time>2022-12-04T01:54:13Z</time>
      </trkpt>
      <trkpt lat="40.483030" lon="-5.572290">
        <ele>998</ele>
        <time>2022-12-04T01:55:44Z</time>
      </trkpt>
      <trkpt lat="40.483100" lon="-5.573210">
        <ele>998</ele>
        <time>2022-12-04T01:55:57Z</time>
      </trkpt>
      <trkpt lat="40.483160" lon="-5.573480">
        <ele>997</ele>
        <time>2022-12-04T01:56:01Z</time>
      </trkpt>
      <trkpt lat="40.483260" lon="-5.573780">
        <ele>996</ele>
        <time>2022-12-04T01:56:05Z</time>
      </trkpt>
      <trkpt lat="40.483610" lon="-5.574550">
        <ele>995</ele>
        <time>2022-12-04T01:56:17Z</time>
      </trkpt>
      <trkpt lat="40.485520" lon="-5.578470">
        <ele>986</ele>
        <time>2022-12-04T01:57:20Z</time>
      </trkpt>
      <trkpt lat="40.485720" lon="-5.578900">
        <ele>986</ele>
        <time>2022-12-04T01:57:27Z</time>
      </trkpt>
      <trkpt lat="40.485840" lon="-5.579280">
        <ele>986</ele>
        <time>2022-12-04T01:57:33Z</time>
      </trkpt>
      <trkpt lat="40.485880" lon="-5.579460">
        <ele>985</ele>
        <time>2022-12-04T01:57:35Z</time>
      </trkpt>
      <trkpt lat="40.485910" lon="-5.579780">
        <ele>984</ele>
        <time>2022-12-04T01:57:39Z</time>
      </trkpt>
      <trkpt lat="40.485920" lon="-5.580870">
        <ele>982</ele>
        <time>2022-12-04T01:57:54Z</time>
      </trkpt>
      <trkpt lat="40.485950" lon="-5.581800">
        <ele>977</ele>
        <time>2022-12-04T01:58:07Z</time>
      </trkpt>
      <trkpt lat="40.486090" lon="-5.583470">
        <ele>971</ele>
        <time>2022-12-04T01:58:30Z</time>
      </trkpt>
      <trkpt lat="40.486110" lon="-5.583900">
        <ele>970</ele>
        <time>2022-12-04T01:58:35Z</time>
      </trkpt>
      <trkpt lat="40.486170" lon="-5.589620">
        <ele>948</ele>
        <time>2022-12-04T01:59:53Z</time>
      </trkpt>
      <trkpt lat="40.486190" lon="-5.589810">
        <ele>947</ele>
        <time>2022-12-04T01:59:55Z</time>
      </trkpt>
      <trkpt lat="40.486250" lon="-5.590210">
        <ele>945</ele>
        <time>2022-12-04T02:00:01Z</time>
      </trkpt>
      <trkpt lat="40.486470" lon="-5.591130">
        <ele>941</ele>
        <time>2022-12-04T02:00:14Z</time>
      </trkpt>
      <trkpt lat="40.486520" lon="-5.591450">
        <ele>939</ele>
        <time>2022-12-04T02:00:18Z</time>
      </trkpt>
      <trkpt lat="40.486530" lon="-5.591660">
        <ele>938</ele>
        <time>2022-12-04T02:00:21Z</time>
      </trkpt>
      <trkpt lat="40.486510" lon="-5.592100">
        <ele>938</ele>
        <time>2022-12-04T02:00:27Z</time>
      </trkpt>
      <trkpt lat="40.486420" lon="-5.592500">
        <ele>938</ele>
        <time>2022-12-04T02:00:33Z</time>
      </trkpt>
      <trkpt lat="40.486270" lon="-5.592890">
        <ele>937</ele>
        <time>2022-12-04T02:00:39Z</time>
      </trkpt>
      <trkpt lat="40.485540" lon="-5.594220">
        <ele>931</ele>
        <time>2022-12-04T02:01:01Z</time>
      </trkpt>
      <trkpt lat="40.485420" lon="-5.594560">
        <ele>930</ele>
        <time>2022-12-04T02:01:06Z</time>
      </trkpt>
      <trkpt lat="40.485260" lon="-5.595170">
        <ele>929</ele>
        <time>2022-12-04T02:01:15Z</time>
      </trkpt>
      <trkpt lat="40.485200" lon="-5.595460">
        <ele>927</ele>
        <time>2022-12-04T02:01:19Z</time>
      </trkpt>
      <trkpt lat="40.485180" lon="-5.595830">
        <ele>926</ele>
        <time>2022-12-04T02:01:24Z</time>
      </trkpt>
      <trkpt lat="40.485230" lon="-5.596350">
        <ele>923</ele>
        <time>2022-12-04T02:01:31Z</time>
      </trkpt>
      <trkpt lat="40.485280" lon="-5.596600">
        <ele>922</ele>
        <time>2022-12-04T02:01:34Z</time>
      </trkpt>
      <trkpt lat="40.485370" lon="-5.596840">
        <ele>922</ele>
        <time>2022-12-04T02:01:38Z</time>
      </trkpt>
      <trkpt lat="40.485510" lon="-5.597130">
        <ele>922</ele>
        <time>2022-12-04T02:01:43Z</time>
      </trkpt>
      <trkpt lat="40.486120" lon="-5.598050">
        <ele>921</ele>
        <time>2022-12-04T02:01:59Z</time>
      </trkpt>
      <trkpt lat="40.486260" lon="-5.598340">
        <ele>921</ele>
        <time>2022-12-04T02:02:04Z</time>
      </trkpt>
      <trkpt lat="40.486390" lon="-5.598810">
        <ele>920</ele>
        <time>2022-12-04T02:02:11Z</time>
      </trkpt>
      <trkpt lat="40.486460" lon="-5.599420">
        <ele>918</ele>
        <time>2022-12-04T02:02:19Z</time>
      </trkpt>
      <trkpt lat="40.486840" lon="-5.603120">
        <ele>914</ele>
        <time>2022-12-04T02:03:10Z</time>
      </trkpt>
      <trkpt lat="40.486840" lon="-5.603480">
        <ele>914</ele>
        <time>2022-12-04T02:03:14Z</time>
      </trkpt>
      <trkpt lat="40.486820" lon="-5.604270">
        <ele>912</ele>
        <time>2022-12-04T02:03:25Z</time>
      </trkpt>
      <trkpt lat="40.486750" lon="-5.606440">
        <ele>907</ele>
        <time>2022-12-04T02:03:54Z</time>
      </trkpt>
      <trkpt lat="40.486800" lon="-5.606760">
        <ele>907</ele>
        <time>2022-12-04T02:03:59Z</time>
      </trkpt>
      <trkpt lat="40.486840" lon="-5.606900">
        <ele>907</ele>
        <time>2022-12-04T02:04:01Z</time>
      </trkpt>
      <trkpt lat="40.487050" lon="-5.607530">
        <ele>908</ele>
        <time>2022-12-04T02:04:10Z</time>
      </trkpt>
      <trkpt lat="40.487190" lon="-5.607970">
        <ele>909</ele>
        <time>2022-12-04T02:04:17Z</time>
      </trkpt>
      <trkpt lat="40.487220" lon="-5.608090">
        <ele>909</ele>
        <time>2022-12-04T02:04:18Z</time>
      </trkpt>
      <trkpt lat="40.487220" lon="-5.608310">
        <ele>909</ele>
        <time>2022-12-04T02:04:21Z</time>
      </trkpt>
      <trkpt lat="40.487180" lon="-5.608500">
        <ele>910</ele>
        <time>2022-12-04T02:04:24Z</time>
      </trkpt>
      <trkpt lat="40.487150" lon="-5.608580">
        <ele>910</ele>
        <time>2022-12-04T02:04:25Z</time>
      </trkpt>
      <trkpt lat="40.481160" lon="-5.619320">
        <ele>921</ele>
        <time>2022-12-04T02:07:25Z</time>
      </trkpt>
      <trkpt lat="40.473160" lon="-5.632210">
        <ele>928</ele>
        <time>2022-12-04T02:11:11Z</time>
      </trkpt>
      <trkpt lat="40.472970" lon="-5.632490">
        <ele>928</ele>
        <time>2022-12-04T02:11:16Z</time>
      </trkpt>
      <trkpt lat="40.472750" lon="-5.632760">
        <ele>928</ele>
        <time>2022-12-04T02:11:21Z</time>
      </trkpt>
      <trkpt lat="40.472580" lon="-5.632910">
        <ele>928</ele>
        <time>2022-12-04T02:11:25Z</time>
      </trkpt>
      <trkpt lat="40.471680" lon="-5.633660">
        <ele>928</ele>
        <time>2022-12-04T02:11:44Z</time>
      </trkpt>
      <trkpt lat="40.471400" lon="-5.633910">
        <ele>930</ele>
        <time>2022-12-04T02:11:50Z</time>
      </trkpt>
      <trkpt lat="40.471150" lon="-5.634240">
        <ele>931</ele>
        <time>2022-12-04T02:11:56Z</time>
      </trkpt>
      <trkpt lat="40.470430" lon="-5.635410">
        <ele>929</ele>
        <time>2022-12-04T02:12:16Z</time>
      </trkpt>
      <trkpt lat="40.470100" lon="-5.635860">
        <ele>928</ele>
        <time>2022-12-04T02:12:25Z</time>
      </trkpt>
      <trkpt lat="40.469880" lon="-5.636040">
        <ele>929</ele>
        <time>2022-12-04T02:12:29Z</time>
      </trkpt>
      <trkpt lat="40.469650" lon="-5.636230">
        <ele>929</ele>
        <time>2022-12-04T02:12:34Z</time>
      </trkpt>
      <trkpt lat="40.469330" lon="-5.636540">
        <ele>930</ele>
        <time>2022-12-04T02:12:41Z</time>
      </trkpt>
      <trkpt lat="40.469230" lon="-5.636660">
        <ele>931</ele>
        <time>2022-12-04T02:12:44Z</time>
      </trkpt>
      <trkpt lat="40.468990" lon="-5.637060">
        <ele>931</ele>
        <time>2022-12-04T02:12:51Z</time>
      </trkpt>
      <trkpt lat="40.466800" lon="-5.642250">
        <ele>942</ele>
        <time>2022-12-04T02:14:11Z</time>
      </trkpt>
      <trkpt lat="40.466530" lon="-5.642770">
        <ele>942</ele>
        <time>2022-12-04T02:14:20Z</time>
      </trkpt>
      <trkpt lat="40.466390" lon="-5.642990">
        <ele>942</ele>
        <time>2022-12-04T02:14:23Z</time>
      </trkpt>
      <trkpt lat="40.461970" lon="-5.649340">
        <ele>947</ele>
        <time>2022-12-04T02:16:20Z</time>
      </trkpt>
      <trkpt lat="40.461720" lon="-5.649720">
        <ele>948</ele>
        <time>2022-12-04T02:16:27Z</time>
      </trkpt>
      <trkpt lat="40.461560" lon="-5.650000">
        <ele>949</ele>
        <time>2022-12-04T02:16:31Z</time>
      </trkpt>
      <trkpt lat="40.461450" lon="-5.650280">
        <ele>949</ele>
        <time>2022-12-04T02:16:36Z</time>
      </trkpt>
      <trkpt lat="40.461330" lon="-5.650610">
        <ele>949</ele>
        <time>2022-12-04T02:16:41Z</time>
      </trkpt>
      <trkpt lat="40.461110" lon="-5.651650">
        <ele>950</ele>
        <time>2022-12-04T02:16:55Z</time>
      </trkpt>
      <trkpt lat="40.460960" lon="-5.652120">
        <ele>951</ele>
        <time>2022-12-04T02:17:02Z</time>
      </trkpt>
      <trkpt lat="40.460830" lon="-5.652390">
        <ele>952</ele>
        <time>2022-12-04T02:17:07Z</time>
      </trkpt>
      <trkpt lat="40.460580" lon="-5.652820">
        <ele>952</ele>
        <time>2022-12-04T02:17:14Z</time>
      </trkpt>
      <trkpt lat="40.459930" lon="-5.653930">
        <ele>952</ele>
        <time>2022-12-04T02:17:33Z</time>
      </trkpt>
      <trkpt lat="40.459590" lon="-5.654360">
        <ele>953</ele>
        <time>2022-12-04T02:17:41Z</time>
      </trkpt>
      <trkpt lat="40.456480" lon="-5.657950">
        <ele>956</ele>
        <time>2022-12-04T02:18:55Z</time>
      </trkpt>
      <trkpt lat="40.456090" lon="-5.658530">
        <ele>957</ele>
        <time>2022-12-04T02:19:05Z</time>
      </trkpt>
      <trkpt lat="40.453640" lon="-5.662350">
        <ele>957</ele>
        <time>2022-12-04T02:20:13Z</time>
      </trkpt>
      <trkpt lat="40.453560" lon="-5.662460">
        <ele>957</ele>
        <time>2022-12-04T02:20:15Z</time>
      </trkpt>
      <trkpt lat="40.451570" lon="-5.665570">
        <ele>962</ele>
        <time>2022-12-04T02:21:10Z</time>
      </trkpt>
      <trkpt lat="40.451260" lon="-5.665980">
        <ele>964</ele>
        <time>2022-12-04T02:21:18Z</time>
      </trkpt>
      <trkpt lat="40.449470" lon="-5.668190">
        <ele>970</ele>
        <time>2022-12-04T02:22:02Z</time>
      </trkpt>
      <trkpt lat="40.449030" lon="-5.668790">
        <ele>971</ele>
        <time>2022-12-04T02:22:13Z</time>
      </trkpt>
      <trkpt lat="40.448540" lon="-5.669610">
        <ele>973</ele>
        <time>2022-12-04T02:22:27Z</time>
      </trkpt>
      <trkpt lat="40.444990" lon="-5.675810">
        <ele>992</ele>
        <time>2022-12-04T02:24:12Z</time>
      </trkpt>
      <trkpt lat="40.444880" lon="-5.676040">
        <ele>994</ele>
        <time>2022-12-04T02:24:16Z</time>
      </trkpt>
      <trkpt lat="40.444010" lon="-5.678210">
        <ele>1001</ele>
        <time>2022-12-04T02:24:49Z</time>
      </trkpt>
      <trkpt lat="40.443710" lon="-5.678920">
        <ele>1001</ele>
        <time>2022-12-04T02:25:00Z</time>
      </trkpt>
      <trkpt lat="40.443440" lon="-5.679470">
        <ele>1000</ele>
        <time>2022-12-04T02:25:09Z</time>
      </trkpt>
      <trkpt lat="40.442400" lon="-5.681100">
        <ele>998</ele>
        <time>2022-12-04T02:25:38Z</time>
      </trkpt>
      <trkpt lat="40.442160" lon="-5.681520">
        <ele>998</ele>
        <time>2022-12-04T02:25:45Z</time>
      </trkpt>
      <trkpt lat="40.441680" lon="-5.682520">
        <ele>999</ele>
        <time>2022-12-04T02:26:01Z</time>
      </trkpt>
      <trkpt lat="40.441450" lon="-5.683070">
        <ele>1000</ele>
        <time>2022-12-04T02:26:09Z</time>
      </trkpt>
      <trkpt lat="40.441400" lon="-5.683240">
        <ele>1000</ele>
        <time>2022-12-04T02:26:12Z</time>
      </trkpt>
      <trkpt lat="40.441350" lon="-5.683470">
        <ele>1001</ele>
        <time>2022-12-04T02:26:15Z</time>
      </trkpt>
      <trkpt lat="40.441240" lon="-5.684530">
        <ele>1006</ele>
        <time>2022-12-04T02:26:29Z</time>
      </trkpt>
      <trkpt lat="40.441030" lon="-5.686650">
        <ele>1013</ele>
        <time>2022-12-04T02:26:58Z</time>
      </trkpt>
      <trkpt lat="40.441000" lon="-5.686840">
        <ele>1014</ele>
        <time>2022-12-04T02:27:01Z</time>
      </trkpt>
      <trkpt lat="40.440900" lon="-5.687180">
        <ele>1016</ele>
        <time>2022-12-04T02:27:06Z</time>
      </trkpt>
      <trkpt lat="40.440580" lon="-5.687870">
        <ele>1018</ele>
        <time>2022-12-04T02:27:17Z</time>
      </trkpt>
      <trkpt lat="40.440460" lon="-5.688220">
        <ele>1018</ele>
        <time>2022-12-04T02:27:22Z</time>
      </trkpt>
      <trkpt lat="40.440420" lon="-5.688410">
        <ele>1019</ele>
        <time>2022-12-04T02:27:25Z</time>
      </trkpt>
      <trkpt lat="40.440410" lon="-5.688520">
        <ele>1020</ele>
        <time>2022-12-04T02:27:26Z</time>
      </trkpt>
      <trkpt lat="40.440440" lon="-5.688750">
        <ele>1022</ele>
        <time>2022-12-04T02:27:29Z</time>
      </trkpt>
      <trkpt lat="40.440500" lon="-5.688840">
        <ele>1024</ele>
        <time>2022-12-04T02:27:31Z</time>
      </trkpt>
      <trkpt lat="40.440520" lon="-5.688930">
        <ele>1025</ele>
        <time>2022-12-04T02:27:32Z</time>
      </trkpt>
      <trkpt lat="40.440510" lon="-5.689020">
        <ele>1026</ele>
        <time>2022-12-04T02:27:33Z</time>
      </trkpt>
      <trkpt lat="40.440480" lon="-5.689100">
        <ele>1026</ele>
        <time>2022-12-04T02:27:35Z</time>
      </trkpt>
      <trkpt lat="40.440440" lon="-5.689160">
        <ele>1026</ele>
        <time>2022-12-04T02:27:36Z</time>
      </trkpt>
      <trkpt lat="40.440390" lon="-5.689200">
        <ele>1026</ele>
        <time>2022-12-04T02:27:37Z</time>
      </trkpt>
      <trkpt lat="40.440330" lon="-5.689220">
        <ele>1026</ele>
        <time>2022-12-04T02:27:38Z</time>
      </trkpt>
      <trkpt lat="40.440150" lon="-5.689440">
        <ele>1027</ele>
        <time>2022-12-04T02:27:42Z</time>
      </trkpt>
      <trkpt lat="40.440010" lon="-5.689710">
        <ele>1029</ele>
        <time>2022-12-04T02:27:47Z</time>
      </trkpt>
      <trkpt lat="40.439770" lon="-5.690110">
        <ele>1032</ele>
        <time>2022-12-04T02:27:54Z</time>
      </trkpt>
      <trkpt lat="40.439570" lon="-5.690380">
        <ele>1034</ele>
        <time>2022-12-04T02:27:59Z</time>
      </trkpt>
      <trkpt lat="40.438950" lon="-5.691010">
        <ele>1034</ele>
        <time>2022-12-04T02:28:13Z</time>
      </trkpt>
      <trkpt lat="40.438820" lon="-5.691110">
        <ele>1034</ele>
        <time>2022-12-04T02:28:15Z</time>
      </trkpt>
      <trkpt lat="40.438750" lon="-5.691270">
        <ele>1034</ele>
        <time>2022-12-04T02:28:18Z</time>
      </trkpt>
      <trkpt lat="40.438740" lon="-5.691380">
        <ele>1035</ele>
        <time>2022-12-04T02:28:19Z</time>
      </trkpt>
      <trkpt lat="40.438780" lon="-5.691490">
        <ele>1036</ele>
        <time>2022-12-04T02:28:21Z</time>
      </trkpt>
      <trkpt lat="40.438790" lon="-5.691670">
        <ele>1038</ele>
        <time>2022-12-04T02:28:23Z</time>
      </trkpt>
      <trkpt lat="40.438730" lon="-5.691840">
        <ele>1039</ele>
        <time>2022-12-04T02:28:26Z</time>
      </trkpt>
      <trkpt lat="40.438620" lon="-5.691950">
        <ele>1040</ele>
        <time>2022-12-04T02:28:28Z</time>
      </trkpt>
      <trkpt lat="40.438550" lon="-5.691980">
        <ele>1040</ele>
        <time>2022-12-04T02:28:30Z</time>
      </trkpt>
      <trkpt lat="40.438410" lon="-5.691960">
        <ele>1038</ele>
        <time>2022-12-04T02:28:32Z</time>
      </trkpt>
      <trkpt lat="40.438300" lon="-5.691860">
        <ele>1037</ele>
        <time>2022-12-04T02:28:35Z</time>
      </trkpt>
      <trkpt lat="40.438260" lon="-5.691790">
        <ele>1036</ele>
        <time>2022-12-04T02:28:36Z</time>
      </trkpt>
      <trkpt lat="40.438230" lon="-5.691690">
        <ele>1035</ele>
        <time>2022-12-04T02:28:37Z</time>
      </trkpt>
      <trkpt lat="40.438150" lon="-5.691640">
        <ele>1034</ele>
        <time>2022-12-04T02:28:39Z</time>
      </trkpt>
      <trkpt lat="40.438040" lon="-5.691610">
        <ele>1033</ele>
        <time>2022-12-04T02:28:41Z</time>
      </trkpt>
      <trkpt lat="40.437770" lon="-5.691680">
        <ele>1033</ele>
        <time>2022-12-04T02:28:46Z</time>
      </trkpt>
      <trkpt lat="40.437390" lon="-5.691880">
        <ele>1034</ele>
        <time>2022-12-04T02:28:53Z</time>
      </trkpt>
      <trkpt lat="40.437070" lon="-5.692100">
        <ele>1037</ele>
        <time>2022-12-04T02:28:59Z</time>
      </trkpt>
      <trkpt lat="40.436780" lon="-5.692370">
        <ele>1040</ele>
        <time>2022-12-04T02:29:06Z</time>
      </trkpt>
      <trkpt lat="40.436530" lon="-5.692700">
        <ele>1044</ele>
        <time>2022-12-04T02:29:12Z</time>
      </trkpt>
      <trkpt lat="40.436240" lon="-5.693160">
        <ele>1047</ele>
        <time>2022-12-04T02:29:20Z</time>
      </trkpt>
      <trkpt lat="40.436090" lon="-5.693470">
        <ele>1049</ele>
        <time>2022-12-04T02:29:25Z</time>
      </trkpt>
      <trkpt lat="40.435990" lon="-5.693720">
        <ele>1051</ele>
        <time>2022-12-04T02:29:29Z</time>
      </trkpt>
      <trkpt lat="40.435730" lon="-5.694560">
        <ele>1059</ele>
        <time>2022-12-04T02:29:41Z</time>
      </trkpt>
      <trkpt lat="40.435650" lon="-5.694940">
        <ele>1062</ele>
        <time>2022-12-04T02:29:47Z</time>
      </trkpt>
      <trkpt lat="40.435640" lon="-5.695090">
        <ele>1063</ele>
        <time>2022-12-04T02:29:49Z</time>
      </trkpt>
      <trkpt lat="40.435680" lon="-5.695260">
        <ele>1065</ele>
        <time>2022-12-04T02:29:51Z</time>
      </trkpt>
      <trkpt lat="40.435670" lon="-5.695340">
        <ele>1066</ele>
        <time>2022-12-04T02:29:52Z</time>
      </trkpt>
      <trkpt lat="40.435620" lon="-5.695500">
        <ele>1067</ele>
        <time>2022-12-04T02:29:54Z</time>
      </trkpt>
      <trkpt lat="40.435510" lon="-5.695610">
        <ele>1068</ele>
        <time>2022-12-04T02:29:57Z</time>
      </trkpt>
      <trkpt lat="40.435450" lon="-5.695640">
        <ele>1068</ele>
        <time>2022-12-04T02:29:58Z</time>
      </trkpt>
      <trkpt lat="40.435320" lon="-5.695630">
        <ele>1067</ele>
        <time>2022-12-04T02:30:00Z</time>
      </trkpt>
      <trkpt lat="40.435250" lon="-5.695600">
        <ele>1067</ele>
        <time>2022-12-04T02:30:02Z</time>
      </trkpt>
      <trkpt lat="40.435180" lon="-5.695530">
        <ele>1067</ele>
        <time>2022-12-04T02:30:03Z</time>
      </trkpt>
      <trkpt lat="40.435020" lon="-5.695490">
        <ele>1066</ele>
        <time>2022-12-04T02:30:06Z</time>
      </trkpt>
      <trkpt lat="40.434850" lon="-5.695520">
        <ele>1067</ele>
        <time>2022-12-04T02:30:09Z</time>
      </trkpt>
      <trkpt lat="40.433490" lon="-5.696560">
        <ele>1077</ele>
        <time>2022-12-04T02:30:37Z</time>
      </trkpt>
      <trkpt lat="40.432950" lon="-5.696990">
        <ele>1077</ele>
        <time>2022-12-04T02:30:48Z</time>
      </trkpt>
      <trkpt lat="40.430560" lon="-5.698620">
        <ele>1083</ele>
        <time>2022-12-04T02:31:36Z</time>
      </trkpt>
      <trkpt lat="40.430340" lon="-5.698830">
        <ele>1085</ele>
        <time>2022-12-04T02:31:41Z</time>
      </trkpt>
      <trkpt lat="40.430190" lon="-5.699010">
        <ele>1087</ele>
        <time>2022-12-04T02:31:45Z</time>
      </trkpt>
      <trkpt lat="40.428590" lon="-5.701300">
        <ele>1103</ele>
        <time>2022-12-04T02:32:27Z</time>
      </trkpt>
      <trkpt lat="40.428420" lon="-5.701490">
        <ele>1105</ele>
        <time>2022-12-04T02:32:31Z</time>
      </trkpt>
      <trkpt lat="40.428240" lon="-5.701670">
        <ele>1107</ele>
        <time>2022-12-04T02:32:35Z</time>
      </trkpt>
      <trkpt lat="40.427470" lon="-5.702330">
        <ele>1109</ele>
        <time>2022-12-04T02:32:51Z</time>
      </trkpt>
      <trkpt lat="40.427240" lon="-5.702560">
        <ele>1112</ele>
        <time>2022-12-04T02:32:56Z</time>
      </trkpt>
      <trkpt lat="40.426710" lon="-5.703360">
        <ele>1117</ele>
        <time>2022-12-04T02:33:11Z</time>
      </trkpt>
      <trkpt lat="40.426470" lon="-5.703620">
        <ele>1120</ele>
        <time>2022-12-04T02:33:16Z</time>
      </trkpt>
      <trkpt lat="40.426050" lon="-5.703910">
        <ele>1125</ele>
        <time>2022-12-04T02:33:25Z</time>
      </trkpt>
      <trkpt lat="40.425920" lon="-5.704060">
        <ele>1125</ele>
        <time>2022-12-04T02:33:28Z</time>
      </trkpt>
      <trkpt lat="40.425790" lon="-5.704270">
        <ele>1125</ele>
        <time>2022-12-04T02:33:32Z</time>
      </trkpt>
      <trkpt lat="40.425740" lon="-5.704400">
        <ele>1127</ele>
        <time>2022-12-04T02:33:33Z</time>
      </trkpt>
      <trkpt lat="40.425720" lon="-5.704610">
        <ele>1127</ele>
        <time>2022-12-04T02:33:36Z</time>
      </trkpt>
      <trkpt lat="40.425720" lon="-5.704750">
        <ele>1127</ele>
        <time>2022-12-04T02:33:38Z</time>
      </trkpt>
      <trkpt lat="40.425760" lon="-5.704880">
        <ele>1126</ele>
        <time>2022-12-04T02:33:40Z</time>
      </trkpt>
      <trkpt lat="40.425800" lon="-5.705000">
        <ele>1126</ele>
        <time>2022-12-04T02:33:42Z</time>
      </trkpt>
      <trkpt lat="40.425890" lon="-5.705120">
        <ele>1127</ele>
        <time>2022-12-04T02:33:44Z</time>
      </trkpt>
      <trkpt lat="40.426000" lon="-5.705220">
        <ele>1128</ele>
        <time>2022-12-04T02:33:47Z</time>
      </trkpt>
      <trkpt lat="40.426110" lon="-5.705300">
        <ele>1130</ele>
        <time>2022-12-04T02:33:49Z</time>
      </trkpt>
      <trkpt lat="40.426340" lon="-5.705400">
        <ele>1132</ele>
        <time>2022-12-04T02:33:53Z</time>
      </trkpt>
      <trkpt lat="40.427710" lon="-5.705810">
        <ele>1139</ele>
        <time>2022-12-04T02:34:18Z</time>
      </trkpt>
      <trkpt lat="40.427860" lon="-5.705900">
        <ele>1139</ele>
        <time>2022-12-04T02:34:21Z</time>
      </trkpt>
      <trkpt lat="40.427910" lon="-5.705960">
        <ele>1140</ele>
        <time>2022-12-04T02:34:22Z</time>
      </trkpt>
      <trkpt lat="40.427970" lon="-5.706060">
        <ele>1141</ele>
        <time>2022-12-04T02:34:24Z</time>
      </trkpt>
      <trkpt lat="40.428000" lon="-5.706140">
        <ele>1141</ele>
        <time>2022-12-04T02:34:25Z</time>
      </trkpt>
      <trkpt lat="40.428060" lon="-5.706470">
        <ele>1144</ele>
        <time>2022-12-04T02:34:30Z</time>
      </trkpt>
      <trkpt lat="40.428090" lon="-5.707340">
        <ele>1146</ele>
        <time>2022-12-04T02:34:42Z</time>
      </trkpt>
      <trkpt lat="40.428150" lon="-5.707860">
        <ele>1147</ele>
        <time>2022-12-04T02:34:49Z</time>
      </trkpt>
      <trkpt lat="40.428670" lon="-5.710300">
        <ele>1153</ele>
        <time>2022-12-04T02:35:23Z</time>
      </trkpt>
      <trkpt lat="40.428770" lon="-5.710590">
        <ele>1153</ele>
        <time>2022-12-04T02:35:27Z</time>
      </trkpt>
      <trkpt lat="40.428870" lon="-5.710760">
        <ele>1152</ele>
        <time>2022-12-04T02:35:30Z</time>
      </trkpt>
      <trkpt lat="40.429180" lon="-5.711220">
        <ele>1147</ele>
        <time>2022-12-04T02:35:39Z</time>
      </trkpt>
      <trkpt lat="40.429270" lon="-5.711380">
        <ele>1146</ele>
        <time>2022-12-04T02:35:41Z</time>
      </trkpt>
      <trkpt lat="40.429310" lon="-5.711480">
        <ele>1146</ele>
        <time>2022-12-04T02:35:43Z</time>
      </trkpt>
      <trkpt lat="40.429300" lon="-5.711550">
        <ele>1147</ele>
        <time>2022-12-04T02:35:44Z</time>
      </trkpt>
      <trkpt lat="40.429270" lon="-5.711680">
        <ele>1148</ele>
        <time>2022-12-04T02:35:46Z</time>
      </trkpt>
      <trkpt lat="40.429220" lon="-5.711740">
        <ele>1150</ele>
        <time>2022-12-04T02:35:47Z</time>
      </trkpt>
      <trkpt lat="40.429150" lon="-5.711780">
        <ele>1152</ele>
        <time>2022-12-04T02:35:48Z</time>
      </trkpt>
      <trkpt lat="40.429090" lon="-5.711790">
        <ele>1153</ele>
        <time>2022-12-04T02:35:49Z</time>
      </trkpt>
      <trkpt lat="40.429010" lon="-5.711770">
        <ele>1156</ele>
        <time>2022-12-04T02:35:51Z</time>
      </trkpt>
      <trkpt lat="40.428910" lon="-5.711660">
        <ele>1158</ele>
        <time>2022-12-04T02:35:53Z</time>
      </trkpt>
      <trkpt lat="40.428570" lon="-5.711070">
        <ele>1162</ele>
        <time>2022-12-04T02:36:03Z</time>
      </trkpt>
      <trkpt lat="40.428420" lon="-5.710750">
        <ele>1163</ele>
        <time>2022-12-04T02:36:08Z</time>
      </trkpt>
      <trkpt lat="40.428080" lon="-5.709780">
        <ele>1164</ele>
        <time>2022-12-04T02:36:23Z</time>
      </trkpt>
      <trkpt lat="40.427950" lon="-5.709500">
        <ele>1164</ele>
        <time>2022-12-04T02:36:27Z</time>
      </trkpt>
      <trkpt lat="40.427840" lon="-5.709360">
        <ele>1165</ele>
        <time>2022-12-04T02:36:30Z</time>
      </trkpt>
      <trkpt lat="40.427620" lon="-5.709120">
        <ele>1168</ele>
        <time>2022-12-04T02:36:35Z</time>
      </trkpt>
      <trkpt lat="40.426500" lon="-5.708120">
        <ele>1175</ele>
        <time>2022-12-04T02:36:59Z</time>
      </trkpt>
      <trkpt lat="40.426260" lon="-5.707960">
        <ele>1176</ele>
        <time>2022-12-04T02:37:04Z</time>
      </trkpt>
      <trkpt lat="40.426150" lon="-5.707920">
        <ele>1177</ele>
        <time>2022-12-04T02:37:06Z</time>
      </trkpt>
      <trkpt lat="40.425840" lon="-5.707860">
        <ele>1180</ele>
        <time>2022-12-04T02:37:11Z</time>
      </trkpt>
      <trkpt lat="40.424760" lon="-5.707770">
        <ele>1184</ele>
        <time>2022-12-04T02:37:31Z</time>
      </trkpt>
      <trkpt lat="40.423930" lon="-5.707740">
        <ele>1190</ele>
        <time>2022-12-04T02:37:45Z</time>
      </trkpt>
      <trkpt lat="40.423760" lon="-5.707730">
        <ele>1191</ele>
        <time>2022-12-04T02:37:48Z</time>
      </trkpt>
      <trkpt lat="40.423290" lon="-5.707780">
        <ele>1193</ele>
        <time>2022-12-04T02:37:57Z</time>
      </trkpt>
      <trkpt lat="40.422970" lon="-5.707870">
        <ele>1194</ele>
        <time>2022-12-04T02:38:03Z</time>
      </trkpt>
      <trkpt lat="40.422730" lon="-5.708010">
        <ele>1195</ele>
        <time>2022-12-04T02:38:07Z</time>
      </trkpt>
      <trkpt lat="40.422500" lon="-5.708210">
        <ele>1195</ele>
        <time>2022-12-04T02:38:12Z</time>
      </trkpt>
      <trkpt lat="40.421580" lon="-5.709170">
        <ele>1192</ele>
        <time>2022-12-04T02:38:33Z</time>
      </trkpt>
      <trkpt lat="40.421330" lon="-5.709520">
        <ele>1190</ele>
        <time>2022-12-04T02:38:40Z</time>
      </trkpt>
      <trkpt lat="40.420020" lon="-5.711660">
        <ele>1183</ele>
        <time>2022-12-04T02:39:17Z</time>
      </trkpt>
      <trkpt lat="40.419880" lon="-5.711850">
        <ele>1182</ele>
        <time>2022-12-04T02:39:20Z</time>
      </trkpt>
      <trkpt lat="40.419670" lon="-5.712070">
        <ele>1180</ele>
        <time>2022-12-04T02:39:25Z</time>
      </trkpt>
      <trkpt lat="40.415540" lon="-5.715950">
        <ele>1158</ele>
        <time>2022-12-04T02:40:55Z</time>
      </trkpt>
      <trkpt lat="40.415110" lon="-5.716390">
        <ele>1156</ele>
        <time>2022-12-04T02:41:05Z</time>
      </trkpt>
      <trkpt lat="40.414610" lon="-5.716960">
        <ele>1156</ele>
        <time>2022-12-04T02:41:17Z</time>
      </trkpt>
      <trkpt lat="40.413920" lon="-5.717710">
        <ele>1154</ele>
        <time>2022-12-04T02:41:33Z</time>
      </trkpt>
      <trkpt lat="40.413450" lon="-5.718190">
        <ele>1152</ele>
        <time>2022-12-04T02:41:44Z</time>
      </trkpt>
      <trkpt lat="40.412780" lon="-5.718810">
        <ele>1150</ele>
        <time>2022-12-04T02:41:58Z</time>
      </trkpt>
      <trkpt lat="40.412550" lon="-5.719050">
        <ele>1149</ele>
        <time>2022-12-04T02:42:03Z</time>
      </trkpt>
      <trkpt lat="40.412330" lon="-5.719340">
        <ele>1149</ele>
        <time>2022-12-04T02:42:09Z</time>
      </trkpt>
      <trkpt lat="40.412070" lon="-5.719770">
        <ele>1149</ele>
        <time>2022-12-04T02:42:16Z</time>
      </trkpt>
      <trkpt lat="40.411820" lon="-5.720350">
        <ele>1149</ele>
        <time>2022-12-04T02:42:25Z</time>
      </trkpt>
      <trkpt lat="40.411810" lon="-5.720470">
        <ele>1149</ele>
        <time>2022-12-04T02:42:27Z</time>
      </trkpt>
      <trkpt lat="40.411810" lon="-5.720700">
        <ele>1149</ele>
        <time>2022-12-04T02:42:30Z</time>
      </trkpt>
      <trkpt lat="40.411850" lon="-5.720800">
        <ele>1149</ele>
        <time>2022-12-04T02:42:32Z</time>
      </trkpt>
      <trkpt lat="40.411860" lon="-5.720870">
        <ele>1149</ele>
        <time>2022-12-04T02:42:33Z</time>
      </trkpt>
      <trkpt lat="40.411840" lon="-5.720990">
        <ele>1149</ele>
        <time>2022-12-04T02:42:34Z</time>
      </trkpt>
      <trkpt lat="40.411790" lon="-5.721060">
        <ele>1149</ele>
        <time>2022-12-04T02:42:36Z</time>
      </trkpt>
      <trkpt lat="40.411730" lon="-5.721100">
        <ele>1149</ele>
        <time>2022-12-04T02:42:37Z</time>
      </trkpt>
      <trkpt lat="40.411660" lon="-5.721120">
        <ele>1148</ele>
        <time>2022-12-04T02:42:38Z</time>
      </trkpt>
      <trkpt lat="40.411590" lon="-5.721100">
        <ele>1148</ele>
        <time>2022-12-04T02:42:39Z</time>
      </trkpt>
      <trkpt lat="40.411540" lon="-5.721050">
        <ele>1148</ele>
        <time>2022-12-04T02:42:40Z</time>
      </trkpt>
      <trkpt lat="40.411500" lon="-5.720990">
        <ele>1147</ele>
        <time>2022-12-04T02:42:41Z</time>
      </trkpt>
      <trkpt lat="40.411480" lon="-5.720910">
        <ele>1147</ele>
        <time>2022-12-04T02:42:43Z</time>
      </trkpt>
      <trkpt lat="40.411290" lon="-5.720680">
        <ele>1146</ele>
        <time>2022-12-04T02:42:47Z</time>
      </trkpt>
      <trkpt lat="40.410970" lon="-5.720520">
        <ele>1145</ele>
        <time>2022-12-04T02:42:53Z</time>
      </trkpt>
      <trkpt lat="40.410800" lon="-5.720530">
        <ele>1145</ele>
        <time>2022-12-04T02:42:56Z</time>
      </trkpt>
      <trkpt lat="40.410700" lon="-5.720600">
        <ele>1144</ele>
        <time>2022-12-04T02:42:58Z</time>
      </trkpt>
      <trkpt lat="40.410590" lon="-5.720590">
        <ele>1144</ele>
        <time>2022-12-04T02:43:00Z</time>
      </trkpt>
      <trkpt lat="40.410530" lon="-5.720550">
        <ele>1143</ele>
        <time>2022-12-04T02:43:02Z</time>
      </trkpt>
      <trkpt lat="40.410310" lon="-5.720640">
        <ele>1142</ele>
        <time>2022-12-04T02:43:06Z</time>
      </trkpt>
      <trkpt lat="40.409790" lon="-5.721220">
        <ele>1141</ele>
        <time>2022-12-04T02:43:18Z</time>
      </trkpt>
      <trkpt lat="40.409320" lon="-5.721510">
        <ele>1140</ele>
        <time>2022-12-04T02:43:27Z</time>
      </trkpt>
      <trkpt lat="40.409230" lon="-5.720960">
        <ele>1142</ele>
        <time>2022-12-04T02:43:35Z</time>
      </trkpt>
      <trkpt lat="40.408860" lon="-5.720590">
        <ele>1139</ele>
        <time>2022-12-04T02:43:43Z</time>
      </trkpt>
      <trkpt lat="40.408830" lon="-5.720360">
        <ele>1139</ele>
        <time>2022-12-04T02:43:46Z</time>
      </trkpt>
      <trkpt lat="40.408660" lon="-5.720160">
        <ele>1137</ele>
        <time>2022-12-04T02:43:50Z</time>
      </trkpt>
      <trkpt lat="40.408540" lon="-5.719830">
        <ele>1135</ele>
        <time>2022-12-04T02:43:55Z</time>
      </trkpt>
      <trkpt lat="40.408590" lon="-5.719360">
        <ele>1134</ele>
        <time>2022-12-04T02:44:02Z</time>
      </trkpt>
      <trkpt lat="40.408570" lon="-5.719140">
        <ele>1133</ele>
        <time>2022-12-04T02:44:05Z</time>
      </trkpt>
      <trkpt lat="40.408640" lon="-5.718610">
        <ele>1132</ele>
        <time>2022-12-04T02:44:12Z</time>
      </trkpt>
      <trkpt lat="40.408610" lon="-5.718510">
        <ele>1131</ele>
        <time>2022-12-04T02:44:13Z</time>
      </trkpt>
      <trkpt lat="40.408650" lon="-5.718200">
        <ele>1132</ele>
        <time>2022-12-04T02:44:18Z</time>
      </trkpt>
      <trkpt lat="40.408620" lon="-5.718170">
        <ele>1132</ele>
        <time>2022-12-04T02:44:18Z</time>
      </trkpt>
      <trkpt lat="40.408520" lon="-5.718080">
        <ele>1131</ele>
        <time>2022-12-04T02:44:20Z</time>
      </trkpt>
      <trkpt lat="40.408090" lon="-5.718100">
        <ele>1127</ele>
        <time>2022-12-04T02:44:28Z</time>
      </trkpt>
      <trkpt lat="40.407860" lon="-5.717970">
        <ele>1125</ele>
        <time>2022-12-04T02:44:32Z</time>
      </trkpt>
      <trkpt lat="40.407600" lon="-5.717670">
        <ele>1124</ele>
        <time>2022-12-04T02:44:39Z</time>
      </trkpt>
      <trkpt lat="40.407270" lon="-5.717410">
        <ele>1119</ele>
        <time>2022-12-04T02:44:45Z</time>
      </trkpt>
      <trkpt lat="40.407050" lon="-5.717360">
        <ele>1116</ele>
        <time>2022-12-04T02:44:49Z</time>
      </trkpt>
      <trkpt lat="40.406720" lon="-5.717070">
        <ele>1111</ele>
        <time>2022-12-04T02:44:56Z</time>
      </trkpt>
      <trkpt lat="40.406630" lon="-5.716950">
        <ele>1110</ele>
        <time>2022-12-04T02:44:59Z</time>
      </trkpt>
      <trkpt lat="40.406580" lon="-5.716800">
        <ele>1109</ele>
        <time>2022-12-04T02:45:01Z</time>
      </trkpt>
      <trkpt lat="40.406460" lon="-5.716740">
        <ele>1108</ele>
        <time>2022-12-04T02:45:03Z</time>
      </trkpt>
      <trkpt lat="40.406450" lon="-5.717090">
        <ele>1108</ele>
        <time>2022-12-04T02:45:08Z</time>
      </trkpt>
      <trkpt lat="40.406370" lon="-5.717380">
        <ele>1107</ele>
        <time>2022-12-04T02:45:12Z</time>
      </trkpt>
      <trkpt lat="40.406280" lon="-5.717180">
        <ele>1107</ele>
        <time>2022-12-04T02:45:15Z</time>
      </trkpt>
      <trkpt lat="40.406170" lon="-5.717000">
        <ele>1106</ele>
        <time>2022-12-04T02:45:18Z</time>
      </trkpt>
      <trkpt lat="40.405990" lon="-5.716820">
        <ele>1104</ele>
        <time>2022-12-04T02:45:22Z</time>
      </trkpt>
      <trkpt lat="40.405820" lon="-5.716720">
        <ele>1103</ele>
        <time>2022-12-04T02:45:26Z</time>
      </trkpt>
      <trkpt lat="40.405650" lon="-5.716640">
        <ele>1104</ele>
        <time>2022-12-04T02:45:29Z</time>
      </trkpt>
      <trkpt lat="40.405460" lon="-5.716600">
        <ele>1105</ele>
        <time>2022-12-04T02:45:32Z</time>
      </trkpt>
      <trkpt lat="40.405120" lon="-5.716630">
        <ele>1105</ele>
        <time>2022-12-04T02:45:39Z</time>
      </trkpt>
      <trkpt lat="40.404500" lon="-5.716810">
        <ele>1104</ele>
        <time>2022-12-04T02:45:50Z</time>
      </trkpt>
      <trkpt lat="40.404390" lon="-5.716830">
        <ele>1104</ele>
        <time>2022-12-04T02:45:52Z</time>
      </trkpt>
      <trkpt lat="40.404250" lon="-5.716810">
        <ele>1104</ele>
        <time>2022-12-04T02:45:54Z</time>
      </trkpt>
      <trkpt lat="40.403940" lon="-5.716700">
        <ele>1105</ele>
        <time>2022-12-04T02:46:00Z</time>
      </trkpt>
      <trkpt lat="40.403260" lon="-5.716340">
        <ele>1108</ele>
        <time>2022-12-04T02:46:13Z</time>
      </trkpt>
      <trkpt lat="40.403120" lon="-5.716230">
        <ele>1108</ele>
        <time>2022-12-04T02:46:16Z</time>
      </trkpt>
      <trkpt lat="40.402970" lon="-5.716060">
        <ele>1109</ele>
        <time>2022-12-04T02:46:19Z</time>
      </trkpt>
      <trkpt lat="40.402770" lon="-5.715760">
        <ele>1110</ele>
        <time>2022-12-04T02:46:25Z</time>
      </trkpt>
      <trkpt lat="40.402620" lon="-5.715430">
        <ele>1110</ele>
        <time>2022-12-04T02:46:30Z</time>
      </trkpt>
      <trkpt lat="40.402520" lon="-5.715090">
        <ele>1112</ele>
        <time>2022-12-04T02:46:35Z</time>
      </trkpt>
      <trkpt lat="40.402340" lon="-5.714200">
        <ele>1115</ele>
        <time>2022-12-04T02:46:48Z</time>
      </trkpt>
      <trkpt lat="40.402220" lon="-5.713710">
        <ele>1116</ele>
        <time>2022-12-04T02:46:54Z</time>
      </trkpt>
      <trkpt lat="40.402130" lon="-5.713430">
        <ele>1117</ele>
        <time>2022-12-04T02:46:59Z</time>
      </trkpt>
      <trkpt lat="40.402000" lon="-5.713170">
        <ele>1118</ele>
        <time>2022-12-04T02:47:03Z</time>
      </trkpt>
      <trkpt lat="40.401870" lon="-5.712980">
        <ele>1120</ele>
        <time>2022-12-04T02:47:06Z</time>
      </trkpt>
      <trkpt lat="40.401600" lon="-5.713130">
        <ele>1120</ele>
        <time>2022-12-04T02:47:11Z</time>
      </trkpt>
      <trkpt lat="40.401540" lon="-5.713180">
        <ele>1120</ele>
        <time>2022-12-04T02:47:13Z</time>
      </trkpt>
      <trkpt lat="40.401440" lon="-5.713410">
        <ele>1120</ele>
        <time>2022-12-04T02:47:16Z</time>
      </trkpt>
      <trkpt lat="40.401300" lon="-5.713880">
        <ele>1118</ele>
        <time>2022-12-04T02:47:23Z</time>
      </trkpt>
      <trkpt lat="40.401230" lon="-5.714040">
        <ele>1118</ele>
        <time>2022-12-04T02:47:26Z</time>
      </trkpt>
      <trkpt lat="40.401180" lon="-5.714120">
        <ele>1118</ele>
        <time>2022-12-04T02:47:27Z</time>
      </trkpt>
      <trkpt lat="40.401080" lon="-5.714230">
        <ele>1118</ele>
        <time>2022-12-04T02:47:29Z</time>
      </trkpt>
      <trkpt lat="40.400950" lon="-5.714320">
        <ele>1119</ele>
        <time>2022-12-04T02:47:32Z</time>
      </trkpt>
      <trkpt lat="40.400640" lon="-5.714440">
        <ele>1120</ele>
        <time>2022-12-04T02:47:38Z</time>
      </trkpt>
      <trkpt lat="40.400510" lon="-5.714460">
        <ele>1120</ele>
        <time>2022-12-04T02:47:40Z</time>
      </trkpt>
      <trkpt lat="40.400430" lon="-5.714460">
        <ele>1120</ele>
        <time>2022-12-04T02:47:42Z</time>
      </trkpt>
      <trkpt lat="40.400300" lon="-5.714400">
        <ele>1121</ele>
        <time>2022-12-04T02:47:44Z</time>
      </trkpt>
      <trkpt lat="40.399330" lon="-5.713720">
        <ele>1124</ele>
        <time>2022-12-04T02:48:04Z</time>
      </trkpt>
      <trkpt lat="40.399280" lon="-5.713830">
        <ele>1123</ele>
        <time>2022-12-04T02:48:05Z</time>
      </trkpt>
      <trkpt lat="40.398560" lon="-5.715130">
        <ele>1120</ele>
        <time>2022-12-04T02:48:27Z</time>
      </trkpt>
      <trkpt lat="40.398450" lon="-5.715280">
        <ele>1120</ele>
        <time>2022-12-04T02:48:30Z</time>
      </trkpt>
      <trkpt lat="40.398350" lon="-5.715240">
        <ele>1120</ele>
        <time>2022-12-04T02:48:32Z</time>
      </trkpt>
      <trkpt lat="40.397870" lon="-5.714520">
        <ele>1124</ele>
        <time>2022-12-04T02:48:45Z</time>
      </trkpt>
      <trkpt lat="40.397790" lon="-5.714490">
        <ele>1124</ele>
        <time>2022-12-04T02:48:46Z</time>
      </trkpt>
      <trkpt lat="40.397560" lon="-5.714460">
        <ele>1125</ele>
        <time>2022-12-04T02:48:50Z</time>
      </trkpt>
      <trkpt lat="40.397460" lon="-5.714410">
        <ele>1125</ele>
        <time>2022-12-04T02:48:52Z</time>
      </trkpt>
      <trkpt lat="40.397390" lon="-5.714350">
        <ele>1126</ele>
        <time>2022-12-04T02:48:54Z</time>
      </trkpt>
      <trkpt lat="40.397340" lon="-5.714260">
        <ele>1126</ele>
        <time>2022-12-04T02:48:55Z</time>
      </trkpt>
      <trkpt lat="40.397280" lon="-5.714250">
        <ele>1126</ele>
        <time>2022-12-04T02:48:56Z</time>
      </trkpt>
      <trkpt lat="40.397160" lon="-5.714290">
        <ele>1126</ele>
        <time>2022-12-04T02:48:58Z</time>
      </trkpt>
      <trkpt lat="40.397040" lon="-5.714390">
        <ele>1126</ele>
        <time>2022-12-04T02:49:01Z</time>
      </trkpt>
      <trkpt lat="40.397000" lon="-5.714460">
        <ele>1125</ele>
        <time>2022-12-04T02:49:02Z</time>
      </trkpt>
      <trkpt lat="40.396930" lon="-5.714710">
        <ele>1124</ele>
        <time>2022-12-04T02:49:06Z</time>
      </trkpt>
      <trkpt lat="40.396860" lon="-5.714840">
        <ele>1124</ele>
        <time>2022-12-04T02:49:08Z</time>
      </trkpt>
      <trkpt lat="40.396420" lon="-5.715510">
        <ele>1127</ele>
        <time>2022-12-04T02:49:20Z</time>
      </trkpt>
      <trkpt lat="40.395810" lon="-5.716580">
        <ele>1130</ele>
        <time>2022-12-04T02:49:38Z</time>
      </trkpt>
      <trkpt lat="40.395410" lon="-5.717140">
        <ele>1127</ele>
        <time>2022-12-04T02:49:48Z</time>
      </trkpt>
      <trkpt lat="40.395340" lon="-5.717210">
        <ele>1127</ele>
        <time>2022-12-04T02:49:50Z</time>
      </trkpt>
      <trkpt lat="40.395270" lon="-5.717240">
        <ele>1126</ele>
        <time>2022-12-04T02:49:51Z</time>
      </trkpt>
      <trkpt lat="40.394730" lon="-5.717380">
        <ele>1125</ele>
        <time>2022-12-04T02:50:01Z</time>
      </trkpt>
      <trkpt lat="40.394360" lon="-5.717360">
        <ele>1126</ele>
        <time>2022-12-04T02:50:08Z</time>
      </trkpt>
      <trkpt lat="40.394050" lon="-5.717290">
        <ele>1127</ele>
        <time>2022-12-04T02:50:13Z</time>
      </trkpt>
      <trkpt lat="40.393430" lon="-5.717070">
        <ele>1126</ele>
        <time>2022-12-04T02:50:25Z</time>
      </trkpt>
      <trkpt lat="40.393340" lon="-5.717000">
        <ele>1126</ele>
        <time>2022-12-04T02:50:27Z</time>
      </trkpt>
      <trkpt lat="40.393190" lon="-5.716840">
        <ele>1128</ele>
        <time>2022-12-04T02:50:30Z</time>
      </trkpt>
      <trkpt lat="40.393130" lon="-5.716800">
        <ele>1129</ele>
        <time>2022-12-04T02:50:31Z</time>
      </trkpt>
      <trkpt lat="40.393060" lon="-5.716780">
        <ele>1129</ele>
        <time>2022-12-04T02:50:33Z</time>
      </trkpt>
      <trkpt lat="40.392990" lon="-5.716770">
        <ele>1129</ele>
        <time>2022-12-04T02:50:34Z</time>
      </trkpt>
      <trkpt lat="40.392810" lon="-5.716820">
        <ele>1128</ele>
        <time>2022-12-04T02:50:37Z</time>
      </trkpt>
      <trkpt lat="40.392730" lon="-5.716830">
        <ele>1128</ele>
        <time>2022-12-04T02:50:38Z</time>
      </trkpt>
      <trkpt lat="40.392670" lon="-5.716800">
        <ele>1129</ele>
        <time>2022-12-04T02:50:40Z</time>
      </trkpt>
      <trkpt lat="40.392010" lon="-5.716340">
        <ele>1132</ele>
        <time>2022-12-04T02:50:53Z</time>
      </trkpt>
      <trkpt lat="40.391900" lon="-5.716300">
        <ele>1132</ele>
        <time>2022-12-04T02:50:55Z</time>
      </trkpt>
      <trkpt lat="40.391760" lon="-5.716290">
        <ele>1132</ele>
        <time>2022-12-04T02:50:57Z</time>
      </trkpt>
      <trkpt lat="40.391090" lon="-5.716350">
        <ele>1139</ele>
        <time>2022-12-04T02:51:09Z</time>
      </trkpt>
      <trkpt lat="40.390880" lon="-5.716480">
        <ele>1138</ele>
        <time>2022-12-04T02:51:14Z</time>
      </trkpt>
      <trkpt lat="40.390630" lon="-5.716680">
        <ele>1137</ele>
        <time>2022-12-04T02:51:19Z</time>
      </trkpt>
      <trkpt lat="40.390280" lon="-5.716790">
        <ele>1141</ele>
        <time>2022-12-04T02:51:25Z</time>
      </trkpt>
      <trkpt lat="40.389830" lon="-5.716840">
        <ele>1147</ele>
        <time>2022-12-04T02:51:33Z</time>
      </trkpt>
      <trkpt lat="40.389700" lon="-5.716870">
        <ele>1149</ele>
        <time>2022-12-04T02:51:36Z</time>
      </trkpt>
      <trkpt lat="40.389480" lon="-5.716950">
        <ele>1151</ele>
        <time>2022-12-04T02:51:40Z</time>
      </trkpt>
      <trkpt lat="40.389090" lon="-5.717130">
        <ele>1155</ele>
        <time>2022-12-04T02:51:47Z</time>
      </trkpt>
      <trkpt lat="40.388920" lon="-5.717230">
        <ele>1157</ele>
        <time>2022-12-04T02:51:50Z</time>
      </trkpt>
      <trkpt lat="40.388890" lon="-5.717300">
        <ele>1156</ele>
        <time>2022-12-04T02:51:51Z</time>
      </trkpt>
      <trkpt lat="40.388890" lon="-5.717420">
        <ele>1154</ele>
        <time>2022-12-04T02:51:53Z</time>
      </trkpt>
      <trkpt lat="40.388910" lon="-5.717520">
        <ele>1153</ele>
        <time>2022-12-04T02:51:54Z</time>
      </trkpt>
      <trkpt lat="40.388960" lon="-5.717620">
        <ele>1153</ele>
        <time>2022-12-04T02:51:56Z</time>
      </trkpt>
      <trkpt lat="40.389080" lon="-5.717760">
        <ele>1151</ele>
        <time>2022-12-04T02:51:59Z</time>
      </trkpt>
      <trkpt lat="40.389140" lon="-5.717840">
        <ele>1150</ele>
        <time>2022-12-04T02:52:00Z</time>
      </trkpt>
      <trkpt lat="40.389170" lon="-5.717930">
        <ele>1150</ele>
        <time>2022-12-04T02:52:02Z</time>
      </trkpt>
      <trkpt lat="40.389170" lon="-5.718030">
        <ele>1150</ele>
        <time>2022-12-04T02:52:03Z</time>
      </trkpt>
      <trkpt lat="40.389140" lon="-5.718100">
        <ele>1151</ele>
        <time>2022-12-04T02:52:04Z</time>
      </trkpt>
      <trkpt lat="40.388300" lon="-5.719520">
        <ele>1160</ele>
        <time>2022-12-04T02:52:28Z</time>
      </trkpt>
      <trkpt lat="40.388220" lon="-5.719630">
        <ele>1161</ele>
        <time>2022-12-04T02:52:31Z</time>
      </trkpt>
      <trkpt lat="40.388110" lon="-5.719720">
        <ele>1161</ele>
        <time>2022-12-04T02:52:33Z</time>
      </trkpt>
      <trkpt lat="40.387540" lon="-5.720010">
        <ele>1164</ele>
        <time>2022-12-04T02:52:44Z</time>
      </trkpt>
      <trkpt lat="40.387470" lon="-5.720040">
        <ele>1164</ele>
        <time>2022-12-04T02:52:45Z</time>
      </trkpt>
      <trkpt lat="40.387380" lon="-5.720040">
        <ele>1165</ele>
        <time>2022-12-04T02:52:47Z</time>
      </trkpt>
      <trkpt lat="40.386920" lon="-5.719800">
        <ele>1173</ele>
        <time>2022-12-04T02:52:55Z</time>
      </trkpt>
      <trkpt lat="40.386700" lon="-5.719710">
        <ele>1177</ele>
        <time>2022-12-04T02:53:00Z</time>
      </trkpt>
      <trkpt lat="40.385900" lon="-5.719540">
        <ele>1189</ele>
        <time>2022-12-04T02:53:14Z</time>
      </trkpt>
      <trkpt lat="40.385450" lon="-5.719380">
        <ele>1194</ele>
        <time>2022-12-04T02:53:22Z</time>
      </trkpt>
      <trkpt lat="40.385360" lon="-5.719400">
        <ele>1195</ele>
        <time>2022-12-04T02:53:24Z</time>
      </trkpt>
      <trkpt lat="40.385210" lon="-5.719500">
        <ele>1195</ele>
        <time>2022-12-04T02:53:27Z</time>
      </trkpt>
      <trkpt lat="40.385070" lon="-5.719600">
        <ele>1195</ele>
        <time>2022-12-04T02:53:30Z</time>
      </trkpt>
      <trkpt lat="40.384990" lon="-5.719720">
        <ele>1196</ele>
        <time>2022-12-04T02:53:32Z</time>
      </trkpt>
      <trkpt lat="40.384960" lon="-5.719810">
        <ele>1196</ele>
        <time>2022-12-04T02:53:33Z</time>
      </trkpt>
      <trkpt lat="40.384950" lon="-5.719940">
        <ele>1196</ele>
        <time>2022-12-04T02:53:35Z</time>
      </trkpt>
      <trkpt lat="40.384990" lon="-5.720370">
        <ele>1196</ele>
        <time>2022-12-04T02:53:41Z</time>
      </trkpt>
      <trkpt lat="40.384940" lon="-5.720580">
        <ele>1197</ele>
        <time>2022-12-04T02:53:44Z</time>
      </trkpt>
      <trkpt lat="40.384770" lon="-5.721020">
        <ele>1199</ele>
        <time>2022-12-04T02:53:51Z</time>
      </trkpt>
      <trkpt lat="40.384620" lon="-5.721340">
        <ele>1200</ele>
        <time>2022-12-04T02:53:56Z</time>
      </trkpt>
      <trkpt lat="40.384550" lon="-5.721460">
        <ele>1200</ele>
        <time>2022-12-04T02:53:58Z</time>
      </trkpt>
      <trkpt lat="40.384450" lon="-5.721590">
        <ele>1201</ele>
        <time>2022-12-04T02:54:00Z</time>
      </trkpt>
      <trkpt lat="40.384050" lon="-5.722060">
        <ele>1200</ele>
        <time>2022-12-04T02:54:10Z</time>
      </trkpt>
      <trkpt lat="40.383740" lon="-5.722330">
        <ele>1199</ele>
        <time>2022-12-04T02:54:16Z</time>
      </trkpt>
      <trkpt lat="40.381540" lon="-5.724030">
        <ele>1190</ele>
        <time>2022-12-04T02:55:02Z</time>
      </trkpt>
      <trkpt lat="40.381040" lon="-5.724350">
        <ele>1187</ele>
        <time>2022-12-04T02:55:12Z</time>
      </trkpt>
      <trkpt lat="40.380660" lon="-5.724480">
        <ele>1186</ele>
        <time>2022-12-04T02:55:19Z</time>
      </trkpt>
      <trkpt lat="40.380430" lon="-5.724620">
        <ele>1185</ele>
        <time>2022-12-04T02:55:23Z</time>
      </trkpt>
      <trkpt lat="40.380200" lon="-5.724870">
        <ele>1182</ele>
        <time>2022-12-04T02:55:28Z</time>
      </trkpt>
      <trkpt lat="40.379980" lon="-5.725170">
        <ele>1180</ele>
        <time>2022-12-04T02:55:34Z</time>
      </trkpt>
      <trkpt lat="40.378880" lon="-5.726790">
        <ele>1174</ele>
        <time>2022-12-04T02:56:04Z</time>
      </trkpt>
      <trkpt lat="40.378660" lon="-5.727150">
        <ele>1172</ele>
        <time>2022-12-04T02:56:10Z</time>
      </trkpt>
      <trkpt lat="40.378510" lon="-5.727470">
        <ele>1170</ele>
        <time>2022-12-04T02:56:15Z</time>
      </trkpt>
      <trkpt lat="40.378450" lon="-5.727650">
        <ele>1169</ele>
        <time>2022-12-04T02:56:18Z</time>
      </trkpt>
      <trkpt lat="40.378400" lon="-5.727860">
        <ele>1168</ele>
        <time>2022-12-04T02:56:21Z</time>
      </trkpt>
      <trkpt lat="40.378200" lon="-5.728990">
        <ele>1161</ele>
        <time>2022-12-04T02:56:36Z</time>
      </trkpt>
      <trkpt lat="40.378170" lon="-5.729260">
        <ele>1159</ele>
        <time>2022-12-04T02:56:40Z</time>
      </trkpt>
      <trkpt lat="40.378120" lon="-5.730490">
        <ele>1155</ele>
        <time>2022-12-04T02:56:57Z</time>
      </trkpt>
      <trkpt lat="40.378090" lon="-5.730620">
        <ele>1154</ele>
        <time>2022-12-04T02:56:58Z</time>
      </trkpt>
      <trkpt lat="40.377890" lon="-5.730960">
        <ele>1153</ele>
        <time>2022-12-04T02:57:04Z</time>
      </trkpt>
      <trkpt lat="40.377660" lon="-5.731280">
        <ele>1152</ele>
        <time>2022-12-04T02:57:10Z</time>
      </trkpt>
      <trkpt lat="40.377440" lon="-5.731640">
        <ele>1149</ele>
        <time>2022-12-04T02:57:17Z</time>
      </trkpt>
      <trkpt lat="40.376740" lon="-5.733180">
        <ele>1142</ele>
        <time>2022-12-04T02:57:41Z</time>
      </trkpt>
      <trkpt lat="40.376270" lon="-5.734460">
        <ele>1139</ele>
        <time>2022-12-04T02:58:00Z</time>
      </trkpt>
      <trkpt lat="40.376180" lon="-5.734560">
        <ele>1138</ele>
        <time>2022-12-04T02:58:02Z</time>
      </trkpt>
      <trkpt lat="40.376100" lon="-5.734610">
        <ele>1137</ele>
        <time>2022-12-04T02:58:04Z</time>
      </trkpt>
      <trkpt lat="40.375970" lon="-5.734640">
        <ele>1136</ele>
        <time>2022-12-04T02:58:06Z</time>
      </trkpt>
      <trkpt lat="40.375800" lon="-5.734640">
        <ele>1134</ele>
        <time>2022-12-04T02:58:09Z</time>
      </trkpt>
      <trkpt lat="40.375680" lon="-5.734620">
        <ele>1132</ele>
        <time>2022-12-04T02:58:11Z</time>
      </trkpt>
      <trkpt lat="40.375430" lon="-5.734510">
        <ele>1129</ele>
        <time>2022-12-04T02:58:16Z</time>
      </trkpt>
      <trkpt lat="40.375330" lon="-5.734440">
        <ele>1128</ele>
        <time>2022-12-04T02:58:18Z</time>
      </trkpt>
      <trkpt lat="40.375250" lon="-5.734350">
        <ele>1128</ele>
        <time>2022-12-04T02:58:20Z</time>
      </trkpt>
      <trkpt lat="40.375190" lon="-5.734230">
        <ele>1128</ele>
        <time>2022-12-04T02:58:22Z</time>
      </trkpt>
      <trkpt lat="40.375120" lon="-5.733960">
        <ele>1127</ele>
        <time>2022-12-04T02:58:26Z</time>
      </trkpt>
      <trkpt lat="40.375110" lon="-5.733530">
        <ele>1126</ele>
        <time>2022-12-04T02:58:32Z</time>
      </trkpt>
      <trkpt lat="40.375150" lon="-5.732940">
        <ele>1125</ele>
        <time>2022-12-04T02:58:40Z</time>
      </trkpt>
      <trkpt lat="40.375140" lon="-5.732800">
        <ele>1125</ele>
        <time>2022-12-04T02:58:41Z</time>
      </trkpt>
      <trkpt lat="40.375100" lon="-5.732690">
        <ele>1124</ele>
        <time>2022-12-04T02:58:43Z</time>
      </trkpt>
      <trkpt lat="40.375020" lon="-5.732540">
        <ele>1123</ele>
        <time>2022-12-04T02:58:46Z</time>
      </trkpt>
      <trkpt lat="40.374950" lon="-5.732470">
        <ele>1123</ele>
        <time>2022-12-04T02:58:47Z</time>
      </trkpt>
      <trkpt lat="40.374840" lon="-5.732430">
        <ele>1122</ele>
        <time>2022-12-04T02:58:49Z</time>
      </trkpt>
      <trkpt lat="40.374770" lon="-5.732440">
        <ele>1121</ele>
        <time>2022-12-04T02:58:50Z</time>
      </trkpt>
      <trkpt lat="40.374410" lon="-5.732680">
        <ele>1116</ele>
        <time>2022-12-04T02:58:58Z</time>
      </trkpt>
      <trkpt lat="40.374290" lon="-5.732690">
        <ele>1115</ele>
        <time>2022-12-04T02:59:00Z</time>
      </trkpt>
      <trkpt lat="40.374140" lon="-5.732630">
        <ele>1114</ele>
        <time>2022-12-04T02:59:03Z</time>
      </trkpt>
      <trkpt lat="40.374010" lon="-5.732530">
        <ele>1115</ele>
        <time>2022-12-04T02:59:05Z</time>
      </trkpt>
      <trkpt lat="40.373950" lon="-5.732440">
        <ele>1116</ele>
        <time>2022-12-04T02:59:07Z</time>
      </trkpt>
      <trkpt lat="40.373920" lon="-5.732350">
        <ele>1117</ele>
        <time>2022-12-04T02:59:08Z</time>
      </trkpt>
      <trkpt lat="40.373910" lon="-5.732020">
        <ele>1121</ele>
        <time>2022-12-04T02:59:13Z</time>
      </trkpt>
      <trkpt lat="40.373880" lon="-5.731970">
        <ele>1122</ele>
        <time>2022-12-04T02:59:14Z</time>
      </trkpt>
      <trkpt lat="40.373820" lon="-5.731920">
        <ele>1123</ele>
        <time>2022-12-04T02:59:15Z</time>
      </trkpt>
      <trkpt lat="40.373720" lon="-5.731880">
        <ele>1123</ele>
        <time>2022-12-04T02:59:17Z</time>
      </trkpt>
      <trkpt lat="40.373610" lon="-5.731910">
        <ele>1123</ele>
        <time>2022-12-04T02:59:19Z</time>
      </trkpt>
      <trkpt lat="40.373570" lon="-5.731980">
        <ele>1122</ele>
        <time>2022-12-04T02:59:20Z</time>
      </trkpt>
      <trkpt lat="40.373550" lon="-5.732260">
        <ele>1120</ele>
        <time>2022-12-04T02:59:24Z</time>
      </trkpt>
      <trkpt lat="40.373510" lon="-5.732380">
        <ele>1119</ele>
        <time>2022-12-04T02:59:25Z</time>
      </trkpt>
      <trkpt lat="40.373450" lon="-5.732460">
        <ele>1119</ele>
        <time>2022-12-04T02:59:27Z</time>
      </trkpt>
      <trkpt lat="40.373150" lon="-5.732720">
        <ele>1121</ele>
        <time>2022-12-04T02:59:33Z</time>
      </trkpt>
      <trkpt lat="40.373010" lon="-5.732880">
        <ele>1122</ele>
        <time>2022-12-04T02:59:37Z</time>
      </trkpt>
      <trkpt lat="40.372800" lon="-5.733400">
        <ele>1124</ele>
        <time>2022-12-04T02:59:45Z</time>
      </trkpt>
      <trkpt lat="40.372740" lon="-5.733550">
        <ele>1125</ele>
        <time>2022-12-04T02:59:47Z</time>
      </trkpt>
      <trkpt lat="40.372700" lon="-5.733750">
        <ele>1125</ele>
        <time>2022-12-04T02:59:50Z</time>
      </trkpt>
      <trkpt lat="40.372690" lon="-5.734010">
        <ele>1124</ele>
        <time>2022-12-04T02:59:53Z</time>
      </trkpt>
      <trkpt lat="40.372670" lon="-5.734230">
        <ele>1124</ele>
        <time>2022-12-04T02:59:56Z</time>
      </trkpt>
      <trkpt lat="40.372600" lon="-5.734550">
        <ele>1124</ele>
        <time>2022-12-04T03:00:01Z</time>
      </trkpt>
      <trkpt lat="40.372510" lon="-5.734830">
        <ele>1125</ele>
        <time>2022-12-04T03:00:05Z</time>
      </trkpt>
      <trkpt lat="40.372110" lon="-5.735810">
        <ele>1123</ele>
        <time>2022-12-04T03:00:20Z</time>
      </trkpt>
      <trkpt lat="40.372030" lon="-5.735920">
        <ele>1123</ele>
        <time>2022-12-04T03:00:22Z</time>
      </trkpt>
      <trkpt lat="40.371950" lon="-5.735980">
        <ele>1124</ele>
        <time>2022-12-04T03:00:24Z</time>
      </trkpt>
      <trkpt lat="40.371860" lon="-5.736010">
        <ele>1125</ele>
        <time>2022-12-04T03:00:25Z</time>
      </trkpt>
      <trkpt lat="40.371060" lon="-5.736080">
        <ele>1131</ele>
        <time>2022-12-04T03:00:40Z</time>
      </trkpt>
      <trkpt lat="40.370870" lon="-5.735990">
        <ele>1133</ele>
        <time>2022-12-04T03:00:43Z</time>
      </trkpt>
      <trkpt lat="40.370310" lon="-5.735540">
        <ele>1138</ele>
        <time>2022-12-04T03:00:55Z</time>
      </trkpt>
      <trkpt lat="40.370230" lon="-5.735510">
        <ele>1139</ele>
        <time>2022-12-04T03:00:56Z</time>
      </trkpt>
      <trkpt lat="40.369080" lon="-5.735380">
        <ele>1141</ele>
        <time>2022-12-04T03:01:17Z</time>
      </trkpt>
      <trkpt lat="40.368530" lon="-5.735370">
        <ele>1143</ele>
        <time>2022-12-04T03:01:27Z</time>
      </trkpt>
      <trkpt lat="40.368460" lon="-5.735400">
        <ele>1142</ele>
        <time>2022-12-04T03:01:28Z</time>
      </trkpt>
      <trkpt lat="40.368410" lon="-5.735490">
        <ele>1142</ele>
        <time>2022-12-04T03:01:29Z</time>
      </trkpt>
      <trkpt lat="40.368380" lon="-5.735590">
        <ele>1140</ele>
        <time>2022-12-04T03:01:31Z</time>
      </trkpt>
      <trkpt lat="40.368320" lon="-5.736210">
        <ele>1137</ele>
        <time>2022-12-04T03:01:39Z</time>
      </trkpt>
      <trkpt lat="40.368240" lon="-5.736320">
        <ele>1137</ele>
        <time>2022-12-04T03:01:41Z</time>
      </trkpt>
      <trkpt lat="40.368170" lon="-5.736360">
        <ele>1137</ele>
        <time>2022-12-04T03:01:43Z</time>
      </trkpt>
      <trkpt lat="40.367340" lon="-5.736670">
        <ele>1140</ele>
        <time>2022-12-04T03:01:58Z</time>
      </trkpt>
      <trkpt lat="40.366530" lon="-5.737050">
        <ele>1139</ele>
        <time>2022-12-04T03:02:13Z</time>
      </trkpt>
      <trkpt lat="40.366230" lon="-5.737100">
        <ele>1140</ele>
        <time>2022-12-04T03:02:19Z</time>
      </trkpt>
      <trkpt lat="40.365900" lon="-5.737090">
        <ele>1141</ele>
        <time>2022-12-04T03:02:25Z</time>
      </trkpt>
      <trkpt lat="40.365530" lon="-5.737020">
        <ele>1143</ele>
        <time>2022-12-04T03:02:31Z</time>
      </trkpt>
      <trkpt lat="40.365350" lon="-5.737020">
        <ele>1144</ele>
        <time>2022-12-04T03:02:35Z</time>
      </trkpt>
      <trkpt lat="40.365220" lon="-5.737110">
        <ele>1143</ele>
        <time>2022-12-04T03:02:37Z</time>
      </trkpt>
      <trkpt lat="40.365120" lon="-5.737140">
        <ele>1143</ele>
        <time>2022-12-04T03:02:39Z</time>
      </trkpt>
      <trkpt lat="40.364890" lon="-5.737150">
        <ele>1144</ele>
        <time>2022-12-04T03:02:43Z</time>
      </trkpt>
      <trkpt lat="40.364840" lon="-5.737190">
        <ele>1144</ele>
        <time>2022-12-04T03:02:44Z</time>
      </trkpt>
      <trkpt lat="40.364800" lon="-5.737270">
        <ele>1143</ele>
        <time>2022-12-04T03:02:45Z</time>
      </trkpt>
      <trkpt lat="40.364710" lon="-5.737470">
        <ele>1141</ele>
        <time>2022-12-04T03:02:49Z</time>
      </trkpt>
      <trkpt lat="40.364660" lon="-5.737850">
        <ele>1140</ele>
        <time>2022-12-04T03:02:54Z</time>
      </trkpt>
      <trkpt lat="40.364620" lon="-5.737930">
        <ele>1140</ele>
        <time>2022-12-04T03:02:55Z</time>
      </trkpt>
      <trkpt lat="40.364540" lon="-5.738020">
        <ele>1140</ele>
        <time>2022-12-04T03:02:57Z</time>
      </trkpt>
      <trkpt lat="40.364510" lon="-5.738140">
        <ele>1140</ele>
        <time>2022-12-04T03:02:59Z</time>
      </trkpt>
      <trkpt lat="40.364420" lon="-5.738750">
        <ele>1143</ele>
        <time>2022-12-04T03:03:07Z</time>
      </trkpt>
      <trkpt lat="40.364410" lon="-5.738940">
        <ele>1144</ele>
        <time>2022-12-04T03:03:10Z</time>
      </trkpt>
      <trkpt lat="40.364450" lon="-5.739250">
        <ele>1146</ele>
        <time>2022-12-04T03:03:14Z</time>
      </trkpt>
      <trkpt lat="40.364510" lon="-5.739430">
        <ele>1147</ele>
        <time>2022-12-04T03:03:17Z</time>
      </trkpt>
      <trkpt lat="40.364560" lon="-5.739480">
        <ele>1147</ele>
        <time>2022-12-04T03:03:18Z</time>
      </trkpt>
      <trkpt lat="40.364850" lon="-5.739450">
        <ele>1143</ele>
        <time>2022-12-04T03:03:23Z</time>
      </trkpt>
      <trkpt lat="40.364920" lon="-5.739480">
        <ele>1143</ele>
        <time>2022-12-04T03:03:24Z</time>
      </trkpt>
      <trkpt lat="40.365100" lon="-5.739720">
        <ele>1142</ele>
        <time>2022-12-04T03:03:29Z</time>
      </trkpt>
      <trkpt lat="40.365150" lon="-5.739840">
        <ele>1143</ele>
        <time>2022-12-04T03:03:31Z</time>
      </trkpt>
      <trkpt lat="40.365160" lon="-5.739910">
        <ele>1143</ele>
        <time>2022-12-04T03:03:32Z</time>
      </trkpt>
      <trkpt lat="40.364900" lon="-5.740020">
        <ele>1147</ele>
        <time>2022-12-04T03:03:37Z</time>
      </trkpt>
      <trkpt lat="40.364970" lon="-5.740550">
        <ele>1148</ele>
        <time>2022-12-04T03:03:44Z</time>
      </trkpt>
      <trkpt lat="40.364980" lon="-5.740910">
        <ele>1148</ele>
        <time>2022-12-04T03:03:49Z</time>
      </trkpt>
      <trkpt lat="40.365030" lon="-5.741070">
        <ele>1148</ele>
        <time>2022-12-04T03:03:51Z</time>
      </trkpt>
      <trkpt lat="40.365160" lon="-5.741300">
        <ele>1146</ele>
        <time>2022-12-04T03:03:55Z</time>
      </trkpt>
      <trkpt lat="40.365170" lon="-5.741360">
        <ele>1145</ele>
        <time>2022-12-04T03:03:56Z</time>
      </trkpt>
      <trkpt lat="40.365060" lon="-5.741430">
        <ele>1148</ele>
        <time>2022-12-04T03:03:58Z</time>
      </trkpt>
      <trkpt lat="40.364930" lon="-5.741620">
        <ele>1151</ele>
        <time>2022-12-04T03:04:01Z</time>
      </trkpt>
      <trkpt lat="40.364780" lon="-5.741730">
        <ele>1155</ele>
        <time>2022-12-04T03:04:04Z</time>
      </trkpt>
      <trkpt lat="40.365020" lon="-5.742200">
        <ele>1147</ele>
        <time>2022-12-04T03:04:12Z</time>
      </trkpt>
      <trkpt lat="40.365100" lon="-5.742480">
        <ele>1143</ele>
        <time>2022-12-04T03:04:16Z</time>
      </trkpt>
      <trkpt lat="40.365160" lon="-5.742720">
        <ele>1139</ele>
        <time>2022-12-04T03:04:20Z</time>
      </trkpt>
      <trkpt lat="40.365200" lon="-5.742790">
        <ele>1137</ele>
        <time>2022-12-04T03:04:21Z</time>
      </trkpt>
      <trkpt lat="40.365200" lon="-5.742920">
        <ele>1136</ele>
        <time>2022-12-04T03:04:23Z</time>
      </trkpt>
      <trkpt lat="40.365160" lon="-5.743270">
        <ele>1133</ele>
        <time>2022-12-04T03:04:27Z</time>
      </trkpt>
      <trkpt lat="40.365160" lon="-5.743330">
        <ele>1132</ele>
        <time>2022-12-04T03:04:28Z</time>
      </trkpt>
      <trkpt lat="40.365250" lon="-5.743640">
        <ele>1128</ele>
        <time>2022-12-04T03:04:33Z</time>
      </trkpt>
      <trkpt lat="40.365250" lon="-5.743880">
        <ele>1127</ele>
        <time>2022-12-04T03:04:36Z</time>
      </trkpt>
      <trkpt lat="40.365200" lon="-5.744240">
        <ele>1126</ele>
        <time>2022-12-04T03:04:41Z</time>
      </trkpt>
      <trkpt lat="40.365240" lon="-5.744460">
        <ele>1125</ele>
        <time>2022-12-04T03:04:44Z</time>
      </trkpt>
      <trkpt lat="40.365310" lon="-5.744470">
        <ele>1123</ele>
        <time>2022-12-04T03:04:45Z</time>
      </trkpt>
      <trkpt lat="40.365340" lon="-5.744510">
        <ele>1122</ele>
        <time>2022-12-04T03:04:46Z</time>
      </trkpt>
      <trkpt lat="40.365360" lon="-5.744640">
        <ele>1121</ele>
        <time>2022-12-04T03:04:48Z</time>
      </trkpt>
      <trkpt lat="40.365300" lon="-5.744880">
        <ele>1123</ele>
        <time>2022-12-04T03:04:51Z</time>
      </trkpt>
      <trkpt lat="40.365260" lon="-5.745340">
        <ele>1121</ele>
        <time>2022-12-04T03:04:57Z</time>
      </trkpt>
      <trkpt lat="40.365210" lon="-5.745810">
        <ele>1120</ele>
        <time>2022-12-04T03:05:04Z</time>
      </trkpt>
      <trkpt lat="40.365210" lon="-5.746100">
        <ele>1119</ele>
        <time>2022-12-04T03:05:08Z</time>
      </trkpt>
      <trkpt lat="40.365230" lon="-5.746190">
        <ele>1119</ele>
        <time>2022-12-04T03:05:09Z</time>
      </trkpt>
      <trkpt lat="40.365270" lon="-5.746300">
        <ele>1118</ele>
        <time>2022-12-04T03:05:11Z</time>
      </trkpt>
      <trkpt lat="40.365400" lon="-5.746540">
        <ele>1115</ele>
        <time>2022-12-04T03:05:15Z</time>
      </trkpt>
      <trkpt lat="40.365430" lon="-5.746630">
        <ele>1114</ele>
        <time>2022-12-04T03:05:16Z</time>
      </trkpt>
      <trkpt lat="40.365440" lon="-5.746770">
        <ele>1114</ele>
        <time>2022-12-04T03:05:18Z</time>
      </trkpt>
      <trkpt lat="40.365420" lon="-5.747020">
        <ele>1113</ele>
        <time>2022-12-04T03:05:21Z</time>
      </trkpt>
      <trkpt lat="40.365350" lon="-5.747220">
        <ele>1113</ele>
        <time>2022-12-04T03:05:24Z</time>
      </trkpt>
      <trkpt lat="40.365180" lon="-5.747590">
        <ele>1114</ele>
        <time>2022-12-04T03:05:30Z</time>
      </trkpt>
      <trkpt lat="40.365160" lon="-5.747670">
        <ele>1114</ele>
        <time>2022-12-04T03:05:31Z</time>
      </trkpt>
      <trkpt lat="40.365160" lon="-5.747840">
        <ele>1112</ele>
        <time>2022-12-04T03:05:34Z</time>
      </trkpt>
      <trkpt lat="40.365240" lon="-5.748230">
        <ele>1108</ele>
        <time>2022-12-04T03:05:39Z</time>
      </trkpt>
      <trkpt lat="40.365250" lon="-5.748560">
        <ele>1107</ele>
        <time>2022-12-04T03:05:44Z</time>
      </trkpt>
      <trkpt lat="40.365210" lon="-5.748870">
        <ele>1106</ele>
        <time>2022-12-04T03:05:48Z</time>
      </trkpt>
      <trkpt lat="40.365150" lon="-5.749080">
        <ele>1106</ele>
        <time>2022-12-04T03:05:51Z</time>
      </trkpt>
      <trkpt lat="40.365150" lon="-5.749220">
        <ele>1105</ele>
        <time>2022-12-04T03:05:53Z</time>
      </trkpt>
      <trkpt lat="40.365190" lon="-5.749270">
        <ele>1105</ele>
        <time>2022-12-04T03:05:54Z</time>
      </trkpt>
      <trkpt lat="40.365270" lon="-5.749300">
        <ele>1104</ele>
        <time>2022-12-04T03:05:55Z</time>
      </trkpt>
      <trkpt lat="40.365360" lon="-5.749270">
        <ele>1103</ele>
        <time>2022-12-04T03:05:57Z</time>
      </trkpt>
      <trkpt lat="40.365340" lon="-5.749400">
        <ele>1104</ele>
        <time>2022-12-04T03:05:59Z</time>
      </trkpt>
      <trkpt lat="40.365070" lon="-5.750070">
        <ele>1107</ele>
        <time>2022-12-04T03:06:09Z</time>
      </trkpt>
      <trkpt lat="40.364880" lon="-5.750530">
        <ele>1110</ele>
        <time>2022-12-04T03:06:16Z</time>
      </trkpt>
      <trkpt lat="40.364430" lon="-5.751480">
        <ele>1112</ele>
        <time>2022-12-04T03:06:31Z</time>
      </trkpt>
      <trkpt lat="40.363980" lon="-5.752140">
        <ele>1112</ele>
        <time>2022-12-04T03:06:43Z</time>
      </trkpt>
      <trkpt lat="40.363850" lon="-5.752410">
        <ele>1112</ele>
        <time>2022-12-04T03:06:48Z</time>
      </trkpt>
      <trkpt lat="40.363630" lon="-5.753000">
        <ele>1115</ele>
        <time>2022-12-04T03:06:57Z</time>
      </trkpt>
      <trkpt lat="40.363450" lon="-5.753340">
        <ele>1117</ele>
        <time>2022-12-04T03:07:02Z</time>
      </trkpt>
      <trkpt lat="40.363400" lon="-5.753490">
        <ele>1118</ele>
        <time>2022-12-04T03:07:04Z</time>
      </trkpt>
      <trkpt lat="40.363370" lon="-5.753710">
        <ele>1119</ele>
        <time>2022-12-04T03:07:07Z</time>
      </trkpt>
      <trkpt lat="40.363210" lon="-5.754400">
        <ele>1120</ele>
        <time>2022-12-04T03:07:17Z</time>
      </trkpt>
      <trkpt lat="40.363130" lon="-5.754650">
        <ele>1120</ele>
        <time>2022-12-04T03:07:21Z</time>
      </trkpt>
      <trkpt lat="40.362460" lon="-5.756080">
        <ele>1121</ele>
        <time>2022-12-04T03:07:44Z</time>
      </trkpt>
      <trkpt lat="40.362350" lon="-5.756260">
        <ele>1121</ele>
        <time>2022-12-04T03:07:47Z</time>
      </trkpt>
      <trkpt lat="40.362230" lon="-5.756400">
        <ele>1120</ele>
        <time>2022-12-04T03:07:50Z</time>
      </trkpt>
      <trkpt lat="40.361780" lon="-5.756750">
        <ele>1118</ele>
        <time>2022-12-04T03:07:59Z</time>
      </trkpt>
      <trkpt lat="40.361430" lon="-5.757000">
        <ele>1117</ele>
        <time>2022-12-04T03:08:06Z</time>
      </trkpt>
      <trkpt lat="40.361280" lon="-5.757090">
        <ele>1118</ele>
        <time>2022-12-04T03:08:09Z</time>
      </trkpt>
      <trkpt lat="40.361150" lon="-5.757110">
        <ele>1119</ele>
        <time>2022-12-04T03:08:11Z</time>
      </trkpt>
      <trkpt lat="40.360750" lon="-5.757120">
        <ele>1124</ele>
        <time>2022-12-04T03:08:18Z</time>
      </trkpt>
      <trkpt lat="40.360440" lon="-5.757180">
        <ele>1131</ele>
        <time>2022-12-04T03:08:24Z</time>
      </trkpt>
      <trkpt lat="40.360350" lon="-5.757240">
        <ele>1133</ele>
        <time>2022-12-04T03:08:26Z</time>
      </trkpt>
      <trkpt lat="40.360320" lon="-5.757360">
        <ele>1132</ele>
        <time>2022-12-04T03:08:27Z</time>
      </trkpt>
      <trkpt lat="40.360320" lon="-5.757550">
        <ele>1130</ele>
        <time>2022-12-04T03:08:30Z</time>
      </trkpt>
      <trkpt lat="40.360370" lon="-5.757730">
        <ele>1127</ele>
        <time>2022-12-04T03:08:33Z</time>
      </trkpt>
      <trkpt lat="40.360360" lon="-5.757860">
        <ele>1126</ele>
        <time>2022-12-04T03:08:34Z</time>
      </trkpt>
      <trkpt lat="40.360310" lon="-5.758070">
        <ele>1125</ele>
        <time>2022-12-04T03:08:37Z</time>
      </trkpt>
      <trkpt lat="40.360220" lon="-5.758260">
        <ele>1126</ele>
        <time>2022-12-04T03:08:40Z</time>
      </trkpt>
      <trkpt lat="40.360030" lon="-5.758460">
        <ele>1129</ele>
        <time>2022-12-04T03:08:45Z</time>
      </trkpt>
      <trkpt lat="40.359910" lon="-5.758610">
        <ele>1130</ele>
        <time>2022-12-04T03:08:48Z</time>
      </trkpt>
      <trkpt lat="40.359540" lon="-5.759350">
        <ele>1127</ele>
        <time>2022-12-04T03:09:00Z</time>
      </trkpt>
      <trkpt lat="40.358840" lon="-5.760090">
        <ele>1130</ele>
        <time>2022-12-04T03:09:16Z</time>
      </trkpt>
      <trkpt lat="40.358450" lon="-5.760280">
        <ele>1134</ele>
        <time>2022-12-04T03:09:23Z</time>
      </trkpt>
      <trkpt lat="40.358010" lon="-5.760420">
        <ele>1133</ele>
        <time>2022-12-04T03:09:31Z</time>
      </trkpt>
      <trkpt lat="40.357590" lon="-5.760430">
        <ele>1132</ele>
        <time>2022-12-04T03:09:39Z</time>
      </trkpt>
      <trkpt lat="40.357370" lon="-5.760500">
        <ele>1131</ele>
        <time>2022-12-04T03:09:43Z</time>
      </trkpt>
      <trkpt lat="40.357000" lon="-5.760560">
        <ele>1131</ele>
        <time>2022-12-04T03:09:49Z</time>
      </trkpt>
      <trkpt lat="40.356570" lon="-5.760580">
        <ele>1134</ele>
        <time>2022-12-04T03:09:57Z</time>
      </trkpt>
      <trkpt lat="40.356410" lon="-5.760640">
        <ele>1137</ele>
        <time>2022-12-04T03:10:00Z</time>
      </trkpt>
      <trkpt lat="40.356230" lon="-5.760770">
        <ele>1138</ele>
        <time>2022-12-04T03:10:04Z</time>
      </trkpt>
      <trkpt lat="40.355940" lon="-5.761040">
        <ele>1141</ele>
        <time>2022-12-04T03:10:10Z</time>
      </trkpt>
      <trkpt lat="40.355850" lon="-5.761140">
        <ele>1141</ele>
        <time>2022-12-04T03:10:12Z</time>
      </trkpt>
      <trkpt lat="40.355750" lon="-5.761300">
        <ele>1142</ele>
        <time>2022-12-04T03:10:15Z</time>
      </trkpt>
      <trkpt lat="40.355590" lon="-5.761930">
        <ele>1139</ele>
        <time>2022-12-04T03:10:24Z</time>
      </trkpt>
      <trkpt lat="40.355540" lon="-5.762530">
        <ele>1135</ele>
        <time>2022-12-04T03:10:32Z</time>
      </trkpt>
      <trkpt lat="40.355480" lon="-5.762730">
        <ele>1135</ele>
        <time>2022-12-04T03:10:35Z</time>
      </trkpt>
      <trkpt lat="40.355060" lon="-5.763600">
        <ele>1136</ele>
        <time>2022-12-04T03:10:49Z</time>
      </trkpt>
      <trkpt lat="40.354640" lon="-5.764280">
        <ele>1137</ele>
        <time>2022-12-04T03:11:01Z</time>
      </trkpt>
      <trkpt lat="40.354300" lon="-5.764560">
        <ele>1140</ele>
        <time>2022-12-04T03:11:08Z</time>
      </trkpt>
      <trkpt lat="40.354180" lon="-5.764740">
        <ele>1139</ele>
        <time>2022-12-04T03:11:11Z</time>
      </trkpt>
      <trkpt lat="40.354070" lon="-5.765030">
        <ele>1138</ele>
        <time>2022-12-04T03:11:15Z</time>
      </trkpt>
      <trkpt lat="40.353970" lon="-5.765190">
        <ele>1138</ele>
        <time>2022-12-04T03:11:18Z</time>
      </trkpt>
      <trkpt lat="40.353680" lon="-5.765550">
        <ele>1137</ele>
        <time>2022-12-04T03:11:25Z</time>
      </trkpt>
      <trkpt lat="40.353490" lon="-5.765730">
        <ele>1136</ele>
        <time>2022-12-04T03:11:30Z</time>
      </trkpt>
      <trkpt lat="40.353190" lon="-5.765900">
        <ele>1136</ele>
        <time>2022-12-04T03:11:35Z</time>
      </trkpt>
      <trkpt lat="40.352420" lon="-5.766160">
        <ele>1140</ele>
        <time>2022-12-04T03:11:50Z</time>
      </trkpt>
      <trkpt lat="40.351920" lon="-5.766380">
        <ele>1139</ele>
        <time>2022-12-04T03:11:59Z</time>
      </trkpt>
      <trkpt lat="40.351700" lon="-5.766370">
        <ele>1142</ele>
        <time>2022-12-04T03:12:03Z</time>
      </trkpt>
      <trkpt lat="40.351080" lon="-5.766000">
        <ele>1152</ele>
        <time>2022-12-04T03:12:15Z</time>
      </trkpt>
      <trkpt lat="40.350910" lon="-5.765940">
        <ele>1153</ele>
        <time>2022-12-04T03:12:18Z</time>
      </trkpt>
      <trkpt lat="40.350580" lon="-5.765960">
        <ele>1153</ele>
        <time>2022-12-04T03:12:24Z</time>
      </trkpt>
      <trkpt lat="40.350160" lon="-5.766040">
        <ele>1151</ele>
        <time>2022-12-04T03:12:31Z</time>
      </trkpt>
      <trkpt lat="40.350050" lon="-5.766050">
        <ele>1150</ele>
        <time>2022-12-04T03:12:33Z</time>
      </trkpt>
      <trkpt lat="40.349930" lon="-5.766030">
        <ele>1151</ele>
        <time>2022-12-04T03:12:36Z</time>
      </trkpt>
      <trkpt lat="40.349750" lon="-5.765940">
        <ele>1152</ele>
        <time>2022-12-04T03:12:39Z</time>
      </trkpt>
      <trkpt lat="40.349630" lon="-5.765860">
        <ele>1152</ele>
        <time>2022-12-04T03:12:41Z</time>
      </trkpt>
      <trkpt lat="40.349180" lon="-5.765460">
        <ele>1159</ele>
        <time>2022-12-04T03:12:51Z</time>
      </trkpt>
      <trkpt lat="40.348970" lon="-5.765290">
        <ele>1162</ele>
        <time>2022-12-04T03:12:55Z</time>
      </trkpt>
      <trkpt lat="40.348820" lon="-5.765200">
        <ele>1163</ele>
        <time>2022-12-04T03:12:58Z</time>
      </trkpt>
      <trkpt lat="40.348570" lon="-5.765150">
        <ele>1162</ele>
        <time>2022-12-04T03:13:03Z</time>
      </trkpt>
      <trkpt lat="40.348180" lon="-5.765140">
        <ele>1160</ele>
        <time>2022-12-04T03:13:10Z</time>
      </trkpt>
      <trkpt lat="40.347810" lon="-5.765040">
        <ele>1165</ele>
        <time>2022-12-04T03:13:17Z</time>
      </trkpt>
      <trkpt lat="40.347710" lon="-5.765040">
        <ele>1165</ele>
        <time>2022-12-04T03:13:18Z</time>
      </trkpt>
      <trkpt lat="40.347510" lon="-5.765260">
        <ele>1163</ele>
        <time>2022-12-04T03:13:23Z</time>
      </trkpt>
      <trkpt lat="40.347380" lon="-5.765340">
        <ele>1163</ele>
        <time>2022-12-04T03:13:26Z</time>
      </trkpt>
      <trkpt lat="40.346940" lon="-5.765540">
        <ele>1164</ele>
        <time>2022-12-04T03:13:34Z</time>
      </trkpt>
      <trkpt lat="40.346350" lon="-5.765740">
        <ele>1165</ele>
        <time>2022-12-04T03:13:45Z</time>
      </trkpt>
      <trkpt lat="40.346230" lon="-5.765760">
        <ele>1165</ele>
        <time>2022-12-04T03:13:47Z</time>
      </trkpt>
      <trkpt lat="40.346130" lon="-5.765740">
        <ele>1166</ele>
        <time>2022-12-04T03:13:49Z</time>
      </trkpt>
      <trkpt lat="40.345890" lon="-5.765650">
        <ele>1169</ele>
        <time>2022-12-04T03:13:53Z</time>
      </trkpt>
      <trkpt lat="40.345790" lon="-5.765640">
        <ele>1170</ele>
        <time>2022-12-04T03:13:55Z</time>
      </trkpt>
      <trkpt lat="40.345570" lon="-5.765680">
        <ele>1171</ele>
        <time>2022-12-04T03:13:59Z</time>
      </trkpt>
      <trkpt lat="40.345190" lon="-5.765850">
        <ele>1172</ele>
        <time>2022-12-04T03:14:06Z</time>
      </trkpt>
      <trkpt lat="40.345030" lon="-5.765880">
        <ele>1173</ele>
        <time>2022-12-04T03:14:09Z</time>
      </trkpt>
      <trkpt lat="40.344750" lon="-5.765810">
        <ele>1175</ele>
        <time>2022-12-04T03:14:14Z</time>
      </trkpt>
      <trkpt lat="40.343930" lon="-5.765800">
        <ele>1177</ele>
        <time>2022-12-04T03:14:29Z</time>
      </trkpt>
      <trkpt lat="40.343670" lon="-5.765720">
        <ele>1179</ele>
        <time>2022-12-04T03:14:33Z</time>
      </trkpt>
      <trkpt lat="40.343200" lon="-5.765500">
        <ele>1182</ele>
        <time>2022-12-04T03:14:42Z</time>
      </trkpt>
      <trkpt lat="40.342990" lon="-5.765450">
        <ele>1184</ele>
        <time>2022-12-04T03:14:46Z</time>
      </trkpt>
      <trkpt lat="40.342890" lon="-5.765450">
        <ele>1185</ele>
        <time>2022-12-04T03:14:48Z</time>
      </trkpt>
      <trkpt lat="40.342760" lon="-5.765510">
        <ele>1185</ele>
        <time>2022-12-04T03:14:50Z</time>
      </trkpt>
      <trkpt lat="40.342400" lon="-5.765830">
        <ele>1188</ele>
        <time>2022-12-04T03:14:58Z</time>
      </trkpt>
      <trkpt lat="40.342190" lon="-5.766100">
        <ele>1190</ele>
        <time>2022-12-04T03:15:03Z</time>
      </trkpt>
      <trkpt lat="40.342130" lon="-5.766160">
        <ele>1190</ele>
        <time>2022-12-04T03:15:04Z</time>
      </trkpt>
      <trkpt lat="40.341570" lon="-5.766520">
        <ele>1192</ele>
        <time>2022-12-04T03:15:16Z</time>
      </trkpt>
      <trkpt lat="40.341310" lon="-5.766620">
        <ele>1194</ele>
        <time>2022-12-04T03:15:20Z</time>
      </trkpt>
      <trkpt lat="40.341070" lon="-5.766690">
        <ele>1196</ele>
        <time>2022-12-04T03:15:25Z</time>
      </trkpt>
      <trkpt lat="40.340840" lon="-5.766660">
        <ele>1199</ele>
        <time>2022-12-04T03:15:29Z</time>
      </trkpt>
      <trkpt lat="40.340250" lon="-5.766450">
        <ele>1207</ele>
        <time>2022-12-04T03:15:40Z</time>
      </trkpt>
      <trkpt lat="40.339680" lon="-5.766490">
        <ele>1212</ele>
        <time>2022-12-04T03:15:50Z</time>
      </trkpt>
      <trkpt lat="40.339600" lon="-5.766570">
        <ele>1211</ele>
        <time>2022-12-04T03:15:52Z</time>
      </trkpt>
      <trkpt lat="40.339600" lon="-5.766720">
        <ele>1210</ele>
        <time>2022-12-04T03:15:54Z</time>
      </trkpt>
      <trkpt lat="40.339640" lon="-5.767060">
        <ele>1208</ele>
        <time>2022-12-04T03:15:58Z</time>
      </trkpt>
      <trkpt lat="40.339790" lon="-5.767710">
        <ele>1209</ele>
        <time>2022-12-04T03:16:08Z</time>
      </trkpt>
      <trkpt lat="40.339830" lon="-5.767840">
        <ele>1212</ele>
        <time>2022-12-04T03:16:10Z</time>
      </trkpt>
      <trkpt lat="40.339870" lon="-5.767910">
        <ele>1213</ele>
        <time>2022-12-04T03:16:11Z</time>
      </trkpt>
      <trkpt lat="40.340260" lon="-5.768110">
        <ele>1214</ele>
        <time>2022-12-04T03:16:18Z</time>
      </trkpt>
      <trkpt lat="40.340640" lon="-5.768240">
        <ele>1214</ele>
        <time>2022-12-04T03:16:25Z</time>
      </trkpt>
      <trkpt lat="40.340760" lon="-5.768290">
        <ele>1214</ele>
        <time>2022-12-04T03:16:27Z</time>
      </trkpt>
      <trkpt lat="40.340960" lon="-5.768530">
        <ele>1218</ele>
        <time>2022-12-04T03:16:32Z</time>
      </trkpt>
      <trkpt lat="40.341170" lon="-5.768650">
        <ele>1217</ele>
        <time>2022-12-04T03:16:36Z</time>
      </trkpt>
      <trkpt lat="40.341260" lon="-5.768720">
        <ele>1217</ele>
        <time>2022-12-04T03:16:38Z</time>
      </trkpt>
      <trkpt lat="40.341340" lon="-5.768850">
        <ele>1219</ele>
        <time>2022-12-04T03:16:40Z</time>
      </trkpt>
      <trkpt lat="40.341530" lon="-5.769300">
        <ele>1226</ele>
        <time>2022-12-04T03:16:47Z</time>
      </trkpt>
      <trkpt lat="40.341630" lon="-5.769500">
        <ele>1230</ele>
        <time>2022-12-04T03:16:51Z</time>
      </trkpt>
      <trkpt lat="40.341710" lon="-5.769580">
        <ele>1232</ele>
        <time>2022-12-04T03:16:52Z</time>
      </trkpt>
      <trkpt lat="40.341890" lon="-5.769600">
        <ele>1231</ele>
        <time>2022-12-04T03:16:56Z</time>
      </trkpt>
      <trkpt lat="40.342180" lon="-5.769510">
        <ele>1226</ele>
        <time>2022-12-04T03:17:01Z</time>
      </trkpt>
      <trkpt lat="40.342350" lon="-5.769520">
        <ele>1225</ele>
        <time>2022-12-04T03:17:04Z</time>
      </trkpt>
      <trkpt lat="40.342460" lon="-5.769580">
        <ele>1226</ele>
        <time>2022-12-04T03:17:06Z</time>
      </trkpt>
      <trkpt lat="40.342530" lon="-5.769660">
        <ele>1227</ele>
        <time>2022-12-04T03:17:08Z</time>
      </trkpt>
      <trkpt lat="40.342550" lon="-5.769730">
        <ele>1228</ele>
        <time>2022-12-04T03:17:09Z</time>
      </trkpt>
      <trkpt lat="40.342520" lon="-5.770110">
        <ele>1239</ele>
        <time>2022-12-04T03:17:14Z</time>
      </trkpt>
      <trkpt lat="40.342540" lon="-5.770230">
        <ele>1242</ele>
        <time>2022-12-04T03:17:16Z</time>
      </trkpt>
      <trkpt lat="40.342580" lon="-5.770320">
        <ele>1244</ele>
        <time>2022-12-04T03:17:17Z</time>
      </trkpt>
      <trkpt lat="40.342660" lon="-5.770380">
        <ele>1244</ele>
        <time>2022-12-04T03:17:19Z</time>
      </trkpt>
      <trkpt lat="40.342830" lon="-5.770400">
        <ele>1243</ele>
        <time>2022-12-04T03:17:22Z</time>
      </trkpt>
      <trkpt lat="40.342990" lon="-5.770340">
        <ele>1240</ele>
        <time>2022-12-04T03:17:25Z</time>
      </trkpt>
      <trkpt lat="40.343120" lon="-5.770340">
        <ele>1239</ele>
        <time>2022-12-04T03:17:27Z</time>
      </trkpt>
      <trkpt lat="40.343640" lon="-5.770770">
        <ele>1245</ele>
        <time>2022-12-04T03:17:38Z</time>
      </trkpt>
      <trkpt lat="40.343730" lon="-5.770890">
        <ele>1246</ele>
        <time>2022-12-04T03:17:40Z</time>
      </trkpt>
      <trkpt lat="40.343890" lon="-5.771150">
        <ele>1250</ele>
        <time>2022-12-04T03:17:45Z</time>
      </trkpt>
      <trkpt lat="40.343990" lon="-5.771220">
        <ele>1250</ele>
        <time>2022-12-04T03:17:47Z</time>
      </trkpt>
      <trkpt lat="40.344220" lon="-5.771310">
        <ele>1248</ele>
        <time>2022-12-04T03:17:51Z</time>
      </trkpt>
      <trkpt lat="40.344270" lon="-5.771390">
        <ele>1249</ele>
        <time>2022-12-04T03:17:52Z</time>
      </trkpt>
      <trkpt lat="40.344290" lon="-5.771480">
        <ele>1251</ele>
        <time>2022-12-04T03:17:54Z</time>
      </trkpt>
      <trkpt lat="40.344310" lon="-5.771590">
        <ele>1254</ele>
        <time>2022-12-04T03:17:55Z</time>
      </trkpt>
      <trkpt lat="40.344400" lon="-5.772020">
        <ele>1259</ele>
        <time>2022-12-04T03:18:01Z</time>
      </trkpt>
      <trkpt lat="40.344470" lon="-5.772140">
        <ele>1259</ele>
        <time>2022-12-04T03:18:03Z</time>
      </trkpt>
      <trkpt lat="40.344640" lon="-5.772260">
        <ele>1257</ele>
        <time>2022-12-04T03:18:07Z</time>
      </trkpt>
      <trkpt lat="40.344730" lon="-5.772380">
        <ele>1257</ele>
        <time>2022-12-04T03:18:09Z</time>
      </trkpt>
      <trkpt lat="40.344810" lon="-5.772510">
        <ele>1257</ele>
        <time>2022-12-04T03:18:11Z</time>
      </trkpt>
      <trkpt lat="40.344860" lon="-5.772690">
        <ele>1255</ele>
        <time>2022-12-04T03:18:14Z</time>
      </trkpt>
      <trkpt lat="40.344890" lon="-5.772840">
        <ele>1254</ele>
        <time>2022-12-04T03:18:16Z</time>
      </trkpt>
      <trkpt lat="40.344880" lon="-5.773010">
        <ele>1255</ele>
        <time>2022-12-04T03:18:18Z</time>
      </trkpt>
      <trkpt lat="40.344850" lon="-5.773110">
        <ele>1255</ele>
        <time>2022-12-04T03:18:20Z</time>
      </trkpt>
      <trkpt lat="40.344570" lon="-5.773800">
        <ele>1256</ele>
        <time>2022-12-04T03:18:30Z</time>
      </trkpt>
      <trkpt lat="40.344450" lon="-5.774030">
        <ele>1255</ele>
        <time>2022-12-04T03:18:34Z</time>
      </trkpt>
      <trkpt lat="40.344330" lon="-5.774150">
        <ele>1256</ele>
        <time>2022-12-04T03:18:37Z</time>
      </trkpt>
      <trkpt lat="40.344060" lon="-5.774330">
        <ele>1258</ele>
        <time>2022-12-04T03:18:42Z</time>
      </trkpt>
      <trkpt lat="40.343190" lon="-5.774750">
        <ele>1262</ele>
        <time>2022-12-04T03:18:59Z</time>
      </trkpt>
      <trkpt lat="40.343020" lon="-5.774860">
        <ele>1263</ele>
        <time>2022-12-04T03:19:02Z</time>
      </trkpt>
      <trkpt lat="40.342890" lon="-5.774980">
        <ele>1263</ele>
        <time>2022-12-04T03:19:05Z</time>
      </trkpt>
      <trkpt lat="40.342660" lon="-5.775310">
        <ele>1264</ele>
        <time>2022-12-04T03:19:11Z</time>
      </trkpt>
      <trkpt lat="40.342180" lon="-5.776060">
        <ele>1268</ele>
        <time>2022-12-04T03:19:24Z</time>
      </trkpt>
      <trkpt lat="40.342030" lon="-5.776220">
        <ele>1270</ele>
        <time>2022-12-04T03:19:28Z</time>
      </trkpt>
      <trkpt lat="40.341480" lon="-5.776630">
        <ele>1277</ele>
        <time>2022-12-04T03:19:39Z</time>
      </trkpt>
      <trkpt lat="40.341320" lon="-5.776720">
        <ele>1281</ele>
        <time>2022-12-04T03:19:42Z</time>
      </trkpt>
      <trkpt lat="40.340960" lon="-5.776860">
        <ele>1289</ele>
        <time>2022-12-04T03:19:49Z</time>
      </trkpt>
      <trkpt lat="40.340890" lon="-5.776900">
        <ele>1290</ele>
        <time>2022-12-04T03:19:50Z</time>
      </trkpt>
      <trkpt lat="40.340800" lon="-5.777040">
        <ele>1290</ele>
        <time>2022-12-04T03:19:53Z</time>
      </trkpt>
      <trkpt lat="40.340460" lon="-5.777720">
        <ele>1291</ele>
        <time>2022-12-04T03:20:04Z</time>
      </trkpt>
      <trkpt lat="40.340260" lon="-5.778250">
        <ele>1294</ele>
        <time>2022-12-04T03:20:12Z</time>
      </trkpt>
      <trkpt lat="40.340180" lon="-5.778400">
        <ele>1296</ele>
        <time>2022-12-04T03:20:14Z</time>
      </trkpt>
      <trkpt lat="40.340110" lon="-5.778570">
        <ele>1298</ele>
        <time>2022-12-04T03:20:17Z</time>
      </trkpt>
      <trkpt lat="40.339770" lon="-5.780510">
        <ele>1296</ele>
        <time>2022-12-04T03:20:44Z</time>
      </trkpt>
      <trkpt lat="40.339640" lon="-5.780870">
        <ele>1297</ele>
        <time>2022-12-04T03:20:49Z</time>
      </trkpt>
      <trkpt lat="40.339160" lon="-5.781930">
        <ele>1296</ele>
        <time>2022-12-04T03:21:06Z</time>
      </trkpt>
      <trkpt lat="40.339030" lon="-5.782160">
        <ele>1294</ele>
        <time>2022-12-04T03:21:10Z</time>
      </trkpt>
      <trkpt lat="40.338900" lon="-5.782330">
        <ele>1294</ele>
        <time>2022-12-04T03:21:13Z</time>
      </trkpt>
      <trkpt lat="40.338570" lon="-5.782660">
        <ele>1297</ele>
        <time>2022-12-04T03:21:20Z</time>
      </trkpt>
      <trkpt lat="40.338440" lon="-5.782830">
        <ele>1296</ele>
        <time>2022-12-04T03:21:24Z</time>
      </trkpt>
      <trkpt lat="40.338240" lon="-5.783190">
        <ele>1294</ele>
        <time>2022-12-04T03:21:30Z</time>
      </trkpt>
      <trkpt lat="40.338160" lon="-5.783430">
        <ele>1293</ele>
        <time>2022-12-04T03:21:33Z</time>
      </trkpt>
      <trkpt lat="40.337470" lon="-5.784490">
        <ele>1298</ele>
        <time>2022-12-04T03:21:52Z</time>
      </trkpt>
      <trkpt lat="40.337240" lon="-5.784790">
        <ele>1296</ele>
        <time>2022-12-04T03:21:58Z</time>
      </trkpt>
      <trkpt lat="40.337180" lon="-5.784860">
        <ele>1296</ele>
        <time>2022-12-04T03:21:59Z</time>
      </trkpt>
      <trkpt lat="40.336990" lon="-5.785000">
        <ele>1297</ele>
        <time>2022-12-04T03:22:03Z</time>
      </trkpt>
      <trkpt lat="40.336440" lon="-5.785360">
        <ele>1299</ele>
        <time>2022-12-04T03:22:14Z</time>
      </trkpt>
      <trkpt lat="40.336290" lon="-5.785490">
        <ele>1297</ele>
        <time>2022-12-04T03:22:17Z</time>
      </trkpt>
      <trkpt lat="40.336150" lon="-5.785710">
        <ele>1294</ele>
        <time>2022-12-04T03:22:21Z</time>
      </trkpt>
      <trkpt lat="40.335970" lon="-5.785890">
        <ele>1292</ele>
        <time>2022-12-04T03:22:25Z</time>
      </trkpt>
      <trkpt lat="40.335700" lon="-5.785970">
        <ele>1295</ele>
        <time>2022-12-04T03:22:30Z</time>
      </trkpt>
      <trkpt lat="40.335600" lon="-5.786010">
        <ele>1296</ele>
        <time>2022-12-04T03:22:32Z</time>
      </trkpt>
      <trkpt lat="40.335540" lon="-5.786070">
        <ele>1297</ele>
        <time>2022-12-04T03:22:33Z</time>
      </trkpt>
      <trkpt lat="40.335330" lon="-5.786610">
        <ele>1299</ele>
        <time>2022-12-04T03:22:42Z</time>
      </trkpt>
      <trkpt lat="40.334900" lon="-5.788400">
        <ele>1304</ele>
        <time>2022-12-04T03:23:07Z</time>
      </trkpt>
      <trkpt lat="40.334820" lon="-5.788620">
        <ele>1303</ele>
        <time>2022-12-04T03:23:10Z</time>
      </trkpt>
      <trkpt lat="40.334620" lon="-5.788990">
        <ele>1302</ele>
        <time>2022-12-04T03:23:17Z</time>
      </trkpt>
      <trkpt lat="40.334180" lon="-5.789520">
        <ele>1304</ele>
        <time>2022-12-04T03:23:27Z</time>
      </trkpt>
      <trkpt lat="40.334020" lon="-5.789730">
        <ele>1302</ele>
        <time>2022-12-04T03:23:31Z</time>
      </trkpt>
      <trkpt lat="40.333890" lon="-5.789940">
        <ele>1301</ele>
        <time>2022-12-04T03:23:35Z</time>
      </trkpt>
      <trkpt lat="40.333720" lon="-5.790300">
        <ele>1298</ele>
        <time>2022-12-04T03:23:41Z</time>
      </trkpt>
      <trkpt lat="40.333630" lon="-5.790430">
        <ele>1298</ele>
        <time>2022-12-04T03:23:43Z</time>
      </trkpt>
      <trkpt lat="40.333530" lon="-5.790550">
        <ele>1299</ele>
        <time>2022-12-04T03:23:45Z</time>
      </trkpt>
      <trkpt lat="40.333290" lon="-5.790720">
        <ele>1302</ele>
        <time>2022-12-04T03:23:50Z</time>
      </trkpt>
      <trkpt lat="40.333200" lon="-5.790860">
        <ele>1303</ele>
        <time>2022-12-04T03:23:53Z</time>
      </trkpt>
      <trkpt lat="40.333180" lon="-5.790960">
        <ele>1303</ele>
        <time>2022-12-04T03:23:54Z</time>
      </trkpt>
      <trkpt lat="40.333190" lon="-5.791190">
        <ele>1301</ele>
        <time>2022-12-04T03:23:57Z</time>
      </trkpt>
      <trkpt lat="40.333110" lon="-5.791690">
        <ele>1300</ele>
        <time>2022-12-04T03:24:04Z</time>
      </trkpt>
      <trkpt lat="40.333080" lon="-5.791840">
        <ele>1299</ele>
        <time>2022-12-04T03:24:06Z</time>
      </trkpt>
      <trkpt lat="40.332860" lon="-5.792400">
        <ele>1300</ele>
        <time>2022-12-04T03:24:15Z</time>
      </trkpt>
      <trkpt lat="40.332740" lon="-5.792600">
        <ele>1303</ele>
        <time>2022-12-04T03:24:18Z</time>
      </trkpt>
      <trkpt lat="40.332450" lon="-5.792980">
        <ele>1307</ele>
        <time>2022-12-04T03:24:26Z</time>
      </trkpt>
      <trkpt lat="40.331950" lon="-5.793580">
        <ele>1315</ele>
        <time>2022-12-04T03:24:38Z</time>
      </trkpt>
      <trkpt lat="40.331880" lon="-5.793680">
        <ele>1316</ele>
        <time>2022-12-04T03:24:39Z</time>
      </trkpt>
      <trkpt lat="40.331790" lon="-5.793900">
        <ele>1317</ele>
        <time>2022-12-04T03:24:43Z</time>
      </trkpt>
      <trkpt lat="40.331480" lon="-5.794960">
        <ele>1321</ele>
        <time>2022-12-04T03:24:58Z</time>
      </trkpt>
      <trkpt lat="40.331360" lon="-5.795370">
        <ele>1322</ele>
        <time>2022-12-04T03:25:04Z</time>
      </trkpt>
      <trkpt lat="40.331220" lon="-5.795740">
        <ele>1321</ele>
        <time>2022-12-04T03:25:10Z</time>
      </trkpt>
      <trkpt lat="40.330770" lon="-5.796510">
        <ele>1320</ele>
        <time>2022-12-04T03:25:23Z</time>
      </trkpt>
      <trkpt lat="40.330580" lon="-5.796910">
        <ele>1318</ele>
        <time>2022-12-04T03:25:29Z</time>
      </trkpt>
      <trkpt lat="40.330160" lon="-5.797630">
        <ele>1314</ele>
        <time>2022-12-04T03:25:42Z</time>
      </trkpt>
      <trkpt lat="40.330000" lon="-5.798040">
        <ele>1313</ele>
        <time>2022-12-04T03:25:48Z</time>
      </trkpt>
      <trkpt lat="40.329800" lon="-5.798810">
        <ele>1309</ele>
        <time>2022-12-04T03:25:59Z</time>
      </trkpt>
      <trkpt lat="40.329780" lon="-5.799140">
        <ele>1310</ele>
        <time>2022-12-04T03:26:03Z</time>
      </trkpt>
      <trkpt lat="40.329800" lon="-5.799320">
        <ele>1310</ele>
        <time>2022-12-04T03:26:06Z</time>
      </trkpt>
      <trkpt lat="40.329830" lon="-5.799410">
        <ele>1310</ele>
        <time>2022-12-04T03:26:07Z</time>
      </trkpt>
      <trkpt lat="40.330270" lon="-5.800480">
        <ele>1315</ele>
        <time>2022-12-04T03:26:24Z</time>
      </trkpt>
      <trkpt lat="40.330490" lon="-5.800860">
        <ele>1319</ele>
        <time>2022-12-04T03:26:30Z</time>
      </trkpt>
      <trkpt lat="40.330530" lon="-5.801020">
        <ele>1320</ele>
        <time>2022-12-04T03:26:32Z</time>
      </trkpt>
      <trkpt lat="40.330490" lon="-5.801560">
        <ele>1318</ele>
        <time>2022-12-04T03:26:40Z</time>
      </trkpt>
      <trkpt lat="40.330420" lon="-5.801970">
        <ele>1316</ele>
        <time>2022-12-04T03:26:46Z</time>
      </trkpt>
      <trkpt lat="40.330070" lon="-5.803330">
        <ele>1310</ele>
        <time>2022-12-04T03:27:05Z</time>
      </trkpt>
      <trkpt lat="40.329970" lon="-5.803560">
        <ele>1309</ele>
        <time>2022-12-04T03:27:09Z</time>
      </trkpt>
      <trkpt lat="40.329800" lon="-5.803830">
        <ele>1310</ele>
        <time>2022-12-04T03:27:13Z</time>
      </trkpt>
      <trkpt lat="40.329660" lon="-5.804150">
        <ele>1314</ele>
        <time>2022-12-04T03:27:18Z</time>
      </trkpt>
      <trkpt lat="40.329580" lon="-5.804260">
        <ele>1315</ele>
        <time>2022-12-04T03:27:20Z</time>
      </trkpt>
      <trkpt lat="40.329510" lon="-5.804280">
        <ele>1315</ele>
        <time>2022-12-04T03:27:22Z</time>
      </trkpt>
      <trkpt lat="40.329470" lon="-5.804260">
        <ele>1314</ele>
        <time>2022-12-04T03:27:22Z</time>
      </trkpt>
      <trkpt lat="40.329250" lon="-5.804080">
        <ele>1309</ele>
        <time>2022-12-04T03:27:27Z</time>
      </trkpt>
      <trkpt lat="40.328980" lon="-5.803950">
        <ele>1302</ele>
        <time>2022-12-04T03:27:32Z</time>
      </trkpt>
      <trkpt lat="40.328860" lon="-5.803950">
        <ele>1300</ele>
        <time>2022-12-04T03:27:34Z</time>
      </trkpt>
      <trkpt lat="40.328800" lon="-5.803980">
        <ele>1300</ele>
        <time>2022-12-04T03:27:35Z</time>
      </trkpt>
      <trkpt lat="40.328630" lon="-5.804180">
        <ele>1303</ele>
        <time>2022-12-04T03:27:40Z</time>
      </trkpt>
      <trkpt lat="40.328310" lon="-5.804690">
        <ele>1305</ele>
        <time>2022-12-04T03:27:48Z</time>
      </trkpt>
      <trkpt lat="40.328200" lon="-5.804900">
        <ele>1304</ele>
        <time>2022-12-04T03:27:52Z</time>
      </trkpt>
      <trkpt lat="40.328050" lon="-5.805300">
        <ele>1306</ele>
        <time>2022-12-04T03:27:58Z</time>
      </trkpt>
      <trkpt lat="40.327970" lon="-5.805470">
        <ele>1307</ele>
        <time>2022-12-04T03:28:01Z</time>
      </trkpt>
      <trkpt lat="40.327740" lon="-5.805710">
        <ele>1306</ele>
        <time>2022-12-04T03:28:06Z</time>
      </trkpt>
      <trkpt lat="40.327040" lon="-5.806200">
        <ele>1296</ele>
        <time>2022-12-04T03:28:20Z</time>
      </trkpt>
      <trkpt lat="40.326940" lon="-5.806280">
        <ele>1294</ele>
        <time>2022-12-04T03:28:22Z</time>
      </trkpt>
      <trkpt lat="40.326800" lon="-5.806520">
        <ele>1295</ele>
        <time>2022-12-04T03:28:26Z</time>
      </trkpt>
      <trkpt lat="40.326760" lon="-5.806720">
        <ele>1297</ele>
        <time>2022-12-04T03:28:29Z</time>
      </trkpt>
      <trkpt lat="40.326780" lon="-5.807030">
        <ele>1296</ele>
        <time>2022-12-04T03:28:33Z</time>
      </trkpt>
      <trkpt lat="40.326840" lon="-5.807370">
        <ele>1298</ele>
        <time>2022-12-04T03:28:38Z</time>
      </trkpt>
      <trkpt lat="40.326980" lon="-5.807890">
        <ele>1298</ele>
        <time>2022-12-04T03:28:45Z</time>
      </trkpt>
      <trkpt lat="40.327000" lon="-5.808030">
        <ele>1298</ele>
        <time>2022-12-04T03:28:47Z</time>
      </trkpt>
      <trkpt lat="40.327030" lon="-5.808690">
        <ele>1295</ele>
        <time>2022-12-04T03:28:56Z</time>
      </trkpt>
      <trkpt lat="40.326950" lon="-5.809120">
        <ele>1291</ele>
        <time>2022-12-04T03:29:02Z</time>
      </trkpt>
      <trkpt lat="40.326880" lon="-5.809690">
        <ele>1289</ele>
        <time>2022-12-04T03:29:10Z</time>
      </trkpt>
      <trkpt lat="40.326810" lon="-5.809880">
        <ele>1288</ele>
        <time>2022-12-04T03:29:13Z</time>
      </trkpt>
      <trkpt lat="40.326740" lon="-5.809960">
        <ele>1287</ele>
        <time>2022-12-04T03:29:15Z</time>
      </trkpt>
      <trkpt lat="40.326510" lon="-5.810190">
        <ele>1278</ele>
        <time>2022-12-04T03:29:20Z</time>
      </trkpt>
      <trkpt lat="40.326450" lon="-5.810270">
        <ele>1276</ele>
        <time>2022-12-04T03:29:21Z</time>
      </trkpt>
      <trkpt lat="40.326410" lon="-5.810430">
        <ele>1274</ele>
        <time>2022-12-04T03:29:24Z</time>
      </trkpt>
      <trkpt lat="40.326420" lon="-5.810630">
        <ele>1274</ele>
        <time>2022-12-04T03:29:26Z</time>
      </trkpt>
      <trkpt lat="40.326480" lon="-5.810850">
        <ele>1276</ele>
        <time>2022-12-04T03:29:30Z</time>
      </trkpt>
      <trkpt lat="40.327140" lon="-5.812130">
        <ele>1273</ele>
        <time>2022-12-04T03:29:51Z</time>
      </trkpt>
      <trkpt lat="40.327240" lon="-5.812380">
        <ele>1270</ele>
        <time>2022-12-04T03:29:54Z</time>
      </trkpt>
      <trkpt lat="40.327360" lon="-5.812980">
        <ele>1265</ele>
        <time>2022-12-04T03:30:03Z</time>
      </trkpt>
      <trkpt lat="40.327340" lon="-5.813170">
        <ele>1263</ele>
        <time>2022-12-04T03:30:05Z</time>
      </trkpt>
      <trkpt lat="40.327320" lon="-5.813250">
        <ele>1263</ele>
        <time>2022-12-04T03:30:07Z</time>
      </trkpt>
      <trkpt lat="40.327140" lon="-5.813580">
        <ele>1260</ele>
        <time>2022-12-04T03:30:12Z</time>
      </trkpt>
      <trkpt lat="40.327010" lon="-5.813710">
        <ele>1259</ele>
        <time>2022-12-04T03:30:15Z</time>
      </trkpt>
      <trkpt lat="40.326180" lon="-5.814090">
        <ele>1256</ele>
        <time>2022-12-04T03:30:31Z</time>
      </trkpt>
      <trkpt lat="40.326090" lon="-5.814160">
        <ele>1256</ele>
        <time>2022-12-04T03:30:32Z</time>
      </trkpt>
      <trkpt lat="40.325880" lon="-5.814410">
        <ele>1256</ele>
        <time>2022-12-04T03:30:37Z</time>
      </trkpt>
      <trkpt lat="40.325820" lon="-5.814540">
        <ele>1256</ele>
        <time>2022-12-04T03:30:40Z</time>
      </trkpt>
      <trkpt lat="40.325560" lon="-5.815760">
        <ele>1250</ele>
        <time>2022-12-04T03:30:57Z</time>
      </trkpt>
      <trkpt lat="40.325530" lon="-5.815960">
        <ele>1251</ele>
        <time>2022-12-04T03:30:59Z</time>
      </trkpt>
      <trkpt lat="40.325520" lon="-5.816090">
        <ele>1252</ele>
        <time>2022-12-04T03:31:01Z</time>
      </trkpt>
      <trkpt lat="40.325530" lon="-5.816260">
        <ele>1253</ele>
        <time>2022-12-04T03:31:04Z</time>
      </trkpt>
      <trkpt lat="40.325590" lon="-5.816590">
        <ele>1255</ele>
        <time>2022-12-04T03:31:08Z</time>
      </trkpt>
      <trkpt lat="40.325670" lon="-5.816760">
        <ele>1255</ele>
        <time>2022-12-04T03:31:11Z</time>
      </trkpt>
      <trkpt lat="40.325830" lon="-5.817010">
        <ele>1256</ele>
        <time>2022-12-04T03:31:15Z</time>
      </trkpt>
      <trkpt lat="40.325890" lon="-5.817170">
        <ele>1255</ele>
        <time>2022-12-04T03:31:18Z</time>
      </trkpt>
      <trkpt lat="40.325890" lon="-5.817350">
        <ele>1257</ele>
        <time>2022-12-04T03:31:20Z</time>
      </trkpt>
      <trkpt lat="40.325870" lon="-5.817450">
        <ele>1259</ele>
        <time>2022-12-04T03:31:22Z</time>
      </trkpt>
      <trkpt lat="40.325740" lon="-5.817960">
        <ele>1256</ele>
        <time>2022-12-04T03:31:29Z</time>
      </trkpt>
      <trkpt lat="40.325710" lon="-5.818370">
        <ele>1252</ele>
        <time>2022-12-04T03:31:34Z</time>
      </trkpt>
      <trkpt lat="40.325680" lon="-5.818540">
        <ele>1250</ele>
        <time>2022-12-04T03:31:37Z</time>
      </trkpt>
      <trkpt lat="40.325650" lon="-5.818650">
        <ele>1249</ele>
        <time>2022-12-04T03:31:38Z</time>
      </trkpt>
      <trkpt lat="40.325260" lon="-5.819460">
        <ele>1249</ele>
        <time>2022-12-04T03:31:51Z</time>
      </trkpt>
      <trkpt lat="40.325110" lon="-5.819830">
        <ele>1250</ele>
        <time>2022-12-04T03:31:57Z</time>
      </trkpt>
      <trkpt lat="40.325060" lon="-5.820100">
        <ele>1248</ele>
        <time>2022-12-04T03:32:01Z</time>
      </trkpt>
      <trkpt lat="40.325020" lon="-5.820540">
        <ele>1242</ele>
        <time>2022-12-04T03:32:07Z</time>
      </trkpt>
      <trkpt lat="40.324950" lon="-5.820830">
        <ele>1240</ele>
        <time>2022-12-04T03:32:11Z</time>
      </trkpt>
      <trkpt lat="40.324840" lon="-5.821130">
        <ele>1238</ele>
        <time>2022-12-04T03:32:16Z</time>
      </trkpt>
      <trkpt lat="40.324540" lon="-5.821620">
        <ele>1241</ele>
        <time>2022-12-04T03:32:24Z</time>
      </trkpt>
      <trkpt lat="40.324520" lon="-5.821750">
        <ele>1240</ele>
        <time>2022-12-04T03:32:26Z</time>
      </trkpt>
      <trkpt lat="40.324520" lon="-5.821940">
        <ele>1238</ele>
        <time>2022-12-04T03:32:28Z</time>
      </trkpt>
      <trkpt lat="40.324580" lon="-5.822460">
        <ele>1231</ele>
        <time>2022-12-04T03:32:36Z</time>
      </trkpt>
      <trkpt lat="40.324560" lon="-5.822690">
        <ele>1229</ele>
        <time>2022-12-04T03:32:39Z</time>
      </trkpt>
      <trkpt lat="40.324210" lon="-5.823930">
        <ele>1224</ele>
        <time>2022-12-04T03:32:57Z</time>
      </trkpt>
      <trkpt lat="40.323980" lon="-5.824620">
        <ele>1224</ele>
        <time>2022-12-04T03:33:07Z</time>
      </trkpt>
      <trkpt lat="40.323940" lon="-5.824890">
        <ele>1223</ele>
        <time>2022-12-04T03:33:11Z</time>
      </trkpt>
      <trkpt lat="40.323940" lon="-5.825000">
        <ele>1222</ele>
        <time>2022-12-04T03:33:12Z</time>
      </trkpt>
      <trkpt lat="40.323970" lon="-5.825160">
        <ele>1222</ele>
        <time>2022-12-04T03:33:14Z</time>
      </trkpt>
      <trkpt lat="40.324060" lon="-5.825380">
        <ele>1221</ele>
        <time>2022-12-04T03:33:18Z</time>
      </trkpt>
      <trkpt lat="40.324430" lon="-5.825990">
        <ele>1210</ele>
        <time>2022-12-04T03:33:28Z</time>
      </trkpt>
      <trkpt lat="40.324490" lon="-5.826160">
        <ele>1208</ele>
        <time>2022-12-04T03:33:31Z</time>
      </trkpt>
      <trkpt lat="40.324500" lon="-5.826370">
        <ele>1208</ele>
        <time>2022-12-04T03:33:34Z</time>
      </trkpt>
      <trkpt lat="40.324470" lon="-5.826590">
        <ele>1210</ele>
        <time>2022-12-04T03:33:37Z</time>
      </trkpt>
      <trkpt lat="40.324080" lon="-5.827660">
        <ele>1210</ele>
        <time>2022-12-04T03:33:53Z</time>
      </trkpt>
      <trkpt lat="40.324030" lon="-5.827940">
        <ele>1209</ele>
        <time>2022-12-04T03:33:57Z</time>
      </trkpt>
      <trkpt lat="40.323990" lon="-5.828360">
        <ele>1205</ele>
        <time>2022-12-04T03:34:02Z</time>
      </trkpt>
      <trkpt lat="40.323780" lon="-5.829230">
        <ele>1200</ele>
        <time>2022-12-04T03:34:15Z</time>
      </trkpt>
      <trkpt lat="40.323680" lon="-5.829530">
        <ele>1198</ele>
        <time>2022-12-04T03:34:19Z</time>
      </trkpt>
      <trkpt lat="40.323300" lon="-5.830420">
        <ele>1200</ele>
        <time>2022-12-04T03:34:33Z</time>
      </trkpt>
      <trkpt lat="40.323250" lon="-5.830580">
        <ele>1199</ele>
        <time>2022-12-04T03:34:35Z</time>
      </trkpt>
      <trkpt lat="40.323170" lon="-5.830980">
        <ele>1196</ele>
        <time>2022-12-04T03:34:41Z</time>
      </trkpt>
      <trkpt lat="40.323120" lon="-5.831120">
        <ele>1195</ele>
        <time>2022-12-04T03:34:43Z</time>
      </trkpt>
      <trkpt lat="40.323060" lon="-5.831230">
        <ele>1194</ele>
        <time>2022-12-04T03:34:45Z</time>
      </trkpt>
      <trkpt lat="40.322780" lon="-5.831570">
        <ele>1192</ele>
        <time>2022-12-04T03:34:52Z</time>
      </trkpt>
      <trkpt lat="40.322750" lon="-5.831620">
        <ele>1192</ele>
        <time>2022-12-04T03:34:53Z</time>
      </trkpt>
      <trkpt lat="40.322740" lon="-5.831740">
        <ele>1190</ele>
        <time>2022-12-04T03:34:54Z</time>
      </trkpt>
      <trkpt lat="40.322790" lon="-5.831880">
        <ele>1187</ele>
        <time>2022-12-04T03:34:56Z</time>
      </trkpt>
      <trkpt lat="40.322870" lon="-5.831980">
        <ele>1184</ele>
        <time>2022-12-04T03:34:58Z</time>
      </trkpt>
      <trkpt lat="40.322980" lon="-5.832020">
        <ele>1181</ele>
        <time>2022-12-04T03:35:00Z</time>
      </trkpt>
      <trkpt lat="40.323030" lon="-5.832010">
        <ele>1181</ele>
        <time>2022-12-04T03:35:01Z</time>
      </trkpt>
      <trkpt lat="40.323150" lon="-5.831940">
        <ele>1180</ele>
        <time>2022-12-04T03:35:04Z</time>
      </trkpt>
      <trkpt lat="40.323470" lon="-5.831640">
        <ele>1181</ele>
        <time>2022-12-04T03:35:11Z</time>
      </trkpt>
      <trkpt lat="40.323550" lon="-5.831500">
        <ele>1181</ele>
        <time>2022-12-04T03:35:13Z</time>
      </trkpt>
      <trkpt lat="40.323620" lon="-5.831280">
        <ele>1182</ele>
        <time>2022-12-04T03:35:16Z</time>
      </trkpt>
      <trkpt lat="40.323730" lon="-5.830740">
        <ele>1185</ele>
        <time>2022-12-04T03:35:24Z</time>
      </trkpt>
      <trkpt lat="40.323810" lon="-5.830470">
        <ele>1184</ele>
        <time>2022-12-04T03:35:28Z</time>
      </trkpt>
      <trkpt lat="40.323870" lon="-5.830350">
        <ele>1183</ele>
        <time>2022-12-04T03:35:30Z</time>
      </trkpt>
      <trkpt lat="40.324780" lon="-5.828870">
        <ele>1170</ele>
        <time>2022-12-04T03:35:55Z</time>
      </trkpt>
      <trkpt lat="40.324820" lon="-5.828770">
        <ele>1170</ele>
        <time>2022-12-04T03:35:57Z</time>
      </trkpt>
      <trkpt lat="40.324920" lon="-5.828380">
        <ele>1173</ele>
        <time>2022-12-04T03:36:03Z</time>
      </trkpt>
      <trkpt lat="40.324990" lon="-5.828270">
        <ele>1172</ele>
        <time>2022-12-04T03:36:04Z</time>
      </trkpt>
      <trkpt lat="40.325170" lon="-5.828040">
        <ele>1167</ele>
        <time>2022-12-04T03:36:09Z</time>
      </trkpt>
      <trkpt lat="40.325330" lon="-5.827790">
        <ele>1164</ele>
        <time>2022-12-04T03:36:13Z</time>
      </trkpt>
      <trkpt lat="40.325510" lon="-5.827390">
        <ele>1162</ele>
        <time>2022-12-04T03:36:20Z</time>
      </trkpt>
      <trkpt lat="40.325590" lon="-5.827160">
        <ele>1160</ele>
        <time>2022-12-04T03:36:23Z</time>
      </trkpt>
      <trkpt lat="40.325760" lon="-5.826210">
        <ele>1158</ele>
        <time>2022-12-04T03:36:36Z</time>
      </trkpt>
      <trkpt lat="40.325780" lon="-5.825950">
        <ele>1157</ele>
        <time>2022-12-04T03:36:40Z</time>
      </trkpt>
      <trkpt lat="40.325780" lon="-5.825850">
        <ele>1157</ele>
        <time>2022-12-04T03:36:41Z</time>
      </trkpt>
      <trkpt lat="40.325720" lon="-5.825650">
        <ele>1158</ele>
        <time>2022-12-04T03:36:44Z</time>
      </trkpt>
      <trkpt lat="40.325590" lon="-5.825330">
        <ele>1162</ele>
        <time>2022-12-04T03:36:49Z</time>
      </trkpt>
      <trkpt lat="40.325520" lon="-5.825120">
        <ele>1163</ele>
        <time>2022-12-04T03:36:52Z</time>
      </trkpt>
      <trkpt lat="40.325490" lon="-5.824930">
        <ele>1164</ele>
        <time>2022-12-04T03:36:55Z</time>
      </trkpt>
      <trkpt lat="40.325510" lon="-5.824820">
        <ele>1165</ele>
        <time>2022-12-04T03:36:56Z</time>
      </trkpt>
      <trkpt lat="40.325530" lon="-5.824770">
        <ele>1165</ele>
        <time>2022-12-04T03:36:57Z</time>
      </trkpt>
      <trkpt lat="40.325610" lon="-5.824670">
        <ele>1163</ele>
        <time>2022-12-04T03:36:59Z</time>
      </trkpt>
      <trkpt lat="40.325890" lon="-5.824470">
        <ele>1157</ele>
        <time>2022-12-04T03:37:05Z</time>
      </trkpt>
      <trkpt lat="40.326110" lon="-5.824340">
        <ele>1154</ele>
        <time>2022-12-04T03:37:09Z</time>
      </trkpt>
      <trkpt lat="40.327300" lon="-5.823810">
        <ele>1142</ele>
        <time>2022-12-04T03:37:31Z</time>
      </trkpt>
      <trkpt lat="40.327770" lon="-5.823670">
        <ele>1136</ele>
        <time>2022-12-04T03:37:40Z</time>
      </trkpt>
      <trkpt lat="40.327920" lon="-5.823570">
        <ele>1135</ele>
        <time>2022-12-04T03:37:43Z</time>
      </trkpt>
      <trkpt lat="40.328200" lon="-5.823270">
        <ele>1135</ele>
        <time>2022-12-04T03:37:49Z</time>
      </trkpt>
      <trkpt lat="40.328290" lon="-5.823200">
        <ele>1134</ele>
        <time>2022-12-04T03:37:51Z</time>
      </trkpt>
      <trkpt lat="40.328360" lon="-5.823160">
        <ele>1134</ele>
        <time>2022-12-04T03:37:53Z</time>
      </trkpt>
      <trkpt lat="40.328440" lon="-5.823160">
        <ele>1134</ele>
        <time>2022-12-04T03:37:54Z</time>
      </trkpt>
      <trkpt lat="40.328630" lon="-5.823310">
        <ele>1132</ele>
        <time>2022-12-04T03:37:58Z</time>
      </trkpt>
      <trkpt lat="40.328660" lon="-5.823390">
        <ele>1131</ele>
        <time>2022-12-04T03:37:59Z</time>
      </trkpt>
      <trkpt lat="40.328720" lon="-5.823640">
        <ele>1129</ele>
        <time>2022-12-04T03:38:03Z</time>
      </trkpt>
      <trkpt lat="40.328870" lon="-5.824010">
        <ele>1125</ele>
        <time>2022-12-04T03:38:08Z</time>
      </trkpt>
      <trkpt lat="40.328930" lon="-5.824090">
        <ele>1125</ele>
        <time>2022-12-04T03:38:10Z</time>
      </trkpt>
      <trkpt lat="40.329240" lon="-5.824470">
        <ele>1121</ele>
        <time>2022-12-04T03:38:18Z</time>
      </trkpt>
      <trkpt lat="40.329490" lon="-5.824640">
        <ele>1116</ele>
        <time>2022-12-04T03:38:23Z</time>
      </trkpt>
      <trkpt lat="40.329580" lon="-5.824640">
        <ele>1115</ele>
        <time>2022-12-04T03:38:24Z</time>
      </trkpt>
      <trkpt lat="40.329610" lon="-5.824660">
        <ele>1115</ele>
        <time>2022-12-04T03:38:25Z</time>
      </trkpt>
      <trkpt lat="40.329730" lon="-5.824800">
        <ele>1111</ele>
        <time>2022-12-04T03:38:28Z</time>
      </trkpt>
      <trkpt lat="40.330070" lon="-5.824820">
        <ele>1106</ele>
        <time>2022-12-04T03:38:34Z</time>
      </trkpt>
      <trkpt lat="40.330300" lon="-5.824730">
        <ele>1103</ele>
        <time>2022-12-04T03:38:38Z</time>
      </trkpt>
      <trkpt lat="40.330560" lon="-5.824650">
        <ele>1100</ele>
        <time>2022-12-04T03:38:43Z</time>
      </trkpt>
      <trkpt lat="40.330740" lon="-5.824570">
        <ele>1097</ele>
        <time>2022-12-04T03:38:46Z</time>
      </trkpt>
      <trkpt lat="40.330940" lon="-5.824350">
        <ele>1098</ele>
        <time>2022-12-04T03:38:51Z</time>
      </trkpt>
      <trkpt lat="40.331000" lon="-5.824320">
        <ele>1098</ele>
        <time>2022-12-04T03:38:52Z</time>
      </trkpt>
      <trkpt lat="40.331110" lon="-5.824930">
        <ele>1093</ele>
        <time>2022-12-04T03:39:00Z</time>
      </trkpt>
      <trkpt lat="40.331180" lon="-5.825210">
        <ele>1092</ele>
        <time>2022-12-04T03:39:04Z</time>
      </trkpt>
      <trkpt lat="40.331160" lon="-5.825680">
        <ele>1090</ele>
        <time>2022-12-04T03:39:11Z</time>
      </trkpt>
      <trkpt lat="40.331190" lon="-5.825840">
        <ele>1089</ele>
        <time>2022-12-04T03:39:13Z</time>
      </trkpt>
      <trkpt lat="40.331270" lon="-5.825970">
        <ele>1089</ele>
        <time>2022-12-04T03:39:15Z</time>
      </trkpt>
      <trkpt lat="40.331360" lon="-5.826040">
        <ele>1089</ele>
        <time>2022-12-04T03:39:17Z</time>
      </trkpt>
      <trkpt lat="40.331790" lon="-5.826150">
        <ele>1095</ele>
        <time>2022-12-04T03:39:25Z</time>
      </trkpt>
      <trkpt lat="40.331940" lon="-5.826220">
        <ele>1098</ele>
        <time>2022-12-04T03:39:28Z</time>
      </trkpt>
      <trkpt lat="40.332100" lon="-5.826370">
        <ele>1099</ele>
        <time>2022-12-04T03:39:31Z</time>
      </trkpt>
      <trkpt lat="40.332330" lon="-5.826640">
        <ele>1099</ele>
        <time>2022-12-04T03:39:37Z</time>
      </trkpt>
      <trkpt lat="40.332430" lon="-5.826840">
        <ele>1101</ele>
        <time>2022-12-04T03:39:40Z</time>
      </trkpt>
      <trkpt lat="40.332440" lon="-5.827050">
        <ele>1102</ele>
        <time>2022-12-04T03:39:43Z</time>
      </trkpt>
      <trkpt lat="40.332340" lon="-5.827480">
        <ele>1100</ele>
        <time>2022-12-04T03:39:49Z</time>
      </trkpt>
      <trkpt lat="40.332340" lon="-5.827700">
        <ele>1102</ele>
        <time>2022-12-04T03:39:52Z</time>
      </trkpt>
      <trkpt lat="40.332410" lon="-5.828340">
        <ele>1110</ele>
        <time>2022-12-04T03:40:01Z</time>
      </trkpt>
      <trkpt lat="40.332360" lon="-5.829160">
        <ele>1110</ele>
        <time>2022-12-04T03:40:12Z</time>
      </trkpt>
      <trkpt lat="40.332420" lon="-5.829440">
        <ele>1110</ele>
        <time>2022-12-04T03:40:16Z</time>
      </trkpt>
      <trkpt lat="40.332690" lon="-5.829770">
        <ele>1111</ele>
        <time>2022-12-04T03:40:22Z</time>
      </trkpt>
      <trkpt lat="40.332980" lon="-5.829970">
        <ele>1112</ele>
        <time>2022-12-04T03:40:28Z</time>
      </trkpt>
      <trkpt lat="40.333250" lon="-5.830110">
        <ele>1113</ele>
        <time>2022-12-04T03:40:33Z</time>
      </trkpt>
      <trkpt lat="40.333760" lon="-5.830290">
        <ele>1115</ele>
        <time>2022-12-04T03:40:43Z</time>
      </trkpt>
      <trkpt lat="40.334190" lon="-5.830660">
        <ele>1113</ele>
        <time>2022-12-04T03:40:52Z</time>
      </trkpt>
      <trkpt lat="40.334500" lon="-5.830960">
        <ele>1115</ele>
        <time>2022-12-04T03:40:59Z</time>
      </trkpt>
      <trkpt lat="40.334540" lon="-5.831040">
        <ele>1116</ele>
        <time>2022-12-04T03:41:00Z</time>
      </trkpt>
      <trkpt lat="40.334560" lon="-5.831180">
        <ele>1117</ele>
        <time>2022-12-04T03:41:02Z</time>
      </trkpt>
      <trkpt lat="40.334520" lon="-5.831690">
        <ele>1119</ele>
        <time>2022-12-04T03:41:09Z</time>
      </trkpt>
      <trkpt lat="40.334390" lon="-5.832230">
        <ele>1117</ele>
        <time>2022-12-04T03:41:17Z</time>
      </trkpt>
      <trkpt lat="40.334370" lon="-5.832730">
        <ele>1117</ele>
        <time>2022-12-04T03:41:23Z</time>
      </trkpt>
      <trkpt lat="40.334390" lon="-5.833250">
        <ele>1119</ele>
        <time>2022-12-04T03:41:30Z</time>
      </trkpt>
      <trkpt lat="40.334450" lon="-5.833700">
        <ele>1122</ele>
        <time>2022-12-04T03:41:37Z</time>
      </trkpt>
      <trkpt lat="40.334640" lon="-5.834470">
        <ele>1130</ele>
        <time>2022-12-04T03:41:48Z</time>
      </trkpt>
      <trkpt lat="40.334680" lon="-5.834710">
        <ele>1132</ele>
        <time>2022-12-04T03:41:51Z</time>
      </trkpt>
      <trkpt lat="40.334710" lon="-5.835790">
        <ele>1140</ele>
        <time>2022-12-04T03:42:06Z</time>
      </trkpt>
      <trkpt lat="40.334730" lon="-5.836110">
        <ele>1141</ele>
        <time>2022-12-04T03:42:10Z</time>
      </trkpt>
      <trkpt lat="40.334780" lon="-5.836250">
        <ele>1142</ele>
        <time>2022-12-04T03:42:12Z</time>
      </trkpt>
      <trkpt lat="40.335280" lon="-5.837180">
        <ele>1149</ele>
        <time>2022-12-04T03:42:27Z</time>
      </trkpt>
      <trkpt lat="40.335810" lon="-5.838010">
        <ele>1146</ele>
        <time>2022-12-04T03:42:42Z</time>
      </trkpt>
      <trkpt lat="40.335900" lon="-5.838060">
        <ele>1145</ele>
        <time>2022-12-04T03:42:44Z</time>
      </trkpt>
      <trkpt lat="40.336200" lon="-5.838020">
        <ele>1142</ele>
        <time>2022-12-04T03:42:49Z</time>
      </trkpt>
      <trkpt lat="40.336400" lon="-5.838020">
        <ele>1139</ele>
        <time>2022-12-04T03:42:53Z</time>
      </trkpt>
      <trkpt lat="40.336900" lon="-5.838110">
        <ele>1131</ele>
        <time>2022-12-04T03:43:02Z</time>
      </trkpt>
      <trkpt lat="40.336970" lon="-5.838100">
        <ele>1130</ele>
        <time>2022-12-04T03:43:03Z</time>
      </trkpt>
      <trkpt lat="40.337550" lon="-5.837500">
        <ele>1122</ele>
        <time>2022-12-04T03:43:16Z</time>
      </trkpt>
      <trkpt lat="40.337790" lon="-5.837100">
        <ele>1120</ele>
        <time>2022-12-04T03:43:23Z</time>
      </trkpt>
      <trkpt lat="40.338000" lon="-5.836560">
        <ele>1119</ele>
        <time>2022-12-04T03:43:31Z</time>
      </trkpt>
      <trkpt lat="40.338100" lon="-5.836400">
        <ele>1118</ele>
        <time>2022-12-04T03:43:34Z</time>
      </trkpt>
      <trkpt lat="40.338250" lon="-5.836260">
        <ele>1116</ele>
        <time>2022-12-04T03:43:37Z</time>
      </trkpt>
      <trkpt lat="40.338520" lon="-5.836170">
        <ele>1112</ele>
        <time>2022-12-04T03:43:42Z</time>
      </trkpt>
      <trkpt lat="40.339000" lon="-5.836090">
        <ele>1106</ele>
        <time>2022-12-04T03:43:51Z</time>
      </trkpt>
      <trkpt lat="40.339410" lon="-5.835930">
        <ele>1103</ele>
        <time>2022-12-04T03:43:59Z</time>
      </trkpt>
      <trkpt lat="40.340140" lon="-5.835850">
        <ele>1094</ele>
        <time>2022-12-04T03:44:12Z</time>
      </trkpt>
      <trkpt lat="40.340260" lon="-5.835800">
        <ele>1094</ele>
        <time>2022-12-04T03:44:14Z</time>
      </trkpt>
      <trkpt lat="40.340490" lon="-5.835610">
        <ele>1097</ele>
        <time>2022-12-04T03:44:19Z</time>
      </trkpt>
      <trkpt lat="40.340650" lon="-5.835520">
        <ele>1098</ele>
        <time>2022-12-04T03:44:22Z</time>
      </trkpt>
      <trkpt lat="40.340760" lon="-5.835520">
        <ele>1097</ele>
        <time>2022-12-04T03:44:24Z</time>
      </trkpt>
      <trkpt lat="40.340830" lon="-5.835560">
        <ele>1096</ele>
        <time>2022-12-04T03:44:25Z</time>
      </trkpt>
      <trkpt lat="40.341010" lon="-5.835730">
        <ele>1091</ele>
        <time>2022-12-04T03:44:29Z</time>
      </trkpt>
      <trkpt lat="40.341230" lon="-5.835800">
        <ele>1087</ele>
        <time>2022-12-04T03:44:33Z</time>
      </trkpt>
      <trkpt lat="40.341440" lon="-5.835750">
        <ele>1086</ele>
        <time>2022-12-04T03:44:37Z</time>
      </trkpt>
      <trkpt lat="40.342030" lon="-5.835480">
        <ele>1078</ele>
        <time>2022-12-04T03:44:48Z</time>
      </trkpt>
      <trkpt lat="40.342190" lon="-5.835400">
        <ele>1076</ele>
        <time>2022-12-04T03:44:51Z</time>
      </trkpt>
      <trkpt lat="40.342690" lon="-5.835050">
        <ele>1072</ele>
        <time>2022-12-04T03:45:01Z</time>
      </trkpt>
      <trkpt lat="40.342840" lon="-5.834890">
        <ele>1073</ele>
        <time>2022-12-04T03:45:05Z</time>
      </trkpt>
      <trkpt lat="40.343130" lon="-5.834650">
        <ele>1072</ele>
        <time>2022-12-04T03:45:11Z</time>
      </trkpt>
      <trkpt lat="40.343830" lon="-5.834130">
        <ele>1069</ele>
        <time>2022-12-04T03:45:25Z</time>
      </trkpt>
      <trkpt lat="40.344150" lon="-5.833970">
        <ele>1066</ele>
        <time>2022-12-04T03:45:31Z</time>
      </trkpt>
      <trkpt lat="40.344590" lon="-5.833910">
        <ele>1062</ele>
        <time>2022-12-04T03:45:39Z</time>
      </trkpt>
      <trkpt lat="40.344690" lon="-5.833920">
        <ele>1060</ele>
        <time>2022-12-04T03:45:41Z</time>
      </trkpt>
      <trkpt lat="40.344740" lon="-5.833990">
        <ele>1058</ele>
        <time>2022-12-04T03:45:42Z</time>
      </trkpt>
      <trkpt lat="40.344760" lon="-5.834080">
        <ele>1056</ele>
        <time>2022-12-04T03:45:43Z</time>
      </trkpt>
      <trkpt lat="40.344740" lon="-5.834190">
        <ele>1054</ele>
        <time>2022-12-04T03:45:45Z</time>
      </trkpt>
      <trkpt lat="40.344670" lon="-5.834290">
        <ele>1052</ele>
        <time>2022-12-04T03:45:47Z</time>
      </trkpt>
      <trkpt lat="40.344330" lon="-5.834560">
        <ele>1050</ele>
        <time>2022-12-04T03:45:54Z</time>
      </trkpt>
      <trkpt lat="40.344280" lon="-5.834640">
        <ele>1049</ele>
        <time>2022-12-04T03:45:55Z</time>
      </trkpt>
      <trkpt lat="40.344260" lon="-5.834730">
        <ele>1047</ele>
        <time>2022-12-04T03:45:56Z</time>
      </trkpt>
      <trkpt lat="40.344280" lon="-5.834810">
        <ele>1045</ele>
        <time>2022-12-04T03:45:58Z</time>
      </trkpt>
      <trkpt lat="40.344340" lon="-5.834870">
        <ele>1043</ele>
        <time>2022-12-04T03:45:59Z</time>
      </trkpt>
      <trkpt lat="40.344440" lon="-5.834920">
        <ele>1041</ele>
        <time>2022-12-04T03:46:01Z</time>
      </trkpt>
      <trkpt lat="40.344710" lon="-5.834950">
        <ele>1038</ele>
        <time>2022-12-04T03:46:06Z</time>
      </trkpt>
      <trkpt lat="40.344840" lon="-5.834900">
        <ele>1038</ele>
        <time>2022-12-04T03:46:08Z</time>
      </trkpt>
      <trkpt lat="40.344940" lon="-5.834820">
        <ele>1039</ele>
        <time>2022-12-04T03:46:10Z</time>
      </trkpt>
      <trkpt lat="40.345240" lon="-5.834450">
        <ele>1039</ele>
        <time>2022-12-04T03:46:17Z</time>
      </trkpt>
      <trkpt lat="40.345440" lon="-5.834250">
        <ele>1039</ele>
        <time>2022-12-04T03:46:22Z</time>
      </trkpt>
      <trkpt lat="40.345620" lon="-5.834110">
        <ele>1037</ele>
        <time>2022-12-04T03:46:26Z</time>
      </trkpt>
      <trkpt lat="40.345760" lon="-5.834040">
        <ele>1036</ele>
        <time>2022-12-04T03:46:28Z</time>
      </trkpt>
      <trkpt lat="40.346360" lon="-5.833910">
        <ele>1027</ele>
        <time>2022-12-04T03:46:39Z</time>
      </trkpt>
      <trkpt lat="40.346540" lon="-5.833830">
        <ele>1025</ele>
        <time>2022-12-04T03:46:43Z</time>
      </trkpt>
      <trkpt lat="40.347090" lon="-5.833410">
        <ele>1021</ele>
        <time>2022-12-04T03:46:54Z</time>
      </trkpt>
      <trkpt lat="40.347270" lon="-5.833200">
        <ele>1021</ele>
        <time>2022-12-04T03:46:58Z</time>
      </trkpt>
      <trkpt lat="40.347750" lon="-5.832940">
        <ele>1014</ele>
        <time>2022-12-04T03:47:07Z</time>
      </trkpt>
      <trkpt lat="40.348160" lon="-5.832600">
        <ele>1008</ele>
        <time>2022-12-04T03:47:16Z</time>
      </trkpt>
      <trkpt lat="40.348250" lon="-5.832580">
        <ele>1006</ele>
        <time>2022-12-04T03:47:18Z</time>
      </trkpt>
      <trkpt lat="40.348310" lon="-5.832630">
        <ele>1004</ele>
        <time>2022-12-04T03:47:19Z</time>
      </trkpt>
      <trkpt lat="40.348340" lon="-5.832760">
        <ele>1002</ele>
        <time>2022-12-04T03:47:21Z</time>
      </trkpt>
      <trkpt lat="40.348310" lon="-5.833000">
        <ele>1000</ele>
        <time>2022-12-04T03:47:24Z</time>
      </trkpt>
      <trkpt lat="40.348190" lon="-5.833430">
        <ele>997</ele>
        <time>2022-12-04T03:47:30Z</time>
      </trkpt>
      <trkpt lat="40.348110" lon="-5.833610">
        <ele>996</ele>
        <time>2022-12-04T03:47:33Z</time>
      </trkpt>
      <trkpt lat="40.347620" lon="-5.834310">
        <ele>994</ele>
        <time>2022-12-04T03:47:46Z</time>
      </trkpt>
      <trkpt lat="40.347560" lon="-5.834460">
        <ele>993</ele>
        <time>2022-12-04T03:47:48Z</time>
      </trkpt>
      <trkpt lat="40.347560" lon="-5.834590">
        <ele>991</ele>
        <time>2022-12-04T03:47:50Z</time>
      </trkpt>
      <trkpt lat="40.347610" lon="-5.834670">
        <ele>989</ele>
        <time>2022-12-04T03:47:51Z</time>
      </trkpt>
      <trkpt lat="40.347680" lon="-5.834720">
        <ele>987</ele>
        <time>2022-12-04T03:47:53Z</time>
      </trkpt>
      <trkpt lat="40.347750" lon="-5.834730">
        <ele>986</ele>
        <time>2022-12-04T03:47:54Z</time>
      </trkpt>
      <trkpt lat="40.347980" lon="-5.834700">
        <ele>983</ele>
        <time>2022-12-04T03:47:58Z</time>
      </trkpt>
      <trkpt lat="40.348220" lon="-5.834750">
        <ele>978</ele>
        <time>2022-12-04T03:48:03Z</time>
      </trkpt>
      <trkpt lat="40.348670" lon="-5.835040">
        <ele>973</ele>
        <time>2022-12-04T03:48:11Z</time>
      </trkpt>
      <trkpt lat="40.348870" lon="-5.835310">
        <ele>972</ele>
        <time>2022-12-04T03:48:17Z</time>
      </trkpt>
      <trkpt lat="40.349140" lon="-5.835780">
        <ele>969</ele>
        <time>2022-12-04T03:48:25Z</time>
      </trkpt>
      <trkpt lat="40.349150" lon="-5.835860">
        <ele>969</ele>
        <time>2022-12-04T03:48:26Z</time>
      </trkpt>
      <trkpt lat="40.349120" lon="-5.835930">
        <ele>968</ele>
        <time>2022-12-04T03:48:27Z</time>
      </trkpt>
      <trkpt lat="40.348490" lon="-5.836630">
        <ele>956</ele>
        <time>2022-12-04T03:48:41Z</time>
      </trkpt>
      <trkpt lat="40.348460" lon="-5.836720">
        <ele>954</ele>
        <time>2022-12-04T03:48:43Z</time>
      </trkpt>
      <trkpt lat="40.348460" lon="-5.836830">
        <ele>953</ele>
        <time>2022-12-04T03:48:44Z</time>
      </trkpt>
      <trkpt lat="40.348530" lon="-5.837100">
        <ele>951</ele>
        <time>2022-12-04T03:48:48Z</time>
      </trkpt>
      <trkpt lat="40.348530" lon="-5.837200">
        <ele>950</ele>
        <time>2022-12-04T03:48:49Z</time>
      </trkpt>
      <trkpt lat="40.348500" lon="-5.837330">
        <ele>949</ele>
        <time>2022-12-04T03:48:51Z</time>
      </trkpt>
      <trkpt lat="40.348440" lon="-5.837460">
        <ele>947</ele>
        <time>2022-12-04T03:48:53Z</time>
      </trkpt>
      <trkpt lat="40.348130" lon="-5.837930">
        <ele>938</ele>
        <time>2022-12-04T03:49:02Z</time>
      </trkpt>
      <trkpt lat="40.348120" lon="-5.838100">
        <ele>936</ele>
        <time>2022-12-04T03:49:04Z</time>
      </trkpt>
      <trkpt lat="40.348140" lon="-5.838150">
        <ele>936</ele>
        <time>2022-12-04T03:49:05Z</time>
      </trkpt>
      <trkpt lat="40.348520" lon="-5.838600">
        <ele>934</ele>
        <time>2022-12-04T03:49:14Z</time>
      </trkpt>
      <trkpt lat="40.348830" lon="-5.839060">
        <ele>934</ele>
        <time>2022-12-04T03:49:22Z</time>
      </trkpt>
      <trkpt lat="40.348860" lon="-5.839200">
        <ele>934</ele>
        <time>2022-12-04T03:49:24Z</time>
      </trkpt>
      <trkpt lat="40.348840" lon="-5.839320">
        <ele>933</ele>
        <time>2022-12-04T03:49:26Z</time>
      </trkpt>
      <trkpt lat="40.348740" lon="-5.839560">
        <ele>931</ele>
        <time>2022-12-04T03:49:30Z</time>
      </trkpt>
      <trkpt lat="40.348720" lon="-5.839690">
        <ele>930</ele>
        <time>2022-12-04T03:49:31Z</time>
      </trkpt>
      <trkpt lat="40.348740" lon="-5.839790">
        <ele>930</ele>
        <time>2022-12-04T03:49:33Z</time>
      </trkpt>
      <trkpt lat="40.348800" lon="-5.839890">
        <ele>930</ele>
        <time>2022-12-04T03:49:35Z</time>
      </trkpt>
      <trkpt lat="40.348940" lon="-5.840050">
        <ele>931</ele>
        <time>2022-12-04T03:49:38Z</time>
      </trkpt>
      <trkpt lat="40.348990" lon="-5.840040">
        <ele>932</ele>
        <time>2022-12-04T03:49:39Z</time>
      </trkpt>
      <trkpt lat="40.349120" lon="-5.839880">
        <ele>935</ele>
        <time>2022-12-04T03:49:42Z</time>
      </trkpt>
      <trkpt lat="40.349490" lon="-5.839840">
        <ele>936</ele>
        <time>2022-12-04T03:49:49Z</time>
      </trkpt>
      <trkpt lat="40.349530" lon="-5.839900">
        <ele>936</ele>
        <time>2022-12-04T03:49:50Z</time>
      </trkpt>
      <trkpt lat="40.349590" lon="-5.840110">
        <ele>934</ele>
        <time>2022-12-04T03:49:53Z</time>
      </trkpt>
      <trkpt lat="40.349610" lon="-5.840250">
        <ele>932</ele>
        <time>2022-12-04T03:49:55Z</time>
      </trkpt>
      <trkpt lat="40.349660" lon="-5.840340">
        <ele>930</ele>
        <time>2022-12-04T03:49:56Z</time>
      </trkpt>
      <trkpt lat="40.349710" lon="-5.840370">
        <ele>930</ele>
        <time>2022-12-04T03:49:57Z</time>
      </trkpt>
      <trkpt lat="40.350100" lon="-5.840460">
        <ele>926</ele>
        <time>2022-12-04T03:50:04Z</time>
      </trkpt>
      <trkpt lat="40.350170" lon="-5.840450">
        <ele>925</ele>
        <time>2022-12-04T03:50:05Z</time>
      </trkpt>
      <trkpt lat="40.350440" lon="-5.840210">
        <ele>925</ele>
        <time>2022-12-04T03:50:11Z</time>
      </trkpt>
      <trkpt lat="40.350470" lon="-5.840390">
        <ele>921</ele>
        <time>2022-12-04T03:50:14Z</time>
      </trkpt>
      <trkpt lat="40.350470" lon="-5.840510">
        <ele>919</ele>
        <time>2022-12-04T03:50:15Z</time>
      </trkpt>
      <trkpt lat="40.350390" lon="-5.840920">
        <ele>913</ele>
        <time>2022-12-04T03:50:21Z</time>
      </trkpt>
      <trkpt lat="40.350340" lon="-5.841030">
        <ele>912</ele>
        <time>2022-12-04T03:50:23Z</time>
      </trkpt>
      <trkpt lat="40.350200" lon="-5.841220">
        <ele>910</ele>
        <time>2022-12-04T03:50:26Z</time>
      </trkpt>
      <trkpt lat="40.350150" lon="-5.841320">
        <ele>909</ele>
        <time>2022-12-04T03:50:28Z</time>
      </trkpt>
      <trkpt lat="40.350080" lon="-5.841550">
        <ele>905</ele>
        <time>2022-12-04T03:50:31Z</time>
      </trkpt>
      <trkpt lat="40.349720" lon="-5.841860">
        <ele>903</ele>
        <time>2022-12-04T03:50:39Z</time>
      </trkpt>
      <trkpt lat="40.349970" lon="-5.841940">
        <ele>899</ele>
        <time>2022-12-04T03:50:44Z</time>
      </trkpt>
      <trkpt lat="40.350040" lon="-5.842060">
        <ele>895</ele>
        <time>2022-12-04T03:50:46Z</time>
      </trkpt>
      <trkpt lat="40.350040" lon="-5.842140">
        <ele>894</ele>
        <time>2022-12-04T03:50:47Z</time>
      </trkpt>
      <trkpt lat="40.349820" lon="-5.842340">
        <ele>892</ele>
        <time>2022-12-04T03:50:52Z</time>
      </trkpt>
      <trkpt lat="40.349680" lon="-5.842590">
        <ele>889</ele>
        <time>2022-12-04T03:50:56Z</time>
      </trkpt>
      <trkpt lat="40.349740" lon="-5.842700">
        <ele>886</ele>
        <time>2022-12-04T03:50:58Z</time>
      </trkpt>
      <trkpt lat="40.349850" lon="-5.842720">
        <ele>885</ele>
        <time>2022-12-04T03:51:00Z</time>
      </trkpt>
      <trkpt lat="40.350430" lon="-5.842560">
        <ele>880</ele>
        <time>2022-12-04T03:51:10Z</time>
      </trkpt>
      <trkpt lat="40.350510" lon="-5.842580">
        <ele>879</ele>
        <time>2022-12-04T03:51:12Z</time>
      </trkpt>
      <trkpt lat="40.350580" lon="-5.842750">
        <ele>876</ele>
        <time>2022-12-04T03:51:14Z</time>
      </trkpt>
      <trkpt lat="40.350760" lon="-5.843370">
        <ele>868</ele>
        <time>2022-12-04T03:51:23Z</time>
      </trkpt>
      <trkpt lat="40.350810" lon="-5.843590">
        <ele>867</ele>
        <time>2022-12-04T03:51:26Z</time>
      </trkpt>
      <trkpt lat="40.350380" lon="-5.843860">
        <ele>869</ele>
        <time>2022-12-04T03:51:35Z</time>
      </trkpt>
      <trkpt lat="40.350280" lon="-5.844050">
        <ele>869</ele>
        <time>2022-12-04T03:51:38Z</time>
      </trkpt>
      <trkpt lat="40.350260" lon="-5.844290">
        <ele>868</ele>
        <time>2022-12-04T03:51:41Z</time>
      </trkpt>
      <trkpt lat="40.350320" lon="-5.844660">
        <ele>866</ele>
        <time>2022-12-04T03:51:46Z</time>
      </trkpt>
      <trkpt lat="40.350270" lon="-5.845230">
        <ele>865</ele>
        <time>2022-12-04T03:51:54Z</time>
      </trkpt>
      <trkpt lat="40.350150" lon="-5.845440">
        <ele>865</ele>
        <time>2022-12-04T03:51:58Z</time>
      </trkpt>
      <trkpt lat="40.350220" lon="-5.846020">
        <ele>867</ele>
        <time>2022-12-04T03:52:06Z</time>
      </trkpt>
      <trkpt lat="40.350280" lon="-5.847020">
        <ele>875</ele>
        <time>2022-12-04T03:52:19Z</time>
      </trkpt>
      <trkpt lat="40.350260" lon="-5.847430">
        <ele>879</ele>
        <time>2022-12-04T03:52:25Z</time>
      </trkpt>
      <trkpt lat="40.349900" lon="-5.847260">
        <ele>880</ele>
        <time>2022-12-04T03:52:32Z</time>
      </trkpt>
      <trkpt lat="40.349960" lon="-5.847650">
        <ele>884</ele>
        <time>2022-12-04T03:52:37Z</time>
      </trkpt>
      <trkpt lat="40.349980" lon="-5.848140">
        <ele>888</ele>
        <time>2022-12-04T03:52:44Z</time>
      </trkpt>
      <trkpt lat="40.349970" lon="-5.848430">
        <ele>889</ele>
        <time>2022-12-04T03:52:48Z</time>
      </trkpt>
      <trkpt lat="40.349940" lon="-5.848750">
        <ele>888</ele>
        <time>2022-12-04T03:52:52Z</time>
      </trkpt>
      <trkpt lat="40.349870" lon="-5.849180">
        <ele>887</ele>
        <time>2022-12-04T03:52:58Z</time>
      </trkpt>
      <trkpt lat="40.349720" lon="-5.849750">
        <ele>886</ele>
        <time>2022-12-04T03:53:06Z</time>
      </trkpt>
      <trkpt lat="40.349580" lon="-5.850090">
        <ele>886</ele>
        <time>2022-12-04T03:53:11Z</time>
      </trkpt>
      <trkpt lat="40.349090" lon="-5.851070">
        <ele>888</ele>
        <time>2022-12-04T03:53:27Z</time>
      </trkpt>
      <trkpt lat="40.348730" lon="-5.851680">
        <ele>886</ele>
        <time>2022-12-04T03:53:38Z</time>
      </trkpt>
      <trkpt lat="40.348240" lon="-5.852440">
        <ele>884</ele>
        <time>2022-12-04T03:53:51Z</time>
      </trkpt>
      <trkpt lat="40.347660" lon="-5.853190">
        <ele>887</ele>
        <time>2022-12-04T03:54:06Z</time>
      </trkpt>
      <trkpt lat="40.347320" lon="-5.853590">
        <ele>888</ele>
        <time>2022-12-04T03:54:14Z</time>
      </trkpt>
      <trkpt lat="40.346830" lon="-5.854110">
        <ele>885</ele>
        <time>2022-12-04T03:54:25Z</time>
      </trkpt>
      <trkpt lat="40.346400" lon="-5.854510">
        <ele>885</ele>
        <time>2022-12-04T03:54:34Z</time>
      </trkpt>
      <trkpt lat="40.345980" lon="-5.854820">
        <ele>885</ele>
        <time>2022-12-04T03:54:43Z</time>
      </trkpt>
      <trkpt lat="40.344880" lon="-5.855360">
        <ele>886</ele>
        <time>2022-12-04T03:55:04Z</time>
      </trkpt>
      <trkpt lat="40.344640" lon="-5.855490">
        <ele>887</ele>
        <time>2022-12-04T03:55:08Z</time>
      </trkpt>
      <trkpt lat="40.344410" lon="-5.855660">
        <ele>887</ele>
        <time>2022-12-04T03:55:13Z</time>
      </trkpt>
      <trkpt lat="40.343960" lon="-5.856050">
        <ele>888</ele>
        <time>2022-12-04T03:55:23Z</time>
      </trkpt>
      <trkpt lat="40.343760" lon="-5.856280">
        <ele>889</ele>
        <time>2022-12-04T03:55:27Z</time>
      </trkpt>
      <trkpt lat="40.343580" lon="-5.856520">
        <ele>890</ele>
        <time>2022-12-04T03:55:32Z</time>
      </trkpt>
      <trkpt lat="40.343380" lon="-5.856820">
        <ele>892</ele>
        <time>2022-12-04T03:55:37Z</time>
      </trkpt>
      <trkpt lat="40.343120" lon="-5.857310">
        <ele>894</ele>
        <time>2022-12-04T03:55:46Z</time>
      </trkpt>
      <trkpt lat="40.342990" lon="-5.857620">
        <ele>893</ele>
        <time>2022-12-04T03:55:50Z</time>
      </trkpt>
      <trkpt lat="40.342800" lon="-5.858200">
        <ele>890</ele>
        <time>2022-12-04T03:55:59Z</time>
      </trkpt>
      <trkpt lat="40.342640" lon="-5.859010">
        <ele>884</ele>
        <time>2022-12-04T03:56:10Z</time>
      </trkpt>
      <trkpt lat="40.342610" lon="-5.859410">
        <ele>882</ele>
        <time>2022-12-04T03:56:16Z</time>
      </trkpt>
      <trkpt lat="40.342600" lon="-5.859820">
        <ele>882</ele>
        <time>2022-12-04T03:56:21Z</time>
      </trkpt>
      <trkpt lat="40.342610" lon="-5.860120">
        <ele>880</ele>
        <time>2022-12-04T03:56:25Z</time>
      </trkpt>
      <trkpt lat="40.342670" lon="-5.860680">
        <ele>875</ele>
        <time>2022-12-04T03:56:33Z</time>
      </trkpt>
      <trkpt lat="40.342780" lon="-5.861240">
        <ele>870</ele>
        <time>2022-12-04T03:56:41Z</time>
      </trkpt>
      <trkpt lat="40.342940" lon="-5.861840">
        <ele>866</ele>
        <time>2022-12-04T03:56:49Z</time>
      </trkpt>
      <trkpt lat="40.343260" lon="-5.862880">
        <ele>861</ele>
        <time>2022-12-04T03:57:05Z</time>
      </trkpt>
      <trkpt lat="40.343360" lon="-5.863250">
        <ele>859</ele>
        <time>2022-12-04T03:57:10Z</time>
      </trkpt>
      <trkpt lat="40.343430" lon="-5.863610">
        <ele>858</ele>
        <time>2022-12-04T03:57:15Z</time>
      </trkpt>
      <trkpt lat="40.343490" lon="-5.864250">
        <ele>857</ele>
        <time>2022-12-04T03:57:24Z</time>
      </trkpt>
      <trkpt lat="40.343510" lon="-5.864550">
        <ele>856</ele>
        <time>2022-12-04T03:57:28Z</time>
      </trkpt>
      <trkpt lat="40.343500" lon="-5.864830">
        <ele>855</ele>
        <time>2022-12-04T03:57:32Z</time>
      </trkpt>
      <trkpt lat="40.343450" lon="-5.865520">
        <ele>852</ele>
        <time>2022-12-04T03:57:41Z</time>
      </trkpt>
      <trkpt lat="40.343150" lon="-5.867940">
        <ele>843</ele>
        <time>2022-12-04T03:58:14Z</time>
      </trkpt>
      <trkpt lat="40.343000" lon="-5.869140">
        <ele>840</ele>
        <time>2022-12-04T03:58:31Z</time>
      </trkpt>
      <trkpt lat="40.342920" lon="-5.869630">
        <ele>839</ele>
        <time>2022-12-04T03:58:38Z</time>
      </trkpt>
      <trkpt lat="40.342560" lon="-5.870910">
        <ele>832</ele>
        <time>2022-12-04T03:58:56Z</time>
      </trkpt>
      <trkpt lat="40.342360" lon="-5.871500">
        <ele>830</ele>
        <time>2022-12-04T03:59:05Z</time>
      </trkpt>
      <trkpt lat="40.341760" lon="-5.873000">
        <ele>829</ele>
        <time>2022-12-04T03:59:28Z</time>
      </trkpt>
      <trkpt lat="40.341640" lon="-5.873270">
        <ele>828</ele>
        <time>2022-12-04T03:59:32Z</time>
      </trkpt>
      <trkpt lat="40.341320" lon="-5.873850">
        <ele>827</ele>
        <time>2022-12-04T03:59:42Z</time>
      </trkpt>
      <trkpt lat="40.341260" lon="-5.873990">
        <ele>827</ele>
        <time>2022-12-04T03:59:44Z</time>
      </trkpt>
      <trkpt lat="40.341210" lon="-5.874230">
        <ele>827</ele>
        <time>2022-12-04T03:59:47Z</time>
      </trkpt>
      <trkpt lat="40.341230" lon="-5.874430">
        <ele>829</ele>
        <time>2022-12-04T03:59:50Z</time>
      </trkpt>
      <trkpt lat="40.341260" lon="-5.874530">
        <ele>830</ele>
        <time>2022-12-04T03:59:52Z</time>
      </trkpt>
      <trkpt lat="40.341370" lon="-5.874710">
        <ele>832</ele>
        <time>2022-12-04T03:59:55Z</time>
      </trkpt>
      <trkpt lat="40.341460" lon="-5.874800">
        <ele>833</ele>
        <time>2022-12-04T03:59:57Z</time>
      </trkpt>
      <trkpt lat="40.341780" lon="-5.875000">
        <ele>832</ele>
        <time>2022-12-04T04:00:03Z</time>
      </trkpt>
      <trkpt lat="40.341940" lon="-5.875110">
        <ele>832</ele>
        <time>2022-12-04T04:00:06Z</time>
      </trkpt>
      <trkpt lat="40.342100" lon="-5.875320">
        <ele>833</ele>
        <time>2022-12-04T04:00:10Z</time>
      </trkpt>
      <trkpt lat="40.342160" lon="-5.875450">
        <ele>834</ele>
        <time>2022-12-04T04:00:12Z</time>
      </trkpt>
      <trkpt lat="40.342210" lon="-5.875590">
        <ele>835</ele>
        <time>2022-12-04T04:00:14Z</time>
      </trkpt>
      <trkpt lat="40.342290" lon="-5.875970">
        <ele>839</ele>
        <time>2022-12-04T04:00:20Z</time>
      </trkpt>
      <trkpt lat="40.342500" lon="-5.877260">
        <ele>849</ele>
        <time>2022-12-04T04:00:38Z</time>
      </trkpt>
      <trkpt lat="40.342520" lon="-5.877540">
        <ele>850</ele>
        <time>2022-12-04T04:00:41Z</time>
      </trkpt>
      <trkpt lat="40.342510" lon="-5.877680">
        <ele>849</ele>
        <time>2022-12-04T04:00:43Z</time>
      </trkpt>
      <trkpt lat="40.342460" lon="-5.877940">
        <ele>850</ele>
        <time>2022-12-04T04:00:47Z</time>
      </trkpt>
      <trkpt lat="40.342250" lon="-5.878430">
        <ele>854</ele>
        <time>2022-12-04T04:00:55Z</time>
      </trkpt>
      <trkpt lat="40.342100" lon="-5.878720">
        <ele>857</ele>
        <time>2022-12-04T04:00:59Z</time>
      </trkpt>
      <trkpt lat="40.341980" lon="-5.878940">
        <ele>859</ele>
        <time>2022-12-04T04:01:03Z</time>
      </trkpt>
      <trkpt lat="40.341830" lon="-5.879160">
        <ele>862</ele>
        <time>2022-12-04T04:01:07Z</time>
      </trkpt>
      <trkpt lat="40.341370" lon="-5.879730">
        <ele>872</ele>
        <time>2022-12-04T04:01:18Z</time>
      </trkpt>
      <trkpt lat="40.341270" lon="-5.879950">
        <ele>873</ele>
        <time>2022-12-04T04:01:22Z</time>
      </trkpt>
      <trkpt lat="40.341230" lon="-5.880080">
        <ele>873</ele>
        <time>2022-12-04T04:01:24Z</time>
      </trkpt>
      <trkpt lat="40.341200" lon="-5.880250">
        <ele>874</ele>
        <time>2022-12-04T04:01:26Z</time>
      </trkpt>
      <trkpt lat="40.341210" lon="-5.880510">
        <ele>874</ele>
        <time>2022-12-04T04:01:30Z</time>
      </trkpt>
      <trkpt lat="40.341290" lon="-5.881090">
        <ele>871</ele>
        <time>2022-12-04T04:01:38Z</time>
      </trkpt>
      <trkpt lat="40.341280" lon="-5.881310">
        <ele>872</ele>
        <time>2022-12-04T04:01:41Z</time>
      </trkpt>
      <trkpt lat="40.341210" lon="-5.881590">
        <ele>874</ele>
        <time>2022-12-04T04:01:45Z</time>
      </trkpt>
      <trkpt lat="40.340940" lon="-5.882200">
        <ele>881</ele>
        <time>2022-12-04T04:01:54Z</time>
      </trkpt>
      <trkpt lat="40.340920" lon="-5.882320">
        <ele>881</ele>
        <time>2022-12-04T04:01:56Z</time>
      </trkpt>
      <trkpt lat="40.340910" lon="-5.882560">
        <ele>882</ele>
        <time>2022-12-04T04:01:59Z</time>
      </trkpt>
      <trkpt lat="40.340980" lon="-5.882850">
        <ele>884</ele>
        <time>2022-12-04T04:02:03Z</time>
      </trkpt>
      <trkpt lat="40.341090" lon="-5.883200">
        <ele>886</ele>
        <time>2022-12-04T04:02:08Z</time>
      </trkpt>
      <trkpt lat="40.341140" lon="-5.883520">
        <ele>888</ele>
        <time>2022-12-04T04:02:13Z</time>
      </trkpt>
      <trkpt lat="40.341130" lon="-5.883720">
        <ele>889</ele>
        <time>2022-12-04T04:02:15Z</time>
      </trkpt>
      <trkpt lat="40.341010" lon="-5.884260">
        <ele>894</ele>
        <time>2022-12-04T04:02:23Z</time>
      </trkpt>
      <trkpt lat="40.340850" lon="-5.884830">
        <ele>894</ele>
        <time>2022-12-04T04:02:31Z</time>
      </trkpt>
      <trkpt lat="40.340740" lon="-5.885060">
        <ele>894</ele>
        <time>2022-12-04T04:02:35Z</time>
      </trkpt>
      <trkpt lat="40.340570" lon="-5.885290">
        <ele>896</ele>
        <time>2022-12-04T04:02:39Z</time>
      </trkpt>
      <trkpt lat="40.340460" lon="-5.885400">
        <ele>897</ele>
        <time>2022-12-04T04:02:42Z</time>
      </trkpt>
      <trkpt lat="40.340220" lon="-5.885550">
        <ele>899</ele>
        <time>2022-12-04T04:02:47Z</time>
      </trkpt>
      <trkpt lat="40.339640" lon="-5.885740">
        <ele>905</ele>
        <time>2022-12-04T04:02:57Z</time>
      </trkpt>
      <trkpt lat="40.339480" lon="-5.885830">
        <ele>907</ele>
        <time>2022-12-04T04:03:00Z</time>
      </trkpt>
      <trkpt lat="40.339280" lon="-5.886010">
        <ele>910</ele>
        <time>2022-12-04T04:03:05Z</time>
      </trkpt>
      <trkpt lat="40.339090" lon="-5.886320">
        <ele>914</ele>
        <time>2022-12-04T04:03:10Z</time>
      </trkpt>
      <trkpt lat="40.339020" lon="-5.886490">
        <ele>916</ele>
        <time>2022-12-04T04:03:13Z</time>
      </trkpt>
      <trkpt lat="40.338960" lon="-5.886770">
        <ele>919</ele>
        <time>2022-12-04T04:03:17Z</time>
      </trkpt>
      <trkpt lat="40.338940" lon="-5.886970">
        <ele>919</ele>
        <time>2022-12-04T04:03:19Z</time>
      </trkpt>
      <trkpt lat="40.338910" lon="-5.887690">
        <ele>921</ele>
        <time>2022-12-04T04:03:29Z</time>
      </trkpt>
      <trkpt lat="40.338890" lon="-5.887860">
        <ele>922</ele>
        <time>2022-12-04T04:03:31Z</time>
      </trkpt>
      <trkpt lat="40.338730" lon="-5.888470">
        <ele>925</ele>
        <time>2022-12-04T04:03:40Z</time>
      </trkpt>
      <trkpt lat="40.338540" lon="-5.889100">
        <ele>926</ele>
        <time>2022-12-04T04:03:49Z</time>
      </trkpt>
      <trkpt lat="40.338460" lon="-5.889270">
        <ele>926</ele>
        <time>2022-12-04T04:03:52Z</time>
      </trkpt>
      <trkpt lat="40.338300" lon="-5.889540">
        <ele>928</ele>
        <time>2022-12-04T04:03:57Z</time>
      </trkpt>
      <trkpt lat="40.338110" lon="-5.889750">
        <ele>929</ele>
        <time>2022-12-04T04:04:01Z</time>
      </trkpt>
      <trkpt lat="40.337590" lon="-5.890280">
        <ele>934</ele>
        <time>2022-12-04T04:04:13Z</time>
      </trkpt>
      <trkpt lat="40.337360" lon="-5.890560">
        <ele>938</ele>
        <time>2022-12-04T04:04:18Z</time>
      </trkpt>
      <trkpt lat="40.337130" lon="-5.890920">
        <ele>943</ele>
        <time>2022-12-04T04:04:25Z</time>
      </trkpt>
      <trkpt lat="40.336980" lon="-5.891220">
        <ele>944</ele>
        <time>2022-12-04T04:04:30Z</time>
      </trkpt>
      <trkpt lat="40.336740" lon="-5.891890">
        <ele>947</ele>
        <time>2022-12-04T04:04:40Z</time>
      </trkpt>
      <trkpt lat="40.336530" lon="-5.892570">
        <ele>949</ele>
        <time>2022-12-04T04:04:50Z</time>
      </trkpt>
      <trkpt lat="40.336450" lon="-5.892910">
        <ele>951</ele>
        <time>2022-12-04T04:04:54Z</time>
      </trkpt>
      <trkpt lat="40.336390" lon="-5.893260">
        <ele>951</ele>
        <time>2022-12-04T04:04:59Z</time>
      </trkpt>
      <trkpt lat="40.336340" lon="-5.893610">
        <ele>954</ele>
        <time>2022-12-04T04:05:04Z</time>
      </trkpt>
      <trkpt lat="40.336250" lon="-5.894970">
        <ele>956</ele>
        <time>2022-12-04T04:05:23Z</time>
      </trkpt>
      <trkpt lat="40.336190" lon="-5.895220">
        <ele>956</ele>
        <time>2022-12-04T04:05:26Z</time>
      </trkpt>
      <trkpt lat="40.336160" lon="-5.895380">
        <ele>956</ele>
        <time>2022-12-04T04:05:28Z</time>
      </trkpt>
      <trkpt lat="40.335840" lon="-5.896420">
        <ele>953</ele>
        <time>2022-12-04T04:05:44Z</time>
      </trkpt>
      <trkpt lat="40.335640" lon="-5.896900">
        <ele>950</ele>
        <time>2022-12-04T04:05:51Z</time>
      </trkpt>
      <trkpt lat="40.335480" lon="-5.897270">
        <ele>947</ele>
        <time>2022-12-04T04:05:57Z</time>
      </trkpt>
      <trkpt lat="40.335400" lon="-5.897400">
        <ele>947</ele>
        <time>2022-12-04T04:05:59Z</time>
      </trkpt>
      <trkpt lat="40.335000" lon="-5.897940">
        <ele>944</ele>
        <time>2022-12-04T04:06:09Z</time>
      </trkpt>
      <trkpt lat="40.334780" lon="-5.898330">
        <ele>941</ele>
        <time>2022-12-04T04:06:16Z</time>
      </trkpt>
      <trkpt lat="40.334720" lon="-5.898490">
        <ele>943</ele>
        <time>2022-12-04T04:06:18Z</time>
      </trkpt>
      <trkpt lat="40.334670" lon="-5.898680">
        <ele>944</ele>
        <time>2022-12-04T04:06:21Z</time>
      </trkpt>
      <trkpt lat="40.334660" lon="-5.898880">
        <ele>944</ele>
        <time>2022-12-04T04:06:24Z</time>
      </trkpt>
      <trkpt lat="40.334670" lon="-5.899020">
        <ele>943</ele>
        <time>2022-12-04T04:06:26Z</time>
      </trkpt>
      <trkpt lat="40.334710" lon="-5.899200">
        <ele>942</ele>
        <time>2022-12-04T04:06:28Z</time>
      </trkpt>
      <trkpt lat="40.335050" lon="-5.899970">
        <ele>938</ele>
        <time>2022-12-04T04:06:40Z</time>
      </trkpt>
      <trkpt lat="40.335090" lon="-5.900140">
        <ele>936</ele>
        <time>2022-12-04T04:06:43Z</time>
      </trkpt>
      <trkpt lat="40.335100" lon="-5.900300">
        <ele>934</ele>
        <time>2022-12-04T04:06:45Z</time>
      </trkpt>
      <trkpt lat="40.335070" lon="-5.900490">
        <ele>932</ele>
        <time>2022-12-04T04:06:47Z</time>
      </trkpt>
      <trkpt lat="40.335000" lon="-5.900670">
        <ele>932</ele>
        <time>2022-12-04T04:06:50Z</time>
      </trkpt>
      <trkpt lat="40.334880" lon="-5.900820">
        <ele>932</ele>
        <time>2022-12-04T04:06:53Z</time>
      </trkpt>
      <trkpt lat="40.334560" lon="-5.901140">
        <ele>930</ele>
        <time>2022-12-04T04:07:00Z</time>
      </trkpt>
      <trkpt lat="40.334250" lon="-5.901410">
        <ele>930</ele>
        <time>2022-12-04T04:07:07Z</time>
      </trkpt>
      <trkpt lat="40.333920" lon="-5.901790">
        <ele>929</ele>
        <time>2022-12-04T04:07:15Z</time>
      </trkpt>
      <trkpt lat="40.333000" lon="-5.902410">
        <ele>936</ele>
        <time>2022-12-04T04:07:33Z</time>
      </trkpt>
      <trkpt lat="40.332890" lon="-5.902500">
        <ele>937</ele>
        <time>2022-12-04T04:07:35Z</time>
      </trkpt>
      <trkpt lat="40.332620" lon="-5.903120">
        <ele>934</ele>
        <time>2022-12-04T04:07:45Z</time>
      </trkpt>
      <trkpt lat="40.332520" lon="-5.903280">
        <ele>933</ele>
        <time>2022-12-04T04:07:48Z</time>
      </trkpt>
      <trkpt lat="40.332250" lon="-5.903510">
        <ele>937</ele>
        <time>2022-12-04T04:07:54Z</time>
      </trkpt>
      <trkpt lat="40.332080" lon="-5.903700">
        <ele>938</ele>
        <time>2022-12-04T04:07:58Z</time>
      </trkpt>
      <trkpt lat="40.331810" lon="-5.904070">
        <ele>939</ele>
        <time>2022-12-04T04:08:05Z</time>
      </trkpt>
      <trkpt lat="40.331330" lon="-5.904900">
        <ele>939</ele>
        <time>2022-12-04T04:08:19Z</time>
      </trkpt>
      <trkpt lat="40.331220" lon="-5.905180">
        <ele>939</ele>
        <time>2022-12-04T04:08:23Z</time>
      </trkpt>
      <trkpt lat="40.330930" lon="-5.906000">
        <ele>940</ele>
        <time>2022-12-04T04:08:35Z</time>
      </trkpt>
      <trkpt lat="40.330360" lon="-5.907220">
        <ele>947</ele>
        <time>2022-12-04T04:08:55Z</time>
      </trkpt>
      <trkpt lat="40.330310" lon="-5.907350">
        <ele>947</ele>
        <time>2022-12-04T04:08:57Z</time>
      </trkpt>
      <trkpt lat="40.330300" lon="-5.907480">
        <ele>948</ele>
        <time>2022-12-04T04:08:58Z</time>
      </trkpt>
      <trkpt lat="40.330310" lon="-5.907590">
        <ele>949</ele>
        <time>2022-12-04T04:09:00Z</time>
      </trkpt>
      <trkpt lat="40.330580" lon="-5.908510">
        <ele>956</ele>
        <time>2022-12-04T04:09:13Z</time>
      </trkpt>
      <trkpt lat="40.330600" lon="-5.908640">
        <ele>956</ele>
        <time>2022-12-04T04:09:15Z</time>
      </trkpt>
      <trkpt lat="40.330530" lon="-5.908870">
        <ele>956</ele>
        <time>2022-12-04T04:09:18Z</time>
      </trkpt>
      <trkpt lat="40.330410" lon="-5.909100">
        <ele>956</ele>
        <time>2022-12-04T04:09:22Z</time>
      </trkpt>
      <trkpt lat="40.330390" lon="-5.909210">
        <ele>957</ele>
        <time>2022-12-04T04:09:24Z</time>
      </trkpt>
      <trkpt lat="40.330390" lon="-5.909370">
        <ele>958</ele>
        <time>2022-12-04T04:09:26Z</time>
      </trkpt>
      <trkpt lat="40.330520" lon="-5.910630">
        <ele>970</ele>
        <time>2022-12-04T04:09:43Z</time>
      </trkpt>
      <trkpt lat="40.330500" lon="-5.910830">
        <ele>972</ele>
        <time>2022-12-04T04:09:46Z</time>
      </trkpt>
      <trkpt lat="40.330430" lon="-5.911030">
        <ele>974</ele>
        <time>2022-12-04T04:09:49Z</time>
      </trkpt>
      <trkpt lat="40.329980" lon="-5.911860">
        <ele>977</ele>
        <time>2022-12-04T04:10:03Z</time>
      </trkpt>
      <trkpt lat="40.329860" lon="-5.912150">
        <ele>979</ele>
        <time>2022-12-04T04:10:07Z</time>
      </trkpt>
      <trkpt lat="40.329780" lon="-5.912370">
        <ele>980</ele>
        <time>2022-12-04T04:10:11Z</time>
      </trkpt>
      <trkpt lat="40.328850" lon="-5.916090">
        <ele>980</ele>
        <time>2022-12-04T04:11:04Z</time>
      </trkpt>
      <trkpt lat="40.328770" lon="-5.916290">
        <ele>980</ele>
        <time>2022-12-04T04:11:07Z</time>
      </trkpt>
      <trkpt lat="40.328670" lon="-5.916420">
        <ele>980</ele>
        <time>2022-12-04T04:11:09Z</time>
      </trkpt>
      <trkpt lat="40.328520" lon="-5.916530">
        <ele>981</ele>
        <time>2022-12-04T04:11:12Z</time>
      </trkpt>
      <trkpt lat="40.328140" lon="-5.916650">
        <ele>985</ele>
        <time>2022-12-04T04:11:19Z</time>
      </trkpt>
      <trkpt lat="40.328050" lon="-5.916690">
        <ele>986</ele>
        <time>2022-12-04T04:11:21Z</time>
      </trkpt>
      <trkpt lat="40.327970" lon="-5.916770">
        <ele>986</ele>
        <time>2022-12-04T04:11:23Z</time>
      </trkpt>
      <trkpt lat="40.327890" lon="-5.916870">
        <ele>986</ele>
        <time>2022-12-04T04:11:25Z</time>
      </trkpt>
      <trkpt lat="40.327830" lon="-5.916980">
        <ele>985</ele>
        <time>2022-12-04T04:11:26Z</time>
      </trkpt>
      <trkpt lat="40.327770" lon="-5.917170">
        <ele>984</ele>
        <time>2022-12-04T04:11:29Z</time>
      </trkpt>
      <trkpt lat="40.327690" lon="-5.917320">
        <ele>983</ele>
        <time>2022-12-04T04:11:32Z</time>
      </trkpt>
      <trkpt lat="40.327620" lon="-5.917420">
        <ele>984</ele>
        <time>2022-12-04T04:11:34Z</time>
      </trkpt>
      <trkpt lat="40.327530" lon="-5.917510">
        <ele>984</ele>
        <time>2022-12-04T04:11:36Z</time>
      </trkpt>
      <trkpt lat="40.327100" lon="-5.917730">
        <ele>985</ele>
        <time>2022-12-04T04:11:44Z</time>
      </trkpt>
      <trkpt lat="40.326210" lon="-5.918120">
        <ele>996</ele>
        <time>2022-12-04T04:12:01Z</time>
      </trkpt>
      <trkpt lat="40.326090" lon="-5.918200">
        <ele>998</ele>
        <time>2022-12-04T04:12:03Z</time>
      </trkpt>
      <trkpt lat="40.326020" lon="-5.918290">
        <ele>999</ele>
        <time>2022-12-04T04:12:05Z</time>
      </trkpt>
      <trkpt lat="40.325830" lon="-5.918610">
        <ele>1002</ele>
        <time>2022-12-04T04:12:10Z</time>
      </trkpt>
      <trkpt lat="40.325620" lon="-5.919250">
        <ele>1000</ele>
        <time>2022-12-04T04:12:20Z</time>
      </trkpt>
      <trkpt lat="40.325450" lon="-5.919530">
        <ele>1001</ele>
        <time>2022-12-04T04:12:24Z</time>
      </trkpt>
      <trkpt lat="40.324510" lon="-5.920910">
        <ele>1002</ele>
        <time>2022-12-04T04:12:50Z</time>
      </trkpt>
      <trkpt lat="40.323990" lon="-5.921610">
        <ele>999</ele>
        <time>2022-12-04T04:13:03Z</time>
      </trkpt>
      <trkpt lat="40.323540" lon="-5.922160">
        <ele>997</ele>
        <time>2022-12-04T04:13:14Z</time>
      </trkpt>
      <trkpt lat="40.323020" lon="-5.922760">
        <ele>994</ele>
        <time>2022-12-04T04:13:26Z</time>
      </trkpt>
      <trkpt lat="40.322710" lon="-5.923140">
        <ele>990</ele>
        <time>2022-12-04T04:13:34Z</time>
      </trkpt>
      <trkpt lat="40.322450" lon="-5.923410">
        <ele>987</ele>
        <time>2022-12-04T04:13:40Z</time>
      </trkpt>
      <trkpt lat="40.322270" lon="-5.923450">
        <ele>987</ele>
        <time>2022-12-04T04:13:43Z</time>
      </trkpt>
      <trkpt lat="40.321820" lon="-5.923440">
        <ele>989</ele>
        <time>2022-12-04T04:13:51Z</time>
      </trkpt>
      <trkpt lat="40.321710" lon="-5.923470">
        <ele>989</ele>
        <time>2022-12-04T04:13:53Z</time>
      </trkpt>
      <trkpt lat="40.321620" lon="-5.923530">
        <ele>989</ele>
        <time>2022-12-04T04:13:55Z</time>
      </trkpt>
      <trkpt lat="40.321520" lon="-5.923630">
        <ele>990</ele>
        <time>2022-12-04T04:13:57Z</time>
      </trkpt>
      <trkpt lat="40.321460" lon="-5.923720">
        <ele>990</ele>
        <time>2022-12-04T04:13:58Z</time>
      </trkpt>
      <trkpt lat="40.321400" lon="-5.923970">
        <ele>988</ele>
        <time>2022-12-04T04:14:02Z</time>
      </trkpt>
      <trkpt lat="40.321360" lon="-5.924440">
        <ele>983</ele>
        <time>2022-12-04T04:14:08Z</time>
      </trkpt>
      <trkpt lat="40.321290" lon="-5.924740">
        <ele>981</ele>
        <time>2022-12-04T04:14:13Z</time>
      </trkpt>
      <trkpt lat="40.321130" lon="-5.925170">
        <ele>981</ele>
        <time>2022-12-04T04:14:19Z</time>
      </trkpt>
      <trkpt lat="40.321090" lon="-5.925430">
        <ele>981</ele>
        <time>2022-12-04T04:14:23Z</time>
      </trkpt>
      <trkpt lat="40.321140" lon="-5.925690">
        <ele>979</ele>
        <time>2022-12-04T04:14:26Z</time>
      </trkpt>
      <trkpt lat="40.321380" lon="-5.926310">
        <ele>974</ele>
        <time>2022-12-04T04:14:36Z</time>
      </trkpt>
      <trkpt lat="40.321450" lon="-5.926570">
        <ele>972</ele>
        <time>2022-12-04T04:14:40Z</time>
      </trkpt>
      <trkpt lat="40.321480" lon="-5.926870">
        <ele>971</ele>
        <time>2022-12-04T04:14:44Z</time>
      </trkpt>
      <trkpt lat="40.321460" lon="-5.927150">
        <ele>970</ele>
        <time>2022-12-04T04:14:48Z</time>
      </trkpt>
      <trkpt lat="40.321370" lon="-5.927680">
        <ele>969</ele>
        <time>2022-12-04T04:14:55Z</time>
      </trkpt>
      <trkpt lat="40.321340" lon="-5.927920">
        <ele>968</ele>
        <time>2022-12-04T04:14:58Z</time>
      </trkpt>
      <trkpt lat="40.321340" lon="-5.928120">
        <ele>966</ele>
        <time>2022-12-04T04:15:01Z</time>
      </trkpt>
      <trkpt lat="40.321420" lon="-5.928410">
        <ele>966</ele>
        <time>2022-12-04T04:15:05Z</time>
      </trkpt>
      <trkpt lat="40.321530" lon="-5.928620">
        <ele>967</ele>
        <time>2022-12-04T04:15:09Z</time>
      </trkpt>
      <trkpt lat="40.321680" lon="-5.928780">
        <ele>969</ele>
        <time>2022-12-04T04:15:12Z</time>
      </trkpt>
      <trkpt lat="40.321840" lon="-5.928880">
        <ele>971</ele>
        <time>2022-12-04T04:15:15Z</time>
      </trkpt>
      <trkpt lat="40.322000" lon="-5.928930">
        <ele>972</ele>
        <time>2022-12-04T04:15:18Z</time>
      </trkpt>
      <trkpt lat="40.322580" lon="-5.929000">
        <ele>975</ele>
        <time>2022-12-04T04:15:28Z</time>
      </trkpt>
      <trkpt lat="40.322850" lon="-5.929100">
        <ele>975</ele>
        <time>2022-12-04T04:15:33Z</time>
      </trkpt>
      <trkpt lat="40.323740" lon="-5.929780">
        <ele>974</ele>
        <time>2022-12-04T04:15:52Z</time>
      </trkpt>
      <trkpt lat="40.323870" lon="-5.929920">
        <ele>974</ele>
        <time>2022-12-04T04:15:55Z</time>
      </trkpt>
      <trkpt lat="40.323970" lon="-5.930070">
        <ele>974</ele>
        <time>2022-12-04T04:15:57Z</time>
      </trkpt>
      <trkpt lat="40.324080" lon="-5.930310">
        <ele>974</ele>
        <time>2022-12-04T04:16:01Z</time>
      </trkpt>
      <trkpt lat="40.324400" lon="-5.931480">
        <ele>978</ele>
        <time>2022-12-04T04:16:18Z</time>
      </trkpt>
      <trkpt lat="40.324620" lon="-5.932500">
        <ele>983</ele>
        <time>2022-12-04T04:16:32Z</time>
      </trkpt>
      <trkpt lat="40.324620" lon="-5.932830">
        <ele>980</ele>
        <time>2022-12-04T04:16:37Z</time>
      </trkpt>
      <trkpt lat="40.324570" lon="-5.933100">
        <ele>977</ele>
        <time>2022-12-04T04:16:41Z</time>
      </trkpt>
      <trkpt lat="40.324460" lon="-5.933480">
        <ele>972</ele>
        <time>2022-12-04T04:16:46Z</time>
      </trkpt>
      <trkpt lat="40.324450" lon="-5.933690">
        <ele>970</ele>
        <time>2022-12-04T04:16:49Z</time>
      </trkpt>
      <trkpt lat="40.324480" lon="-5.933860">
        <ele>968</ele>
        <time>2022-12-04T04:16:51Z</time>
      </trkpt>
      <trkpt lat="40.324530" lon="-5.933990">
        <ele>966</ele>
        <time>2022-12-04T04:16:53Z</time>
      </trkpt>
      <trkpt lat="40.324640" lon="-5.934130">
        <ele>964</ele>
        <time>2022-12-04T04:16:56Z</time>
      </trkpt>
      <trkpt lat="40.325020" lon="-5.934480">
        <ele>959</ele>
        <time>2022-12-04T04:17:04Z</time>
      </trkpt>
      <trkpt lat="40.325220" lon="-5.934750">
        <ele>957</ele>
        <time>2022-12-04T04:17:10Z</time>
      </trkpt>
      <trkpt lat="40.325920" lon="-5.936190">
        <ele>954</ele>
        <time>2022-12-04T04:17:33Z</time>
      </trkpt>
      <trkpt lat="40.326000" lon="-5.936440">
        <ele>952</ele>
        <time>2022-12-04T04:17:36Z</time>
      </trkpt>
      <trkpt lat="40.326030" lon="-5.936690">
        <ele>951</ele>
        <time>2022-12-04T04:17:40Z</time>
      </trkpt>
      <trkpt lat="40.326030" lon="-5.936890">
        <ele>950</ele>
        <time>2022-12-04T04:17:43Z</time>
      </trkpt>
      <trkpt lat="40.326000" lon="-5.937170">
        <ele>949</ele>
        <time>2022-12-04T04:17:46Z</time>
      </trkpt>
      <trkpt lat="40.325900" lon="-5.937770">
        <ele>947</ele>
        <time>2022-12-04T04:17:55Z</time>
      </trkpt>
      <trkpt lat="40.325770" lon="-5.938390">
        <ele>945</ele>
        <time>2022-12-04T04:18:03Z</time>
      </trkpt>
      <trkpt lat="40.325730" lon="-5.938830">
        <ele>941</ele>
        <time>2022-12-04T04:18:09Z</time>
      </trkpt>
      <trkpt lat="40.325720" lon="-5.939410">
        <ele>938</ele>
        <time>2022-12-04T04:18:17Z</time>
      </trkpt>
      <trkpt lat="40.325980" lon="-5.942290">
        <ele>929</ele>
        <time>2022-12-04T04:18:57Z</time>
      </trkpt>
      <trkpt lat="40.325980" lon="-5.942740">
        <ele>927</ele>
        <time>2022-12-04T04:19:03Z</time>
      </trkpt>
      <trkpt lat="40.325960" lon="-5.943950">
        <ele>922</ele>
        <time>2022-12-04T04:19:19Z</time>
      </trkpt>
      <trkpt lat="40.325970" lon="-5.944330">
        <ele>921</ele>
        <time>2022-12-04T04:19:24Z</time>
      </trkpt>
      <trkpt lat="40.326060" lon="-5.944820">
        <ele>919</ele>
        <time>2022-12-04T04:19:31Z</time>
      </trkpt>
      <trkpt lat="40.326400" lon="-5.946010">
        <ele>916</ele>
        <time>2022-12-04T04:19:48Z</time>
      </trkpt>
      <trkpt lat="40.326440" lon="-5.946270">
        <ele>916</ele>
        <time>2022-12-04T04:19:52Z</time>
      </trkpt>
      <trkpt lat="40.326420" lon="-5.946970">
        <ele>916</ele>
        <time>2022-12-04T04:20:01Z</time>
      </trkpt>
      <trkpt lat="40.326340" lon="-5.947460">
        <ele>918</ele>
        <time>2022-12-04T04:20:08Z</time>
      </trkpt>
      <trkpt lat="40.326400" lon="-5.948820">
        <ele>927</ele>
        <time>2022-12-04T04:20:27Z</time>
      </trkpt>
      <trkpt lat="40.326400" lon="-5.949040">
        <ele>929</ele>
        <time>2022-12-04T04:20:30Z</time>
      </trkpt>
      <trkpt lat="40.326170" lon="-5.950110">
        <ele>931</ele>
        <time>2022-12-04T04:20:45Z</time>
      </trkpt>
      <trkpt lat="40.326160" lon="-5.950370">
        <ele>931</ele>
        <time>2022-12-04T04:20:48Z</time>
      </trkpt>
      <trkpt lat="40.326290" lon="-5.950900">
        <ele>930</ele>
        <time>2022-12-04T04:20:56Z</time>
      </trkpt>
      <trkpt lat="40.326430" lon="-5.951330">
        <ele>930</ele>
        <time>2022-12-04T04:21:02Z</time>
      </trkpt>
      <trkpt lat="40.326540" lon="-5.951780">
        <ele>930</ele>
        <time>2022-12-04T04:21:09Z</time>
      </trkpt>
      <trkpt lat="40.326540" lon="-5.952040">
        <ele>931</ele>
        <time>2022-12-04T04:21:12Z</time>
      </trkpt>
      <trkpt lat="40.326500" lon="-5.952090">
        <ele>930</ele>
        <time>2022-12-04T04:21:13Z</time>
      </trkpt>
      <trkpt lat="40.326400" lon="-5.952150">
        <ele>929</ele>
        <time>2022-12-04T04:21:15Z</time>
      </trkpt>
      <trkpt lat="40.326400" lon="-5.952400">
        <ele>930</ele>
        <time>2022-12-04T04:21:19Z</time>
      </trkpt>
      <trkpt lat="40.326320" lon="-5.953060">
        <ele>929</ele>
        <time>2022-12-04T04:21:28Z</time>
      </trkpt>
      <trkpt lat="40.326150" lon="-5.954020">
        <ele>926</ele>
        <time>2022-12-04T04:21:41Z</time>
      </trkpt>
      <trkpt lat="40.326070" lon="-5.954650">
        <ele>926</ele>
        <time>2022-12-04T04:21:50Z</time>
      </trkpt>
      <trkpt lat="40.326060" lon="-5.955190">
        <ele>927</ele>
        <time>2022-12-04T04:21:57Z</time>
      </trkpt>
      <trkpt lat="40.326230" lon="-5.956450">
        <ele>925</ele>
        <time>2022-12-04T04:22:14Z</time>
      </trkpt>
      <trkpt lat="40.326260" lon="-5.956860">
        <ele>924</ele>
        <time>2022-12-04T04:22:20Z</time>
      </trkpt>
      <trkpt lat="40.326210" lon="-5.960390">
        <ele>927</ele>
        <time>2022-12-04T04:23:08Z</time>
      </trkpt>
      <trkpt lat="40.326180" lon="-5.960610">
        <ele>927</ele>
        <time>2022-12-04T04:23:11Z</time>
      </trkpt>
      <trkpt lat="40.325930" lon="-5.961790">
        <ele>924</ele>
        <time>2022-12-04T04:23:27Z</time>
      </trkpt>
      <trkpt lat="40.325690" lon="-5.962850">
        <ele>923</ele>
        <time>2022-12-04T04:23:42Z</time>
      </trkpt>
      <trkpt lat="40.325620" lon="-5.963070">
        <ele>923</ele>
        <time>2022-12-04T04:23:46Z</time>
      </trkpt>
      <trkpt lat="40.324620" lon="-5.965060">
        <ele>926</ele>
        <time>2022-12-04T04:24:18Z</time>
      </trkpt>
      <trkpt lat="40.324550" lon="-5.965220">
        <ele>925</ele>
        <time>2022-12-04T04:24:20Z</time>
      </trkpt>
      <trkpt lat="40.324210" lon="-5.966560">
        <ele>924</ele>
        <time>2022-12-04T04:24:40Z</time>
      </trkpt>
      <trkpt lat="40.324270" lon="-5.966680">
        <ele>924</ele>
        <time>2022-12-04T04:24:42Z</time>
      </trkpt>
      <trkpt lat="40.324400" lon="-5.967500">
        <ele>923</ele>
        <time>2022-12-04T04:24:53Z</time>
      </trkpt>
      <trkpt lat="40.324390" lon="-5.967900">
        <ele>923</ele>
        <time>2022-12-04T04:24:58Z</time>
      </trkpt>
      <trkpt lat="40.324440" lon="-5.968380">
        <ele>922</ele>
        <time>2022-12-04T04:25:05Z</time>
      </trkpt>
      <trkpt lat="40.324450" lon="-5.968550">
        <ele>922</ele>
        <time>2022-12-04T04:25:07Z</time>
      </trkpt>
      <trkpt lat="40.324540" lon="-5.969010">
        <ele>923</ele>
        <time>2022-12-04T04:25:14Z</time>
      </trkpt>
      <trkpt lat="40.324780" lon="-5.969560">
        <ele>923</ele>
        <time>2022-12-04T04:25:22Z</time>
      </trkpt>
      <trkpt lat="40.324940" lon="-5.970110">
        <ele>924</ele>
        <time>2022-12-04T04:25:30Z</time>
      </trkpt>
      <trkpt lat="40.324920" lon="-5.970830">
        <ele>925</ele>
        <time>2022-12-04T04:25:40Z</time>
      </trkpt>
      <trkpt lat="40.324980" lon="-5.971180">
        <ele>925</ele>
        <time>2022-12-04T04:25:45Z</time>
      </trkpt>
      <trkpt lat="40.325010" lon="-5.971610">
        <ele>925</ele>
        <time>2022-12-04T04:25:51Z</time>
      </trkpt>
      <trkpt lat="40.325010" lon="-5.971750">
        <ele>925</ele>
        <time>2022-12-04T04:25:53Z</time>
      </trkpt>
      <trkpt lat="40.325040" lon="-5.971960">
        <ele>924</ele>
        <time>2022-12-04T04:25:56Z</time>
      </trkpt>
      <trkpt lat="40.325120" lon="-5.972220">
        <ele>923</ele>
        <time>2022-12-04T04:25:59Z</time>
      </trkpt>
      <trkpt lat="40.325210" lon="-5.972360">
        <ele>923</ele>
        <time>2022-12-04T04:26:02Z</time>
      </trkpt>
      <trkpt lat="40.325240" lon="-5.972370">
        <ele>922</ele>
        <time>2022-12-04T04:26:02Z</time>
      </trkpt>
      <trkpt lat="40.325440" lon="-5.972760">
        <ele>922</ele>
        <time>2022-12-04T04:26:09Z</time>
      </trkpt>
      <trkpt lat="40.325340" lon="-5.973040">
        <ele>923</ele>
        <time>2022-12-04T04:26:13Z</time>
      </trkpt>
      <trkpt lat="40.325350" lon="-5.973140">
        <ele>923</ele>
        <time>2022-12-04T04:26:14Z</time>
      </trkpt>
      <trkpt lat="40.325540" lon="-5.973590">
        <ele>924</ele>
        <time>2022-12-04T04:26:21Z</time>
      </trkpt>
      <trkpt lat="40.325830" lon="-5.973310">
        <ele>923</ele>
        <time>2022-12-04T04:26:28Z</time>
      </trkpt>
      <trkpt lat="40.326230" lon="-5.974420">
        <ele>924</ele>
        <time>2022-12-04T04:26:44Z</time>
      </trkpt>
      <trkpt lat="40.326100" lon="-5.974640">
        <ele>926</ele>
        <time>2022-12-04T04:26:48Z</time>
      </trkpt>
      <trkpt lat="40.327860" lon="-5.974990">
        <ele>920</ele>
        <time>2022-12-04T04:27:20Z</time>
      </trkpt>
      <trkpt lat="40.328440" lon="-5.975120">
        <ele>919</ele>
        <time>2022-12-04T04:27:30Z</time>
      </trkpt>
      <trkpt lat="40.328720" lon="-5.975210">
        <ele>918</ele>
        <time>2022-12-04T04:27:35Z</time>
      </trkpt>
      <trkpt lat="40.329000" lon="-5.975390">
        <ele>917</ele>
        <time>2022-12-04T04:27:41Z</time>
      </trkpt>
      <trkpt lat="40.335930" lon="-5.980620">
        <ele>905</ele>
        <time>2022-12-04T04:30:03Z</time>
      </trkpt>
      <trkpt lat="40.336830" lon="-5.981220">
        <ele>904</ele>
        <time>2022-12-04T04:30:21Z</time>
      </trkpt>
      <trkpt lat="40.337900" lon="-5.982050">
        <ele>905</ele>
        <time>2022-12-04T04:30:43Z</time>
      </trkpt>
      <trkpt lat="40.338330" lon="-5.982290">
        <ele>902</ele>
        <time>2022-12-04T04:30:52Z</time>
      </trkpt>
      <trkpt lat="40.338680" lon="-5.982520">
        <ele>900</ele>
        <time>2022-12-04T04:30:59Z</time>
      </trkpt>
      <trkpt lat="40.339020" lon="-5.982890">
        <ele>900</ele>
        <time>2022-12-04T04:31:06Z</time>
      </trkpt>
      <trkpt lat="40.339320" lon="-5.983550">
        <ele>907</ele>
        <time>2022-12-04T04:31:17Z</time>
      </trkpt>
      <trkpt lat="40.339440" lon="-5.983610">
        <ele>908</ele>
        <time>2022-12-04T04:31:19Z</time>
      </trkpt>
      <trkpt lat="40.339590" lon="-5.983590">
        <ele>907</ele>
        <time>2022-12-04T04:31:22Z</time>
      </trkpt>
      <trkpt lat="40.339690" lon="-5.983530">
        <ele>906</ele>
        <time>2022-12-04T04:31:24Z</time>
      </trkpt>
      <trkpt lat="40.339910" lon="-5.983200">
        <ele>899</ele>
        <time>2022-12-04T04:31:30Z</time>
      </trkpt>
      <trkpt lat="40.340100" lon="-5.982870">
        <ele>894</ele>
        <time>2022-12-04T04:31:35Z</time>
      </trkpt>
      <trkpt lat="40.340240" lon="-5.982710">
        <ele>892</ele>
        <time>2022-12-04T04:31:39Z</time>
      </trkpt>
      <trkpt lat="40.340350" lon="-5.982640">
        <ele>891</ele>
        <time>2022-12-04T04:31:41Z</time>
      </trkpt>
      <trkpt lat="40.340760" lon="-5.982610">
        <ele>893</ele>
        <time>2022-12-04T04:31:48Z</time>
      </trkpt>
      <trkpt lat="40.341190" lon="-5.982760">
        <ele>896</ele>
        <time>2022-12-04T04:31:56Z</time>
      </trkpt>
      <trkpt lat="40.341390" lon="-5.982750">
        <ele>895</ele>
        <time>2022-12-04T04:32:00Z</time>
      </trkpt>
      <trkpt lat="40.342300" lon="-5.982480">
        <ele>890</ele>
        <time>2022-12-04T04:32:16Z</time>
      </trkpt>
      <trkpt lat="40.342440" lon="-5.982470">
        <ele>889</ele>
        <time>2022-12-04T04:32:19Z</time>
      </trkpt>
      <trkpt lat="40.342580" lon="-5.982510">
        <ele>890</ele>
        <time>2022-12-04T04:32:21Z</time>
      </trkpt>
      <trkpt lat="40.342920" lon="-5.982720">
        <ele>892</ele>
        <time>2022-12-04T04:32:28Z</time>
      </trkpt>
      <trkpt lat="40.343010" lon="-5.982720">
        <ele>892</ele>
        <time>2022-12-04T04:32:30Z</time>
      </trkpt>
      <trkpt lat="40.343640" lon="-5.982570">
        <ele>886</ele>
        <time>2022-12-04T04:32:41Z</time>
      </trkpt>
      <trkpt lat="40.343830" lon="-5.982570">
        <ele>885</ele>
        <time>2022-12-04T04:32:44Z</time>
      </trkpt>
      <trkpt lat="40.344070" lon="-5.982650">
        <ele>885</ele>
        <time>2022-12-04T04:32:49Z</time>
      </trkpt>
      <trkpt lat="40.344330" lon="-5.982890">
        <ele>883</ele>
        <time>2022-12-04T04:32:54Z</time>
      </trkpt>
      <trkpt lat="40.344380" lon="-5.983010">
        <ele>883</ele>
        <time>2022-12-04T04:32:56Z</time>
      </trkpt>
      <trkpt lat="40.344510" lon="-5.983610">
        <ele>886</ele>
        <time>2022-12-04T04:33:05Z</time>
      </trkpt>
      <trkpt lat="40.344620" lon="-5.983740">
        <ele>885</ele>
        <time>2022-12-04T04:33:07Z</time>
      </trkpt>
      <trkpt lat="40.344980" lon="-5.984030">
        <ele>880</ele>
        <time>2022-12-04T04:33:15Z</time>
      </trkpt>
      <trkpt lat="40.345360" lon="-5.984180">
        <ele>873</ele>
        <time>2022-12-04T04:33:22Z</time>
      </trkpt>
      <trkpt lat="40.345450" lon="-5.984250">
        <ele>871</ele>
        <time>2022-12-04T04:33:24Z</time>
      </trkpt>
      <trkpt lat="40.345480" lon="-5.984350">
        <ele>870</ele>
        <time>2022-12-04T04:33:25Z</time>
      </trkpt>
      <trkpt lat="40.345500" lon="-5.984470">
        <ele>868</ele>
        <time>2022-12-04T04:33:27Z</time>
      </trkpt>
      <trkpt lat="40.345460" lon="-5.984780">
        <ele>868</ele>
        <time>2022-12-04T04:33:31Z</time>
      </trkpt>
      <trkpt lat="40.345220" lon="-5.985660">
        <ele>873</ele>
        <time>2022-12-04T04:33:44Z</time>
      </trkpt>
      <trkpt lat="40.345140" lon="-5.985820">
        <ele>874</ele>
        <time>2022-12-04T04:33:46Z</time>
      </trkpt>
      <trkpt lat="40.344910" lon="-5.986160">
        <ele>880</ele>
        <time>2022-12-04T04:33:53Z</time>
      </trkpt>
      <trkpt lat="40.344890" lon="-5.986240">
        <ele>880</ele>
        <time>2022-12-04T04:33:54Z</time>
      </trkpt>
      <trkpt lat="40.344910" lon="-5.986350">
        <ele>880</ele>
        <time>2022-12-04T04:33:55Z</time>
      </trkpt>
      <trkpt lat="40.344970" lon="-5.986400">
        <ele>879</ele>
        <time>2022-12-04T04:33:57Z</time>
      </trkpt>
      <trkpt lat="40.345140" lon="-5.986470">
        <ele>876</ele>
        <time>2022-12-04T04:34:00Z</time>
      </trkpt>
      <trkpt lat="40.345330" lon="-5.986480">
        <ele>874</ele>
        <time>2022-12-04T04:34:03Z</time>
      </trkpt>
      <trkpt lat="40.345710" lon="-5.986360">
        <ele>867</ele>
        <time>2022-12-04T04:34:10Z</time>
      </trkpt>
      <trkpt lat="40.346030" lon="-5.986170">
        <ele>861</ele>
        <time>2022-12-04T04:34:16Z</time>
      </trkpt>
      <trkpt lat="40.346260" lon="-5.986080">
        <ele>857</ele>
        <time>2022-12-04T04:34:21Z</time>
      </trkpt>
      <trkpt lat="40.346550" lon="-5.986020">
        <ele>854</ele>
        <time>2022-12-04T04:34:26Z</time>
      </trkpt>
      <trkpt lat="40.346760" lon="-5.986070">
        <ele>854</ele>
        <time>2022-12-04T04:34:30Z</time>
      </trkpt>
      <trkpt lat="40.346870" lon="-5.986130">
        <ele>855</ele>
        <time>2022-12-04T04:34:32Z</time>
      </trkpt>
      <trkpt lat="40.346980" lon="-5.986220">
        <ele>857</ele>
        <time>2022-12-04T04:34:34Z</time>
      </trkpt>
      <trkpt lat="40.347150" lon="-5.986260">
        <ele>857</ele>
        <time>2022-12-04T04:34:37Z</time>
      </trkpt>
      <trkpt lat="40.347690" lon="-5.986210">
        <ele>852</ele>
        <time>2022-12-04T04:34:47Z</time>
      </trkpt>
      <trkpt lat="40.348000" lon="-5.986140">
        <ele>849</ele>
        <time>2022-12-04T04:34:52Z</time>
      </trkpt>
      <trkpt lat="40.348790" lon="-5.985800">
        <ele>839</ele>
        <time>2022-12-04T04:35:07Z</time>
      </trkpt>
      <trkpt lat="40.349340" lon="-5.985630">
        <ele>833</ele>
        <time>2022-12-04T04:35:17Z</time>
      </trkpt>
      <trkpt lat="40.349500" lon="-5.985600">
        <ele>830</ele>
        <time>2022-12-04T04:35:20Z</time>
      </trkpt>
      <trkpt lat="40.349770" lon="-5.985700">
        <ele>829</ele>
        <time>2022-12-04T04:35:25Z</time>
      </trkpt>
      <trkpt lat="40.349860" lon="-5.985810">
        <ele>830</ele>
        <time>2022-12-04T04:35:27Z</time>
      </trkpt>
      <trkpt lat="40.349940" lon="-5.986090">
        <ele>831</ele>
        <time>2022-12-04T04:35:31Z</time>
      </trkpt>
      <trkpt lat="40.349940" lon="-5.986440">
        <ele>833</ele>
        <time>2022-12-04T04:35:36Z</time>
      </trkpt>
      <trkpt lat="40.349980" lon="-5.986630">
        <ele>833</ele>
        <time>2022-12-04T04:35:39Z</time>
      </trkpt>
      <trkpt lat="40.350070" lon="-5.986800">
        <ele>832</ele>
        <time>2022-12-04T04:35:41Z</time>
      </trkpt>
      <trkpt lat="40.350290" lon="-5.987120">
        <ele>829</ele>
        <time>2022-12-04T04:35:47Z</time>
      </trkpt>
      <trkpt lat="40.350360" lon="-5.987430">
        <ele>830</ele>
        <time>2022-12-04T04:35:52Z</time>
      </trkpt>
      <trkpt lat="40.350370" lon="-5.987640">
        <ele>832</ele>
        <time>2022-12-04T04:35:55Z</time>
      </trkpt>
      <trkpt lat="40.350390" lon="-5.987850">
        <ele>834</ele>
        <time>2022-12-04T04:35:57Z</time>
      </trkpt>
      <trkpt lat="40.350460" lon="-5.987940">
        <ele>834</ele>
        <time>2022-12-04T04:35:59Z</time>
      </trkpt>
      <trkpt lat="40.350570" lon="-5.987940">
        <ele>832</ele>
        <time>2022-12-04T04:36:01Z</time>
      </trkpt>
      <trkpt lat="40.350940" lon="-5.987800">
        <ele>825</ele>
        <time>2022-12-04T04:36:08Z</time>
      </trkpt>
      <trkpt lat="40.351080" lon="-5.987720">
        <ele>824</ele>
        <time>2022-12-04T04:36:11Z</time>
      </trkpt>
      <trkpt lat="40.351600" lon="-5.987090">
        <ele>813</ele>
        <time>2022-12-04T04:36:23Z</time>
      </trkpt>
      <trkpt lat="40.351750" lon="-5.987030">
        <ele>811</ele>
        <time>2022-12-04T04:36:26Z</time>
      </trkpt>
      <trkpt lat="40.351950" lon="-5.987020">
        <ele>809</ele>
        <time>2022-12-04T04:36:30Z</time>
      </trkpt>
      <trkpt lat="40.352140" lon="-5.987090">
        <ele>808</ele>
        <time>2022-12-04T04:36:33Z</time>
      </trkpt>
      <trkpt lat="40.352760" lon="-5.987470">
        <ele>810</ele>
        <time>2022-12-04T04:36:45Z</time>
      </trkpt>
      <trkpt lat="40.352960" lon="-5.987620">
        <ele>808</ele>
        <time>2022-12-04T04:36:49Z</time>
      </trkpt>
      <trkpt lat="40.353100" lon="-5.987950">
        <ele>804</ele>
        <time>2022-12-04T04:36:55Z</time>
      </trkpt>
      <trkpt lat="40.353170" lon="-5.988070">
        <ele>802</ele>
        <time>2022-12-04T04:36:57Z</time>
      </trkpt>
      <trkpt lat="40.353290" lon="-5.988190">
        <ele>801</ele>
        <time>2022-12-04T04:36:59Z</time>
      </trkpt>
      <trkpt lat="40.353690" lon="-5.988500">
        <ele>799</ele>
        <time>2022-12-04T04:37:08Z</time>
      </trkpt>
      <trkpt lat="40.353870" lon="-5.988610">
        <ele>799</ele>
        <time>2022-12-04T04:37:11Z</time>
      </trkpt>
      <trkpt lat="40.354360" lon="-5.989080">
        <ele>793</ele>
        <time>2022-12-04T04:37:22Z</time>
      </trkpt>
      <trkpt lat="40.355100" lon="-5.989650">
        <ele>790</ele>
        <time>2022-12-04T04:37:37Z</time>
      </trkpt>
      <trkpt lat="40.355280" lon="-5.989820">
        <ele>789</ele>
        <time>2022-12-04T04:37:41Z</time>
      </trkpt>
      <trkpt lat="40.355410" lon="-5.990020">
        <ele>787</ele>
        <time>2022-12-04T04:37:45Z</time>
      </trkpt>
      <trkpt lat="40.355510" lon="-5.990370">
        <ele>780</ele>
        <time>2022-12-04T04:37:50Z</time>
      </trkpt>
      <trkpt lat="40.355650" lon="-5.990600">
        <ele>777</ele>
        <time>2022-12-04T04:37:54Z</time>
      </trkpt>
      <trkpt lat="40.355850" lon="-5.990800">
        <ele>776</ele>
        <time>2022-12-04T04:37:58Z</time>
      </trkpt>
      <trkpt lat="40.356230" lon="-5.991020">
        <ele>774</ele>
        <time>2022-12-04T04:38:06Z</time>
      </trkpt>
      <trkpt lat="40.356570" lon="-5.991170">
        <ele>772</ele>
        <time>2022-12-04T04:38:12Z</time>
      </trkpt>
      <trkpt lat="40.356940" lon="-5.991260">
        <ele>770</ele>
        <time>2022-12-04T04:38:19Z</time>
      </trkpt>
      <trkpt lat="40.357630" lon="-5.991290">
        <ele>769</ele>
        <time>2022-12-04T04:38:31Z</time>
      </trkpt>
      <trkpt lat="40.357800" lon="-5.991350">
        <ele>769</ele>
        <time>2022-12-04T04:38:34Z</time>
      </trkpt>
      <trkpt lat="40.358470" lon="-5.991980">
        <ele>757</ele>
        <time>2022-12-04T04:38:49Z</time>
      </trkpt>
      <trkpt lat="40.358970" lon="-5.992360">
        <ele>753</ele>
        <time>2022-12-04T04:38:59Z</time>
      </trkpt>
      <trkpt lat="40.359180" lon="-5.992580">
        <ele>750</ele>
        <time>2022-12-04T04:39:04Z</time>
      </trkpt>
      <trkpt lat="40.359350" lon="-5.992870">
        <ele>745</ele>
        <time>2022-12-04T04:39:09Z</time>
      </trkpt>
      <trkpt lat="40.359520" lon="-5.993000">
        <ele>743</ele>
        <time>2022-12-04T04:39:12Z</time>
      </trkpt>
      <trkpt lat="40.359650" lon="-5.993070">
        <ele>742</ele>
        <time>2022-12-04T04:39:15Z</time>
      </trkpt>
      <trkpt lat="40.360150" lon="-5.993210">
        <ele>741</ele>
        <time>2022-12-04T04:39:24Z</time>
      </trkpt>
      <trkpt lat="40.360390" lon="-5.993230">
        <ele>738</ele>
        <time>2022-12-04T04:39:28Z</time>
      </trkpt>
      <trkpt lat="40.360650" lon="-5.993170">
        <ele>736</ele>
        <time>2022-12-04T04:39:33Z</time>
      </trkpt>
      <trkpt lat="40.360790" lon="-5.993000">
        <ele>736</ele>
        <time>2022-12-04T04:39:36Z</time>
      </trkpt>
      <trkpt lat="40.360900" lon="-5.992820">
        <ele>733</ele>
        <time>2022-12-04T04:39:39Z</time>
      </trkpt>
      <trkpt lat="40.360930" lon="-5.992610">
        <ele>732</ele>
        <time>2022-12-04T04:39:42Z</time>
      </trkpt>
      <trkpt lat="40.360910" lon="-5.992430">
        <ele>733</ele>
        <time>2022-12-04T04:39:45Z</time>
      </trkpt>
      <trkpt lat="40.360820" lon="-5.992170">
        <ele>734</ele>
        <time>2022-12-04T04:39:49Z</time>
      </trkpt>
      <trkpt lat="40.360750" lon="-5.991900">
        <ele>734</ele>
        <time>2022-12-04T04:39:52Z</time>
      </trkpt>
      <trkpt lat="40.360670" lon="-5.991390">
        <ele>732</ele>
        <time>2022-12-04T04:40:00Z</time>
      </trkpt>
      <trkpt lat="40.360430" lon="-5.990390">
        <ele>738</ele>
        <time>2022-12-04T04:40:14Z</time>
      </trkpt>
      <trkpt lat="40.360420" lon="-5.990290">
        <ele>738</ele>
        <time>2022-12-04T04:40:15Z</time>
      </trkpt>
      <trkpt lat="40.360450" lon="-5.990180">
        <ele>738</ele>
        <time>2022-12-04T04:40:17Z</time>
      </trkpt>
      <trkpt lat="40.360540" lon="-5.990090">
        <ele>734</ele>
        <time>2022-12-04T04:40:19Z</time>
      </trkpt>
      <trkpt lat="40.361030" lon="-5.989910">
        <ele>722</ele>
        <time>2022-12-04T04:40:28Z</time>
      </trkpt>
      <trkpt lat="40.361520" lon="-5.989590">
        <ele>719</ele>
        <time>2022-12-04T04:40:38Z</time>
      </trkpt>
      <trkpt lat="40.361610" lon="-5.989540">
        <ele>718</ele>
        <time>2022-12-04T04:40:39Z</time>
      </trkpt>
      <trkpt lat="40.361720" lon="-5.989540">
        <ele>717</ele>
        <time>2022-12-04T04:40:41Z</time>
      </trkpt>
      <trkpt lat="40.362020" lon="-5.989630">
        <ele>711</ele>
        <time>2022-12-04T04:40:47Z</time>
      </trkpt>
      <trkpt lat="40.362250" lon="-5.989670">
        <ele>708</ele>
        <time>2022-12-04T04:40:51Z</time>
      </trkpt>
      <trkpt lat="40.362490" lon="-5.989670">
        <ele>705</ele>
        <time>2022-12-04T04:40:55Z</time>
      </trkpt>
      <trkpt lat="40.362600" lon="-5.989630">
        <ele>704</ele>
        <time>2022-12-04T04:40:57Z</time>
      </trkpt>
      <trkpt lat="40.362750" lon="-5.989520">
        <ele>703</ele>
        <time>2022-12-04T04:41:00Z</time>
      </trkpt>
      <trkpt lat="40.362810" lon="-5.989380">
        <ele>704</ele>
        <time>2022-12-04T04:41:02Z</time>
      </trkpt>
      <trkpt lat="40.362810" lon="-5.989200">
        <ele>707</ele>
        <time>2022-12-04T04:41:05Z</time>
      </trkpt>
      <trkpt lat="40.362760" lon="-5.989070">
        <ele>708</ele>
        <time>2022-12-04T04:41:07Z</time>
      </trkpt>
      <trkpt lat="40.362700" lon="-5.988990">
        <ele>709</ele>
        <time>2022-12-04T04:41:08Z</time>
      </trkpt>
      <trkpt lat="40.362310" lon="-5.988640">
        <ele>716</ele>
        <time>2022-12-04T04:41:17Z</time>
      </trkpt>
      <trkpt lat="40.362150" lon="-5.988450">
        <ele>720</ele>
        <time>2022-12-04T04:41:21Z</time>
      </trkpt>
      <trkpt lat="40.361990" lon="-5.988280">
        <ele>725</ele>
        <time>2022-12-04T04:41:24Z</time>
      </trkpt>
      <trkpt lat="40.361950" lon="-5.988210">
        <ele>727</ele>
        <time>2022-12-04T04:41:25Z</time>
      </trkpt>
      <trkpt lat="40.361940" lon="-5.988120">
        <ele>728</ele>
        <time>2022-12-04T04:41:27Z</time>
      </trkpt>
      <trkpt lat="40.361960" lon="-5.988040">
        <ele>728</ele>
        <time>2022-12-04T04:41:28Z</time>
      </trkpt>
      <trkpt lat="40.362010" lon="-5.987990">
        <ele>727</ele>
        <time>2022-12-04T04:41:29Z</time>
      </trkpt>
      <trkpt lat="40.362330" lon="-5.987970">
        <ele>721</ele>
        <time>2022-12-04T04:41:35Z</time>
      </trkpt>
      <trkpt lat="40.362560" lon="-5.987910">
        <ele>717</ele>
        <time>2022-12-04T04:41:39Z</time>
      </trkpt>
      <trkpt lat="40.362770" lon="-5.987790">
        <ele>715</ele>
        <time>2022-12-04T04:41:43Z</time>
      </trkpt>
      <trkpt lat="40.362960" lon="-5.987560">
        <ele>715</ele>
        <time>2022-12-04T04:41:47Z</time>
      </trkpt>
      <trkpt lat="40.363070" lon="-5.987470">
        <ele>715</ele>
        <time>2022-12-04T04:41:50Z</time>
      </trkpt>
      <trkpt lat="40.363230" lon="-5.987450">
        <ele>712</ele>
        <time>2022-12-04T04:41:53Z</time>
      </trkpt>
      <trkpt lat="40.363320" lon="-5.987400">
        <ele>711</ele>
        <time>2022-12-04T04:41:54Z</time>
      </trkpt>
      <trkpt lat="40.363360" lon="-5.987320">
        <ele>712</ele>
        <time>2022-12-04T04:41:56Z</time>
      </trkpt>
      <trkpt lat="40.363370" lon="-5.987250">
        <ele>713</ele>
        <time>2022-12-04T04:41:57Z</time>
      </trkpt>
      <trkpt lat="40.363360" lon="-5.987040">
        <ele>716</ele>
        <time>2022-12-04T04:41:59Z</time>
      </trkpt>
      <trkpt lat="40.363380" lon="-5.986940">
        <ele>718</ele>
        <time>2022-12-04T04:42:01Z</time>
      </trkpt>
      <trkpt lat="40.363410" lon="-5.986870">
        <ele>718</ele>
        <time>2022-12-04T04:42:02Z</time>
      </trkpt>
      <trkpt lat="40.363460" lon="-5.986830">
        <ele>718</ele>
        <time>2022-12-04T04:42:03Z</time>
      </trkpt>
      <trkpt lat="40.363670" lon="-5.986810">
        <ele>716</ele>
        <time>2022-12-04T04:42:07Z</time>
      </trkpt>
      <trkpt lat="40.363890" lon="-5.986810">
        <ele>713</ele>
        <time>2022-12-04T04:42:11Z</time>
      </trkpt>
      <trkpt lat="40.364260" lon="-5.986860">
        <ele>707</ele>
        <time>2022-12-04T04:42:17Z</time>
      </trkpt>
      <trkpt lat="40.364460" lon="-5.986910">
        <ele>704</ele>
        <time>2022-12-04T04:42:21Z</time>
      </trkpt>
      <trkpt lat="40.364730" lon="-5.986930">
        <ele>701</ele>
        <time>2022-12-04T04:42:26Z</time>
      </trkpt>
      <trkpt lat="40.365060" lon="-5.986820">
        <ele>699</ele>
        <time>2022-12-04T04:42:32Z</time>
      </trkpt>
      <trkpt lat="40.365170" lon="-5.986800">
        <ele>698</ele>
        <time>2022-12-04T04:42:34Z</time>
      </trkpt>
      <trkpt lat="40.365980" lon="-5.986840">
        <ele>686</ele>
        <time>2022-12-04T04:42:48Z</time>
      </trkpt>
      <trkpt lat="40.366830" lon="-5.987020">
        <ele>675</ele>
        <time>2022-12-04T04:43:03Z</time>
      </trkpt>
      <trkpt lat="40.366960" lon="-5.987090">
        <ele>674</ele>
        <time>2022-12-04T04:43:06Z</time>
      </trkpt>
      <trkpt lat="40.367060" lon="-5.987170">
        <ele>673</ele>
        <time>2022-12-04T04:43:08Z</time>
      </trkpt>
      <trkpt lat="40.367290" lon="-5.987410">
        <ele>675</ele>
        <time>2022-12-04T04:43:13Z</time>
      </trkpt>
      <trkpt lat="40.367440" lon="-5.987500">
        <ele>675</ele>
        <time>2022-12-04T04:43:16Z</time>
      </trkpt>
      <trkpt lat="40.367720" lon="-5.987550">
        <ele>671</ele>
        <time>2022-12-04T04:43:21Z</time>
      </trkpt>
      <trkpt lat="40.367960" lon="-5.987670">
        <ele>669</ele>
        <time>2022-12-04T04:43:26Z</time>
      </trkpt>
      <trkpt lat="40.368240" lon="-5.987840">
        <ele>668</ele>
        <time>2022-12-04T04:43:31Z</time>
      </trkpt>
      <trkpt lat="40.368560" lon="-5.987940">
        <ele>667</ele>
        <time>2022-12-04T04:43:37Z</time>
      </trkpt>
      <trkpt lat="40.369000" lon="-5.987960">
        <ele>665</ele>
        <time>2022-12-04T04:43:45Z</time>
      </trkpt>
      <trkpt lat="40.369350" lon="-5.987860">
        <ele>660</ele>
        <time>2022-12-04T04:43:51Z</time>
      </trkpt>
      <trkpt lat="40.369470" lon="-5.987850">
        <ele>658</ele>
        <time>2022-12-04T04:43:53Z</time>
      </trkpt>
      <trkpt lat="40.369520" lon="-5.987880">
        <ele>657</ele>
        <time>2022-12-04T04:43:54Z</time>
      </trkpt>
      <trkpt lat="40.369550" lon="-5.987960">
        <ele>657</ele>
        <time>2022-12-04T04:43:56Z</time>
      </trkpt>
      <trkpt lat="40.369550" lon="-5.988080">
        <ele>658</ele>
        <time>2022-12-04T04:43:57Z</time>
      </trkpt>
      <trkpt lat="40.369370" lon="-5.988690">
        <ele>660</ele>
        <time>2022-12-04T04:44:06Z</time>
      </trkpt>
      <trkpt lat="40.369350" lon="-5.989030">
        <ele>657</ele>
        <time>2022-12-04T04:44:11Z</time>
      </trkpt>
      <trkpt lat="40.369360" lon="-5.989530">
        <ele>655</ele>
        <time>2022-12-04T04:44:18Z</time>
      </trkpt>
      <trkpt lat="40.369380" lon="-5.989670">
        <ele>655</ele>
        <time>2022-12-04T04:44:20Z</time>
      </trkpt>
      <trkpt lat="40.369720" lon="-5.990340">
        <ele>650</ele>
        <time>2022-12-04T04:44:30Z</time>
      </trkpt>
      <trkpt lat="40.370350" lon="-5.991890">
        <ele>646</ele>
        <time>2022-12-04T04:44:54Z</time>
      </trkpt>
      <trkpt lat="40.370430" lon="-5.992050">
        <ele>646</ele>
        <time>2022-12-04T04:44:57Z</time>
      </trkpt>
      <trkpt lat="40.370610" lon="-5.992190">
        <ele>647</ele>
        <time>2022-12-04T04:45:01Z</time>
      </trkpt>
      <trkpt lat="40.371350" lon="-5.992690">
        <ele>652</ele>
        <time>2022-12-04T04:45:15Z</time>
      </trkpt>
      <trkpt lat="40.371900" lon="-5.992730">
        <ele>660</ele>
        <time>2022-12-04T04:45:25Z</time>
      </trkpt>
      <trkpt lat="40.372120" lon="-5.992880">
        <ele>664</ele>
        <time>2022-12-04T04:45:30Z</time>
      </trkpt>
      <trkpt lat="40.372260" lon="-5.993210">
        <ele>665</ele>
        <time>2022-12-04T04:45:35Z</time>
      </trkpt>
      <trkpt lat="40.372320" lon="-5.994030">
        <ele>658</ele>
        <time>2022-12-04T04:45:46Z</time>
      </trkpt>
      <trkpt lat="40.372740" lon="-5.994870">
        <ele>656</ele>
        <time>2022-12-04T04:45:59Z</time>
      </trkpt>
      <trkpt lat="40.373680" lon="-5.995290">
        <ele>659</ele>
        <time>2022-12-04T04:46:17Z</time>
      </trkpt>
      <trkpt lat="40.374160" lon="-5.995460">
        <ele>659</ele>
        <time>2022-12-04T04:46:26Z</time>
      </trkpt>
      <trkpt lat="40.374390" lon="-5.995470">
        <ele>664</ele>
        <time>2022-12-04T04:46:30Z</time>
      </trkpt>
      <trkpt lat="40.374510" lon="-5.995580">
        <ele>664</ele>
        <time>2022-12-04T04:46:33Z</time>
      </trkpt>
      <trkpt lat="40.374670" lon="-5.995990">
        <ele>658</ele>
        <time>2022-12-04T04:46:39Z</time>
      </trkpt>
      <trkpt lat="40.374800" lon="-5.996160">
        <ele>657</ele>
        <time>2022-12-04T04:46:42Z</time>
      </trkpt>
      <trkpt lat="40.374940" lon="-5.996220">
        <ele>660</ele>
        <time>2022-12-04T04:46:45Z</time>
      </trkpt>
      <trkpt lat="40.375080" lon="-5.996310">
        <ele>662</ele>
        <time>2022-12-04T04:46:48Z</time>
      </trkpt>
      <trkpt lat="40.375210" lon="-5.996510">
        <ele>662</ele>
        <time>2022-12-04T04:46:51Z</time>
      </trkpt>
      <trkpt lat="40.375410" lon="-5.996930">
        <ele>666</ele>
        <time>2022-12-04T04:46:58Z</time>
      </trkpt>
      <trkpt lat="40.375390" lon="-5.997090">
        <ele>666</ele>
        <time>2022-12-04T04:47:00Z</time>
      </trkpt>
      <trkpt lat="40.375120" lon="-5.997720">
        <ele>657</ele>
        <time>2022-12-04T04:47:10Z</time>
      </trkpt>
      <trkpt lat="40.375080" lon="-5.997910">
        <ele>657</ele>
        <time>2022-12-04T04:47:13Z</time>
      </trkpt>
      <trkpt lat="40.375080" lon="-5.998460">
        <ele>659</ele>
        <time>2022-12-04T04:47:20Z</time>
      </trkpt>
      <trkpt lat="40.375190" lon="-5.999120">
        <ele>659</ele>
        <time>2022-12-04T04:47:29Z</time>
      </trkpt>
      <trkpt lat="40.375440" lon="-5.999550">
        <ele>659</ele>
        <time>2022-12-04T04:47:36Z</time>
      </trkpt>
      <trkpt lat="40.376380" lon="-6.000600">
        <ele>656</ele>
        <time>2022-12-04T04:47:58Z</time>
      </trkpt>
      <trkpt lat="40.376700" lon="-6.000780">
        <ele>657</ele>
        <time>2022-12-04T04:48:05Z</time>
      </trkpt>
      <trkpt lat="40.377220" lon="-6.000880">
        <ele>656</ele>
        <time>2022-12-04T04:48:14Z</time>
      </trkpt>
      <trkpt lat="40.378150" lon="-6.000700">
        <ele>652</ele>
        <time>2022-12-04T04:48:31Z</time>
      </trkpt>
      <trkpt lat="40.378710" lon="-6.000450">
        <ele>652</ele>
        <time>2022-12-04T04:48:41Z</time>
      </trkpt>
      <trkpt lat="40.379180" lon="-6.000230">
        <ele>652</ele>
        <time>2022-12-04T04:48:50Z</time>
      </trkpt>
      <trkpt lat="40.379720" lon="-6.000190">
        <ele>649</ele>
        <time>2022-12-04T04:49:00Z</time>
      </trkpt>
      <trkpt lat="40.381160" lon="-6.000240">
        <ele>639</ele>
        <time>2022-12-04T04:49:25Z</time>
      </trkpt>
      <trkpt lat="40.381250" lon="-6.000310">
        <ele>637</ele>
        <time>2022-12-04T04:49:27Z</time>
      </trkpt>
      <trkpt lat="40.381340" lon="-6.000590">
        <ele>634</ele>
        <time>2022-12-04T04:49:31Z</time>
      </trkpt>
      <trkpt lat="40.381430" lon="-6.000720">
        <ele>633</ele>
        <time>2022-12-04T04:49:34Z</time>
      </trkpt>
      <trkpt lat="40.381580" lon="-6.000830">
        <ele>634</ele>
        <time>2022-12-04T04:49:37Z</time>
      </trkpt>
      <trkpt lat="40.382480" lon="-6.001670">
        <ele>633</ele>
        <time>2022-12-04T04:49:56Z</time>
      </trkpt>
      <trkpt lat="40.382720" lon="-6.002040">
        <ele>629</ele>
        <time>2022-12-04T04:50:03Z</time>
      </trkpt>
      <trkpt lat="40.383240" lon="-6.002570">
        <ele>629</ele>
        <time>2022-12-04T04:50:15Z</time>
      </trkpt>
      <trkpt lat="40.383840" lon="-6.003290">
        <ele>625</ele>
        <time>2022-12-04T04:50:29Z</time>
      </trkpt>
      <trkpt lat="40.384710" lon="-6.003980">
        <ele>622</ele>
        <time>2022-12-04T04:50:47Z</time>
      </trkpt>
      <trkpt lat="40.385490" lon="-6.004670">
        <ele>621</ele>
        <time>2022-12-04T04:51:04Z</time>
      </trkpt>
      <trkpt lat="40.385700" lon="-6.005040">
        <ele>619</ele>
        <time>2022-12-04T04:51:10Z</time>
      </trkpt>
      <trkpt lat="40.385970" lon="-6.005650">
        <ele>615</ele>
        <time>2022-12-04T04:51:20Z</time>
      </trkpt>
      <trkpt lat="40.386190" lon="-6.006500">
        <ele>609</ele>
        <time>2022-12-04T04:51:32Z</time>
      </trkpt>
      <trkpt lat="40.386510" lon="-6.006870">
        <ele>610</ele>
        <time>2022-12-04T04:51:40Z</time>
      </trkpt>
      <trkpt lat="40.387070" lon="-6.007230">
        <ele>611</ele>
        <time>2022-12-04T04:51:51Z</time>
      </trkpt>
      <trkpt lat="40.387970" lon="-6.008270">
        <ele>609</ele>
        <time>2022-12-04T04:52:12Z</time>
      </trkpt>
      <trkpt lat="40.388110" lon="-6.008650">
        <ele>608</ele>
        <time>2022-12-04T04:52:18Z</time>
      </trkpt>
      <trkpt lat="40.388200" lon="-6.009840">
        <ele>599</ele>
        <time>2022-12-04T04:52:34Z</time>
      </trkpt>
      <trkpt lat="40.388360" lon="-6.010160">
        <ele>598</ele>
        <time>2022-12-04T04:52:39Z</time>
      </trkpt>
      <trkpt lat="40.388640" lon="-6.010310">
        <ele>597</ele>
        <time>2022-12-04T04:52:45Z</time>
      </trkpt>
      <trkpt lat="40.390160" lon="-6.010550">
        <ele>602</ele>
        <time>2022-12-04T04:53:12Z</time>
      </trkpt>
      <trkpt lat="40.390390" lon="-6.010760">
        <ele>601</ele>
        <time>2022-12-04T04:53:17Z</time>
      </trkpt>
      <trkpt lat="40.390580" lon="-6.011250">
        <ele>592</ele>
        <time>2022-12-04T04:53:24Z</time>
      </trkpt>
      <trkpt lat="40.390850" lon="-6.011540">
        <ele>589</ele>
        <time>2022-12-04T04:53:30Z</time>
      </trkpt>
      <trkpt lat="40.391030" lon="-6.011580">
        <ele>589</ele>
        <time>2022-12-04T04:53:34Z</time>
      </trkpt>
      <trkpt lat="40.391850" lon="-6.011570">
        <ele>593</ele>
        <time>2022-12-04T04:53:48Z</time>
      </trkpt>
      <trkpt lat="40.392210" lon="-6.011640">
        <ele>593</ele>
        <time>2022-12-04T04:53:55Z</time>
      </trkpt>
      <trkpt lat="40.392640" lon="-6.011890">
        <ele>590</ele>
        <time>2022-12-04T04:54:03Z</time>
      </trkpt>
      <trkpt lat="40.393780" lon="-6.012730">
        <ele>584</ele>
        <time>2022-12-04T04:54:26Z</time>
      </trkpt>
      <trkpt lat="40.393990" lon="-6.012750">
        <ele>585</ele>
        <time>2022-12-04T04:54:30Z</time>
      </trkpt>
      <trkpt lat="40.394640" lon="-6.012620">
        <ele>596</ele>
        <time>2022-12-04T04:54:42Z</time>
      </trkpt>
      <trkpt lat="40.394810" lon="-6.012730">
        <ele>597</ele>
        <time>2022-12-04T04:54:45Z</time>
      </trkpt>
      <trkpt lat="40.394930" lon="-6.012940">
        <ele>595</ele>
        <time>2022-12-04T04:54:49Z</time>
      </trkpt>
      <trkpt lat="40.394960" lon="-6.013110">
        <ele>593</ele>
        <time>2022-12-04T04:54:51Z</time>
      </trkpt>
      <trkpt lat="40.394980" lon="-6.014250">
        <ele>586</ele>
        <time>2022-12-04T04:55:07Z</time>
      </trkpt>
      <trkpt lat="40.395080" lon="-6.014650">
        <ele>583</ele>
        <time>2022-12-04T04:55:12Z</time>
      </trkpt>
      <trkpt lat="40.395220" lon="-6.014820">
        <ele>582</ele>
        <time>2022-12-04T04:55:16Z</time>
      </trkpt>
      <trkpt lat="40.395510" lon="-6.014960">
        <ele>582</ele>
        <time>2022-12-04T04:55:21Z</time>
      </trkpt>
      <trkpt lat="40.396400" lon="-6.015090">
        <ele>579</ele>
        <time>2022-12-04T04:55:37Z</time>
      </trkpt>
      <trkpt lat="40.396590" lon="-6.015010">
        <ele>580</ele>
        <time>2022-12-04T04:55:41Z</time>
      </trkpt>
      <trkpt lat="40.396790" lon="-6.014680">
        <ele>587</ele>
        <time>2022-12-04T04:55:46Z</time>
      </trkpt>
      <trkpt lat="40.396990" lon="-6.014550">
        <ele>588</ele>
        <time>2022-12-04T04:55:50Z</time>
      </trkpt>
      <trkpt lat="40.397270" lon="-6.014530">
        <ele>585</ele>
        <time>2022-12-04T04:55:55Z</time>
      </trkpt>
      <trkpt lat="40.397780" lon="-6.014400">
        <ele>584</ele>
        <time>2022-12-04T04:56:05Z</time>
      </trkpt>
      <trkpt lat="40.398100" lon="-6.014290">
        <ele>584</ele>
        <time>2022-12-04T04:56:10Z</time>
      </trkpt>
      <trkpt lat="40.398360" lon="-6.014140">
        <ele>587</ele>
        <time>2022-12-04T04:56:15Z</time>
      </trkpt>
      <trkpt lat="40.398510" lon="-6.014230">
        <ele>587</ele>
        <time>2022-12-04T04:56:18Z</time>
      </trkpt>
      <trkpt lat="40.398950" lon="-6.014680">
        <ele>583</ele>
        <time>2022-12-04T04:56:28Z</time>
      </trkpt>
      <trkpt lat="40.399360" lon="-6.015270">
        <ele>577</ele>
        <time>2022-12-04T04:56:39Z</time>
      </trkpt>
      <trkpt lat="40.399620" lon="-6.015430">
        <ele>576</ele>
        <time>2022-12-04T04:56:44Z</time>
      </trkpt>
      <trkpt lat="40.400020" lon="-6.015430">
        <ele>578</ele>
        <time>2022-12-04T04:56:51Z</time>
      </trkpt>
      <trkpt lat="40.400390" lon="-6.015360">
        <ele>577</ele>
        <time>2022-12-04T04:56:58Z</time>
      </trkpt>
      <trkpt lat="40.400790" lon="-6.015240">
        <ele>576</ele>
        <time>2022-12-04T04:57:05Z</time>
      </trkpt>
      <trkpt lat="40.401410" lon="-6.014860">
        <ele>578</ele>
        <time>2022-12-04T04:57:18Z</time>
      </trkpt>
      <trkpt lat="40.402230" lon="-6.015060">
        <ele>571</ele>
        <time>2022-12-04T04:57:32Z</time>
      </trkpt>
      <trkpt lat="40.402750" lon="-6.015280">
        <ele>569</ele>
        <time>2022-12-04T04:57:42Z</time>
      </trkpt>
      <trkpt lat="40.402960" lon="-6.015430">
        <ele>569</ele>
        <time>2022-12-04T04:57:46Z</time>
      </trkpt>
      <trkpt lat="40.403240" lon="-6.015740">
        <ele>567</ele>
        <time>2022-12-04T04:57:53Z</time>
      </trkpt>
      <trkpt lat="40.403340" lon="-6.015890">
        <ele>566</ele>
        <time>2022-12-04T04:57:56Z</time>
      </trkpt>
      <trkpt lat="40.403580" lon="-6.016460">
        <ele>562</ele>
        <time>2022-12-04T04:58:04Z</time>
      </trkpt>
      <trkpt lat="40.403710" lon="-6.016670">
        <ele>561</ele>
        <time>2022-12-04T04:58:08Z</time>
      </trkpt>
      <trkpt lat="40.403900" lon="-6.016840">
        <ele>564</ele>
        <time>2022-12-04T04:58:12Z</time>
      </trkpt>
      <trkpt lat="40.403990" lon="-6.016960">
        <ele>564</ele>
        <time>2022-12-04T04:58:14Z</time>
      </trkpt>
      <trkpt lat="40.404390" lon="-6.017790">
        <ele>559</ele>
        <time>2022-12-04T04:58:28Z</time>
      </trkpt>
      <trkpt lat="40.404800" lon="-6.018360">
        <ele>557</ele>
        <time>2022-12-04T04:58:38Z</time>
      </trkpt>
      <trkpt lat="40.405030" lon="-6.018560">
        <ele>558</ele>
        <time>2022-12-04T04:58:43Z</time>
      </trkpt>
      <trkpt lat="40.405200" lon="-6.018690">
        <ele>557</ele>
        <time>2022-12-04T04:58:47Z</time>
      </trkpt>
      <trkpt lat="40.405710" lon="-6.018980">
        <ele>556</ele>
        <time>2022-12-04T04:58:57Z</time>
      </trkpt>
      <trkpt lat="40.407010" lon="-6.019420">
        <ele>555</ele>
        <time>2022-12-04T04:59:21Z</time>
      </trkpt>
      <trkpt lat="40.407250" lon="-6.019600">
        <ele>554</ele>
        <time>2022-12-04T04:59:25Z</time>
      </trkpt>
      <trkpt lat="40.407540" lon="-6.019950">
        <ele>551</ele>
        <time>2022-12-04T04:59:32Z</time>
      </trkpt>
      <trkpt lat="40.407650" lon="-6.020150">
        <ele>549</ele>
        <time>2022-12-04T04:59:36Z</time>
      </trkpt>
      <trkpt lat="40.407840" lon="-6.020880">
        <ele>541</ele>
        <time>2022-12-04T04:59:46Z</time>
      </trkpt>
      <trkpt lat="40.407930" lon="-6.021130">
        <ele>540</ele>
        <time>2022-12-04T04:59:50Z</time>
      </trkpt>
      <trkpt lat="40.408100" lon="-6.021300">
        <ele>541</ele>
        <time>2022-12-04T04:59:54Z</time>
      </trkpt>
      <trkpt lat="40.408320" lon="-6.021430">
        <ele>543</ele>
        <time>2022-12-04T04:59:58Z</time>
      </trkpt>
      <trkpt lat="40.408440" lon="-6.021420">
        <ele>542</ele>
        <time>2022-12-04T05:00:00Z</time>
      </trkpt>
      <trkpt lat="40.408890" lon="-6.021100">
        <ele>540</ele>
        <time>2022-12-04T05:00:09Z</time>
      </trkpt>
      <trkpt lat="40.409290" lon="-6.020670">
        <ele>542</ele>
        <time>2022-12-04T05:00:19Z</time>
      </trkpt>
      <trkpt lat="40.410230" lon="-6.020650">
        <ele>531</ele>
        <time>2022-12-04T05:00:35Z</time>
      </trkpt>
      <trkpt lat="40.410390" lon="-6.020620">
        <ele>531</ele>
        <time>2022-12-04T05:00:38Z</time>
      </trkpt>
      <trkpt lat="40.410550" lon="-6.020540">
        <ele>534</ele>
        <time>2022-12-04T05:00:41Z</time>
      </trkpt>
      <trkpt lat="40.410670" lon="-6.020540">
        <ele>533</ele>
        <time>2022-12-04T05:00:43Z</time>
      </trkpt>
      <trkpt lat="40.411030" lon="-6.020730">
        <ele>526</ele>
        <time>2022-12-04T05:00:50Z</time>
      </trkpt>
      <trkpt lat="40.411340" lon="-6.020820">
        <ele>524</ele>
        <time>2022-12-04T05:00:56Z</time>
      </trkpt>
      <trkpt lat="40.411680" lon="-6.020880">
        <ele>524</ele>
        <time>2022-12-04T05:01:02Z</time>
      </trkpt>
      <trkpt lat="40.412070" lon="-6.021040">
        <ele>518</ele>
        <time>2022-12-04T05:01:09Z</time>
      </trkpt>
      <trkpt lat="40.412270" lon="-6.021050">
        <ele>517</ele>
        <time>2022-12-04T05:01:13Z</time>
      </trkpt>
      <trkpt lat="40.412940" lon="-6.020830">
        <ele>516</ele>
        <time>2022-12-04T05:01:25Z</time>
      </trkpt>
      <trkpt lat="40.413600" lon="-6.020810">
        <ele>509</ele>
        <time>2022-12-04T05:01:37Z</time>
      </trkpt>
      <trkpt lat="40.413870" lon="-6.020750">
        <ele>508</ele>
        <time>2022-12-04T05:01:42Z</time>
      </trkpt>
      <trkpt lat="40.414070" lon="-6.020670">
        <ele>508</ele>
        <time>2022-12-04T05:01:45Z</time>
      </trkpt>
      <trkpt lat="40.414210" lon="-6.020570">
        <ele>509</ele>
        <time>2022-12-04T05:01:48Z</time>
      </trkpt>
      <trkpt lat="40.414730" lon="-6.020010">
        <ele>510</ele>
        <time>2022-12-04T05:02:00Z</time>
      </trkpt>
      <trkpt lat="40.414920" lon="-6.019900">
        <ele>507</ele>
        <time>2022-12-04T05:02:04Z</time>
      </trkpt>
      <trkpt lat="40.415070" lon="-6.019890">
        <ele>506</ele>
        <time>2022-12-04T05:02:07Z</time>
      </trkpt>
      <trkpt lat="40.415270" lon="-6.019940">
        <ele>504</ele>
        <time>2022-12-04T05:02:10Z</time>
      </trkpt>
      <trkpt lat="40.415560" lon="-6.019950">
        <ele>503</ele>
        <time>2022-12-04T05:02:15Z</time>
      </trkpt>
      <trkpt lat="40.416040" lon="-6.020300">
        <ele>493</ele>
        <time>2022-12-04T05:02:25Z</time>
      </trkpt>
      <trkpt lat="40.416180" lon="-6.020360">
        <ele>491</ele>
        <time>2022-12-04T05:02:28Z</time>
      </trkpt>
      <trkpt lat="40.416330" lon="-6.020350">
        <ele>490</ele>
        <time>2022-12-04T05:02:30Z</time>
      </trkpt>
      <trkpt lat="40.416430" lon="-6.020310">
        <ele>490</ele>
        <time>2022-12-04T05:02:32Z</time>
      </trkpt>
      <trkpt lat="40.416540" lon="-6.020170">
        <ele>491</ele>
        <time>2022-12-04T05:02:35Z</time>
      </trkpt>
      <trkpt lat="40.416710" lon="-6.019720">
        <ele>497</ele>
        <time>2022-12-04T05:02:42Z</time>
      </trkpt>
      <trkpt lat="40.416810" lon="-6.019650">
        <ele>497</ele>
        <time>2022-12-04T05:02:44Z</time>
      </trkpt>
      <trkpt lat="40.417060" lon="-6.019690">
        <ele>493</ele>
        <time>2022-12-04T05:02:48Z</time>
      </trkpt>
      <trkpt lat="40.417200" lon="-6.019660">
        <ele>492</ele>
        <time>2022-12-04T05:02:51Z</time>
      </trkpt>
      <trkpt lat="40.417340" lon="-6.019530">
        <ele>493</ele>
        <time>2022-12-04T05:02:54Z</time>
      </trkpt>
      <trkpt lat="40.417480" lon="-6.019540">
        <ele>492</ele>
        <time>2022-12-04T05:02:56Z</time>
      </trkpt>
      <trkpt lat="40.417770" lon="-6.019670">
        <ele>490</ele>
        <time>2022-12-04T05:03:02Z</time>
      </trkpt>
      <trkpt lat="40.417850" lon="-6.019780">
        <ele>489</ele>
        <time>2022-12-04T05:03:04Z</time>
      </trkpt>
      <trkpt lat="40.418050" lon="-6.020610">
        <ele>475</ele>
        <time>2022-12-04T05:03:16Z</time>
      </trkpt>
      <trkpt lat="40.418150" lon="-6.020810">
        <ele>472</ele>
        <time>2022-12-04T05:03:19Z</time>
      </trkpt>
      <trkpt lat="40.418340" lon="-6.021040">
        <ele>470</ele>
        <time>2022-12-04T05:03:24Z</time>
      </trkpt>
      <trkpt lat="40.418570" lon="-6.021250">
        <ele>466</ele>
        <time>2022-12-04T05:03:29Z</time>
      </trkpt>
      <trkpt lat="40.418770" lon="-6.021280">
        <ele>465</ele>
        <time>2022-12-04T05:03:32Z</time>
      </trkpt>
      <trkpt lat="40.418870" lon="-6.021210">
        <ele>465</ele>
        <time>2022-12-04T05:03:34Z</time>
      </trkpt>
      <trkpt lat="40.418980" lon="-6.021050">
        <ele>467</ele>
        <time>2022-12-04T05:03:37Z</time>
      </trkpt>
      <trkpt lat="40.419090" lon="-6.021040">
        <ele>467</ele>
        <time>2022-12-04T05:03:39Z</time>
      </trkpt>
      <trkpt lat="40.419820" lon="-6.021050">
        <ele>457</ele>
        <time>2022-12-04T05:03:52Z</time>
      </trkpt>
      <trkpt lat="40.419970" lon="-6.020880">
        <ele>457</ele>
        <time>2022-12-04T05:03:56Z</time>
      </trkpt>
      <trkpt lat="40.420080" lon="-6.020680">
        <ele>457</ele>
        <time>2022-12-04T05:03:59Z</time>
      </trkpt>
      <trkpt lat="40.420480" lon="-6.020340">
        <ele>450</ele>
        <time>2022-12-04T05:04:07Z</time>
      </trkpt>
      <trkpt lat="40.421130" lon="-6.019290">
        <ele>440</ele>
        <time>2022-12-04T05:04:26Z</time>
      </trkpt>
      <trkpt lat="40.421390" lon="-6.018730">
        <ele>433</ele>
        <time>2022-12-04T05:04:35Z</time>
      </trkpt>
      <trkpt lat="40.421430" lon="-6.018550">
        <ele>432</ele>
        <time>2022-12-04T05:04:37Z</time>
      </trkpt>
      <trkpt lat="40.421440" lon="-6.018410">
        <ele>432</ele>
        <time>2022-12-04T05:04:39Z</time>
      </trkpt>
      <trkpt lat="40.421400" lon="-6.018300">
        <ele>433</ele>
        <time>2022-12-04T05:04:41Z</time>
      </trkpt>
      <trkpt lat="40.421200" lon="-6.018150">
        <ele>438</ele>
        <time>2022-12-04T05:04:45Z</time>
      </trkpt>
      <trkpt lat="40.421160" lon="-6.018050">
        <ele>439</ele>
        <time>2022-12-04T05:04:46Z</time>
      </trkpt>
      <trkpt lat="40.421180" lon="-6.017890">
        <ele>439</ele>
        <time>2022-12-04T05:04:48Z</time>
      </trkpt>
      <trkpt lat="40.421240" lon="-6.017730">
        <ele>438</ele>
        <time>2022-12-04T05:04:51Z</time>
      </trkpt>
      <trkpt lat="40.421360" lon="-6.017530">
        <ele>435</ele>
        <time>2022-12-04T05:04:54Z</time>
      </trkpt>
      <trkpt lat="40.421600" lon="-6.017230">
        <ele>432</ele>
        <time>2022-12-04T05:05:00Z</time>
      </trkpt>
      <trkpt lat="40.421760" lon="-6.016890">
        <ele>433</ele>
        <time>2022-12-04T05:05:06Z</time>
      </trkpt>
      <trkpt lat="40.421840" lon="-6.016820">
        <ele>432</ele>
        <time>2022-12-04T05:05:07Z</time>
      </trkpt>
      <trkpt lat="40.421920" lon="-6.016790">
        <ele>432</ele>
        <time>2022-12-04T05:05:09Z</time>
      </trkpt>
      <trkpt lat="40.422200" lon="-6.016860">
        <ele>426</ele>
        <time>2022-12-04T05:05:14Z</time>
      </trkpt>
      <trkpt lat="40.422280" lon="-6.016860">
        <ele>425</ele>
        <time>2022-12-04T05:05:15Z</time>
      </trkpt>
      <trkpt lat="40.422390" lon="-6.016810">
        <ele>424</ele>
        <time>2022-12-04T05:05:17Z</time>
      </trkpt>
      <trkpt lat="40.422460" lon="-6.016760">
        <ele>424</ele>
        <time>2022-12-04T05:05:19Z</time>
      </trkpt>
      <trkpt lat="40.422530" lon="-6.016680">
        <ele>424</ele>
        <time>2022-12-04T05:05:20Z</time>
      </trkpt>
      <trkpt lat="40.422860" lon="-6.016130">
        <ele>421</ele>
        <time>2022-12-04T05:05:30Z</time>
      </trkpt>
      <trkpt lat="40.423130" lon="-6.015490">
        <ele>419</ele>
        <time>2022-12-04T05:05:40Z</time>
      </trkpt>
      <trkpt lat="40.423230" lon="-6.015340">
        <ele>418</ele>
        <time>2022-12-04T05:05:43Z</time>
      </trkpt>
      <trkpt lat="40.423390" lon="-6.015210">
        <ele>416</ele>
        <time>2022-12-04T05:05:46Z</time>
      </trkpt>
      <trkpt lat="40.423530" lon="-6.015050">
        <ele>415</ele>
        <time>2022-12-04T05:05:49Z</time>
      </trkpt>
      <trkpt lat="40.423640" lon="-6.014870">
        <ele>415</ele>
        <time>2022-12-04T05:05:52Z</time>
      </trkpt>
      <trkpt lat="40.423740" lon="-6.014630">
        <ele>415</ele>
        <time>2022-12-04T05:05:56Z</time>
      </trkpt>
      <trkpt lat="40.423880" lon="-6.014170">
        <ele>414</ele>
        <time>2022-12-04T05:06:03Z</time>
      </trkpt>
      <trkpt lat="40.423930" lon="-6.014080">
        <ele>413</ele>
        <time>2022-12-04T05:06:04Z</time>
      </trkpt>
      <trkpt lat="40.424010" lon="-6.013990">
        <ele>411</ele>
        <time>2022-12-04T05:06:06Z</time>
      </trkpt>
      <trkpt lat="40.424040" lon="-6.013970">
        <ele>410</ele>
        <time>2022-12-04T05:06:07Z</time>
      </trkpt>
      <trkpt lat="40.424160" lon="-6.013990">
        <ele>408</ele>
        <time>2022-12-04T05:06:09Z</time>
      </trkpt>
      <trkpt lat="40.424630" lon="-6.014300">
        <ele>409</ele>
        <time>2022-12-04T05:06:18Z</time>
      </trkpt>
      <trkpt lat="40.424690" lon="-6.014320">
        <ele>410</ele>
        <time>2022-12-04T05:06:19Z</time>
      </trkpt>
      <trkpt lat="40.424740" lon="-6.014310">
        <ele>410</ele>
        <time>2022-12-04T05:06:20Z</time>
      </trkpt>
      <trkpt lat="40.424790" lon="-6.014270">
        <ele>410</ele>
        <time>2022-12-04T05:06:21Z</time>
      </trkpt>
      <trkpt lat="40.425100" lon="-6.013720">
        <ele>411</ele>
        <time>2022-12-04T05:06:31Z</time>
      </trkpt>
      <trkpt lat="40.425170" lon="-6.013660">
        <ele>411</ele>
        <time>2022-12-04T05:06:32Z</time>
      </trkpt>
      <trkpt lat="40.425290" lon="-6.013630">
        <ele>411</ele>
        <time>2022-12-04T05:06:34Z</time>
      </trkpt>
      <trkpt lat="40.425370" lon="-6.013650">
        <ele>411</ele>
        <time>2022-12-04T05:06:36Z</time>
      </trkpt>
      <trkpt lat="40.425440" lon="-6.013690">
        <ele>410</ele>
        <time>2022-12-04T05:06:37Z</time>
      </trkpt>
      <trkpt lat="40.425550" lon="-6.013800">
        <ele>409</ele>
        <time>2022-12-04T05:06:39Z</time>
      </trkpt>
      <trkpt lat="40.425510" lon="-6.013890">
        <ele>408</ele>
        <time>2022-12-04T05:06:41Z</time>
      </trkpt>
      <trkpt lat="40.425460" lon="-6.014100">
        <ele>407</ele>
        <time>2022-12-04T05:06:44Z</time>
      </trkpt>
      <trkpt lat="40.425460" lon="-6.014330">
        <ele>407</ele>
        <time>2022-12-04T05:06:47Z</time>
      </trkpt>
      <trkpt lat="40.425490" lon="-6.014400">
        <ele>407</ele>
        <time>2022-12-04T05:06:48Z</time>
      </trkpt>
      <trkpt lat="40.425570" lon="-6.014510">
        <ele>406</ele>
        <time>2022-12-04T05:06:50Z</time>
      </trkpt>
      <trkpt lat="40.426170" lon="-6.015210">
        <ele>410</ele>
        <time>2022-12-04T05:07:04Z</time>
      </trkpt>
      <trkpt lat="40.426210" lon="-6.015340">
        <ele>412</ele>
        <time>2022-12-04T05:07:06Z</time>
      </trkpt>
      <trkpt lat="40.426230" lon="-6.015510">
        <ele>413</ele>
        <time>2022-12-04T05:07:09Z</time>
      </trkpt>
      <trkpt lat="40.426210" lon="-6.015670">
        <ele>414</ele>
        <time>2022-12-04T05:07:11Z</time>
      </trkpt>
      <trkpt lat="40.426040" lon="-6.016260">
        <ele>413</ele>
        <time>2022-12-04T05:07:19Z</time>
      </trkpt>
      <trkpt lat="40.425990" lon="-6.016530">
        <ele>414</ele>
        <time>2022-12-04T05:07:23Z</time>
      </trkpt>
      <trkpt lat="40.425990" lon="-6.016800">
        <ele>415</ele>
        <time>2022-12-04T05:07:27Z</time>
      </trkpt>
      <trkpt lat="40.426010" lon="-6.016990">
        <ele>417</ele>
        <time>2022-12-04T05:07:29Z</time>
      </trkpt>
      <trkpt lat="40.426090" lon="-6.017230">
        <ele>420</ele>
        <time>2022-12-04T05:07:33Z</time>
      </trkpt>
      <trkpt lat="40.426160" lon="-6.017390">
        <ele>422</ele>
        <time>2022-12-04T05:07:35Z</time>
      </trkpt>
      <trkpt lat="40.426340" lon="-6.017680">
        <ele>428</ele>
        <time>2022-12-04T05:07:41Z</time>
      </trkpt>
      <trkpt lat="40.426390" lon="-6.017800">
        <ele>429</ele>
        <time>2022-12-04T05:07:42Z</time>
      </trkpt>
      <trkpt lat="40.426390" lon="-6.017900">
        <ele>430</ele>
        <time>2022-12-04T05:07:44Z</time>
      </trkpt>
      <trkpt lat="40.426360" lon="-6.018000">
        <ele>430</ele>
        <time>2022-12-04T05:07:45Z</time>
      </trkpt>
      <trkpt lat="40.426310" lon="-6.018090">
        <ele>429</ele>
        <time>2022-12-04T05:07:47Z</time>
      </trkpt>
      <trkpt lat="40.426170" lon="-6.018220">
        <ele>427</ele>
        <time>2022-12-04T05:07:50Z</time>
      </trkpt>
      <trkpt lat="40.426100" lon="-6.018320">
        <ele>427</ele>
        <time>2022-12-04T05:07:52Z</time>
      </trkpt>
      <trkpt lat="40.426050" lon="-6.018430">
        <ele>427</ele>
        <time>2022-12-04T05:07:53Z</time>
      </trkpt>
      <trkpt lat="40.426000" lon="-6.018600">
        <ele>428</ele>
        <time>2022-12-04T05:07:56Z</time>
      </trkpt>
      <trkpt lat="40.425930" lon="-6.019110">
        <ele>431</ele>
        <time>2022-12-04T05:08:03Z</time>
      </trkpt>
      <trkpt lat="40.425930" lon="-6.019260">
        <ele>432</ele>
        <time>2022-12-04T05:08:05Z</time>
      </trkpt>
      <trkpt lat="40.425960" lon="-6.019370">
        <ele>432</ele>
        <time>2022-12-04T05:08:06Z</time>
      </trkpt>
      <trkpt lat="40.426030" lon="-6.019590">
        <ele>434</ele>
        <time>2022-12-04T05:08:10Z</time>
      </trkpt>
      <trkpt lat="40.426660" lon="-6.021180">
        <ele>455</ele>
        <time>2022-12-04T05:08:34Z</time>
      </trkpt>
      <trkpt lat="40.426670" lon="-6.021280">
        <ele>456</ele>
        <time>2022-12-04T05:08:35Z</time>
      </trkpt>
      <trkpt lat="40.426660" lon="-6.021380">
        <ele>457</ele>
        <time>2022-12-04T05:08:37Z</time>
      </trkpt>
      <trkpt lat="40.426590" lon="-6.021500">
        <ele>458</ele>
        <time>2022-12-04T05:08:39Z</time>
      </trkpt>
      <trkpt lat="40.426490" lon="-6.021560">
        <ele>457</ele>
        <time>2022-12-04T05:08:41Z</time>
      </trkpt>
      <trkpt lat="40.426370" lon="-6.021600">
        <ele>457</ele>
        <time>2022-12-04T05:08:43Z</time>
      </trkpt>
      <trkpt lat="40.425590" lon="-6.021680">
        <ele>451</ele>
        <time>2022-12-04T05:08:57Z</time>
      </trkpt>
      <trkpt lat="40.425490" lon="-6.021720">
        <ele>450</ele>
        <time>2022-12-04T05:08:59Z</time>
      </trkpt>
      <trkpt lat="40.425350" lon="-6.021870">
        <ele>450</ele>
        <time>2022-12-04T05:09:02Z</time>
      </trkpt>
      <trkpt lat="40.425290" lon="-6.022000">
        <ele>450</ele>
        <time>2022-12-04T05:09:04Z</time>
      </trkpt>
      <trkpt lat="40.425270" lon="-6.022120">
        <ele>451</ele>
        <time>2022-12-04T05:09:06Z</time>
      </trkpt>
      <trkpt lat="40.425270" lon="-6.022220">
        <ele>452</ele>
        <time>2022-12-04T05:09:07Z</time>
      </trkpt>
      <trkpt lat="40.425280" lon="-6.022340">
        <ele>453</ele>
        <time>2022-12-04T05:09:09Z</time>
      </trkpt>
      <trkpt lat="40.425320" lon="-6.022450">
        <ele>455</ele>
        <time>2022-12-04T05:09:10Z</time>
      </trkpt>
      <trkpt lat="40.425380" lon="-6.022560">
        <ele>456</ele>
        <time>2022-12-04T05:09:12Z</time>
      </trkpt>
      <trkpt lat="40.425490" lon="-6.022680">
        <ele>458</ele>
        <time>2022-12-04T05:09:15Z</time>
      </trkpt>
      <trkpt lat="40.425630" lon="-6.022740">
        <ele>459</ele>
        <time>2022-12-04T05:09:17Z</time>
      </trkpt>
      <trkpt lat="40.426950" lon="-6.022820">
        <ele>465</ele>
        <time>2022-12-04T05:09:41Z</time>
      </trkpt>
      <trkpt lat="40.427090" lon="-6.022860">
        <ele>466</ele>
        <time>2022-12-04T05:09:43Z</time>
      </trkpt>
      <trkpt lat="40.427180" lon="-6.022920">
        <ele>466</ele>
        <time>2022-12-04T05:09:45Z</time>
      </trkpt>
      <trkpt lat="40.427240" lon="-6.022990">
        <ele>466</ele>
        <time>2022-12-04T05:09:47Z</time>
      </trkpt>
      <trkpt lat="40.427310" lon="-6.023120">
        <ele>466</ele>
        <time>2022-12-04T05:09:49Z</time>
      </trkpt>
      <trkpt lat="40.427350" lon="-6.023300">
        <ele>465</ele>
        <time>2022-12-04T05:09:51Z</time>
      </trkpt>
      <trkpt lat="40.427400" lon="-6.023590">
        <ele>463</ele>
        <time>2022-12-04T05:09:55Z</time>
      </trkpt>
      <trkpt lat="40.427520" lon="-6.023910">
        <ele>461</ele>
        <time>2022-12-04T05:10:00Z</time>
      </trkpt>
      <trkpt lat="40.427590" lon="-6.024030">
        <ele>460</ele>
        <time>2022-12-04T05:10:02Z</time>
      </trkpt>
      <trkpt lat="40.427730" lon="-6.024180">
        <ele>459</ele>
        <time>2022-12-04T05:10:05Z</time>
      </trkpt>
      <trkpt lat="40.428270" lon="-6.024490">
        <ele>457</ele>
        <time>2022-12-04T05:10:16Z</time>
      </trkpt>
      <trkpt lat="40.428530" lon="-6.024670">
        <ele>456</ele>
        <time>2022-12-04T05:10:21Z</time>
      </trkpt>
      <trkpt lat="40.429310" lon="-6.025300">
        <ele>451</ele>
        <time>2022-12-04T05:10:37Z</time>
      </trkpt>
      <trkpt lat="40.429540" lon="-6.025440">
        <ele>450</ele>
        <time>2022-12-04T05:10:42Z</time>
      </trkpt>
      <trkpt lat="40.429660" lon="-6.025500">
        <ele>449</ele>
        <time>2022-12-04T05:10:44Z</time>
      </trkpt>
      <trkpt lat="40.429910" lon="-6.025530">
        <ele>449</ele>
        <time>2022-12-04T05:10:49Z</time>
      </trkpt>
      <trkpt lat="40.430660" lon="-6.025460">
        <ele>452</ele>
        <time>2022-12-04T05:11:02Z</time>
      </trkpt>
      <trkpt lat="40.430790" lon="-6.025470">
        <ele>453</ele>
        <time>2022-12-04T05:11:04Z</time>
      </trkpt>
      <trkpt lat="40.430860" lon="-6.025510">
        <ele>453</ele>
        <time>2022-12-04T05:11:06Z</time>
      </trkpt>
      <trkpt lat="40.430970" lon="-6.025690">
        <ele>453</ele>
        <time>2022-12-04T05:11:09Z</time>
      </trkpt>
      <trkpt lat="40.431120" lon="-6.026100">
        <ele>454</ele>
        <time>2022-12-04T05:11:15Z</time>
      </trkpt>
      <trkpt lat="40.431220" lon="-6.026240">
        <ele>455</ele>
        <time>2022-12-04T05:11:18Z</time>
      </trkpt>
      <trkpt lat="40.431290" lon="-6.026280">
        <ele>456</ele>
        <time>2022-12-04T05:11:19Z</time>
      </trkpt>
      <trkpt lat="40.431410" lon="-6.026250">
        <ele>457</ele>
        <time>2022-12-04T05:11:21Z</time>
      </trkpt>
      <trkpt lat="40.431830" lon="-6.025840">
        <ele>460</ele>
        <time>2022-12-04T05:11:30Z</time>
      </trkpt>
      <trkpt lat="40.432120" lon="-6.025660">
        <ele>462</ele>
        <time>2022-12-04T05:11:36Z</time>
      </trkpt>
      <trkpt lat="40.432380" lon="-6.025650">
        <ele>465</ele>
        <time>2022-12-04T05:11:41Z</time>
      </trkpt>
      <trkpt lat="40.432510" lon="-6.025680">
        <ele>466</ele>
        <time>2022-12-04T05:11:43Z</time>
      </trkpt>
      <trkpt lat="40.432680" lon="-6.025780">
        <ele>469</ele>
        <time>2022-12-04T05:11:46Z</time>
      </trkpt>
      <trkpt lat="40.432840" lon="-6.025930">
        <ele>472</ele>
        <time>2022-12-04T05:11:50Z</time>
      </trkpt>
      <trkpt lat="40.432920" lon="-6.026060">
        <ele>473</ele>
        <time>2022-12-04T05:11:52Z</time>
      </trkpt>
      <trkpt lat="40.433010" lon="-6.026240">
        <ele>475</ele>
        <time>2022-12-04T05:11:55Z</time>
      </trkpt>
      <trkpt lat="40.433060" lon="-6.026410">
        <ele>477</ele>
        <time>2022-12-04T05:11:58Z</time>
      </trkpt>
      <trkpt lat="40.433090" lon="-6.026590">
        <ele>478</ele>
        <time>2022-12-04T05:12:00Z</time>
      </trkpt>
      <trkpt lat="40.433110" lon="-6.026860">
        <ele>479</ele>
        <time>2022-12-04T05:12:04Z</time>
      </trkpt>
      <trkpt lat="40.433100" lon="-6.027350">
        <ele>480</ele>
        <time>2022-12-04T05:12:10Z</time>
      </trkpt>
      <trkpt lat="40.432970" lon="-6.028560">
        <ele>484</ele>
        <time>2022-12-04T05:12:27Z</time>
      </trkpt>
      <trkpt lat="40.432970" lon="-6.028730">
        <ele>485</ele>
        <time>2022-12-04T05:12:29Z</time>
      </trkpt>
      <trkpt lat="40.433000" lon="-6.028890">
        <ele>486</ele>
        <time>2022-12-04T05:12:31Z</time>
      </trkpt>
      <trkpt lat="40.433070" lon="-6.029070">
        <ele>488</ele>
        <time>2022-12-04T05:12:34Z</time>
      </trkpt>
      <trkpt lat="40.433260" lon="-6.029360">
        <ele>491</ele>
        <time>2022-12-04T05:12:39Z</time>
      </trkpt>
      <trkpt lat="40.433670" lon="-6.029770">
        <ele>496</ele>
        <time>2022-12-04T05:12:49Z</time>
      </trkpt>
      <trkpt lat="40.433290" lon="-6.030380">
        <ele>498</ele>
        <time>2022-12-04T05:12:59Z</time>
      </trkpt>
      <trkpt lat="40.433260" lon="-6.030390">
        <ele>498</ele>
        <time>2022-12-04T05:13:00Z</time>
      </trkpt>
      <trkpt lat="40.433110" lon="-6.030340">
        <ele>497</ele>
        <time>2022-12-04T05:13:02Z</time>
      </trkpt>
      <trkpt lat="40.433080" lon="-6.030360">
        <ele>497</ele>
        <time>2022-12-04T05:13:03Z</time>
      </trkpt>
      <trkpt lat="40.433000" lon="-6.030550">
        <ele>498</ele>
        <time>2022-12-04T05:13:06Z</time>
      </trkpt>
      <trkpt lat="40.433280" lon="-6.030750">
        <ele>501</ele>
        <time>2022-12-04T05:13:12Z</time>
      </trkpt>
      <trkpt lat="40.432880" lon="-6.030500">
        <ele>498</ele>
        <time>2022-12-03T19:10:54Z</time>
      </trkpt>
      <trkpt lat="40.433000" lon="-6.030550">
        <ele>498</ele>
        <time>2022-12-03T19:10:56Z</time>
      </trkpt>
      <trkpt lat="40.432980" lon="-6.030610">
        <ele>499</ele>
        <time>2022-12-03T19:10:57Z</time>
      </trkpt>
      <trkpt lat="40.432870" lon="-6.030560">
        <ele>498</ele>
        <time>2022-12-03T19:10:59Z</time>
      </trkpt>
      <trkpt lat="40.432690" lon="-6.030540">
        <ele>497</ele>
        <time>2022-12-03T19:11:02Z</time>
      </trkpt>
      <trkpt lat="40.432480" lon="-6.030610">
        <ele>497</ele>
        <time>2022-12-03T19:11:06Z</time>
      </trkpt>
      <trkpt lat="40.432270" lon="-6.030770">
        <ele>497</ele>
        <time>2022-12-03T19:11:11Z</time>
      </trkpt>
      <trkpt lat="40.431820" lon="-6.031180">
        <ele>495</ele>
        <time>2022-12-03T19:11:20Z</time>
      </trkpt>
      <trkpt lat="40.431640" lon="-6.031450">
        <ele>494</ele>
        <time>2022-12-03T19:11:25Z</time>
      </trkpt>
      <trkpt lat="40.431450" lon="-6.031930">
        <ele>492</ele>
        <time>2022-12-03T19:11:33Z</time>
      </trkpt>
      <trkpt lat="40.431060" lon="-6.033090">
        <ele>489</ele>
        <time>2022-12-03T19:11:50Z</time>
      </trkpt>
      <trkpt lat="40.430970" lon="-6.033300">
        <ele>489</ele>
        <time>2022-12-03T19:11:53Z</time>
      </trkpt>
      <trkpt lat="40.430820" lon="-6.033520">
        <ele>488</ele>
        <time>2022-12-03T19:11:57Z</time>
      </trkpt>
      <trkpt lat="40.430730" lon="-6.033600">
        <ele>488</ele>
        <time>2022-12-03T19:11:59Z</time>
      </trkpt>
      <trkpt lat="40.430610" lon="-6.033670">
        <ele>488</ele>
        <time>2022-12-03T19:12:01Z</time>
      </trkpt>
      <trkpt lat="40.430360" lon="-6.033710">
        <ele>487</ele>
        <time>2022-12-03T19:12:06Z</time>
      </trkpt>
      <trkpt lat="40.430250" lon="-6.033690">
        <ele>486</ele>
        <time>2022-12-03T19:12:08Z</time>
      </trkpt>
      <trkpt lat="40.429970" lon="-6.033530">
        <ele>483</ele>
        <time>2022-12-03T19:12:13Z</time>
      </trkpt>
      <trkpt lat="40.429670" lon="-6.033310">
        <ele>480</ele>
        <time>2022-12-03T19:12:19Z</time>
      </trkpt>
      <trkpt lat="40.429560" lon="-6.033250">
        <ele>479</ele>
        <time>2022-12-03T19:12:21Z</time>
      </trkpt>
      <trkpt lat="40.429380" lon="-6.033190">
        <ele>478</ele>
        <time>2022-12-03T19:12:25Z</time>
      </trkpt>
      <trkpt lat="40.426210" lon="-6.032770">
        <ele>470</ele>
        <time>2022-12-03T19:13:21Z</time>
      </trkpt>
      <trkpt lat="40.426020" lon="-6.032760">
        <ele>471</ele>
        <time>2022-12-03T19:13:25Z</time>
      </trkpt>
      <trkpt lat="40.425740" lon="-6.032790">
        <ele>470</ele>
        <time>2022-12-03T19:13:30Z</time>
      </trkpt>
      <trkpt lat="40.424410" lon="-6.033230">
        <ele>462</ele>
        <time>2022-12-03T19:13:54Z</time>
      </trkpt>
      <trkpt lat="40.424240" lon="-6.033310">
        <ele>461</ele>
        <time>2022-12-03T19:13:57Z</time>
      </trkpt>
      <trkpt lat="40.424120" lon="-6.033410">
        <ele>460</ele>
        <time>2022-12-03T19:14:00Z</time>
      </trkpt>
      <trkpt lat="40.424020" lon="-6.033530">
        <ele>459</ele>
        <time>2022-12-03T19:14:02Z</time>
      </trkpt>
      <trkpt lat="40.423930" lon="-6.033680">
        <ele>459</ele>
        <time>2022-12-03T19:14:05Z</time>
      </trkpt>
      <trkpt lat="40.423870" lon="-6.033810">
        <ele>459</ele>
        <time>2022-12-03T19:14:07Z</time>
      </trkpt>
      <trkpt lat="40.423830" lon="-6.034010">
        <ele>459</ele>
        <time>2022-12-03T19:14:10Z</time>
      </trkpt>
      <trkpt lat="40.423790" lon="-6.034350">
        <ele>459</ele>
        <time>2022-12-03T19:14:14Z</time>
      </trkpt>
      <trkpt lat="40.423760" lon="-6.034890">
        <ele>457</ele>
        <time>2022-12-03T19:14:22Z</time>
      </trkpt>
      <trkpt lat="40.423820" lon="-6.035180">
        <ele>456</ele>
        <time>2022-12-03T19:14:26Z</time>
      </trkpt>
      <trkpt lat="40.423920" lon="-6.035380">
        <ele>456</ele>
        <time>2022-12-03T19:14:29Z</time>
      </trkpt>
      <trkpt lat="40.424100" lon="-6.035590">
        <ele>456</ele>
        <time>2022-12-03T19:14:33Z</time>
      </trkpt>
      <trkpt lat="40.425050" lon="-6.036210">
        <ele>458</ele>
        <time>2022-12-03T19:14:52Z</time>
      </trkpt>
      <trkpt lat="40.425330" lon="-6.036400">
        <ele>459</ele>
        <time>2022-12-03T19:14:58Z</time>
      </trkpt>
      <trkpt lat="40.425430" lon="-6.036510">
        <ele>459</ele>
        <time>2022-12-03T19:15:00Z</time>
      </trkpt>
      <trkpt lat="40.425580" lon="-6.036750">
        <ele>459</ele>
        <time>2022-12-03T19:15:04Z</time>
      </trkpt>
      <trkpt lat="40.425640" lon="-6.036940">
        <ele>459</ele>
        <time>2022-12-03T19:15:07Z</time>
      </trkpt>
      <trkpt lat="40.425670" lon="-6.037120">
        <ele>458</ele>
        <time>2022-12-03T19:15:10Z</time>
      </trkpt>
      <trkpt lat="40.425660" lon="-6.037290">
        <ele>457</ele>
        <time>2022-12-03T19:15:12Z</time>
      </trkpt>
      <trkpt lat="40.425640" lon="-6.037470">
        <ele>456</ele>
        <time>2022-12-03T19:15:14Z</time>
      </trkpt>
      <trkpt lat="40.425600" lon="-6.037610">
        <ele>456</ele>
        <time>2022-12-03T19:15:16Z</time>
      </trkpt>
      <trkpt lat="40.425560" lon="-6.037730">
        <ele>458</ele>
        <time>2022-12-03T19:15:18Z</time>
      </trkpt>
      <trkpt lat="40.425400" lon="-6.037940">
        <ele>459</ele>
        <time>2022-12-03T19:15:22Z</time>
      </trkpt>
      <trkpt lat="40.425230" lon="-6.038080">
        <ele>460</ele>
        <time>2022-12-03T19:15:26Z</time>
      </trkpt>
      <trkpt lat="40.425140" lon="-6.038120">
        <ele>459</ele>
        <time>2022-12-03T19:15:27Z</time>
      </trkpt>
      <trkpt lat="40.425010" lon="-6.038140">
        <ele>459</ele>
        <time>2022-12-03T19:15:30Z</time>
      </trkpt>
      <trkpt lat="40.423780" lon="-6.038060">
        <ele>456</ele>
        <time>2022-12-03T19:15:52Z</time>
      </trkpt>
      <trkpt lat="40.423550" lon="-6.038020">
        <ele>456</ele>
        <time>2022-12-03T19:15:56Z</time>
      </trkpt>
      <trkpt lat="40.423430" lon="-6.037960">
        <ele>455</ele>
        <time>2022-12-03T19:15:58Z</time>
      </trkpt>
      <trkpt lat="40.423200" lon="-6.037810">
        <ele>455</ele>
        <time>2022-12-03T19:16:03Z</time>
      </trkpt>
      <trkpt lat="40.422240" lon="-6.036940">
        <ele>451</ele>
        <time>2022-12-03T19:16:23Z</time>
      </trkpt>
      <trkpt lat="40.422130" lon="-6.036810">
        <ele>451</ele>
        <time>2022-12-03T19:16:26Z</time>
      </trkpt>
      <trkpt lat="40.422010" lon="-6.036650">
        <ele>451</ele>
        <time>2022-12-03T19:16:29Z</time>
      </trkpt>
      <trkpt lat="40.421580" lon="-6.035930">
        <ele>447</ele>
        <time>2022-12-03T19:16:42Z</time>
      </trkpt>
      <trkpt lat="40.421420" lon="-6.035730">
        <ele>447</ele>
        <time>2022-12-03T19:16:45Z</time>
      </trkpt>
      <trkpt lat="40.421270" lon="-6.035580">
        <ele>447</ele>
        <time>2022-12-03T19:16:49Z</time>
      </trkpt>
      <trkpt lat="40.421080" lon="-6.035430">
        <ele>447</ele>
        <time>2022-12-03T19:16:53Z</time>
      </trkpt>
      <trkpt lat="40.420880" lon="-6.035320">
        <ele>447</ele>
        <time>2022-12-03T19:16:57Z</time>
      </trkpt>
      <trkpt lat="40.420690" lon="-6.035240">
        <ele>446</ele>
        <time>2022-12-03T19:17:00Z</time>
      </trkpt>
      <trkpt lat="40.420500" lon="-6.035190">
        <ele>446</ele>
        <time>2022-12-03T19:17:04Z</time>
      </trkpt>
      <trkpt lat="40.420270" lon="-6.035170">
        <ele>447</ele>
        <time>2022-12-03T19:17:08Z</time>
      </trkpt>
      <trkpt lat="40.417490" lon="-6.035220">
        <ele>443</ele>
        <time>2022-12-03T19:17:57Z</time>
      </trkpt>
      <trkpt lat="40.417080" lon="-6.035270">
        <ele>445</ele>
        <time>2022-12-03T19:18:04Z</time>
      </trkpt>
      <trkpt lat="40.416650" lon="-6.035440">
        <ele>447</ele>
        <time>2022-12-03T19:18:12Z</time>
      </trkpt>
      <trkpt lat="40.416340" lon="-6.035590">
        <ele>446</ele>
        <time>2022-12-03T19:18:18Z</time>
      </trkpt>
      <trkpt lat="40.416220" lon="-6.035660">
        <ele>446</ele>
        <time>2022-12-03T19:18:21Z</time>
      </trkpt>
      <trkpt lat="40.415950" lon="-6.035910">
        <ele>446</ele>
        <time>2022-12-03T19:18:27Z</time>
      </trkpt>
      <trkpt lat="40.414900" lon="-6.037270">
        <ele>442</ele>
        <time>2022-12-03T19:18:53Z</time>
      </trkpt>
      <trkpt lat="40.414800" lon="-6.037440">
        <ele>442</ele>
        <time>2022-12-03T19:18:56Z</time>
      </trkpt>
      <trkpt lat="40.414750" lon="-6.037610">
        <ele>442</ele>
        <time>2022-12-03T19:18:58Z</time>
      </trkpt>
      <trkpt lat="40.414710" lon="-6.037910">
        <ele>442</ele>
        <time>2022-12-03T19:19:02Z</time>
      </trkpt>
      <trkpt lat="40.414850" lon="-6.039290">
        <ele>441</ele>
        <time>2022-12-03T19:19:21Z</time>
      </trkpt>
      <trkpt lat="40.414850" lon="-6.039530">
        <ele>441</ele>
        <time>2022-12-03T19:19:24Z</time>
      </trkpt>
      <trkpt lat="40.414830" lon="-6.039680">
        <ele>440</ele>
        <time>2022-12-03T19:19:26Z</time>
      </trkpt>
      <trkpt lat="40.414790" lon="-6.039800">
        <ele>439</ele>
        <time>2022-12-03T19:19:28Z</time>
      </trkpt>
      <trkpt lat="40.414740" lon="-6.039940">
        <ele>439</ele>
        <time>2022-12-03T19:19:30Z</time>
      </trkpt>
      <trkpt lat="40.414660" lon="-6.040060">
        <ele>439</ele>
        <time>2022-12-03T19:19:33Z</time>
      </trkpt>
      <trkpt lat="40.414570" lon="-6.040160">
        <ele>439</ele>
        <time>2022-12-03T19:19:35Z</time>
      </trkpt>
      <trkpt lat="40.414470" lon="-6.040240">
        <ele>440</ele>
        <time>2022-12-03T19:19:37Z</time>
      </trkpt>
      <trkpt lat="40.413710" lon="-6.040610">
        <ele>438</ele>
        <time>2022-12-03T19:19:51Z</time>
      </trkpt>
      <trkpt lat="40.413570" lon="-6.040650">
        <ele>436</ele>
        <time>2022-12-03T19:19:54Z</time>
      </trkpt>
      <trkpt lat="40.413270" lon="-6.040720">
        <ele>432</ele>
        <time>2022-12-03T19:19:59Z</time>
      </trkpt>
      <trkpt lat="40.412640" lon="-6.040620">
        <ele>427</ele>
        <time>2022-12-03T19:20:10Z</time>
      </trkpt>
      <trkpt lat="40.412500" lon="-6.040620">
        <ele>426</ele>
        <time>2022-12-03T19:20:13Z</time>
      </trkpt>
      <trkpt lat="40.412340" lon="-6.040650">
        <ele>424</ele>
        <time>2022-12-03T19:20:16Z</time>
      </trkpt>
      <trkpt lat="40.412190" lon="-6.040710">
        <ele>424</ele>
        <time>2022-12-03T19:20:19Z</time>
      </trkpt>
      <trkpt lat="40.412060" lon="-6.040790">
        <ele>423</ele>
        <time>2022-12-03T19:20:21Z</time>
      </trkpt>
      <trkpt lat="40.411820" lon="-6.041030">
        <ele>423</ele>
        <time>2022-12-03T19:20:26Z</time>
      </trkpt>
      <trkpt lat="40.411710" lon="-6.041190">
        <ele>423</ele>
        <time>2022-12-03T19:20:29Z</time>
      </trkpt>
      <trkpt lat="40.411620" lon="-6.041380">
        <ele>422</ele>
        <time>2022-12-03T19:20:32Z</time>
      </trkpt>
      <trkpt lat="40.411550" lon="-6.041580">
        <ele>422</ele>
        <time>2022-12-03T19:20:35Z</time>
      </trkpt>
      <trkpt lat="40.411450" lon="-6.042220">
        <ele>419</ele>
        <time>2022-12-03T19:20:44Z</time>
      </trkpt>
      <trkpt lat="40.411450" lon="-6.042570">
        <ele>419</ele>
        <time>2022-12-03T19:20:49Z</time>
      </trkpt>
      <trkpt lat="40.411610" lon="-6.043400">
        <ele>418</ele>
        <time>2022-12-03T19:21:01Z</time>
      </trkpt>
      <trkpt lat="40.411630" lon="-6.043610">
        <ele>418</ele>
        <time>2022-12-03T19:21:03Z</time>
      </trkpt>
      <trkpt lat="40.411650" lon="-6.044670">
        <ele>418</ele>
        <time>2022-12-03T19:21:18Z</time>
      </trkpt>
      <trkpt lat="40.411680" lon="-6.045210">
        <ele>418</ele>
        <time>2022-12-03T19:21:25Z</time>
      </trkpt>
      <trkpt lat="40.411770" lon="-6.045670">
        <ele>418</ele>
        <time>2022-12-03T19:21:32Z</time>
      </trkpt>
      <trkpt lat="40.411900" lon="-6.046090">
        <ele>416</ele>
        <time>2022-12-03T19:21:38Z</time>
      </trkpt>
      <trkpt lat="40.411970" lon="-6.046270">
        <ele>415</ele>
        <time>2022-12-03T19:21:40Z</time>
      </trkpt>
      <trkpt lat="40.412200" lon="-6.046650">
        <ele>412</ele>
        <time>2022-12-03T19:21:47Z</time>
      </trkpt>
      <trkpt lat="40.412410" lon="-6.046910">
        <ele>412</ele>
        <time>2022-12-03T19:21:52Z</time>
      </trkpt>
      <trkpt lat="40.413190" lon="-6.047640">
        <ele>414</ele>
        <time>2022-12-03T19:22:09Z</time>
      </trkpt>
      <trkpt lat="40.413430" lon="-6.047830">
        <ele>413</ele>
        <time>2022-12-03T19:22:14Z</time>
      </trkpt>
      <trkpt lat="40.413550" lon="-6.047880">
        <ele>412</ele>
        <time>2022-12-03T19:22:16Z</time>
      </trkpt>
      <trkpt lat="40.413680" lon="-6.047900">
        <ele>412</ele>
        <time>2022-12-03T19:22:19Z</time>
      </trkpt>
      <trkpt lat="40.414230" lon="-6.047890">
        <ele>411</ele>
        <time>2022-12-03T19:22:29Z</time>
      </trkpt>
      <trkpt lat="40.414380" lon="-6.047930">
        <ele>411</ele>
        <time>2022-12-03T19:22:31Z</time>
      </trkpt>
      <trkpt lat="40.414660" lon="-6.048080">
        <ele>409</ele>
        <time>2022-12-03T19:22:37Z</time>
      </trkpt>
      <trkpt lat="40.415030" lon="-6.048390">
        <ele>405</ele>
        <time>2022-12-03T19:22:44Z</time>
      </trkpt>
      <trkpt lat="40.415130" lon="-6.048510">
        <ele>405</ele>
        <time>2022-12-03T19:22:47Z</time>
      </trkpt>
      <trkpt lat="40.415210" lon="-6.048640">
        <ele>405</ele>
        <time>2022-12-03T19:22:49Z</time>
      </trkpt>
      <trkpt lat="40.415300" lon="-6.048870">
        <ele>403</ele>
        <time>2022-12-03T19:22:53Z</time>
      </trkpt>
      <trkpt lat="40.415340" lon="-6.049040">
        <ele>402</ele>
        <time>2022-12-03T19:22:55Z</time>
      </trkpt>
      <trkpt lat="40.415340" lon="-6.049250">
        <ele>399</ele>
        <time>2022-12-03T19:22:58Z</time>
      </trkpt>
      <trkpt lat="40.415300" lon="-6.049590">
        <ele>396</ele>
        <time>2022-12-03T19:23:03Z</time>
      </trkpt>
      <trkpt lat="40.415130" lon="-6.050580">
        <ele>393</ele>
        <time>2022-12-03T19:23:16Z</time>
      </trkpt>
      <trkpt lat="40.415060" lon="-6.050970">
        <ele>393</ele>
        <time>2022-12-03T19:23:22Z</time>
      </trkpt>
      <trkpt lat="40.414950" lon="-6.051310">
        <ele>394</ele>
        <time>2022-12-03T19:23:27Z</time>
      </trkpt>
      <trkpt lat="40.414790" lon="-6.051590">
        <ele>397</ele>
        <time>2022-12-03T19:23:31Z</time>
      </trkpt>
      <trkpt lat="40.414610" lon="-6.051790">
        <ele>398</ele>
        <time>2022-12-03T19:23:36Z</time>
      </trkpt>
      <trkpt lat="40.414110" lon="-6.052230">
        <ele>397</ele>
        <time>2022-12-03T19:23:46Z</time>
      </trkpt>
      <trkpt lat="40.413880" lon="-6.052390">
        <ele>396</ele>
        <time>2022-12-03T19:23:51Z</time>
      </trkpt>
      <trkpt lat="40.412290" lon="-6.053120">
        <ele>397</ele>
        <time>2022-12-03T19:24:21Z</time>
      </trkpt>
      <trkpt lat="40.411890" lon="-6.053200">
        <ele>398</ele>
        <time>2022-12-03T19:24:28Z</time>
      </trkpt>
      <trkpt lat="40.411000" lon="-6.053130">
        <ele>399</ele>
        <time>2022-12-03T19:24:44Z</time>
      </trkpt>
      <trkpt lat="40.410680" lon="-6.053080">
        <ele>399</ele>
        <time>2022-12-03T19:24:50Z</time>
      </trkpt>
      <trkpt lat="40.406940" lon="-6.052310">
        <ele>399</ele>
        <time>2022-12-03T19:25:57Z</time>
      </trkpt>
      <trkpt lat="40.406710" lon="-6.052300">
        <ele>400</ele>
        <time>2022-12-03T19:26:01Z</time>
      </trkpt>
      <trkpt lat="40.406580" lon="-6.052330">
        <ele>401</ele>
        <time>2022-12-03T19:26:04Z</time>
      </trkpt>
      <trkpt lat="40.406360" lon="-6.052450">
        <ele>402</ele>
        <time>2022-12-03T19:26:08Z</time>
      </trkpt>
      <trkpt lat="40.406240" lon="-6.052550">
        <ele>403</ele>
        <time>2022-12-03T19:26:10Z</time>
      </trkpt>
      <trkpt lat="40.406130" lon="-6.052720">
        <ele>402</ele>
        <time>2022-12-03T19:26:13Z</time>
      </trkpt>
      <trkpt lat="40.405980" lon="-6.053030">
        <ele>401</ele>
        <time>2022-12-03T19:26:18Z</time>
      </trkpt>
      <trkpt lat="40.405170" lon="-6.055040">
        <ele>410</ele>
        <time>2022-12-03T19:26:49Z</time>
      </trkpt>
      <trkpt lat="40.405090" lon="-6.055310">
        <ele>411</ele>
        <time>2022-12-03T19:26:53Z</time>
      </trkpt>
      <trkpt lat="40.405070" lon="-6.055570">
        <ele>411</ele>
        <time>2022-12-03T19:26:57Z</time>
      </trkpt>
      <trkpt lat="40.405110" lon="-6.055800">
        <ele>409</ele>
        <time>2022-12-03T19:27:00Z</time>
      </trkpt>
      <trkpt lat="40.405170" lon="-6.055980">
        <ele>409</ele>
        <time>2022-12-03T19:27:03Z</time>
      </trkpt>
      <trkpt lat="40.405890" lon="-6.057510">
        <ele>404</ele>
        <time>2022-12-03T19:27:27Z</time>
      </trkpt>
      <trkpt lat="40.405980" lon="-6.057800">
        <ele>403</ele>
        <time>2022-12-03T19:27:31Z</time>
      </trkpt>
      <trkpt lat="40.405990" lon="-6.058060">
        <ele>403</ele>
        <time>2022-12-03T19:27:35Z</time>
      </trkpt>
      <trkpt lat="40.405930" lon="-6.058460">
        <ele>404</ele>
        <time>2022-12-03T19:27:40Z</time>
      </trkpt>
      <trkpt lat="40.404950" lon="-6.062310">
        <ele>403</ele>
        <time>2022-12-03T19:28:35Z</time>
      </trkpt>
      <trkpt lat="40.404390" lon="-6.064250">
        <ele>408</ele>
        <time>2022-12-03T19:29:03Z</time>
      </trkpt>
      <trkpt lat="40.404340" lon="-6.064480">
        <ele>410</ele>
        <time>2022-12-03T19:29:07Z</time>
      </trkpt>
      <trkpt lat="40.404310" lon="-6.064760">
        <ele>411</ele>
        <time>2022-12-03T19:29:10Z</time>
      </trkpt>
      <trkpt lat="40.404320" lon="-6.064970">
        <ele>410</ele>
        <time>2022-12-03T19:29:13Z</time>
      </trkpt>
      <trkpt lat="40.404360" lon="-6.065210">
        <ele>412</ele>
        <time>2022-12-03T19:29:17Z</time>
      </trkpt>
      <trkpt lat="40.404420" lon="-6.065460">
        <ele>412</ele>
        <time>2022-12-03T19:29:20Z</time>
      </trkpt>
      <trkpt lat="40.404530" lon="-6.065810">
        <ele>411</ele>
        <time>2022-12-03T19:29:25Z</time>
      </trkpt>
      <trkpt lat="40.404600" lon="-6.065970">
        <ele>409</ele>
        <time>2022-12-03T19:29:28Z</time>
      </trkpt>
      <trkpt lat="40.404720" lon="-6.066170">
        <ele>406</ele>
        <time>2022-12-03T19:29:31Z</time>
      </trkpt>
      <trkpt lat="40.404920" lon="-6.066460">
        <ele>399</ele>
        <time>2022-12-03T19:29:36Z</time>
      </trkpt>
      <trkpt lat="40.404980" lon="-6.066580">
        <ele>397</ele>
        <time>2022-12-03T19:29:38Z</time>
      </trkpt>
      <trkpt lat="40.405020" lon="-6.066820">
        <ele>397</ele>
        <time>2022-12-03T19:29:42Z</time>
      </trkpt>
      <trkpt lat="40.405020" lon="-6.066950">
        <ele>398</ele>
        <time>2022-12-03T19:29:43Z</time>
      </trkpt>
      <trkpt lat="40.404990" lon="-6.067110">
        <ele>399</ele>
        <time>2022-12-03T19:29:46Z</time>
      </trkpt>
      <trkpt lat="40.404930" lon="-6.067270">
        <ele>402</ele>
        <time>2022-12-03T19:29:48Z</time>
      </trkpt>
      <trkpt lat="40.404690" lon="-6.067760">
        <ele>411</ele>
        <time>2022-12-03T19:29:56Z</time>
      </trkpt>
      <trkpt lat="40.404640" lon="-6.067900">
        <ele>413</ele>
        <time>2022-12-03T19:29:58Z</time>
      </trkpt>
      <trkpt lat="40.404610" lon="-6.068070">
        <ele>414</ele>
        <time>2022-12-03T19:30:00Z</time>
      </trkpt>
      <trkpt lat="40.404600" lon="-6.068230">
        <ele>414</ele>
        <time>2022-12-03T19:30:03Z</time>
      </trkpt>
      <trkpt lat="40.404690" lon="-6.069040">
        <ele>407</ele>
        <time>2022-12-03T19:30:14Z</time>
      </trkpt>
      <trkpt lat="40.404830" lon="-6.069690">
        <ele>400</ele>
        <time>2022-12-03T19:30:23Z</time>
      </trkpt>
      <trkpt lat="40.404840" lon="-6.070000">
        <ele>400</ele>
        <time>2022-12-03T19:30:27Z</time>
      </trkpt>
      <trkpt lat="40.404810" lon="-6.070170">
        <ele>400</ele>
        <time>2022-12-03T19:30:29Z</time>
      </trkpt>
      <trkpt lat="40.404720" lon="-6.070410">
        <ele>400</ele>
        <time>2022-12-03T19:30:33Z</time>
      </trkpt>
      <trkpt lat="40.403750" lon="-6.072360">
        <ele>389</ele>
        <time>2022-12-03T19:31:05Z</time>
      </trkpt>
      <trkpt lat="40.403680" lon="-6.072530">
        <ele>388</ele>
        <time>2022-12-03T19:31:07Z</time>
      </trkpt>
      <trkpt lat="40.403590" lon="-6.072800">
        <ele>388</ele>
        <time>2022-12-03T19:31:11Z</time>
      </trkpt>
      <trkpt lat="40.403550" lon="-6.073160">
        <ele>388</ele>
        <time>2022-12-03T19:31:16Z</time>
      </trkpt>
      <trkpt lat="40.403580" lon="-6.073370">
        <ele>388</ele>
        <time>2022-12-03T19:31:19Z</time>
      </trkpt>
      <trkpt lat="40.403710" lon="-6.073970">
        <ele>384</ele>
        <time>2022-12-03T19:31:28Z</time>
      </trkpt>
      <trkpt lat="40.404050" lon="-6.075210">
        <ele>388</ele>
        <time>2022-12-03T19:31:45Z</time>
      </trkpt>
      <trkpt lat="40.404130" lon="-6.075550">
        <ele>391</ele>
        <time>2022-12-03T19:31:50Z</time>
      </trkpt>
      <trkpt lat="40.404170" lon="-6.075770">
        <ele>393</ele>
        <time>2022-12-03T19:31:53Z</time>
      </trkpt>
      <trkpt lat="40.404180" lon="-6.075970">
        <ele>394</ele>
        <time>2022-12-03T19:31:56Z</time>
      </trkpt>
      <trkpt lat="40.404160" lon="-6.076230">
        <ele>395</ele>
        <time>2022-12-03T19:32:00Z</time>
      </trkpt>
      <trkpt lat="40.403500" lon="-6.079150">
        <ele>398</ele>
        <time>2022-12-03T19:32:41Z</time>
      </trkpt>
      <trkpt lat="40.403430" lon="-6.079630">
        <ele>399</ele>
        <time>2022-12-03T19:32:47Z</time>
      </trkpt>
      <trkpt lat="40.403410" lon="-6.080150">
        <ele>401</ele>
        <time>2022-12-03T19:32:55Z</time>
      </trkpt>
      <trkpt lat="40.403450" lon="-6.080700">
        <ele>402</ele>
        <time>2022-12-03T19:33:02Z</time>
      </trkpt>
      <trkpt lat="40.403600" lon="-6.081420">
        <ele>403</ele>
        <time>2022-12-03T19:33:12Z</time>
      </trkpt>
      <trkpt lat="40.404240" lon="-6.083770">
        <ele>390</ele>
        <time>2022-12-03T19:33:46Z</time>
      </trkpt>
      <trkpt lat="40.404400" lon="-6.084370">
        <ele>391</ele>
        <time>2022-12-03T19:33:55Z</time>
      </trkpt>
      <trkpt lat="40.404460" lon="-6.084530">
        <ele>392</ele>
        <time>2022-12-03T19:33:57Z</time>
      </trkpt>
      <trkpt lat="40.404630" lon="-6.084760">
        <ele>394</ele>
        <time>2022-12-03T19:34:01Z</time>
      </trkpt>
      <trkpt lat="40.405270" lon="-6.085120">
        <ele>398</ele>
        <time>2022-12-03T19:34:14Z</time>
      </trkpt>
      <trkpt lat="40.406020" lon="-6.085350">
        <ele>400</ele>
        <time>2022-12-03T19:34:27Z</time>
      </trkpt>
      <trkpt lat="40.406340" lon="-6.085520">
        <ele>400</ele>
        <time>2022-12-03T19:34:34Z</time>
      </trkpt>
      <trkpt lat="40.406560" lon="-6.085750">
        <ele>400</ele>
        <time>2022-12-03T19:34:39Z</time>
      </trkpt>
      <trkpt lat="40.406650" lon="-6.085860">
        <ele>401</ele>
        <time>2022-12-03T19:34:41Z</time>
      </trkpt>
      <trkpt lat="40.407080" lon="-6.086720">
        <ele>406</ele>
        <time>2022-12-03T19:34:55Z</time>
      </trkpt>
      <trkpt lat="40.407160" lon="-6.086860">
        <ele>406</ele>
        <time>2022-12-03T19:34:57Z</time>
      </trkpt>
      <trkpt lat="40.407430" lon="-6.087170">
        <ele>402</ele>
        <time>2022-12-03T19:35:03Z</time>
      </trkpt>
      <trkpt lat="40.407530" lon="-6.087320">
        <ele>402</ele>
        <time>2022-12-03T19:35:06Z</time>
      </trkpt>
      <trkpt lat="40.407620" lon="-6.087520">
        <ele>404</ele>
        <time>2022-12-03T19:35:09Z</time>
      </trkpt>
      <trkpt lat="40.407670" lon="-6.087720">
        <ele>404</ele>
        <time>2022-12-03T19:35:12Z</time>
      </trkpt>
      <trkpt lat="40.407700" lon="-6.087950">
        <ele>405</ele>
        <time>2022-12-03T19:35:15Z</time>
      </trkpt>
      <trkpt lat="40.407710" lon="-6.089110">
        <ele>406</ele>
        <time>2022-12-03T19:35:31Z</time>
      </trkpt>
      <trkpt lat="40.407690" lon="-6.089320">
        <ele>406</ele>
        <time>2022-12-03T19:35:34Z</time>
      </trkpt>
      <trkpt lat="40.407640" lon="-6.089590">
        <ele>405</ele>
        <time>2022-12-03T19:35:38Z</time>
      </trkpt>
      <trkpt lat="40.407520" lon="-6.089900">
        <ele>403</ele>
        <time>2022-12-03T19:35:42Z</time>
      </trkpt>
      <trkpt lat="40.407440" lon="-6.090050">
        <ele>404</ele>
        <time>2022-12-03T19:35:45Z</time>
      </trkpt>
      <trkpt lat="40.407210" lon="-6.090300">
        <ele>410</ele>
        <time>2022-12-03T19:35:50Z</time>
      </trkpt>
      <trkpt lat="40.407070" lon="-6.090510">
        <ele>412</ele>
        <time>2022-12-03T19:35:54Z</time>
      </trkpt>
      <trkpt lat="40.406930" lon="-6.090810">
        <ele>412</ele>
        <time>2022-12-03T19:35:59Z</time>
      </trkpt>
      <trkpt lat="40.406890" lon="-6.090990">
        <ele>413</ele>
        <time>2022-12-03T19:36:01Z</time>
      </trkpt>
      <trkpt lat="40.406860" lon="-6.091200">
        <ele>413</ele>
        <time>2022-12-03T19:36:04Z</time>
      </trkpt>
      <trkpt lat="40.406850" lon="-6.091480">
        <ele>411</ele>
        <time>2022-12-03T19:36:08Z</time>
      </trkpt>
      <trkpt lat="40.406860" lon="-6.091740">
        <ele>410</ele>
        <time>2022-12-03T19:36:11Z</time>
      </trkpt>
      <trkpt lat="40.406910" lon="-6.092010">
        <ele>408</ele>
        <time>2022-12-03T19:36:15Z</time>
      </trkpt>
      <trkpt lat="40.407030" lon="-6.092370">
        <ele>405</ele>
        <time>2022-12-03T19:36:21Z</time>
      </trkpt>
      <trkpt lat="40.407110" lon="-6.092560">
        <ele>404</ele>
        <time>2022-12-03T19:36:23Z</time>
      </trkpt>
      <trkpt lat="40.407420" lon="-6.093020">
        <ele>404</ele>
        <time>2022-12-03T19:36:32Z</time>
      </trkpt>
      <trkpt lat="40.407770" lon="-6.093480">
        <ele>407</ele>
        <time>2022-12-03T19:36:41Z</time>
      </trkpt>
      <trkpt lat="40.408100" lon="-6.093760">
        <ele>408</ele>
        <time>2022-12-03T19:36:48Z</time>
      </trkpt>
      <trkpt lat="40.408360" lon="-6.093900">
        <ele>406</ele>
        <time>2022-12-03T19:36:53Z</time>
      </trkpt>
      <trkpt lat="40.408950" lon="-6.094100">
        <ele>408</ele>
        <time>2022-12-03T19:37:03Z</time>
      </trkpt>
      <trkpt lat="40.409220" lon="-6.094230">
        <ele>409</ele>
        <time>2022-12-03T19:37:09Z</time>
      </trkpt>
      <trkpt lat="40.409540" lon="-6.094460">
        <ele>412</ele>
        <time>2022-12-03T19:37:15Z</time>
      </trkpt>
      <trkpt lat="40.410830" lon="-6.095700">
        <ele>413</ele>
        <time>2022-12-03T19:37:43Z</time>
      </trkpt>
      <trkpt lat="40.411140" lon="-6.096100">
        <ele>413</ele>
        <time>2022-12-03T19:37:51Z</time>
      </trkpt>
      <trkpt lat="40.411280" lon="-6.096330">
        <ele>412</ele>
        <time>2022-12-03T19:37:55Z</time>
      </trkpt>
      <trkpt lat="40.411380" lon="-6.096540">
        <ele>412</ele>
        <time>2022-12-03T19:37:59Z</time>
      </trkpt>
      <trkpt lat="40.411470" lon="-6.096780">
        <ele>412</ele>
        <time>2022-12-03T19:38:02Z</time>
      </trkpt>
      <trkpt lat="40.411600" lon="-6.097290">
        <ele>413</ele>
        <time>2022-12-03T19:38:09Z</time>
      </trkpt>
      <trkpt lat="40.411630" lon="-6.097550">
        <ele>414</ele>
        <time>2022-12-03T19:38:13Z</time>
      </trkpt>
      <trkpt lat="40.411780" lon="-6.100030">
        <ele>421</ele>
        <time>2022-12-03T19:38:47Z</time>
      </trkpt>
      <trkpt lat="40.411800" lon="-6.100260">
        <ele>422</ele>
        <time>2022-12-03T19:38:50Z</time>
      </trkpt>
      <trkpt lat="40.411840" lon="-6.100440">
        <ele>422</ele>
        <time>2022-12-03T19:38:52Z</time>
      </trkpt>
      <trkpt lat="40.411960" lon="-6.100740">
        <ele>422</ele>
        <time>2022-12-03T19:38:57Z</time>
      </trkpt>
      <trkpt lat="40.412090" lon="-6.100940">
        <ele>423</ele>
        <time>2022-12-03T19:39:01Z</time>
      </trkpt>
      <trkpt lat="40.412730" lon="-6.101630">
        <ele>423</ele>
        <time>2022-12-03T19:39:15Z</time>
      </trkpt>
      <trkpt lat="40.413090" lon="-6.102050">
        <ele>420</ele>
        <time>2022-12-03T19:39:24Z</time>
      </trkpt>
      <trkpt lat="40.413200" lon="-6.102210">
        <ele>419</ele>
        <time>2022-12-03T19:39:27Z</time>
      </trkpt>
      <trkpt lat="40.413250" lon="-6.102350">
        <ele>419</ele>
        <time>2022-12-03T19:39:29Z</time>
      </trkpt>
      <trkpt lat="40.413330" lon="-6.102630">
        <ele>419</ele>
        <time>2022-12-03T19:39:33Z</time>
      </trkpt>
      <trkpt lat="40.413340" lon="-6.102920">
        <ele>419</ele>
        <time>2022-12-03T19:39:37Z</time>
      </trkpt>
      <trkpt lat="40.413330" lon="-6.103100">
        <ele>420</ele>
        <time>2022-12-03T19:39:39Z</time>
      </trkpt>
      <trkpt lat="40.413110" lon="-6.104000">
        <ele>429</ele>
        <time>2022-12-03T19:39:52Z</time>
      </trkpt>
      <trkpt lat="40.413100" lon="-6.104260">
        <ele>430</ele>
        <time>2022-12-03T19:39:56Z</time>
      </trkpt>
      <trkpt lat="40.413110" lon="-6.104460">
        <ele>430</ele>
        <time>2022-12-03T19:39:58Z</time>
      </trkpt>
      <trkpt lat="40.413140" lon="-6.104610">
        <ele>429</ele>
        <time>2022-12-03T19:40:00Z</time>
      </trkpt>
      <trkpt lat="40.413390" lon="-6.105430">
        <ele>425</ele>
        <time>2022-12-03T19:40:12Z</time>
      </trkpt>
      <trkpt lat="40.413410" lon="-6.105740">
        <ele>425</ele>
        <time>2022-12-03T19:40:17Z</time>
      </trkpt>
      <trkpt lat="40.413390" lon="-6.105950">
        <ele>425</ele>
        <time>2022-12-03T19:40:20Z</time>
      </trkpt>
      <trkpt lat="40.413320" lon="-6.106230">
        <ele>425</ele>
        <time>2022-12-03T19:40:23Z</time>
      </trkpt>
      <trkpt lat="40.413220" lon="-6.106490">
        <ele>427</ele>
        <time>2022-12-03T19:40:27Z</time>
      </trkpt>
      <trkpt lat="40.412950" lon="-6.107000">
        <ele>431</ele>
        <time>2022-12-03T19:40:36Z</time>
      </trkpt>
      <trkpt lat="40.412800" lon="-6.107360">
        <ele>433</ele>
        <time>2022-12-03T19:40:41Z</time>
      </trkpt>
      <trkpt lat="40.412710" lon="-6.107670">
        <ele>433</ele>
        <time>2022-12-03T19:40:46Z</time>
      </trkpt>
      <trkpt lat="40.412650" lon="-6.107960">
        <ele>433</ele>
        <time>2022-12-03T19:40:50Z</time>
      </trkpt>
      <trkpt lat="40.412610" lon="-6.108290">
        <ele>432</ele>
        <time>2022-12-03T19:40:55Z</time>
      </trkpt>
      <trkpt lat="40.412610" lon="-6.108730">
        <ele>430</ele>
        <time>2022-12-03T19:41:00Z</time>
      </trkpt>
      <trkpt lat="40.412620" lon="-6.108940">
        <ele>429</ele>
        <time>2022-12-03T19:41:03Z</time>
      </trkpt>
      <trkpt lat="40.412670" lon="-6.109230">
        <ele>428</ele>
        <time>2022-12-03T19:41:07Z</time>
      </trkpt>
      <trkpt lat="40.412850" lon="-6.109900">
        <ele>429</ele>
        <time>2022-12-03T19:41:17Z</time>
      </trkpt>
      <trkpt lat="40.413180" lon="-6.110470">
        <ele>427</ele>
        <time>2022-12-03T19:41:27Z</time>
      </trkpt>
      <trkpt lat="40.413940" lon="-6.111500">
        <ele>424</ele>
        <time>2022-12-03T19:41:46Z</time>
      </trkpt>
      <trkpt lat="40.414100" lon="-6.111770">
        <ele>423</ele>
        <time>2022-12-03T19:41:51Z</time>
      </trkpt>
      <trkpt lat="40.414170" lon="-6.112040">
        <ele>423</ele>
        <time>2022-12-03T19:41:55Z</time>
      </trkpt>
      <trkpt lat="40.414220" lon="-6.112320">
        <ele>424</ele>
        <time>2022-12-03T19:41:59Z</time>
      </trkpt>
      <trkpt lat="40.414220" lon="-6.112560">
        <ele>424</ele>
        <time>2022-12-03T19:42:02Z</time>
      </trkpt>
      <trkpt lat="40.414180" lon="-6.112820">
        <ele>423</ele>
        <time>2022-12-03T19:42:05Z</time>
      </trkpt>
      <trkpt lat="40.414000" lon="-6.113590">
        <ele>425</ele>
        <time>2022-12-03T19:42:16Z</time>
      </trkpt>
      <trkpt lat="40.413920" lon="-6.114030">
        <ele>425</ele>
        <time>2022-12-03T19:42:22Z</time>
      </trkpt>
      <trkpt lat="40.413880" lon="-6.114480">
        <ele>425</ele>
        <time>2022-12-03T19:42:29Z</time>
      </trkpt>
      <trkpt lat="40.413870" lon="-6.115990">
        <ele>420</ele>
        <time>2022-12-03T19:42:49Z</time>
      </trkpt>
      <trkpt lat="40.413910" lon="-6.116400">
        <ele>418</ele>
        <time>2022-12-03T19:42:55Z</time>
      </trkpt>
      <trkpt lat="40.414020" lon="-6.116910">
        <ele>419</ele>
        <time>2022-12-03T19:43:02Z</time>
      </trkpt>
      <trkpt lat="40.414150" lon="-6.117310">
        <ele>422</ele>
        <time>2022-12-03T19:43:08Z</time>
      </trkpt>
      <trkpt lat="40.414620" lon="-6.118640">
        <ele>422</ele>
        <time>2022-12-03T19:43:28Z</time>
      </trkpt>
      <trkpt lat="40.414800" lon="-6.119550">
        <ele>422</ele>
        <time>2022-12-03T19:43:40Z</time>
      </trkpt>
      <trkpt lat="40.414880" lon="-6.120740">
        <ele>426</ele>
        <time>2022-12-03T19:43:56Z</time>
      </trkpt>
      <trkpt lat="40.417600" lon="-6.120600">
        <ele>437</ele>
        <time>2022-12-03T19:44:45Z</time>
      </trkpt>
      <trkpt lat="40.417750" lon="-6.120620">
        <ele>436</ele>
        <time>2022-12-03T19:44:48Z</time>
      </trkpt>
      <trkpt lat="40.417890" lon="-6.120710">
        <ele>435</ele>
        <time>2022-12-03T19:44:50Z</time>
      </trkpt>
      <trkpt lat="40.417970" lon="-6.120830">
        <ele>435</ele>
        <time>2022-12-03T19:44:52Z</time>
      </trkpt>
      <trkpt lat="40.418000" lon="-6.120960">
        <ele>435</ele>
        <time>2022-12-03T19:44:54Z</time>
      </trkpt>
      <trkpt lat="40.417970" lon="-6.121110">
        <ele>436</ele>
        <time>2022-12-03T19:44:56Z</time>
      </trkpt>
      <trkpt lat="40.417700" lon="-6.121720">
        <ele>446</ele>
        <time>2022-12-03T19:45:06Z</time>
      </trkpt>
      <trkpt lat="40.417660" lon="-6.121910">
        <ele>449</ele>
        <time>2022-12-03T19:45:09Z</time>
      </trkpt>
      <trkpt lat="40.417650" lon="-6.122110">
        <ele>451</ele>
        <time>2022-12-03T19:45:11Z</time>
      </trkpt>
      <trkpt lat="40.417690" lon="-6.122300">
        <ele>452</ele>
        <time>2022-12-03T19:45:14Z</time>
      </trkpt>
      <trkpt lat="40.417880" lon="-6.122840">
        <ele>454</ele>
        <time>2022-12-03T19:45:22Z</time>
      </trkpt>
      <trkpt lat="40.418160" lon="-6.123230">
        <ele>454</ele>
        <time>2022-12-03T19:45:29Z</time>
      </trkpt>
      <trkpt lat="40.418370" lon="-6.123480">
        <ele>453</ele>
        <time>2022-12-03T19:45:34Z</time>
      </trkpt>
      <trkpt lat="40.419340" lon="-6.124350">
        <ele>451</ele>
        <time>2022-12-03T19:45:55Z</time>
      </trkpt>
      <trkpt lat="40.419440" lon="-6.124490">
        <ele>449</ele>
        <time>2022-12-03T19:45:58Z</time>
      </trkpt>
      <trkpt lat="40.419490" lon="-6.124640">
        <ele>449</ele>
        <time>2022-12-03T19:46:00Z</time>
      </trkpt>
      <trkpt lat="40.419490" lon="-6.124840">
        <ele>451</ele>
        <time>2022-12-03T19:46:03Z</time>
      </trkpt>
      <trkpt lat="40.419440" lon="-6.125030">
        <ele>454</ele>
        <time>2022-12-03T19:46:06Z</time>
      </trkpt>
      <trkpt lat="40.419070" lon="-6.125910">
        <ele>460</ele>
        <time>2022-12-03T19:46:19Z</time>
      </trkpt>
      <trkpt lat="40.419020" lon="-6.126150">
        <ele>460</ele>
        <time>2022-12-03T19:46:23Z</time>
      </trkpt>
      <trkpt lat="40.419030" lon="-6.126500">
        <ele>458</ele>
        <time>2022-12-03T19:46:27Z</time>
      </trkpt>
      <trkpt lat="40.419180" lon="-6.127510">
        <ele>460</ele>
        <time>2022-12-03T19:46:41Z</time>
      </trkpt>
      <trkpt lat="40.420070" lon="-6.130170">
        <ele>459</ele>
        <time>2022-12-03T19:47:21Z</time>
      </trkpt>
      <trkpt lat="40.420240" lon="-6.130870">
        <ele>460</ele>
        <time>2022-12-03T19:47:31Z</time>
      </trkpt>
      <trkpt lat="40.420440" lon="-6.132400">
        <ele>461</ele>
        <time>2022-12-03T19:47:52Z</time>
      </trkpt>
      <trkpt lat="40.420440" lon="-6.133010">
        <ele>462</ele>
        <time>2022-12-03T19:48:00Z</time>
      </trkpt>
      <trkpt lat="40.420400" lon="-6.133460">
        <ele>464</ele>
        <time>2022-12-03T19:48:06Z</time>
      </trkpt>
      <trkpt lat="40.420340" lon="-6.133990">
        <ele>462</ele>
        <time>2022-12-03T19:48:13Z</time>
      </trkpt>
      <trkpt lat="40.420040" lon="-6.135170">
        <ele>466</ele>
        <time>2022-12-03T19:48:30Z</time>
      </trkpt>
      <trkpt lat="40.420030" lon="-6.135460">
        <ele>465</ele>
        <time>2022-12-03T19:48:34Z</time>
      </trkpt>
      <trkpt lat="40.420040" lon="-6.135780">
        <ele>464</ele>
        <time>2022-12-03T19:48:38Z</time>
      </trkpt>
      <trkpt lat="40.420140" lon="-6.136280">
        <ele>464</ele>
        <time>2022-12-03T19:48:45Z</time>
      </trkpt>
      <trkpt lat="40.420280" lon="-6.136840">
        <ele>464</ele>
        <time>2022-12-03T19:48:53Z</time>
      </trkpt>
      <trkpt lat="40.420350" lon="-6.137480">
        <ele>468</ele>
        <time>2022-12-03T19:49:02Z</time>
      </trkpt>
      <trkpt lat="40.420450" lon="-6.137910">
        <ele>469</ele>
        <time>2022-12-03T19:49:08Z</time>
      </trkpt>
      <trkpt lat="40.420510" lon="-6.138110">
        <ele>468</ele>
        <time>2022-12-03T19:49:11Z</time>
      </trkpt>
      <trkpt lat="40.420900" lon="-6.138980">
        <ele>463</ele>
        <time>2022-12-03T19:49:25Z</time>
      </trkpt>
      <trkpt lat="40.421580" lon="-6.139790">
        <ele>453</ele>
        <time>2022-12-03T19:49:41Z</time>
      </trkpt>
      <trkpt lat="40.422300" lon="-6.140560">
        <ele>453</ele>
        <time>2022-12-03T19:49:58Z</time>
      </trkpt>
      <trkpt lat="40.422430" lon="-6.140770">
        <ele>450</ele>
        <time>2022-12-03T19:50:01Z</time>
      </trkpt>
      <trkpt lat="40.422870" lon="-6.141680">
        <ele>456</ele>
        <time>2022-12-03T19:50:16Z</time>
      </trkpt>
      <trkpt lat="40.423270" lon="-6.142940">
        <ele>454</ele>
        <time>2022-12-03T19:50:34Z</time>
      </trkpt>
      <trkpt lat="40.423450" lon="-6.144060">
        <ele>459</ele>
        <time>2022-12-03T19:50:50Z</time>
      </trkpt>
      <trkpt lat="40.423470" lon="-6.144110">
        <ele>459</ele>
        <time>2022-12-03T19:50:51Z</time>
      </trkpt>
      <trkpt lat="40.423780" lon="-6.144490">
        <ele>457</ele>
        <time>2022-12-03T19:50:58Z</time>
      </trkpt>
      <trkpt lat="40.423880" lon="-6.144760">
        <ele>456</ele>
        <time>2022-12-03T19:51:02Z</time>
      </trkpt>
      <trkpt lat="40.424020" lon="-6.145320">
        <ele>453</ele>
        <time>2022-12-03T19:51:10Z</time>
      </trkpt>
      <trkpt lat="40.424090" lon="-6.145440">
        <ele>451</ele>
        <time>2022-12-03T19:51:12Z</time>
      </trkpt>
      <trkpt lat="40.424170" lon="-6.145530">
        <ele>449</ele>
        <time>2022-12-03T19:51:14Z</time>
      </trkpt>
      <trkpt lat="40.424310" lon="-6.145590">
        <ele>451</ele>
        <time>2022-12-03T19:51:17Z</time>
      </trkpt>
      <trkpt lat="40.425390" lon="-6.145760">
        <ele>464</ele>
        <time>2022-12-03T19:51:36Z</time>
      </trkpt>
      <trkpt lat="40.425620" lon="-6.145850">
        <ele>466</ele>
        <time>2022-12-03T19:51:40Z</time>
      </trkpt>
      <trkpt lat="40.425740" lon="-6.145920">
        <ele>467</ele>
        <time>2022-12-03T19:51:43Z</time>
      </trkpt>
      <trkpt lat="40.425780" lon="-6.145970">
        <ele>467</ele>
        <time>2022-12-03T19:51:44Z</time>
      </trkpt>
      <trkpt lat="40.426310" lon="-6.147200">
        <ele>467</ele>
        <time>2022-12-03T19:52:03Z</time>
      </trkpt>
      <trkpt lat="40.426810" lon="-6.148550">
        <ele>453</ele>
        <time>2022-12-03T19:52:23Z</time>
      </trkpt>
      <trkpt lat="40.426930" lon="-6.148920">
        <ele>457</ele>
        <time>2022-12-03T19:52:29Z</time>
      </trkpt>
      <trkpt lat="40.426980" lon="-6.149130">
        <ele>458</ele>
        <time>2022-12-03T19:52:32Z</time>
      </trkpt>
      <trkpt lat="40.426970" lon="-6.151220">
        <ele>468</ele>
        <time>2022-12-03T19:53:00Z</time>
      </trkpt>
      <trkpt lat="40.426990" lon="-6.151390">
        <ele>469</ele>
        <time>2022-12-03T19:53:02Z</time>
      </trkpt>
      <trkpt lat="40.427060" lon="-6.151600">
        <ele>470</ele>
        <time>2022-12-03T19:53:05Z</time>
      </trkpt>
      <trkpt lat="40.427840" lon="-6.152690">
        <ele>481</ele>
        <time>2022-12-03T19:53:26Z</time>
      </trkpt>
      <trkpt lat="40.427950" lon="-6.152870">
        <ele>484</ele>
        <time>2022-12-03T19:53:29Z</time>
      </trkpt>
      <trkpt lat="40.428100" lon="-6.153200">
        <ele>484</ele>
        <time>2022-12-03T19:53:34Z</time>
      </trkpt>
      <trkpt lat="40.428190" lon="-6.153480">
        <ele>484</ele>
        <time>2022-12-03T19:53:38Z</time>
      </trkpt>
      <trkpt lat="40.428230" lon="-6.153690">
        <ele>485</ele>
        <time>2022-12-03T19:53:41Z</time>
      </trkpt>
      <trkpt lat="40.428290" lon="-6.154160">
        <ele>484</ele>
        <time>2022-12-03T19:53:47Z</time>
      </trkpt>
      <trkpt lat="40.428220" lon="-6.154640">
        <ele>484</ele>
        <time>2022-12-03T19:53:54Z</time>
      </trkpt>
      <trkpt lat="40.428220" lon="-6.155150">
        <ele>486</ele>
        <time>2022-12-03T19:54:01Z</time>
      </trkpt>
      <trkpt lat="40.428090" lon="-6.155540">
        <ele>485</ele>
        <time>2022-12-03T19:54:07Z</time>
      </trkpt>
      <trkpt lat="40.427980" lon="-6.155990">
        <ele>481</ele>
        <time>2022-12-03T19:54:13Z</time>
      </trkpt>
      <trkpt lat="40.427980" lon="-6.156160">
        <ele>479</ele>
        <time>2022-12-03T19:54:15Z</time>
      </trkpt>
      <trkpt lat="40.428010" lon="-6.156310">
        <ele>478</ele>
        <time>2022-12-03T19:54:18Z</time>
      </trkpt>
      <trkpt lat="40.428070" lon="-6.156420">
        <ele>477</ele>
        <time>2022-12-03T19:54:19Z</time>
      </trkpt>
      <trkpt lat="40.428150" lon="-6.156470">
        <ele>478</ele>
        <time>2022-12-03T19:54:21Z</time>
      </trkpt>
      <trkpt lat="40.428290" lon="-6.156470">
        <ele>480</ele>
        <time>2022-12-03T19:54:23Z</time>
      </trkpt>
      <trkpt lat="40.428650" lon="-6.156380">
        <ele>488</ele>
        <time>2022-12-03T19:54:30Z</time>
      </trkpt>
      <trkpt lat="40.428780" lon="-6.156390">
        <ele>490</ele>
        <time>2022-12-03T19:54:32Z</time>
      </trkpt>
      <trkpt lat="40.428910" lon="-6.156430">
        <ele>491</ele>
        <time>2022-12-03T19:54:35Z</time>
      </trkpt>
      <trkpt lat="40.429180" lon="-6.156590">
        <ele>489</ele>
        <time>2022-12-03T19:54:40Z</time>
      </trkpt>
      <trkpt lat="40.429540" lon="-6.156900">
        <ele>491</ele>
        <time>2022-12-03T19:54:48Z</time>
      </trkpt>
      <trkpt lat="40.429970" lon="-6.157390">
        <ele>488</ele>
        <time>2022-12-03T19:54:58Z</time>
      </trkpt>
      <trkpt lat="40.430280" lon="-6.157600">
        <ele>488</ele>
        <time>2022-12-03T19:55:04Z</time>
      </trkpt>
      <trkpt lat="40.430670" lon="-6.157820">
        <ele>492</ele>
        <time>2022-12-03T19:55:12Z</time>
      </trkpt>
      <trkpt lat="40.430760" lon="-6.157890">
        <ele>492</ele>
        <time>2022-12-03T19:55:13Z</time>
      </trkpt>
      <trkpt lat="40.430810" lon="-6.158030">
        <ele>491</ele>
        <time>2022-12-03T19:55:15Z</time>
      </trkpt>
      <trkpt lat="40.430870" lon="-6.158310">
        <ele>487</ele>
        <time>2022-12-03T19:55:19Z</time>
      </trkpt>
      <trkpt lat="40.430970" lon="-6.158570">
        <ele>485</ele>
        <time>2022-12-03T19:55:23Z</time>
      </trkpt>
      <trkpt lat="40.431070" lon="-6.158740">
        <ele>484</ele>
        <time>2022-12-03T19:55:26Z</time>
      </trkpt>
      <trkpt lat="40.431230" lon="-6.158920">
        <ele>484</ele>
        <time>2022-12-03T19:55:30Z</time>
      </trkpt>
      <trkpt lat="40.431510" lon="-6.159140">
        <ele>485</ele>
        <time>2022-12-03T19:55:36Z</time>
      </trkpt>
      <trkpt lat="40.431680" lon="-6.159220">
        <ele>486</ele>
        <time>2022-12-03T19:55:39Z</time>
      </trkpt>
      <trkpt lat="40.432010" lon="-6.159250">
        <ele>493</ele>
        <time>2022-12-03T19:55:45Z</time>
      </trkpt>
      <trkpt lat="40.432070" lon="-6.159340">
        <ele>493</ele>
        <time>2022-12-03T19:55:47Z</time>
      </trkpt>
      <trkpt lat="40.432080" lon="-6.159650">
        <ele>490</ele>
        <time>2022-12-03T19:55:51Z</time>
      </trkpt>
      <trkpt lat="40.432450" lon="-6.160440">
        <ele>488</ele>
        <time>2022-12-03T19:56:03Z</time>
      </trkpt>
      <trkpt lat="40.432700" lon="-6.160910">
        <ele>486</ele>
        <time>2022-12-03T19:56:11Z</time>
      </trkpt>
      <trkpt lat="40.433090" lon="-6.161510">
        <ele>483</ele>
        <time>2022-12-03T19:56:22Z</time>
      </trkpt>
      <trkpt lat="40.433340" lon="-6.161660">
        <ele>481</ele>
        <time>2022-12-03T19:56:27Z</time>
      </trkpt>
      <trkpt lat="40.433750" lon="-6.161670">
        <ele>484</ele>
        <time>2022-12-03T19:56:34Z</time>
      </trkpt>
      <trkpt lat="40.433980" lon="-6.161770">
        <ele>485</ele>
        <time>2022-12-03T19:56:38Z</time>
      </trkpt>
      <trkpt lat="40.434320" lon="-6.161750">
        <ele>490</ele>
        <time>2022-12-03T19:56:44Z</time>
      </trkpt>
      <trkpt lat="40.434860" lon="-6.161940">
        <ele>498</ele>
        <time>2022-12-03T19:56:54Z</time>
      </trkpt>
      <trkpt lat="40.435190" lon="-6.162170">
        <ele>498</ele>
        <time>2022-12-03T19:57:01Z</time>
      </trkpt>
      <trkpt lat="40.435640" lon="-6.162360">
        <ele>503</ele>
        <time>2022-12-03T19:57:09Z</time>
      </trkpt>
      <trkpt lat="40.436120" lon="-6.162510">
        <ele>509</ele>
        <time>2022-12-03T19:57:18Z</time>
      </trkpt>
      <trkpt lat="40.436160" lon="-6.162570">
        <ele>510</ele>
        <time>2022-12-03T19:57:19Z</time>
      </trkpt>
      <trkpt lat="40.436180" lon="-6.162640">
        <ele>511</ele>
        <time>2022-12-03T19:57:20Z</time>
      </trkpt>
      <trkpt lat="40.436150" lon="-6.162730">
        <ele>511</ele>
        <time>2022-12-03T19:57:22Z</time>
      </trkpt>
      <trkpt lat="40.435970" lon="-6.162950">
        <ele>505</ele>
        <time>2022-12-03T19:57:26Z</time>
      </trkpt>
      <trkpt lat="40.435890" lon="-6.163120">
        <ele>502</ele>
        <time>2022-12-03T19:57:29Z</time>
      </trkpt>
      <trkpt lat="40.435820" lon="-6.163290">
        <ele>499</ele>
        <time>2022-12-03T19:57:31Z</time>
      </trkpt>
      <trkpt lat="40.435740" lon="-6.163570">
        <ele>497</ele>
        <time>2022-12-03T19:57:35Z</time>
      </trkpt>
      <trkpt lat="40.435690" lon="-6.163850">
        <ele>496</ele>
        <time>2022-12-03T19:57:39Z</time>
      </trkpt>
      <trkpt lat="40.435690" lon="-6.164140">
        <ele>496</ele>
        <time>2022-12-03T19:57:43Z</time>
      </trkpt>
      <trkpt lat="40.435710" lon="-6.164430">
        <ele>494</ele>
        <time>2022-12-03T19:57:47Z</time>
      </trkpt>
      <trkpt lat="40.435790" lon="-6.164620">
        <ele>493</ele>
        <time>2022-12-03T19:57:50Z</time>
      </trkpt>
      <trkpt lat="40.435980" lon="-6.164990">
        <ele>495</ele>
        <time>2022-12-03T19:57:56Z</time>
      </trkpt>
      <trkpt lat="40.436710" lon="-6.165990">
        <ele>497</ele>
        <time>2022-12-03T19:58:15Z</time>
      </trkpt>
      <trkpt lat="40.437060" lon="-6.166510">
        <ele>494</ele>
        <time>2022-12-03T19:58:24Z</time>
      </trkpt>
      <trkpt lat="40.437600" lon="-6.167410">
        <ele>493</ele>
        <time>2022-12-03T19:58:40Z</time>
      </trkpt>
      <trkpt lat="40.438040" lon="-6.168580">
        <ele>503</ele>
        <time>2022-12-03T19:58:57Z</time>
      </trkpt>
      <trkpt lat="40.438310" lon="-6.169080">
        <ele>499</ele>
        <time>2022-12-03T19:59:06Z</time>
      </trkpt>
      <trkpt lat="40.438420" lon="-6.169200">
        <ele>499</ele>
        <time>2022-12-03T19:59:08Z</time>
      </trkpt>
      <trkpt lat="40.439380" lon="-6.169860">
        <ele>508</ele>
        <time>2022-12-03T19:59:27Z</time>
      </trkpt>
      <trkpt lat="40.439520" lon="-6.169970">
        <ele>509</ele>
        <time>2022-12-03T19:59:30Z</time>
      </trkpt>
      <trkpt lat="40.439700" lon="-6.170070">
        <ele>512</ele>
        <time>2022-12-03T19:59:34Z</time>
      </trkpt>
      <trkpt lat="40.440190" lon="-6.170220">
        <ele>524</ele>
        <time>2022-12-03T19:59:43Z</time>
      </trkpt>
      <trkpt lat="40.440240" lon="-6.170270">
        <ele>525</ele>
        <time>2022-12-03T19:59:44Z</time>
      </trkpt>
      <trkpt lat="40.440300" lon="-6.170420">
        <ele>524</ele>
        <time>2022-12-03T19:59:46Z</time>
      </trkpt>
      <trkpt lat="40.440360" lon="-6.170800">
        <ele>519</ele>
        <time>2022-12-03T19:59:51Z</time>
      </trkpt>
      <trkpt lat="40.440480" lon="-6.171020">
        <ele>521</ele>
        <time>2022-12-03T19:59:55Z</time>
      </trkpt>
      <trkpt lat="40.440570" lon="-6.171880">
        <ele>517</ele>
        <time>2022-12-03T20:00:07Z</time>
      </trkpt>
      <trkpt lat="40.440620" lon="-6.172120">
        <ele>515</ele>
        <time>2022-12-03T20:00:10Z</time>
      </trkpt>
      <trkpt lat="40.440880" lon="-6.172480">
        <ele>517</ele>
        <time>2022-12-03T20:00:17Z</time>
      </trkpt>
      <trkpt lat="40.441230" lon="-6.172840">
        <ele>521</ele>
        <time>2022-12-03T20:00:25Z</time>
      </trkpt>
      <trkpt lat="40.441420" lon="-6.172980">
        <ele>523</ele>
        <time>2022-12-03T20:00:29Z</time>
      </trkpt>
      <trkpt lat="40.441630" lon="-6.173020">
        <ele>527</ele>
        <time>2022-12-03T20:00:33Z</time>
      </trkpt>
      <trkpt lat="40.442120" lon="-6.172810">
        <ele>538</ele>
        <time>2022-12-03T20:00:42Z</time>
      </trkpt>
      <trkpt lat="40.442230" lon="-6.172830">
        <ele>539</ele>
        <time>2022-12-03T20:00:44Z</time>
      </trkpt>
      <trkpt lat="40.442290" lon="-6.172890">
        <ele>540</ele>
        <time>2022-12-03T20:00:45Z</time>
      </trkpt>
      <trkpt lat="40.442310" lon="-6.172980">
        <ele>541</ele>
        <time>2022-12-03T20:00:46Z</time>
      </trkpt>
      <trkpt lat="40.442270" lon="-6.173100">
        <ele>540</ele>
        <time>2022-12-03T20:00:48Z</time>
      </trkpt>
      <trkpt lat="40.441720" lon="-6.173770">
        <ele>528</ele>
        <time>2022-12-03T20:01:01Z</time>
      </trkpt>
      <trkpt lat="40.441680" lon="-6.173940">
        <ele>528</ele>
        <time>2022-12-03T20:01:04Z</time>
      </trkpt>
      <trkpt lat="40.441720" lon="-6.174090">
        <ele>530</ele>
        <time>2022-12-03T20:01:06Z</time>
      </trkpt>
      <trkpt lat="40.441900" lon="-6.174520">
        <ele>537</ele>
        <time>2022-12-03T20:01:13Z</time>
      </trkpt>
      <trkpt lat="40.441930" lon="-6.174620">
        <ele>538</ele>
        <time>2022-12-03T20:01:14Z</time>
      </trkpt>
      <trkpt lat="40.441880" lon="-6.175060">
        <ele>536</ele>
        <time>2022-12-03T20:01:20Z</time>
      </trkpt>
      <trkpt lat="40.441880" lon="-6.175240">
        <ele>535</ele>
        <time>2022-12-03T20:01:23Z</time>
      </trkpt>
      <trkpt lat="40.441920" lon="-6.175380">
        <ele>535</ele>
        <time>2022-12-03T20:01:25Z</time>
      </trkpt>
      <trkpt lat="40.442020" lon="-6.175590">
        <ele>538</ele>
        <time>2022-12-03T20:01:28Z</time>
      </trkpt>
      <trkpt lat="40.442040" lon="-6.175670">
        <ele>538</ele>
        <time>2022-12-03T20:01:29Z</time>
      </trkpt>
      <trkpt lat="40.442040" lon="-6.175830">
        <ele>537</ele>
        <time>2022-12-03T20:01:31Z</time>
      </trkpt>
      <trkpt lat="40.442000" lon="-6.176150">
        <ele>533</ele>
        <time>2022-12-03T20:01:36Z</time>
      </trkpt>
      <trkpt lat="40.442020" lon="-6.176290">
        <ele>532</ele>
        <time>2022-12-03T20:01:38Z</time>
      </trkpt>
      <trkpt lat="40.442070" lon="-6.176410">
        <ele>532</ele>
        <time>2022-12-03T20:01:39Z</time>
      </trkpt>
      <trkpt lat="40.442120" lon="-6.176490">
        <ele>532</ele>
        <time>2022-12-03T20:01:41Z</time>
      </trkpt>
      <trkpt lat="40.442250" lon="-6.176560">
        <ele>534</ele>
        <time>2022-12-03T20:01:43Z</time>
      </trkpt>
      <trkpt lat="40.442340" lon="-6.176580">
        <ele>536</ele>
        <time>2022-12-03T20:01:45Z</time>
      </trkpt>
      <trkpt lat="40.442470" lon="-6.176470">
        <ele>540</ele>
        <time>2022-12-03T20:01:48Z</time>
      </trkpt>
      <trkpt lat="40.442750" lon="-6.176150">
        <ele>549</ele>
        <time>2022-12-03T20:01:54Z</time>
      </trkpt>
      <trkpt lat="40.443210" lon="-6.175910">
        <ele>555</ele>
        <time>2022-12-03T20:02:03Z</time>
      </trkpt>
      <trkpt lat="40.443380" lon="-6.175770">
        <ele>558</ele>
        <time>2022-12-03T20:02:07Z</time>
      </trkpt>
      <trkpt lat="40.443460" lon="-6.175790">
        <ele>560</ele>
        <time>2022-12-03T20:02:08Z</time>
      </trkpt>
      <trkpt lat="40.443520" lon="-6.175870">
        <ele>561</ele>
        <time>2022-12-03T20:02:10Z</time>
      </trkpt>
      <trkpt lat="40.443550" lon="-6.175970">
        <ele>562</ele>
        <time>2022-12-03T20:02:11Z</time>
      </trkpt>
      <trkpt lat="40.443520" lon="-6.176100">
        <ele>561</ele>
        <time>2022-12-03T20:02:13Z</time>
      </trkpt>
      <trkpt lat="40.443370" lon="-6.176510">
        <ele>556</ele>
        <time>2022-12-03T20:02:19Z</time>
      </trkpt>
      <trkpt lat="40.443280" lon="-6.176790">
        <ele>553</ele>
        <time>2022-12-03T20:02:23Z</time>
      </trkpt>
      <trkpt lat="40.443280" lon="-6.177290">
        <ele>551</ele>
        <time>2022-12-03T20:02:30Z</time>
      </trkpt>
      <trkpt lat="40.443310" lon="-6.177470">
        <ele>552</ele>
        <time>2022-12-03T20:02:32Z</time>
      </trkpt>
      <trkpt lat="40.443400" lon="-6.177670">
        <ele>551</ele>
        <time>2022-12-03T20:02:36Z</time>
      </trkpt>
      <trkpt lat="40.443530" lon="-6.177850">
        <ele>551</ele>
        <time>2022-12-03T20:02:39Z</time>
      </trkpt>
      <trkpt lat="40.444030" lon="-6.178410">
        <ele>554</ele>
        <time>2022-12-03T20:02:51Z</time>
      </trkpt>
      <trkpt lat="40.444310" lon="-6.178570">
        <ele>560</ele>
        <time>2022-12-03T20:02:56Z</time>
      </trkpt>
      <trkpt lat="40.444350" lon="-6.178620">
        <ele>561</ele>
        <time>2022-12-03T20:02:57Z</time>
      </trkpt>
      <trkpt lat="40.444400" lon="-6.178720">
        <ele>560</ele>
        <time>2022-12-03T20:02:59Z</time>
      </trkpt>
      <trkpt lat="40.444430" lon="-6.178920">
        <ele>557</ele>
        <time>2022-12-03T20:03:01Z</time>
      </trkpt>
      <trkpt lat="40.444520" lon="-6.179150">
        <ele>555</ele>
        <time>2022-12-03T20:03:05Z</time>
      </trkpt>
      <trkpt lat="40.444620" lon="-6.179360">
        <ele>555</ele>
        <time>2022-12-03T20:03:08Z</time>
      </trkpt>
      <trkpt lat="40.444720" lon="-6.179490">
        <ele>556</ele>
        <time>2022-12-03T20:03:11Z</time>
      </trkpt>
      <trkpt lat="40.444840" lon="-6.179580">
        <ele>559</ele>
        <time>2022-12-03T20:03:13Z</time>
      </trkpt>
      <trkpt lat="40.444980" lon="-6.179660">
        <ele>562</ele>
        <time>2022-12-03T20:03:16Z</time>
      </trkpt>
      <trkpt lat="40.445370" lon="-6.179810">
        <ele>570</ele>
        <time>2022-12-03T20:03:23Z</time>
      </trkpt>
      <trkpt lat="40.445410" lon="-6.179860">
        <ele>571</ele>
        <time>2022-12-03T20:03:24Z</time>
      </trkpt>
      <trkpt lat="40.445440" lon="-6.179930">
        <ele>571</ele>
        <time>2022-12-03T20:03:25Z</time>
      </trkpt>
      <trkpt lat="40.445460" lon="-6.180040">
        <ele>570</ele>
        <time>2022-12-03T20:03:27Z</time>
      </trkpt>
      <trkpt lat="40.445360" lon="-6.180420">
        <ele>561</ele>
        <time>2022-12-03T20:03:32Z</time>
      </trkpt>
      <trkpt lat="40.445370" lon="-6.180520">
        <ele>559</ele>
        <time>2022-12-03T20:03:34Z</time>
      </trkpt>
      <trkpt lat="40.445410" lon="-6.180610">
        <ele>559</ele>
        <time>2022-12-03T20:03:35Z</time>
      </trkpt>
      <trkpt lat="40.445710" lon="-6.180850">
        <ele>565</ele>
        <time>2022-12-03T20:03:41Z</time>
      </trkpt>
      <trkpt lat="40.445990" lon="-6.181120">
        <ele>570</ele>
        <time>2022-12-03T20:03:47Z</time>
      </trkpt>
      <trkpt lat="40.446130" lon="-6.181210">
        <ele>573</ele>
        <time>2022-12-03T20:03:50Z</time>
      </trkpt>
      <trkpt lat="40.446250" lon="-6.181250">
        <ele>576</ele>
        <time>2022-12-03T20:03:52Z</time>
      </trkpt>
      <trkpt lat="40.446520" lon="-6.181320">
        <ele>583</ele>
        <time>2022-12-03T20:03:57Z</time>
      </trkpt>
      <trkpt lat="40.446580" lon="-6.181370">
        <ele>584</ele>
        <time>2022-12-03T20:03:59Z</time>
      </trkpt>
      <trkpt lat="40.446600" lon="-6.181440">
        <ele>583</ele>
        <time>2022-12-03T20:04:00Z</time>
      </trkpt>
      <trkpt lat="40.446580" lon="-6.181520">
        <ele>582</ele>
        <time>2022-12-03T20:04:01Z</time>
      </trkpt>
      <trkpt lat="40.446530" lon="-6.181600">
        <ele>579</ele>
        <time>2022-12-03T20:04:02Z</time>
      </trkpt>
      <trkpt lat="40.445960" lon="-6.182110">
        <ele>569</ele>
        <time>2022-12-03T20:04:14Z</time>
      </trkpt>
      <trkpt lat="40.445850" lon="-6.182270">
        <ele>568</ele>
        <time>2022-12-03T20:04:17Z</time>
      </trkpt>
      <trkpt lat="40.445790" lon="-6.182440">
        <ele>568</ele>
        <time>2022-12-03T20:04:20Z</time>
      </trkpt>
      <trkpt lat="40.445790" lon="-6.182620">
        <ele>568</ele>
        <time>2022-12-03T20:04:22Z</time>
      </trkpt>
      <trkpt lat="40.445860" lon="-6.182870">
        <ele>569</ele>
        <time>2022-12-03T20:04:26Z</time>
      </trkpt>
      <trkpt lat="40.446010" lon="-6.183160">
        <ele>573</ele>
        <time>2022-12-03T20:04:31Z</time>
      </trkpt>
      <trkpt lat="40.446210" lon="-6.183370">
        <ele>578</ele>
        <time>2022-12-03T20:04:35Z</time>
      </trkpt>
      <trkpt lat="40.446470" lon="-6.183570">
        <ele>579</ele>
        <time>2022-12-03T20:04:41Z</time>
      </trkpt>
      <trkpt lat="40.446930" lon="-6.183760">
        <ele>589</ele>
        <time>2022-12-03T20:04:49Z</time>
      </trkpt>
      <trkpt lat="40.447040" lon="-6.183840">
        <ele>591</ele>
        <time>2022-12-03T20:04:51Z</time>
      </trkpt>
      <trkpt lat="40.447180" lon="-6.184160">
        <ele>585</ele>
        <time>2022-12-03T20:04:56Z</time>
      </trkpt>
      <trkpt lat="40.447450" lon="-6.184530">
        <ele>585</ele>
        <time>2022-12-03T20:05:03Z</time>
      </trkpt>
      <trkpt lat="40.447660" lon="-6.184820">
        <ele>585</ele>
        <time>2022-12-03T20:05:09Z</time>
      </trkpt>
      <trkpt lat="40.447920" lon="-6.185020">
        <ele>591</ele>
        <time>2022-12-03T20:05:14Z</time>
      </trkpt>
      <trkpt lat="40.447980" lon="-6.185140">
        <ele>591</ele>
        <time>2022-12-03T20:05:16Z</time>
      </trkpt>
      <trkpt lat="40.448060" lon="-6.185450">
        <ele>588</ele>
        <time>2022-12-03T20:05:21Z</time>
      </trkpt>
      <trkpt lat="40.448180" lon="-6.185690">
        <ele>588</ele>
        <time>2022-12-03T20:05:24Z</time>
      </trkpt>
      <trkpt lat="40.448290" lon="-6.185820">
        <ele>589</ele>
        <time>2022-12-03T20:05:27Z</time>
      </trkpt>
      <trkpt lat="40.448420" lon="-6.185880">
        <ele>590</ele>
        <time>2022-12-03T20:05:30Z</time>
      </trkpt>
      <trkpt lat="40.448550" lon="-6.185900">
        <ele>591</ele>
        <time>2022-12-03T20:05:32Z</time>
      </trkpt>
      <trkpt lat="40.449120" lon="-6.185740">
        <ele>601</ele>
        <time>2022-12-03T20:05:42Z</time>
      </trkpt>
      <trkpt lat="40.449210" lon="-6.185760">
        <ele>602</ele>
        <time>2022-12-03T20:05:44Z</time>
      </trkpt>
      <trkpt lat="40.449260" lon="-6.185830">
        <ele>602</ele>
        <time>2022-12-03T20:05:45Z</time>
      </trkpt>
      <trkpt lat="40.449280" lon="-6.185940">
        <ele>601</ele>
        <time>2022-12-03T20:05:47Z</time>
      </trkpt>
      <trkpt lat="40.449250" lon="-6.186130">
        <ele>599</ele>
        <time>2022-12-03T20:05:49Z</time>
      </trkpt>
      <trkpt lat="40.449220" lon="-6.186400">
        <ele>596</ele>
        <time>2022-12-03T20:05:53Z</time>
      </trkpt>
      <trkpt lat="40.449260" lon="-6.186830">
        <ele>595</ele>
        <time>2022-12-03T20:05:59Z</time>
      </trkpt>
      <trkpt lat="40.449330" lon="-6.187100">
        <ele>595</ele>
        <time>2022-12-03T20:06:03Z</time>
      </trkpt>
      <trkpt lat="40.449410" lon="-6.187320">
        <ele>594</ele>
        <time>2022-12-03T20:06:06Z</time>
      </trkpt>
      <trkpt lat="40.449490" lon="-6.187380">
        <ele>595</ele>
        <time>2022-12-03T20:06:08Z</time>
      </trkpt>
      <trkpt lat="40.449710" lon="-6.187380">
        <ele>596</ele>
        <time>2022-12-03T20:06:12Z</time>
      </trkpt>
      <trkpt lat="40.449940" lon="-6.187300">
        <ele>600</ele>
        <time>2022-12-03T20:06:16Z</time>
      </trkpt>
      <trkpt lat="40.450300" lon="-6.187050">
        <ele>602</ele>
        <time>2022-12-03T20:06:23Z</time>
      </trkpt>
      <trkpt lat="40.451100" lon="-6.186720">
        <ele>607</ele>
        <time>2022-12-03T20:06:38Z</time>
      </trkpt>
      <trkpt lat="40.451610" lon="-6.186150">
        <ele>616</ele>
        <time>2022-12-03T20:06:50Z</time>
      </trkpt>
      <trkpt lat="40.451730" lon="-6.186110">
        <ele>618</ele>
        <time>2022-12-03T20:06:52Z</time>
      </trkpt>
      <trkpt lat="40.451820" lon="-6.186130">
        <ele>620</ele>
        <time>2022-12-03T20:06:54Z</time>
      </trkpt>
      <trkpt lat="40.451880" lon="-6.186210">
        <ele>622</ele>
        <time>2022-12-03T20:06:55Z</time>
      </trkpt>
      <trkpt lat="40.451880" lon="-6.186310">
        <ele>623</ele>
        <time>2022-12-03T20:06:57Z</time>
      </trkpt>
      <trkpt lat="40.451780" lon="-6.186690">
        <ele>618</ele>
        <time>2022-12-03T20:07:02Z</time>
      </trkpt>
      <trkpt lat="40.451720" lon="-6.187130">
        <ele>623</ele>
        <time>2022-12-03T20:07:08Z</time>
      </trkpt>
      <trkpt lat="40.451640" lon="-6.187410">
        <ele>623</ele>
        <time>2022-12-03T20:07:12Z</time>
      </trkpt>
      <trkpt lat="40.451310" lon="-6.187940">
        <ele>615</ele>
        <time>2022-12-03T20:07:21Z</time>
      </trkpt>
      <trkpt lat="40.451230" lon="-6.188220">
        <ele>614</ele>
        <time>2022-12-03T20:07:25Z</time>
      </trkpt>
      <trkpt lat="40.451180" lon="-6.188500">
        <ele>612</ele>
        <time>2022-12-03T20:07:29Z</time>
      </trkpt>
      <trkpt lat="40.451150" lon="-6.188910">
        <ele>611</ele>
        <time>2022-12-03T20:07:35Z</time>
      </trkpt>
      <trkpt lat="40.451180" lon="-6.189240">
        <ele>612</ele>
        <time>2022-12-03T20:07:39Z</time>
      </trkpt>
      <trkpt lat="40.451260" lon="-6.189390">
        <ele>615</ele>
        <time>2022-12-03T20:07:42Z</time>
      </trkpt>
      <trkpt lat="40.451590" lon="-6.189530">
        <ele>627</ele>
        <time>2022-12-03T20:07:48Z</time>
      </trkpt>
      <trkpt lat="40.451670" lon="-6.189640">
        <ele>629</ele>
        <time>2022-12-03T20:07:50Z</time>
      </trkpt>
      <trkpt lat="40.451860" lon="-6.190540">
        <ele>631</ele>
        <time>2022-12-03T20:08:03Z</time>
      </trkpt>
      <trkpt lat="40.451840" lon="-6.190760">
        <ele>629</ele>
        <time>2022-12-03T20:08:06Z</time>
      </trkpt>
      <trkpt lat="40.451780" lon="-6.190970">
        <ele>627</ele>
        <time>2022-12-03T20:08:09Z</time>
      </trkpt>
      <trkpt lat="40.451580" lon="-6.191490">
        <ele>621</ele>
        <time>2022-12-03T20:08:17Z</time>
      </trkpt>
      <trkpt lat="40.451590" lon="-6.191640">
        <ele>622</ele>
        <time>2022-12-03T20:08:19Z</time>
      </trkpt>
      <trkpt lat="40.451630" lon="-6.191770">
        <ele>622</ele>
        <time>2022-12-03T20:08:21Z</time>
      </trkpt>
      <trkpt lat="40.451790" lon="-6.192020">
        <ele>624</ele>
        <time>2022-12-03T20:08:25Z</time>
      </trkpt>
      <trkpt lat="40.451950" lon="-6.192180">
        <ele>625</ele>
        <time>2022-12-03T20:08:29Z</time>
      </trkpt>
      <trkpt lat="40.452240" lon="-6.192350">
        <ele>631</ele>
        <time>2022-12-03T20:08:34Z</time>
      </trkpt>
      <trkpt lat="40.452420" lon="-6.192550">
        <ele>631</ele>
        <time>2022-12-03T20:08:38Z</time>
      </trkpt>
      <trkpt lat="40.452950" lon="-6.193270">
        <ele>634</ele>
        <time>2022-12-03T20:08:52Z</time>
      </trkpt>
      <trkpt lat="40.453020" lon="-6.193390">
        <ele>635</ele>
        <time>2022-12-03T20:08:54Z</time>
      </trkpt>
      <trkpt lat="40.453050" lon="-6.193560">
        <ele>633</ele>
        <time>2022-12-03T20:08:56Z</time>
      </trkpt>
      <trkpt lat="40.452990" lon="-6.194230">
        <ele>622</ele>
        <time>2022-12-03T20:09:06Z</time>
      </trkpt>
      <trkpt lat="40.452990" lon="-6.194470">
        <ele>619</ele>
        <time>2022-12-03T20:09:09Z</time>
      </trkpt>
      <trkpt lat="40.453050" lon="-6.194670">
        <ele>620</ele>
        <time>2022-12-03T20:09:12Z</time>
      </trkpt>
      <trkpt lat="40.453280" lon="-6.195080">
        <ele>624</ele>
        <time>2022-12-03T20:09:19Z</time>
      </trkpt>
      <trkpt lat="40.453520" lon="-6.195650">
        <ele>617</ele>
        <time>2022-12-03T20:09:27Z</time>
      </trkpt>
      <trkpt lat="40.453600" lon="-6.195750">
        <ele>615</ele>
        <time>2022-12-03T20:09:29Z</time>
      </trkpt>
      <trkpt lat="40.453710" lon="-6.195810">
        <ele>614</ele>
        <time>2022-12-03T20:09:32Z</time>
      </trkpt>
      <trkpt lat="40.453840" lon="-6.195790">
        <ele>614</ele>
        <time>2022-12-03T20:09:34Z</time>
      </trkpt>
      <trkpt lat="40.453980" lon="-6.195690">
        <ele>617</ele>
        <time>2022-12-03T20:09:37Z</time>
      </trkpt>
      <trkpt lat="40.454130" lon="-6.195500">
        <ele>622</ele>
        <time>2022-12-03T20:09:40Z</time>
      </trkpt>
      <trkpt lat="40.454480" lon="-6.195260">
        <ele>627</ele>
        <time>2022-12-03T20:09:47Z</time>
      </trkpt>
      <trkpt lat="40.454790" lon="-6.194900">
        <ele>632</ele>
        <time>2022-12-03T20:09:55Z</time>
      </trkpt>
      <trkpt lat="40.454940" lon="-6.194770">
        <ele>634</ele>
        <time>2022-12-03T20:09:58Z</time>
      </trkpt>
      <trkpt lat="40.455060" lon="-6.194730">
        <ele>636</ele>
        <time>2022-12-03T20:10:00Z</time>
      </trkpt>
      <trkpt lat="40.455150" lon="-6.194750">
        <ele>638</ele>
        <time>2022-12-03T20:10:02Z</time>
      </trkpt>
      <trkpt lat="40.455190" lon="-6.194840">
        <ele>637</ele>
        <time>2022-12-03T20:10:03Z</time>
      </trkpt>
      <trkpt lat="40.455180" lon="-6.194950">
        <ele>635</ele>
        <time>2022-12-03T20:10:05Z</time>
      </trkpt>
      <trkpt lat="40.455120" lon="-6.195120">
        <ele>631</ele>
        <time>2022-12-03T20:10:07Z</time>
      </trkpt>
      <trkpt lat="40.454900" lon="-6.196080">
        <ele>624</ele>
        <time>2022-12-03T20:10:21Z</time>
      </trkpt>
      <trkpt lat="40.454850" lon="-6.196400">
        <ele>624</ele>
        <time>2022-12-03T20:10:25Z</time>
      </trkpt>
      <trkpt lat="40.454840" lon="-6.196700">
        <ele>624</ele>
        <time>2022-12-03T20:10:29Z</time>
      </trkpt>
      <trkpt lat="40.454860" lon="-6.197010">
        <ele>623</ele>
        <time>2022-12-03T20:10:34Z</time>
      </trkpt>
      <trkpt lat="40.454930" lon="-6.197600">
        <ele>622</ele>
        <time>2022-12-03T20:10:42Z</time>
      </trkpt>
      <trkpt lat="40.454930" lon="-6.198000">
        <ele>616</ele>
        <time>2022-12-03T20:10:47Z</time>
      </trkpt>
      <trkpt lat="40.455010" lon="-6.198240">
        <ele>616</ele>
        <time>2022-12-03T20:10:51Z</time>
      </trkpt>
      <trkpt lat="40.455110" lon="-6.198440">
        <ele>616</ele>
        <time>2022-12-03T20:10:54Z</time>
      </trkpt>
      <trkpt lat="40.455270" lon="-6.198640">
        <ele>617</ele>
        <time>2022-12-03T20:10:58Z</time>
      </trkpt>
      <trkpt lat="40.455470" lon="-6.198800">
        <ele>619</ele>
        <time>2022-12-03T20:11:02Z</time>
      </trkpt>
      <trkpt lat="40.455650" lon="-6.198890">
        <ele>621</ele>
        <time>2022-12-03T20:11:05Z</time>
      </trkpt>
      <trkpt lat="40.456500" lon="-6.199130">
        <ele>631</ele>
        <time>2022-12-03T20:11:21Z</time>
      </trkpt>
      <trkpt lat="40.456660" lon="-6.199200">
        <ele>632</ele>
        <time>2022-12-03T20:11:24Z</time>
      </trkpt>
      <trkpt lat="40.456700" lon="-6.199290">
        <ele>632</ele>
        <time>2022-12-03T20:11:25Z</time>
      </trkpt>
      <trkpt lat="40.456690" lon="-6.199390">
        <ele>630</ele>
        <time>2022-12-03T20:11:27Z</time>
      </trkpt>
      <trkpt lat="40.456630" lon="-6.199550">
        <ele>626</ele>
        <time>2022-12-03T20:11:29Z</time>
      </trkpt>
      <trkpt lat="40.456560" lon="-6.199660">
        <ele>622</ele>
        <time>2022-12-03T20:11:31Z</time>
      </trkpt>
      <trkpt lat="40.456530" lon="-6.199740">
        <ele>620</ele>
        <time>2022-12-03T20:11:32Z</time>
      </trkpt>
      <trkpt lat="40.456570" lon="-6.199850">
        <ele>619</ele>
        <time>2022-12-03T20:11:34Z</time>
      </trkpt>
      <trkpt lat="40.456670" lon="-6.199940">
        <ele>620</ele>
        <time>2022-12-03T20:11:36Z</time>
      </trkpt>
      <trkpt lat="40.457230" lon="-6.200230">
        <ele>631</ele>
        <time>2022-12-03T20:11:47Z</time>
      </trkpt>
      <trkpt lat="40.457470" lon="-6.200410">
        <ele>633</ele>
        <time>2022-12-03T20:11:52Z</time>
      </trkpt>
      <trkpt lat="40.457870" lon="-6.200800">
        <ele>641</ele>
        <time>2022-12-03T20:12:00Z</time>
      </trkpt>
      <trkpt lat="40.457970" lon="-6.200940">
        <ele>642</ele>
        <time>2022-12-03T20:12:03Z</time>
      </trkpt>
      <trkpt lat="40.458140" lon="-6.201480">
        <ele>635</ele>
        <time>2022-12-03T20:12:11Z</time>
      </trkpt>
      <trkpt lat="40.458260" lon="-6.201750">
        <ele>636</ele>
        <time>2022-12-03T20:12:15Z</time>
      </trkpt>
      <trkpt lat="40.458330" lon="-6.202070">
        <ele>636</ele>
        <time>2022-12-03T20:12:20Z</time>
      </trkpt>
      <trkpt lat="40.458390" lon="-6.202690">
        <ele>629</ele>
        <time>2022-12-03T20:12:28Z</time>
      </trkpt>
      <trkpt lat="40.458470" lon="-6.202880">
        <ele>629</ele>
        <time>2022-12-03T20:12:31Z</time>
      </trkpt>
      <trkpt lat="40.458610" lon="-6.203020">
        <ele>631</ele>
        <time>2022-12-03T20:12:34Z</time>
      </trkpt>
      <trkpt lat="40.459730" lon="-6.203550">
        <ele>647</ele>
        <time>2022-12-03T20:12:55Z</time>
      </trkpt>
      <trkpt lat="40.460770" lon="-6.204260">
        <ele>647</ele>
        <time>2022-12-03T20:13:16Z</time>
      </trkpt>
      <trkpt lat="40.460860" lon="-6.204380">
        <ele>648</ele>
        <time>2022-12-03T20:13:19Z</time>
      </trkpt>
      <trkpt lat="40.461070" lon="-6.204980">
        <ele>646</ele>
        <time>2022-12-03T20:13:27Z</time>
      </trkpt>
      <trkpt lat="40.461090" lon="-6.205140">
        <ele>647</ele>
        <time>2022-12-03T20:13:30Z</time>
      </trkpt>
      <trkpt lat="40.461060" lon="-6.205290">
        <ele>647</ele>
        <time>2022-12-03T20:13:32Z</time>
      </trkpt>
      <trkpt lat="40.461040" lon="-6.205580">
        <ele>649</ele>
        <time>2022-12-03T20:13:36Z</time>
      </trkpt>
      <trkpt lat="40.461060" lon="-6.205980">
        <ele>650</ele>
        <time>2022-12-03T20:13:41Z</time>
      </trkpt>
      <trkpt lat="40.461240" lon="-6.206590">
        <ele>653</ele>
        <time>2022-12-03T20:13:50Z</time>
      </trkpt>
      <trkpt lat="40.461490" lon="-6.207580">
        <ele>660</ele>
        <time>2022-12-03T20:14:04Z</time>
      </trkpt>
      <trkpt lat="40.461500" lon="-6.207660">
        <ele>662</ele>
        <time>2022-12-03T20:14:05Z</time>
      </trkpt>
      <trkpt lat="40.461450" lon="-6.207780">
        <ele>662</ele>
        <time>2022-12-03T20:14:07Z</time>
      </trkpt>
      <trkpt lat="40.461370" lon="-6.207850">
        <ele>661</ele>
        <time>2022-12-03T20:14:09Z</time>
      </trkpt>
      <trkpt lat="40.461100" lon="-6.207980">
        <ele>654</ele>
        <time>2022-12-03T20:14:14Z</time>
      </trkpt>
      <trkpt lat="40.460960" lon="-6.208060">
        <ele>650</ele>
        <time>2022-12-03T20:14:17Z</time>
      </trkpt>
      <trkpt lat="40.460870" lon="-6.208190">
        <ele>650</ele>
        <time>2022-12-03T20:14:19Z</time>
      </trkpt>
      <trkpt lat="40.460800" lon="-6.208370">
        <ele>650</ele>
        <time>2022-12-03T20:14:22Z</time>
      </trkpt>
      <trkpt lat="40.460650" lon="-6.209360">
        <ele>654</ele>
        <time>2022-12-03T20:14:35Z</time>
      </trkpt>
      <trkpt lat="40.460480" lon="-6.210010">
        <ele>651</ele>
        <time>2022-12-03T20:14:45Z</time>
      </trkpt>
      <trkpt lat="40.460440" lon="-6.210510">
        <ele>647</ele>
        <time>2022-12-03T20:14:52Z</time>
      </trkpt>
      <trkpt lat="40.460460" lon="-6.210630">
        <ele>648</ele>
        <time>2022-12-03T20:14:53Z</time>
      </trkpt>
      <trkpt lat="40.460500" lon="-6.210770">
        <ele>649</ele>
        <time>2022-12-03T20:14:55Z</time>
      </trkpt>
      <trkpt lat="40.460580" lon="-6.210860">
        <ele>651</ele>
        <time>2022-12-03T20:14:57Z</time>
      </trkpt>
      <trkpt lat="40.461090" lon="-6.211260">
        <ele>658</ele>
        <time>2022-12-03T20:15:08Z</time>
      </trkpt>
      <trkpt lat="40.461380" lon="-6.211630">
        <ele>661</ele>
        <time>2022-12-03T20:15:15Z</time>
      </trkpt>
      <trkpt lat="40.461590" lon="-6.212010">
        <ele>665</ele>
        <time>2022-12-03T20:15:21Z</time>
      </trkpt>
      <trkpt lat="40.461660" lon="-6.212280">
        <ele>665</ele>
        <time>2022-12-03T20:15:25Z</time>
      </trkpt>
      <trkpt lat="40.461650" lon="-6.212590">
        <ele>661</ele>
        <time>2022-12-03T20:15:29Z</time>
      </trkpt>
      <trkpt lat="40.461450" lon="-6.213280">
        <ele>654</ele>
        <time>2022-12-03T20:15:39Z</time>
      </trkpt>
      <trkpt lat="40.461440" lon="-6.213620">
        <ele>652</ele>
        <time>2022-12-03T20:15:44Z</time>
      </trkpt>
      <trkpt lat="40.461590" lon="-6.214860">
        <ele>653</ele>
        <time>2022-12-03T20:16:01Z</time>
      </trkpt>
      <trkpt lat="40.461690" lon="-6.215070">
        <ele>656</ele>
        <time>2022-12-03T20:16:04Z</time>
      </trkpt>
      <trkpt lat="40.461770" lon="-6.215180">
        <ele>655</ele>
        <time>2022-12-03T20:16:06Z</time>
      </trkpt>
      <trkpt lat="40.461870" lon="-6.215240">
        <ele>655</ele>
        <time>2022-12-03T20:16:08Z</time>
      </trkpt>
      <trkpt lat="40.462000" lon="-6.215220">
        <ele>656</ele>
        <time>2022-12-03T20:16:11Z</time>
      </trkpt>
      <trkpt lat="40.462190" lon="-6.215030">
        <ele>658</ele>
        <time>2022-12-03T20:16:15Z</time>
      </trkpt>
      <trkpt lat="40.462300" lon="-6.214870">
        <ele>660</ele>
        <time>2022-12-03T20:16:18Z</time>
      </trkpt>
      <trkpt lat="40.462460" lon="-6.214450">
        <ele>665</ele>
        <time>2022-12-03T20:16:24Z</time>
      </trkpt>
      <trkpt lat="40.462540" lon="-6.214350">
        <ele>667</ele>
        <time>2022-12-03T20:16:26Z</time>
      </trkpt>
      <trkpt lat="40.462600" lon="-6.214290">
        <ele>668</ele>
        <time>2022-12-03T20:16:27Z</time>
      </trkpt>
      <trkpt lat="40.462690" lon="-6.214290">
        <ele>669</ele>
        <time>2022-12-03T20:16:29Z</time>
      </trkpt>
      <trkpt lat="40.462750" lon="-6.214310">
        <ele>670</ele>
        <time>2022-12-03T20:16:30Z</time>
      </trkpt>
      <trkpt lat="40.462790" lon="-6.214380">
        <ele>670</ele>
        <time>2022-12-03T20:16:31Z</time>
      </trkpt>
      <trkpt lat="40.462830" lon="-6.214520">
        <ele>669</ele>
        <time>2022-12-03T20:16:33Z</time>
      </trkpt>
      <trkpt lat="40.462800" lon="-6.214850">
        <ele>667</ele>
        <time>2022-12-03T20:16:38Z</time>
      </trkpt>
      <trkpt lat="40.462820" lon="-6.215260">
        <ele>665</ele>
        <time>2022-12-03T20:16:43Z</time>
      </trkpt>
      <trkpt lat="40.462870" lon="-6.215560">
        <ele>664</ele>
        <time>2022-12-03T20:16:48Z</time>
      </trkpt>
      <trkpt lat="40.463070" lon="-6.216120">
        <ele>662</ele>
        <time>2022-12-03T20:16:56Z</time>
      </trkpt>
      <trkpt lat="40.463310" lon="-6.216530">
        <ele>660</ele>
        <time>2022-12-03T20:17:03Z</time>
      </trkpt>
      <trkpt lat="40.463450" lon="-6.216710">
        <ele>661</ele>
        <time>2022-12-03T20:17:06Z</time>
      </trkpt>
      <trkpt lat="40.463720" lon="-6.216890">
        <ele>667</ele>
        <time>2022-12-03T20:17:12Z</time>
      </trkpt>
      <trkpt lat="40.464180" lon="-6.217030">
        <ele>681</ele>
        <time>2022-12-03T20:17:20Z</time>
      </trkpt>
      <trkpt lat="40.464260" lon="-6.217070">
        <ele>683</ele>
        <time>2022-12-03T20:17:22Z</time>
      </trkpt>
      <trkpt lat="40.464300" lon="-6.217120">
        <ele>684</ele>
        <time>2022-12-03T20:17:23Z</time>
      </trkpt>
      <trkpt lat="40.464320" lon="-6.217220">
        <ele>683</ele>
        <time>2022-12-03T20:17:24Z</time>
      </trkpt>
      <trkpt lat="40.464130" lon="-6.217730">
        <ele>671</ele>
        <time>2022-12-03T20:17:32Z</time>
      </trkpt>
      <trkpt lat="40.464090" lon="-6.217940">
        <ele>668</ele>
        <time>2022-12-03T20:17:35Z</time>
      </trkpt>
      <trkpt lat="40.464110" lon="-6.218160">
        <ele>668</ele>
        <time>2022-12-03T20:17:38Z</time>
      </trkpt>
      <trkpt lat="40.464190" lon="-6.218340">
        <ele>671</ele>
        <time>2022-12-03T20:17:41Z</time>
      </trkpt>
      <trkpt lat="40.464310" lon="-6.218470">
        <ele>673</ele>
        <time>2022-12-03T20:17:43Z</time>
      </trkpt>
      <trkpt lat="40.464420" lon="-6.218520">
        <ele>675</ele>
        <time>2022-12-03T20:17:45Z</time>
      </trkpt>
      <trkpt lat="40.464530" lon="-6.218530">
        <ele>678</ele>
        <time>2022-12-03T20:17:47Z</time>
      </trkpt>
      <trkpt lat="40.464810" lon="-6.218470">
        <ele>686</ele>
        <time>2022-12-03T20:17:52Z</time>
      </trkpt>
      <trkpt lat="40.464900" lon="-6.218480">
        <ele>688</ele>
        <time>2022-12-03T20:17:54Z</time>
      </trkpt>
      <trkpt lat="40.464980" lon="-6.218510">
        <ele>691</ele>
        <time>2022-12-03T20:17:55Z</time>
      </trkpt>
      <trkpt lat="40.465070" lon="-6.218580">
        <ele>694</ele>
        <time>2022-12-03T20:17:57Z</time>
      </trkpt>
      <trkpt lat="40.465110" lon="-6.218690">
        <ele>695</ele>
        <time>2022-12-03T20:17:59Z</time>
      </trkpt>
      <trkpt lat="40.465090" lon="-6.218750">
        <ele>695</ele>
        <time>2022-12-03T20:18:00Z</time>
      </trkpt>
      <trkpt lat="40.464870" lon="-6.219040">
        <ele>687</ele>
        <time>2022-12-03T20:18:05Z</time>
      </trkpt>
      <trkpt lat="40.464660" lon="-6.219480">
        <ele>687</ele>
        <time>2022-12-03T20:18:12Z</time>
      </trkpt>
      <trkpt lat="40.464360" lon="-6.219940">
        <ele>682</ele>
        <time>2022-12-03T20:18:21Z</time>
      </trkpt>
      <trkpt lat="40.464270" lon="-6.220200">
        <ele>681</ele>
        <time>2022-12-03T20:18:24Z</time>
      </trkpt>
      <trkpt lat="40.464250" lon="-6.220410">
        <ele>682</ele>
        <time>2022-12-03T20:18:27Z</time>
      </trkpt>
      <trkpt lat="40.464280" lon="-6.220590">
        <ele>686</ele>
        <time>2022-12-03T20:18:30Z</time>
      </trkpt>
      <trkpt lat="40.464520" lon="-6.221330">
        <ele>698</ele>
        <time>2022-12-03T20:18:41Z</time>
      </trkpt>
      <trkpt lat="40.464620" lon="-6.221580">
        <ele>700</ele>
        <time>2022-12-03T20:18:45Z</time>
      </trkpt>
      <trkpt lat="40.464880" lon="-6.221870">
        <ele>704</ele>
        <time>2022-12-03T20:18:51Z</time>
      </trkpt>
      <trkpt lat="40.464920" lon="-6.221950">
        <ele>704</ele>
        <time>2022-12-03T20:18:52Z</time>
      </trkpt>
      <trkpt lat="40.464940" lon="-6.222050">
        <ele>704</ele>
        <time>2022-12-03T20:18:53Z</time>
      </trkpt>
      <trkpt lat="40.464930" lon="-6.222260">
        <ele>702</ele>
        <time>2022-12-03T20:18:56Z</time>
      </trkpt>
      <trkpt lat="40.464940" lon="-6.222370">
        <ele>701</ele>
        <time>2022-12-03T20:18:58Z</time>
      </trkpt>
      <trkpt lat="40.464970" lon="-6.222520">
        <ele>701</ele>
        <time>2022-12-03T20:19:00Z</time>
      </trkpt>
      <trkpt lat="40.465390" lon="-6.223160">
        <ele>706</ele>
        <time>2022-12-03T20:19:11Z</time>
      </trkpt>
      <trkpt lat="40.465570" lon="-6.223380">
        <ele>710</ele>
        <time>2022-12-03T20:19:16Z</time>
      </trkpt>
      <trkpt lat="40.465730" lon="-6.223530">
        <ele>715</ele>
        <time>2022-12-03T20:19:19Z</time>
      </trkpt>
      <trkpt lat="40.465770" lon="-6.223620">
        <ele>716</ele>
        <time>2022-12-03T20:19:21Z</time>
      </trkpt>
      <trkpt lat="40.465780" lon="-6.223710">
        <ele>716</ele>
        <time>2022-12-03T20:19:22Z</time>
      </trkpt>
      <trkpt lat="40.465690" lon="-6.224090">
        <ele>710</ele>
        <time>2022-12-03T20:19:27Z</time>
      </trkpt>
      <trkpt lat="40.465650" lon="-6.224380">
        <ele>707</ele>
        <time>2022-12-03T20:19:31Z</time>
      </trkpt>
      <trkpt lat="40.465680" lon="-6.224610">
        <ele>707</ele>
        <time>2022-12-03T20:19:34Z</time>
      </trkpt>
      <trkpt lat="40.465730" lon="-6.224750">
        <ele>708</ele>
        <time>2022-12-03T20:19:36Z</time>
      </trkpt>
      <trkpt lat="40.465940" lon="-6.225030">
        <ele>711</ele>
        <time>2022-12-03T20:19:42Z</time>
      </trkpt>
      <trkpt lat="40.466250" lon="-6.225280">
        <ele>713</ele>
        <time>2022-12-03T20:19:48Z</time>
      </trkpt>
      <trkpt lat="40.466680" lon="-6.225420">
        <ele>719</ele>
        <time>2022-12-03T20:19:56Z</time>
      </trkpt>
      <trkpt lat="40.467030" lon="-6.225410">
        <ele>725</ele>
        <time>2022-12-03T20:20:02Z</time>
      </trkpt>
      <trkpt lat="40.467300" lon="-6.225470">
        <ele>727</ele>
        <time>2022-12-03T20:20:07Z</time>
      </trkpt>
      <trkpt lat="40.467830" lon="-6.225690">
        <ele>730</ele>
        <time>2022-12-03T20:20:17Z</time>
      </trkpt>
      <trkpt lat="40.468050" lon="-6.225850">
        <ele>730</ele>
        <time>2022-12-03T20:20:22Z</time>
      </trkpt>
      <trkpt lat="40.468430" lon="-6.225880">
        <ele>737</ele>
        <time>2022-12-03T20:20:28Z</time>
      </trkpt>
      <trkpt lat="40.468520" lon="-6.225920">
        <ele>739</ele>
        <time>2022-12-03T20:20:30Z</time>
      </trkpt>
      <trkpt lat="40.468570" lon="-6.225980">
        <ele>740</ele>
        <time>2022-12-03T20:20:31Z</time>
      </trkpt>
      <trkpt lat="40.468600" lon="-6.226090">
        <ele>740</ele>
        <time>2022-12-03T20:20:33Z</time>
      </trkpt>
      <trkpt lat="40.468600" lon="-6.226180">
        <ele>739</ele>
        <time>2022-12-03T20:20:34Z</time>
      </trkpt>
      <trkpt lat="40.468540" lon="-6.226380">
        <ele>736</ele>
        <time>2022-12-03T20:20:37Z</time>
      </trkpt>
      <trkpt lat="40.468510" lon="-6.226540">
        <ele>733</ele>
        <time>2022-12-03T20:20:39Z</time>
      </trkpt>
      <trkpt lat="40.468540" lon="-6.226650">
        <ele>734</ele>
        <time>2022-12-03T20:20:41Z</time>
      </trkpt>
      <trkpt lat="40.468730" lon="-6.227050">
        <ele>744</ele>
        <time>2022-12-03T20:20:47Z</time>
      </trkpt>
      <trkpt lat="40.468830" lon="-6.227650">
        <ele>750</ele>
        <time>2022-12-03T20:20:55Z</time>
      </trkpt>
      <trkpt lat="40.468900" lon="-6.227920">
        <ele>753</ele>
        <time>2022-12-03T20:20:59Z</time>
      </trkpt>
      <trkpt lat="40.468990" lon="-6.228130">
        <ele>755</ele>
        <time>2022-12-03T20:21:03Z</time>
      </trkpt>
      <trkpt lat="40.469100" lon="-6.228320">
        <ele>754</ele>
        <time>2022-12-03T20:21:06Z</time>
      </trkpt>
      <trkpt lat="40.469100" lon="-6.228440">
        <ele>757</ele>
        <time>2022-12-03T20:21:07Z</time>
      </trkpt>
      <trkpt lat="40.469080" lon="-6.228500">
        <ele>758</ele>
        <time>2022-12-03T20:21:08Z</time>
      </trkpt>
      <trkpt lat="40.469050" lon="-6.228530">
        <ele>760</ele>
        <time>2022-12-03T20:21:09Z</time>
      </trkpt>
      <trkpt lat="40.468960" lon="-6.228550">
        <ele>762</ele>
        <time>2022-12-03T20:21:11Z</time>
      </trkpt>
      <trkpt lat="40.468840" lon="-6.228520">
        <ele>763</ele>
        <time>2022-12-03T20:21:13Z</time>
      </trkpt>
      <trkpt lat="40.468720" lon="-6.228410">
        <ele>761</ele>
        <time>2022-12-03T20:21:15Z</time>
      </trkpt>
      <trkpt lat="40.468510" lon="-6.228130">
        <ele>757</ele>
        <time>2022-12-03T20:21:21Z</time>
      </trkpt>
      <trkpt lat="40.468110" lon="-6.227740">
        <ele>749</ele>
        <time>2022-12-03T20:21:30Z</time>
      </trkpt>
      <trkpt lat="40.467810" lon="-6.227520">
        <ele>747</ele>
        <time>2022-12-03T20:21:36Z</time>
      </trkpt>
      <trkpt lat="40.467400" lon="-6.227180">
        <ele>739</ele>
        <time>2022-12-03T20:21:44Z</time>
      </trkpt>
      <trkpt lat="40.467280" lon="-6.227140">
        <ele>737</ele>
        <time>2022-12-03T20:21:46Z</time>
      </trkpt>
      <trkpt lat="40.467110" lon="-6.227180">
        <ele>737</ele>
        <time>2022-12-03T20:21:50Z</time>
      </trkpt>
      <trkpt lat="40.466930" lon="-6.227280">
        <ele>740</ele>
        <time>2022-12-03T20:21:53Z</time>
      </trkpt>
      <trkpt lat="40.466770" lon="-6.227420">
        <ele>743</ele>
        <time>2022-12-03T20:21:56Z</time>
      </trkpt>
      <trkpt lat="40.466610" lon="-6.227600">
        <ele>745</ele>
        <time>2022-12-03T20:22:00Z</time>
      </trkpt>
      <trkpt lat="40.466480" lon="-6.227940">
        <ele>747</ele>
        <time>2022-12-03T20:22:05Z</time>
      </trkpt>
      <trkpt lat="40.466420" lon="-6.228290">
        <ele>751</ele>
        <time>2022-12-03T20:22:10Z</time>
      </trkpt>
      <trkpt lat="40.466180" lon="-6.228760">
        <ele>750</ele>
        <time>2022-12-03T20:22:18Z</time>
      </trkpt>
      <trkpt lat="40.466080" lon="-6.229030">
        <ele>751</ele>
        <time>2022-12-03T20:22:22Z</time>
      </trkpt>
      <trkpt lat="40.465980" lon="-6.229470">
        <ele>752</ele>
        <time>2022-12-03T20:22:28Z</time>
      </trkpt>
      <trkpt lat="40.465980" lon="-6.229630">
        <ele>753</ele>
        <time>2022-12-03T20:22:30Z</time>
      </trkpt>
      <trkpt lat="40.466000" lon="-6.229710">
        <ele>755</ele>
        <time>2022-12-03T20:22:31Z</time>
      </trkpt>
      <trkpt lat="40.466070" lon="-6.229820">
        <ele>757</ele>
        <time>2022-12-03T20:22:33Z</time>
      </trkpt>
      <trkpt lat="40.466530" lon="-6.230170">
        <ele>767</ele>
        <time>2022-12-03T20:22:43Z</time>
      </trkpt>
      <trkpt lat="40.466600" lon="-6.230300">
        <ele>768</ele>
        <time>2022-12-03T20:22:45Z</time>
      </trkpt>
      <trkpt lat="40.466660" lon="-6.231120">
        <ele>764</ele>
        <time>2022-12-03T20:22:56Z</time>
      </trkpt>
      <trkpt lat="40.466710" lon="-6.231330">
        <ele>764</ele>
        <time>2022-12-03T20:22:59Z</time>
      </trkpt>
      <trkpt lat="40.466810" lon="-6.231470">
        <ele>764</ele>
        <time>2022-12-03T20:23:02Z</time>
      </trkpt>
      <trkpt lat="40.466930" lon="-6.231550">
        <ele>765</ele>
        <time>2022-12-03T20:23:04Z</time>
      </trkpt>
      <trkpt lat="40.467260" lon="-6.231600">
        <ele>769</ele>
        <time>2022-12-03T20:23:10Z</time>
      </trkpt>
      <trkpt lat="40.467580" lon="-6.231560">
        <ele>772</ele>
        <time>2022-12-03T20:23:16Z</time>
      </trkpt>
      <trkpt lat="40.467880" lon="-6.231490">
        <ele>773</ele>
        <time>2022-12-03T20:23:21Z</time>
      </trkpt>
      <trkpt lat="40.468190" lon="-6.231450">
        <ele>774</ele>
        <time>2022-12-03T20:23:27Z</time>
      </trkpt>
      <trkpt lat="40.468350" lon="-6.231360">
        <ele>776</ele>
        <time>2022-12-03T20:23:30Z</time>
      </trkpt>
      <trkpt lat="40.468660" lon="-6.231140">
        <ele>780</ele>
        <time>2022-12-03T20:23:36Z</time>
      </trkpt>
      <trkpt lat="40.469280" lon="-6.230840">
        <ele>786</ele>
        <time>2022-12-03T20:23:48Z</time>
      </trkpt>
      <trkpt lat="40.469440" lon="-6.230810">
        <ele>788</ele>
        <time>2022-12-03T20:23:51Z</time>
      </trkpt>
      <trkpt lat="40.469600" lon="-6.230810">
        <ele>789</ele>
        <time>2022-12-03T20:23:54Z</time>
      </trkpt>
      <trkpt lat="40.469730" lon="-6.230830">
        <ele>790</ele>
        <time>2022-12-03T20:23:56Z</time>
      </trkpt>
      <trkpt lat="40.469950" lon="-6.230900">
        <ele>790</ele>
        <time>2022-12-03T20:24:00Z</time>
      </trkpt>
      <trkpt lat="40.470300" lon="-6.231050">
        <ele>790</ele>
        <time>2022-12-03T20:24:06Z</time>
      </trkpt>
      <trkpt lat="40.470700" lon="-6.231030">
        <ele>795</ele>
        <time>2022-12-03T20:24:14Z</time>
      </trkpt>
      <trkpt lat="40.471270" lon="-6.231080">
        <ele>804</ele>
        <time>2022-12-03T20:24:24Z</time>
      </trkpt>
      <trkpt lat="40.471690" lon="-6.231190">
        <ele>810</ele>
        <time>2022-12-03T20:24:31Z</time>
      </trkpt>
      <trkpt lat="40.471780" lon="-6.231270">
        <ele>811</ele>
        <time>2022-12-03T20:24:33Z</time>
      </trkpt>
      <trkpt lat="40.471900" lon="-6.231410">
        <ele>812</ele>
        <time>2022-12-03T20:24:36Z</time>
      </trkpt>
      <trkpt lat="40.471950" lon="-6.231590">
        <ele>810</ele>
        <time>2022-12-03T20:24:39Z</time>
      </trkpt>
      <trkpt lat="40.472010" lon="-6.231960">
        <ele>813</ele>
        <time>2022-12-03T20:24:44Z</time>
      </trkpt>
      <trkpt lat="40.472080" lon="-6.232200">
        <ele>817</ele>
        <time>2022-12-03T20:24:47Z</time>
      </trkpt>
      <trkpt lat="40.472070" lon="-6.232340">
        <ele>818</ele>
        <time>2022-12-03T20:24:49Z</time>
      </trkpt>
      <trkpt lat="40.472030" lon="-6.232410">
        <ele>818</ele>
        <time>2022-12-03T20:24:50Z</time>
      </trkpt>
      <trkpt lat="40.471980" lon="-6.232450">
        <ele>818</ele>
        <time>2022-12-03T20:24:51Z</time>
      </trkpt>
      <trkpt lat="40.471870" lon="-6.232450">
        <ele>817</ele>
        <time>2022-12-03T20:24:53Z</time>
      </trkpt>
      <trkpt lat="40.471760" lon="-6.232390">
        <ele>815</ele>
        <time>2022-12-03T20:24:56Z</time>
      </trkpt>
      <trkpt lat="40.471610" lon="-6.232250">
        <ele>811</ele>
        <time>2022-12-03T20:24:59Z</time>
      </trkpt>
      <trkpt lat="40.471530" lon="-6.232200">
        <ele>809</ele>
        <time>2022-12-03T20:25:00Z</time>
      </trkpt>
      <trkpt lat="40.471390" lon="-6.232180">
        <ele>807</ele>
        <time>2022-12-03T20:25:03Z</time>
      </trkpt>
      <trkpt lat="40.471250" lon="-6.232200">
        <ele>807</ele>
        <time>2022-12-03T20:25:05Z</time>
      </trkpt>
      <trkpt lat="40.470850" lon="-6.232380">
        <ele>809</ele>
        <time>2022-12-03T20:25:13Z</time>
      </trkpt>
      <trkpt lat="40.470630" lon="-6.232520">
        <ele>808</ele>
        <time>2022-12-03T20:25:17Z</time>
      </trkpt>
      <trkpt lat="40.470410" lon="-6.232770">
        <ele>807</ele>
        <time>2022-12-03T20:25:22Z</time>
      </trkpt>
      <trkpt lat="40.470360" lon="-6.232910">
        <ele>809</ele>
        <time>2022-12-03T20:25:25Z</time>
      </trkpt>
      <trkpt lat="40.470350" lon="-6.233140">
        <ele>813</ele>
        <time>2022-12-03T20:25:28Z</time>
      </trkpt>
      <trkpt lat="40.470440" lon="-6.233520">
        <ele>824</ele>
        <time>2022-12-03T20:25:33Z</time>
      </trkpt>
      <trkpt lat="40.470420" lon="-6.233650">
        <ele>826</ele>
        <time>2022-12-03T20:25:35Z</time>
      </trkpt>
      <trkpt lat="40.470380" lon="-6.233730">
        <ele>827</ele>
        <time>2022-12-03T20:25:36Z</time>
      </trkpt>
      <trkpt lat="40.470290" lon="-6.233780">
        <ele>826</ele>
        <time>2022-12-03T20:25:38Z</time>
      </trkpt>
      <trkpt lat="40.470190" lon="-6.233770">
        <ele>823</ele>
        <time>2022-12-03T20:25:40Z</time>
      </trkpt>
      <trkpt lat="40.469730" lon="-6.233680">
        <ele>811</ele>
        <time>2022-12-03T20:25:48Z</time>
      </trkpt>
      <trkpt lat="40.469550" lon="-6.233670">
        <ele>807</ele>
        <time>2022-12-03T20:25:51Z</time>
      </trkpt>
      <trkpt lat="40.469440" lon="-6.233690">
        <ele>806</ele>
        <time>2022-12-03T20:25:53Z</time>
      </trkpt>
      <trkpt lat="40.469330" lon="-6.233770">
        <ele>807</ele>
        <time>2022-12-03T20:25:55Z</time>
      </trkpt>
      <trkpt lat="40.468710" lon="-6.234270">
        <ele>807</ele>
        <time>2022-12-03T20:26:08Z</time>
      </trkpt>
      <trkpt lat="40.468170" lon="-6.234760">
        <ele>803</ele>
        <time>2022-12-03T20:26:20Z</time>
      </trkpt>
      <trkpt lat="40.468030" lon="-6.234910">
        <ele>803</ele>
        <time>2022-12-03T20:26:23Z</time>
      </trkpt>
      <trkpt lat="40.467930" lon="-6.235090">
        <ele>803</ele>
        <time>2022-12-03T20:26:26Z</time>
      </trkpt>
      <trkpt lat="40.467840" lon="-6.235300">
        <ele>802</ele>
        <time>2022-12-03T20:26:29Z</time>
      </trkpt>
      <trkpt lat="40.467630" lon="-6.236160">
        <ele>803</ele>
        <time>2022-12-03T20:26:42Z</time>
      </trkpt>
      <trkpt lat="40.467470" lon="-6.236680">
        <ele>800</ele>
        <time>2022-12-03T20:26:49Z</time>
      </trkpt>
      <trkpt lat="40.467390" lon="-6.237010">
        <ele>798</ele>
        <time>2022-12-03T20:26:54Z</time>
      </trkpt>
      <trkpt lat="40.467350" lon="-6.237430">
        <ele>798</ele>
        <time>2022-12-03T20:27:00Z</time>
      </trkpt>
      <trkpt lat="40.467380" lon="-6.238300">
        <ele>796</ele>
        <time>2022-12-03T20:27:11Z</time>
      </trkpt>
      <trkpt lat="40.467420" lon="-6.238500">
        <ele>794</ele>
        <time>2022-12-03T20:27:14Z</time>
      </trkpt>
      <trkpt lat="40.467490" lon="-6.238640">
        <ele>794</ele>
        <time>2022-12-03T20:27:17Z</time>
      </trkpt>
      <trkpt lat="40.467610" lon="-6.238720">
        <ele>792</ele>
        <time>2022-12-03T20:27:19Z</time>
      </trkpt>
      <trkpt lat="40.468660" lon="-6.238840">
        <ele>792</ele>
        <time>2022-12-03T20:27:38Z</time>
      </trkpt>
      <trkpt lat="40.468940" lon="-6.238810">
        <ele>798</ele>
        <time>2022-12-03T20:27:43Z</time>
      </trkpt>
      <trkpt lat="40.469100" lon="-6.238840">
        <ele>798</ele>
        <time>2022-12-03T20:27:46Z</time>
      </trkpt>
      <trkpt lat="40.469290" lon="-6.239010">
        <ele>793</ele>
        <time>2022-12-03T20:27:50Z</time>
      </trkpt>
      <trkpt lat="40.469400" lon="-6.239160">
        <ele>788</ele>
        <time>2022-12-03T20:27:52Z</time>
      </trkpt>
      <trkpt lat="40.469710" lon="-6.239390">
        <ele>797</ele>
        <time>2022-12-03T20:27:59Z</time>
      </trkpt>
      <trkpt lat="40.469750" lon="-6.239460">
        <ele>799</ele>
        <time>2022-12-03T20:28:00Z</time>
      </trkpt>
      <trkpt lat="40.469760" lon="-6.239540">
        <ele>801</ele>
        <time>2022-12-03T20:28:01Z</time>
      </trkpt>
      <trkpt lat="40.469710" lon="-6.239610">
        <ele>801</ele>
        <time>2022-12-03T20:28:02Z</time>
      </trkpt>
      <trkpt lat="40.469630" lon="-6.239690">
        <ele>801</ele>
        <time>2022-12-03T20:28:04Z</time>
      </trkpt>
      <trkpt lat="40.469490" lon="-6.239700">
        <ele>798</ele>
        <time>2022-12-03T20:28:07Z</time>
      </trkpt>
      <trkpt lat="40.469260" lon="-6.239670">
        <ele>792</ele>
        <time>2022-12-03T20:28:11Z</time>
      </trkpt>
      <trkpt lat="40.469160" lon="-6.239680">
        <ele>790</ele>
        <time>2022-12-03T20:28:13Z</time>
      </trkpt>
      <trkpt lat="40.469060" lon="-6.239710">
        <ele>787</ele>
        <time>2022-12-03T20:28:14Z</time>
      </trkpt>
      <trkpt lat="40.468840" lon="-6.239880">
        <ele>781</ele>
        <time>2022-12-03T20:28:19Z</time>
      </trkpt>
      <trkpt lat="40.468540" lon="-6.240240">
        <ele>776</ele>
        <time>2022-12-03T20:28:26Z</time>
      </trkpt>
      <trkpt lat="40.468300" lon="-6.240600">
        <ele>773</ele>
        <time>2022-12-03T20:28:33Z</time>
      </trkpt>
      <trkpt lat="40.468080" lon="-6.241170">
        <ele>767</ele>
        <time>2022-12-03T20:28:41Z</time>
      </trkpt>
      <trkpt lat="40.467970" lon="-6.241660">
        <ele>764</ele>
        <time>2022-12-03T20:28:48Z</time>
      </trkpt>
      <trkpt lat="40.467960" lon="-6.242240">
        <ele>766</ele>
        <time>2022-12-03T20:28:56Z</time>
      </trkpt>
      <trkpt lat="40.467930" lon="-6.242330">
        <ele>765</ele>
        <time>2022-12-03T20:28:57Z</time>
      </trkpt>
      <trkpt lat="40.467740" lon="-6.242710">
        <ele>760</ele>
        <time>2022-12-03T20:29:04Z</time>
      </trkpt>
      <trkpt lat="40.467680" lon="-6.242980">
        <ele>761</ele>
        <time>2022-12-03T20:29:07Z</time>
      </trkpt>
      <trkpt lat="40.467650" lon="-6.243280">
        <ele>765</ele>
        <time>2022-12-03T20:29:11Z</time>
      </trkpt>
      <trkpt lat="40.467420" lon="-6.243800">
        <ele>770</ele>
        <time>2022-12-03T20:29:20Z</time>
      </trkpt>
      <trkpt lat="40.467330" lon="-6.243850">
        <ele>773</ele>
        <time>2022-12-03T20:29:21Z</time>
      </trkpt>
      <trkpt lat="40.467250" lon="-6.243810">
        <ele>774</ele>
        <time>2022-12-03T20:29:23Z</time>
      </trkpt>
      <trkpt lat="40.467170" lon="-6.243720">
        <ele>773</ele>
        <time>2022-12-03T20:29:25Z</time>
      </trkpt>
      <trkpt lat="40.467000" lon="-6.243430">
        <ele>770</ele>
        <time>2022-12-03T20:29:30Z</time>
      </trkpt>
      <trkpt lat="40.466590" lon="-6.242240">
        <ele>745</ele>
        <time>2022-12-03T20:29:47Z</time>
      </trkpt>
      <trkpt lat="40.466500" lon="-6.242110">
        <ele>741</ele>
        <time>2022-12-03T20:29:50Z</time>
      </trkpt>
      <trkpt lat="40.466410" lon="-6.242060">
        <ele>740</ele>
        <time>2022-12-03T20:29:51Z</time>
      </trkpt>
      <trkpt lat="40.466260" lon="-6.242060">
        <ele>740</ele>
        <time>2022-12-03T20:29:54Z</time>
      </trkpt>
      <trkpt lat="40.466010" lon="-6.242120">
        <ele>742</ele>
        <time>2022-12-03T20:29:59Z</time>
      </trkpt>
      <trkpt lat="40.465650" lon="-6.242290">
        <ele>741</ele>
        <time>2022-12-03T20:30:05Z</time>
      </trkpt>
      <trkpt lat="40.465530" lon="-6.242430">
        <ele>740</ele>
        <time>2022-12-03T20:30:08Z</time>
      </trkpt>
      <trkpt lat="40.465430" lon="-6.242630">
        <ele>742</ele>
        <time>2022-12-03T20:30:12Z</time>
      </trkpt>
      <trkpt lat="40.465270" lon="-6.243270">
        <ele>754</ele>
        <time>2022-12-03T20:30:21Z</time>
      </trkpt>
      <trkpt lat="40.465200" lon="-6.243400">
        <ele>756</ele>
        <time>2022-12-03T20:30:23Z</time>
      </trkpt>
      <trkpt lat="40.465130" lon="-6.243470">
        <ele>756</ele>
        <time>2022-12-03T20:30:24Z</time>
      </trkpt>
      <trkpt lat="40.464970" lon="-6.243550">
        <ele>753</ele>
        <time>2022-12-03T20:30:27Z</time>
      </trkpt>
      <trkpt lat="40.464630" lon="-6.243790">
        <ele>750</ele>
        <time>2022-12-03T20:30:34Z</time>
      </trkpt>
      <trkpt lat="40.464460" lon="-6.243850">
        <ele>745</ele>
        <time>2022-12-03T20:30:37Z</time>
      </trkpt>
      <trkpt lat="40.464190" lon="-6.244020">
        <ele>739</ele>
        <time>2022-12-03T20:30:43Z</time>
      </trkpt>
      <trkpt lat="40.463940" lon="-6.244300">
        <ele>740</ele>
        <time>2022-12-03T20:30:49Z</time>
      </trkpt>
      <trkpt lat="40.463780" lon="-6.244570">
        <ele>743</ele>
        <time>2022-12-03T20:30:53Z</time>
      </trkpt>
      <trkpt lat="40.463680" lon="-6.244830">
        <ele>745</ele>
        <time>2022-12-03T20:30:57Z</time>
      </trkpt>
      <trkpt lat="40.463630" lon="-6.244860">
        <ele>744</ele>
        <time>2022-12-03T20:30:58Z</time>
      </trkpt>
      <trkpt lat="40.463290" lon="-6.244890">
        <ele>731</ele>
        <time>2022-12-03T20:31:04Z</time>
      </trkpt>
      <trkpt lat="40.463220" lon="-6.244970">
        <ele>732</ele>
        <time>2022-12-03T20:31:06Z</time>
      </trkpt>
      <trkpt lat="40.463000" lon="-6.245400">
        <ele>739</ele>
        <time>2022-12-03T20:31:13Z</time>
      </trkpt>
      <trkpt lat="40.462830" lon="-6.245630">
        <ele>739</ele>
        <time>2022-12-03T20:31:17Z</time>
      </trkpt>
      <trkpt lat="40.462230" lon="-6.246150">
        <ele>735</ele>
        <time>2022-12-03T20:31:30Z</time>
      </trkpt>
      <trkpt lat="40.462150" lon="-6.246260">
        <ele>736</ele>
        <time>2022-12-03T20:31:32Z</time>
      </trkpt>
      <trkpt lat="40.462120" lon="-6.246340">
        <ele>736</ele>
        <time>2022-12-03T20:31:33Z</time>
      </trkpt>
      <trkpt lat="40.462100" lon="-6.246450">
        <ele>736</ele>
        <time>2022-12-03T20:31:35Z</time>
      </trkpt>
      <trkpt lat="40.462150" lon="-6.246930">
        <ele>742</ele>
        <time>2022-12-03T20:31:41Z</time>
      </trkpt>
      <trkpt lat="40.462100" lon="-6.247280">
        <ele>745</ele>
        <time>2022-12-03T20:31:46Z</time>
      </trkpt>
      <trkpt lat="40.462020" lon="-6.247440">
        <ele>744</ele>
        <time>2022-12-03T20:31:49Z</time>
      </trkpt>
      <trkpt lat="40.461950" lon="-6.247530">
        <ele>743</ele>
        <time>2022-12-03T20:31:51Z</time>
      </trkpt>
      <trkpt lat="40.461830" lon="-6.247620">
        <ele>741</ele>
        <time>2022-12-03T20:31:53Z</time>
      </trkpt>
      <trkpt lat="40.461570" lon="-6.247660">
        <ele>737</ele>
        <time>2022-12-03T20:31:58Z</time>
      </trkpt>
      <trkpt lat="40.461440" lon="-6.247720">
        <ele>739</ele>
        <time>2022-12-03T20:32:00Z</time>
      </trkpt>
      <trkpt lat="40.461230" lon="-6.247990">
        <ele>744</ele>
        <time>2022-12-03T20:32:05Z</time>
      </trkpt>
      <trkpt lat="40.460790" lon="-6.248450">
        <ele>741</ele>
        <time>2022-12-03T20:32:15Z</time>
      </trkpt>
      <trkpt lat="40.460490" lon="-6.248880">
        <ele>750</ele>
        <time>2022-12-03T20:32:23Z</time>
      </trkpt>
      <trkpt lat="40.460180" lon="-6.249190">
        <ele>747</ele>
        <time>2022-12-03T20:32:30Z</time>
      </trkpt>
      <trkpt lat="40.460060" lon="-6.249460">
        <ele>746</ele>
        <time>2022-12-03T20:32:34Z</time>
      </trkpt>
      <trkpt lat="40.460100" lon="-6.250010">
        <ele>755</ele>
        <time>2022-12-03T20:32:42Z</time>
      </trkpt>
      <trkpt lat="40.460030" lon="-6.250220">
        <ele>758</ele>
        <time>2022-12-03T20:32:45Z</time>
      </trkpt>
      <trkpt lat="40.459940" lon="-6.250310">
        <ele>759</ele>
        <time>2022-12-03T20:32:47Z</time>
      </trkpt>
      <trkpt lat="40.459830" lon="-6.250380">
        <ele>760</ele>
        <time>2022-12-03T20:32:49Z</time>
      </trkpt>
      <trkpt lat="40.459610" lon="-6.250430">
        <ele>758</ele>
        <time>2022-12-03T20:32:53Z</time>
      </trkpt>
      <trkpt lat="40.459510" lon="-6.250470">
        <ele>757</ele>
        <time>2022-12-03T20:32:55Z</time>
      </trkpt>
      <trkpt lat="40.459420" lon="-6.250560">
        <ele>756</ele>
        <time>2022-12-03T20:32:57Z</time>
      </trkpt>
      <trkpt lat="40.459360" lon="-6.250680">
        <ele>755</ele>
        <time>2022-12-03T20:32:59Z</time>
      </trkpt>
      <trkpt lat="40.459250" lon="-6.250970">
        <ele>754</ele>
        <time>2022-12-03T20:33:03Z</time>
      </trkpt>
      <trkpt lat="40.459070" lon="-6.251310">
        <ele>755</ele>
        <time>2022-12-03T20:33:09Z</time>
      </trkpt>
      <trkpt lat="40.459030" lon="-6.251550">
        <ele>757</ele>
        <time>2022-12-03T20:33:12Z</time>
      </trkpt>
      <trkpt lat="40.459020" lon="-6.251770">
        <ele>758</ele>
        <time>2022-12-03T20:33:15Z</time>
      </trkpt>
      <trkpt lat="40.459050" lon="-6.251980">
        <ele>757</ele>
        <time>2022-12-03T20:33:18Z</time>
      </trkpt>
      <trkpt lat="40.459320" lon="-6.252680">
        <ele>762</ele>
        <time>2022-12-03T20:33:29Z</time>
      </trkpt>
      <trkpt lat="40.459330" lon="-6.252830">
        <ele>763</ele>
        <time>2022-12-03T20:33:31Z</time>
      </trkpt>
      <trkpt lat="40.459310" lon="-6.252940">
        <ele>762</ele>
        <time>2022-12-03T20:33:32Z</time>
      </trkpt>
      <trkpt lat="40.459270" lon="-6.253020">
        <ele>761</ele>
        <time>2022-12-03T20:33:34Z</time>
      </trkpt>
      <trkpt lat="40.459190" lon="-6.253090">
        <ele>760</ele>
        <time>2022-12-03T20:33:35Z</time>
      </trkpt>
      <trkpt lat="40.458670" lon="-6.253410">
        <ele>761</ele>
        <time>2022-12-03T20:33:46Z</time>
      </trkpt>
      <trkpt lat="40.458560" lon="-6.253500">
        <ele>763</ele>
        <time>2022-12-03T20:33:48Z</time>
      </trkpt>
      <trkpt lat="40.458240" lon="-6.253970">
        <ele>769</ele>
        <time>2022-12-03T20:33:56Z</time>
      </trkpt>
      <trkpt lat="40.457900" lon="-6.254710">
        <ele>778</ele>
        <time>2022-12-03T20:34:08Z</time>
      </trkpt>
      <trkpt lat="40.457680" lon="-6.255030">
        <ele>775</ele>
        <time>2022-12-03T20:34:14Z</time>
      </trkpt>
      <trkpt lat="40.457530" lon="-6.255390">
        <ele>772</ele>
        <time>2022-12-03T20:34:20Z</time>
      </trkpt>
      <trkpt lat="40.457410" lon="-6.255560">
        <ele>775</ele>
        <time>2022-12-03T20:34:23Z</time>
      </trkpt>
      <trkpt lat="40.457320" lon="-6.255600">
        <ele>778</ele>
        <time>2022-12-03T20:34:24Z</time>
      </trkpt>
      <trkpt lat="40.457210" lon="-6.255560">
        <ele>782</ele>
        <time>2022-12-03T20:34:26Z</time>
      </trkpt>
      <trkpt lat="40.457170" lon="-6.255480">
        <ele>784</ele>
        <time>2022-12-03T20:34:28Z</time>
      </trkpt>
      <trkpt lat="40.457170" lon="-6.255370">
        <ele>784</ele>
        <time>2022-12-03T20:34:29Z</time>
      </trkpt>
      <trkpt lat="40.457340" lon="-6.254890">
        <ele>779</ele>
        <time>2022-12-03T20:34:36Z</time>
      </trkpt>
      <trkpt lat="40.457730" lon="-6.253420">
        <ele>784</ele>
        <time>2022-12-03T20:34:57Z</time>
      </trkpt>
      <trkpt lat="40.457830" lon="-6.252950">
        <ele>787</ele>
        <time>2022-12-03T20:35:04Z</time>
      </trkpt>
      <trkpt lat="40.458000" lon="-6.252570">
        <ele>785</ele>
        <time>2022-12-03T20:35:10Z</time>
      </trkpt>
      <trkpt lat="40.458070" lon="-6.252330">
        <ele>781</ele>
        <time>2022-12-03T20:35:13Z</time>
      </trkpt>
      <trkpt lat="40.458090" lon="-6.252190">
        <ele>779</ele>
        <time>2022-12-03T20:35:15Z</time>
      </trkpt>
      <trkpt lat="40.458050" lon="-6.252070">
        <ele>780</ele>
        <time>2022-12-03T20:35:17Z</time>
      </trkpt>
      <trkpt lat="40.457940" lon="-6.251980">
        <ele>784</ele>
        <time>2022-12-03T20:35:19Z</time>
      </trkpt>
      <trkpt lat="40.457590" lon="-6.251880">
        <ele>797</ele>
        <time>2022-12-03T20:35:26Z</time>
      </trkpt>
      <trkpt lat="40.457470" lon="-6.251780">
        <ele>801</ele>
        <time>2022-12-03T20:35:28Z</time>
      </trkpt>
      <trkpt lat="40.457100" lon="-6.251420">
        <ele>807</ele>
        <time>2022-12-03T20:35:37Z</time>
      </trkpt>
      <trkpt lat="40.456680" lon="-6.251260">
        <ele>814</ele>
        <time>2022-12-03T20:35:44Z</time>
      </trkpt>
      <trkpt lat="40.456530" lon="-6.251270">
        <ele>816</ele>
        <time>2022-12-03T20:35:47Z</time>
      </trkpt>
      <trkpt lat="40.456070" lon="-6.251530">
        <ele>825</ele>
        <time>2022-12-03T20:35:56Z</time>
      </trkpt>
      <trkpt lat="40.455810" lon="-6.251710">
        <ele>830</ele>
        <time>2022-12-03T20:36:01Z</time>
      </trkpt>
      <trkpt lat="40.455710" lon="-6.251820">
        <ele>835</ele>
        <time>2022-12-03T20:36:04Z</time>
      </trkpt>
      <trkpt lat="40.455640" lon="-6.251860">
        <ele>838</ele>
        <time>2022-12-03T20:36:05Z</time>
      </trkpt>
      <trkpt lat="40.455570" lon="-6.251780">
        <ele>838</ele>
        <time>2022-12-03T20:36:07Z</time>
      </trkpt>
      <trkpt lat="40.455450" lon="-6.251540">
        <ele>839</ele>
        <time>2022-12-03T20:36:10Z</time>
      </trkpt>
      <trkpt lat="40.455220" lon="-6.251280">
        <ele>847</ele>
        <time>2022-12-03T20:36:16Z</time>
      </trkpt>
      <trkpt lat="40.455200" lon="-6.251170">
        <ele>848</ele>
        <time>2022-12-03T20:36:17Z</time>
      </trkpt>
      <trkpt lat="40.455250" lon="-6.251070">
        <ele>846</ele>
        <time>2022-12-03T20:36:19Z</time>
      </trkpt>
      <trkpt lat="40.455520" lon="-6.250940">
        <ele>835</ele>
        <time>2022-12-03T20:36:24Z</time>
      </trkpt>
      <trkpt lat="40.455650" lon="-6.250750">
        <ele>832</ele>
        <time>2022-12-03T20:36:28Z</time>
      </trkpt>
      <trkpt lat="40.455960" lon="-6.249980">
        <ele>841</ele>
        <time>2022-12-03T20:36:39Z</time>
      </trkpt>
      <trkpt lat="40.456070" lon="-6.249810">
        <ele>839</ele>
        <time>2022-12-03T20:36:42Z</time>
      </trkpt>
      <trkpt lat="40.456100" lon="-6.249720">
        <ele>839</ele>
        <time>2022-12-03T20:36:44Z</time>
      </trkpt>
      <trkpt lat="40.456090" lon="-6.249640">
        <ele>840</ele>
        <time>2022-12-03T20:36:45Z</time>
      </trkpt>
      <trkpt lat="40.456040" lon="-6.249590">
        <ele>842</ele>
        <time>2022-12-03T20:36:46Z</time>
      </trkpt>
      <trkpt lat="40.455740" lon="-6.249450">
        <ele>852</ele>
        <time>2022-12-03T20:36:52Z</time>
      </trkpt>
      <trkpt lat="40.455620" lon="-6.249340">
        <ele>857</ele>
        <time>2022-12-03T20:36:54Z</time>
      </trkpt>
      <trkpt lat="40.455310" lon="-6.248950">
        <ele>871</ele>
        <time>2022-12-03T20:37:02Z</time>
      </trkpt>
      <trkpt lat="40.455300" lon="-6.248860">
        <ele>872</ele>
        <time>2022-12-03T20:37:03Z</time>
      </trkpt>
      <trkpt lat="40.455310" lon="-6.248780">
        <ele>872</ele>
        <time>2022-12-03T20:37:04Z</time>
      </trkpt>
      <trkpt lat="40.455360" lon="-6.248700">
        <ele>871</ele>
        <time>2022-12-03T20:37:06Z</time>
      </trkpt>
      <trkpt lat="40.455520" lon="-6.248570">
        <ele>868</ele>
        <time>2022-12-03T20:37:09Z</time>
      </trkpt>
      <trkpt lat="40.455670" lon="-6.248340">
        <ele>868</ele>
        <time>2022-12-03T20:37:13Z</time>
      </trkpt>
      <trkpt lat="40.455770" lon="-6.248310">
        <ele>868</ele>
        <time>2022-12-03T20:37:15Z</time>
      </trkpt>
      <trkpt lat="40.456010" lon="-6.248360">
        <ele>862</ele>
        <time>2022-12-03T20:37:19Z</time>
      </trkpt>
      <trkpt lat="40.456270" lon="-6.248360">
        <ele>858</ele>
        <time>2022-12-03T20:37:24Z</time>
      </trkpt>
      <trkpt lat="40.456380" lon="-6.248260">
        <ele>858</ele>
        <time>2022-12-03T20:37:26Z</time>
      </trkpt>
      <trkpt lat="40.456430" lon="-6.248150">
        <ele>860</ele>
        <time>2022-12-03T20:37:28Z</time>
      </trkpt>
      <trkpt lat="40.456480" lon="-6.247840">
        <ele>865</ele>
        <time>2022-12-03T20:37:32Z</time>
      </trkpt>
      <trkpt lat="40.456490" lon="-6.247570">
        <ele>870</ele>
        <time>2022-12-03T20:37:36Z</time>
      </trkpt>
      <trkpt lat="40.456310" lon="-6.246700">
        <ele>892</ele>
        <time>2022-12-03T20:37:48Z</time>
      </trkpt>
      <trkpt lat="40.456190" lon="-6.246280">
        <ele>903</ele>
        <time>2022-12-03T20:37:54Z</time>
      </trkpt>
      <trkpt lat="40.456180" lon="-6.246140">
        <ele>905</ele>
        <time>2022-12-03T20:37:56Z</time>
      </trkpt>
      <trkpt lat="40.456200" lon="-6.246030">
        <ele>907</ele>
        <time>2022-12-03T20:37:58Z</time>
      </trkpt>
      <trkpt lat="40.456280" lon="-6.246010">
        <ele>906</ele>
        <time>2022-12-03T20:37:59Z</time>
      </trkpt>
      <trkpt lat="40.456530" lon="-6.246160">
        <ele>899</ele>
        <time>2022-12-03T20:38:04Z</time>
      </trkpt>
      <trkpt lat="40.456900" lon="-6.246280">
        <ele>893</ele>
        <time>2022-12-03T20:38:11Z</time>
      </trkpt>
      <trkpt lat="40.457280" lon="-6.246280">
        <ele>894</ele>
        <time>2022-12-03T20:38:17Z</time>
      </trkpt>
      <trkpt lat="40.457470" lon="-6.246230">
        <ele>895</ele>
        <time>2022-12-03T20:38:21Z</time>
      </trkpt>
      <trkpt lat="40.457630" lon="-6.246090">
        <ele>895</ele>
        <time>2022-12-03T20:38:24Z</time>
      </trkpt>
      <trkpt lat="40.457740" lon="-6.245880">
        <ele>897</ele>
        <time>2022-12-03T20:38:28Z</time>
      </trkpt>
      <trkpt lat="40.457930" lon="-6.245410">
        <ele>902</ele>
        <time>2022-12-03T20:38:35Z</time>
      </trkpt>
      <trkpt lat="40.458010" lon="-6.245140">
        <ele>905</ele>
        <time>2022-12-03T20:38:39Z</time>
      </trkpt>
      <trkpt lat="40.458080" lon="-6.244770">
        <ele>912</ele>
        <time>2022-12-03T20:38:44Z</time>
      </trkpt>
      <trkpt lat="40.458090" lon="-6.244460">
        <ele>922</ele>
        <time>2022-12-03T20:38:48Z</time>
      </trkpt>
      <trkpt lat="40.458150" lon="-6.244360">
        <ele>923</ele>
        <time>2022-12-03T20:38:50Z</time>
      </trkpt>
      <trkpt lat="40.458440" lon="-6.244350">
        <ele>916</ele>
        <time>2022-12-03T20:38:55Z</time>
      </trkpt>
      <trkpt lat="40.458690" lon="-6.244270">
        <ele>913</ele>
        <time>2022-12-03T20:39:00Z</time>
      </trkpt>
      <trkpt lat="40.459160" lon="-6.244030">
        <ele>912</ele>
        <time>2022-12-03T20:39:09Z</time>
      </trkpt>
      <trkpt lat="40.459370" lon="-6.243830">
        <ele>912</ele>
        <time>2022-12-03T20:39:13Z</time>
      </trkpt>
      <trkpt lat="40.459560" lon="-6.243590">
        <ele>913</ele>
        <time>2022-12-03T20:39:18Z</time>
      </trkpt>
      <trkpt lat="40.459710" lon="-6.243320">
        <ele>915</ele>
        <time>2022-12-03T20:39:22Z</time>
      </trkpt>
      <trkpt lat="40.459800" lon="-6.243050">
        <ele>915</ele>
        <time>2022-12-03T20:39:26Z</time>
      </trkpt>
      <trkpt lat="40.459850" lon="-6.242790">
        <ele>915</ele>
        <time>2022-12-03T20:39:30Z</time>
      </trkpt>
      <trkpt lat="40.459860" lon="-6.242560">
        <ele>917</ele>
        <time>2022-12-03T20:39:33Z</time>
      </trkpt>
      <trkpt lat="40.459820" lon="-6.242370">
        <ele>917</ele>
        <time>2022-12-03T20:39:36Z</time>
      </trkpt>
      <trkpt lat="40.459780" lon="-6.242270">
        <ele>917</ele>
        <time>2022-12-03T20:39:37Z</time>
      </trkpt>
      <trkpt lat="40.459720" lon="-6.242220">
        <ele>918</ele>
        <time>2022-12-03T20:39:39Z</time>
      </trkpt>
      <trkpt lat="40.459660" lon="-6.242250">
        <ele>921</ele>
        <time>2022-12-03T20:39:40Z</time>
      </trkpt>
      <trkpt lat="40.459640" lon="-6.242340">
        <ele>923</ele>
        <time>2022-12-03T20:39:41Z</time>
      </trkpt>
      <trkpt lat="40.459630" lon="-6.242530">
        <ele>926</ele>
        <time>2022-12-03T20:39:44Z</time>
      </trkpt>
      <trkpt lat="40.459570" lon="-6.242730">
        <ele>926</ele>
        <time>2022-12-03T20:39:47Z</time>
      </trkpt>
      <trkpt lat="40.459330" lon="-6.243050">
        <ele>932</ele>
        <time>2022-12-03T20:39:53Z</time>
      </trkpt>
      <trkpt lat="40.459070" lon="-6.243250">
        <ele>937</ele>
        <time>2022-12-03T20:39:58Z</time>
      </trkpt>
      <trkpt lat="40.458880" lon="-6.243360">
        <ele>939</ele>
        <time>2022-12-03T20:40:02Z</time>
      </trkpt>
      <trkpt lat="40.458540" lon="-6.243460">
        <ele>943</ele>
        <time>2022-12-03T20:40:08Z</time>
      </trkpt>
      <trkpt lat="40.457850" lon="-6.243600">
        <ele>955</ele>
        <time>2022-12-03T20:40:20Z</time>
      </trkpt>
      <trkpt lat="40.457710" lon="-6.243660">
        <ele>956</ele>
        <time>2022-12-03T20:40:23Z</time>
      </trkpt>
      <trkpt lat="40.457500" lon="-6.243870">
        <ele>956</ele>
        <time>2022-12-03T20:40:28Z</time>
      </trkpt>
      <trkpt lat="40.457430" lon="-6.243910">
        <ele>955</ele>
        <time>2022-12-03T20:40:29Z</time>
      </trkpt>
      <trkpt lat="40.457370" lon="-6.243850">
        <ele>958</ele>
        <time>2022-12-03T20:40:30Z</time>
      </trkpt>
      <trkpt lat="40.457360" lon="-6.243760">
        <ele>961</ele>
        <time>2022-12-03T20:40:32Z</time>
      </trkpt>
      <trkpt lat="40.457410" lon="-6.243670">
        <ele>963</ele>
        <time>2022-12-03T20:40:33Z</time>
      </trkpt>
      <trkpt lat="40.458190" lon="-6.242990">
        <ele>962</ele>
        <time>2022-12-03T20:40:50Z</time>
      </trkpt>
      <trkpt lat="40.458310" lon="-6.242830">
        <ele>962</ele>
        <time>2022-12-03T20:40:53Z</time>
      </trkpt>
      <trkpt lat="40.458390" lon="-6.242660">
        <ele>963</ele>
        <time>2022-12-03T20:40:55Z</time>
      </trkpt>
      <trkpt lat="40.458430" lon="-6.242510">
        <ele>965</ele>
        <time>2022-12-03T20:40:58Z</time>
      </trkpt>
      <trkpt lat="40.458410" lon="-6.242430">
        <ele>965</ele>
        <time>2022-12-03T20:40:59Z</time>
      </trkpt>
      <trkpt lat="40.458350" lon="-6.242410">
        <ele>966</ele>
        <time>2022-12-03T20:41:00Z</time>
      </trkpt>
      <trkpt lat="40.458280" lon="-6.242460">
        <ele>969</ele>
        <time>2022-12-03T20:41:01Z</time>
      </trkpt>
      <trkpt lat="40.458170" lon="-6.242600">
        <ele>970</ele>
        <time>2022-12-03T20:41:04Z</time>
      </trkpt>
      <trkpt lat="40.457980" lon="-6.242700">
        <ele>973</ele>
        <time>2022-12-03T20:41:08Z</time>
      </trkpt>
      <trkpt lat="40.457420" lon="-6.242890">
        <ele>982</ele>
        <time>2022-12-03T20:41:18Z</time>
      </trkpt>
      <trkpt lat="40.457060" lon="-6.243080">
        <ele>982</ele>
        <time>2022-12-03T20:41:25Z</time>
      </trkpt>
      <trkpt lat="40.456760" lon="-6.243210">
        <ele>984</ele>
        <time>2022-12-03T20:41:30Z</time>
      </trkpt>
      <trkpt lat="40.456510" lon="-6.243220">
        <ele>986</ele>
        <time>2022-12-03T20:41:35Z</time>
      </trkpt>
      <trkpt lat="40.455660" lon="-6.243130">
        <ele>991</ele>
        <time>2022-12-03T20:41:50Z</time>
      </trkpt>
      <trkpt lat="40.455230" lon="-6.243140">
        <ele>994</ele>
        <time>2022-12-03T20:41:58Z</time>
      </trkpt>
      <trkpt lat="40.454770" lon="-6.243130">
        <ele>1001</ele>
        <time>2022-12-03T20:42:06Z</time>
      </trkpt>
      <trkpt lat="40.454650" lon="-6.243150">
        <ele>1003</ele>
        <time>2022-12-03T20:42:08Z</time>
      </trkpt>
      <trkpt lat="40.454460" lon="-6.243470">
        <ele>1006</ele>
        <time>2022-12-03T20:42:14Z</time>
      </trkpt>
      <trkpt lat="40.453940" lon="-6.244160">
        <ele>1015</ele>
        <time>2022-12-03T20:42:27Z</time>
      </trkpt>
      <trkpt lat="40.453510" lon="-6.244800">
        <ele>1023</ele>
        <time>2022-12-03T20:42:38Z</time>
      </trkpt>
      <trkpt lat="40.453240" lon="-6.245330">
        <ele>1027</ele>
        <time>2022-12-03T20:42:47Z</time>
      </trkpt>
      <trkpt lat="40.453110" lon="-6.245470">
        <ele>1029</ele>
        <time>2022-12-03T20:42:50Z</time>
      </trkpt>
      <trkpt lat="40.452710" lon="-6.246000">
        <ele>1032</ele>
        <time>2022-12-03T20:43:00Z</time>
      </trkpt>
      <trkpt lat="40.452540" lon="-6.246190">
        <ele>1034</ele>
        <time>2022-12-03T20:43:04Z</time>
      </trkpt>
      <trkpt lat="40.452240" lon="-6.246430">
        <ele>1038</ele>
        <time>2022-12-03T20:43:10Z</time>
      </trkpt>
      <trkpt lat="40.452050" lon="-6.246640">
        <ele>1040</ele>
        <time>2022-12-03T20:43:15Z</time>
      </trkpt>
      <trkpt lat="40.451860" lon="-6.246960">
        <ele>1042</ele>
        <time>2022-12-03T20:43:20Z</time>
      </trkpt>
      <trkpt lat="40.451740" lon="-6.247220">
        <ele>1043</ele>
        <time>2022-12-03T20:43:24Z</time>
      </trkpt>
      <trkpt lat="40.451680" lon="-6.247400">
        <ele>1043</ele>
        <time>2022-12-03T20:43:27Z</time>
      </trkpt>
      <trkpt lat="40.451670" lon="-6.247580">
        <ele>1043</ele>
        <time>2022-12-03T20:43:29Z</time>
      </trkpt>
      <trkpt lat="40.451690" lon="-6.247750">
        <ele>1044</ele>
        <time>2022-12-03T20:43:32Z</time>
      </trkpt>
      <trkpt lat="40.451840" lon="-6.248220">
        <ele>1040</ele>
        <time>2022-12-03T20:43:39Z</time>
      </trkpt>
      <trkpt lat="40.451880" lon="-6.248420">
        <ele>1039</ele>
        <time>2022-12-03T20:43:41Z</time>
      </trkpt>
      <trkpt lat="40.451910" lon="-6.248850">
        <ele>1039</ele>
        <time>2022-12-03T20:43:47Z</time>
      </trkpt>
      <trkpt lat="40.451890" lon="-6.249010">
        <ele>1040</ele>
        <time>2022-12-03T20:43:49Z</time>
      </trkpt>
      <trkpt lat="40.451800" lon="-6.249340">
        <ele>1043</ele>
        <time>2022-12-03T20:43:54Z</time>
      </trkpt>
      <trkpt lat="40.451530" lon="-6.250160">
        <ele>1044</ele>
        <time>2022-12-03T20:44:06Z</time>
      </trkpt>
      <trkpt lat="40.451480" lon="-6.250440">
        <ele>1044</ele>
        <time>2022-12-03T20:44:10Z</time>
      </trkpt>
      <trkpt lat="40.451450" lon="-6.250760">
        <ele>1043</ele>
        <time>2022-12-03T20:44:15Z</time>
      </trkpt>
      <trkpt lat="40.451460" lon="-6.251160">
        <ele>1045</ele>
        <time>2022-12-03T20:44:20Z</time>
      </trkpt>
      <trkpt lat="40.451570" lon="-6.251880">
        <ele>1046</ele>
        <time>2022-12-03T20:44:30Z</time>
      </trkpt>
      <trkpt lat="40.451580" lon="-6.252340">
        <ele>1049</ele>
        <time>2022-12-03T20:44:36Z</time>
      </trkpt>
      <trkpt lat="40.451550" lon="-6.252660">
        <ele>1050</ele>
        <time>2022-12-03T20:44:41Z</time>
      </trkpt>
      <trkpt lat="40.451470" lon="-6.253100">
        <ele>1052</ele>
        <time>2022-12-03T20:44:47Z</time>
      </trkpt>
      <trkpt lat="40.451440" lon="-6.253440">
        <ele>1052</ele>
        <time>2022-12-03T20:44:51Z</time>
      </trkpt>
      <trkpt lat="40.451420" lon="-6.254060">
        <ele>1053</ele>
        <time>2022-12-03T20:45:00Z</time>
      </trkpt>
      <trkpt lat="40.451310" lon="-6.254490">
        <ele>1054</ele>
        <time>2022-12-03T20:45:06Z</time>
      </trkpt>
      <trkpt lat="40.450700" lon="-6.256210">
        <ele>1059</ele>
        <time>2022-12-03T20:45:32Z</time>
      </trkpt>
      <trkpt lat="40.450430" lon="-6.257050">
        <ele>1065</ele>
        <time>2022-12-03T20:45:44Z</time>
      </trkpt>
      <trkpt lat="40.450410" lon="-6.257170">
        <ele>1065</ele>
        <time>2022-12-03T20:45:46Z</time>
      </trkpt>
      <trkpt lat="40.450430" lon="-6.257510">
        <ele>1063</ele>
        <time>2022-12-03T20:45:50Z</time>
      </trkpt>
      <trkpt lat="40.450530" lon="-6.258030">
        <ele>1062</ele>
        <time>2022-12-03T20:45:57Z</time>
      </trkpt>
      <trkpt lat="40.450560" lon="-6.258310">
        <ele>1063</ele>
        <time>2022-12-03T20:46:01Z</time>
      </trkpt>
      <trkpt lat="40.450550" lon="-6.258460">
        <ele>1063</ele>
        <time>2022-12-03T20:46:03Z</time>
      </trkpt>
      <trkpt lat="40.450520" lon="-6.258610">
        <ele>1062</ele>
        <time>2022-12-03T20:46:05Z</time>
      </trkpt>
      <trkpt lat="40.449750" lon="-6.260300">
        <ele>1072</ele>
        <time>2022-12-03T20:46:32Z</time>
      </trkpt>
      <trkpt lat="40.449240" lon="-6.261250">
        <ele>1078</ele>
        <time>2022-12-03T20:46:48Z</time>
      </trkpt>
      <trkpt lat="40.448920" lon="-6.262620">
        <ele>1081</ele>
        <time>2022-12-03T20:47:07Z</time>
      </trkpt>
      <trkpt lat="40.448840" lon="-6.262800">
        <ele>1080</ele>
        <time>2022-12-03T20:47:10Z</time>
      </trkpt>
      <trkpt lat="40.448620" lon="-6.263010">
        <ele>1083</ele>
        <time>2022-12-03T20:47:15Z</time>
      </trkpt>
      <trkpt lat="40.448230" lon="-6.263260">
        <ele>1089</ele>
        <time>2022-12-03T20:47:23Z</time>
      </trkpt>
      <trkpt lat="40.448110" lon="-6.263370">
        <ele>1089</ele>
        <time>2022-12-03T20:47:25Z</time>
      </trkpt>
      <trkpt lat="40.447980" lon="-6.263660">
        <ele>1090</ele>
        <time>2022-12-03T20:47:30Z</time>
      </trkpt>
      <trkpt lat="40.447810" lon="-6.264870">
        <ele>1099</ele>
        <time>2022-12-03T20:47:46Z</time>
      </trkpt>
      <trkpt lat="40.447680" lon="-6.265490">
        <ele>1107</ele>
        <time>2022-12-03T20:47:55Z</time>
      </trkpt>
      <trkpt lat="40.447690" lon="-6.265790">
        <ele>1109</ele>
        <time>2022-12-03T20:47:59Z</time>
      </trkpt>
      <trkpt lat="40.447660" lon="-6.265850">
        <ele>1111</ele>
        <time>2022-12-03T20:48:00Z</time>
      </trkpt>
      <trkpt lat="40.447620" lon="-6.265850">
        <ele>1112</ele>
        <time>2022-12-03T20:48:01Z</time>
      </trkpt>
      <trkpt lat="40.447570" lon="-6.265800">
        <ele>1114</ele>
        <time>2022-12-03T20:48:02Z</time>
      </trkpt>
      <trkpt lat="40.447540" lon="-6.265690">
        <ele>1114</ele>
        <time>2022-12-03T20:48:04Z</time>
      </trkpt>
      <trkpt lat="40.447510" lon="-6.265080">
        <ele>1109</ele>
        <time>2022-12-03T20:48:12Z</time>
      </trkpt>
      <trkpt lat="40.447430" lon="-6.264840">
        <ele>1108</ele>
        <time>2022-12-03T20:48:15Z</time>
      </trkpt>
      <trkpt lat="40.447340" lon="-6.264670">
        <ele>1107</ele>
        <time>2022-12-03T20:48:18Z</time>
      </trkpt>
      <trkpt lat="40.447270" lon="-6.264630">
        <ele>1106</ele>
        <time>2022-12-03T20:48:20Z</time>
      </trkpt>
      <trkpt lat="40.447200" lon="-6.264650">
        <ele>1107</ele>
        <time>2022-12-03T20:48:21Z</time>
      </trkpt>
      <trkpt lat="40.447190" lon="-6.264760">
        <ele>1108</ele>
        <time>2022-12-03T20:48:22Z</time>
      </trkpt>
      <trkpt lat="40.447290" lon="-6.265060">
        <ele>1112</ele>
        <time>2022-12-03T20:48:27Z</time>
      </trkpt>
      <trkpt lat="40.447300" lon="-6.265730">
        <ele>1121</ele>
        <time>2022-12-03T20:48:36Z</time>
      </trkpt>
      <trkpt lat="40.447380" lon="-6.267040">
        <ele>1128</ele>
        <time>2022-12-03T20:48:54Z</time>
      </trkpt>
      <trkpt lat="40.447420" lon="-6.267210">
        <ele>1128</ele>
        <time>2022-12-03T20:48:56Z</time>
      </trkpt>
      <trkpt lat="40.447860" lon="-6.267940">
        <ele>1124</ele>
        <time>2022-12-03T20:49:09Z</time>
      </trkpt>
      <trkpt lat="40.448410" lon="-6.268860">
        <ele>1125</ele>
        <time>2022-12-03T20:49:24Z</time>
      </trkpt>
      <trkpt lat="40.448740" lon="-6.269490">
        <ele>1123</ele>
        <time>2022-12-03T20:49:35Z</time>
      </trkpt>
      <trkpt lat="40.448930" lon="-6.269670">
        <ele>1124</ele>
        <time>2022-12-03T20:49:39Z</time>
      </trkpt>
      <trkpt lat="40.449380" lon="-6.269910">
        <ele>1129</ele>
        <time>2022-12-03T20:49:48Z</time>
      </trkpt>
      <trkpt lat="40.449520" lon="-6.270030">
        <ele>1129</ele>
        <time>2022-12-03T20:49:51Z</time>
      </trkpt>
      <trkpt lat="40.449850" lon="-6.270420">
        <ele>1126</ele>
        <time>2022-12-03T20:49:59Z</time>
      </trkpt>
      <trkpt lat="40.450260" lon="-6.270820">
        <ele>1126</ele>
        <time>2022-12-03T20:50:08Z</time>
      </trkpt>
      <trkpt lat="40.450910" lon="-6.271250">
        <ele>1126</ele>
        <time>2022-12-03T20:50:21Z</time>
      </trkpt>
      <trkpt lat="40.451420" lon="-6.271650">
        <ele>1128</ele>
        <time>2022-12-03T20:50:31Z</time>
      </trkpt>
      <trkpt lat="40.452110" lon="-6.272250">
        <ele>1125</ele>
        <time>2022-12-03T20:50:46Z</time>
      </trkpt>
      <trkpt lat="40.453450" lon="-6.273530">
        <ele>1130</ele>
        <time>2022-12-03T20:51:15Z</time>
      </trkpt>
      <trkpt lat="40.453950" lon="-6.274080">
        <ele>1127</ele>
        <time>2022-12-03T20:51:27Z</time>
      </trkpt>
      <trkpt lat="40.454140" lon="-6.274210">
        <ele>1130</ele>
        <time>2022-12-03T20:51:31Z</time>
      </trkpt>
      <trkpt lat="40.454440" lon="-6.274310">
        <ele>1133</ele>
        <time>2022-12-03T20:51:36Z</time>
      </trkpt>
      <trkpt lat="40.454920" lon="-6.274660">
        <ele>1135</ele>
        <time>2022-12-03T20:51:46Z</time>
      </trkpt>
      <trkpt lat="40.455300" lon="-6.275060">
        <ele>1138</ele>
        <time>2022-12-03T20:51:55Z</time>
      </trkpt>
      <trkpt lat="40.455710" lon="-6.275640">
        <ele>1140</ele>
        <time>2022-12-03T20:52:05Z</time>
      </trkpt>
      <trkpt lat="40.456010" lon="-6.276130">
        <ele>1143</ele>
        <time>2022-12-03T20:52:14Z</time>
      </trkpt>
      <trkpt lat="40.456310" lon="-6.276700">
        <ele>1145</ele>
        <time>2022-12-03T20:52:23Z</time>
      </trkpt>
      <trkpt lat="40.456530" lon="-6.277380">
        <ele>1147</ele>
        <time>2022-12-03T20:52:33Z</time>
      </trkpt>
      <trkpt lat="40.456540" lon="-6.277660">
        <ele>1146</ele>
        <time>2022-12-03T20:52:37Z</time>
      </trkpt>
      <trkpt lat="40.456530" lon="-6.278070">
        <ele>1147</ele>
        <time>2022-12-03T20:52:43Z</time>
      </trkpt>
      <trkpt lat="40.456350" lon="-6.279080">
        <ele>1147</ele>
        <time>2022-12-03T20:52:57Z</time>
      </trkpt>
      <trkpt lat="40.456240" lon="-6.279570">
        <ele>1148</ele>
        <time>2022-12-03T20:53:04Z</time>
      </trkpt>
      <trkpt lat="40.456080" lon="-6.280060">
        <ele>1148</ele>
        <time>2022-12-03T20:53:11Z</time>
      </trkpt>
      <trkpt lat="40.456030" lon="-6.280320">
        <ele>1147</ele>
        <time>2022-12-03T20:53:14Z</time>
      </trkpt>
      <trkpt lat="40.455830" lon="-6.281850">
        <ele>1149</ele>
        <time>2022-12-03T20:53:35Z</time>
      </trkpt>
      <trkpt lat="40.455600" lon="-6.282910">
        <ele>1145</ele>
        <time>2022-12-03T20:53:50Z</time>
      </trkpt>
      <trkpt lat="40.455570" lon="-6.283200">
        <ele>1145</ele>
        <time>2022-12-03T20:53:54Z</time>
      </trkpt>
      <trkpt lat="40.455540" lon="-6.284030">
        <ele>1143</ele>
        <time>2022-12-03T20:54:06Z</time>
      </trkpt>
      <trkpt lat="40.455550" lon="-6.284560">
        <ele>1143</ele>
        <time>2022-12-03T20:54:13Z</time>
      </trkpt>
      <trkpt lat="40.455520" lon="-6.285160">
        <ele>1144</ele>
        <time>2022-12-03T20:54:21Z</time>
      </trkpt>
      <trkpt lat="40.455500" lon="-6.285280">
        <ele>1144</ele>
        <time>2022-12-03T20:54:23Z</time>
      </trkpt>
      <trkpt lat="40.455450" lon="-6.285390">
        <ele>1143</ele>
        <time>2022-12-03T20:54:24Z</time>
      </trkpt>
      <trkpt lat="40.454970" lon="-6.286160">
        <ele>1133</ele>
        <time>2022-12-03T20:54:38Z</time>
      </trkpt>
      <trkpt lat="40.454550" lon="-6.286900">
        <ele>1128</ele>
        <time>2022-12-03T20:54:50Z</time>
      </trkpt>
      <trkpt lat="40.454440" lon="-6.287040">
        <ele>1126</ele>
        <time>2022-12-03T20:54:53Z</time>
      </trkpt>
      <trkpt lat="40.454080" lon="-6.287340">
        <ele>1117</ele>
        <time>2022-12-03T20:55:01Z</time>
      </trkpt>
      <trkpt lat="40.453850" lon="-6.287590">
        <ele>1112</ele>
        <time>2022-12-03T20:55:06Z</time>
      </trkpt>
      <trkpt lat="40.453550" lon="-6.288060">
        <ele>1111</ele>
        <time>2022-12-03T20:55:14Z</time>
      </trkpt>
      <trkpt lat="40.453380" lon="-6.288250">
        <ele>1109</ele>
        <time>2022-12-03T20:55:18Z</time>
      </trkpt>
      <trkpt lat="40.452680" lon="-6.288880">
        <ele>1096</ele>
        <time>2022-12-03T20:55:33Z</time>
      </trkpt>
      <trkpt lat="40.452360" lon="-6.289260">
        <ele>1093</ele>
        <time>2022-12-03T20:55:41Z</time>
      </trkpt>
      <trkpt lat="40.452150" lon="-6.289640">
        <ele>1091</ele>
        <time>2022-12-03T20:55:47Z</time>
      </trkpt>
      <trkpt lat="40.452040" lon="-6.289900">
        <ele>1091</ele>
        <time>2022-12-03T20:55:51Z</time>
      </trkpt>
      <trkpt lat="40.451980" lon="-6.290170">
        <ele>1089</ele>
        <time>2022-12-03T20:55:55Z</time>
      </trkpt>
      <trkpt lat="40.451960" lon="-6.290340">
        <ele>1088</ele>
        <time>2022-12-03T20:55:57Z</time>
      </trkpt>
      <trkpt lat="40.451970" lon="-6.290550">
        <ele>1088</ele>
        <time>2022-12-03T20:56:00Z</time>
      </trkpt>
      <trkpt lat="40.452020" lon="-6.290800">
        <ele>1090</ele>
        <time>2022-12-03T20:56:04Z</time>
      </trkpt>
      <trkpt lat="40.452100" lon="-6.291050">
        <ele>1088</ele>
        <time>2022-12-03T20:56:07Z</time>
      </trkpt>
      <trkpt lat="40.452250" lon="-6.291350">
        <ele>1089</ele>
        <time>2022-12-03T20:56:12Z</time>
      </trkpt>
      <trkpt lat="40.452360" lon="-6.291540">
        <ele>1090</ele>
        <time>2022-12-03T20:56:16Z</time>
      </trkpt>
      <trkpt lat="40.452370" lon="-6.291690">
        <ele>1088</ele>
        <time>2022-12-03T20:56:18Z</time>
      </trkpt>
      <trkpt lat="40.452300" lon="-6.292550">
        <ele>1082</ele>
        <time>2022-12-03T20:56:29Z</time>
      </trkpt>
      <trkpt lat="40.452290" lon="-6.293620">
        <ele>1078</ele>
        <time>2022-12-03T20:56:44Z</time>
      </trkpt>
      <trkpt lat="40.452190" lon="-6.294680">
        <ele>1068</ele>
        <time>2022-12-03T20:56:58Z</time>
      </trkpt>
      <trkpt lat="40.452250" lon="-6.294830">
        <ele>1068</ele>
        <time>2022-12-03T20:57:01Z</time>
      </trkpt>
      <trkpt lat="40.452320" lon="-6.294890">
        <ele>1068</ele>
        <time>2022-12-03T20:57:02Z</time>
      </trkpt>
      <trkpt lat="40.452410" lon="-6.294910">
        <ele>1069</ele>
        <time>2022-12-03T20:57:04Z</time>
      </trkpt>
      <trkpt lat="40.452590" lon="-6.294820">
        <ele>1071</ele>
        <time>2022-12-03T20:57:07Z</time>
      </trkpt>
      <trkpt lat="40.452900" lon="-6.294780">
        <ele>1071</ele>
        <time>2022-12-03T20:57:13Z</time>
      </trkpt>
      <trkpt lat="40.453180" lon="-6.294780">
        <ele>1071</ele>
        <time>2022-12-03T20:57:18Z</time>
      </trkpt>
      <trkpt lat="40.453300" lon="-6.294810">
        <ele>1071</ele>
        <time>2022-12-03T20:57:20Z</time>
      </trkpt>
      <trkpt lat="40.453470" lon="-6.294860">
        <ele>1070</ele>
        <time>2022-12-03T20:57:23Z</time>
      </trkpt>
      <trkpt lat="40.453690" lon="-6.294980">
        <ele>1068</ele>
        <time>2022-12-03T20:57:27Z</time>
      </trkpt>
      <trkpt lat="40.454530" lon="-6.295520">
        <ele>1057</ele>
        <time>2022-12-03T20:57:44Z</time>
      </trkpt>
      <trkpt lat="40.454690" lon="-6.295590">
        <ele>1056</ele>
        <time>2022-12-03T20:57:47Z</time>
      </trkpt>
      <trkpt lat="40.454860" lon="-6.295610">
        <ele>1055</ele>
        <time>2022-12-03T20:57:50Z</time>
      </trkpt>
      <trkpt lat="40.455040" lon="-6.295570">
        <ele>1055</ele>
        <time>2022-12-03T20:57:53Z</time>
      </trkpt>
      <trkpt lat="40.455130" lon="-6.295520">
        <ele>1054</ele>
        <time>2022-12-03T20:57:55Z</time>
      </trkpt>
      <trkpt lat="40.455290" lon="-6.295380">
        <ele>1053</ele>
        <time>2022-12-03T20:57:58Z</time>
      </trkpt>
      <trkpt lat="40.455820" lon="-6.294770">
        <ele>1052</ele>
        <time>2022-12-03T20:58:11Z</time>
      </trkpt>
      <trkpt lat="40.455970" lon="-6.294620">
        <ele>1055</ele>
        <time>2022-12-03T20:58:14Z</time>
      </trkpt>
      <trkpt lat="40.456090" lon="-6.294570">
        <ele>1056</ele>
        <time>2022-12-03T20:58:16Z</time>
      </trkpt>
      <trkpt lat="40.456200" lon="-6.294570">
        <ele>1056</ele>
        <time>2022-12-03T20:58:18Z</time>
      </trkpt>
      <trkpt lat="40.456340" lon="-6.294600">
        <ele>1056</ele>
        <time>2022-12-03T20:58:21Z</time>
      </trkpt>
      <trkpt lat="40.456430" lon="-6.294670">
        <ele>1055</ele>
        <time>2022-12-03T20:58:23Z</time>
      </trkpt>
      <trkpt lat="40.456490" lon="-6.294760">
        <ele>1053</ele>
        <time>2022-12-03T20:58:24Z</time>
      </trkpt>
      <trkpt lat="40.456570" lon="-6.294900">
        <ele>1051</ele>
        <time>2022-12-03T20:58:27Z</time>
      </trkpt>
      <trkpt lat="40.456610" lon="-6.295040">
        <ele>1049</ele>
        <time>2022-12-03T20:58:29Z</time>
      </trkpt>
      <trkpt lat="40.456650" lon="-6.295260">
        <ele>1047</ele>
        <time>2022-12-03T20:58:32Z</time>
      </trkpt>
      <trkpt lat="40.456680" lon="-6.295850">
        <ele>1041</ele>
        <time>2022-12-03T20:58:40Z</time>
      </trkpt>
      <trkpt lat="40.456710" lon="-6.296100">
        <ele>1038</ele>
        <time>2022-12-03T20:58:43Z</time>
      </trkpt>
      <trkpt lat="40.456770" lon="-6.296320">
        <ele>1036</ele>
        <time>2022-12-03T20:58:46Z</time>
      </trkpt>
      <trkpt lat="40.456910" lon="-6.296560">
        <ele>1034</ele>
        <time>2022-12-03T20:58:50Z</time>
      </trkpt>
      <trkpt lat="40.457020" lon="-6.296690">
        <ele>1033</ele>
        <time>2022-12-03T20:58:53Z</time>
      </trkpt>
      <trkpt lat="40.457150" lon="-6.296790">
        <ele>1031</ele>
        <time>2022-12-03T20:58:56Z</time>
      </trkpt>
      <trkpt lat="40.457300" lon="-6.296870">
        <ele>1030</ele>
        <time>2022-12-03T20:58:59Z</time>
      </trkpt>
      <trkpt lat="40.457450" lon="-6.296890">
        <ele>1030</ele>
        <time>2022-12-03T20:59:01Z</time>
      </trkpt>
      <trkpt lat="40.457600" lon="-6.296880">
        <ele>1029</ele>
        <time>2022-12-03T20:59:04Z</time>
      </trkpt>
      <trkpt lat="40.457790" lon="-6.296820">
        <ele>1028</ele>
        <time>2022-12-03T20:59:08Z</time>
      </trkpt>
      <trkpt lat="40.458650" lon="-6.296430">
        <ele>1023</ele>
        <time>2022-12-03T20:59:24Z</time>
      </trkpt>
      <trkpt lat="40.458870" lon="-6.296270">
        <ele>1022</ele>
        <time>2022-12-03T20:59:28Z</time>
      </trkpt>
      <trkpt lat="40.459030" lon="-6.296090">
        <ele>1023</ele>
        <time>2022-12-03T20:59:32Z</time>
      </trkpt>
      <trkpt lat="40.459220" lon="-6.295820">
        <ele>1024</ele>
        <time>2022-12-03T20:59:37Z</time>
      </trkpt>
      <trkpt lat="40.459310" lon="-6.295710">
        <ele>1025</ele>
        <time>2022-12-03T20:59:39Z</time>
      </trkpt>
      <trkpt lat="40.459470" lon="-6.295580">
        <ele>1025</ele>
        <time>2022-12-03T20:59:42Z</time>
      </trkpt>
      <trkpt lat="40.459780" lon="-6.295390">
        <ele>1025</ele>
        <time>2022-12-03T20:59:49Z</time>
      </trkpt>
      <trkpt lat="40.459940" lon="-6.295310">
        <ele>1024</ele>
        <time>2022-12-03T20:59:52Z</time>
      </trkpt>
      <trkpt lat="40.460080" lon="-6.295270">
        <ele>1024</ele>
        <time>2022-12-03T20:59:54Z</time>
      </trkpt>
      <trkpt lat="40.460180" lon="-6.295270">
        <ele>1025</ele>
        <time>2022-12-03T20:59:56Z</time>
      </trkpt>
      <trkpt lat="40.460350" lon="-6.295320">
        <ele>1024</ele>
        <time>2022-12-03T20:59:59Z</time>
      </trkpt>
      <trkpt lat="40.460890" lon="-6.295680">
        <ele>1019</ele>
        <time>2022-12-03T21:00:10Z</time>
      </trkpt>
      <trkpt lat="40.460970" lon="-6.295780">
        <ele>1018</ele>
        <time>2022-12-03T21:00:12Z</time>
      </trkpt>
      <trkpt lat="40.461020" lon="-6.295890">
        <ele>1017</ele>
        <time>2022-12-03T21:00:13Z</time>
      </trkpt>
      <trkpt lat="40.461050" lon="-6.296030">
        <ele>1017</ele>
        <time>2022-12-03T21:00:15Z</time>
      </trkpt>
      <trkpt lat="40.461060" lon="-6.296210">
        <ele>1017</ele>
        <time>2022-12-03T21:00:18Z</time>
      </trkpt>
      <trkpt lat="40.461030" lon="-6.296360">
        <ele>1016</ele>
        <time>2022-12-03T21:00:20Z</time>
      </trkpt>
      <trkpt lat="40.460920" lon="-6.296650">
        <ele>1013</ele>
        <time>2022-12-03T21:00:24Z</time>
      </trkpt>
      <trkpt lat="40.460870" lon="-6.296820">
        <ele>1012</ele>
        <time>2022-12-03T21:00:27Z</time>
      </trkpt>
      <trkpt lat="40.460840" lon="-6.297060">
        <ele>1011</ele>
        <time>2022-12-03T21:00:30Z</time>
      </trkpt>
      <trkpt lat="40.460850" lon="-6.297920">
        <ele>1008</ele>
        <time>2022-12-03T21:00:42Z</time>
      </trkpt>
      <trkpt lat="40.460890" lon="-6.298150">
        <ele>1007</ele>
        <time>2022-12-03T21:00:45Z</time>
      </trkpt>
      <trkpt lat="40.460960" lon="-6.298340">
        <ele>1006</ele>
        <time>2022-12-03T21:00:48Z</time>
      </trkpt>
      <trkpt lat="40.461050" lon="-6.298520">
        <ele>1005</ele>
        <time>2022-12-03T21:00:51Z</time>
      </trkpt>
      <trkpt lat="40.461140" lon="-6.298640">
        <ele>1005</ele>
        <time>2022-12-03T21:00:53Z</time>
      </trkpt>
      <trkpt lat="40.461840" lon="-6.299450">
        <ele>1001</ele>
        <time>2022-12-03T21:01:10Z</time>
      </trkpt>
      <trkpt lat="40.461980" lon="-6.299680">
        <ele>999</ele>
        <time>2022-12-03T21:01:14Z</time>
      </trkpt>
      <trkpt lat="40.462150" lon="-6.300080">
        <ele>996</ele>
        <time>2022-12-03T21:01:20Z</time>
      </trkpt>
      <trkpt lat="40.462250" lon="-6.300210">
        <ele>996</ele>
        <time>2022-12-03T21:01:22Z</time>
      </trkpt>
      <trkpt lat="40.462360" lon="-6.300270">
        <ele>996</ele>
        <time>2022-12-03T21:01:24Z</time>
      </trkpt>
      <trkpt lat="40.462490" lon="-6.300300">
        <ele>997</ele>
        <time>2022-12-03T21:01:27Z</time>
      </trkpt>
      <trkpt lat="40.462610" lon="-6.300280">
        <ele>994</ele>
        <time>2022-12-03T21:01:29Z</time>
      </trkpt>
      <trkpt lat="40.462740" lon="-6.300200">
        <ele>991</ele>
        <time>2022-12-03T21:01:31Z</time>
      </trkpt>
      <trkpt lat="40.462860" lon="-6.300060">
        <ele>989</ele>
        <time>2022-12-03T21:01:34Z</time>
      </trkpt>
      <trkpt lat="40.462950" lon="-6.299850">
        <ele>988</ele>
        <time>2022-12-03T21:01:38Z</time>
      </trkpt>
      <trkpt lat="40.463080" lon="-6.299460">
        <ele>987</ele>
        <time>2022-12-03T21:01:43Z</time>
      </trkpt>
      <trkpt lat="40.463120" lon="-6.299250">
        <ele>987</ele>
        <time>2022-12-03T21:01:46Z</time>
      </trkpt>
      <trkpt lat="40.463150" lon="-6.298870">
        <ele>988</ele>
        <time>2022-12-03T21:01:51Z</time>
      </trkpt>
      <trkpt lat="40.463200" lon="-6.298670">
        <ele>987</ele>
        <time>2022-12-03T21:01:54Z</time>
      </trkpt>
      <trkpt lat="40.463260" lon="-6.298530">
        <ele>986</ele>
        <time>2022-12-03T21:01:56Z</time>
      </trkpt>
      <trkpt lat="40.463430" lon="-6.298320">
        <ele>982</ele>
        <time>2022-12-03T21:02:01Z</time>
      </trkpt>
      <trkpt lat="40.463780" lon="-6.298000">
        <ele>974</ele>
        <time>2022-12-03T21:02:08Z</time>
      </trkpt>
      <trkpt lat="40.463910" lon="-6.297830">
        <ele>972</ele>
        <time>2022-12-03T21:02:11Z</time>
      </trkpt>
      <trkpt lat="40.463980" lon="-6.297580">
        <ele>973</ele>
        <time>2022-12-03T21:02:15Z</time>
      </trkpt>
      <trkpt lat="40.464010" lon="-6.297360">
        <ele>974</ele>
        <time>2022-12-03T21:02:18Z</time>
      </trkpt>
      <trkpt lat="40.464010" lon="-6.296990">
        <ele>974</ele>
        <time>2022-12-03T21:02:23Z</time>
      </trkpt>
      <trkpt lat="40.464060" lon="-6.296750">
        <ele>972</ele>
        <time>2022-12-03T21:02:26Z</time>
      </trkpt>
      <trkpt lat="40.464120" lon="-6.296630">
        <ele>971</ele>
        <time>2022-12-03T21:02:28Z</time>
      </trkpt>
      <trkpt lat="40.464220" lon="-6.296520">
        <ele>970</ele>
        <time>2022-12-03T21:02:31Z</time>
      </trkpt>
      <trkpt lat="40.464310" lon="-6.296460">
        <ele>970</ele>
        <time>2022-12-03T21:02:33Z</time>
      </trkpt>
      <trkpt lat="40.464460" lon="-6.296410">
        <ele>969</ele>
        <time>2022-12-03T21:02:35Z</time>
      </trkpt>
      <trkpt lat="40.464590" lon="-6.296450">
        <ele>967</ele>
        <time>2022-12-03T21:02:38Z</time>
      </trkpt>
      <trkpt lat="40.464820" lon="-6.296570">
        <ele>963</ele>
        <time>2022-12-03T21:02:42Z</time>
      </trkpt>
      <trkpt lat="40.464970" lon="-6.296580">
        <ele>961</ele>
        <time>2022-12-03T21:02:45Z</time>
      </trkpt>
      <trkpt lat="40.465130" lon="-6.296540">
        <ele>959</ele>
        <time>2022-12-03T21:02:48Z</time>
      </trkpt>
      <trkpt lat="40.465240" lon="-6.296470">
        <ele>958</ele>
        <time>2022-12-03T21:02:50Z</time>
      </trkpt>
      <trkpt lat="40.465610" lon="-6.296030">
        <ele>958</ele>
        <time>2022-12-03T21:02:59Z</time>
      </trkpt>
      <trkpt lat="40.465750" lon="-6.295940">
        <ele>956</ele>
        <time>2022-12-03T21:03:01Z</time>
      </trkpt>
      <trkpt lat="40.465920" lon="-6.295890">
        <ele>954</ele>
        <time>2022-12-03T21:03:05Z</time>
      </trkpt>
      <trkpt lat="40.466050" lon="-6.295900">
        <ele>952</ele>
        <time>2022-12-03T21:03:07Z</time>
      </trkpt>
      <trkpt lat="40.466160" lon="-6.295940">
        <ele>950</ele>
        <time>2022-12-03T21:03:09Z</time>
      </trkpt>
      <trkpt lat="40.466270" lon="-6.296030">
        <ele>948</ele>
        <time>2022-12-03T21:03:11Z</time>
      </trkpt>
      <trkpt lat="40.466400" lon="-6.296190">
        <ele>946</ele>
        <time>2022-12-03T21:03:14Z</time>
      </trkpt>
      <trkpt lat="40.468500" lon="-6.299590">
        <ele>926</ele>
        <time>2022-12-03T21:04:14Z</time>
      </trkpt>
      <trkpt lat="40.468700" lon="-6.299830">
        <ele>925</ele>
        <time>2022-12-03T21:04:18Z</time>
      </trkpt>
      <trkpt lat="40.468860" lon="-6.299960">
        <ele>924</ele>
        <time>2022-12-03T21:04:22Z</time>
      </trkpt>
      <trkpt lat="40.469020" lon="-6.300050">
        <ele>923</ele>
        <time>2022-12-03T21:04:25Z</time>
      </trkpt>
      <trkpt lat="40.469540" lon="-6.300260">
        <ele>920</ele>
        <time>2022-12-03T21:04:35Z</time>
      </trkpt>
      <trkpt lat="40.469910" lon="-6.300490">
        <ele>918</ele>
        <time>2022-12-03T21:04:42Z</time>
      </trkpt>
      <trkpt lat="40.470050" lon="-6.300580">
        <ele>918</ele>
        <time>2022-12-03T21:04:45Z</time>
      </trkpt>
      <trkpt lat="40.470910" lon="-6.301370">
        <ele>916</ele>
        <time>2022-12-03T21:05:03Z</time>
      </trkpt>
      <trkpt lat="40.471100" lon="-6.301510">
        <ele>915</ele>
        <time>2022-12-03T21:05:07Z</time>
      </trkpt>
      <trkpt lat="40.471270" lon="-6.301610">
        <ele>915</ele>
        <time>2022-12-03T21:05:11Z</time>
      </trkpt>
      <trkpt lat="40.471900" lon="-6.301880">
        <ele>911</ele>
        <time>2022-12-03T21:05:22Z</time>
      </trkpt>
      <trkpt lat="40.472080" lon="-6.302030">
        <ele>910</ele>
        <time>2022-12-03T21:05:26Z</time>
      </trkpt>
      <trkpt lat="40.472280" lon="-6.302220">
        <ele>910</ele>
        <time>2022-12-03T21:05:31Z</time>
      </trkpt>
      <trkpt lat="40.472800" lon="-6.302930">
        <ele>907</ele>
        <time>2022-12-03T21:05:44Z</time>
      </trkpt>
      <trkpt lat="40.472960" lon="-6.303120">
        <ele>907</ele>
        <time>2022-12-03T21:05:48Z</time>
      </trkpt>
      <trkpt lat="40.473170" lon="-6.303330">
        <ele>907</ele>
        <time>2022-12-03T21:05:52Z</time>
      </trkpt>
      <trkpt lat="40.473370" lon="-6.303480">
        <ele>907</ele>
        <time>2022-12-03T21:05:56Z</time>
      </trkpt>
      <trkpt lat="40.473920" lon="-6.303800">
        <ele>906</ele>
        <time>2022-12-03T21:06:07Z</time>
      </trkpt>
      <trkpt lat="40.474080" lon="-6.303920">
        <ele>907</ele>
        <time>2022-12-03T21:06:10Z</time>
      </trkpt>
      <trkpt lat="40.474220" lon="-6.304070">
        <ele>909</ele>
        <time>2022-12-03T21:06:14Z</time>
      </trkpt>
      <trkpt lat="40.474400" lon="-6.304310">
        <ele>909</ele>
        <time>2022-12-03T21:06:18Z</time>
      </trkpt>
      <trkpt lat="40.476390" lon="-6.307610">
        <ele>890</ele>
        <time>2022-12-03T21:07:15Z</time>
      </trkpt>
      <trkpt lat="40.476520" lon="-6.307860">
        <ele>888</ele>
        <time>2022-12-03T21:07:19Z</time>
      </trkpt>
      <trkpt lat="40.476710" lon="-6.308410">
        <ele>889</ele>
        <time>2022-12-03T21:07:27Z</time>
      </trkpt>
      <trkpt lat="40.476780" lon="-6.308800">
        <ele>887</ele>
        <time>2022-12-03T21:07:33Z</time>
      </trkpt>
      <trkpt lat="40.476930" lon="-6.310170">
        <ele>884</ele>
        <time>2022-12-03T21:07:52Z</time>
      </trkpt>
      <trkpt lat="40.476910" lon="-6.310610">
        <ele>883</ele>
        <time>2022-12-03T21:07:58Z</time>
      </trkpt>
      <trkpt lat="40.476550" lon="-6.314030">
        <ele>876</ele>
        <time>2022-12-03T21:08:44Z</time>
      </trkpt>
      <trkpt lat="40.476550" lon="-6.314280">
        <ele>875</ele>
        <time>2022-12-03T21:08:48Z</time>
      </trkpt>
      <trkpt lat="40.476680" lon="-6.315030">
        <ele>872</ele>
        <time>2022-12-03T21:08:58Z</time>
      </trkpt>
      <trkpt lat="40.476690" lon="-6.315490">
        <ele>868</ele>
        <time>2022-12-03T21:09:04Z</time>
      </trkpt>
      <trkpt lat="40.476230" lon="-6.318300">
        <ele>858</ele>
        <time>2022-12-03T21:09:43Z</time>
      </trkpt>
      <trkpt lat="40.476200" lon="-6.318610">
        <ele>859</ele>
        <time>2022-12-03T21:09:48Z</time>
      </trkpt>
      <trkpt lat="40.476200" lon="-6.318870">
        <ele>859</ele>
        <time>2022-12-03T21:09:51Z</time>
      </trkpt>
      <trkpt lat="40.476250" lon="-6.319070">
        <ele>860</ele>
        <time>2022-12-03T21:09:54Z</time>
      </trkpt>
      <trkpt lat="40.476350" lon="-6.319360">
        <ele>858</ele>
        <time>2022-12-03T21:09:58Z</time>
      </trkpt>
      <trkpt lat="40.476460" lon="-6.319570">
        <ele>856</ele>
        <time>2022-12-03T21:10:02Z</time>
      </trkpt>
      <trkpt lat="40.476930" lon="-6.320320">
        <ele>845</ele>
        <time>2022-12-03T21:10:15Z</time>
      </trkpt>
      <trkpt lat="40.477080" lon="-6.320510">
        <ele>841</ele>
        <time>2022-12-03T21:10:18Z</time>
      </trkpt>
      <trkpt lat="40.477250" lon="-6.320610">
        <ele>839</ele>
        <time>2022-12-03T21:10:22Z</time>
      </trkpt>
      <trkpt lat="40.477430" lon="-6.320650">
        <ele>837</ele>
        <time>2022-12-03T21:10:25Z</time>
      </trkpt>
      <trkpt lat="40.477950" lon="-6.320600">
        <ele>834</ele>
        <time>2022-12-03T21:10:34Z</time>
      </trkpt>
      <trkpt lat="40.478210" lon="-6.320530">
        <ele>833</ele>
        <time>2022-12-03T21:10:39Z</time>
      </trkpt>
      <trkpt lat="40.478510" lon="-6.320360">
        <ele>832</ele>
        <time>2022-12-03T21:10:45Z</time>
      </trkpt>
      <trkpt lat="40.478730" lon="-6.320150">
        <ele>831</ele>
        <time>2022-12-03T21:10:50Z</time>
      </trkpt>
      <trkpt lat="40.479180" lon="-6.319480">
        <ele>829</ele>
        <time>2022-12-03T21:11:02Z</time>
      </trkpt>
      <trkpt lat="40.479330" lon="-6.319370">
        <ele>829</ele>
        <time>2022-12-03T21:11:05Z</time>
      </trkpt>
      <trkpt lat="40.479450" lon="-6.319360">
        <ele>829</ele>
        <time>2022-12-03T21:11:07Z</time>
      </trkpt>
      <trkpt lat="40.479550" lon="-6.319390">
        <ele>828</ele>
        <time>2022-12-03T21:11:09Z</time>
      </trkpt>
      <trkpt lat="40.479720" lon="-6.319580">
        <ele>826</ele>
        <time>2022-12-03T21:11:13Z</time>
      </trkpt>
      <trkpt lat="40.480550" lon="-6.320950">
        <ele>833</ele>
        <time>2022-12-03T21:11:36Z</time>
      </trkpt>
      <trkpt lat="40.480850" lon="-6.321690">
        <ele>834</ele>
        <time>2022-12-03T21:11:48Z</time>
      </trkpt>
      <trkpt lat="40.480910" lon="-6.321910">
        <ele>835</ele>
        <time>2022-12-03T21:11:51Z</time>
      </trkpt>
      <trkpt lat="40.480960" lon="-6.322160">
        <ele>834</ele>
        <time>2022-12-03T21:11:55Z</time>
      </trkpt>
      <trkpt lat="40.481050" lon="-6.323280">
        <ele>835</ele>
        <time>2022-12-03T21:12:10Z</time>
      </trkpt>
      <trkpt lat="40.481040" lon="-6.323810">
        <ele>834</ele>
        <time>2022-12-03T21:12:17Z</time>
      </trkpt>
      <trkpt lat="40.481010" lon="-6.324200">
        <ele>834</ele>
        <time>2022-12-03T21:12:22Z</time>
      </trkpt>
      <trkpt lat="40.480940" lon="-6.324640">
        <ele>833</ele>
        <time>2022-12-03T21:12:28Z</time>
      </trkpt>
      <trkpt lat="40.480750" lon="-6.325610">
        <ele>830</ele>
        <time>2022-12-03T21:12:42Z</time>
      </trkpt>
      <trkpt lat="40.480680" lon="-6.325780">
        <ele>829</ele>
        <time>2022-12-03T21:12:44Z</time>
      </trkpt>
      <trkpt lat="40.480610" lon="-6.325900">
        <ele>829</ele>
        <time>2022-12-03T21:12:47Z</time>
      </trkpt>
      <trkpt lat="40.480480" lon="-6.326030">
        <ele>828</ele>
        <time>2022-12-03T21:12:49Z</time>
      </trkpt>
      <trkpt lat="40.480210" lon="-6.326270">
        <ele>828</ele>
        <time>2022-12-03T21:12:55Z</time>
      </trkpt>
      <trkpt lat="40.480140" lon="-6.326380">
        <ele>828</ele>
        <time>2022-12-03T21:12:57Z</time>
      </trkpt>
      <trkpt lat="40.480080" lon="-6.326530">
        <ele>826</ele>
        <time>2022-12-03T21:12:59Z</time>
      </trkpt>
      <trkpt lat="40.480040" lon="-6.326730">
        <ele>825</ele>
        <time>2022-12-03T21:13:02Z</time>
      </trkpt>
      <trkpt lat="40.480040" lon="-6.326930">
        <ele>823</ele>
        <time>2022-12-03T21:13:05Z</time>
      </trkpt>
      <trkpt lat="40.479980" lon="-6.327410">
        <ele>820</ele>
        <time>2022-12-03T21:13:12Z</time>
      </trkpt>
      <trkpt lat="40.479890" lon="-6.327810">
        <ele>822</ele>
        <time>2022-12-03T21:13:17Z</time>
      </trkpt>
      <trkpt lat="40.479890" lon="-6.328000">
        <ele>821</ele>
        <time>2022-12-03T21:13:20Z</time>
      </trkpt>
      <trkpt lat="40.479920" lon="-6.328140">
        <ele>820</ele>
        <time>2022-12-03T21:13:22Z</time>
      </trkpt>
      <trkpt lat="40.479980" lon="-6.328270">
        <ele>818</ele>
        <time>2022-12-03T21:13:24Z</time>
      </trkpt>
      <trkpt lat="40.480050" lon="-6.328370">
        <ele>817</ele>
        <time>2022-12-03T21:13:26Z</time>
      </trkpt>
      <trkpt lat="40.480160" lon="-6.328450">
        <ele>818</ele>
        <time>2022-12-03T21:13:28Z</time>
      </trkpt>
      <trkpt lat="40.480300" lon="-6.328490">
        <ele>816</ele>
        <time>2022-12-03T21:13:30Z</time>
      </trkpt>
      <trkpt lat="40.480930" lon="-6.328380">
        <ele>806</ele>
        <time>2022-12-03T21:13:42Z</time>
      </trkpt>
      <trkpt lat="40.481060" lon="-6.328410">
        <ele>804</ele>
        <time>2022-12-03T21:13:44Z</time>
      </trkpt>
      <trkpt lat="40.481160" lon="-6.328470">
        <ele>803</ele>
        <time>2022-12-03T21:13:46Z</time>
      </trkpt>
      <trkpt lat="40.481250" lon="-6.328570">
        <ele>802</ele>
        <time>2022-12-03T21:13:48Z</time>
      </trkpt>
      <trkpt lat="40.481350" lon="-6.328730">
        <ele>801</ele>
        <time>2022-12-03T21:13:51Z</time>
      </trkpt>
      <trkpt lat="40.481370" lon="-6.329030">
        <ele>803</ele>
        <time>2022-12-03T21:13:55Z</time>
      </trkpt>
      <trkpt lat="40.481350" lon="-6.329360">
        <ele>805</ele>
        <time>2022-12-03T21:13:59Z</time>
      </trkpt>
      <trkpt lat="40.481360" lon="-6.329540">
        <ele>804</ele>
        <time>2022-12-03T21:14:02Z</time>
      </trkpt>
      <trkpt lat="40.481510" lon="-6.330150">
        <ele>799</ele>
        <time>2022-12-03T21:14:11Z</time>
      </trkpt>
      <trkpt lat="40.481550" lon="-6.330450">
        <ele>797</ele>
        <time>2022-12-03T21:14:15Z</time>
      </trkpt>
      <trkpt lat="40.481550" lon="-6.330930">
        <ele>796</ele>
        <time>2022-12-03T21:14:21Z</time>
      </trkpt>
      <trkpt lat="40.481580" lon="-6.331260">
        <ele>796</ele>
        <time>2022-12-03T21:14:26Z</time>
      </trkpt>
      <trkpt lat="40.481670" lon="-6.331580">
        <ele>793</ele>
        <time>2022-12-03T21:14:30Z</time>
      </trkpt>
      <trkpt lat="40.482140" lon="-6.333000">
        <ele>783</ele>
        <time>2022-12-03T21:14:51Z</time>
      </trkpt>
      <trkpt lat="40.482330" lon="-6.333740">
        <ele>778</ele>
        <time>2022-12-03T21:15:02Z</time>
      </trkpt>
      <trkpt lat="40.482460" lon="-6.334050">
        <ele>776</ele>
        <time>2022-12-03T21:15:07Z</time>
      </trkpt>
      <trkpt lat="40.482540" lon="-6.334180">
        <ele>774</ele>
        <time>2022-12-03T21:15:09Z</time>
      </trkpt>
      <trkpt lat="40.482720" lon="-6.334380">
        <ele>771</ele>
        <time>2022-12-03T21:15:13Z</time>
      </trkpt>
      <trkpt lat="40.482820" lon="-6.334460">
        <ele>769</ele>
        <time>2022-12-03T21:15:15Z</time>
      </trkpt>
      <trkpt lat="40.483050" lon="-6.334560">
        <ele>765</ele>
        <time>2022-12-03T21:15:20Z</time>
      </trkpt>
      <trkpt lat="40.483010" lon="-6.334980">
        <ele>764</ele>
        <time>2022-12-03T21:15:25Z</time>
      </trkpt>
      <trkpt lat="40.482910" lon="-6.335610">
        <ele>765</ele>
        <time>2022-12-03T21:15:34Z</time>
      </trkpt>
      <trkpt lat="40.482750" lon="-6.336280">
        <ele>765</ele>
        <time>2022-12-03T21:15:43Z</time>
      </trkpt>
      <trkpt lat="40.482710" lon="-6.336520">
        <ele>764</ele>
        <time>2022-12-03T21:15:47Z</time>
      </trkpt>
      <trkpt lat="40.482700" lon="-6.336760">
        <ele>764</ele>
        <time>2022-12-03T21:15:50Z</time>
      </trkpt>
      <trkpt lat="40.482750" lon="-6.337010">
        <ele>765</ele>
        <time>2022-12-03T21:15:54Z</time>
      </trkpt>
      <trkpt lat="40.482870" lon="-6.337310">
        <ele>764</ele>
        <time>2022-12-03T21:15:58Z</time>
      </trkpt>
      <trkpt lat="40.482940" lon="-6.337570">
        <ele>764</ele>
        <time>2022-12-03T21:16:02Z</time>
      </trkpt>
      <trkpt lat="40.482990" lon="-6.337880">
        <ele>764</ele>
        <time>2022-12-03T21:16:06Z</time>
      </trkpt>
      <trkpt lat="40.483000" lon="-6.338280">
        <ele>766</ele>
        <time>2022-12-03T21:16:12Z</time>
      </trkpt>
      <trkpt lat="40.482940" lon="-6.338580">
        <ele>767</ele>
        <time>2022-12-03T21:16:16Z</time>
      </trkpt>
      <trkpt lat="40.482790" lon="-6.338810">
        <ele>769</ele>
        <time>2022-12-03T21:16:20Z</time>
      </trkpt>
      <trkpt lat="40.482490" lon="-6.339190">
        <ele>772</ele>
        <time>2022-12-03T21:16:27Z</time>
      </trkpt>
      <trkpt lat="40.482300" lon="-6.339320">
        <ele>771</ele>
        <time>2022-12-03T21:16:31Z</time>
      </trkpt>
      <trkpt lat="40.482090" lon="-6.339350">
        <ele>772</ele>
        <time>2022-12-03T21:16:35Z</time>
      </trkpt>
      <trkpt lat="40.481570" lon="-6.339300">
        <ele>775</ele>
        <time>2022-12-03T21:16:44Z</time>
      </trkpt>
      <trkpt lat="40.481280" lon="-6.339350">
        <ele>776</ele>
        <time>2022-12-03T21:16:49Z</time>
      </trkpt>
      <trkpt lat="40.480990" lon="-6.339440">
        <ele>777</ele>
        <time>2022-12-03T21:16:55Z</time>
      </trkpt>
      <trkpt lat="40.479320" lon="-6.340820">
        <ele>783</ele>
        <time>2022-12-03T21:17:30Z</time>
      </trkpt>
      <trkpt lat="40.479120" lon="-6.341020">
        <ele>785</ele>
        <time>2022-12-03T21:17:34Z</time>
      </trkpt>
      <trkpt lat="40.478690" lon="-6.341670">
        <ele>789</ele>
        <time>2022-12-03T21:17:46Z</time>
      </trkpt>
      <trkpt lat="40.478420" lon="-6.342110">
        <ele>792</ele>
        <time>2022-12-03T21:17:53Z</time>
      </trkpt>
      <trkpt lat="40.478210" lon="-6.342590">
        <ele>794</ele>
        <time>2022-12-03T21:18:01Z</time>
      </trkpt>
      <trkpt lat="40.477980" lon="-6.343260">
        <ele>797</ele>
        <time>2022-12-03T21:18:11Z</time>
      </trkpt>
      <trkpt lat="40.477770" lon="-6.343720">
        <ele>797</ele>
        <time>2022-12-03T21:18:18Z</time>
      </trkpt>
      <trkpt lat="40.477530" lon="-6.344170">
        <ele>795</ele>
        <time>2022-12-03T21:18:26Z</time>
      </trkpt>
      <trkpt lat="40.476490" lon="-6.345790">
        <ele>786</ele>
        <time>2022-12-03T21:18:54Z</time>
      </trkpt>
      <trkpt lat="40.476010" lon="-6.346730">
        <ele>782</ele>
        <time>2022-12-03T21:19:10Z</time>
      </trkpt>
      <trkpt lat="40.475810" lon="-6.347260">
        <ele>781</ele>
        <time>2022-12-03T21:19:18Z</time>
      </trkpt>
      <trkpt lat="40.475650" lon="-6.347800">
        <ele>780</ele>
        <time>2022-12-03T21:19:26Z</time>
      </trkpt>
      <trkpt lat="40.475430" lon="-6.348620">
        <ele>778</ele>
        <time>2022-12-03T21:19:37Z</time>
      </trkpt>
      <trkpt lat="40.475190" lon="-6.349220">
        <ele>776</ele>
        <time>2022-12-03T21:19:46Z</time>
      </trkpt>
      <trkpt lat="40.475030" lon="-6.349540">
        <ele>775</ele>
        <time>2022-12-03T21:19:52Z</time>
      </trkpt>
      <trkpt lat="40.474710" lon="-6.349980">
        <ele>773</ele>
        <time>2022-12-03T21:20:00Z</time>
      </trkpt>
      <trkpt lat="40.474430" lon="-6.350340">
        <ele>773</ele>
        <time>2022-12-03T21:20:07Z</time>
      </trkpt>
      <trkpt lat="40.473980" lon="-6.351420">
        <ele>775</ele>
        <time>2022-12-03T21:20:24Z</time>
      </trkpt>
      <trkpt lat="40.473760" lon="-6.352570">
        <ele>778</ele>
        <time>2022-12-03T21:20:40Z</time>
      </trkpt>
      <trkpt lat="40.473760" lon="-6.352860">
        <ele>779</ele>
        <time>2022-12-03T21:20:43Z</time>
      </trkpt>
      <trkpt lat="40.473790" lon="-6.353130">
        <ele>780</ele>
        <time>2022-12-03T21:20:47Z</time>
      </trkpt>
      <trkpt lat="40.473860" lon="-6.353310">
        <ele>781</ele>
        <time>2022-12-03T21:20:50Z</time>
      </trkpt>
      <trkpt lat="40.474070" lon="-6.353620">
        <ele>782</ele>
        <time>2022-12-03T21:20:56Z</time>
      </trkpt>
      <trkpt lat="40.474840" lon="-6.354450">
        <ele>786</ele>
        <time>2022-12-03T21:21:13Z</time>
      </trkpt>
      <trkpt lat="40.475660" lon="-6.355510">
        <ele>791</ele>
        <time>2022-12-03T21:21:34Z</time>
      </trkpt>
      <trkpt lat="40.476030" lon="-6.356130">
        <ele>794</ele>
        <time>2022-12-03T21:21:44Z</time>
      </trkpt>
      <trkpt lat="40.476330" lon="-6.356590">
        <ele>795</ele>
        <time>2022-12-03T21:21:53Z</time>
      </trkpt>
      <trkpt lat="40.476800" lon="-6.357040">
        <ele>793</ele>
        <time>2022-12-03T21:22:03Z</time>
      </trkpt>
      <trkpt lat="40.477160" lon="-6.357500">
        <ele>793</ele>
        <time>2022-12-03T21:22:12Z</time>
      </trkpt>
      <trkpt lat="40.477350" lon="-6.357780">
        <ele>793</ele>
        <time>2022-12-03T21:22:17Z</time>
      </trkpt>
      <trkpt lat="40.477560" lon="-6.358200">
        <ele>794</ele>
        <time>2022-12-03T21:22:24Z</time>
      </trkpt>
      <trkpt lat="40.477630" lon="-6.358410">
        <ele>794</ele>
        <time>2022-12-03T21:22:27Z</time>
      </trkpt>
      <trkpt lat="40.477660" lon="-6.358710">
        <ele>795</ele>
        <time>2022-12-03T21:22:31Z</time>
      </trkpt>
      <trkpt lat="40.477620" lon="-6.358880">
        <ele>795</ele>
        <time>2022-12-03T21:22:33Z</time>
      </trkpt>
      <trkpt lat="40.477480" lon="-6.359280">
        <ele>795</ele>
        <time>2022-12-03T21:22:39Z</time>
      </trkpt>
      <trkpt lat="40.477210" lon="-6.360180">
        <ele>795</ele>
        <time>2022-12-03T21:22:52Z</time>
      </trkpt>
      <trkpt lat="40.477240" lon="-6.360800">
        <ele>795</ele>
        <time>2022-12-03T21:23:01Z</time>
      </trkpt>
      <trkpt lat="40.477240" lon="-6.361460">
        <ele>795</ele>
        <time>2022-12-03T21:23:10Z</time>
      </trkpt>
      <trkpt lat="40.476980" lon="-6.362380">
        <ele>795</ele>
        <time>2022-12-03T21:23:23Z</time>
      </trkpt>
      <trkpt lat="40.476690" lon="-6.363470">
        <ele>796</ele>
        <time>2022-12-03T21:23:39Z</time>
      </trkpt>
      <trkpt lat="40.476530" lon="-6.364410">
        <ele>797</ele>
        <time>2022-12-03T21:23:52Z</time>
      </trkpt>
      <trkpt lat="40.476280" lon="-6.365470">
        <ele>801</ele>
        <time>2022-12-03T21:24:07Z</time>
      </trkpt>
      <trkpt lat="40.475670" lon="-6.367540">
        <ele>805</ele>
        <time>2022-12-03T21:24:37Z</time>
      </trkpt>
      <trkpt lat="40.475440" lon="-6.368220">
        <ele>804</ele>
        <time>2022-12-03T21:24:47Z</time>
      </trkpt>
      <trkpt lat="40.475270" lon="-6.368470">
        <ele>804</ele>
        <time>2022-12-03T21:24:51Z</time>
      </trkpt>
      <trkpt lat="40.474750" lon="-6.368840">
        <ele>806</ele>
        <time>2022-12-03T21:25:02Z</time>
      </trkpt>
      <trkpt lat="40.474050" lon="-6.369290">
        <ele>808</ele>
        <time>2022-12-03T21:25:16Z</time>
      </trkpt>
      <trkpt lat="40.473740" lon="-6.369420">
        <ele>810</ele>
        <time>2022-12-03T21:25:22Z</time>
      </trkpt>
      <trkpt lat="40.473170" lon="-6.369380">
        <ele>810</ele>
        <time>2022-12-03T21:25:32Z</time>
      </trkpt>
      <trkpt lat="40.472680" lon="-6.369260">
        <ele>808</ele>
        <time>2022-12-03T21:25:41Z</time>
      </trkpt>
      <trkpt lat="40.472330" lon="-6.368960">
        <ele>804</ele>
        <time>2022-12-03T21:25:48Z</time>
      </trkpt>
      <trkpt lat="40.471860" lon="-6.367630">
        <ele>805</ele>
        <time>2022-12-03T21:26:08Z</time>
      </trkpt>
      <trkpt lat="40.471710" lon="-6.367540">
        <ele>806</ele>
        <time>2022-12-03T21:26:11Z</time>
      </trkpt>
      <trkpt lat="40.471610" lon="-6.367650">
        <ele>804</ele>
        <time>2022-12-03T21:26:13Z</time>
      </trkpt>
      <trkpt lat="40.471610" lon="-6.368870">
        <ele>795</ele>
        <time>2022-12-03T21:26:30Z</time>
      </trkpt>
      <trkpt lat="40.471750" lon="-6.369330">
        <ele>795</ele>
        <time>2022-12-03T21:26:36Z</time>
      </trkpt>
      <trkpt lat="40.471840" lon="-6.369730">
        <ele>795</ele>
        <time>2022-12-03T21:26:42Z</time>
      </trkpt>
      <trkpt lat="40.471750" lon="-6.369780">
        <ele>793</ele>
        <time>2022-12-03T21:26:44Z</time>
      </trkpt>
      <trkpt lat="40.471010" lon="-6.368840">
        <ele>782</ele>
        <time>2022-12-03T21:27:02Z</time>
      </trkpt>
      <trkpt lat="40.470670" lon="-6.368250">
        <ele>781</ele>
        <time>2022-12-03T21:27:12Z</time>
      </trkpt>
      <trkpt lat="40.470150" lon="-6.367820">
        <ele>779</ele>
        <time>2022-12-03T21:27:23Z</time>
      </trkpt>
      <trkpt lat="40.469960" lon="-6.367790">
        <ele>778</ele>
        <time>2022-12-03T21:27:26Z</time>
      </trkpt>
      <trkpt lat="40.469770" lon="-6.367910">
        <ele>777</ele>
        <time>2022-12-03T21:27:30Z</time>
      </trkpt>
      <trkpt lat="40.469590" lon="-6.368470">
        <ele>768</ele>
        <time>2022-12-03T21:27:38Z</time>
      </trkpt>
      <trkpt lat="40.469440" lon="-6.368640">
        <ele>765</ele>
        <time>2022-12-03T21:27:42Z</time>
      </trkpt>
      <trkpt lat="40.469210" lon="-6.368750">
        <ele>763</ele>
        <time>2022-12-03T21:27:46Z</time>
      </trkpt>
      <trkpt lat="40.468850" lon="-6.368840">
        <ele>760</ele>
        <time>2022-12-03T21:27:53Z</time>
      </trkpt>
      <trkpt lat="40.468490" lon="-6.368820">
        <ele>759</ele>
        <time>2022-12-03T21:27:59Z</time>
      </trkpt>
      <trkpt lat="40.468380" lon="-6.368890">
        <ele>757</ele>
        <time>2022-12-03T21:28:01Z</time>
      </trkpt>
      <trkpt lat="40.468220" lon="-6.369220">
        <ele>749</ele>
        <time>2022-12-03T21:28:07Z</time>
      </trkpt>
      <trkpt lat="40.468030" lon="-6.369260">
        <ele>747</ele>
        <time>2022-12-03T21:28:10Z</time>
      </trkpt>
      <trkpt lat="40.467770" lon="-6.369190">
        <ele>747</ele>
        <time>2022-12-03T21:28:15Z</time>
      </trkpt>
      <trkpt lat="40.467510" lon="-6.369010">
        <ele>749</ele>
        <time>2022-12-03T21:28:20Z</time>
      </trkpt>
      <trkpt lat="40.466930" lon="-6.369070">
        <ele>744</ele>
        <time>2022-12-03T21:28:30Z</time>
      </trkpt>
      <trkpt lat="40.466530" lon="-6.369020">
        <ele>741</ele>
        <time>2022-12-03T21:28:38Z</time>
      </trkpt>
      <trkpt lat="40.466300" lon="-6.368910">
        <ele>740</ele>
        <time>2022-12-03T21:28:42Z</time>
      </trkpt>
      <trkpt lat="40.466190" lon="-6.368760">
        <ele>739</ele>
        <time>2022-12-03T21:28:45Z</time>
      </trkpt>
      <trkpt lat="40.466140" lon="-6.368580">
        <ele>739</ele>
        <time>2022-12-03T21:28:47Z</time>
      </trkpt>
      <trkpt lat="40.466080" lon="-6.368240">
        <ele>739</ele>
        <time>2022-12-03T21:28:52Z</time>
      </trkpt>
      <trkpt lat="40.466010" lon="-6.368110">
        <ele>739</ele>
        <time>2022-12-03T21:28:54Z</time>
      </trkpt>
      <trkpt lat="40.465780" lon="-6.368010">
        <ele>738</ele>
        <time>2022-12-03T21:28:58Z</time>
      </trkpt>
      <trkpt lat="40.465520" lon="-6.367920">
        <ele>740</ele>
        <time>2022-12-03T21:29:03Z</time>
      </trkpt>
      <trkpt lat="40.463920" lon="-6.368280">
        <ele>745</ele>
        <time>2022-12-03T21:29:32Z</time>
      </trkpt>
      <trkpt lat="40.462930" lon="-6.368310">
        <ele>745</ele>
        <time>2022-12-03T21:29:50Z</time>
      </trkpt>
      <trkpt lat="40.462760" lon="-6.368430">
        <ele>746</ele>
        <time>2022-12-03T21:29:53Z</time>
      </trkpt>
      <trkpt lat="40.462700" lon="-6.368470">
        <ele>746</ele>
        <time>2022-12-03T21:29:54Z</time>
      </trkpt>
      <trkpt lat="40.462370" lon="-6.368430">
        <ele>746</ele>
        <time>2022-12-03T21:30:00Z</time>
      </trkpt>
      <trkpt lat="40.462050" lon="-6.368450">
        <ele>748</ele>
        <time>2022-12-03T21:30:06Z</time>
      </trkpt>
      <trkpt lat="40.461760" lon="-6.368620">
        <ele>751</ele>
        <time>2022-12-03T21:30:12Z</time>
      </trkpt>
      <trkpt lat="40.461360" lon="-6.368970">
        <ele>755</ele>
        <time>2022-12-03T21:30:20Z</time>
      </trkpt>
      <trkpt lat="40.461080" lon="-6.369210">
        <ele>755</ele>
        <time>2022-12-03T21:30:26Z</time>
      </trkpt>
      <trkpt lat="40.460940" lon="-6.369290">
        <ele>754</ele>
        <time>2022-12-03T21:30:29Z</time>
      </trkpt>
      <trkpt lat="40.460600" lon="-6.369410">
        <ele>756</ele>
        <time>2022-12-03T21:30:35Z</time>
      </trkpt>
      <trkpt lat="40.460200" lon="-6.369600">
        <ele>758</ele>
        <time>2022-12-03T21:30:43Z</time>
      </trkpt>
      <trkpt lat="40.459310" lon="-6.370240">
        <ele>760</ele>
        <time>2022-12-03T21:31:01Z</time>
      </trkpt>
      <trkpt lat="40.459060" lon="-6.370460">
        <ele>761</ele>
        <time>2022-12-03T21:31:06Z</time>
      </trkpt>
      <trkpt lat="40.458770" lon="-6.370820">
        <ele>761</ele>
        <time>2022-12-03T21:31:13Z</time>
      </trkpt>
      <trkpt lat="40.458040" lon="-6.371400">
        <ele>768</ele>
        <time>2022-12-03T21:31:28Z</time>
      </trkpt>
      <trkpt lat="40.457530" lon="-6.371730">
        <ele>769</ele>
        <time>2022-12-03T21:31:38Z</time>
      </trkpt>
      <trkpt lat="40.456310" lon="-6.372660">
        <ele>776</ele>
        <time>2022-12-03T21:32:04Z</time>
      </trkpt>
      <trkpt lat="40.455890" lon="-6.372880">
        <ele>779</ele>
        <time>2022-12-03T21:32:12Z</time>
      </trkpt>
      <trkpt lat="40.455640" lon="-6.372990">
        <ele>781</ele>
        <time>2022-12-03T21:32:16Z</time>
      </trkpt>
      <trkpt lat="40.455420" lon="-6.373140">
        <ele>782</ele>
        <time>2022-12-03T21:32:21Z</time>
      </trkpt>
      <trkpt lat="40.454960" lon="-6.373550">
        <ele>787</ele>
        <time>2022-12-03T21:32:31Z</time>
      </trkpt>
      <trkpt lat="40.454560" lon="-6.374040">
        <ele>796</ele>
        <time>2022-12-03T21:32:40Z</time>
      </trkpt>
      <trkpt lat="40.454050" lon="-6.374790">
        <ele>803</ele>
        <time>2022-12-03T21:32:54Z</time>
      </trkpt>
      <trkpt lat="40.453630" lon="-6.375310">
        <ele>811</ele>
        <time>2022-12-03T21:33:04Z</time>
      </trkpt>
      <trkpt lat="40.453400" lon="-6.375640">
        <ele>814</ele>
        <time>2022-12-03T21:33:10Z</time>
      </trkpt>
      <trkpt lat="40.453100" lon="-6.376150">
        <ele>821</ele>
        <time>2022-12-03T21:33:19Z</time>
      </trkpt>
      <trkpt lat="40.452940" lon="-6.376470">
        <ele>824</ele>
        <time>2022-12-03T21:33:24Z</time>
      </trkpt>
      <trkpt lat="40.452720" lon="-6.377440">
        <ele>825</ele>
        <time>2022-12-03T21:33:38Z</time>
      </trkpt>
      <trkpt lat="40.452580" lon="-6.377940">
        <ele>823</ele>
        <time>2022-12-03T21:33:45Z</time>
      </trkpt>
      <trkpt lat="40.452260" lon="-6.378590">
        <ele>820</ele>
        <time>2022-12-03T21:33:56Z</time>
      </trkpt>
      <trkpt lat="40.451940" lon="-6.379380">
        <ele>816</ele>
        <time>2022-12-03T21:34:08Z</time>
      </trkpt>
      <trkpt lat="40.451690" lon="-6.379690">
        <ele>814</ele>
        <time>2022-12-03T21:34:14Z</time>
      </trkpt>
      <trkpt lat="40.451430" lon="-6.379990">
        <ele>812</ele>
        <time>2022-12-03T21:34:20Z</time>
      </trkpt>
      <trkpt lat="40.451150" lon="-6.380360">
        <ele>813</ele>
        <time>2022-12-03T21:34:27Z</time>
      </trkpt>
      <trkpt lat="40.450850" lon="-6.380910">
        <ele>813</ele>
        <time>2022-12-03T21:34:36Z</time>
      </trkpt>
      <trkpt lat="40.450490" lon="-6.381980">
        <ele>821</ele>
        <time>2022-12-03T21:34:52Z</time>
      </trkpt>
      <trkpt lat="40.450330" lon="-6.382400">
        <ele>823</ele>
        <time>2022-12-03T21:34:58Z</time>
      </trkpt>
      <trkpt lat="40.450200" lon="-6.382630">
        <ele>824</ele>
        <time>2022-12-03T21:35:02Z</time>
      </trkpt>
      <trkpt lat="40.449270" lon="-6.383690">
        <ele>831</ele>
        <time>2022-12-03T21:35:24Z</time>
      </trkpt>
      <trkpt lat="40.449060" lon="-6.384000">
        <ele>834</ele>
        <time>2022-12-03T21:35:30Z</time>
      </trkpt>
      <trkpt lat="40.448490" lon="-6.385120">
        <ele>840</ele>
        <time>2022-12-03T21:35:48Z</time>
      </trkpt>
      <trkpt lat="40.448290" lon="-6.385450">
        <ele>840</ele>
        <time>2022-12-03T21:35:54Z</time>
      </trkpt>
      <trkpt lat="40.448010" lon="-6.385760">
        <ele>841</ele>
        <time>2022-12-03T21:36:00Z</time>
      </trkpt>
      <trkpt lat="40.447690" lon="-6.386030">
        <ele>840</ele>
        <time>2022-12-03T21:36:07Z</time>
      </trkpt>
      <trkpt lat="40.447370" lon="-6.386370">
        <ele>838</ele>
        <time>2022-12-03T21:36:14Z</time>
      </trkpt>
      <trkpt lat="40.447210" lon="-6.386630">
        <ele>837</ele>
        <time>2022-12-03T21:36:19Z</time>
      </trkpt>
      <trkpt lat="40.446680" lon="-6.387890">
        <ele>822</ele>
        <time>2022-12-03T21:36:38Z</time>
      </trkpt>
      <trkpt lat="40.446460" lon="-6.388150">
        <ele>818</ele>
        <time>2022-12-03T21:36:44Z</time>
      </trkpt>
      <trkpt lat="40.446230" lon="-6.388370">
        <ele>814</ele>
        <time>2022-12-03T21:36:49Z</time>
      </trkpt>
      <trkpt lat="40.445890" lon="-6.388580">
        <ele>810</ele>
        <time>2022-12-03T21:36:55Z</time>
      </trkpt>
      <trkpt lat="40.445540" lon="-6.388760">
        <ele>809</ele>
        <time>2022-12-03T21:37:02Z</time>
      </trkpt>
      <trkpt lat="40.444790" lon="-6.389740">
        <ele>797</ele>
        <time>2022-12-03T21:37:21Z</time>
      </trkpt>
      <trkpt lat="40.444020" lon="-6.390390">
        <ele>788</ele>
        <time>2022-12-03T21:37:37Z</time>
      </trkpt>
      <trkpt lat="40.443890" lon="-6.390560">
        <ele>787</ele>
        <time>2022-12-03T21:37:40Z</time>
      </trkpt>
      <trkpt lat="40.443840" lon="-6.390810">
        <ele>787</ele>
        <time>2022-12-03T21:37:44Z</time>
      </trkpt>
      <trkpt lat="40.443950" lon="-6.392010">
        <ele>792</ele>
        <time>2022-12-03T21:38:00Z</time>
      </trkpt>
      <trkpt lat="40.443920" lon="-6.392220">
        <ele>792</ele>
        <time>2022-12-03T21:38:03Z</time>
      </trkpt>
      <trkpt lat="40.443530" lon="-6.392960">
        <ele>792</ele>
        <time>2022-12-03T21:38:15Z</time>
      </trkpt>
      <trkpt lat="40.443290" lon="-6.393250">
        <ele>790</ele>
        <time>2022-12-03T21:38:21Z</time>
      </trkpt>
      <trkpt lat="40.443060" lon="-6.393680">
        <ele>791</ele>
        <time>2022-12-03T21:38:28Z</time>
      </trkpt>
      <trkpt lat="40.442740" lon="-6.394210">
        <ele>790</ele>
        <time>2022-12-03T21:38:37Z</time>
      </trkpt>
      <trkpt lat="40.442100" lon="-6.395100">
        <ele>786</ele>
        <time>2022-12-03T21:38:54Z</time>
      </trkpt>
      <trkpt lat="40.442060" lon="-6.395240">
        <ele>785</ele>
        <time>2022-12-03T21:38:56Z</time>
      </trkpt>
      <trkpt lat="40.441900" lon="-6.395250">
        <ele>782</ele>
        <time>2022-12-03T21:38:59Z</time>
      </trkpt>
      <trkpt lat="40.441900" lon="-6.395580">
        <ele>780</ele>
        <time>2022-12-03T21:39:03Z</time>
      </trkpt>
      <trkpt lat="40.442140" lon="-6.396030">
        <ele>778</ele>
        <time>2022-12-03T21:39:11Z</time>
      </trkpt>
      <trkpt lat="40.442240" lon="-6.396160">
        <ele>777</ele>
        <time>2022-12-03T21:39:13Z</time>
      </trkpt>
      <trkpt lat="40.442330" lon="-6.396400">
        <ele>775</ele>
        <time>2022-12-03T21:39:17Z</time>
      </trkpt>
      <trkpt lat="40.442310" lon="-6.396500">
        <ele>774</ele>
        <time>2022-12-03T21:39:18Z</time>
      </trkpt>
      <trkpt lat="40.442370" lon="-6.396640">
        <ele>772</ele>
        <time>2022-12-03T21:39:21Z</time>
      </trkpt>
      <trkpt lat="40.442330" lon="-6.396640">
        <ele>772</ele>
        <time>2022-12-03T21:39:21Z</time>
      </trkpt>
      <trkpt lat="40.442360" lon="-6.396760">
        <ele>772</ele>
        <time>2022-12-03T21:39:23Z</time>
      </trkpt>
      <trkpt lat="40.442300" lon="-6.397000">
        <ele>772</ele>
        <time>2022-12-03T21:39:26Z</time>
      </trkpt>
      <trkpt lat="40.442340" lon="-6.397130">
        <ele>772</ele>
        <time>2022-12-03T21:39:28Z</time>
      </trkpt>
      <trkpt lat="40.442380" lon="-6.397180">
        <ele>772</ele>
        <time>2022-12-03T21:39:29Z</time>
      </trkpt>
      <trkpt lat="40.442400" lon="-6.397180">
        <ele>772</ele>
        <time>2022-12-03T21:39:30Z</time>
      </trkpt>
      <trkpt lat="40.442420" lon="-6.397270">
        <ele>772</ele>
        <time>2022-12-03T21:39:31Z</time>
      </trkpt>
      <trkpt lat="40.442570" lon="-6.397790">
        <ele>770</ele>
        <time>2022-12-03T21:39:38Z</time>
      </trkpt>
      <trkpt lat="40.442780" lon="-6.398020">
        <ele>772</ele>
        <time>2022-12-03T21:39:43Z</time>
      </trkpt>
      <trkpt lat="40.442860" lon="-6.398150">
        <ele>773</ele>
        <time>2022-12-03T21:39:46Z</time>
      </trkpt>
      <trkpt lat="40.443070" lon="-6.398660">
        <ele>771</ele>
        <time>2022-12-03T21:39:53Z</time>
      </trkpt>
      <trkpt lat="40.443140" lon="-6.398760">
        <ele>770</ele>
        <time>2022-12-03T21:39:55Z</time>
      </trkpt>
      <trkpt lat="40.443960" lon="-6.399540">
        <ele>769</ele>
        <time>2022-12-03T21:40:13Z</time>
      </trkpt>
      <trkpt lat="40.444060" lon="-6.399690">
        <ele>768</ele>
        <time>2022-12-03T21:40:16Z</time>
      </trkpt>
      <trkpt lat="40.444450" lon="-6.400100">
        <ele>769</ele>
        <time>2022-12-03T21:40:25Z</time>
      </trkpt>
      <trkpt lat="40.444620" lon="-6.400310">
        <ele>772</ele>
        <time>2022-12-03T21:40:29Z</time>
      </trkpt>
      <trkpt lat="40.444670" lon="-6.400420">
        <ele>772</ele>
        <time>2022-12-03T21:40:31Z</time>
      </trkpt>
      <trkpt lat="40.444750" lon="-6.400970">
        <ele>771</ele>
        <time>2022-12-03T21:40:38Z</time>
      </trkpt>
      <trkpt lat="40.444750" lon="-6.401110">
        <ele>770</ele>
        <time>2022-12-03T21:40:40Z</time>
      </trkpt>
      <trkpt lat="40.444690" lon="-6.401500">
        <ele>767</ele>
        <time>2022-12-03T21:40:46Z</time>
      </trkpt>
      <trkpt lat="40.444830" lon="-6.402750">
        <ele>764</ele>
        <time>2022-12-03T21:41:03Z</time>
      </trkpt>
      <trkpt lat="40.444880" lon="-6.402910">
        <ele>765</ele>
        <time>2022-12-03T21:41:05Z</time>
      </trkpt>
      <trkpt lat="40.444950" lon="-6.402960">
        <ele>766</ele>
        <time>2022-12-03T21:41:06Z</time>
      </trkpt>
      <trkpt lat="40.445060" lon="-6.403020">
        <ele>767</ele>
        <time>2022-12-03T21:41:09Z</time>
      </trkpt>
      <trkpt lat="40.445140" lon="-6.403120">
        <ele>769</ele>
        <time>2022-12-03T21:41:11Z</time>
      </trkpt>
      <trkpt lat="40.445160" lon="-6.403240">
        <ele>769</ele>
        <time>2022-12-03T21:41:12Z</time>
      </trkpt>
      <trkpt lat="40.445130" lon="-6.403470">
        <ele>767</ele>
        <time>2022-12-03T21:41:15Z</time>
      </trkpt>
      <trkpt lat="40.445120" lon="-6.403640">
        <ele>766</ele>
        <time>2022-12-03T21:41:18Z</time>
      </trkpt>
      <trkpt lat="40.445140" lon="-6.403720">
        <ele>766</ele>
        <time>2022-12-03T21:41:19Z</time>
      </trkpt>
      <trkpt lat="40.445220" lon="-6.403850">
        <ele>766</ele>
        <time>2022-12-03T21:41:21Z</time>
      </trkpt>
      <trkpt lat="40.445340" lon="-6.403960">
        <ele>767</ele>
        <time>2022-12-03T21:41:24Z</time>
      </trkpt>
      <trkpt lat="40.445750" lon="-6.404220">
        <ele>769</ele>
        <time>2022-12-03T21:41:32Z</time>
      </trkpt>
      <trkpt lat="40.446050" lon="-6.404470">
        <ele>768</ele>
        <time>2022-12-03T21:41:38Z</time>
      </trkpt>
      <trkpt lat="40.446160" lon="-6.404510">
        <ele>768</ele>
        <time>2022-12-03T21:41:40Z</time>
      </trkpt>
      <trkpt lat="40.446630" lon="-6.404440">
        <ele>774</ele>
        <time>2022-12-03T21:41:49Z</time>
      </trkpt>
      <trkpt lat="40.446720" lon="-6.404470">
        <ele>775</ele>
        <time>2022-12-03T21:41:50Z</time>
      </trkpt>
      <trkpt lat="40.446870" lon="-6.404780">
        <ele>770</ele>
        <time>2022-12-03T21:41:55Z</time>
      </trkpt>
      <trkpt lat="40.446980" lon="-6.404910">
        <ele>770</ele>
        <time>2022-12-03T21:41:58Z</time>
      </trkpt>
      <trkpt lat="40.448360" lon="-6.406000">
        <ele>767</ele>
        <time>2022-12-03T21:42:26Z</time>
      </trkpt>
      <trkpt lat="40.448450" lon="-6.406050">
        <ele>767</ele>
        <time>2022-12-03T21:42:28Z</time>
      </trkpt>
      <trkpt lat="40.448490" lon="-6.406050">
        <ele>767</ele>
        <time>2022-12-03T21:42:29Z</time>
      </trkpt>
      <trkpt lat="40.448530" lon="-6.406020">
        <ele>768</ele>
        <time>2022-12-03T21:42:30Z</time>
      </trkpt>
      <trkpt lat="40.448610" lon="-6.405870">
        <ele>771</ele>
        <time>2022-12-03T21:42:32Z</time>
      </trkpt>
      <trkpt lat="40.448660" lon="-6.405870">
        <ele>771</ele>
        <time>2022-12-03T21:42:33Z</time>
      </trkpt>
      <trkpt lat="40.448700" lon="-6.405890">
        <ele>771</ele>
        <time>2022-12-03T21:42:34Z</time>
      </trkpt>
      <trkpt lat="40.448800" lon="-6.406000">
        <ele>770</ele>
        <time>2022-12-03T21:42:36Z</time>
      </trkpt>
      <trkpt lat="40.449020" lon="-6.406380">
        <ele>766</ele>
        <time>2022-12-03T21:42:43Z</time>
      </trkpt>
      <trkpt lat="40.449030" lon="-6.406470">
        <ele>765</ele>
        <time>2022-12-03T21:42:44Z</time>
      </trkpt>
      <trkpt lat="40.449020" lon="-6.406780">
        <ele>761</ele>
        <time>2022-12-03T21:42:48Z</time>
      </trkpt>
      <trkpt lat="40.449080" lon="-6.407000">
        <ele>760</ele>
        <time>2022-12-03T21:42:51Z</time>
      </trkpt>
      <trkpt lat="40.449250" lon="-6.407300">
        <ele>757</ele>
        <time>2022-12-03T21:42:56Z</time>
      </trkpt>
      <trkpt lat="40.450240" lon="-6.408360">
        <ele>751</ele>
        <time>2022-12-03T21:43:19Z</time>
      </trkpt>
      <trkpt lat="40.450310" lon="-6.408390">
        <ele>752</ele>
        <time>2022-12-03T21:43:20Z</time>
      </trkpt>
      <trkpt lat="40.450510" lon="-6.408410">
        <ele>753</ele>
        <time>2022-12-03T21:43:24Z</time>
      </trkpt>
      <trkpt lat="40.450540" lon="-6.408460">
        <ele>753</ele>
        <time>2022-12-03T21:43:25Z</time>
      </trkpt>
      <trkpt lat="40.450570" lon="-6.408530">
        <ele>752</ele>
        <time>2022-12-03T21:43:26Z</time>
      </trkpt>
      <trkpt lat="40.450550" lon="-6.408810">
        <ele>750</ele>
        <time>2022-12-03T21:43:30Z</time>
      </trkpt>
      <trkpt lat="40.450560" lon="-6.408890">
        <ele>750</ele>
        <time>2022-12-03T21:43:31Z</time>
      </trkpt>
      <trkpt lat="40.450730" lon="-6.409210">
        <ele>748</ele>
        <time>2022-12-03T21:43:36Z</time>
      </trkpt>
      <trkpt lat="40.450890" lon="-6.409470">
        <ele>748</ele>
        <time>2022-12-03T21:43:41Z</time>
      </trkpt>
      <trkpt lat="40.450920" lon="-6.409560">
        <ele>749</ele>
        <time>2022-12-03T21:43:42Z</time>
      </trkpt>
      <trkpt lat="40.450910" lon="-6.409670">
        <ele>749</ele>
        <time>2022-12-03T21:43:43Z</time>
      </trkpt>
      <trkpt lat="40.450850" lon="-6.409840">
        <ele>749</ele>
        <time>2022-12-03T21:43:46Z</time>
      </trkpt>
      <trkpt lat="40.450840" lon="-6.409950">
        <ele>749</ele>
        <time>2022-12-03T21:43:47Z</time>
      </trkpt>
      <trkpt lat="40.450870" lon="-6.410080">
        <ele>750</ele>
        <time>2022-12-03T21:43:49Z</time>
      </trkpt>
      <trkpt lat="40.451240" lon="-6.410640">
        <ele>751</ele>
        <time>2022-12-03T21:43:59Z</time>
      </trkpt>
      <trkpt lat="40.451730" lon="-6.411500">
        <ele>753</ele>
        <time>2022-12-03T21:44:14Z</time>
      </trkpt>
      <trkpt lat="40.452120" lon="-6.411900">
        <ele>754</ele>
        <time>2022-12-03T21:44:23Z</time>
      </trkpt>
      <trkpt lat="40.452240" lon="-6.412050">
        <ele>754</ele>
        <time>2022-12-03T21:44:26Z</time>
      </trkpt>
      <trkpt lat="40.452480" lon="-6.412490">
        <ele>756</ele>
        <time>2022-12-03T21:44:33Z</time>
      </trkpt>
      <trkpt lat="40.452640" lon="-6.412610">
        <ele>758</ele>
        <time>2022-12-03T21:44:36Z</time>
      </trkpt>
      <trkpt lat="40.452980" lon="-6.412710">
        <ele>760</ele>
        <time>2022-12-03T21:44:42Z</time>
      </trkpt>
      <trkpt lat="40.453350" lon="-6.412790">
        <ele>761</ele>
        <time>2022-12-03T21:44:49Z</time>
      </trkpt>
      <trkpt lat="40.453450" lon="-6.412770">
        <ele>761</ele>
        <time>2022-12-03T21:44:51Z</time>
      </trkpt>
      <trkpt lat="40.453510" lon="-6.412730">
        <ele>760</ele>
        <time>2022-12-03T21:44:52Z</time>
      </trkpt>
      <trkpt lat="40.453870" lon="-6.412440">
        <ele>753</ele>
        <time>2022-12-03T21:45:00Z</time>
      </trkpt>
      <trkpt lat="40.453970" lon="-6.412380">
        <ele>753</ele>
        <time>2022-12-03T21:45:02Z</time>
      </trkpt>
      <trkpt lat="40.454050" lon="-6.412380">
        <ele>753</ele>
        <time>2022-12-03T21:45:03Z</time>
      </trkpt>
      <trkpt lat="40.454120" lon="-6.412400">
        <ele>754</ele>
        <time>2022-12-03T21:45:04Z</time>
      </trkpt>
      <trkpt lat="40.454390" lon="-6.412660">
        <ele>760</ele>
        <time>2022-12-03T21:45:10Z</time>
      </trkpt>
      <trkpt lat="40.454440" lon="-6.412670">
        <ele>760</ele>
        <time>2022-12-03T21:45:11Z</time>
      </trkpt>
      <trkpt lat="40.454580" lon="-6.412650">
        <ele>760</ele>
        <time>2022-12-03T21:45:14Z</time>
      </trkpt>
      <trkpt lat="40.454770" lon="-6.412550">
        <ele>758</ele>
        <time>2022-12-03T21:45:17Z</time>
      </trkpt>
      <trkpt lat="40.454860" lon="-6.412520">
        <ele>757</ele>
        <time>2022-12-03T21:45:19Z</time>
      </trkpt>
      <trkpt lat="40.454950" lon="-6.412540">
        <ele>758</ele>
        <time>2022-12-03T21:45:21Z</time>
      </trkpt>
      <trkpt lat="40.455320" lon="-6.412690">
        <ele>760</ele>
        <time>2022-12-03T21:45:27Z</time>
      </trkpt>
      <trkpt lat="40.455690" lon="-6.412770">
        <ele>761</ele>
        <time>2022-12-03T21:45:34Z</time>
      </trkpt>
      <trkpt lat="40.456000" lon="-6.412890">
        <ele>761</ele>
        <time>2022-12-03T21:45:40Z</time>
      </trkpt>
      <trkpt lat="40.456250" lon="-6.413030">
        <ele>762</ele>
        <time>2022-12-03T21:45:45Z</time>
      </trkpt>
      <trkpt lat="40.456360" lon="-6.413130">
        <ele>763</ele>
        <time>2022-12-03T21:45:47Z</time>
      </trkpt>
      <trkpt lat="40.456450" lon="-6.413240">
        <ele>764</ele>
        <time>2022-12-03T21:45:49Z</time>
      </trkpt>
      <trkpt lat="40.456570" lon="-6.413460">
        <ele>766</ele>
        <time>2022-12-03T21:45:53Z</time>
      </trkpt>
      <trkpt lat="40.456610" lon="-6.413590">
        <ele>767</ele>
        <time>2022-12-03T21:45:55Z</time>
      </trkpt>
      <trkpt lat="40.456620" lon="-6.413920">
        <ele>771</ele>
        <time>2022-12-03T21:45:59Z</time>
      </trkpt>
      <trkpt lat="40.456640" lon="-6.414020">
        <ele>772</ele>
        <time>2022-12-03T21:46:01Z</time>
      </trkpt>
      <trkpt lat="40.456680" lon="-6.414100">
        <ele>773</ele>
        <time>2022-12-03T21:46:02Z</time>
      </trkpt>
      <trkpt lat="40.456720" lon="-6.414150">
        <ele>773</ele>
        <time>2022-12-03T21:46:03Z</time>
      </trkpt>
      <trkpt lat="40.456790" lon="-6.414200">
        <ele>773</ele>
        <time>2022-12-03T21:46:04Z</time>
      </trkpt>
      <trkpt lat="40.457010" lon="-6.414310">
        <ele>771</ele>
        <time>2022-12-03T21:46:09Z</time>
      </trkpt>
      <trkpt lat="40.457120" lon="-6.414430">
        <ele>771</ele>
        <time>2022-12-03T21:46:11Z</time>
      </trkpt>
      <trkpt lat="40.457200" lon="-6.414570">
        <ele>771</ele>
        <time>2022-12-03T21:46:13Z</time>
      </trkpt>
      <trkpt lat="40.457230" lon="-6.414760">
        <ele>773</ele>
        <time>2022-12-03T21:46:16Z</time>
      </trkpt>
      <trkpt lat="40.457220" lon="-6.414960">
        <ele>775</ele>
        <time>2022-12-03T21:46:19Z</time>
      </trkpt>
      <trkpt lat="40.457240" lon="-6.415120">
        <ele>777</ele>
        <time>2022-12-03T21:46:21Z</time>
      </trkpt>
      <trkpt lat="40.457420" lon="-6.415520">
        <ele>780</ele>
        <time>2022-12-03T21:46:27Z</time>
      </trkpt>
      <trkpt lat="40.457460" lon="-6.415580">
        <ele>780</ele>
        <time>2022-12-03T21:46:28Z</time>
      </trkpt>
      <trkpt lat="40.457520" lon="-6.415630">
        <ele>780</ele>
        <time>2022-12-03T21:46:30Z</time>
      </trkpt>
      <trkpt lat="40.457630" lon="-6.415670">
        <ele>780</ele>
        <time>2022-12-03T21:46:32Z</time>
      </trkpt>
      <trkpt lat="40.457940" lon="-6.415650">
        <ele>778</ele>
        <time>2022-12-03T21:46:37Z</time>
      </trkpt>
      <trkpt lat="40.458140" lon="-6.415730">
        <ele>778</ele>
        <time>2022-12-03T21:46:41Z</time>
      </trkpt>
      <trkpt lat="40.458280" lon="-6.415840">
        <ele>778</ele>
        <time>2022-12-03T21:46:44Z</time>
      </trkpt>
      <trkpt lat="40.458370" lon="-6.415940">
        <ele>779</ele>
        <time>2022-12-03T21:46:46Z</time>
      </trkpt>
      <trkpt lat="40.458640" lon="-6.416340">
        <ele>782</ele>
        <time>2022-12-03T21:46:53Z</time>
      </trkpt>
      <trkpt lat="40.458680" lon="-6.416460">
        <ele>782</ele>
        <time>2022-12-03T21:46:55Z</time>
      </trkpt>
      <trkpt lat="40.458690" lon="-6.416690">
        <ele>783</ele>
        <time>2022-12-03T21:46:58Z</time>
      </trkpt>
      <trkpt lat="40.458700" lon="-6.417270">
        <ele>781</ele>
        <time>2022-12-03T21:47:06Z</time>
      </trkpt>
      <trkpt lat="40.458680" lon="-6.417450">
        <ele>781</ele>
        <time>2022-12-03T21:47:08Z</time>
      </trkpt>
      <trkpt lat="40.458640" lon="-6.417640">
        <ele>780</ele>
        <time>2022-12-03T21:47:11Z</time>
      </trkpt>
      <trkpt lat="40.458380" lon="-6.418510">
        <ele>780</ele>
        <time>2022-12-03T21:47:24Z</time>
      </trkpt>
      <trkpt lat="40.458350" lon="-6.418660">
        <ele>779</ele>
        <time>2022-12-03T21:47:26Z</time>
      </trkpt>
      <trkpt lat="40.458350" lon="-6.418910">
        <ele>777</ele>
        <time>2022-12-03T21:47:29Z</time>
      </trkpt>
      <trkpt lat="40.458420" lon="-6.419330">
        <ele>772</ele>
        <time>2022-12-03T21:47:35Z</time>
      </trkpt>
      <trkpt lat="40.458390" lon="-6.419580">
        <ele>769</ele>
        <time>2022-12-03T21:47:38Z</time>
      </trkpt>
      <trkpt lat="40.458260" lon="-6.419850">
        <ele>768</ele>
        <time>2022-12-03T21:47:43Z</time>
      </trkpt>
      <trkpt lat="40.458190" lon="-6.419920">
        <ele>767</ele>
        <time>2022-12-03T21:47:44Z</time>
      </trkpt>
      <trkpt lat="40.458110" lon="-6.419980">
        <ele>766</ele>
        <time>2022-12-03T21:47:46Z</time>
      </trkpt>
      <trkpt lat="40.458040" lon="-6.420000">
        <ele>766</ele>
        <time>2022-12-03T21:47:47Z</time>
      </trkpt>
      <trkpt lat="40.457840" lon="-6.420010">
        <ele>767</ele>
        <time>2022-12-03T21:47:51Z</time>
      </trkpt>
      <trkpt lat="40.456850" lon="-6.420170">
        <ele>766</ele>
        <time>2022-12-03T21:48:09Z</time>
      </trkpt>
      <trkpt lat="40.456590" lon="-6.420150">
        <ele>768</ele>
        <time>2022-12-03T21:48:13Z</time>
      </trkpt>
      <trkpt lat="40.456460" lon="-6.420180">
        <ele>768</ele>
        <time>2022-12-03T21:48:16Z</time>
      </trkpt>
      <trkpt lat="40.456350" lon="-6.420270">
        <ele>766</ele>
        <time>2022-12-03T21:48:18Z</time>
      </trkpt>
      <trkpt lat="40.456250" lon="-6.420400">
        <ele>763</ele>
        <time>2022-12-03T21:48:20Z</time>
      </trkpt>
      <trkpt lat="40.456110" lon="-6.420550">
        <ele>760</ele>
        <time>2022-12-03T21:48:24Z</time>
      </trkpt>
      <trkpt lat="40.456000" lon="-6.420640">
        <ele>758</ele>
        <time>2022-12-03T21:48:26Z</time>
      </trkpt>
      <trkpt lat="40.455810" lon="-6.420740">
        <ele>757</ele>
        <time>2022-12-03T21:48:29Z</time>
      </trkpt>
      <trkpt lat="40.455490" lon="-6.420860">
        <ele>754</ele>
        <time>2022-12-03T21:48:35Z</time>
      </trkpt>
      <trkpt lat="40.455120" lon="-6.420910">
        <ele>754</ele>
        <time>2022-12-03T21:48:42Z</time>
      </trkpt>
      <trkpt lat="40.454770" lon="-6.421030">
        <ele>752</ele>
        <time>2022-12-03T21:48:48Z</time>
      </trkpt>
      <trkpt lat="40.454690" lon="-6.421040">
        <ele>751</ele>
        <time>2022-12-03T21:48:50Z</time>
      </trkpt>
      <trkpt lat="40.454640" lon="-6.421040">
        <ele>751</ele>
        <time>2022-12-03T21:48:51Z</time>
      </trkpt>
      <trkpt lat="40.454570" lon="-6.421000">
        <ele>750</ele>
        <time>2022-12-03T21:48:52Z</time>
      </trkpt>
      <trkpt lat="40.454510" lon="-6.420940">
        <ele>750</ele>
        <time>2022-12-03T21:48:53Z</time>
      </trkpt>
      <trkpt lat="40.454370" lon="-6.420620">
        <ele>751</ele>
        <time>2022-12-03T21:48:58Z</time>
      </trkpt>
      <trkpt lat="40.454330" lon="-6.420550">
        <ele>751</ele>
        <time>2022-12-03T21:49:00Z</time>
      </trkpt>
      <trkpt lat="40.454240" lon="-6.420480">
        <ele>751</ele>
        <time>2022-12-03T21:49:02Z</time>
      </trkpt>
      <trkpt lat="40.454170" lon="-6.420440">
        <ele>750</ele>
        <time>2022-12-03T21:49:03Z</time>
      </trkpt>
      <trkpt lat="40.454120" lon="-6.420440">
        <ele>750</ele>
        <time>2022-12-03T21:49:04Z</time>
      </trkpt>
      <trkpt lat="40.453890" lon="-6.420500">
        <ele>750</ele>
        <time>2022-12-03T21:49:08Z</time>
      </trkpt>
      <trkpt lat="40.453800" lon="-6.420540">
        <ele>750</ele>
        <time>2022-12-03T21:49:10Z</time>
      </trkpt>
      <trkpt lat="40.453060" lon="-6.420830">
        <ele>755</ele>
        <time>2022-12-03T21:49:23Z</time>
      </trkpt>
      <trkpt lat="40.452790" lon="-6.420950">
        <ele>759</ele>
        <time>2022-12-03T21:49:28Z</time>
      </trkpt>
      <trkpt lat="40.452630" lon="-6.421050">
        <ele>761</ele>
        <time>2022-12-03T21:49:32Z</time>
      </trkpt>
      <trkpt lat="40.452210" lon="-6.421350">
        <ele>766</ele>
        <time>2022-12-03T21:49:40Z</time>
      </trkpt>
      <trkpt lat="40.452160" lon="-6.421420">
        <ele>765</ele>
        <time>2022-12-03T21:49:41Z</time>
      </trkpt>
      <trkpt lat="40.452160" lon="-6.421480">
        <ele>765</ele>
        <time>2022-12-03T21:49:42Z</time>
      </trkpt>
      <trkpt lat="40.452180" lon="-6.421550">
        <ele>764</ele>
        <time>2022-12-03T21:49:43Z</time>
      </trkpt>
      <trkpt lat="40.452220" lon="-6.421590">
        <ele>763</ele>
        <time>2022-12-03T21:49:44Z</time>
      </trkpt>
      <trkpt lat="40.452270" lon="-6.421600">
        <ele>762</ele>
        <time>2022-12-03T21:49:45Z</time>
      </trkpt>
      <trkpt lat="40.452330" lon="-6.421590">
        <ele>761</ele>
        <time>2022-12-03T21:49:46Z</time>
      </trkpt>
      <trkpt lat="40.452660" lon="-6.421440">
        <ele>759</ele>
        <time>2022-12-03T21:49:52Z</time>
      </trkpt>
      <trkpt lat="40.452730" lon="-6.421430">
        <ele>759</ele>
        <time>2022-12-03T21:49:54Z</time>
      </trkpt>
      <trkpt lat="40.453190" lon="-6.421570">
        <ele>757</ele>
        <time>2022-12-03T21:50:02Z</time>
      </trkpt>
      <trkpt lat="40.453350" lon="-6.421680">
        <ele>757</ele>
        <time>2022-12-03T21:50:05Z</time>
      </trkpt>
      <trkpt lat="40.453460" lon="-6.421850">
        <ele>758</ele>
        <time>2022-12-03T21:50:08Z</time>
      </trkpt>
      <trkpt lat="40.453470" lon="-6.421980">
        <ele>759</ele>
        <time>2022-12-03T21:50:10Z</time>
      </trkpt>
      <trkpt lat="40.453310" lon="-6.422340">
        <ele>764</ele>
        <time>2022-12-03T21:50:16Z</time>
      </trkpt>
      <trkpt lat="40.453290" lon="-6.422490">
        <ele>766</ele>
        <time>2022-12-03T21:50:18Z</time>
      </trkpt>
      <trkpt lat="40.453340" lon="-6.422600">
        <ele>767</ele>
        <time>2022-12-03T21:50:19Z</time>
      </trkpt>
      <trkpt lat="40.453380" lon="-6.422630">
        <ele>767</ele>
        <time>2022-12-03T21:50:20Z</time>
      </trkpt>
      <trkpt lat="40.453470" lon="-6.422630">
        <ele>767</ele>
        <time>2022-12-03T21:50:22Z</time>
      </trkpt>
      <trkpt lat="40.453780" lon="-6.422480">
        <ele>764</ele>
        <time>2022-12-03T21:50:28Z</time>
      </trkpt>
      <trkpt lat="40.453920" lon="-6.422450">
        <ele>762</ele>
        <time>2022-12-03T21:50:30Z</time>
      </trkpt>
      <trkpt lat="40.454080" lon="-6.422500">
        <ele>762</ele>
        <time>2022-12-03T21:50:33Z</time>
      </trkpt>
      <trkpt lat="40.454450" lon="-6.422710">
        <ele>763</ele>
        <time>2022-12-03T21:50:40Z</time>
      </trkpt>
      <trkpt lat="40.454610" lon="-6.422920">
        <ele>765</ele>
        <time>2022-12-03T21:50:44Z</time>
      </trkpt>
      <trkpt lat="40.454670" lon="-6.423080">
        <ele>766</ele>
        <time>2022-12-03T21:50:47Z</time>
      </trkpt>
      <trkpt lat="40.454830" lon="-6.423790">
        <ele>773</ele>
        <time>2022-12-03T21:50:57Z</time>
      </trkpt>
      <trkpt lat="40.454980" lon="-6.424700">
        <ele>778</ele>
        <time>2022-12-03T21:51:09Z</time>
      </trkpt>
      <trkpt lat="40.454990" lon="-6.424860">
        <ele>779</ele>
        <time>2022-12-03T21:51:12Z</time>
      </trkpt>
      <trkpt lat="40.454980" lon="-6.424970">
        <ele>780</ele>
        <time>2022-12-03T21:51:13Z</time>
      </trkpt>
      <trkpt lat="40.454950" lon="-6.425080">
        <ele>780</ele>
        <time>2022-12-03T21:51:15Z</time>
      </trkpt>
      <trkpt lat="40.453770" lon="-6.426480">
        <ele>795</ele>
        <time>2022-12-03T21:51:43Z</time>
      </trkpt>
      <trkpt lat="40.453630" lon="-6.426700">
        <ele>797</ele>
        <time>2022-12-03T21:51:47Z</time>
      </trkpt>
      <trkpt lat="40.453610" lon="-6.426790">
        <ele>797</ele>
        <time>2022-12-03T21:51:48Z</time>
      </trkpt>
      <trkpt lat="40.453610" lon="-6.426890">
        <ele>798</ele>
        <time>2022-12-03T21:51:49Z</time>
      </trkpt>
      <trkpt lat="40.453750" lon="-6.427200">
        <ele>797</ele>
        <time>2022-12-03T21:51:54Z</time>
      </trkpt>
      <trkpt lat="40.453780" lon="-6.427310">
        <ele>797</ele>
        <time>2022-12-03T21:51:56Z</time>
      </trkpt>
      <trkpt lat="40.453790" lon="-6.427610">
        <ele>798</ele>
        <time>2022-12-03T21:52:00Z</time>
      </trkpt>
      <trkpt lat="40.453700" lon="-6.428820">
        <ele>804</ele>
        <time>2022-12-03T21:52:16Z</time>
      </trkpt>
      <trkpt lat="40.453670" lon="-6.429000">
        <ele>805</ele>
        <time>2022-12-03T21:52:19Z</time>
      </trkpt>
      <trkpt lat="40.453600" lon="-6.429200">
        <ele>806</ele>
        <time>2022-12-03T21:52:22Z</time>
      </trkpt>
      <trkpt lat="40.453480" lon="-6.429400">
        <ele>808</ele>
        <time>2022-12-03T21:52:25Z</time>
      </trkpt>
      <trkpt lat="40.453440" lon="-6.429490">
        <ele>810</ele>
        <time>2022-12-03T21:52:27Z</time>
      </trkpt>
      <trkpt lat="40.453430" lon="-6.429660">
        <ele>811</ele>
        <time>2022-12-03T21:52:29Z</time>
      </trkpt>
      <trkpt lat="40.453730" lon="-6.430300">
        <ele>810</ele>
        <time>2022-12-03T21:52:39Z</time>
      </trkpt>
      <trkpt lat="40.453750" lon="-6.430400">
        <ele>810</ele>
        <time>2022-12-03T21:52:41Z</time>
      </trkpt>
      <trkpt lat="40.453730" lon="-6.430710">
        <ele>811</ele>
        <time>2022-12-03T21:52:45Z</time>
      </trkpt>
      <trkpt lat="40.453620" lon="-6.431050">
        <ele>813</ele>
        <time>2022-12-03T21:52:50Z</time>
      </trkpt>
      <trkpt lat="40.453550" lon="-6.431220">
        <ele>813</ele>
        <time>2022-12-03T21:52:52Z</time>
      </trkpt>
      <trkpt lat="40.453490" lon="-6.431310">
        <ele>813</ele>
        <time>2022-12-03T21:52:54Z</time>
      </trkpt>
      <trkpt lat="40.453380" lon="-6.431380">
        <ele>813</ele>
        <time>2022-12-03T21:52:56Z</time>
      </trkpt>
      <trkpt lat="40.452370" lon="-6.431620">
        <ele>817</ele>
        <time>2022-12-03T21:53:15Z</time>
      </trkpt>
      <trkpt lat="40.452210" lon="-6.431720">
        <ele>817</ele>
        <time>2022-12-03T21:53:18Z</time>
      </trkpt>
      <trkpt lat="40.452130" lon="-6.431790">
        <ele>817</ele>
        <time>2022-12-03T21:53:19Z</time>
      </trkpt>
      <trkpt lat="40.452030" lon="-6.431980">
        <ele>817</ele>
        <time>2022-12-03T21:53:23Z</time>
      </trkpt>
      <trkpt lat="40.451710" lon="-6.432710">
        <ele>820</ele>
        <time>2022-12-03T21:53:34Z</time>
      </trkpt>
      <trkpt lat="40.451540" lon="-6.432980">
        <ele>821</ele>
        <time>2022-12-03T21:53:39Z</time>
      </trkpt>
      <trkpt lat="40.451410" lon="-6.433120">
        <ele>822</ele>
        <time>2022-12-03T21:53:42Z</time>
      </trkpt>
      <trkpt lat="40.448950" lon="-6.435020">
        <ele>822</ele>
        <time>2022-12-03T21:54:32Z</time>
      </trkpt>
      <trkpt lat="40.448840" lon="-6.435140">
        <ele>821</ele>
        <time>2022-12-03T21:54:35Z</time>
      </trkpt>
      <trkpt lat="40.448690" lon="-6.435410">
        <ele>820</ele>
        <time>2022-12-03T21:54:40Z</time>
      </trkpt>
      <trkpt lat="40.448610" lon="-6.435680">
        <ele>819</ele>
        <time>2022-12-03T21:54:43Z</time>
      </trkpt>
      <trkpt lat="40.448120" lon="-6.437580">
        <ele>816</ele>
        <time>2022-12-03T21:55:11Z</time>
      </trkpt>
      <trkpt lat="40.448130" lon="-6.437850">
        <ele>815</ele>
        <time>2022-12-03T21:55:14Z</time>
      </trkpt>
      <trkpt lat="40.448350" lon="-6.438750">
        <ele>811</ele>
        <time>2022-12-03T21:55:27Z</time>
      </trkpt>
      <trkpt lat="40.448370" lon="-6.438890">
        <ele>811</ele>
        <time>2022-12-03T21:55:29Z</time>
      </trkpt>
      <trkpt lat="40.448360" lon="-6.439130">
        <ele>810</ele>
        <time>2022-12-03T21:55:32Z</time>
      </trkpt>
      <trkpt lat="40.448320" lon="-6.439470">
        <ele>809</ele>
        <time>2022-12-03T21:55:37Z</time>
      </trkpt>
      <trkpt lat="40.448360" lon="-6.439910">
        <ele>808</ele>
        <time>2022-12-03T21:55:43Z</time>
      </trkpt>
      <trkpt lat="40.448330" lon="-6.440520">
        <ele>806</ele>
        <time>2022-12-03T21:55:51Z</time>
      </trkpt>
      <trkpt lat="40.448290" lon="-6.440900">
        <ele>806</ele>
        <time>2022-12-03T21:55:56Z</time>
      </trkpt>
      <trkpt lat="40.448300" lon="-6.441040">
        <ele>805</ele>
        <time>2022-12-03T21:55:58Z</time>
      </trkpt>
      <trkpt lat="40.448320" lon="-6.441140">
        <ele>804</ele>
        <time>2022-12-03T21:56:00Z</time>
      </trkpt>
      <trkpt lat="40.448350" lon="-6.441200">
        <ele>804</ele>
        <time>2022-12-03T21:56:01Z</time>
      </trkpt>
      <trkpt lat="40.448600" lon="-6.441360">
        <ele>805</ele>
        <time>2022-12-03T21:56:06Z</time>
      </trkpt>
      <trkpt lat="40.448780" lon="-6.441510">
        <ele>805</ele>
        <time>2022-12-03T21:56:09Z</time>
      </trkpt>
      <trkpt lat="40.448820" lon="-6.441560">
        <ele>805</ele>
        <time>2022-12-03T21:56:10Z</time>
      </trkpt>
      <trkpt lat="40.448850" lon="-6.441650">
        <ele>805</ele>
        <time>2022-12-03T21:56:12Z</time>
      </trkpt>
      <trkpt lat="40.448690" lon="-6.441950">
        <ele>802</ele>
        <time>2022-12-03T21:56:17Z</time>
      </trkpt>
      <trkpt lat="40.448550" lon="-6.442240">
        <ele>800</ele>
        <time>2022-12-03T21:56:21Z</time>
      </trkpt>
      <trkpt lat="40.448480" lon="-6.442280">
        <ele>799</ele>
        <time>2022-12-03T21:56:23Z</time>
      </trkpt>
      <trkpt lat="40.448440" lon="-6.442340">
        <ele>798</ele>
        <time>2022-12-03T21:56:24Z</time>
      </trkpt>
      <trkpt lat="40.448440" lon="-6.442840">
        <ele>796</ele>
        <time>2022-12-03T21:56:31Z</time>
      </trkpt>
      <trkpt lat="40.448360" lon="-6.443040">
        <ele>795</ele>
        <time>2022-12-03T21:56:34Z</time>
      </trkpt>
      <trkpt lat="40.448260" lon="-6.443190">
        <ele>794</ele>
        <time>2022-12-03T21:56:36Z</time>
      </trkpt>
      <trkpt lat="40.448230" lon="-6.443410">
        <ele>793</ele>
        <time>2022-12-03T21:56:39Z</time>
      </trkpt>
      <trkpt lat="40.448320" lon="-6.444000">
        <ele>792</ele>
        <time>2022-12-03T21:56:47Z</time>
      </trkpt>
      <trkpt lat="40.448160" lon="-6.445180">
        <ele>789</ele>
        <time>2022-12-03T21:57:04Z</time>
      </trkpt>
      <trkpt lat="40.448160" lon="-6.445260">
        <ele>789</ele>
        <time>2022-12-03T21:57:05Z</time>
      </trkpt>
      <trkpt lat="40.448180" lon="-6.445330">
        <ele>788</ele>
        <time>2022-12-03T21:57:06Z</time>
      </trkpt>
      <trkpt lat="40.448250" lon="-6.445460">
        <ele>788</ele>
        <time>2022-12-03T21:57:08Z</time>
      </trkpt>
      <trkpt lat="40.448550" lon="-6.445920">
        <ele>788</ele>
        <time>2022-12-03T21:57:16Z</time>
      </trkpt>
      <trkpt lat="40.448810" lon="-6.446260">
        <ele>790</ele>
        <time>2022-12-03T21:57:23Z</time>
      </trkpt>
      <trkpt lat="40.448950" lon="-6.446400">
        <ele>791</ele>
        <time>2022-12-03T21:57:26Z</time>
      </trkpt>
      <trkpt lat="40.449110" lon="-6.446510">
        <ele>792</ele>
        <time>2022-12-03T21:57:29Z</time>
      </trkpt>
      <trkpt lat="40.450020" lon="-6.446900">
        <ele>798</ele>
        <time>2022-12-03T21:57:46Z</time>
      </trkpt>
      <trkpt lat="40.450410" lon="-6.447010">
        <ele>798</ele>
        <time>2022-12-03T21:57:53Z</time>
      </trkpt>
      <trkpt lat="40.450500" lon="-6.447060">
        <ele>798</ele>
        <time>2022-12-03T21:57:55Z</time>
      </trkpt>
      <trkpt lat="40.450700" lon="-6.447250">
        <ele>800</ele>
        <time>2022-12-03T21:57:59Z</time>
      </trkpt>
      <trkpt lat="40.450780" lon="-6.447300">
        <ele>801</ele>
        <time>2022-12-03T21:58:01Z</time>
      </trkpt>
      <trkpt lat="40.450890" lon="-6.447330">
        <ele>801</ele>
        <time>2022-12-03T21:58:03Z</time>
      </trkpt>
      <trkpt lat="40.450980" lon="-6.447330">
        <ele>802</ele>
        <time>2022-12-03T21:58:04Z</time>
      </trkpt>
      <trkpt lat="40.451310" lon="-6.447240">
        <ele>803</ele>
        <time>2022-12-03T21:58:10Z</time>
      </trkpt>
      <trkpt lat="40.452010" lon="-6.447130">
        <ele>803</ele>
        <time>2022-12-03T21:58:23Z</time>
      </trkpt>
      <trkpt lat="40.452190" lon="-6.447140">
        <ele>803</ele>
        <time>2022-12-03T21:58:26Z</time>
      </trkpt>
      <trkpt lat="40.452310" lon="-6.447220">
        <ele>805</ele>
        <time>2022-12-03T21:58:29Z</time>
      </trkpt>
      <trkpt lat="40.452690" lon="-6.447620">
        <ele>810</ele>
        <time>2022-12-03T21:58:37Z</time>
      </trkpt>
      <trkpt lat="40.452770" lon="-6.447790">
        <ele>811</ele>
        <time>2022-12-03T21:58:40Z</time>
      </trkpt>
      <trkpt lat="40.452780" lon="-6.447890">
        <ele>811</ele>
        <time>2022-12-03T21:58:41Z</time>
      </trkpt>
      <trkpt lat="40.452770" lon="-6.448000">
        <ele>812</ele>
        <time>2022-12-03T21:58:43Z</time>
      </trkpt>
      <trkpt lat="40.452730" lon="-6.448140">
        <ele>813</ele>
        <time>2022-12-03T21:58:45Z</time>
      </trkpt>
      <trkpt lat="40.452600" lon="-6.448460">
        <ele>815</ele>
        <time>2022-12-03T21:58:50Z</time>
      </trkpt>
      <trkpt lat="40.451420" lon="-6.450780">
        <ele>822</ele>
        <time>2022-12-03T21:59:28Z</time>
      </trkpt>
      <trkpt lat="40.451340" lon="-6.450900">
        <ele>822</ele>
        <time>2022-12-03T21:59:30Z</time>
      </trkpt>
      <trkpt lat="40.451240" lon="-6.450980">
        <ele>822</ele>
        <time>2022-12-03T21:59:32Z</time>
      </trkpt>
      <trkpt lat="40.450570" lon="-6.451390">
        <ele>821</ele>
        <time>2022-12-03T21:59:45Z</time>
      </trkpt>
      <trkpt lat="40.450500" lon="-6.451450">
        <ele>821</ele>
        <time>2022-12-03T21:59:46Z</time>
      </trkpt>
      <trkpt lat="40.450400" lon="-6.451610">
        <ele>821</ele>
        <time>2022-12-03T21:59:49Z</time>
      </trkpt>
      <trkpt lat="40.450380" lon="-6.451710">
        <ele>821</ele>
        <time>2022-12-03T21:59:51Z</time>
      </trkpt>
      <trkpt lat="40.450390" lon="-6.452290">
        <ele>820</ele>
        <time>2022-12-03T21:59:58Z</time>
      </trkpt>
      <trkpt lat="40.450280" lon="-6.452850">
        <ele>818</ele>
        <time>2022-12-03T22:00:06Z</time>
      </trkpt>
      <trkpt lat="40.449900" lon="-6.454050">
        <ele>813</ele>
        <time>2022-12-03T22:00:24Z</time>
      </trkpt>
      <trkpt lat="40.449710" lon="-6.454610">
        <ele>810</ele>
        <time>2022-12-03T22:00:32Z</time>
      </trkpt>
      <trkpt lat="40.449700" lon="-6.454820">
        <ele>809</ele>
        <time>2022-12-03T22:00:35Z</time>
      </trkpt>
      <trkpt lat="40.449730" lon="-6.454910">
        <ele>808</ele>
        <time>2022-12-03T22:00:36Z</time>
      </trkpt>
      <trkpt lat="40.449800" lon="-6.455010">
        <ele>808</ele>
        <time>2022-12-03T22:00:38Z</time>
      </trkpt>
      <trkpt lat="40.450150" lon="-6.455390">
        <ele>805</ele>
        <time>2022-12-03T22:00:46Z</time>
      </trkpt>
      <trkpt lat="40.450400" lon="-6.455730">
        <ele>804</ele>
        <time>2022-12-03T22:00:53Z</time>
      </trkpt>
      <trkpt lat="40.450540" lon="-6.455950">
        <ele>803</ele>
        <time>2022-12-03T22:00:57Z</time>
      </trkpt>
      <trkpt lat="40.450610" lon="-6.456120">
        <ele>802</ele>
        <time>2022-12-03T22:00:59Z</time>
      </trkpt>
      <trkpt lat="40.450650" lon="-6.456270">
        <ele>801</ele>
        <time>2022-12-03T22:01:01Z</time>
      </trkpt>
      <trkpt lat="40.450650" lon="-6.456500">
        <ele>800</ele>
        <time>2022-12-03T22:01:04Z</time>
      </trkpt>
      <trkpt lat="40.450620" lon="-6.456840">
        <ele>797</ele>
        <time>2022-12-03T22:01:09Z</time>
      </trkpt>
      <trkpt lat="40.450670" lon="-6.457050">
        <ele>796</ele>
        <time>2022-12-03T22:01:12Z</time>
      </trkpt>
      <trkpt lat="40.450730" lon="-6.457160">
        <ele>795</ele>
        <time>2022-12-03T22:01:14Z</time>
      </trkpt>
      <trkpt lat="40.450890" lon="-6.457350">
        <ele>794</ele>
        <time>2022-12-03T22:01:18Z</time>
      </trkpt>
      <trkpt lat="40.451170" lon="-6.457520">
        <ele>794</ele>
        <time>2022-12-03T22:01:23Z</time>
      </trkpt>
      <trkpt lat="40.451210" lon="-6.457580">
        <ele>793</ele>
        <time>2022-12-03T22:01:24Z</time>
      </trkpt>
      <trkpt lat="40.451260" lon="-6.457680">
        <ele>793</ele>
        <time>2022-12-03T22:01:26Z</time>
      </trkpt>
      <trkpt lat="40.451460" lon="-6.458390">
        <ele>788</ele>
        <time>2022-12-03T22:01:36Z</time>
      </trkpt>
      <trkpt lat="40.451500" lon="-6.458600">
        <ele>786</ele>
        <time>2022-12-03T22:01:39Z</time>
      </trkpt>
      <trkpt lat="40.451630" lon="-6.459580">
        <ele>778</ele>
        <time>2022-12-03T22:01:53Z</time>
      </trkpt>
      <trkpt lat="40.451620" lon="-6.460630">
        <ele>775</ele>
        <time>2022-12-03T22:02:07Z</time>
      </trkpt>
      <trkpt lat="40.451610" lon="-6.460840">
        <ele>775</ele>
        <time>2022-12-03T22:02:10Z</time>
      </trkpt>
      <trkpt lat="40.451560" lon="-6.460950">
        <ele>777</ele>
        <time>2022-12-03T22:02:11Z</time>
      </trkpt>
      <trkpt lat="40.451540" lon="-6.461060">
        <ele>779</ele>
        <time>2022-12-03T22:02:13Z</time>
      </trkpt>
      <trkpt lat="40.451620" lon="-6.461230">
        <ele>780</ele>
        <time>2022-12-03T22:02:16Z</time>
      </trkpt>
      <trkpt lat="40.451760" lon="-6.461360">
        <ele>781</ele>
        <time>2022-12-03T22:02:19Z</time>
      </trkpt>
      <trkpt lat="40.452080" lon="-6.461510">
        <ele>780</ele>
        <time>2022-12-03T22:02:25Z</time>
      </trkpt>
      <trkpt lat="40.452150" lon="-6.461570">
        <ele>780</ele>
        <time>2022-12-03T22:02:26Z</time>
      </trkpt>
      <trkpt lat="40.452200" lon="-6.461660">
        <ele>780</ele>
        <time>2022-12-03T22:02:28Z</time>
      </trkpt>
      <trkpt lat="40.452230" lon="-6.461790">
        <ele>780</ele>
        <time>2022-12-03T22:02:30Z</time>
      </trkpt>
      <trkpt lat="40.452260" lon="-6.462000">
        <ele>782</ele>
        <time>2022-12-03T22:02:32Z</time>
      </trkpt>
      <trkpt lat="40.452240" lon="-6.462330">
        <ele>784</ele>
        <time>2022-12-03T22:02:37Z</time>
      </trkpt>
      <trkpt lat="40.452200" lon="-6.462790">
        <ele>787</ele>
        <time>2022-12-03T22:02:43Z</time>
      </trkpt>
      <trkpt lat="40.452210" lon="-6.462910">
        <ele>787</ele>
        <time>2022-12-03T22:02:45Z</time>
      </trkpt>
      <trkpt lat="40.452280" lon="-6.463550">
        <ele>789</ele>
        <time>2022-12-03T22:02:54Z</time>
      </trkpt>
      <trkpt lat="40.452360" lon="-6.464060">
        <ele>790</ele>
        <time>2022-12-03T22:03:01Z</time>
      </trkpt>
      <trkpt lat="40.452450" lon="-6.464520">
        <ele>790</ele>
        <time>2022-12-03T22:03:07Z</time>
      </trkpt>
      <trkpt lat="40.452410" lon="-6.464880">
        <ele>791</ele>
        <time>2022-12-03T22:03:12Z</time>
      </trkpt>
      <trkpt lat="40.452370" lon="-6.465010">
        <ele>792</ele>
        <time>2022-12-03T22:03:14Z</time>
      </trkpt>
      <trkpt lat="40.452170" lon="-6.465370">
        <ele>796</ele>
        <time>2022-12-03T22:03:20Z</time>
      </trkpt>
      <trkpt lat="40.452150" lon="-6.465440">
        <ele>796</ele>
        <time>2022-12-03T22:03:21Z</time>
      </trkpt>
      <trkpt lat="40.452150" lon="-6.465600">
        <ele>797</ele>
        <time>2022-12-03T22:03:23Z</time>
      </trkpt>
      <trkpt lat="40.452210" lon="-6.465870">
        <ele>798</ele>
        <time>2022-12-03T22:03:27Z</time>
      </trkpt>
      <trkpt lat="40.452540" lon="-6.466650">
        <ele>799</ele>
        <time>2022-12-03T22:03:39Z</time>
      </trkpt>
      <trkpt lat="40.452640" lon="-6.467110">
        <ele>800</ele>
        <time>2022-12-03T22:03:45Z</time>
      </trkpt>
      <trkpt lat="40.452660" lon="-6.467320">
        <ele>801</ele>
        <time>2022-12-03T22:03:48Z</time>
      </trkpt>
      <trkpt lat="40.452700" lon="-6.468700">
        <ele>806</ele>
        <time>2022-12-03T22:04:07Z</time>
      </trkpt>
      <trkpt lat="40.452660" lon="-6.468940">
        <ele>806</ele>
        <time>2022-12-03T22:04:10Z</time>
      </trkpt>
      <trkpt lat="40.452570" lon="-6.469160">
        <ele>806</ele>
        <time>2022-12-03T22:04:14Z</time>
      </trkpt>
      <trkpt lat="40.451880" lon="-6.470220">
        <ele>811</ele>
        <time>2022-12-03T22:04:33Z</time>
      </trkpt>
      <trkpt lat="40.451800" lon="-6.470440">
        <ele>812</ele>
        <time>2022-12-03T22:04:36Z</time>
      </trkpt>
      <trkpt lat="40.451780" lon="-6.470530">
        <ele>812</ele>
        <time>2022-12-03T22:04:37Z</time>
      </trkpt>
      <trkpt lat="40.451640" lon="-6.472330">
        <ele>819</ele>
        <time>2022-12-03T22:05:02Z</time>
      </trkpt>
      <trkpt lat="40.451600" lon="-6.472720">
        <ele>820</ele>
        <time>2022-12-03T22:05:07Z</time>
      </trkpt>
      <trkpt lat="40.451560" lon="-6.472880">
        <ele>820</ele>
        <time>2022-12-03T22:05:09Z</time>
      </trkpt>
      <trkpt lat="40.451000" lon="-6.474980">
        <ele>823</ele>
        <time>2022-12-03T22:05:39Z</time>
      </trkpt>
      <trkpt lat="40.450970" lon="-6.475150">
        <ele>823</ele>
        <time>2022-12-03T22:05:42Z</time>
      </trkpt>
      <trkpt lat="40.450920" lon="-6.475620">
        <ele>823</ele>
        <time>2022-12-03T22:05:48Z</time>
      </trkpt>
      <trkpt lat="40.450990" lon="-6.477600">
        <ele>818</ele>
        <time>2022-12-03T22:06:15Z</time>
      </trkpt>
      <trkpt lat="40.451050" lon="-6.477820">
        <ele>818</ele>
        <time>2022-12-03T22:06:18Z</time>
      </trkpt>
      <trkpt lat="40.451270" lon="-6.478140">
        <ele>816</ele>
        <time>2022-12-03T22:06:24Z</time>
      </trkpt>
      <trkpt lat="40.451310" lon="-6.478240">
        <ele>816</ele>
        <time>2022-12-03T22:06:26Z</time>
      </trkpt>
      <trkpt lat="40.452030" lon="-6.480890">
        <ele>815</ele>
        <time>2022-12-03T22:07:04Z</time>
      </trkpt>
      <trkpt lat="40.452170" lon="-6.481540">
        <ele>814</ele>
        <time>2022-12-03T22:07:13Z</time>
      </trkpt>
      <trkpt lat="40.452820" lon="-6.485400">
        <ele>807</ele>
        <time>2022-12-03T22:08:06Z</time>
      </trkpt>
      <trkpt lat="40.452920" lon="-6.485600">
        <ele>807</ele>
        <time>2022-12-03T22:08:10Z</time>
      </trkpt>
      <trkpt lat="40.453270" lon="-6.485960">
        <ele>806</ele>
        <time>2022-12-03T22:08:18Z</time>
      </trkpt>
      <trkpt lat="40.453300" lon="-6.486010">
        <ele>806</ele>
        <time>2022-12-03T22:08:18Z</time>
      </trkpt>
      <trkpt lat="40.453470" lon="-6.486560">
        <ele>806</ele>
        <time>2022-12-03T22:08:26Z</time>
      </trkpt>
      <trkpt lat="40.453680" lon="-6.487380">
        <ele>808</ele>
        <time>2022-12-03T22:08:38Z</time>
      </trkpt>
      <trkpt lat="40.453690" lon="-6.487540">
        <ele>808</ele>
        <time>2022-12-03T22:08:40Z</time>
      </trkpt>
      <trkpt lat="40.453660" lon="-6.487690">
        <ele>808</ele>
        <time>2022-12-03T22:08:42Z</time>
      </trkpt>
      <trkpt lat="40.453520" lon="-6.487980">
        <ele>808</ele>
        <time>2022-12-03T22:08:47Z</time>
      </trkpt>
      <trkpt lat="40.452980" lon="-6.488720">
        <ele>809</ele>
        <time>2022-12-03T22:09:01Z</time>
      </trkpt>
      <trkpt lat="40.452670" lon="-6.489050">
        <ele>811</ele>
        <time>2022-12-03T22:09:08Z</time>
      </trkpt>
      <trkpt lat="40.452620" lon="-6.489150">
        <ele>811</ele>
        <time>2022-12-03T22:09:10Z</time>
      </trkpt>
      <trkpt lat="40.452570" lon="-6.489300">
        <ele>811</ele>
        <time>2022-12-03T22:09:12Z</time>
      </trkpt>
      <trkpt lat="40.452550" lon="-6.489450">
        <ele>811</ele>
        <time>2022-12-03T22:09:14Z</time>
      </trkpt>
      <trkpt lat="40.452500" lon="-6.489460">
        <ele>811</ele>
        <time>2022-12-03T22:09:15Z</time>
      </trkpt>
      <trkpt lat="40.452300" lon="-6.489370">
        <ele>811</ele>
        <time>2022-12-03T22:09:19Z</time>
      </trkpt>
      <trkpt lat="40.452170" lon="-6.489860">
        <ele>811</ele>
        <time>2022-12-03T22:09:26Z</time>
      </trkpt>
      <trkpt lat="40.451920" lon="-6.489690">
        <ele>811</ele>
        <time>2022-12-03T22:09:31Z</time>
      </trkpt>
      <trkpt lat="40.451740" lon="-6.490390">
        <ele>810</ele>
        <time>2022-12-03T22:09:41Z</time>
      </trkpt>
      <trkpt lat="40.451690" lon="-6.490530">
        <ele>810</ele>
        <time>2022-12-03T22:09:43Z</time>
      </trkpt>
      <trkpt lat="40.451550" lon="-6.490600">
        <ele>810</ele>
        <time>2022-12-03T22:09:45Z</time>
      </trkpt>
      <trkpt lat="40.451370" lon="-6.490640">
        <ele>810</ele>
        <time>2022-12-03T22:09:49Z</time>
      </trkpt>
      <trkpt lat="40.450670" lon="-6.490860">
        <ele>810</ele>
        <time>2022-12-03T22:10:01Z</time>
      </trkpt>
      <trkpt lat="40.450380" lon="-6.491010">
        <ele>809</ele>
        <time>2022-12-03T22:10:07Z</time>
      </trkpt>
      <trkpt lat="40.449420" lon="-6.491720">
        <ele>807</ele>
        <time>2022-12-03T22:10:27Z</time>
      </trkpt>
      <trkpt lat="40.449210" lon="-6.491840">
        <ele>807</ele>
        <time>2022-12-03T22:10:31Z</time>
      </trkpt>
      <trkpt lat="40.445870" lon="-6.492710">
        <ele>806</ele>
        <time>2022-12-03T22:11:31Z</time>
      </trkpt>
      <trkpt lat="40.443600" lon="-6.493440">
        <ele>803</ele>
        <time>2022-12-03T22:12:13Z</time>
      </trkpt>
      <trkpt lat="40.443060" lon="-6.493640">
        <ele>804</ele>
        <time>2022-12-03T22:12:23Z</time>
      </trkpt>
      <trkpt lat="40.442110" lon="-6.494210">
        <ele>805</ele>
        <time>2022-12-03T22:12:41Z</time>
      </trkpt>
      <trkpt lat="40.437800" lon="-6.496880">
        <ele>815</ele>
        <time>2022-12-03T22:14:06Z</time>
      </trkpt>
      <trkpt lat="40.437160" lon="-6.497120">
        <ele>816</ele>
        <time>2022-12-03T22:14:18Z</time>
      </trkpt>
      <trkpt lat="40.436960" lon="-6.497180">
        <ele>817</ele>
        <time>2022-12-03T22:14:22Z</time>
      </trkpt>
      <trkpt lat="40.435960" lon="-6.497550">
        <ele>818</ele>
        <time>2022-12-03T22:14:40Z</time>
      </trkpt>
      <trkpt lat="40.435840" lon="-6.497610">
        <ele>818</ele>
        <time>2022-12-03T22:14:42Z</time>
      </trkpt>
      <trkpt lat="40.435670" lon="-6.497720">
        <ele>818</ele>
        <time>2022-12-03T22:14:46Z</time>
      </trkpt>
      <trkpt lat="40.432480" lon="-6.500560">
        <ele>811</ele>
        <time>2022-12-03T22:15:54Z</time>
      </trkpt>
      <trkpt lat="40.432280" lon="-6.500710">
        <ele>810</ele>
        <time>2022-12-03T22:15:58Z</time>
      </trkpt>
      <trkpt lat="40.432070" lon="-6.500820">
        <ele>809</ele>
        <time>2022-12-03T22:16:03Z</time>
      </trkpt>
      <trkpt lat="40.430850" lon="-6.501290">
        <ele>806</ele>
        <time>2022-12-03T22:16:25Z</time>
      </trkpt>
      <trkpt lat="40.430620" lon="-6.501420">
        <ele>805</ele>
        <time>2022-12-03T22:16:30Z</time>
      </trkpt>
      <trkpt lat="40.430300" lon="-6.501510">
        <ele>804</ele>
        <time>2022-12-03T22:16:35Z</time>
      </trkpt>
      <trkpt lat="40.430210" lon="-6.501680">
        <ele>804</ele>
        <time>2022-12-03T22:16:38Z</time>
      </trkpt>
      <trkpt lat="40.429930" lon="-6.502330">
        <ele>800</ele>
        <time>2022-12-03T22:16:48Z</time>
      </trkpt>
      <trkpt lat="40.429800" lon="-6.502850">
        <ele>797</ele>
        <time>2022-12-03T22:16:56Z</time>
      </trkpt>
      <trkpt lat="40.429440" lon="-6.503580">
        <ele>791</ele>
        <time>2022-12-03T22:17:08Z</time>
      </trkpt>
      <trkpt lat="40.429360" lon="-6.503920">
        <ele>790</ele>
        <time>2022-12-03T22:17:12Z</time>
      </trkpt>
      <trkpt lat="40.429170" lon="-6.505310">
        <ele>785</ele>
        <time>2022-12-03T22:17:31Z</time>
      </trkpt>
      <trkpt lat="40.429160" lon="-6.505580">
        <ele>784</ele>
        <time>2022-12-03T22:17:35Z</time>
      </trkpt>
      <trkpt lat="40.429190" lon="-6.506180">
        <ele>785</ele>
        <time>2022-12-03T22:17:43Z</time>
      </trkpt>
      <trkpt lat="40.429190" lon="-6.506420">
        <ele>786</ele>
        <time>2022-12-03T22:17:47Z</time>
      </trkpt>
      <trkpt lat="40.429190" lon="-6.506660">
        <ele>787</ele>
        <time>2022-12-03T22:17:50Z</time>
      </trkpt>
      <trkpt lat="40.429170" lon="-6.506790">
        <ele>788</ele>
        <time>2022-12-03T22:17:52Z</time>
      </trkpt>
      <trkpt lat="40.429140" lon="-6.506900">
        <ele>789</ele>
        <time>2022-12-03T22:17:53Z</time>
      </trkpt>
      <trkpt lat="40.429060" lon="-6.507030">
        <ele>790</ele>
        <time>2022-12-03T22:17:55Z</time>
      </trkpt>
      <trkpt lat="40.428710" lon="-6.507440">
        <ele>792</ele>
        <time>2022-12-03T22:18:04Z</time>
      </trkpt>
      <trkpt lat="40.428460" lon="-6.507780">
        <ele>792</ele>
        <time>2022-12-03T22:18:10Z</time>
      </trkpt>
      <trkpt lat="40.428320" lon="-6.508130">
        <ele>794</ele>
        <time>2022-12-03T22:18:16Z</time>
      </trkpt>
      <trkpt lat="40.427770" lon="-6.509880">
        <ele>796</ele>
        <time>2022-12-03T22:18:41Z</time>
      </trkpt>
      <trkpt lat="40.426960" lon="-6.512020">
        <ele>792</ele>
        <time>2022-12-03T22:19:14Z</time>
      </trkpt>
      <trkpt lat="40.426800" lon="-6.512540">
        <ele>792</ele>
        <time>2022-12-03T22:19:21Z</time>
      </trkpt>
      <trkpt lat="40.426320" lon="-6.514800">
        <ele>795</ele>
        <time>2022-12-03T22:19:53Z</time>
      </trkpt>
      <trkpt lat="40.426240" lon="-6.515580">
        <ele>797</ele>
        <time>2022-12-03T22:20:04Z</time>
      </trkpt>
      <trkpt lat="40.426170" lon="-6.517050">
        <ele>801</ele>
        <time>2022-12-03T22:20:24Z</time>
      </trkpt>
      <trkpt lat="40.426100" lon="-6.517400">
        <ele>801</ele>
        <time>2022-12-03T22:20:28Z</time>
      </trkpt>
      <trkpt lat="40.426000" lon="-6.517630">
        <ele>801</ele>
        <time>2022-12-03T22:20:32Z</time>
      </trkpt>
      <trkpt lat="40.425810" lon="-6.517930">
        <ele>801</ele>
        <time>2022-12-03T22:20:37Z</time>
      </trkpt>
      <trkpt lat="40.424740" lon="-6.519560">
        <ele>807</ele>
        <time>2022-12-03T22:21:06Z</time>
      </trkpt>
      <trkpt lat="40.424600" lon="-6.519800">
        <ele>808</ele>
        <time>2022-12-03T22:21:11Z</time>
      </trkpt>
      <trkpt lat="40.424430" lon="-6.520220">
        <ele>809</ele>
        <time>2022-12-03T22:21:17Z</time>
      </trkpt>
      <trkpt lat="40.424120" lon="-6.521510">
        <ele>810</ele>
        <time>2022-12-03T22:21:35Z</time>
      </trkpt>
      <trkpt lat="40.423440" lon="-6.524510">
        <ele>817</ele>
        <time>2022-12-03T22:22:18Z</time>
      </trkpt>
      <trkpt lat="40.423400" lon="-6.524770">
        <ele>817</ele>
        <time>2022-12-03T22:22:21Z</time>
      </trkpt>
      <trkpt lat="40.423370" lon="-6.525190">
        <ele>817</ele>
        <time>2022-12-03T22:22:27Z</time>
      </trkpt>
      <trkpt lat="40.423420" lon="-6.525740">
        <ele>818</ele>
        <time>2022-12-03T22:22:35Z</time>
      </trkpt>
      <trkpt lat="40.423410" lon="-6.525950">
        <ele>819</ele>
        <time>2022-12-03T22:22:37Z</time>
      </trkpt>
      <trkpt lat="40.423370" lon="-6.526160">
        <ele>819</ele>
        <time>2022-12-03T22:22:40Z</time>
      </trkpt>
      <trkpt lat="40.423300" lon="-6.526350">
        <ele>819</ele>
        <time>2022-12-03T22:22:43Z</time>
      </trkpt>
      <trkpt lat="40.422830" lon="-6.527200">
        <ele>821</ele>
        <time>2022-12-03T22:22:57Z</time>
      </trkpt>
      <trkpt lat="40.422690" lon="-6.527570">
        <ele>821</ele>
        <time>2022-12-03T22:23:03Z</time>
      </trkpt>
      <trkpt lat="40.422030" lon="-6.530400">
        <ele>829</ele>
        <time>2022-12-03T22:23:43Z</time>
      </trkpt>
      <trkpt lat="40.421870" lon="-6.530700">
        <ele>829</ele>
        <time>2022-12-03T22:23:48Z</time>
      </trkpt>
      <trkpt lat="40.421750" lon="-6.530830">
        <ele>830</ele>
        <time>2022-12-03T22:23:51Z</time>
      </trkpt>
      <trkpt lat="40.421190" lon="-6.531280">
        <ele>833</ele>
        <time>2022-12-03T22:24:02Z</time>
      </trkpt>
      <trkpt lat="40.420320" lon="-6.532110">
        <ele>835</ele>
        <time>2022-12-03T22:24:22Z</time>
      </trkpt>
      <trkpt lat="40.420120" lon="-6.532320">
        <ele>836</ele>
        <time>2022-12-03T22:24:26Z</time>
      </trkpt>
      <trkpt lat="40.419980" lon="-6.532480">
        <ele>836</ele>
        <time>2022-12-03T22:24:29Z</time>
      </trkpt>
      <trkpt lat="40.419770" lon="-6.532820">
        <ele>835</ele>
        <time>2022-12-03T22:24:35Z</time>
      </trkpt>
      <trkpt lat="40.418990" lon="-6.534440">
        <ele>833</ele>
        <time>2022-12-03T22:25:01Z</time>
      </trkpt>
      <trkpt lat="40.418810" lon="-6.534920">
        <ele>833</ele>
        <time>2022-12-03T22:25:09Z</time>
      </trkpt>
      <trkpt lat="40.417480" lon="-6.539670">
        <ele>824</ele>
        <time>2022-12-03T22:26:17Z</time>
      </trkpt>
      <trkpt lat="40.417070" lon="-6.540310">
        <ele>822</ele>
        <time>2022-12-03T22:26:29Z</time>
      </trkpt>
      <trkpt lat="40.416880" lon="-6.540600">
        <ele>822</ele>
        <time>2022-12-03T22:26:34Z</time>
      </trkpt>
      <trkpt lat="40.416050" lon="-6.541400">
        <ele>823</ele>
        <time>2022-12-03T22:26:52Z</time>
      </trkpt>
      <trkpt lat="40.415680" lon="-6.541840">
        <ele>823</ele>
        <time>2022-12-03T22:27:01Z</time>
      </trkpt>
      <trkpt lat="40.414940" lon="-6.542500">
        <ele>824</ele>
        <time>2022-12-03T22:27:17Z</time>
      </trkpt>
      <trkpt lat="40.414690" lon="-6.542680">
        <ele>824</ele>
        <time>2022-12-03T22:27:22Z</time>
      </trkpt>
      <trkpt lat="40.414320" lon="-6.542890">
        <ele>823</ele>
        <time>2022-12-03T22:27:29Z</time>
      </trkpt>
      <trkpt lat="40.414120" lon="-6.543070">
        <ele>823</ele>
        <time>2022-12-03T22:27:33Z</time>
      </trkpt>
      <trkpt lat="40.413770" lon="-6.543270">
        <ele>820</ele>
        <time>2022-12-03T22:27:40Z</time>
      </trkpt>
      <trkpt lat="40.413440" lon="-6.543390">
        <ele>817</ele>
        <time>2022-12-03T22:27:46Z</time>
      </trkpt>
      <trkpt lat="40.413360" lon="-6.543380">
        <ele>816</ele>
        <time>2022-12-03T22:27:48Z</time>
      </trkpt>
      <trkpt lat="40.412900" lon="-6.542950">
        <ele>813</ele>
        <time>2022-12-03T22:27:58Z</time>
      </trkpt>
      <trkpt lat="40.412820" lon="-6.542880">
        <ele>812</ele>
        <time>2022-12-03T22:27:59Z</time>
      </trkpt>
      <trkpt lat="40.412720" lon="-6.542840">
        <ele>811</ele>
        <time>2022-12-03T22:28:01Z</time>
      </trkpt>
      <trkpt lat="40.412510" lon="-6.542760">
        <ele>810</ele>
        <time>2022-12-03T22:28:05Z</time>
      </trkpt>
      <trkpt lat="40.412420" lon="-6.542840">
        <ele>810</ele>
        <time>2022-12-03T22:28:07Z</time>
      </trkpt>
      <trkpt lat="40.412180" lon="-6.543160">
        <ele>810</ele>
        <time>2022-12-03T22:28:13Z</time>
      </trkpt>
      <trkpt lat="40.412110" lon="-6.543290">
        <ele>810</ele>
        <time>2022-12-03T22:28:15Z</time>
      </trkpt>
      <trkpt lat="40.412050" lon="-6.543500">
        <ele>810</ele>
        <time>2022-12-03T22:28:18Z</time>
      </trkpt>
      <trkpt lat="40.412080" lon="-6.543810">
        <ele>809</ele>
        <time>2022-12-03T22:28:23Z</time>
      </trkpt>
      <trkpt lat="40.412110" lon="-6.544020">
        <ele>809</ele>
        <time>2022-12-03T22:28:26Z</time>
      </trkpt>
      <trkpt lat="40.412270" lon="-6.544630">
        <ele>809</ele>
        <time>2022-12-03T22:28:34Z</time>
      </trkpt>
      <trkpt lat="40.412330" lon="-6.544990">
        <ele>808</ele>
        <time>2022-12-03T22:28:39Z</time>
      </trkpt>
      <trkpt lat="40.412330" lon="-6.545260">
        <ele>809</ele>
        <time>2022-12-03T22:28:43Z</time>
      </trkpt>
      <trkpt lat="40.412270" lon="-6.545520">
        <ele>809</ele>
        <time>2022-12-03T22:28:47Z</time>
      </trkpt>
      <trkpt lat="40.412150" lon="-6.545800">
        <ele>810</ele>
        <time>2022-12-03T22:28:51Z</time>
      </trkpt>
      <trkpt lat="40.411940" lon="-6.546060">
        <ele>811</ele>
        <time>2022-12-03T22:28:56Z</time>
      </trkpt>
      <trkpt lat="40.410660" lon="-6.547220">
        <ele>821</ele>
        <time>2022-12-03T22:29:24Z</time>
      </trkpt>
      <trkpt lat="40.410490" lon="-6.547410">
        <ele>822</ele>
        <time>2022-12-03T22:29:28Z</time>
      </trkpt>
      <trkpt lat="40.409580" lon="-6.548880">
        <ele>827</ele>
        <time>2022-12-03T22:29:53Z</time>
      </trkpt>
      <trkpt lat="40.409400" lon="-6.549160">
        <ele>828</ele>
        <time>2022-12-03T22:29:58Z</time>
      </trkpt>
      <trkpt lat="40.409200" lon="-6.549420">
        <ele>829</ele>
        <time>2022-12-03T22:30:03Z</time>
      </trkpt>
      <trkpt lat="40.408590" lon="-6.550110">
        <ele>830</ele>
        <time>2022-12-03T22:30:18Z</time>
      </trkpt>
      <trkpt lat="40.408340" lon="-6.550450">
        <ele>832</ele>
        <time>2022-12-03T22:30:24Z</time>
      </trkpt>
      <trkpt lat="40.407760" lon="-6.551570">
        <ele>832</ele>
        <time>2022-12-03T22:30:42Z</time>
      </trkpt>
      <trkpt lat="40.407530" lon="-6.552120">
        <ele>832</ele>
        <time>2022-12-03T22:30:51Z</time>
      </trkpt>
      <trkpt lat="40.407430" lon="-6.552440">
        <ele>832</ele>
        <time>2022-12-03T22:30:56Z</time>
      </trkpt>
      <trkpt lat="40.407330" lon="-6.552650">
        <ele>832</ele>
        <time>2022-12-03T22:30:59Z</time>
      </trkpt>
      <trkpt lat="40.407260" lon="-6.552750">
        <ele>833</ele>
        <time>2022-12-03T22:31:01Z</time>
      </trkpt>
      <trkpt lat="40.406290" lon="-6.553810">
        <ele>836</ele>
        <time>2022-12-03T22:31:23Z</time>
      </trkpt>
      <trkpt lat="40.406130" lon="-6.554020">
        <ele>836</ele>
        <time>2022-12-03T22:31:27Z</time>
      </trkpt>
      <trkpt lat="40.405830" lon="-6.554490">
        <ele>837</ele>
        <time>2022-12-03T22:31:36Z</time>
      </trkpt>
      <trkpt lat="40.405510" lon="-6.555130">
        <ele>838</ele>
        <time>2022-12-03T22:31:46Z</time>
      </trkpt>
      <trkpt lat="40.405030" lon="-6.555880">
        <ele>836</ele>
        <time>2022-12-03T22:31:59Z</time>
      </trkpt>
      <trkpt lat="40.404870" lon="-6.556220">
        <ele>835</ele>
        <time>2022-12-03T22:32:05Z</time>
      </trkpt>
      <trkpt lat="40.404280" lon="-6.557820">
        <ele>833</ele>
        <time>2022-12-03T22:32:29Z</time>
      </trkpt>
      <trkpt lat="40.404210" lon="-6.558070">
        <ele>832</ele>
        <time>2022-12-03T22:32:32Z</time>
      </trkpt>
      <trkpt lat="40.404040" lon="-6.558850">
        <ele>830</ele>
        <time>2022-12-03T22:32:43Z</time>
      </trkpt>
      <trkpt lat="40.403850" lon="-6.559830">
        <ele>829</ele>
        <time>2022-12-03T22:32:57Z</time>
      </trkpt>
      <trkpt lat="40.403750" lon="-6.560160">
        <ele>829</ele>
        <time>2022-12-03T22:33:02Z</time>
      </trkpt>
      <trkpt lat="40.402860" lon="-6.562090">
        <ele>823</ele>
        <time>2022-12-03T22:33:32Z</time>
      </trkpt>
      <trkpt lat="40.402720" lon="-6.562470">
        <ele>821</ele>
        <time>2022-12-03T22:33:38Z</time>
      </trkpt>
      <trkpt lat="40.402680" lon="-6.562750">
        <ele>820</ele>
        <time>2022-12-03T22:33:42Z</time>
      </trkpt>
      <trkpt lat="40.402600" lon="-6.564010">
        <ele>820</ele>
        <time>2022-12-03T22:33:59Z</time>
      </trkpt>
      <trkpt lat="40.402540" lon="-6.564370">
        <ele>820</ele>
        <time>2022-12-03T22:34:04Z</time>
      </trkpt>
      <trkpt lat="40.402490" lon="-6.564520">
        <ele>820</ele>
        <time>2022-12-03T22:34:06Z</time>
      </trkpt>
      <trkpt lat="40.402370" lon="-6.564780">
        <ele>820</ele>
        <time>2022-12-03T22:34:11Z</time>
      </trkpt>
      <trkpt lat="40.401330" lon="-6.566240">
        <ele>820</ele>
        <time>2022-12-03T22:34:38Z</time>
      </trkpt>
      <trkpt lat="40.400420" lon="-6.567580">
        <ele>817</ele>
        <time>2022-12-03T22:35:02Z</time>
      </trkpt>
      <trkpt lat="40.400320" lon="-6.567700">
        <ele>816</ele>
        <time>2022-12-03T22:35:04Z</time>
      </trkpt>
      <trkpt lat="40.399190" lon="-6.568840">
        <ele>812</ele>
        <time>2022-12-03T22:35:30Z</time>
      </trkpt>
      <trkpt lat="40.398350" lon="-6.569730">
        <ele>810</ele>
        <time>2022-12-03T22:35:49Z</time>
      </trkpt>
      <trkpt lat="40.397830" lon="-6.570260">
        <ele>806</ele>
        <time>2022-12-03T22:36:01Z</time>
      </trkpt>
      <trkpt lat="40.397580" lon="-6.570570">
        <ele>804</ele>
        <time>2022-12-03T22:36:07Z</time>
      </trkpt>
      <trkpt lat="40.397370" lon="-6.570900">
        <ele>802</ele>
        <time>2022-12-03T22:36:13Z</time>
      </trkpt>
      <trkpt lat="40.397210" lon="-6.571230">
        <ele>799</ele>
        <time>2022-12-03T22:36:18Z</time>
      </trkpt>
      <trkpt lat="40.397090" lon="-6.571590">
        <ele>796</ele>
        <time>2022-12-03T22:36:23Z</time>
      </trkpt>
      <trkpt lat="40.396990" lon="-6.571970">
        <ele>794</ele>
        <time>2022-12-03T22:36:29Z</time>
      </trkpt>
      <trkpt lat="40.396900" lon="-6.572820">
        <ele>791</ele>
        <time>2022-12-03T22:36:40Z</time>
      </trkpt>
      <trkpt lat="40.396950" lon="-6.573500">
        <ele>786</ele>
        <time>2022-12-03T22:36:50Z</time>
      </trkpt>
      <trkpt lat="40.397030" lon="-6.573870">
        <ele>782</ele>
        <time>2022-12-03T22:36:55Z</time>
      </trkpt>
      <trkpt lat="40.397100" lon="-6.574100">
        <ele>779</ele>
        <time>2022-12-03T22:36:58Z</time>
      </trkpt>
      <trkpt lat="40.397320" lon="-6.574660">
        <ele>776</ele>
        <time>2022-12-03T22:37:07Z</time>
      </trkpt>
      <trkpt lat="40.398240" lon="-6.576970">
        <ele>776</ele>
        <time>2022-12-03T22:37:42Z</time>
      </trkpt>
      <trkpt lat="40.398470" lon="-6.577730">
        <ele>785</ele>
        <time>2022-12-03T22:37:53Z</time>
      </trkpt>
      <trkpt lat="40.398530" lon="-6.578080">
        <ele>786</ele>
        <time>2022-12-03T22:37:58Z</time>
      </trkpt>
      <trkpt lat="40.398540" lon="-6.578460">
        <ele>788</ele>
        <time>2022-12-03T22:38:03Z</time>
      </trkpt>
      <trkpt lat="40.398470" lon="-6.578840">
        <ele>790</ele>
        <time>2022-12-03T22:38:08Z</time>
      </trkpt>
      <trkpt lat="40.398370" lon="-6.579180">
        <ele>793</ele>
        <time>2022-12-03T22:38:13Z</time>
      </trkpt>
      <trkpt lat="40.398170" lon="-6.579550">
        <ele>794</ele>
        <time>2022-12-03T22:38:19Z</time>
      </trkpt>
      <trkpt lat="40.397780" lon="-6.579980">
        <ele>793</ele>
        <time>2022-12-03T22:38:28Z</time>
      </trkpt>
      <trkpt lat="40.394240" lon="-6.583300">
        <ele>804</ele>
        <time>2022-12-03T22:39:46Z</time>
      </trkpt>
      <trkpt lat="40.394090" lon="-6.583490">
        <ele>804</ele>
        <time>2022-12-03T22:39:50Z</time>
      </trkpt>
      <trkpt lat="40.393900" lon="-6.583820">
        <ele>803</ele>
        <time>2022-12-03T22:39:55Z</time>
      </trkpt>
      <trkpt lat="40.393810" lon="-6.584050">
        <ele>802</ele>
        <time>2022-12-03T22:39:59Z</time>
      </trkpt>
      <trkpt lat="40.393740" lon="-6.584310">
        <ele>802</ele>
        <time>2022-12-03T22:40:02Z</time>
      </trkpt>
      <trkpt lat="40.393670" lon="-6.584710">
        <ele>802</ele>
        <time>2022-12-03T22:40:08Z</time>
      </trkpt>
      <trkpt lat="40.393500" lon="-6.585440">
        <ele>803</ele>
        <time>2022-12-03T22:40:18Z</time>
      </trkpt>
      <trkpt lat="40.393390" lon="-6.585710">
        <ele>803</ele>
        <time>2022-12-03T22:40:22Z</time>
      </trkpt>
      <trkpt lat="40.393240" lon="-6.585970">
        <ele>803</ele>
        <time>2022-12-03T22:40:27Z</time>
      </trkpt>
      <trkpt lat="40.393040" lon="-6.586250">
        <ele>804</ele>
        <time>2022-12-03T22:40:32Z</time>
      </trkpt>
      <trkpt lat="40.391630" lon="-6.587890">
        <ele>808</ele>
        <time>2022-12-03T22:41:06Z</time>
      </trkpt>
      <trkpt lat="40.391340" lon="-6.588130">
        <ele>808</ele>
        <time>2022-12-03T22:41:12Z</time>
      </trkpt>
      <trkpt lat="40.390780" lon="-6.588440">
        <ele>809</ele>
        <time>2022-12-03T22:41:23Z</time>
      </trkpt>
      <trkpt lat="40.390330" lon="-6.588740">
        <ele>809</ele>
        <time>2022-12-03T22:41:32Z</time>
      </trkpt>
      <trkpt lat="40.390220" lon="-6.588840">
        <ele>809</ele>
        <time>2022-12-03T22:41:34Z</time>
      </trkpt>
      <trkpt lat="40.390090" lon="-6.589000">
        <ele>808</ele>
        <time>2022-12-03T22:41:37Z</time>
      </trkpt>
      <trkpt lat="40.389710" lon="-6.589490">
        <ele>810</ele>
        <time>2022-12-03T22:41:47Z</time>
      </trkpt>
      <trkpt lat="40.389590" lon="-6.589610">
        <ele>810</ele>
        <time>2022-12-03T22:41:49Z</time>
      </trkpt>
      <trkpt lat="40.388880" lon="-6.590180">
        <ele>811</ele>
        <time>2022-12-03T22:42:04Z</time>
      </trkpt>
      <trkpt lat="40.388230" lon="-6.590870">
        <ele>811</ele>
        <time>2022-12-03T22:42:19Z</time>
      </trkpt>
      <trkpt lat="40.387520" lon="-6.591570">
        <ele>811</ele>
        <time>2022-12-03T22:42:35Z</time>
      </trkpt>
      <trkpt lat="40.387360" lon="-6.591850">
        <ele>813</ele>
        <time>2022-12-03T22:42:39Z</time>
      </trkpt>
      <trkpt lat="40.387080" lon="-6.592540">
        <ele>815</ele>
        <time>2022-12-03T22:42:50Z</time>
      </trkpt>
      <trkpt lat="40.386840" lon="-6.593240">
        <ele>815</ele>
        <time>2022-12-03T22:43:00Z</time>
      </trkpt>
      <trkpt lat="40.386780" lon="-6.593540">
        <ele>814</ele>
        <time>2022-12-03T22:43:05Z</time>
      </trkpt>
      <trkpt lat="40.386790" lon="-6.593790">
        <ele>814</ele>
        <time>2022-12-03T22:43:08Z</time>
      </trkpt>
      <trkpt lat="40.386860" lon="-6.594130">
        <ele>814</ele>
        <time>2022-12-03T22:43:13Z</time>
      </trkpt>
      <trkpt lat="40.386850" lon="-6.594290">
        <ele>814</ele>
        <time>2022-12-03T22:43:15Z</time>
      </trkpt>
      <trkpt lat="40.386750" lon="-6.595080">
        <ele>817</ele>
        <time>2022-12-03T22:43:26Z</time>
      </trkpt>
      <trkpt lat="40.386630" lon="-6.595300">
        <ele>816</ele>
        <time>2022-12-03T22:43:30Z</time>
      </trkpt>
      <trkpt lat="40.386390" lon="-6.595510">
        <ele>817</ele>
        <time>2022-12-03T22:43:35Z</time>
      </trkpt>
      <trkpt lat="40.386250" lon="-6.595670">
        <ele>817</ele>
        <time>2022-12-03T22:43:38Z</time>
      </trkpt>
      <trkpt lat="40.386150" lon="-6.595920">
        <ele>817</ele>
        <time>2022-12-03T22:43:42Z</time>
      </trkpt>
      <trkpt lat="40.386120" lon="-6.596380">
        <ele>818</ele>
        <time>2022-12-03T22:43:48Z</time>
      </trkpt>
      <trkpt lat="40.386070" lon="-6.596740">
        <ele>818</ele>
        <time>2022-12-03T22:43:53Z</time>
      </trkpt>
      <trkpt lat="40.386060" lon="-6.597230">
        <ele>819</ele>
        <time>2022-12-03T22:44:00Z</time>
      </trkpt>
      <trkpt lat="40.386020" lon="-6.597500">
        <ele>820</ele>
        <time>2022-12-03T22:44:03Z</time>
      </trkpt>
      <trkpt lat="40.385960" lon="-6.597730">
        <ele>820</ele>
        <time>2022-12-03T22:44:07Z</time>
      </trkpt>
      <trkpt lat="40.385630" lon="-6.598560">
        <ele>821</ele>
        <time>2022-12-03T22:44:19Z</time>
      </trkpt>
      <trkpt lat="40.385440" lon="-6.599140">
        <ele>822</ele>
        <time>2022-12-03T22:44:28Z</time>
      </trkpt>
      <trkpt lat="40.385360" lon="-6.599340">
        <ele>822</ele>
        <time>2022-12-03T22:44:31Z</time>
      </trkpt>
      <trkpt lat="40.385120" lon="-6.599720">
        <ele>821</ele>
        <time>2022-12-03T22:44:38Z</time>
      </trkpt>
      <trkpt lat="40.384510" lon="-6.600470">
        <ele>821</ele>
        <time>2022-12-03T22:44:53Z</time>
      </trkpt>
      <trkpt lat="40.384340" lon="-6.600840">
        <ele>821</ele>
        <time>2022-12-03T22:44:58Z</time>
      </trkpt>
      <trkpt lat="40.384310" lon="-6.600980">
        <ele>822</ele>
        <time>2022-12-03T22:45:00Z</time>
      </trkpt>
      <trkpt lat="40.384140" lon="-6.601050">
        <ele>821</ele>
        <time>2022-12-03T22:45:04Z</time>
      </trkpt>
      <trkpt lat="40.384210" lon="-6.601330">
        <ele>823</ele>
        <time>2022-12-03T22:45:08Z</time>
      </trkpt>
      <trkpt lat="40.384330" lon="-6.602220">
        <ele>828</ele>
        <time>2022-12-03T22:45:20Z</time>
      </trkpt>
      <trkpt lat="40.384520" lon="-6.602700">
        <ele>831</ele>
        <time>2022-12-03T22:45:27Z</time>
      </trkpt>
      <trkpt lat="40.384600" lon="-6.603060">
        <ele>834</ele>
        <time>2022-12-03T22:45:32Z</time>
      </trkpt>
      <trkpt lat="40.384670" lon="-6.603580">
        <ele>837</ele>
        <time>2022-12-03T22:45:39Z</time>
      </trkpt>
      <trkpt lat="40.384700" lon="-6.603930">
        <ele>838</ele>
        <time>2022-12-03T22:45:44Z</time>
      </trkpt>
      <trkpt lat="40.384710" lon="-6.604010">
        <ele>839</ele>
        <time>2022-12-03T22:45:45Z</time>
      </trkpt>
      <trkpt lat="40.384680" lon="-6.604180">
        <ele>839</ele>
        <time>2022-12-03T22:45:48Z</time>
      </trkpt>
      <trkpt lat="40.384670" lon="-6.604420">
        <ele>838</ele>
        <time>2022-12-03T22:45:51Z</time>
      </trkpt>
      <trkpt lat="40.384690" lon="-6.604570">
        <ele>838</ele>
        <time>2022-12-03T22:45:53Z</time>
      </trkpt>
      <trkpt lat="40.384730" lon="-6.604640">
        <ele>838</ele>
        <time>2022-12-03T22:45:54Z</time>
      </trkpt>
      <trkpt lat="40.384950" lon="-6.604820">
        <ele>840</ele>
        <time>2022-12-03T22:45:59Z</time>
      </trkpt>
      <trkpt lat="40.385010" lon="-6.604990">
        <ele>840</ele>
        <time>2022-12-03T22:46:01Z</time>
      </trkpt>
      <trkpt lat="40.385020" lon="-6.605100">
        <ele>839</ele>
        <time>2022-12-03T22:46:03Z</time>
      </trkpt>
      <trkpt lat="40.385020" lon="-6.605220">
        <ele>838</ele>
        <time>2022-12-03T22:46:04Z</time>
      </trkpt>
      <trkpt lat="40.385080" lon="-6.605960">
        <ele>833</ele>
        <time>2022-12-03T22:46:14Z</time>
      </trkpt>
      <trkpt lat="40.385070" lon="-6.606160">
        <ele>834</ele>
        <time>2022-12-03T22:46:17Z</time>
      </trkpt>
      <trkpt lat="40.385010" lon="-6.606420">
        <ele>835</ele>
        <time>2022-12-03T22:46:21Z</time>
      </trkpt>
      <trkpt lat="40.384720" lon="-6.606920">
        <ele>836</ele>
        <time>2022-12-03T22:46:29Z</time>
      </trkpt>
      <trkpt lat="40.384540" lon="-6.607170">
        <ele>835</ele>
        <time>2022-12-03T22:46:34Z</time>
      </trkpt>
      <trkpt lat="40.384820" lon="-6.607400">
        <ele>837</ele>
        <time>2022-12-03T22:46:40Z</time>
      </trkpt>
      <trkpt lat="40.384820" lon="-6.607430">
        <ele>838</ele>
        <time>2022-12-03T22:46:40Z</time>
      </trkpt>
      <trkpt lat="40.384680" lon="-6.608160">
        <ele>836</ele>
        <time>2022-12-03T22:46:51Z</time>
      </trkpt>
      <trkpt lat="40.384660" lon="-6.608410">
        <ele>835</ele>
        <time>2022-12-03T22:46:54Z</time>
      </trkpt>
      <trkpt lat="40.384470" lon="-6.608600">
        <ele>833</ele>
        <time>2022-12-03T22:46:58Z</time>
      </trkpt>
      <trkpt lat="40.384360" lon="-6.608750">
        <ele>832</ele>
        <time>2022-12-03T22:47:01Z</time>
      </trkpt>
      <trkpt lat="40.384170" lon="-6.609160">
        <ele>830</ele>
        <time>2022-12-03T22:47:08Z</time>
      </trkpt>
      <trkpt lat="40.384120" lon="-6.609330">
        <ele>830</ele>
        <time>2022-12-03T22:47:10Z</time>
      </trkpt>
      <trkpt lat="40.384030" lon="-6.609550">
        <ele>831</ele>
        <time>2022-12-03T22:47:13Z</time>
      </trkpt>
      <trkpt lat="40.383830" lon="-6.609890">
        <ele>831</ele>
        <time>2022-12-03T22:47:19Z</time>
      </trkpt>
      <trkpt lat="40.383660" lon="-6.610090">
        <ele>831</ele>
        <time>2022-12-03T22:47:23Z</time>
      </trkpt>
      <trkpt lat="40.383340" lon="-6.610400">
        <ele>832</ele>
        <time>2022-12-03T22:47:30Z</time>
      </trkpt>
      <trkpt lat="40.383300" lon="-6.610470">
        <ele>832</ele>
        <time>2022-12-03T22:47:32Z</time>
      </trkpt>
      <trkpt lat="40.383280" lon="-6.610550">
        <ele>833</ele>
        <time>2022-12-03T22:47:33Z</time>
      </trkpt>
      <trkpt lat="40.382720" lon="-6.610810">
        <ele>833</ele>
        <time>2022-12-03T22:47:43Z</time>
      </trkpt>
      <trkpt lat="40.382440" lon="-6.610870">
        <ele>833</ele>
        <time>2022-12-03T22:47:48Z</time>
      </trkpt>
      <trkpt lat="40.380910" lon="-6.610860">
        <ele>839</ele>
        <time>2022-12-03T22:48:15Z</time>
      </trkpt>
      <trkpt lat="40.380590" lon="-6.610900">
        <ele>840</ele>
        <time>2022-12-03T22:48:21Z</time>
      </trkpt>
      <trkpt lat="40.380320" lon="-6.611000">
        <ele>841</ele>
        <time>2022-12-03T22:48:26Z</time>
      </trkpt>
      <trkpt lat="40.379670" lon="-6.611390">
        <ele>845</ele>
        <time>2022-12-03T22:48:39Z</time>
      </trkpt>
      <trkpt lat="40.378290" lon="-6.611910">
        <ele>847</ele>
        <time>2022-12-03T22:49:04Z</time>
      </trkpt>
      <trkpt lat="40.377940" lon="-6.612100">
        <ele>847</ele>
        <time>2022-12-03T22:49:11Z</time>
      </trkpt>
      <trkpt lat="40.377660" lon="-6.612340">
        <ele>847</ele>
        <time>2022-12-03T22:49:17Z</time>
      </trkpt>
      <trkpt lat="40.377450" lon="-6.612580">
        <ele>848</ele>
        <time>2022-12-03T22:49:22Z</time>
      </trkpt>
      <trkpt lat="40.376900" lon="-6.613300">
        <ele>847</ele>
        <time>2022-12-03T22:49:36Z</time>
      </trkpt>
      <trkpt lat="40.376700" lon="-6.613520">
        <ele>846</ele>
        <time>2022-12-03T22:49:41Z</time>
      </trkpt>
      <trkpt lat="40.376480" lon="-6.613710">
        <ele>847</ele>
        <time>2022-12-03T22:49:45Z</time>
      </trkpt>
      <trkpt lat="40.376330" lon="-6.613810">
        <ele>847</ele>
        <time>2022-12-03T22:49:48Z</time>
      </trkpt>
      <trkpt lat="40.372960" lon="-6.615680">
        <ele>852</ele>
        <time>2022-12-03T22:50:53Z</time>
      </trkpt>
      <trkpt lat="40.372610" lon="-6.615950">
        <ele>854</ele>
        <time>2022-12-03T22:51:01Z</time>
      </trkpt>
      <trkpt lat="40.371400" lon="-6.617160">
        <ele>856</ele>
        <time>2022-12-03T22:51:28Z</time>
      </trkpt>
      <trkpt lat="40.371120" lon="-6.617410">
        <ele>856</ele>
        <time>2022-12-03T22:51:34Z</time>
      </trkpt>
      <trkpt lat="40.370670" lon="-6.617750">
        <ele>856</ele>
        <time>2022-12-03T22:51:43Z</time>
      </trkpt>
      <trkpt lat="40.360030" lon="-6.624390">
        <ele>878</ele>
        <time>2022-12-03T22:55:13Z</time>
      </trkpt>
      <trkpt lat="40.359750" lon="-6.624560">
        <ele>878</ele>
        <time>2022-12-03T22:55:18Z</time>
      </trkpt>
      <trkpt lat="40.359380" lon="-6.624840">
        <ele>876</ele>
        <time>2022-12-03T22:55:26Z</time>
      </trkpt>
      <trkpt lat="40.354300" lon="-6.629000">
        <ele>869</ele>
        <time>2022-12-03T22:57:12Z</time>
      </trkpt>
      <trkpt lat="40.353920" lon="-6.629340">
        <ele>869</ele>
        <time>2022-12-03T22:57:20Z</time>
      </trkpt>
      <trkpt lat="40.353730" lon="-6.629550">
        <ele>869</ele>
        <time>2022-12-03T22:57:25Z</time>
      </trkpt>
      <trkpt lat="40.353160" lon="-6.630330">
        <ele>868</ele>
        <time>2022-12-03T22:57:39Z</time>
      </trkpt>
      <trkpt lat="40.352860" lon="-6.630630">
        <ele>867</ele>
        <time>2022-12-03T22:57:46Z</time>
      </trkpt>
      <trkpt lat="40.350080" lon="-6.632780">
        <ele>862</ele>
        <time>2022-12-03T22:58:44Z</time>
      </trkpt>
      <trkpt lat="40.349890" lon="-6.632950">
        <ele>861</ele>
        <time>2022-12-03T22:58:48Z</time>
      </trkpt>
      <trkpt lat="40.349540" lon="-6.633350">
        <ele>861</ele>
        <time>2022-12-03T22:58:56Z</time>
      </trkpt>
      <trkpt lat="40.349380" lon="-6.633610">
        <ele>860</ele>
        <time>2022-12-03T22:59:00Z</time>
      </trkpt>
      <trkpt lat="40.349130" lon="-6.634050">
        <ele>859</ele>
        <time>2022-12-03T22:59:08Z</time>
      </trkpt>
      <trkpt lat="40.348590" lon="-6.635290">
        <ele>856</ele>
        <time>2022-12-03T22:59:27Z</time>
      </trkpt>
      <trkpt lat="40.348450" lon="-6.635550">
        <ele>856</ele>
        <time>2022-12-03T22:59:32Z</time>
      </trkpt>
      <trkpt lat="40.347620" lon="-6.636750">
        <ele>851</ele>
        <time>2022-12-03T22:59:54Z</time>
      </trkpt>
      <trkpt lat="40.347380" lon="-6.637020">
        <ele>851</ele>
        <time>2022-12-03T22:59:59Z</time>
      </trkpt>
      <trkpt lat="40.347260" lon="-6.637120">
        <ele>851</ele>
        <time>2022-12-03T23:00:02Z</time>
      </trkpt>
      <trkpt lat="40.347060" lon="-6.637200">
        <ele>851</ele>
        <time>2022-12-03T23:00:05Z</time>
      </trkpt>
      <trkpt lat="40.346920" lon="-6.637240">
        <ele>851</ele>
        <time>2022-12-03T23:00:08Z</time>
      </trkpt>
      <trkpt lat="40.346720" lon="-6.637230">
        <ele>850</ele>
        <time>2022-12-03T23:00:12Z</time>
      </trkpt>
      <trkpt lat="40.346520" lon="-6.637200">
        <ele>850</ele>
        <time>2022-12-03T23:00:15Z</time>
      </trkpt>
      <trkpt lat="40.345930" lon="-6.637060">
        <ele>850</ele>
        <time>2022-12-03T23:00:26Z</time>
      </trkpt>
      <trkpt lat="40.345690" lon="-6.637030">
        <ele>850</ele>
        <time>2022-12-03T23:00:30Z</time>
      </trkpt>
      <trkpt lat="40.345530" lon="-6.637040">
        <ele>849</ele>
        <time>2022-12-03T23:00:33Z</time>
      </trkpt>
      <trkpt lat="40.345220" lon="-6.637100">
        <ele>849</ele>
        <time>2022-12-03T23:00:38Z</time>
      </trkpt>
      <trkpt lat="40.344020" lon="-6.637550">
        <ele>847</ele>
        <time>2022-12-03T23:01:01Z</time>
      </trkpt>
      <trkpt lat="40.343810" lon="-6.637650">
        <ele>847</ele>
        <time>2022-12-03T23:01:05Z</time>
      </trkpt>
      <trkpt lat="40.341310" lon="-6.639080">
        <ele>841</ele>
        <time>2022-12-03T23:01:53Z</time>
      </trkpt>
      <trkpt lat="40.341100" lon="-6.639210">
        <ele>841</ele>
        <time>2022-12-03T23:01:57Z</time>
      </trkpt>
      <trkpt lat="40.338190" lon="-6.640880">
        <ele>850</ele>
        <time>2022-12-03T23:02:54Z</time>
      </trkpt>
      <trkpt lat="40.337420" lon="-6.641300">
        <ele>848</ele>
        <time>2022-12-03T23:03:09Z</time>
      </trkpt>
      <trkpt lat="40.336620" lon="-6.641540">
        <ele>841</ele>
        <time>2022-12-03T23:03:23Z</time>
      </trkpt>
      <trkpt lat="40.336420" lon="-6.641650">
        <ele>842</ele>
        <time>2022-12-03T23:03:27Z</time>
      </trkpt>
      <trkpt lat="40.336260" lon="-6.641770">
        <ele>843</ele>
        <time>2022-12-03T23:03:30Z</time>
      </trkpt>
      <trkpt lat="40.335880" lon="-6.642120">
        <ele>844</ele>
        <time>2022-12-03T23:03:39Z</time>
      </trkpt>
      <trkpt lat="40.333300" lon="-6.644500">
        <ele>861</ele>
        <time>2022-12-03T23:04:35Z</time>
      </trkpt>
      <trkpt lat="40.333080" lon="-6.644680">
        <ele>862</ele>
        <time>2022-12-03T23:04:39Z</time>
      </trkpt>
      <trkpt lat="40.332910" lon="-6.644790">
        <ele>863</ele>
        <time>2022-12-03T23:04:43Z</time>
      </trkpt>
      <trkpt lat="40.332770" lon="-6.644850">
        <ele>864</ele>
        <time>2022-12-03T23:04:45Z</time>
      </trkpt>
      <trkpt lat="40.332510" lon="-6.644930">
        <ele>865</ele>
        <time>2022-12-03T23:04:50Z</time>
      </trkpt>
      <trkpt lat="40.332150" lon="-6.644970">
        <ele>866</ele>
        <time>2022-12-03T23:04:57Z</time>
      </trkpt>
      <trkpt lat="40.330860" lon="-6.644990">
        <ele>865</ele>
        <time>2022-12-03T23:05:20Z</time>
      </trkpt>
      <trkpt lat="40.330520" lon="-6.645030">
        <ele>864</ele>
        <time>2022-12-03T23:05:26Z</time>
      </trkpt>
      <trkpt lat="40.329690" lon="-6.645200">
        <ele>860</ele>
        <time>2022-12-03T23:05:41Z</time>
      </trkpt>
      <trkpt lat="40.329400" lon="-6.645180">
        <ele>859</ele>
        <time>2022-12-03T23:05:46Z</time>
      </trkpt>
      <trkpt lat="40.328800" lon="-6.645040">
        <ele>858</ele>
        <time>2022-12-03T23:05:57Z</time>
      </trkpt>
      <trkpt lat="40.328710" lon="-6.645020">
        <ele>858</ele>
        <time>2022-12-03T23:05:58Z</time>
      </trkpt>
      <trkpt lat="40.328400" lon="-6.645020">
        <ele>858</ele>
        <time>2022-12-03T23:06:04Z</time>
      </trkpt>
      <trkpt lat="40.328130" lon="-6.645080">
        <ele>858</ele>
        <time>2022-12-03T23:06:09Z</time>
      </trkpt>
      <trkpt lat="40.327160" lon="-6.645410">
        <ele>858</ele>
        <time>2022-12-03T23:06:26Z</time>
      </trkpt>
      <trkpt lat="40.326840" lon="-6.645440">
        <ele>858</ele>
        <time>2022-12-03T23:06:32Z</time>
      </trkpt>
      <trkpt lat="40.326440" lon="-6.645390">
        <ele>858</ele>
        <time>2022-12-03T23:06:39Z</time>
      </trkpt>
      <trkpt lat="40.326210" lon="-6.645290">
        <ele>858</ele>
        <time>2022-12-03T23:06:44Z</time>
      </trkpt>
      <trkpt lat="40.326020" lon="-6.645190">
        <ele>857</ele>
        <time>2022-12-03T23:06:47Z</time>
      </trkpt>
      <trkpt lat="40.324750" lon="-6.644350">
        <ele>850</ele>
        <time>2022-12-03T23:07:13Z</time>
      </trkpt>
      <trkpt lat="40.324510" lon="-6.644220">
        <ele>848</ele>
        <time>2022-12-03T23:07:17Z</time>
      </trkpt>
      <trkpt lat="40.324400" lon="-6.644210">
        <ele>848</ele>
        <time>2022-12-03T23:07:19Z</time>
      </trkpt>
      <trkpt lat="40.324310" lon="-6.644230">
        <ele>847</ele>
        <time>2022-12-03T23:07:21Z</time>
      </trkpt>
      <trkpt lat="40.324170" lon="-6.644330">
        <ele>845</ele>
        <time>2022-12-03T23:07:24Z</time>
      </trkpt>
      <trkpt lat="40.324060" lon="-6.644530">
        <ele>844</ele>
        <time>2022-12-03T23:07:27Z</time>
      </trkpt>
      <trkpt lat="40.323630" lon="-6.646120">
        <ele>841</ele>
        <time>2022-12-03T23:07:50Z</time>
      </trkpt>
      <trkpt lat="40.323500" lon="-6.646590">
        <ele>840</ele>
        <time>2022-12-03T23:07:57Z</time>
      </trkpt>
      <trkpt lat="40.323380" lon="-6.646990">
        <ele>840</ele>
        <time>2022-12-03T23:08:02Z</time>
      </trkpt>
      <trkpt lat="40.323240" lon="-6.647220">
        <ele>841</ele>
        <time>2022-12-03T23:08:06Z</time>
      </trkpt>
      <trkpt lat="40.323100" lon="-6.647360">
        <ele>842</ele>
        <time>2022-12-03T23:08:10Z</time>
      </trkpt>
      <trkpt lat="40.322940" lon="-6.647460">
        <ele>842</ele>
        <time>2022-12-03T23:08:13Z</time>
      </trkpt>
      <trkpt lat="40.322830" lon="-6.647510">
        <ele>843</ele>
        <time>2022-12-03T23:08:15Z</time>
      </trkpt>
      <trkpt lat="40.322650" lon="-6.647560">
        <ele>844</ele>
        <time>2022-12-03T23:08:18Z</time>
      </trkpt>
      <trkpt lat="40.314860" lon="-6.648250">
        <ele>869</ele>
        <time>2022-12-03T23:10:37Z</time>
      </trkpt>
      <trkpt lat="40.314530" lon="-6.648240">
        <ele>869</ele>
        <time>2022-12-03T23:10:43Z</time>
      </trkpt>
      <trkpt lat="40.314370" lon="-6.648210">
        <ele>868</ele>
        <time>2022-12-03T23:10:46Z</time>
      </trkpt>
      <trkpt lat="40.312890" lon="-6.647790">
        <ele>867</ele>
        <time>2022-12-03T23:11:13Z</time>
      </trkpt>
      <trkpt lat="40.312730" lon="-6.647760">
        <ele>867</ele>
        <time>2022-12-03T23:11:16Z</time>
      </trkpt>
      <trkpt lat="40.312640" lon="-6.647830">
        <ele>868</ele>
        <time>2022-12-03T23:11:17Z</time>
      </trkpt>
      <trkpt lat="40.312600" lon="-6.647880">
        <ele>868</ele>
        <time>2022-12-03T23:11:18Z</time>
      </trkpt>
      <trkpt lat="40.312570" lon="-6.647940">
        <ele>869</ele>
        <time>2022-12-03T23:11:19Z</time>
      </trkpt>
      <trkpt lat="40.312540" lon="-6.648070">
        <ele>870</ele>
        <time>2022-12-03T23:11:21Z</time>
      </trkpt>
      <trkpt lat="40.312640" lon="-6.648600">
        <ele>872</ele>
        <time>2022-12-03T23:11:29Z</time>
      </trkpt>
      <trkpt lat="40.312750" lon="-6.648950">
        <ele>874</ele>
        <time>2022-12-03T23:11:34Z</time>
      </trkpt>
      <trkpt lat="40.312850" lon="-6.649180">
        <ele>875</ele>
        <time>2022-12-03T23:11:37Z</time>
      </trkpt>
      <trkpt lat="40.313850" lon="-6.651270">
        <ele>885</ele>
        <time>2022-12-03T23:12:11Z</time>
      </trkpt>
      <trkpt lat="40.313970" lon="-6.651580">
        <ele>886</ele>
        <time>2022-12-03T23:12:16Z</time>
      </trkpt>
      <trkpt lat="40.314080" lon="-6.652000">
        <ele>885</ele>
        <time>2022-12-03T23:12:22Z</time>
      </trkpt>
      <trkpt lat="40.314170" lon="-6.652540">
        <ele>883</ele>
        <time>2022-12-03T23:12:29Z</time>
      </trkpt>
      <trkpt lat="40.314880" lon="-6.658010">
        <ele>869</ele>
        <time>2022-12-03T23:13:44Z</time>
      </trkpt>
      <trkpt lat="40.314930" lon="-6.658600">
        <ele>867</ele>
        <time>2022-12-03T23:13:52Z</time>
      </trkpt>
      <trkpt lat="40.314910" lon="-6.659090">
        <ele>864</ele>
        <time>2022-12-03T23:13:59Z</time>
      </trkpt>
      <trkpt lat="40.314860" lon="-6.659370">
        <ele>863</ele>
        <time>2022-12-03T23:14:03Z</time>
      </trkpt>
      <trkpt lat="40.314760" lon="-6.659830">
        <ele>862</ele>
        <time>2022-12-03T23:14:09Z</time>
      </trkpt>
      <trkpt lat="40.314120" lon="-6.662320">
        <ele>853</ele>
        <time>2022-12-03T23:14:45Z</time>
      </trkpt>
      <trkpt lat="40.314010" lon="-6.662840">
        <ele>850</ele>
        <time>2022-12-03T23:14:52Z</time>
      </trkpt>
      <trkpt lat="40.313970" lon="-6.663210">
        <ele>848</ele>
        <time>2022-12-03T23:14:57Z</time>
      </trkpt>
      <trkpt lat="40.313970" lon="-6.663390">
        <ele>847</ele>
        <time>2022-12-03T23:15:00Z</time>
      </trkpt>
      <trkpt lat="40.314010" lon="-6.663770">
        <ele>846</ele>
        <time>2022-12-03T23:15:05Z</time>
      </trkpt>
      <trkpt lat="40.314050" lon="-6.663950">
        <ele>845</ele>
        <time>2022-12-03T23:15:08Z</time>
      </trkpt>
      <trkpt lat="40.314190" lon="-6.664410">
        <ele>844</ele>
        <time>2022-12-03T23:15:14Z</time>
      </trkpt>
      <trkpt lat="40.314600" lon="-6.665300">
        <ele>837</ele>
        <time>2022-12-03T23:15:28Z</time>
      </trkpt>
      <trkpt lat="40.314830" lon="-6.665890">
        <ele>834</ele>
        <time>2022-12-03T23:15:37Z</time>
      </trkpt>
      <trkpt lat="40.315090" lon="-6.666890">
        <ele>832</ele>
        <time>2022-12-03T23:15:52Z</time>
      </trkpt>
      <trkpt lat="40.315150" lon="-6.667080">
        <ele>831</ele>
        <time>2022-12-03T23:15:55Z</time>
      </trkpt>
      <trkpt lat="40.315300" lon="-6.667350">
        <ele>828</ele>
        <time>2022-12-03T23:15:59Z</time>
      </trkpt>
      <trkpt lat="40.315420" lon="-6.667460">
        <ele>827</ele>
        <time>2022-12-03T23:16:02Z</time>
      </trkpt>
      <trkpt lat="40.315500" lon="-6.667520">
        <ele>826</ele>
        <time>2022-12-03T23:16:03Z</time>
      </trkpt>
      <trkpt lat="40.315760" lon="-6.667620">
        <ele>825</ele>
        <time>2022-12-03T23:16:08Z</time>
      </trkpt>
      <trkpt lat="40.315980" lon="-6.667660">
        <ele>825</ele>
        <time>2022-12-03T23:16:12Z</time>
      </trkpt>
      <trkpt lat="40.316390" lon="-6.667740">
        <ele>827</ele>
        <time>2022-12-03T23:16:20Z</time>
      </trkpt>
      <trkpt lat="40.316510" lon="-6.667740">
        <ele>827</ele>
        <time>2022-12-03T23:16:22Z</time>
      </trkpt>
      <trkpt lat="40.317840" lon="-6.667590">
        <ele>835</ele>
        <time>2022-12-03T23:16:45Z</time>
      </trkpt>
      <trkpt lat="40.317900" lon="-6.667790">
        <ele>836</ele>
        <time>2022-12-03T23:16:48Z</time>
      </trkpt>
      <trkpt lat="40.318270" lon="-6.667950">
        <ele>841</ele>
        <time>2022-12-03T23:16:55Z</time>
      </trkpt>
      <trkpt lat="40.318490" lon="-6.668080">
        <ele>844</ele>
        <time>2022-12-03T23:17:00Z</time>
      </trkpt>
      <trkpt lat="40.318480" lon="-6.668270">
        <ele>845</ele>
        <time>2022-12-03T23:17:02Z</time>
      </trkpt>
      <trkpt lat="40.318510" lon="-6.668510">
        <ele>846</ele>
        <time>2022-12-03T23:17:05Z</time>
      </trkpt>
      <trkpt lat="40.318800" lon="-6.669410">
        <ele>851</ele>
        <time>2022-12-03T23:17:19Z</time>
      </trkpt>
      <trkpt lat="40.318950" lon="-6.669750">
        <ele>854</ele>
        <time>2022-12-03T23:17:24Z</time>
      </trkpt>
      <trkpt lat="40.319040" lon="-6.669910">
        <ele>855</ele>
        <time>2022-12-03T23:17:27Z</time>
      </trkpt>
      <trkpt lat="40.319500" lon="-6.670460">
        <ele>857</ele>
        <time>2022-12-03T23:17:38Z</time>
      </trkpt>
      <trkpt lat="40.319590" lon="-6.670520">
        <ele>857</ele>
        <time>2022-12-03T23:17:40Z</time>
      </trkpt>
      <trkpt lat="40.319810" lon="-6.670580">
        <ele>858</ele>
        <time>2022-12-03T23:17:44Z</time>
      </trkpt>
      <trkpt lat="40.319840" lon="-6.670610">
        <ele>858</ele>
        <time>2022-12-03T23:17:44Z</time>
      </trkpt>
      <trkpt lat="40.319870" lon="-6.670700">
        <ele>858</ele>
        <time>2022-12-03T23:17:46Z</time>
      </trkpt>
      <trkpt lat="40.319840" lon="-6.670810">
        <ele>857</ele>
        <time>2022-12-03T23:17:47Z</time>
      </trkpt>
      <trkpt lat="40.319690" lon="-6.671040">
        <ele>857</ele>
        <time>2022-12-03T23:17:51Z</time>
      </trkpt>
      <trkpt lat="40.319620" lon="-6.671200">
        <ele>857</ele>
        <time>2022-12-03T23:17:54Z</time>
      </trkpt>
      <trkpt lat="40.319540" lon="-6.671500">
        <ele>857</ele>
        <time>2022-12-03T23:17:58Z</time>
      </trkpt>
      <trkpt lat="40.319480" lon="-6.671640">
        <ele>857</ele>
        <time>2022-12-03T23:18:00Z</time>
      </trkpt>
      <trkpt lat="40.318530" lon="-6.673470">
        <ele>855</ele>
        <time>2022-12-03T23:18:30Z</time>
      </trkpt>
      <trkpt lat="40.318460" lon="-6.673630">
        <ele>855</ele>
        <time>2022-12-03T23:18:33Z</time>
      </trkpt>
      <trkpt lat="40.318410" lon="-6.673830">
        <ele>856</ele>
        <time>2022-12-03T23:18:36Z</time>
      </trkpt>
      <trkpt lat="40.318370" lon="-6.674110">
        <ele>857</ele>
        <time>2022-12-03T23:18:40Z</time>
      </trkpt>
      <trkpt lat="40.318270" lon="-6.674450">
        <ele>860</ele>
        <time>2022-12-03T23:18:44Z</time>
      </trkpt>
      <trkpt lat="40.318190" lon="-6.674590">
        <ele>861</ele>
        <time>2022-12-03T23:18:47Z</time>
      </trkpt>
      <trkpt lat="40.318050" lon="-6.674730">
        <ele>862</ele>
        <time>2022-12-03T23:18:50Z</time>
      </trkpt>
      <trkpt lat="40.317320" lon="-6.675210">
        <ele>863</ele>
        <time>2022-12-03T23:19:05Z</time>
      </trkpt>
      <trkpt lat="40.316830" lon="-6.675600">
        <ele>864</ele>
        <time>2022-12-03T23:19:15Z</time>
      </trkpt>
      <trkpt lat="40.316530" lon="-6.675890">
        <ele>866</ele>
        <time>2022-12-03T23:19:21Z</time>
      </trkpt>
      <trkpt lat="40.316370" lon="-6.676170">
        <ele>869</ele>
        <time>2022-12-03T23:19:26Z</time>
      </trkpt>
      <trkpt lat="40.315880" lon="-6.677200">
        <ele>878</ele>
        <time>2022-12-03T23:19:43Z</time>
      </trkpt>
      <trkpt lat="40.315250" lon="-6.678350">
        <ele>880</ele>
        <time>2022-12-03T23:20:02Z</time>
      </trkpt>
      <trkpt lat="40.315080" lon="-6.678580">
        <ele>880</ele>
        <time>2022-12-03T23:20:06Z</time>
      </trkpt>
      <trkpt lat="40.314950" lon="-6.678730">
        <ele>880</ele>
        <time>2022-12-03T23:20:09Z</time>
      </trkpt>
      <trkpt lat="40.314800" lon="-6.678860">
        <ele>880</ele>
        <time>2022-12-03T23:20:12Z</time>
      </trkpt>
      <trkpt lat="40.314660" lon="-6.678940">
        <ele>879</ele>
        <time>2022-12-03T23:20:15Z</time>
      </trkpt>
      <trkpt lat="40.314080" lon="-6.679140">
        <ele>878</ele>
        <time>2022-12-03T23:20:26Z</time>
      </trkpt>
      <trkpt lat="40.313790" lon="-6.679260">
        <ele>878</ele>
        <time>2022-12-03T23:20:31Z</time>
      </trkpt>
      <trkpt lat="40.313550" lon="-6.679400">
        <ele>877</ele>
        <time>2022-12-03T23:20:36Z</time>
      </trkpt>
      <trkpt lat="40.313450" lon="-6.679480">
        <ele>878</ele>
        <time>2022-12-03T23:20:38Z</time>
      </trkpt>
      <trkpt lat="40.312750" lon="-6.680210">
        <ele>878</ele>
        <time>2022-12-03T23:20:54Z</time>
      </trkpt>
      <trkpt lat="40.312510" lon="-6.680530">
        <ele>877</ele>
        <time>2022-12-03T23:21:00Z</time>
      </trkpt>
      <trkpt lat="40.312350" lon="-6.680890">
        <ele>877</ele>
        <time>2022-12-03T23:21:06Z</time>
      </trkpt>
      <trkpt lat="40.311790" lon="-6.682370">
        <ele>873</ele>
        <time>2022-12-03T23:21:28Z</time>
      </trkpt>
      <trkpt lat="40.311440" lon="-6.683610">
        <ele>873</ele>
        <time>2022-12-03T23:21:46Z</time>
      </trkpt>
      <trkpt lat="40.311320" lon="-6.683840">
        <ele>873</ele>
        <time>2022-12-03T23:21:50Z</time>
      </trkpt>
      <trkpt lat="40.310520" lon="-6.685010">
        <ele>869</ele>
        <time>2022-12-03T23:22:11Z</time>
      </trkpt>
      <trkpt lat="40.310160" lon="-6.685500">
        <ele>866</ele>
        <time>2022-12-03T23:22:20Z</time>
      </trkpt>
      <trkpt lat="40.309970" lon="-6.685740">
        <ele>865</ele>
        <time>2022-12-03T23:22:25Z</time>
      </trkpt>
      <trkpt lat="40.309310" lon="-6.686360">
        <ele>860</ele>
        <time>2022-12-03T23:22:39Z</time>
      </trkpt>
      <trkpt lat="40.309140" lon="-6.686550">
        <ele>859</ele>
        <time>2022-12-03T23:22:43Z</time>
      </trkpt>
      <trkpt lat="40.308870" lon="-6.686910">
        <ele>859</ele>
        <time>2022-12-03T23:22:50Z</time>
      </trkpt>
      <trkpt lat="40.307330" lon="-6.689120">
        <ele>855</ele>
        <time>2022-12-03T23:23:31Z</time>
      </trkpt>
      <trkpt lat="40.307180" lon="-6.689350">
        <ele>854</ele>
        <time>2022-12-03T23:23:35Z</time>
      </trkpt>
      <trkpt lat="40.306520" lon="-6.691150">
        <ele>856</ele>
        <time>2022-12-03T23:24:02Z</time>
      </trkpt>
      <trkpt lat="40.306370" lon="-6.691580">
        <ele>857</ele>
        <time>2022-12-03T23:24:08Z</time>
      </trkpt>
      <trkpt lat="40.306310" lon="-6.691800">
        <ele>858</ele>
        <time>2022-12-03T23:24:12Z</time>
      </trkpt>
      <trkpt lat="40.306230" lon="-6.692340">
        <ele>861</ele>
        <time>2022-12-03T23:24:19Z</time>
      </trkpt>
      <trkpt lat="40.306030" lon="-6.694460">
        <ele>870</ele>
        <time>2022-12-03T23:24:48Z</time>
      </trkpt>
      <trkpt lat="40.305970" lon="-6.694630">
        <ele>870</ele>
        <time>2022-12-03T23:24:51Z</time>
      </trkpt>
      <trkpt lat="40.305870" lon="-6.694810">
        <ele>871</ele>
        <time>2022-12-03T23:24:54Z</time>
      </trkpt>
      <trkpt lat="40.305620" lon="-6.695050">
        <ele>871</ele>
        <time>2022-12-03T23:24:59Z</time>
      </trkpt>
      <trkpt lat="40.303470" lon="-6.696460">
        <ele>874</ele>
        <time>2022-12-03T23:25:42Z</time>
      </trkpt>
      <trkpt lat="40.303000" lon="-6.696920">
        <ele>876</ele>
        <time>2022-12-03T23:25:52Z</time>
      </trkpt>
      <trkpt lat="40.302810" lon="-6.697200">
        <ele>878</ele>
        <time>2022-12-03T23:25:57Z</time>
      </trkpt>
      <trkpt lat="40.302670" lon="-6.697510">
        <ele>880</ele>
        <time>2022-12-03T23:26:02Z</time>
      </trkpt>
      <trkpt lat="40.302580" lon="-6.697860">
        <ele>882</ele>
        <time>2022-12-03T23:26:07Z</time>
      </trkpt>
      <trkpt lat="40.302530" lon="-6.698160">
        <ele>884</ele>
        <time>2022-12-03T23:26:12Z</time>
      </trkpt>
      <trkpt lat="40.302530" lon="-6.698460">
        <ele>886</ele>
        <time>2022-12-03T23:26:16Z</time>
      </trkpt>
      <trkpt lat="40.302650" lon="-6.699220">
        <ele>891</ele>
        <time>2022-12-03T23:26:26Z</time>
      </trkpt>
      <trkpt lat="40.303230" lon="-6.701980">
        <ele>902</ele>
        <time>2022-12-03T23:27:05Z</time>
      </trkpt>
      <trkpt lat="40.303250" lon="-6.702350">
        <ele>903</ele>
        <time>2022-12-03T23:27:10Z</time>
      </trkpt>
      <trkpt lat="40.303100" lon="-6.705110">
        <ele>914</ele>
        <time>2022-12-03T23:27:48Z</time>
      </trkpt>
      <trkpt lat="40.303030" lon="-6.705900">
        <ele>916</ele>
        <time>2022-12-03T23:27:58Z</time>
      </trkpt>
      <trkpt lat="40.302990" lon="-6.706140">
        <ele>917</ele>
        <time>2022-12-03T23:28:02Z</time>
      </trkpt>
      <trkpt lat="40.302540" lon="-6.707570">
        <ele>918</ele>
        <time>2022-12-03T23:28:23Z</time>
      </trkpt>
      <trkpt lat="40.302340" lon="-6.708150">
        <ele>917</ele>
        <time>2022-12-03T23:28:31Z</time>
      </trkpt>
      <trkpt lat="40.302150" lon="-6.708540">
        <ele>918</ele>
        <time>2022-12-03T23:28:38Z</time>
      </trkpt>
      <trkpt lat="40.301750" lon="-6.709230">
        <ele>921</ele>
        <time>2022-12-03T23:28:49Z</time>
      </trkpt>
      <trkpt lat="40.300760" lon="-6.710810">
        <ele>924</ele>
        <time>2022-12-03T23:29:17Z</time>
      </trkpt>
      <trkpt lat="40.300600" lon="-6.711000">
        <ele>923</ele>
        <time>2022-12-03T23:29:21Z</time>
      </trkpt>
      <trkpt lat="40.300170" lon="-6.711340">
        <ele>921</ele>
        <time>2022-12-03T23:29:30Z</time>
      </trkpt>
      <trkpt lat="40.298970" lon="-6.712340">
        <ele>914</ele>
        <time>2022-12-03T23:29:55Z</time>
      </trkpt>
      <trkpt lat="40.298670" lon="-6.712650">
        <ele>914</ele>
        <time>2022-12-03T23:30:02Z</time>
      </trkpt>
      <trkpt lat="40.298300" lon="-6.713150">
        <ele>911</ele>
        <time>2022-12-03T23:30:11Z</time>
      </trkpt>
      <trkpt lat="40.298150" lon="-6.713450">
        <ele>911</ele>
        <time>2022-12-03T23:30:16Z</time>
      </trkpt>
      <trkpt lat="40.298070" lon="-6.713740">
        <ele>911</ele>
        <time>2022-12-03T23:30:21Z</time>
      </trkpt>
      <trkpt lat="40.297900" lon="-6.714780">
        <ele>910</ele>
        <time>2022-12-03T23:30:35Z</time>
      </trkpt>
      <trkpt lat="40.297800" lon="-6.715210">
        <ele>909</ele>
        <time>2022-12-03T23:30:41Z</time>
      </trkpt>
      <trkpt lat="40.296860" lon="-6.718490">
        <ele>908</ele>
        <time>2022-12-03T23:31:29Z</time>
      </trkpt>
      <trkpt lat="40.296750" lon="-6.718740">
        <ele>908</ele>
        <time>2022-12-03T23:31:33Z</time>
      </trkpt>
      <trkpt lat="40.296630" lon="-6.718970">
        <ele>908</ele>
        <time>2022-12-03T23:31:36Z</time>
      </trkpt>
      <trkpt lat="40.296490" lon="-6.719160">
        <ele>908</ele>
        <time>2022-12-03T23:31:40Z</time>
      </trkpt>
      <trkpt lat="40.293290" lon="-6.722800">
        <ele>910</ele>
        <time>2022-12-03T23:32:55Z</time>
      </trkpt>
      <trkpt lat="40.293070" lon="-6.723060">
        <ele>912</ele>
        <time>2022-12-03T23:33:01Z</time>
      </trkpt>
      <trkpt lat="40.292920" lon="-6.723310">
        <ele>913</ele>
        <time>2022-12-03T23:33:05Z</time>
      </trkpt>
      <trkpt lat="40.292840" lon="-6.723480">
        <ele>914</ele>
        <time>2022-12-03T23:33:08Z</time>
      </trkpt>
      <trkpt lat="40.292760" lon="-6.723750">
        <ele>916</ele>
        <time>2022-12-03T23:33:11Z</time>
      </trkpt>
      <trkpt lat="40.292530" lon="-6.724740">
        <ele>921</ele>
        <time>2022-12-03T23:33:26Z</time>
      </trkpt>
      <trkpt lat="40.292440" lon="-6.724960">
        <ele>922</ele>
        <time>2022-12-03T23:33:29Z</time>
      </trkpt>
      <trkpt lat="40.292240" lon="-6.725270">
        <ele>922</ele>
        <time>2022-12-03T23:33:34Z</time>
      </trkpt>
      <trkpt lat="40.292110" lon="-6.725440">
        <ele>923</ele>
        <time>2022-12-03T23:33:38Z</time>
      </trkpt>
      <trkpt lat="40.291830" lon="-6.725780">
        <ele>924</ele>
        <time>2022-12-03T23:33:44Z</time>
      </trkpt>
      <trkpt lat="40.291660" lon="-6.725960">
        <ele>925</ele>
        <time>2022-12-03T23:33:48Z</time>
      </trkpt>
      <trkpt lat="40.291550" lon="-6.726060">
        <ele>925</ele>
        <time>2022-12-03T23:33:51Z</time>
      </trkpt>
      <trkpt lat="40.290880" lon="-6.726120">
        <ele>926</ele>
        <time>2022-12-03T23:34:03Z</time>
      </trkpt>
      <trkpt lat="40.289730" lon="-6.726030">
        <ele>930</ele>
        <time>2022-12-03T23:34:23Z</time>
      </trkpt>
      <trkpt lat="40.289430" lon="-6.726050">
        <ele>930</ele>
        <time>2022-12-03T23:34:29Z</time>
      </trkpt>
      <trkpt lat="40.289240" lon="-6.726110">
        <ele>930</ele>
        <time>2022-12-03T23:34:32Z</time>
      </trkpt>
      <trkpt lat="40.289020" lon="-6.726250">
        <ele>931</ele>
        <time>2022-12-03T23:34:36Z</time>
      </trkpt>
      <trkpt lat="40.288940" lon="-6.726240">
        <ele>930</ele>
        <time>2022-12-03T23:34:38Z</time>
      </trkpt>
      <trkpt lat="40.288590" lon="-6.726380">
        <ele>930</ele>
        <time>2022-12-03T23:34:44Z</time>
      </trkpt>
      <trkpt lat="40.288410" lon="-6.726370">
        <ele>928</ele>
        <time>2022-12-03T23:34:48Z</time>
      </trkpt>
      <trkpt lat="40.288210" lon="-6.726310">
        <ele>926</ele>
        <time>2022-12-03T23:34:51Z</time>
      </trkpt>
      <trkpt lat="40.287890" lon="-6.726410">
        <ele>926</ele>
        <time>2022-12-03T23:34:57Z</time>
      </trkpt>
      <trkpt lat="40.287700" lon="-6.726420">
        <ele>924</ele>
        <time>2022-12-03T23:35:00Z</time>
      </trkpt>
      <trkpt lat="40.287620" lon="-6.726390">
        <ele>924</ele>
        <time>2022-12-03T23:35:02Z</time>
      </trkpt>
      <trkpt lat="40.287540" lon="-6.726440">
        <ele>924</ele>
        <time>2022-12-03T23:35:03Z</time>
      </trkpt>
      <trkpt lat="40.287300" lon="-6.726640">
        <ele>925</ele>
        <time>2022-12-03T23:35:09Z</time>
      </trkpt>
      <trkpt lat="40.287170" lon="-6.726710">
        <ele>926</ele>
        <time>2022-12-03T23:35:11Z</time>
      </trkpt>
      <trkpt lat="40.287050" lon="-6.726720">
        <ele>926</ele>
        <time>2022-12-03T23:35:13Z</time>
      </trkpt>
      <trkpt lat="40.286930" lon="-6.726670">
        <ele>926</ele>
        <time>2022-12-03T23:35:15Z</time>
      </trkpt>
      <trkpt lat="40.286840" lon="-6.726680">
        <ele>926</ele>
        <time>2022-12-03T23:35:17Z</time>
      </trkpt>
      <trkpt lat="40.286720" lon="-6.726710">
        <ele>926</ele>
        <time>2022-12-03T23:35:19Z</time>
      </trkpt>
      <trkpt lat="40.286550" lon="-6.726800">
        <ele>928</ele>
        <time>2022-12-03T23:35:22Z</time>
      </trkpt>
      <trkpt lat="40.286270" lon="-6.727030">
        <ele>930</ele>
        <time>2022-12-03T23:35:28Z</time>
      </trkpt>
      <trkpt lat="40.286000" lon="-6.727310">
        <ele>931</ele>
        <time>2022-12-03T23:35:34Z</time>
      </trkpt>
      <trkpt lat="40.285960" lon="-6.727420">
        <ele>931</ele>
        <time>2022-12-03T23:35:36Z</time>
      </trkpt>
      <trkpt lat="40.285420" lon="-6.727560">
        <ele>932</ele>
        <time>2022-12-03T23:35:46Z</time>
      </trkpt>
      <trkpt lat="40.284790" lon="-6.727950">
        <ele>933</ele>
        <time>2022-12-03T23:35:58Z</time>
      </trkpt>
      <trkpt lat="40.284290" lon="-6.728360">
        <ele>932</ele>
        <time>2022-12-03T23:36:09Z</time>
      </trkpt>
      <trkpt lat="40.284050" lon="-6.728530">
        <ele>931</ele>
        <time>2022-12-03T23:36:14Z</time>
      </trkpt>
      <trkpt lat="40.283860" lon="-6.728620">
        <ele>931</ele>
        <time>2022-12-03T23:36:17Z</time>
      </trkpt>
      <trkpt lat="40.283430" lon="-6.728770">
        <ele>932</ele>
        <time>2022-12-03T23:36:25Z</time>
      </trkpt>
      <trkpt lat="40.283250" lon="-6.728800">
        <ele>932</ele>
        <time>2022-12-03T23:36:28Z</time>
      </trkpt>
      <trkpt lat="40.283060" lon="-6.728790">
        <ele>931</ele>
        <time>2022-12-03T23:36:32Z</time>
      </trkpt>
      <trkpt lat="40.281590" lon="-6.728440">
        <ele>926</ele>
        <time>2022-12-03T23:36:58Z</time>
      </trkpt>
      <trkpt lat="40.281480" lon="-6.728390">
        <ele>925</ele>
        <time>2022-12-03T23:37:00Z</time>
      </trkpt>
      <trkpt lat="40.281070" lon="-6.728130">
        <ele>924</ele>
        <time>2022-12-03T23:37:09Z</time>
      </trkpt>
      <trkpt lat="40.280900" lon="-6.728050">
        <ele>923</ele>
        <time>2022-12-03T23:37:12Z</time>
      </trkpt>
      <trkpt lat="40.280810" lon="-6.728030">
        <ele>922</ele>
        <time>2022-12-03T23:37:13Z</time>
      </trkpt>
      <trkpt lat="40.280720" lon="-6.728040">
        <ele>922</ele>
        <time>2022-12-03T23:37:15Z</time>
      </trkpt>
      <trkpt lat="40.280630" lon="-6.728100">
        <ele>921</ele>
        <time>2022-12-03T23:37:17Z</time>
      </trkpt>
      <trkpt lat="40.280530" lon="-6.728200">
        <ele>921</ele>
        <time>2022-12-03T23:37:19Z</time>
      </trkpt>
      <trkpt lat="40.279600" lon="-6.729390">
        <ele>912</ele>
        <time>2022-12-03T23:37:42Z</time>
      </trkpt>
      <trkpt lat="40.279240" lon="-6.729770">
        <ele>908</ele>
        <time>2022-12-03T23:37:50Z</time>
      </trkpt>
      <trkpt lat="40.279060" lon="-6.729910">
        <ele>907</ele>
        <time>2022-12-03T23:37:54Z</time>
      </trkpt>
      <trkpt lat="40.278860" lon="-6.730050">
        <ele>906</ele>
        <time>2022-12-03T23:37:58Z</time>
      </trkpt>
      <trkpt lat="40.278670" lon="-6.730170">
        <ele>906</ele>
        <time>2022-12-03T23:38:02Z</time>
      </trkpt>
      <trkpt lat="40.278260" lon="-6.730350">
        <ele>905</ele>
        <time>2022-12-03T23:38:10Z</time>
      </trkpt>
      <trkpt lat="40.277660" lon="-6.730550">
        <ele>903</ele>
        <time>2022-12-03T23:38:21Z</time>
      </trkpt>
      <trkpt lat="40.276390" lon="-6.730940">
        <ele>896</ele>
        <time>2022-12-03T23:38:44Z</time>
      </trkpt>
      <trkpt lat="40.276170" lon="-6.731040">
        <ele>895</ele>
        <time>2022-12-03T23:38:48Z</time>
      </trkpt>
      <trkpt lat="40.275920" lon="-6.731190">
        <ele>893</ele>
        <time>2022-12-03T23:38:53Z</time>
      </trkpt>
      <trkpt lat="40.275610" lon="-6.731420">
        <ele>893</ele>
        <time>2022-12-03T23:38:59Z</time>
      </trkpt>
      <trkpt lat="40.275320" lon="-6.731730">
        <ele>893</ele>
        <time>2022-12-03T23:39:06Z</time>
      </trkpt>
      <trkpt lat="40.275050" lon="-6.732110">
        <ele>890</ele>
        <time>2022-12-03T23:39:13Z</time>
      </trkpt>
      <trkpt lat="40.274700" lon="-6.732720">
        <ele>889</ele>
        <time>2022-12-03T23:39:23Z</time>
      </trkpt>
      <trkpt lat="40.273810" lon="-6.734390">
        <ele>888</ele>
        <time>2022-12-03T23:39:51Z</time>
      </trkpt>
      <trkpt lat="40.273550" lon="-6.734810">
        <ele>889</ele>
        <time>2022-12-03T23:39:58Z</time>
      </trkpt>
      <trkpt lat="40.272990" lon="-6.735670">
        <ele>891</ele>
        <time>2022-12-03T23:40:14Z</time>
      </trkpt>
      <trkpt lat="40.272600" lon="-6.736170">
        <ele>893</ele>
        <time>2022-12-03T23:40:23Z</time>
      </trkpt>
      <trkpt lat="40.272310" lon="-6.736540">
        <ele>892</ele>
        <time>2022-12-03T23:40:30Z</time>
      </trkpt>
      <trkpt lat="40.271820" lon="-6.737080">
        <ele>890</ele>
        <time>2022-12-03T23:40:42Z</time>
      </trkpt>
      <trkpt lat="40.271260" lon="-6.737620">
        <ele>887</ele>
        <time>2022-12-03T23:40:54Z</time>
      </trkpt>
      <trkpt lat="40.269220" lon="-6.739480">
        <ele>896</ele>
        <time>2022-12-03T23:41:38Z</time>
      </trkpt>
      <trkpt lat="40.268910" lon="-6.739880">
        <ele>897</ele>
        <time>2022-12-03T23:41:46Z</time>
      </trkpt>
      <trkpt lat="40.268810" lon="-6.740090">
        <ele>898</ele>
        <time>2022-12-03T23:41:50Z</time>
      </trkpt>
      <trkpt lat="40.267290" lon="-6.743930">
        <ele>904</ele>
        <time>2022-12-03T23:42:48Z</time>
      </trkpt>
      <trkpt lat="40.267150" lon="-6.744240">
        <ele>906</ele>
        <time>2022-12-03T23:42:53Z</time>
      </trkpt>
      <trkpt lat="40.266940" lon="-6.744610">
        <ele>908</ele>
        <time>2022-12-03T23:42:59Z</time>
      </trkpt>
      <trkpt lat="40.266640" lon="-6.744930">
        <ele>910</ele>
        <time>2022-12-03T23:43:06Z</time>
      </trkpt>
      <trkpt lat="40.266320" lon="-6.745170">
        <ele>910</ele>
        <time>2022-12-03T23:43:13Z</time>
      </trkpt>
      <trkpt lat="40.265960" lon="-6.745400">
        <ele>911</ele>
        <time>2022-12-03T23:43:20Z</time>
      </trkpt>
      <trkpt lat="40.265360" lon="-6.745740">
        <ele>913</ele>
        <time>2022-12-03T23:43:32Z</time>
      </trkpt>
      <trkpt lat="40.265040" lon="-6.745960">
        <ele>915</ele>
        <time>2022-12-03T23:43:38Z</time>
      </trkpt>
      <trkpt lat="40.264890" lon="-6.746120">
        <ele>915</ele>
        <time>2022-12-03T23:43:42Z</time>
      </trkpt>
      <trkpt lat="40.264740" lon="-6.746300">
        <ele>915</ele>
        <time>2022-12-03T23:43:45Z</time>
      </trkpt>
      <trkpt lat="40.264510" lon="-6.746710">
        <ele>915</ele>
        <time>2022-12-03T23:43:52Z</time>
      </trkpt>
      <trkpt lat="40.264440" lon="-6.746900">
        <ele>916</ele>
        <time>2022-12-03T23:43:55Z</time>
      </trkpt>
      <trkpt lat="40.264320" lon="-6.747320">
        <ele>917</ele>
        <time>2022-12-03T23:44:01Z</time>
      </trkpt>
      <trkpt lat="40.262030" lon="-6.759040">
        <ele>925</ele>
        <time>2022-12-03T23:46:45Z</time>
      </trkpt>
      <trkpt lat="40.261930" lon="-6.759340">
        <ele>925</ele>
        <time>2022-12-03T23:46:50Z</time>
      </trkpt>
      <trkpt lat="40.261810" lon="-6.759650">
        <ele>926</ele>
        <time>2022-12-03T23:46:54Z</time>
      </trkpt>
      <trkpt lat="40.261460" lon="-6.760340">
        <ele>927</ele>
        <time>2022-12-03T23:47:06Z</time>
      </trkpt>
      <trkpt lat="40.260790" lon="-6.761510">
        <ele>928</ele>
        <time>2022-12-03T23:47:26Z</time>
      </trkpt>
      <trkpt lat="40.260550" lon="-6.761910">
        <ele>929</ele>
        <time>2022-12-03T23:47:32Z</time>
      </trkpt>
      <trkpt lat="40.260420" lon="-6.762090">
        <ele>929</ele>
        <time>2022-12-03T23:47:36Z</time>
      </trkpt>
      <trkpt lat="40.260190" lon="-6.762340">
        <ele>930</ele>
        <time>2022-12-03T23:47:41Z</time>
      </trkpt>
      <trkpt lat="40.260090" lon="-6.762420">
        <ele>931</ele>
        <time>2022-12-03T23:47:43Z</time>
      </trkpt>
      <trkpt lat="40.259240" lon="-6.762970">
        <ele>936</ele>
        <time>2022-12-03T23:48:00Z</time>
      </trkpt>
      <trkpt lat="40.259030" lon="-6.763140">
        <ele>937</ele>
        <time>2022-12-03T23:48:04Z</time>
      </trkpt>
      <trkpt lat="40.258650" lon="-6.763590">
        <ele>940</ele>
        <time>2022-12-03T23:48:14Z</time>
      </trkpt>
      <trkpt lat="40.257690" lon="-6.764870">
        <ele>951</ele>
        <time>2022-12-03T23:48:38Z</time>
      </trkpt>
      <trkpt lat="40.256870" lon="-6.765890">
        <ele>954</ele>
        <time>2022-12-03T23:48:58Z</time>
      </trkpt>
      <trkpt lat="40.256680" lon="-6.766080">
        <ele>955</ele>
        <time>2022-12-03T23:49:02Z</time>
      </trkpt>
      <trkpt lat="40.256450" lon="-6.766280">
        <ele>958</ele>
        <time>2022-12-03T23:49:07Z</time>
      </trkpt>
      <trkpt lat="40.255510" lon="-6.766940">
        <ele>964</ele>
        <time>2022-12-03T23:49:26Z</time>
      </trkpt>
      <trkpt lat="40.255120" lon="-6.767290">
        <ele>964</ele>
        <time>2022-12-03T23:49:35Z</time>
      </trkpt>
      <trkpt lat="40.254070" lon="-6.768390">
        <ele>975</ele>
        <time>2022-12-03T23:49:59Z</time>
      </trkpt>
      <trkpt lat="40.253120" lon="-6.769390">
        <ele>989</ele>
        <time>2022-12-03T23:50:20Z</time>
      </trkpt>
      <trkpt lat="40.252170" lon="-6.770410">
        <ele>997</ele>
        <time>2022-12-03T23:50:42Z</time>
      </trkpt>
      <trkpt lat="40.251850" lon="-6.770900">
        <ele>997</ele>
        <time>2022-12-03T23:50:51Z</time>
      </trkpt>
      <trkpt lat="40.251060" lon="-6.772330">
        <ele>1001</ele>
        <time>2022-12-03T23:51:15Z</time>
      </trkpt>
      <trkpt lat="40.250820" lon="-6.772680">
        <ele>1002</ele>
        <time>2022-12-03T23:51:21Z</time>
      </trkpt>
      <trkpt lat="40.250660" lon="-6.772860">
        <ele>1004</ele>
        <time>2022-12-03T23:51:25Z</time>
      </trkpt>
      <trkpt lat="40.250390" lon="-6.773120">
        <ele>1008</ele>
        <time>2022-12-03T23:51:31Z</time>
      </trkpt>
      <trkpt lat="40.248810" lon="-6.774120">
        <ele>1022</ele>
        <time>2022-12-03T23:52:02Z</time>
      </trkpt>
      <trkpt lat="40.248440" lon="-6.774450">
        <ele>1026</ele>
        <time>2022-12-03T23:52:10Z</time>
      </trkpt>
      <trkpt lat="40.248130" lon="-6.774750">
        <ele>1028</ele>
        <time>2022-12-03T23:52:17Z</time>
      </trkpt>
      <trkpt lat="40.247890" lon="-6.775030">
        <ele>1029</ele>
        <time>2022-12-03T23:52:23Z</time>
      </trkpt>
      <trkpt lat="40.247340" lon="-6.775860">
        <ele>1030</ele>
        <time>2022-12-03T23:52:38Z</time>
      </trkpt>
      <trkpt lat="40.246580" lon="-6.777080">
        <ele>1030</ele>
        <time>2022-12-03T23:52:59Z</time>
      </trkpt>
      <trkpt lat="40.246390" lon="-6.777310">
        <ele>1030</ele>
        <time>2022-12-03T23:53:04Z</time>
      </trkpt>
      <trkpt lat="40.245820" lon="-6.777840">
        <ele>1028</ele>
        <time>2022-12-03T23:53:16Z</time>
      </trkpt>
      <trkpt lat="40.245640" lon="-6.777930">
        <ele>1027</ele>
        <time>2022-12-03T23:53:19Z</time>
      </trkpt>
      <trkpt lat="40.245510" lon="-6.777970">
        <ele>1027</ele>
        <time>2022-12-03T23:53:22Z</time>
      </trkpt>
      <trkpt lat="40.244980" lon="-6.777970">
        <ele>1027</ele>
        <time>2022-12-03T23:53:31Z</time>
      </trkpt>
      <trkpt lat="40.244200" lon="-6.778250">
        <ele>1021</ele>
        <time>2022-12-03T23:53:46Z</time>
      </trkpt>
      <trkpt lat="40.243850" lon="-6.778280">
        <ele>1016</ele>
        <time>2022-12-03T23:53:52Z</time>
      </trkpt>
      <trkpt lat="40.243600" lon="-6.778250">
        <ele>1014</ele>
        <time>2022-12-03T23:53:56Z</time>
      </trkpt>
      <trkpt lat="40.243260" lon="-6.778170">
        <ele>1013</ele>
        <time>2022-12-03T23:54:02Z</time>
      </trkpt>
      <trkpt lat="40.243210" lon="-6.778110">
        <ele>1014</ele>
        <time>2022-12-03T23:54:04Z</time>
      </trkpt>
      <trkpt lat="40.243120" lon="-6.777920">
        <ele>1020</ele>
        <time>2022-12-03T23:54:07Z</time>
      </trkpt>
      <trkpt lat="40.243070" lon="-6.777880">
        <ele>1020</ele>
        <time>2022-12-03T23:54:08Z</time>
      </trkpt>
      <trkpt lat="40.242770" lon="-6.777840">
        <ele>1017</ele>
        <time>2022-12-03T23:54:13Z</time>
      </trkpt>
      <trkpt lat="40.242710" lon="-6.777810">
        <ele>1017</ele>
        <time>2022-12-03T23:54:14Z</time>
      </trkpt>
      <trkpt lat="40.242340" lon="-6.777530">
        <ele>1025</ele>
        <time>2022-12-03T23:54:22Z</time>
      </trkpt>
      <trkpt lat="40.242260" lon="-6.777490">
        <ele>1027</ele>
        <time>2022-12-03T23:54:23Z</time>
      </trkpt>
      <trkpt lat="40.242210" lon="-6.777480">
        <ele>1028</ele>
        <time>2022-12-03T23:54:24Z</time>
      </trkpt>
      <trkpt lat="40.242170" lon="-6.777500">
        <ele>1028</ele>
        <time>2022-12-03T23:54:25Z</time>
      </trkpt>
      <trkpt lat="40.242090" lon="-6.777650">
        <ele>1026</ele>
        <time>2022-12-03T23:54:28Z</time>
      </trkpt>
      <trkpt lat="40.242090" lon="-6.777990">
        <ele>1020</ele>
        <time>2022-12-03T23:54:32Z</time>
      </trkpt>
      <trkpt lat="40.241980" lon="-6.778750">
        <ele>1008</ele>
        <time>2022-12-03T23:54:43Z</time>
      </trkpt>
      <trkpt lat="40.241940" lon="-6.778960">
        <ele>1005</ele>
        <time>2022-12-03T23:54:46Z</time>
      </trkpt>
      <trkpt lat="40.241870" lon="-6.779130">
        <ele>1004</ele>
        <time>2022-12-03T23:54:48Z</time>
      </trkpt>
      <trkpt lat="40.241810" lon="-6.779230">
        <ele>1004</ele>
        <time>2022-12-03T23:54:50Z</time>
      </trkpt>
      <trkpt lat="40.241640" lon="-6.779440">
        <ele>1003</ele>
        <time>2022-12-03T23:54:54Z</time>
      </trkpt>
      <trkpt lat="40.241390" lon="-6.779680">
        <ele>1002</ele>
        <time>2022-12-03T23:55:00Z</time>
      </trkpt>
      <trkpt lat="40.241190" lon="-6.779860">
        <ele>1000</ele>
        <time>2022-12-03T23:55:04Z</time>
      </trkpt>
      <trkpt lat="40.241070" lon="-6.779940">
        <ele>1000</ele>
        <time>2022-12-03T23:55:06Z</time>
      </trkpt>
      <trkpt lat="40.240760" lon="-6.780110">
        <ele>998</ele>
        <time>2022-12-03T23:55:12Z</time>
      </trkpt>
      <trkpt lat="40.240620" lon="-6.780170">
        <ele>996</ele>
        <time>2022-12-03T23:55:15Z</time>
      </trkpt>
      <trkpt lat="40.240380" lon="-6.780200">
        <ele>996</ele>
        <time>2022-12-03T23:55:19Z</time>
      </trkpt>
      <trkpt lat="40.239180" lon="-6.780280">
        <ele>988</ele>
        <time>2022-12-03T23:55:41Z</time>
      </trkpt>
      <trkpt lat="40.239040" lon="-6.780240">
        <ele>987</ele>
        <time>2022-12-03T23:55:43Z</time>
      </trkpt>
      <trkpt lat="40.238920" lon="-6.780170">
        <ele>988</ele>
        <time>2022-12-03T23:55:46Z</time>
      </trkpt>
      <trkpt lat="40.238500" lon="-6.779860">
        <ele>993</ele>
        <time>2022-12-03T23:55:54Z</time>
      </trkpt>
      <trkpt lat="40.238350" lon="-6.779800">
        <ele>993</ele>
        <time>2022-12-03T23:55:57Z</time>
      </trkpt>
      <trkpt lat="40.238250" lon="-6.779790">
        <ele>993</ele>
        <time>2022-12-03T23:55:59Z</time>
      </trkpt>
      <trkpt lat="40.237710" lon="-6.779800">
        <ele>993</ele>
        <time>2022-12-03T23:56:08Z</time>
      </trkpt>
      <trkpt lat="40.237500" lon="-6.779850">
        <ele>992</ele>
        <time>2022-12-03T23:56:12Z</time>
      </trkpt>
      <trkpt lat="40.237390" lon="-6.779900">
        <ele>991</ele>
        <time>2022-12-03T23:56:14Z</time>
      </trkpt>
      <trkpt lat="40.237260" lon="-6.780010">
        <ele>987</ele>
        <time>2022-12-03T23:56:17Z</time>
      </trkpt>
      <trkpt lat="40.237040" lon="-6.780290">
        <ele>980</ele>
        <time>2022-12-03T23:56:22Z</time>
      </trkpt>
      <trkpt lat="40.236890" lon="-6.780420">
        <ele>978</ele>
        <time>2022-12-03T23:56:26Z</time>
      </trkpt>
      <trkpt lat="40.236770" lon="-6.780470">
        <ele>977</ele>
        <time>2022-12-03T23:56:28Z</time>
      </trkpt>
      <trkpt lat="40.236580" lon="-6.780510">
        <ele>978</ele>
        <time>2022-12-03T23:56:31Z</time>
      </trkpt>
      <trkpt lat="40.236140" lon="-6.780680">
        <ele>975</ele>
        <time>2022-12-03T23:56:39Z</time>
      </trkpt>
      <trkpt lat="40.235920" lon="-6.780720">
        <ele>974</ele>
        <time>2022-12-03T23:56:43Z</time>
      </trkpt>
      <trkpt lat="40.235450" lon="-6.780740">
        <ele>970</ele>
        <time>2022-12-03T23:56:52Z</time>
      </trkpt>
      <trkpt lat="40.235330" lon="-6.780720">
        <ele>969</ele>
        <time>2022-12-03T23:56:54Z</time>
      </trkpt>
      <trkpt lat="40.235240" lon="-6.780670">
        <ele>970</ele>
        <time>2022-12-03T23:56:56Z</time>
      </trkpt>
      <trkpt lat="40.234860" lon="-6.780380">
        <ele>978</ele>
        <time>2022-12-03T23:57:03Z</time>
      </trkpt>
      <trkpt lat="40.234790" lon="-6.780350">
        <ele>980</ele>
        <time>2022-12-03T23:57:05Z</time>
      </trkpt>
      <trkpt lat="40.234700" lon="-6.780370">
        <ele>981</ele>
        <time>2022-12-03T23:57:06Z</time>
      </trkpt>
      <trkpt lat="40.234630" lon="-6.780420">
        <ele>980</ele>
        <time>2022-12-03T23:57:08Z</time>
      </trkpt>
      <trkpt lat="40.234540" lon="-6.780550">
        <ele>977</ele>
        <time>2022-12-03T23:57:10Z</time>
      </trkpt>
      <trkpt lat="40.234360" lon="-6.780990">
        <ele>965</ele>
        <time>2022-12-03T23:57:17Z</time>
      </trkpt>
      <trkpt lat="40.234280" lon="-6.781130">
        <ele>962</ele>
        <time>2022-12-03T23:57:19Z</time>
      </trkpt>
      <trkpt lat="40.234200" lon="-6.781240">
        <ele>960</ele>
        <time>2022-12-03T23:57:21Z</time>
      </trkpt>
      <trkpt lat="40.233760" lon="-6.781640">
        <ele>954</ele>
        <time>2022-12-03T23:57:31Z</time>
      </trkpt>
      <trkpt lat="40.233680" lon="-6.781710">
        <ele>953</ele>
        <time>2022-12-03T23:57:33Z</time>
      </trkpt>
      <trkpt lat="40.233610" lon="-6.781730">
        <ele>953</ele>
        <time>2022-12-03T23:57:34Z</time>
      </trkpt>
      <trkpt lat="40.233200" lon="-6.781750">
        <ele>958</ele>
        <time>2022-12-03T23:57:41Z</time>
      </trkpt>
      <trkpt lat="40.233100" lon="-6.781800">
        <ele>959</ele>
        <time>2022-12-03T23:57:43Z</time>
      </trkpt>
      <trkpt lat="40.232810" lon="-6.782040">
        <ele>957</ele>
        <time>2022-12-03T23:57:49Z</time>
      </trkpt>
      <trkpt lat="40.232640" lon="-6.782230">
        <ele>954</ele>
        <time>2022-12-03T23:57:53Z</time>
      </trkpt>
      <trkpt lat="40.232530" lon="-6.782410">
        <ele>950</ele>
        <time>2022-12-03T23:57:56Z</time>
      </trkpt>
      <trkpt lat="40.232360" lon="-6.782750">
        <ele>945</ele>
        <time>2022-12-03T23:58:02Z</time>
      </trkpt>
      <trkpt lat="40.232270" lon="-6.782890">
        <ele>943</ele>
        <time>2022-12-03T23:58:04Z</time>
      </trkpt>
      <trkpt lat="40.232150" lon="-6.783000">
        <ele>943</ele>
        <time>2022-12-03T23:58:07Z</time>
      </trkpt>
      <trkpt lat="40.232030" lon="-6.783080">
        <ele>943</ele>
        <time>2022-12-03T23:58:09Z</time>
      </trkpt>
      <trkpt lat="40.230530" lon="-6.783750">
        <ele>943</ele>
        <time>2022-12-03T23:58:38Z</time>
      </trkpt>
      <trkpt lat="40.230350" lon="-6.783860">
        <ele>943</ele>
        <time>2022-12-03T23:58:41Z</time>
      </trkpt>
      <trkpt lat="40.230160" lon="-6.784030">
        <ele>940</ele>
        <time>2022-12-03T23:58:45Z</time>
      </trkpt>
      <trkpt lat="40.229950" lon="-6.784270">
        <ele>937</ele>
        <time>2022-12-03T23:58:50Z</time>
      </trkpt>
      <trkpt lat="40.229710" lon="-6.784580">
        <ele>932</ele>
        <time>2022-12-03T23:58:56Z</time>
      </trkpt>
      <trkpt lat="40.229440" lon="-6.784820">
        <ele>930</ele>
        <time>2022-12-03T23:59:02Z</time>
      </trkpt>
      <trkpt lat="40.229290" lon="-6.784900">
        <ele>930</ele>
        <time>2022-12-03T23:59:05Z</time>
      </trkpt>
      <trkpt lat="40.229170" lon="-6.784950">
        <ele>930</ele>
        <time>2022-12-03T23:59:07Z</time>
      </trkpt>
      <trkpt lat="40.229020" lon="-6.784970">
        <ele>930</ele>
        <time>2022-12-03T23:59:10Z</time>
      </trkpt>
      <trkpt lat="40.228200" lon="-6.785000">
        <ele>927</ele>
        <time>2022-12-03T23:59:24Z</time>
      </trkpt>
      <trkpt lat="40.228030" lon="-6.785020">
        <ele>927</ele>
        <time>2022-12-03T23:59:27Z</time>
      </trkpt>
      <trkpt lat="40.227740" lon="-6.785120">
        <ele>924</ele>
        <time>2022-12-03T23:59:33Z</time>
      </trkpt>
      <trkpt lat="40.227160" lon="-6.785440">
        <ele>915</ele>
        <time>2022-12-03T23:59:44Z</time>
      </trkpt>
      <trkpt lat="40.226850" lon="-6.785530">
        <ele>913</ele>
        <time>2022-12-03T23:59:50Z</time>
      </trkpt>
      <trkpt lat="40.226600" lon="-6.785520">
        <ele>913</ele>
        <time>2022-12-03T23:59:54Z</time>
      </trkpt>
      <trkpt lat="40.225620" lon="-6.785180">
        <ele>912</ele>
        <time>2022-12-04T00:00:12Z</time>
      </trkpt>
      <trkpt lat="40.225330" lon="-6.785140">
        <ele>912</ele>
        <time>2022-12-04T00:00:17Z</time>
      </trkpt>
      <trkpt lat="40.225180" lon="-6.785140">
        <ele>911</ele>
        <time>2022-12-04T00:00:20Z</time>
      </trkpt>
      <trkpt lat="40.225010" lon="-6.785170">
        <ele>909</ele>
        <time>2022-12-04T00:00:23Z</time>
      </trkpt>
      <trkpt lat="40.224830" lon="-6.785230">
        <ele>907</ele>
        <time>2022-12-04T00:00:26Z</time>
      </trkpt>
      <trkpt lat="40.224680" lon="-6.785290">
        <ele>905</ele>
        <time>2022-12-04T00:00:29Z</time>
      </trkpt>
      <trkpt lat="40.224530" lon="-6.785410">
        <ele>902</ele>
        <time>2022-12-04T00:00:32Z</time>
      </trkpt>
      <trkpt lat="40.224370" lon="-6.785560">
        <ele>900</ele>
        <time>2022-12-04T00:00:36Z</time>
      </trkpt>
      <trkpt lat="40.224150" lon="-6.785860">
        <ele>897</ele>
        <time>2022-12-04T00:00:41Z</time>
      </trkpt>
      <trkpt lat="40.224050" lon="-6.786070">
        <ele>896</ele>
        <time>2022-12-04T00:00:45Z</time>
      </trkpt>
      <trkpt lat="40.223670" lon="-6.787090">
        <ele>886</ele>
        <time>2022-12-04T00:01:00Z</time>
      </trkpt>
      <trkpt lat="40.223580" lon="-6.787220">
        <ele>885</ele>
        <time>2022-12-04T00:01:02Z</time>
      </trkpt>
      <trkpt lat="40.223500" lon="-6.787300">
        <ele>884</ele>
        <time>2022-12-04T00:01:04Z</time>
      </trkpt>
      <trkpt lat="40.223310" lon="-6.787430">
        <ele>884</ele>
        <time>2022-12-04T00:01:08Z</time>
      </trkpt>
      <trkpt lat="40.223060" lon="-6.787480">
        <ele>880</ele>
        <time>2022-12-04T00:01:13Z</time>
      </trkpt>
      <trkpt lat="40.221040" lon="-6.786820">
        <ele>873</ele>
        <time>2022-12-04T00:01:50Z</time>
      </trkpt>
      <trkpt lat="40.220880" lon="-6.786720">
        <ele>874</ele>
        <time>2022-12-04T00:01:53Z</time>
      </trkpt>
      <trkpt lat="40.220500" lon="-6.786440">
        <ele>871</ele>
        <time>2022-12-04T00:02:01Z</time>
      </trkpt>
      <trkpt lat="40.220180" lon="-6.786120">
        <ele>868</ele>
        <time>2022-12-04T00:02:08Z</time>
      </trkpt>
      <trkpt lat="40.219930" lon="-6.785780">
        <ele>865</ele>
        <time>2022-12-04T00:02:14Z</time>
      </trkpt>
      <trkpt lat="40.219710" lon="-6.785410">
        <ele>861</ele>
        <time>2022-12-04T00:02:20Z</time>
      </trkpt>
      <trkpt lat="40.219560" lon="-6.785040">
        <ele>859</ele>
        <time>2022-12-04T00:02:26Z</time>
      </trkpt>
      <trkpt lat="40.219390" lon="-6.784580">
        <ele>855</ele>
        <time>2022-12-04T00:02:33Z</time>
      </trkpt>
      <trkpt lat="40.219320" lon="-6.784340">
        <ele>854</ele>
        <time>2022-12-04T00:02:37Z</time>
      </trkpt>
      <trkpt lat="40.219290" lon="-6.784160">
        <ele>854</ele>
        <time>2022-12-04T00:02:39Z</time>
      </trkpt>
      <trkpt lat="40.219270" lon="-6.783850">
        <ele>850</ele>
        <time>2022-12-04T00:02:43Z</time>
      </trkpt>
      <trkpt lat="40.219280" lon="-6.783680">
        <ele>849</ele>
        <time>2022-12-04T00:02:46Z</time>
      </trkpt>
      <trkpt lat="40.219320" lon="-6.783480">
        <ele>848</ele>
        <time>2022-12-04T00:02:48Z</time>
      </trkpt>
      <trkpt lat="40.219370" lon="-6.783290">
        <ele>847</ele>
        <time>2022-12-04T00:02:51Z</time>
      </trkpt>
      <trkpt lat="40.219470" lon="-6.783070">
        <ele>845</ele>
        <time>2022-12-04T00:02:55Z</time>
      </trkpt>
      <trkpt lat="40.219580" lon="-6.782880">
        <ele>844</ele>
        <time>2022-12-04T00:02:58Z</time>
      </trkpt>
      <trkpt lat="40.219690" lon="-6.782750">
        <ele>843</ele>
        <time>2022-12-04T00:03:01Z</time>
      </trkpt>
      <trkpt lat="40.219990" lon="-6.782530">
        <ele>845</ele>
        <time>2022-12-04T00:03:07Z</time>
      </trkpt>
      <trkpt lat="40.220090" lon="-6.782500">
        <ele>846</ele>
        <time>2022-12-04T00:03:08Z</time>
      </trkpt>
      <trkpt lat="40.220390" lon="-6.782410">
        <ele>849</ele>
        <time>2022-12-04T00:03:14Z</time>
      </trkpt>
      <trkpt lat="40.220520" lon="-6.782340">
        <ele>850</ele>
        <time>2022-12-04T00:03:16Z</time>
      </trkpt>
      <trkpt lat="40.220680" lon="-6.782240">
        <ele>850</ele>
        <time>2022-12-04T00:03:20Z</time>
      </trkpt>
      <trkpt lat="40.220860" lon="-6.782010">
        <ele>848</ele>
        <time>2022-12-04T00:03:24Z</time>
      </trkpt>
      <trkpt lat="40.220940" lon="-6.781860">
        <ele>846</ele>
        <time>2022-12-04T00:03:27Z</time>
      </trkpt>
      <trkpt lat="40.221120" lon="-6.781330">
        <ele>842</ele>
        <time>2022-12-04T00:03:34Z</time>
      </trkpt>
      <trkpt lat="40.221200" lon="-6.781060">
        <ele>841</ele>
        <time>2022-12-04T00:03:38Z</time>
      </trkpt>
      <trkpt lat="40.221220" lon="-6.780910">
        <ele>840</ele>
        <time>2022-12-04T00:03:40Z</time>
      </trkpt>
      <trkpt lat="40.221220" lon="-6.780790">
        <ele>839</ele>
        <time>2022-12-04T00:03:42Z</time>
      </trkpt>
      <trkpt lat="40.221190" lon="-6.780700">
        <ele>840</ele>
        <time>2022-12-04T00:03:43Z</time>
      </trkpt>
      <trkpt lat="40.221120" lon="-6.780600">
        <ele>840</ele>
        <time>2022-12-04T00:03:45Z</time>
      </trkpt>
      <trkpt lat="40.220980" lon="-6.780550">
        <ele>838</ele>
        <time>2022-12-04T00:03:48Z</time>
      </trkpt>
      <trkpt lat="40.220530" lon="-6.780640">
        <ele>831</ele>
        <time>2022-12-04T00:03:56Z</time>
      </trkpt>
      <trkpt lat="40.220350" lon="-6.780610">
        <ele>829</ele>
        <time>2022-12-04T00:03:59Z</time>
      </trkpt>
      <trkpt lat="40.220260" lon="-6.780550">
        <ele>828</ele>
        <time>2022-12-04T00:04:01Z</time>
      </trkpt>
      <trkpt lat="40.219870" lon="-6.780120">
        <ele>826</ele>
        <time>2022-12-04T00:04:10Z</time>
      </trkpt>
      <trkpt lat="40.219490" lon="-6.779660">
        <ele>823</ele>
        <time>2022-12-04T00:04:19Z</time>
      </trkpt>
      <trkpt lat="40.219400" lon="-6.779530">
        <ele>823</ele>
        <time>2022-12-04T00:04:22Z</time>
      </trkpt>
      <trkpt lat="40.219240" lon="-6.779210">
        <ele>822</ele>
        <time>2022-12-04T00:04:27Z</time>
      </trkpt>
      <trkpt lat="40.219160" lon="-6.779000">
        <ele>822</ele>
        <time>2022-12-04T00:04:30Z</time>
      </trkpt>
      <trkpt lat="40.219040" lon="-6.778600">
        <ele>822</ele>
        <time>2022-12-04T00:04:36Z</time>
      </trkpt>
      <trkpt lat="40.218930" lon="-6.778300">
        <ele>821</ele>
        <time>2022-12-04T00:04:40Z</time>
      </trkpt>
      <trkpt lat="40.217990" lon="-6.776790">
        <ele>812</ele>
        <time>2022-12-04T00:05:07Z</time>
      </trkpt>
      <trkpt lat="40.217830" lon="-6.776610">
        <ele>812</ele>
        <time>2022-12-04T00:05:11Z</time>
      </trkpt>
      <trkpt lat="40.217740" lon="-6.776550">
        <ele>812</ele>
        <time>2022-12-04T00:05:12Z</time>
      </trkpt>
      <trkpt lat="40.217630" lon="-6.776510">
        <ele>811</ele>
        <time>2022-12-04T00:05:14Z</time>
      </trkpt>
      <trkpt lat="40.217430" lon="-6.776490">
        <ele>809</ele>
        <time>2022-12-04T00:05:18Z</time>
      </trkpt>
      <trkpt lat="40.217310" lon="-6.776520">
        <ele>809</ele>
        <time>2022-12-04T00:05:20Z</time>
      </trkpt>
      <trkpt lat="40.216810" lon="-6.776930">
        <ele>803</ele>
        <time>2022-12-04T00:05:31Z</time>
      </trkpt>
      <trkpt lat="40.216710" lon="-6.776980">
        <ele>802</ele>
        <time>2022-12-04T00:05:33Z</time>
      </trkpt>
      <trkpt lat="40.216490" lon="-6.777030">
        <ele>799</ele>
        <time>2022-12-04T00:05:37Z</time>
      </trkpt>
      <trkpt lat="40.216370" lon="-6.777030">
        <ele>798</ele>
        <time>2022-12-04T00:05:39Z</time>
      </trkpt>
      <trkpt lat="40.215750" lon="-6.776820">
        <ele>795</ele>
        <time>2022-12-04T00:05:50Z</time>
      </trkpt>
      <trkpt lat="40.215640" lon="-6.776800">
        <ele>796</ele>
        <time>2022-12-04T00:05:52Z</time>
      </trkpt>
      <trkpt lat="40.215560" lon="-6.776820">
        <ele>796</ele>
        <time>2022-12-04T00:05:54Z</time>
      </trkpt>
      <trkpt lat="40.215470" lon="-6.776870">
        <ele>797</ele>
        <time>2022-12-04T00:05:55Z</time>
      </trkpt>
      <trkpt lat="40.215320" lon="-6.777050">
        <ele>798</ele>
        <time>2022-12-04T00:05:59Z</time>
      </trkpt>
      <trkpt lat="40.215280" lon="-6.777180">
        <ele>798</ele>
        <time>2022-12-04T00:06:01Z</time>
      </trkpt>
      <trkpt lat="40.215260" lon="-6.777280">
        <ele>798</ele>
        <time>2022-12-04T00:06:02Z</time>
      </trkpt>
      <trkpt lat="40.215300" lon="-6.777580">
        <ele>797</ele>
        <time>2022-12-04T00:06:06Z</time>
      </trkpt>
      <trkpt lat="40.215490" lon="-6.778430">
        <ele>792</ele>
        <time>2022-12-04T00:06:18Z</time>
      </trkpt>
      <trkpt lat="40.215530" lon="-6.778770">
        <ele>788</ele>
        <time>2022-12-04T00:06:23Z</time>
      </trkpt>
      <trkpt lat="40.215510" lon="-6.779110">
        <ele>785</ele>
        <time>2022-12-04T00:06:28Z</time>
      </trkpt>
      <trkpt lat="40.215480" lon="-6.779290">
        <ele>784</ele>
        <time>2022-12-04T00:06:30Z</time>
      </trkpt>
      <trkpt lat="40.215430" lon="-6.779430">
        <ele>784</ele>
        <time>2022-12-04T00:06:32Z</time>
      </trkpt>
      <trkpt lat="40.214960" lon="-6.780530">
        <ele>779</ele>
        <time>2022-12-04T00:06:49Z</time>
      </trkpt>
      <trkpt lat="40.214620" lon="-6.781290">
        <ele>773</ele>
        <time>2022-12-04T00:07:01Z</time>
      </trkpt>
      <trkpt lat="40.214550" lon="-6.781410">
        <ele>772</ele>
        <time>2022-12-04T00:07:03Z</time>
      </trkpt>
      <trkpt lat="40.214240" lon="-6.781790">
        <ele>771</ele>
        <time>2022-12-04T00:07:11Z</time>
      </trkpt>
      <trkpt lat="40.214110" lon="-6.782010">
        <ele>769</ele>
        <time>2022-12-04T00:07:15Z</time>
      </trkpt>
      <trkpt lat="40.214050" lon="-6.782140">
        <ele>768</ele>
        <time>2022-12-04T00:07:17Z</time>
      </trkpt>
      <trkpt lat="40.213900" lon="-6.782560">
        <ele>762</ele>
        <time>2022-12-04T00:07:23Z</time>
      </trkpt>
      <trkpt lat="40.213820" lon="-6.782690">
        <ele>761</ele>
        <time>2022-12-04T00:07:25Z</time>
      </trkpt>
      <trkpt lat="40.213270" lon="-6.783440">
        <ele>754</ele>
        <time>2022-12-04T00:07:39Z</time>
      </trkpt>
      <trkpt lat="40.213190" lon="-6.783510">
        <ele>752</ele>
        <time>2022-12-04T00:07:41Z</time>
      </trkpt>
      <trkpt lat="40.213080" lon="-6.783550">
        <ele>750</ele>
        <time>2022-12-04T00:07:43Z</time>
      </trkpt>
      <trkpt lat="40.212990" lon="-6.783560">
        <ele>749</ele>
        <time>2022-12-04T00:07:45Z</time>
      </trkpt>
      <trkpt lat="40.212870" lon="-6.783530">
        <ele>749</ele>
        <time>2022-12-04T00:07:47Z</time>
      </trkpt>
      <trkpt lat="40.212750" lon="-6.783470">
        <ele>749</ele>
        <time>2022-12-04T00:07:49Z</time>
      </trkpt>
      <trkpt lat="40.211540" lon="-6.782680">
        <ele>755</ele>
        <time>2022-12-04T00:08:13Z</time>
      </trkpt>
      <trkpt lat="40.211350" lon="-6.782680">
        <ele>756</ele>
        <time>2022-12-04T00:08:17Z</time>
      </trkpt>
      <trkpt lat="40.211250" lon="-6.782740">
        <ele>756</ele>
        <time>2022-12-04T00:08:19Z</time>
      </trkpt>
      <trkpt lat="40.211120" lon="-6.782930">
        <ele>755</ele>
        <time>2022-12-04T00:08:22Z</time>
      </trkpt>
      <trkpt lat="40.211090" lon="-6.783030">
        <ele>755</ele>
        <time>2022-12-04T00:08:24Z</time>
      </trkpt>
      <trkpt lat="40.211100" lon="-6.783280">
        <ele>752</ele>
        <time>2022-12-04T00:08:27Z</time>
      </trkpt>
      <trkpt lat="40.211270" lon="-6.783790">
        <ele>745</ele>
        <time>2022-12-04T00:08:35Z</time>
      </trkpt>
      <trkpt lat="40.211300" lon="-6.783960">
        <ele>743</ele>
        <time>2022-12-04T00:08:37Z</time>
      </trkpt>
      <trkpt lat="40.211310" lon="-6.784130">
        <ele>741</ele>
        <time>2022-12-04T00:08:39Z</time>
      </trkpt>
      <trkpt lat="40.211270" lon="-6.784450">
        <ele>737</ele>
        <time>2022-12-04T00:08:44Z</time>
      </trkpt>
      <trkpt lat="40.211150" lon="-6.784760">
        <ele>734</ele>
        <time>2022-12-04T00:08:48Z</time>
      </trkpt>
      <trkpt lat="40.210980" lon="-6.784980">
        <ele>733</ele>
        <time>2022-12-04T00:08:53Z</time>
      </trkpt>
      <trkpt lat="40.210610" lon="-6.785350">
        <ele>734</ele>
        <time>2022-12-04T00:09:01Z</time>
      </trkpt>
      <trkpt lat="40.210470" lon="-6.785510">
        <ele>735</ele>
        <time>2022-12-04T00:09:04Z</time>
      </trkpt>
      <trkpt lat="40.210260" lon="-6.785790">
        <ele>735</ele>
        <time>2022-12-04T00:09:10Z</time>
      </trkpt>
      <trkpt lat="40.210030" lon="-6.786210">
        <ele>733</ele>
        <time>2022-12-04T00:09:17Z</time>
      </trkpt>
      <trkpt lat="40.209260" lon="-6.787830">
        <ele>719</ele>
        <time>2022-12-04T00:09:43Z</time>
      </trkpt>
      <trkpt lat="40.209160" lon="-6.788020">
        <ele>717</ele>
        <time>2022-12-04T00:09:46Z</time>
      </trkpt>
      <trkpt lat="40.208960" lon="-6.788300">
        <ele>713</ele>
        <time>2022-12-04T00:09:51Z</time>
      </trkpt>
      <trkpt lat="40.208740" lon="-6.788540">
        <ele>711</ele>
        <time>2022-12-04T00:09:56Z</time>
      </trkpt>
      <trkpt lat="40.207800" lon="-6.789300">
        <ele>707</ele>
        <time>2022-12-04T00:10:16Z</time>
      </trkpt>
      <trkpt lat="40.207630" lon="-6.789460">
        <ele>706</ele>
        <time>2022-12-04T00:10:19Z</time>
      </trkpt>
      <trkpt lat="40.207400" lon="-6.789800">
        <ele>703</ele>
        <time>2022-12-04T00:10:26Z</time>
      </trkpt>
      <trkpt lat="40.207260" lon="-6.790190">
        <ele>699</ele>
        <time>2022-12-04T00:10:31Z</time>
      </trkpt>
      <trkpt lat="40.207210" lon="-6.790440">
        <ele>697</ele>
        <time>2022-12-04T00:10:35Z</time>
      </trkpt>
      <trkpt lat="40.207190" lon="-6.790660">
        <ele>694</ele>
        <time>2022-12-04T00:10:38Z</time>
      </trkpt>
      <trkpt lat="40.207200" lon="-6.790860">
        <ele>692</ele>
        <time>2022-12-04T00:10:41Z</time>
      </trkpt>
      <trkpt lat="40.207260" lon="-6.791240">
        <ele>691</ele>
        <time>2022-12-04T00:10:46Z</time>
      </trkpt>
      <trkpt lat="40.207330" lon="-6.791440">
        <ele>690</ele>
        <time>2022-12-04T00:10:49Z</time>
      </trkpt>
      <trkpt lat="40.207400" lon="-6.791610">
        <ele>689</ele>
        <time>2022-12-04T00:10:52Z</time>
      </trkpt>
      <trkpt lat="40.207690" lon="-6.792110">
        <ele>684</ele>
        <time>2022-12-04T00:11:00Z</time>
      </trkpt>
      <trkpt lat="40.207790" lon="-6.792380">
        <ele>681</ele>
        <time>2022-12-04T00:11:04Z</time>
      </trkpt>
      <trkpt lat="40.207820" lon="-6.792680">
        <ele>679</ele>
        <time>2022-12-04T00:11:08Z</time>
      </trkpt>
      <trkpt lat="40.207790" lon="-6.792960">
        <ele>678</ele>
        <time>2022-12-04T00:11:12Z</time>
      </trkpt>
      <trkpt lat="40.207700" lon="-6.793270">
        <ele>678</ele>
        <time>2022-12-04T00:11:17Z</time>
      </trkpt>
      <trkpt lat="40.207600" lon="-6.793450">
        <ele>677</ele>
        <time>2022-12-04T00:11:20Z</time>
      </trkpt>
      <trkpt lat="40.207510" lon="-6.793560">
        <ele>676</ele>
        <time>2022-12-04T00:11:22Z</time>
      </trkpt>
      <trkpt lat="40.207410" lon="-6.793640">
        <ele>675</ele>
        <time>2022-12-04T00:11:24Z</time>
      </trkpt>
      <trkpt lat="40.206760" lon="-6.794070">
        <ele>672</ele>
        <time>2022-12-04T00:11:37Z</time>
      </trkpt>
      <trkpt lat="40.206460" lon="-6.794210">
        <ele>670</ele>
        <time>2022-12-04T00:11:43Z</time>
      </trkpt>
      <trkpt lat="40.206140" lon="-6.794270">
        <ele>668</ele>
        <time>2022-12-04T00:11:48Z</time>
      </trkpt>
      <trkpt lat="40.205910" lon="-6.794360">
        <ele>666</ele>
        <time>2022-12-04T00:11:53Z</time>
      </trkpt>
      <trkpt lat="40.205630" lon="-6.794550">
        <ele>665</ele>
        <time>2022-12-04T00:11:58Z</time>
      </trkpt>
      <trkpt lat="40.205380" lon="-6.794820">
        <ele>665</ele>
        <time>2022-12-04T00:12:04Z</time>
      </trkpt>
      <trkpt lat="40.205290" lon="-6.794940">
        <ele>664</ele>
        <time>2022-12-04T00:12:06Z</time>
      </trkpt>
      <trkpt lat="40.205090" lon="-6.795300">
        <ele>662</ele>
        <time>2022-12-04T00:12:12Z</time>
      </trkpt>
      <trkpt lat="40.204940" lon="-6.795470">
        <ele>660</ele>
        <time>2022-12-04T00:12:16Z</time>
      </trkpt>
      <trkpt lat="40.204800" lon="-6.795600">
        <ele>659</ele>
        <time>2022-12-04T00:12:19Z</time>
      </trkpt>
      <trkpt lat="40.204650" lon="-6.795700">
        <ele>658</ele>
        <time>2022-12-04T00:12:22Z</time>
      </trkpt>
      <trkpt lat="40.204470" lon="-6.795800">
        <ele>657</ele>
        <time>2022-12-04T00:12:25Z</time>
      </trkpt>
      <trkpt lat="40.204140" lon="-6.795870">
        <ele>657</ele>
        <time>2022-12-04T00:12:31Z</time>
      </trkpt>
      <trkpt lat="40.203940" lon="-6.795860">
        <ele>659</ele>
        <time>2022-12-04T00:12:35Z</time>
      </trkpt>
      <trkpt lat="40.203780" lon="-6.795830">
        <ele>660</ele>
        <time>2022-12-04T00:12:38Z</time>
      </trkpt>
      <trkpt lat="40.203510" lon="-6.795720">
        <ele>665</ele>
        <time>2022-12-04T00:12:43Z</time>
      </trkpt>
      <trkpt lat="40.203330" lon="-6.795710">
        <ele>666</ele>
        <time>2022-12-04T00:12:46Z</time>
      </trkpt>
      <trkpt lat="40.203250" lon="-6.795740">
        <ele>667</ele>
        <time>2022-12-04T00:12:47Z</time>
      </trkpt>
      <trkpt lat="40.203160" lon="-6.795810">
        <ele>668</ele>
        <time>2022-12-04T00:12:49Z</time>
      </trkpt>
      <trkpt lat="40.203070" lon="-6.795920">
        <ele>668</ele>
        <time>2022-12-04T00:12:51Z</time>
      </trkpt>
      <trkpt lat="40.203020" lon="-6.796030">
        <ele>667</ele>
        <time>2022-12-04T00:12:53Z</time>
      </trkpt>
      <trkpt lat="40.203000" lon="-6.796280">
        <ele>663</ele>
        <time>2022-12-04T00:12:57Z</time>
      </trkpt>
      <trkpt lat="40.203010" lon="-6.796400">
        <ele>661</ele>
        <time>2022-12-04T00:12:58Z</time>
      </trkpt>
      <trkpt lat="40.203050" lon="-6.796510">
        <ele>658</ele>
        <time>2022-12-04T00:13:00Z</time>
      </trkpt>
      <trkpt lat="40.203100" lon="-6.796610">
        <ele>655</ele>
        <time>2022-12-04T00:13:02Z</time>
      </trkpt>
      <trkpt lat="40.203200" lon="-6.796710">
        <ele>651</ele>
        <time>2022-12-04T00:13:04Z</time>
      </trkpt>
      <trkpt lat="40.203280" lon="-6.796750">
        <ele>648</ele>
        <time>2022-12-04T00:13:05Z</time>
      </trkpt>
      <trkpt lat="40.203360" lon="-6.796770">
        <ele>646</ele>
        <time>2022-12-04T00:13:07Z</time>
      </trkpt>
      <trkpt lat="40.203440" lon="-6.796760">
        <ele>646</ele>
        <time>2022-12-04T00:13:08Z</time>
      </trkpt>
      <trkpt lat="40.203540" lon="-6.796730">
        <ele>645</ele>
        <time>2022-12-04T00:13:10Z</time>
      </trkpt>
      <trkpt lat="40.204010" lon="-6.796450">
        <ele>647</ele>
        <time>2022-12-04T00:13:19Z</time>
      </trkpt>
      <trkpt lat="40.204160" lon="-6.796410">
        <ele>646</ele>
        <time>2022-12-04T00:13:22Z</time>
      </trkpt>
      <trkpt lat="40.204500" lon="-6.796400">
        <ele>646</ele>
        <time>2022-12-04T00:13:28Z</time>
      </trkpt>
      <trkpt lat="40.204720" lon="-6.796450">
        <ele>644</ele>
        <time>2022-12-04T00:13:32Z</time>
      </trkpt>
      <trkpt lat="40.204980" lon="-6.796600">
        <ele>641</ele>
        <time>2022-12-04T00:13:37Z</time>
      </trkpt>
      <trkpt lat="40.205340" lon="-6.796950">
        <ele>637</ele>
        <time>2022-12-04T00:13:45Z</time>
      </trkpt>
      <trkpt lat="40.205610" lon="-6.797150">
        <ele>636</ele>
        <time>2022-12-04T00:13:50Z</time>
      </trkpt>
      <trkpt lat="40.205900" lon="-6.797320">
        <ele>634</ele>
        <time>2022-12-04T00:13:56Z</time>
      </trkpt>
      <trkpt lat="40.206660" lon="-6.797590">
        <ele>627</ele>
        <time>2022-12-04T00:14:10Z</time>
      </trkpt>
      <trkpt lat="40.206950" lon="-6.797620">
        <ele>626</ele>
        <time>2022-12-04T00:14:15Z</time>
      </trkpt>
      <trkpt lat="40.207300" lon="-6.797590">
        <ele>626</ele>
        <time>2022-12-04T00:14:22Z</time>
      </trkpt>
      <trkpt lat="40.207540" lon="-6.797530">
        <ele>626</ele>
        <time>2022-12-04T00:14:26Z</time>
      </trkpt>
      <trkpt lat="40.207770" lon="-6.797430">
        <ele>624</ele>
        <time>2022-12-04T00:14:30Z</time>
      </trkpt>
      <trkpt lat="40.207950" lon="-6.797310">
        <ele>623</ele>
        <time>2022-12-04T00:14:34Z</time>
      </trkpt>
      <trkpt lat="40.208430" lon="-6.796920">
        <ele>620</ele>
        <time>2022-12-04T00:14:44Z</time>
      </trkpt>
      <trkpt lat="40.208770" lon="-6.796750">
        <ele>617</ele>
        <time>2022-12-04T00:14:50Z</time>
      </trkpt>
      <trkpt lat="40.209150" lon="-6.796660">
        <ele>612</ele>
        <time>2022-12-04T00:14:57Z</time>
      </trkpt>
      <trkpt lat="40.209310" lon="-6.796650">
        <ele>611</ele>
        <time>2022-12-04T00:15:00Z</time>
      </trkpt>
      <trkpt lat="40.211000" lon="-6.796930">
        <ele>600</ele>
        <time>2022-12-04T00:15:30Z</time>
      </trkpt>
      <trkpt lat="40.211100" lon="-6.796970">
        <ele>600</ele>
        <time>2022-12-04T00:15:32Z</time>
      </trkpt>
      <trkpt lat="40.211280" lon="-6.797090">
        <ele>599</ele>
        <time>2022-12-04T00:15:36Z</time>
      </trkpt>
      <trkpt lat="40.211470" lon="-6.797310">
        <ele>598</ele>
        <time>2022-12-04T00:15:40Z</time>
      </trkpt>
      <trkpt lat="40.211620" lon="-6.797610">
        <ele>598</ele>
        <time>2022-12-04T00:15:45Z</time>
      </trkpt>
      <trkpt lat="40.211790" lon="-6.798120">
        <ele>598</ele>
        <time>2022-12-04T00:15:53Z</time>
      </trkpt>
      <trkpt lat="40.211890" lon="-6.798340">
        <ele>598</ele>
        <time>2022-12-04T00:15:56Z</time>
      </trkpt>
      <trkpt lat="40.212060" lon="-6.798530">
        <ele>598</ele>
        <time>2022-12-04T00:16:00Z</time>
      </trkpt>
      <trkpt lat="40.212310" lon="-6.798680">
        <ele>598</ele>
        <time>2022-12-04T00:16:05Z</time>
      </trkpt>
      <trkpt lat="40.212390" lon="-6.798760">
        <ele>597</ele>
        <time>2022-12-04T00:16:07Z</time>
      </trkpt>
      <trkpt lat="40.212460" lon="-6.798840">
        <ele>597</ele>
        <time>2022-12-04T00:16:09Z</time>
      </trkpt>
      <trkpt lat="40.212560" lon="-6.799070">
        <ele>596</ele>
        <time>2022-12-04T00:16:12Z</time>
      </trkpt>
      <trkpt lat="40.212590" lon="-6.799230">
        <ele>595</ele>
        <time>2022-12-04T00:16:14Z</time>
      </trkpt>
      <trkpt lat="40.212590" lon="-6.799360">
        <ele>594</ele>
        <time>2022-12-04T00:16:16Z</time>
      </trkpt>
      <trkpt lat="40.212570" lon="-6.799490">
        <ele>593</ele>
        <time>2022-12-04T00:16:18Z</time>
      </trkpt>
      <trkpt lat="40.210950" lon="-6.805220">
        <ele>561</ele>
        <time>2022-12-04T00:17:41Z</time>
      </trkpt>
      <trkpt lat="40.210620" lon="-6.806250">
        <ele>554</ele>
        <time>2022-12-04T00:17:56Z</time>
      </trkpt>
      <trkpt lat="40.210200" lon="-6.807330">
        <ele>546</ele>
        <time>2022-12-04T00:18:13Z</time>
      </trkpt>
      <trkpt lat="40.208860" lon="-6.810710">
        <ele>524</ele>
        <time>2022-12-04T00:19:04Z</time>
      </trkpt>
      <trkpt lat="40.208730" lon="-6.811010">
        <ele>523</ele>
        <time>2022-12-04T00:19:09Z</time>
      </trkpt>
      <trkpt lat="40.208600" lon="-6.811260">
        <ele>522</ele>
        <time>2022-12-04T00:19:13Z</time>
      </trkpt>
      <trkpt lat="40.207780" lon="-6.812650">
        <ele>516</ele>
        <time>2022-12-04T00:19:37Z</time>
      </trkpt>
      <trkpt lat="40.208500" lon="-6.813700">
        <ele>517</ele>
        <time>2022-12-04T00:19:56Z</time>
      </trkpt>
      <trkpt lat="40.208660" lon="-6.813990">
        <ele>517</ele>
        <time>2022-12-04T00:20:01Z</time>
      </trkpt>
      <trkpt lat="40.208930" lon="-6.814910">
        <ele>518</ele>
        <time>2022-12-04T00:20:14Z</time>
      </trkpt>
      <trkpt lat="40.208960" lon="-6.815080">
        <ele>518</ele>
        <time>2022-12-04T00:20:17Z</time>
      </trkpt>
      <trkpt lat="40.208950" lon="-6.815290">
        <ele>518</ele>
        <time>2022-12-04T00:20:20Z</time>
      </trkpt>
      <trkpt lat="40.209010" lon="-6.815760">
        <ele>519</ele>
        <time>2022-12-04T00:20:26Z</time>
      </trkpt>
      <trkpt lat="40.209070" lon="-6.815920">
        <ele>520</ele>
        <time>2022-12-04T00:20:29Z</time>
      </trkpt>
      <trkpt lat="40.210330" lon="-6.817540">
        <ele>523</ele>
        <time>2022-12-04T00:21:00Z</time>
      </trkpt>
      <trkpt lat="40.209910" lon="-6.818980">
        <ele>520</ele>
        <time>2022-12-04T00:21:21Z</time>
      </trkpt>
      <trkpt lat="40.209760" lon="-6.819420">
        <ele>521</ele>
        <time>2022-12-04T00:21:28Z</time>
      </trkpt>
      <trkpt lat="40.209660" lon="-6.819990">
        <ele>521</ele>
        <time>2022-12-04T00:21:35Z</time>
      </trkpt>
      <trkpt lat="40.209220" lon="-6.824430">
        <ele>491</ele>
        <time>2022-12-04T00:22:36Z</time>
      </trkpt>
      <trkpt lat="40.209070" lon="-6.826680">
        <ele>480</ele>
        <time>2022-12-04T00:23:07Z</time>
      </trkpt>
      <trkpt lat="40.209040" lon="-6.827040">
        <ele>479</ele>
        <time>2022-12-04T00:23:12Z</time>
      </trkpt>
      <trkpt lat="40.208960" lon="-6.827320">
        <ele>479</ele>
        <time>2022-12-04T00:23:16Z</time>
      </trkpt>
      <trkpt lat="40.208710" lon="-6.827980">
        <ele>478</ele>
        <time>2022-12-04T00:23:26Z</time>
      </trkpt>
      <trkpt lat="40.208380" lon="-6.828690">
        <ele>475</ele>
        <time>2022-12-04T00:23:37Z</time>
      </trkpt>
      <trkpt lat="40.208200" lon="-6.829220">
        <ele>475</ele>
        <time>2022-12-04T00:23:45Z</time>
      </trkpt>
      <trkpt lat="40.207970" lon="-6.829810">
        <ele>473</ele>
        <time>2022-12-04T00:23:54Z</time>
      </trkpt>
      <trkpt lat="40.207890" lon="-6.830110">
        <ele>473</ele>
        <time>2022-12-04T00:23:58Z</time>
      </trkpt>
      <trkpt lat="40.207860" lon="-6.830630">
        <ele>473</ele>
        <time>2022-12-04T00:24:06Z</time>
      </trkpt>
      <trkpt lat="40.207820" lon="-6.833130">
        <ele>470</ele>
        <time>2022-12-04T00:24:40Z</time>
      </trkpt>
      <trkpt lat="40.207790" lon="-6.833490">
        <ele>469</ele>
        <time>2022-12-04T00:24:44Z</time>
      </trkpt>
      <trkpt lat="40.207660" lon="-6.833980">
        <ele>468</ele>
        <time>2022-12-04T00:24:52Z</time>
      </trkpt>
      <trkpt lat="40.207390" lon="-6.834850">
        <ele>464</ele>
        <time>2022-12-04T00:25:04Z</time>
      </trkpt>
      <trkpt lat="40.207300" lon="-6.835330">
        <ele>462</ele>
        <time>2022-12-04T00:25:11Z</time>
      </trkpt>
      <trkpt lat="40.207270" lon="-6.836020">
        <ele>461</ele>
        <time>2022-12-04T00:25:20Z</time>
      </trkpt>
      <trkpt lat="40.207280" lon="-6.837660">
        <ele>460</ele>
        <time>2022-12-04T00:25:43Z</time>
      </trkpt>
      <trkpt lat="40.207310" lon="-6.838490">
        <ele>460</ele>
        <time>2022-12-04T00:25:54Z</time>
      </trkpt>
      <trkpt lat="40.207250" lon="-6.838940">
        <ele>461</ele>
        <time>2022-12-04T00:26:00Z</time>
      </trkpt>
      <trkpt lat="40.206970" lon="-6.840260">
        <ele>460</ele>
        <time>2022-12-04T00:26:19Z</time>
      </trkpt>
      <trkpt lat="40.206680" lon="-6.841810">
        <ele>454</ele>
        <time>2022-12-04T00:26:40Z</time>
      </trkpt>
      <trkpt lat="40.206660" lon="-6.842050">
        <ele>453</ele>
        <time>2022-12-04T00:26:44Z</time>
      </trkpt>
      <trkpt lat="40.206640" lon="-6.842730">
        <ele>450</ele>
        <time>2022-12-04T00:26:53Z</time>
      </trkpt>
      <trkpt lat="40.206570" lon="-6.843180">
        <ele>449</ele>
        <time>2022-12-04T00:26:59Z</time>
      </trkpt>
      <trkpt lat="40.206440" lon="-6.843630">
        <ele>447</ele>
        <time>2022-12-04T00:27:06Z</time>
      </trkpt>
      <trkpt lat="40.205860" lon="-6.845370">
        <ele>444</ele>
        <time>2022-12-04T00:27:32Z</time>
      </trkpt>
      <trkpt lat="40.205720" lon="-6.845820">
        <ele>444</ele>
        <time>2022-12-04T00:27:38Z</time>
      </trkpt>
      <trkpt lat="40.205670" lon="-6.846050">
        <ele>443</ele>
        <time>2022-12-04T00:27:41Z</time>
      </trkpt>
      <trkpt lat="40.205630" lon="-6.846460">
        <ele>443</ele>
        <time>2022-12-04T00:27:47Z</time>
      </trkpt>
      <trkpt lat="40.205620" lon="-6.846730">
        <ele>443</ele>
        <time>2022-12-04T00:27:51Z</time>
      </trkpt>
      <trkpt lat="40.205670" lon="-6.847580">
        <ele>443</ele>
        <time>2022-12-04T00:28:02Z</time>
      </trkpt>
      <trkpt lat="40.205640" lon="-6.847670">
        <ele>442</ele>
        <time>2022-12-04T00:28:04Z</time>
      </trkpt>
      <trkpt lat="40.205740" lon="-6.848800">
        <ele>441</ele>
        <time>2022-12-04T00:28:19Z</time>
      </trkpt>
      <trkpt lat="40.205740" lon="-6.849020">
        <ele>440</ele>
        <time>2022-12-04T00:28:22Z</time>
      </trkpt>
      <trkpt lat="40.205660" lon="-6.849160">
        <ele>440</ele>
        <time>2022-12-04T00:28:24Z</time>
      </trkpt>
      <trkpt lat="40.205250" lon="-6.849610">
        <ele>440</ele>
        <time>2022-12-04T00:28:34Z</time>
      </trkpt>
      <trkpt lat="40.205130" lon="-6.849720">
        <ele>440</ele>
        <time>2022-12-04T00:28:37Z</time>
      </trkpt>
      <trkpt lat="40.204570" lon="-6.850140">
        <ele>440</ele>
        <time>2022-12-04T00:28:48Z</time>
      </trkpt>
      <trkpt lat="40.204490" lon="-6.850230">
        <ele>440</ele>
        <time>2022-12-04T00:28:50Z</time>
      </trkpt>
      <trkpt lat="40.204140" lon="-6.850960">
        <ele>439</ele>
        <time>2022-12-04T00:29:02Z</time>
      </trkpt>
      <trkpt lat="40.204090" lon="-6.851090">
        <ele>439</ele>
        <time>2022-12-04T00:29:04Z</time>
      </trkpt>
      <trkpt lat="40.204050" lon="-6.851250">
        <ele>439</ele>
        <time>2022-12-04T00:29:06Z</time>
      </trkpt>
      <trkpt lat="40.204010" lon="-6.851600">
        <ele>438</ele>
        <time>2022-12-04T00:29:11Z</time>
      </trkpt>
      <trkpt lat="40.203940" lon="-6.853190">
        <ele>437</ele>
        <time>2022-12-04T00:29:32Z</time>
      </trkpt>
      <trkpt lat="40.204130" lon="-6.855280">
        <ele>435</ele>
        <time>2022-12-04T00:30:01Z</time>
      </trkpt>
      <trkpt lat="40.204210" lon="-6.856500">
        <ele>432</ele>
        <time>2022-12-04T00:30:18Z</time>
      </trkpt>
      <trkpt lat="40.204150" lon="-6.857340">
        <ele>431</ele>
        <time>2022-12-04T00:30:29Z</time>
      </trkpt>
      <trkpt lat="40.203850" lon="-6.860740">
        <ele>426</ele>
        <time>2022-12-04T00:31:16Z</time>
      </trkpt>
      <trkpt lat="40.203550" lon="-6.862490">
        <ele>421</ele>
        <time>2022-12-04T00:31:40Z</time>
      </trkpt>
      <trkpt lat="40.203470" lon="-6.862960">
        <ele>421</ele>
        <time>2022-12-04T00:31:47Z</time>
      </trkpt>
      <trkpt lat="40.203400" lon="-6.863240">
        <ele>422</ele>
        <time>2022-12-04T00:31:51Z</time>
      </trkpt>
      <trkpt lat="40.203320" lon="-6.863440">
        <ele>422</ele>
        <time>2022-12-04T00:31:54Z</time>
      </trkpt>
      <trkpt lat="40.202130" lon="-6.866100">
        <ele>421</ele>
        <time>2022-12-04T00:32:35Z</time>
      </trkpt>
      <trkpt lat="40.202460" lon="-6.866330">
        <ele>420</ele>
        <time>2022-12-04T00:32:42Z</time>
      </trkpt>
      <trkpt lat="40.203520" lon="-6.867310">
        <ele>418</ele>
        <time>2022-12-04T00:33:05Z</time>
      </trkpt>
      <trkpt lat="40.203750" lon="-6.867440">
        <ele>418</ele>
        <time>2022-12-04T00:33:10Z</time>
      </trkpt>
      <trkpt lat="40.203990" lon="-6.867530">
        <ele>418</ele>
        <time>2022-12-04T00:33:14Z</time>
      </trkpt>
      <trkpt lat="40.204130" lon="-6.867560">
        <ele>418</ele>
        <time>2022-12-04T00:33:17Z</time>
      </trkpt>
      <trkpt lat="40.204450" lon="-6.867530">
        <ele>416</ele>
        <time>2022-12-04T00:33:22Z</time>
      </trkpt>
      <trkpt lat="40.204620" lon="-6.867470">
        <ele>415</ele>
        <time>2022-12-04T00:33:25Z</time>
      </trkpt>
      <trkpt lat="40.205310" lon="-6.867110">
        <ele>413</ele>
        <time>2022-12-04T00:33:39Z</time>
      </trkpt>
      <trkpt lat="40.205420" lon="-6.867070">
        <ele>412</ele>
        <time>2022-12-04T00:33:41Z</time>
      </trkpt>
      <trkpt lat="40.205650" lon="-6.867040">
        <ele>411</ele>
        <time>2022-12-04T00:33:45Z</time>
      </trkpt>
      <trkpt lat="40.205780" lon="-6.867050">
        <ele>411</ele>
        <time>2022-12-04T00:33:47Z</time>
      </trkpt>
      <trkpt lat="40.206050" lon="-6.867120">
        <ele>411</ele>
        <time>2022-12-04T00:33:52Z</time>
      </trkpt>
      <trkpt lat="40.208850" lon="-6.868130">
        <ele>419</ele>
        <time>2022-12-04T00:34:44Z</time>
      </trkpt>
      <trkpt lat="40.209130" lon="-6.868250">
        <ele>419</ele>
        <time>2022-12-04T00:34:49Z</time>
      </trkpt>
      <trkpt lat="40.209400" lon="-6.868440">
        <ele>418</ele>
        <time>2022-12-04T00:34:54Z</time>
      </trkpt>
      <trkpt lat="40.209730" lon="-6.868740">
        <ele>417</ele>
        <time>2022-12-04T00:35:02Z</time>
      </trkpt>
      <trkpt lat="40.210130" lon="-6.869180">
        <ele>417</ele>
        <time>2022-12-04T00:35:11Z</time>
      </trkpt>
      <trkpt lat="40.210220" lon="-6.869300">
        <ele>418</ele>
        <time>2022-12-04T00:35:13Z</time>
      </trkpt>
      <trkpt lat="40.210350" lon="-6.869590">
        <ele>420</ele>
        <time>2022-12-04T00:35:18Z</time>
      </trkpt>
      <trkpt lat="40.210420" lon="-6.869960">
        <ele>423</ele>
        <time>2022-12-04T00:35:23Z</time>
      </trkpt>
      <trkpt lat="40.210460" lon="-6.870600">
        <ele>426</ele>
        <time>2022-12-04T00:35:32Z</time>
      </trkpt>
      <trkpt lat="40.210550" lon="-6.870940">
        <ele>427</ele>
        <time>2022-12-04T00:35:37Z</time>
      </trkpt>
      <trkpt lat="40.210600" lon="-6.871090">
        <ele>427</ele>
        <time>2022-12-04T00:35:39Z</time>
      </trkpt>
      <trkpt lat="40.210690" lon="-6.871260">
        <ele>427</ele>
        <time>2022-12-04T00:35:42Z</time>
      </trkpt>
      <trkpt lat="40.210910" lon="-6.871510">
        <ele>428</ele>
        <time>2022-12-04T00:35:47Z</time>
      </trkpt>
      <trkpt lat="40.212370" lon="-6.872700">
        <ele>439</ele>
        <time>2022-12-04T00:36:17Z</time>
      </trkpt>
      <trkpt lat="40.212540" lon="-6.872880">
        <ele>440</ele>
        <time>2022-12-04T00:36:21Z</time>
      </trkpt>
      <trkpt lat="40.213020" lon="-6.873490">
        <ele>442</ele>
        <time>2022-12-04T00:36:33Z</time>
      </trkpt>
      <trkpt lat="40.213140" lon="-6.873590">
        <ele>442</ele>
        <time>2022-12-04T00:36:36Z</time>
      </trkpt>
      <trkpt lat="40.213270" lon="-6.873670">
        <ele>442</ele>
        <time>2022-12-04T00:36:38Z</time>
      </trkpt>
      <trkpt lat="40.213410" lon="-6.873730">
        <ele>442</ele>
        <time>2022-12-04T00:36:41Z</time>
      </trkpt>
      <trkpt lat="40.213880" lon="-6.873850">
        <ele>444</ele>
        <time>2022-12-04T00:36:49Z</time>
      </trkpt>
      <trkpt lat="40.214080" lon="-6.873930">
        <ele>446</ele>
        <time>2022-12-04T00:36:53Z</time>
      </trkpt>
      <trkpt lat="40.214270" lon="-6.874050">
        <ele>447</ele>
        <time>2022-12-04T00:36:57Z</time>
      </trkpt>
      <trkpt lat="40.215720" lon="-6.875360">
        <ele>454</ele>
        <time>2022-12-04T00:37:28Z</time>
      </trkpt>
      <trkpt lat="40.216570" lon="-6.875770">
        <ele>457</ele>
        <time>2022-12-04T00:37:44Z</time>
      </trkpt>
      <trkpt lat="40.216840" lon="-6.875930">
        <ele>458</ele>
        <time>2022-12-04T00:37:50Z</time>
      </trkpt>
      <trkpt lat="40.217280" lon="-6.876310">
        <ele>460</ele>
        <time>2022-12-04T00:37:59Z</time>
      </trkpt>
      <trkpt lat="40.217360" lon="-6.876390">
        <ele>461</ele>
        <time>2022-12-04T00:38:01Z</time>
      </trkpt>
      <trkpt lat="40.217520" lon="-6.876630">
        <ele>461</ele>
        <time>2022-12-04T00:38:05Z</time>
      </trkpt>
      <trkpt lat="40.218520" lon="-6.878290">
        <ele>467</ele>
        <time>2022-12-04T00:38:34Z</time>
      </trkpt>
      <trkpt lat="40.218700" lon="-6.878560">
        <ele>469</ele>
        <time>2022-12-04T00:38:39Z</time>
      </trkpt>
      <trkpt lat="40.218940" lon="-6.878750">
        <ele>471</ele>
        <time>2022-12-04T00:38:44Z</time>
      </trkpt>
      <trkpt lat="40.219140" lon="-6.878840">
        <ele>473</ele>
        <time>2022-12-04T00:38:47Z</time>
      </trkpt>
      <trkpt lat="40.219190" lon="-6.878900">
        <ele>473</ele>
        <time>2022-12-04T00:38:49Z</time>
      </trkpt>
      <trkpt lat="40.219370" lon="-6.878890">
        <ele>473</ele>
        <time>2022-12-04T00:38:52Z</time>
      </trkpt>
      <trkpt lat="40.220260" lon="-6.879100">
        <ele>476</ele>
        <time>2022-12-04T00:39:08Z</time>
      </trkpt>
      <trkpt lat="40.220540" lon="-6.879190">
        <ele>478</ele>
        <time>2022-12-04T00:39:13Z</time>
      </trkpt>
      <trkpt lat="40.222290" lon="-6.878760">
        <ele>480</ele>
        <time>2022-12-04T00:39:45Z</time>
      </trkpt>
      <trkpt lat="40.222360" lon="-6.878730">
        <ele>480</ele>
        <time>2022-12-04T00:39:46Z</time>
      </trkpt>
      <trkpt lat="40.222560" lon="-6.878710">
        <ele>480</ele>
        <time>2022-12-04T00:39:50Z</time>
      </trkpt>
      <trkpt lat="40.222790" lon="-6.878680">
        <ele>481</ele>
        <time>2022-12-04T00:39:54Z</time>
      </trkpt>
      <trkpt lat="40.223410" lon="-6.878620">
        <ele>483</ele>
        <time>2022-12-04T00:40:05Z</time>
      </trkpt>
      <trkpt lat="40.224370" lon="-6.878690">
        <ele>491</ele>
        <time>2022-12-04T00:40:22Z</time>
      </trkpt>
      <trkpt lat="40.224430" lon="-6.878690">
        <ele>491</ele>
        <time>2022-12-04T00:40:23Z</time>
      </trkpt>
      <trkpt lat="40.224500" lon="-6.878630">
        <ele>491</ele>
        <time>2022-12-04T00:40:24Z</time>
      </trkpt>
      <trkpt lat="40.224610" lon="-6.878790">
        <ele>492</ele>
        <time>2022-12-04T00:40:27Z</time>
      </trkpt>
      <trkpt lat="40.224640" lon="-6.878770">
        <ele>492</ele>
        <time>2022-12-04T00:40:28Z</time>
      </trkpt>
      <trkpt lat="40.224810" lon="-6.878720">
        <ele>493</ele>
        <time>2022-12-04T00:40:31Z</time>
      </trkpt>
      <trkpt lat="40.224860" lon="-6.878670">
        <ele>493</ele>
        <time>2022-12-04T00:40:32Z</time>
      </trkpt>
      <trkpt lat="40.225030" lon="-6.878630">
        <ele>493</ele>
        <time>2022-12-04T00:40:35Z</time>
      </trkpt>
      <trkpt lat="40.225200" lon="-6.878670">
        <ele>494</ele>
        <time>2022-12-04T00:40:38Z</time>
      </trkpt>
      <trkpt lat="40.225250" lon="-6.878650">
        <ele>494</ele>
        <time>2022-12-04T00:40:39Z</time>
      </trkpt>
      <trkpt lat="40.225670" lon="-6.878640">
        <ele>496</ele>
        <time>2022-12-04T00:40:47Z</time>
      </trkpt>
      <trkpt lat="40.225830" lon="-6.878690">
        <ele>497</ele>
        <time>2022-12-04T00:40:50Z</time>
      </trkpt>
      <trkpt lat="40.225810" lon="-6.878810">
        <ele>497</ele>
        <time>2022-12-04T00:40:51Z</time>
      </trkpt>
      <trkpt lat="40.225850" lon="-6.878850">
        <ele>497</ele>
        <time>2022-12-04T00:40:52Z</time>
      </trkpt>
      <trkpt lat="40.226080" lon="-6.878870">
        <ele>498</ele>
        <time>2022-12-04T00:40:56Z</time>
      </trkpt>
      <trkpt lat="40.226280" lon="-6.878940">
        <ele>499</ele>
        <time>2022-12-04T00:41:00Z</time>
      </trkpt>
      <trkpt lat="40.226440" lon="-6.879030">
        <ele>499</ele>
        <time>2022-12-04T00:41:03Z</time>
      </trkpt>
      <trkpt lat="40.226640" lon="-6.879080">
        <ele>500</ele>
        <time>2022-12-04T00:41:07Z</time>
      </trkpt>
      <trkpt lat="40.226660" lon="-6.879200">
        <ele>500</ele>
        <time>2022-12-04T00:41:08Z</time>
      </trkpt>
      <trkpt lat="40.226920" lon="-6.879230">
        <ele>502</ele>
        <time>2022-12-04T00:41:13Z</time>
      </trkpt>
      <trkpt lat="40.227220" lon="-6.879480">
        <ele>504</ele>
        <time>2022-12-04T00:41:19Z</time>
      </trkpt>
      <trkpt lat="40.227490" lon="-6.879480">
        <ele>506</ele>
        <time>2022-12-04T00:41:24Z</time>
      </trkpt>
      <trkpt lat="40.227970" lon="-6.879940">
        <ele>512</ele>
        <time>2022-12-04T00:41:35Z</time>
      </trkpt>
      <trkpt lat="40.228580" lon="-6.880120">
        <ele>521</ele>
        <time>2022-12-04T00:41:46Z</time>
      </trkpt>
      <trkpt lat="40.228880" lon="-6.880320">
        <ele>527</ele>
        <time>2022-12-04T00:41:52Z</time>
      </trkpt>
      <trkpt lat="40.228880" lon="-6.880390">
        <ele>528</ele>
        <time>2022-12-04T00:41:53Z</time>
      </trkpt>
      <trkpt lat="40.228800" lon="-6.880670">
        <ele>531</ele>
        <time>2022-12-04T00:41:57Z</time>
      </trkpt>
      <trkpt lat="40.228340" lon="-6.881490">
        <ele>540</ele>
        <time>2022-12-04T00:42:11Z</time>
      </trkpt>
      <trkpt lat="40.228230" lon="-6.881730">
        <ele>542</ele>
        <time>2022-12-04T00:42:15Z</time>
      </trkpt>
      <trkpt lat="40.228160" lon="-6.881990">
        <ele>545</ele>
        <time>2022-12-04T00:42:18Z</time>
      </trkpt>
      <trkpt lat="40.228070" lon="-6.882410">
        <ele>549</ele>
        <time>2022-12-04T00:42:24Z</time>
      </trkpt>
      <trkpt lat="40.227980" lon="-6.882590">
        <ele>550</ele>
        <time>2022-12-04T00:42:27Z</time>
      </trkpt>
      <trkpt lat="40.228130" lon="-6.882540">
        <ele>551</ele>
        <time>2022-12-04T00:42:30Z</time>
      </trkpt>
      <trkpt lat="40.228160" lon="-6.882470">
        <ele>551</ele>
        <time>2022-12-04T00:42:31Z</time>
      </trkpt>
      <trkpt lat="40.228210" lon="-6.882290">
        <ele>549</ele>
        <time>2022-12-04T00:42:34Z</time>
      </trkpt>
      <trkpt lat="40.228310" lon="-6.882100">
        <ele>548</ele>
        <time>2022-12-04T00:42:37Z</time>
      </trkpt>
      <trkpt lat="40.228600" lon="-6.881830">
        <ele>549</ele>
        <time>2022-12-04T00:42:43Z</time>
      </trkpt>
      <trkpt lat="40.228750" lon="-6.881740">
        <ele>550</ele>
        <time>2022-12-04T00:42:46Z</time>
      </trkpt>
      <trkpt lat="40.229260" lon="-6.881540">
        <ele>554</ele>
        <time>2022-12-04T00:42:55Z</time>
      </trkpt>
      <trkpt lat="40.229460" lon="-6.881520">
        <ele>554</ele>
        <time>2022-12-04T00:42:59Z</time>
      </trkpt>
      <trkpt lat="40.229620" lon="-6.881560">
        <ele>556</ele>
        <time>2022-12-04T00:43:02Z</time>
      </trkpt>
      <trkpt lat="40.229910" lon="-6.881740">
        <ele>561</ele>
        <time>2022-12-04T00:43:08Z</time>
      </trkpt>
      <trkpt lat="40.230070" lon="-6.881810">
        <ele>563</ele>
        <time>2022-12-04T00:43:11Z</time>
      </trkpt>
      <trkpt lat="40.230200" lon="-6.881850">
        <ele>564</ele>
        <time>2022-12-04T00:43:13Z</time>
      </trkpt>
      <trkpt lat="40.231060" lon="-6.881900">
        <ele>575</ele>
        <time>2022-12-04T00:43:28Z</time>
      </trkpt>
      <trkpt lat="40.230220" lon="-6.882270">
        <ele>569</ele>
        <time>2022-12-04T00:43:44Z</time>
      </trkpt>
      <trkpt lat="40.230060" lon="-6.882380">
        <ele>569</ele>
        <time>2022-12-04T00:43:47Z</time>
      </trkpt>
      <trkpt lat="40.230220" lon="-6.882270">
        <ele>569</ele>
        <time>2022-12-04T00:43:51Z</time>
      </trkpt>
      <trkpt lat="40.231300" lon="-6.881790">
        <ele>578</ele>
        <time>2022-12-04T00:44:11Z</time>
      </trkpt>
      <trkpt lat="40.231660" lon="-6.881550">
        <ele>582</ele>
        <time>2022-12-04T00:44:18Z</time>
      </trkpt>
      <trkpt lat="40.231850" lon="-6.881410">
        <ele>585</ele>
        <time>2022-12-04T00:44:22Z</time>
      </trkpt>
      <trkpt lat="40.232320" lon="-6.880920">
        <ele>591</ele>
        <time>2022-12-04T00:44:33Z</time>
      </trkpt>
      <trkpt lat="40.234020" lon="-6.878890">
        <ele>604</ele>
        <time>2022-12-04T00:45:13Z</time>
      </trkpt>
      <trkpt lat="40.234240" lon="-6.878520">
        <ele>604</ele>
        <time>2022-12-04T00:45:20Z</time>
      </trkpt>
      <trkpt lat="40.234420" lon="-6.878060">
        <ele>605</ele>
        <time>2022-12-04T00:45:27Z</time>
      </trkpt>
      <trkpt lat="40.234490" lon="-6.877820">
        <ele>607</ele>
        <time>2022-12-04T00:45:30Z</time>
      </trkpt>
      <trkpt lat="40.234560" lon="-6.877250">
        <ele>608</ele>
        <time>2022-12-04T00:45:38Z</time>
      </trkpt>
      <trkpt lat="40.234660" lon="-6.875940">
        <ele>604</ele>
        <time>2022-12-04T00:45:56Z</time>
      </trkpt>
      <trkpt lat="40.234700" lon="-6.875800">
        <ele>604</ele>
        <time>2022-12-04T00:45:58Z</time>
      </trkpt>
      <trkpt lat="40.234830" lon="-6.875580">
        <ele>605</ele>
        <time>2022-12-04T00:46:02Z</time>
      </trkpt>
      <trkpt lat="40.234920" lon="-6.875520">
        <ele>607</ele>
        <time>2022-12-04T00:46:04Z</time>
      </trkpt>
      <trkpt lat="40.235010" lon="-6.875480">
        <ele>609</ele>
        <time>2022-12-04T00:46:05Z</time>
      </trkpt>
      <trkpt lat="40.235190" lon="-6.875480">
        <ele>615</ele>
        <time>2022-12-04T00:46:09Z</time>
      </trkpt>
      <trkpt lat="40.235290" lon="-6.875520">
        <ele>618</ele>
        <time>2022-12-04T00:46:10Z</time>
      </trkpt>
      <trkpt lat="40.235370" lon="-6.875580">
        <ele>622</ele>
        <time>2022-12-04T00:46:12Z</time>
      </trkpt>
      <trkpt lat="40.235480" lon="-6.875750">
        <ele>627</ele>
        <time>2022-12-04T00:46:15Z</time>
      </trkpt>
      <trkpt lat="40.235520" lon="-6.875870">
        <ele>629</ele>
        <time>2022-12-04T00:46:17Z</time>
      </trkpt>
      <trkpt lat="40.235540" lon="-6.875990">
        <ele>630</ele>
        <time>2022-12-04T00:46:19Z</time>
      </trkpt>
      <trkpt lat="40.235530" lon="-6.876130">
        <ele>630</ele>
        <time>2022-12-04T00:46:20Z</time>
      </trkpt>
      <trkpt lat="40.235470" lon="-6.876530">
        <ele>630</ele>
        <time>2022-12-04T00:46:26Z</time>
      </trkpt>
      <trkpt lat="40.235460" lon="-6.876850">
        <ele>631</ele>
        <time>2022-12-04T00:46:30Z</time>
      </trkpt>
      <trkpt lat="40.235500" lon="-6.877200">
        <ele>633</ele>
        <time>2022-12-04T00:46:35Z</time>
      </trkpt>
      <trkpt lat="40.235560" lon="-6.877490">
        <ele>636</ele>
        <time>2022-12-04T00:46:39Z</time>
      </trkpt>
      <trkpt lat="40.235590" lon="-6.877800">
        <ele>636</ele>
        <time>2022-12-04T00:46:43Z</time>
      </trkpt>
      <trkpt lat="40.235560" lon="-6.878140">
        <ele>633</ele>
        <time>2022-12-04T00:46:48Z</time>
      </trkpt>
      <trkpt lat="40.235520" lon="-6.878310">
        <ele>631</ele>
        <time>2022-12-04T00:46:51Z</time>
      </trkpt>
      <trkpt lat="40.235470" lon="-6.878460">
        <ele>631</ele>
        <time>2022-12-04T00:46:53Z</time>
      </trkpt>
      <trkpt lat="40.235270" lon="-6.878800">
        <ele>630</ele>
        <time>2022-12-04T00:46:59Z</time>
      </trkpt>
      <trkpt lat="40.235060" lon="-6.879000">
        <ele>629</ele>
        <time>2022-12-04T00:47:03Z</time>
      </trkpt>
      <trkpt lat="40.234590" lon="-6.879250">
        <ele>623</ele>
        <time>2022-12-04T00:47:12Z</time>
      </trkpt>
      <trkpt lat="40.234370" lon="-6.879470">
        <ele>623</ele>
        <time>2022-12-04T00:47:17Z</time>
      </trkpt>
      <trkpt lat="40.234270" lon="-6.879610">
        <ele>624</ele>
        <time>2022-12-04T00:47:20Z</time>
      </trkpt>
      <trkpt lat="40.234120" lon="-6.879920">
        <ele>627</ele>
        <time>2022-12-04T00:47:25Z</time>
      </trkpt>
      <trkpt lat="40.234070" lon="-6.880120">
        <ele>629</ele>
        <time>2022-12-04T00:47:28Z</time>
      </trkpt>
      <trkpt lat="40.234030" lon="-6.880310">
        <ele>630</ele>
        <time>2022-12-04T00:47:30Z</time>
      </trkpt>
      <trkpt lat="40.234020" lon="-6.880520">
        <ele>633</ele>
        <time>2022-12-04T00:47:33Z</time>
      </trkpt>
      <trkpt lat="40.234030" lon="-6.880690">
        <ele>636</ele>
        <time>2022-12-04T00:47:35Z</time>
      </trkpt>
      <trkpt lat="40.234050" lon="-6.880880">
        <ele>638</ele>
        <time>2022-12-04T00:47:38Z</time>
      </trkpt>
      <trkpt lat="40.234090" lon="-6.881050">
        <ele>640</ele>
        <time>2022-12-04T00:47:40Z</time>
      </trkpt>
      <trkpt lat="40.234210" lon="-6.881360">
        <ele>642</ele>
        <time>2022-12-04T00:47:45Z</time>
      </trkpt>
      <trkpt lat="40.234300" lon="-6.881510">
        <ele>644</ele>
        <time>2022-12-04T00:47:48Z</time>
      </trkpt>
      <trkpt lat="40.234520" lon="-6.881750">
        <ele>646</ele>
        <time>2022-12-04T00:47:53Z</time>
      </trkpt>
      <trkpt lat="40.234640" lon="-6.881840">
        <ele>647</ele>
        <time>2022-12-04T00:47:55Z</time>
      </trkpt>
      <trkpt lat="40.234760" lon="-6.881910">
        <ele>647</ele>
        <time>2022-12-04T00:47:58Z</time>
      </trkpt>
      <trkpt lat="40.234900" lon="-6.881960">
        <ele>649</ele>
        <time>2022-12-04T00:48:00Z</time>
      </trkpt>
      <trkpt lat="40.235180" lon="-6.882000">
        <ele>650</ele>
        <time>2022-12-04T00:48:05Z</time>
      </trkpt>
      <trkpt lat="40.235990" lon="-6.881910">
        <ele>654</ele>
        <time>2022-12-04T00:48:20Z</time>
      </trkpt>
      <trkpt lat="40.236170" lon="-6.881950">
        <ele>653</ele>
        <time>2022-12-04T00:48:23Z</time>
      </trkpt>
      <trkpt lat="40.236470" lon="-6.882090">
        <ele>651</ele>
        <time>2022-12-04T00:48:29Z</time>
      </trkpt>
      <trkpt lat="40.236690" lon="-6.882130">
        <ele>651</ele>
        <time>2022-12-04T00:48:33Z</time>
      </trkpt>
      <trkpt lat="40.236800" lon="-6.882120">
        <ele>651</ele>
        <time>2022-12-04T00:48:35Z</time>
      </trkpt>
      <trkpt lat="40.237010" lon="-6.882050">
        <ele>652</ele>
        <time>2022-12-04T00:48:38Z</time>
      </trkpt>
      <trkpt lat="40.237290" lon="-6.881860">
        <ele>656</ele>
        <time>2022-12-04T00:48:44Z</time>
      </trkpt>
      <trkpt lat="40.237800" lon="-6.881690">
        <ele>661</ele>
        <time>2022-12-04T00:48:53Z</time>
      </trkpt>
      <trkpt lat="40.237990" lon="-6.881700">
        <ele>662</ele>
        <time>2022-12-04T00:48:57Z</time>
      </trkpt>
      <trkpt lat="40.238430" lon="-6.881790">
        <ele>662</ele>
        <time>2022-12-04T00:49:05Z</time>
      </trkpt>
      <trkpt lat="40.238900" lon="-6.881800">
        <ele>665</ele>
        <time>2022-12-04T00:49:13Z</time>
      </trkpt>
      <trkpt lat="40.239230" lon="-6.881760">
        <ele>667</ele>
        <time>2022-12-04T00:49:19Z</time>
      </trkpt>
      <trkpt lat="40.239480" lon="-6.881700">
        <ele>669</ele>
        <time>2022-12-04T00:49:24Z</time>
      </trkpt>
      <trkpt lat="40.239730" lon="-6.881580">
        <ele>672</ele>
        <time>2022-12-04T00:49:28Z</time>
      </trkpt>
      <trkpt lat="40.239990" lon="-6.881390">
        <ele>677</ele>
        <time>2022-12-04T00:49:34Z</time>
      </trkpt>
      <trkpt lat="40.240130" lon="-6.881350">
        <ele>680</ele>
        <time>2022-12-04T00:49:36Z</time>
      </trkpt>
      <trkpt lat="40.240560" lon="-6.881420">
        <ele>684</ele>
        <time>2022-12-04T00:49:44Z</time>
      </trkpt>
      <trkpt lat="40.240700" lon="-6.881520">
        <ele>684</ele>
        <time>2022-12-04T00:49:47Z</time>
      </trkpt>
      <trkpt lat="40.240770" lon="-6.881670">
        <ele>683</ele>
        <time>2022-12-04T00:49:49Z</time>
      </trkpt>
      <trkpt lat="40.240810" lon="-6.882190">
        <ele>678</ele>
        <time>2022-12-04T00:49:56Z</time>
      </trkpt>
      <trkpt lat="40.240870" lon="-6.882370">
        <ele>678</ele>
        <time>2022-12-04T00:49:59Z</time>
      </trkpt>
      <trkpt lat="40.241480" lon="-6.882820">
        <ele>681</ele>
        <time>2022-12-04T00:50:11Z</time>
      </trkpt>
      <trkpt lat="40.241590" lon="-6.882870">
        <ele>682</ele>
        <time>2022-12-04T00:50:13Z</time>
      </trkpt>
      <trkpt lat="40.241770" lon="-6.882920">
        <ele>684</ele>
        <time>2022-12-04T00:50:17Z</time>
      </trkpt>
      <trkpt lat="40.241970" lon="-6.882870">
        <ele>686</ele>
        <time>2022-12-04T00:50:20Z</time>
      </trkpt>
      <trkpt lat="40.242290" lon="-6.882640">
        <ele>691</ele>
        <time>2022-12-04T00:50:27Z</time>
      </trkpt>
      <trkpt lat="40.242490" lon="-6.882450">
        <ele>694</ele>
        <time>2022-12-04T00:50:31Z</time>
      </trkpt>
      <trkpt lat="40.243030" lon="-6.881690">
        <ele>706</ele>
        <time>2022-12-04T00:50:45Z</time>
      </trkpt>
      <trkpt lat="40.243100" lon="-6.881640">
        <ele>706</ele>
        <time>2022-12-04T00:50:47Z</time>
      </trkpt>
      <trkpt lat="40.243180" lon="-6.881600">
        <ele>706</ele>
        <time>2022-12-04T00:50:48Z</time>
      </trkpt>
      <trkpt lat="40.243350" lon="-6.881590">
        <ele>706</ele>
        <time>2022-12-04T00:50:51Z</time>
      </trkpt>
      <trkpt lat="40.243510" lon="-6.881670">
        <ele>706</ele>
        <time>2022-12-04T00:50:54Z</time>
      </trkpt>
      <trkpt lat="40.243660" lon="-6.881830">
        <ele>708</ele>
        <time>2022-12-04T00:50:58Z</time>
      </trkpt>
      <trkpt lat="40.243720" lon="-6.881960">
        <ele>709</ele>
        <time>2022-12-04T00:51:00Z</time>
      </trkpt>
      <trkpt lat="40.243750" lon="-6.882080">
        <ele>709</ele>
        <time>2022-12-04T00:51:01Z</time>
      </trkpt>
      <trkpt lat="40.243760" lon="-6.882220">
        <ele>709</ele>
        <time>2022-12-04T00:51:03Z</time>
      </trkpt>
      <trkpt lat="40.243740" lon="-6.882360">
        <ele>709</ele>
        <time>2022-12-04T00:51:05Z</time>
      </trkpt>
      <trkpt lat="40.243710" lon="-6.882480">
        <ele>708</ele>
        <time>2022-12-04T00:51:07Z</time>
      </trkpt>
      <trkpt lat="40.243660" lon="-6.882580">
        <ele>708</ele>
        <time>2022-12-04T00:51:09Z</time>
      </trkpt>
      <trkpt lat="40.243460" lon="-6.882800">
        <ele>707</ele>
        <time>2022-12-04T00:51:13Z</time>
      </trkpt>
      <trkpt lat="40.243370" lon="-6.882950">
        <ele>707</ele>
        <time>2022-12-04T00:51:16Z</time>
      </trkpt>
      <trkpt lat="40.243300" lon="-6.883090">
        <ele>708</ele>
        <time>2022-12-04T00:51:18Z</time>
      </trkpt>
      <trkpt lat="40.243100" lon="-6.883710">
        <ele>711</ele>
        <time>2022-12-04T00:51:27Z</time>
      </trkpt>
      <trkpt lat="40.243030" lon="-6.883860">
        <ele>711</ele>
        <time>2022-12-04T00:51:30Z</time>
      </trkpt>
      <trkpt lat="40.242600" lon="-6.884790">
        <ele>713</ele>
        <time>2022-12-04T00:51:44Z</time>
      </trkpt>
      <trkpt lat="40.242440" lon="-6.885050">
        <ele>714</ele>
        <time>2022-12-04T00:51:49Z</time>
      </trkpt>
      <trkpt lat="40.242030" lon="-6.885580">
        <ele>716</ele>
        <time>2022-12-04T00:51:59Z</time>
      </trkpt>
      <trkpt lat="40.241720" lon="-6.886060">
        <ele>716</ele>
        <time>2022-12-04T00:52:08Z</time>
      </trkpt>
      <trkpt lat="40.241640" lon="-6.886310">
        <ele>716</ele>
        <time>2022-12-04T00:52:11Z</time>
      </trkpt>
      <trkpt lat="40.241620" lon="-6.886510">
        <ele>718</ele>
        <time>2022-12-04T00:52:14Z</time>
      </trkpt>
      <trkpt lat="40.241660" lon="-6.886710">
        <ele>720</ele>
        <time>2022-12-04T00:52:17Z</time>
      </trkpt>
      <trkpt lat="40.241770" lon="-6.886950">
        <ele>720</ele>
        <time>2022-12-04T00:52:21Z</time>
      </trkpt>
      <trkpt lat="40.241840" lon="-6.887040">
        <ele>721</ele>
        <time>2022-12-04T00:52:23Z</time>
      </trkpt>
      <trkpt lat="40.242010" lon="-6.887150">
        <ele>723</ele>
        <time>2022-12-04T00:52:26Z</time>
      </trkpt>
      <trkpt lat="40.242250" lon="-6.887240">
        <ele>726</ele>
        <time>2022-12-04T00:52:30Z</time>
      </trkpt>
      <trkpt lat="40.242510" lon="-6.887280">
        <ele>729</ele>
        <time>2022-12-04T00:52:35Z</time>
      </trkpt>
      <trkpt lat="40.242710" lon="-6.887270">
        <ele>730</ele>
        <time>2022-12-04T00:52:39Z</time>
      </trkpt>
      <trkpt lat="40.243060" lon="-6.887130">
        <ele>735</ele>
        <time>2022-12-04T00:52:45Z</time>
      </trkpt>
      <trkpt lat="40.243140" lon="-6.887120">
        <ele>736</ele>
        <time>2022-12-04T00:52:47Z</time>
      </trkpt>
      <trkpt lat="40.243290" lon="-6.887140">
        <ele>737</ele>
        <time>2022-12-04T00:52:49Z</time>
      </trkpt>
      <trkpt lat="40.243520" lon="-6.887220">
        <ele>738</ele>
        <time>2022-12-04T00:52:53Z</time>
      </trkpt>
      <trkpt lat="40.243640" lon="-6.887230">
        <ele>739</ele>
        <time>2022-12-04T00:52:56Z</time>
      </trkpt>
      <trkpt lat="40.243870" lon="-6.887200">
        <ele>741</ele>
        <time>2022-12-04T00:53:00Z</time>
      </trkpt>
      <trkpt lat="40.244080" lon="-6.887130">
        <ele>744</ele>
        <time>2022-12-04T00:53:04Z</time>
      </trkpt>
      <trkpt lat="40.244220" lon="-6.887140">
        <ele>746</ele>
        <time>2022-12-04T00:53:06Z</time>
      </trkpt>
      <trkpt lat="40.244370" lon="-6.887220">
        <ele>747</ele>
        <time>2022-12-04T00:53:09Z</time>
      </trkpt>
      <trkpt lat="40.244440" lon="-6.887290">
        <ele>748</ele>
        <time>2022-12-04T00:53:10Z</time>
      </trkpt>
      <trkpt lat="40.244520" lon="-6.887480">
        <ele>748</ele>
        <time>2022-12-04T00:53:13Z</time>
      </trkpt>
      <trkpt lat="40.244550" lon="-6.887710">
        <ele>748</ele>
        <time>2022-12-04T00:53:17Z</time>
      </trkpt>
      <trkpt lat="40.244430" lon="-6.888360">
        <ele>743</ele>
        <time>2022-12-04T00:53:26Z</time>
      </trkpt>
      <trkpt lat="40.244340" lon="-6.888680">
        <ele>739</ele>
        <time>2022-12-04T00:53:30Z</time>
      </trkpt>
      <trkpt lat="40.244320" lon="-6.888840">
        <ele>737</ele>
        <time>2022-12-04T00:53:33Z</time>
      </trkpt>
      <trkpt lat="40.244350" lon="-6.888950">
        <ele>737</ele>
        <time>2022-12-04T00:53:34Z</time>
      </trkpt>
      <trkpt lat="40.244390" lon="-6.889030">
        <ele>737</ele>
        <time>2022-12-04T00:53:35Z</time>
      </trkpt>
      <trkpt lat="40.244440" lon="-6.889100">
        <ele>738</ele>
        <time>2022-12-04T00:53:37Z</time>
      </trkpt>
      <trkpt lat="40.244570" lon="-6.889180">
        <ele>740</ele>
        <time>2022-12-04T00:53:39Z</time>
      </trkpt>
      <trkpt lat="40.244710" lon="-6.889180">
        <ele>744</ele>
        <time>2022-12-04T00:53:42Z</time>
      </trkpt>
      <trkpt lat="40.244850" lon="-6.889090">
        <ele>748</ele>
        <time>2022-12-04T00:53:45Z</time>
      </trkpt>
      <trkpt lat="40.244940" lon="-6.888930">
        <ele>752</ele>
        <time>2022-12-04T00:53:47Z</time>
      </trkpt>
      <trkpt lat="40.244950" lon="-6.888820">
        <ele>753</ele>
        <time>2022-12-04T00:53:49Z</time>
      </trkpt>
      <trkpt lat="40.244940" lon="-6.888620">
        <ele>754</ele>
        <time>2022-12-04T00:53:51Z</time>
      </trkpt>
      <trkpt lat="40.244890" lon="-6.888440">
        <ele>754</ele>
        <time>2022-12-04T00:53:54Z</time>
      </trkpt>
      <trkpt lat="40.244850" lon="-6.888180">
        <ele>754</ele>
        <time>2022-12-04T00:53:58Z</time>
      </trkpt>
      <trkpt lat="40.244870" lon="-6.887780">
        <ele>755</ele>
        <time>2022-12-04T00:54:03Z</time>
      </trkpt>
      <trkpt lat="40.244910" lon="-6.887590">
        <ele>757</ele>
        <time>2022-12-04T00:54:06Z</time>
      </trkpt>
      <trkpt lat="40.245190" lon="-6.886760">
        <ele>768</ele>
        <time>2022-12-04T00:54:18Z</time>
      </trkpt>
      <trkpt lat="40.245230" lon="-6.886630">
        <ele>770</ele>
        <time>2022-12-04T00:54:20Z</time>
      </trkpt>
      <trkpt lat="40.245230" lon="-6.886380">
        <ele>772</ele>
        <time>2022-12-04T00:54:23Z</time>
      </trkpt>
      <trkpt lat="40.245150" lon="-6.886170">
        <ele>772</ele>
        <time>2022-12-04T00:54:27Z</time>
      </trkpt>
      <trkpt lat="40.245040" lon="-6.886030">
        <ele>771</ele>
        <time>2022-12-04T00:54:29Z</time>
      </trkpt>
      <trkpt lat="40.244970" lon="-6.885980">
        <ele>770</ele>
        <time>2022-12-04T00:54:31Z</time>
      </trkpt>
      <trkpt lat="40.244820" lon="-6.885920">
        <ele>770</ele>
        <time>2022-12-04T00:54:34Z</time>
      </trkpt>
      <trkpt lat="40.244500" lon="-6.885950">
        <ele>767</ele>
        <time>2022-12-04T00:54:39Z</time>
      </trkpt>
      <trkpt lat="40.244440" lon="-6.885930">
        <ele>766</ele>
        <time>2022-12-04T00:54:40Z</time>
      </trkpt>
      <trkpt lat="40.244270" lon="-6.885810">
        <ele>767</ele>
        <time>2022-12-04T00:54:44Z</time>
      </trkpt>
      <trkpt lat="40.244190" lon="-6.885700">
        <ele>767</ele>
        <time>2022-12-04T00:54:46Z</time>
      </trkpt>
      <trkpt lat="40.244140" lon="-6.885580">
        <ele>766</ele>
        <time>2022-12-04T00:54:48Z</time>
      </trkpt>
      <trkpt lat="40.244100" lon="-6.885440">
        <ele>766</ele>
        <time>2022-12-04T00:54:50Z</time>
      </trkpt>
      <trkpt lat="40.244090" lon="-6.885310">
        <ele>766</ele>
        <time>2022-12-04T00:54:51Z</time>
      </trkpt>
      <trkpt lat="40.244110" lon="-6.885160">
        <ele>766</ele>
        <time>2022-12-04T00:54:54Z</time>
      </trkpt>
      <trkpt lat="40.244160" lon="-6.885040">
        <ele>768</ele>
        <time>2022-12-04T00:54:55Z</time>
      </trkpt>
      <trkpt lat="40.244470" lon="-6.884420">
        <ele>770</ele>
        <time>2022-12-04T00:55:05Z</time>
      </trkpt>
      <trkpt lat="40.244550" lon="-6.884280">
        <ele>771</ele>
        <time>2022-12-04T00:55:08Z</time>
      </trkpt>
      <trkpt lat="40.244800" lon="-6.883960">
        <ele>774</ele>
        <time>2022-12-04T00:55:14Z</time>
      </trkpt>
      <trkpt lat="40.244960" lon="-6.883810">
        <ele>777</ele>
        <time>2022-12-04T00:55:18Z</time>
      </trkpt>
      <trkpt lat="40.245180" lon="-6.883540">
        <ele>781</ele>
        <time>2022-12-04T00:55:23Z</time>
      </trkpt>
      <trkpt lat="40.245320" lon="-6.883350">
        <ele>783</ele>
        <time>2022-12-04T00:55:27Z</time>
      </trkpt>
      <trkpt lat="40.245720" lon="-6.882690">
        <ele>786</ele>
        <time>2022-12-04T00:55:38Z</time>
      </trkpt>
      <trkpt lat="40.246130" lon="-6.882150">
        <ele>793</ele>
        <time>2022-12-04T00:55:48Z</time>
      </trkpt>
      <trkpt lat="40.246250" lon="-6.881940">
        <ele>794</ele>
        <time>2022-12-04T00:55:52Z</time>
      </trkpt>
      <trkpt lat="40.246590" lon="-6.881310">
        <ele>801</ele>
        <time>2022-12-04T00:56:02Z</time>
      </trkpt>
      <trkpt lat="40.247140" lon="-6.879790">
        <ele>811</ele>
        <time>2022-12-04T00:56:25Z</time>
      </trkpt>
      <trkpt lat="40.247150" lon="-6.879690">
        <ele>812</ele>
        <time>2022-12-04T00:56:27Z</time>
      </trkpt>
      <trkpt lat="40.247130" lon="-6.879520">
        <ele>813</ele>
        <time>2022-12-04T00:56:29Z</time>
      </trkpt>
      <trkpt lat="40.247060" lon="-6.879380">
        <ele>813</ele>
        <time>2022-12-04T00:56:31Z</time>
      </trkpt>
      <trkpt lat="40.246980" lon="-6.879300">
        <ele>812</ele>
        <time>2022-12-04T00:56:33Z</time>
      </trkpt>
      <trkpt lat="40.246870" lon="-6.879260">
        <ele>811</ele>
        <time>2022-12-04T00:56:35Z</time>
      </trkpt>
      <trkpt lat="40.246760" lon="-6.879270">
        <ele>808</ele>
        <time>2022-12-04T00:56:37Z</time>
      </trkpt>
      <trkpt lat="40.246610" lon="-6.879230">
        <ele>806</ele>
        <time>2022-12-04T00:56:40Z</time>
      </trkpt>
      <trkpt lat="40.246270" lon="-6.878970">
        <ele>805</ele>
        <time>2022-12-04T00:56:47Z</time>
      </trkpt>
      <trkpt lat="40.246150" lon="-6.878800">
        <ele>805</ele>
        <time>2022-12-04T00:56:50Z</time>
      </trkpt>
      <trkpt lat="40.246100" lon="-6.878700">
        <ele>805</ele>
        <time>2022-12-04T00:56:51Z</time>
      </trkpt>
      <trkpt lat="40.246070" lon="-6.878570">
        <ele>806</ele>
        <time>2022-12-04T00:56:53Z</time>
      </trkpt>
      <trkpt lat="40.246070" lon="-6.878450">
        <ele>807</ele>
        <time>2022-12-04T00:56:55Z</time>
      </trkpt>
      <trkpt lat="40.246210" lon="-6.878010">
        <ele>815</ele>
        <time>2022-12-04T00:57:01Z</time>
      </trkpt>
      <trkpt lat="40.246250" lon="-6.877820">
        <ele>817</ele>
        <time>2022-12-04T00:57:04Z</time>
      </trkpt>
      <trkpt lat="40.246250" lon="-6.877600">
        <ele>819</ele>
        <time>2022-12-04T00:57:07Z</time>
      </trkpt>
      <trkpt lat="40.246200" lon="-6.877370">
        <ele>821</ele>
        <time>2022-12-04T00:57:10Z</time>
      </trkpt>
      <trkpt lat="40.246160" lon="-6.877250">
        <ele>823</ele>
        <time>2022-12-04T00:57:12Z</time>
      </trkpt>
      <trkpt lat="40.246110" lon="-6.877140">
        <ele>824</ele>
        <time>2022-12-04T00:57:14Z</time>
      </trkpt>
      <trkpt lat="40.245960" lon="-6.876960">
        <ele>825</ele>
        <time>2022-12-04T00:57:17Z</time>
      </trkpt>
      <trkpt lat="40.245790" lon="-6.876830">
        <ele>826</ele>
        <time>2022-12-04T00:57:21Z</time>
      </trkpt>
      <trkpt lat="40.245700" lon="-6.876800">
        <ele>826</ele>
        <time>2022-12-04T00:57:23Z</time>
      </trkpt>
      <trkpt lat="40.244460" lon="-6.876660">
        <ele>830</ele>
        <time>2022-12-04T00:57:45Z</time>
      </trkpt>
      <trkpt lat="40.243890" lon="-6.876580">
        <ele>835</ele>
        <time>2022-12-04T00:57:55Z</time>
      </trkpt>
      <trkpt lat="40.243570" lon="-6.876630">
        <ele>836</ele>
        <time>2022-12-04T00:58:01Z</time>
      </trkpt>
      <trkpt lat="40.243210" lon="-6.876730">
        <ele>834</ele>
        <time>2022-12-04T00:58:07Z</time>
      </trkpt>
      <trkpt lat="40.242980" lon="-6.876730">
        <ele>834</ele>
        <time>2022-12-04T00:58:11Z</time>
      </trkpt>
      <trkpt lat="40.242260" lon="-6.876530">
        <ele>836</ele>
        <time>2022-12-04T00:58:24Z</time>
      </trkpt>
      <trkpt lat="40.242130" lon="-6.876440">
        <ele>837</ele>
        <time>2022-12-04T00:58:27Z</time>
      </trkpt>
      <trkpt lat="40.242030" lon="-6.876340">
        <ele>837</ele>
        <time>2022-12-04T00:58:29Z</time>
      </trkpt>
      <trkpt lat="40.241930" lon="-6.876180">
        <ele>838</ele>
        <time>2022-12-04T00:58:32Z</time>
      </trkpt>
      <trkpt lat="40.241900" lon="-6.876070">
        <ele>839</ele>
        <time>2022-12-04T00:58:34Z</time>
      </trkpt>
      <trkpt lat="40.241900" lon="-6.875990">
        <ele>840</ele>
        <time>2022-12-04T00:58:35Z</time>
      </trkpt>
      <trkpt lat="40.241920" lon="-6.875910">
        <ele>841</ele>
        <time>2022-12-04T00:58:36Z</time>
      </trkpt>
      <trkpt lat="40.242120" lon="-6.875280">
        <ele>843</ele>
        <time>2022-12-04T00:58:45Z</time>
      </trkpt>
      <trkpt lat="40.242240" lon="-6.875060">
        <ele>846</ele>
        <time>2022-12-04T00:58:49Z</time>
      </trkpt>
      <trkpt lat="40.242390" lon="-6.874860">
        <ele>847</ele>
        <time>2022-12-04T00:58:53Z</time>
      </trkpt>
      <trkpt lat="40.243550" lon="-6.874090">
        <ele>860</ele>
        <time>2022-12-04T00:59:16Z</time>
      </trkpt>
      <trkpt lat="40.243950" lon="-6.873720">
        <ele>859</ele>
        <time>2022-12-04T00:59:25Z</time>
      </trkpt>
      <trkpt lat="40.244090" lon="-6.873640">
        <ele>861</ele>
        <time>2022-12-04T00:59:27Z</time>
      </trkpt>
      <trkpt lat="40.244580" lon="-6.873440">
        <ele>864</ele>
        <time>2022-12-04T00:59:36Z</time>
      </trkpt>
      <trkpt lat="40.245390" lon="-6.873380">
        <ele>878</ele>
        <time>2022-12-04T00:59:51Z</time>
      </trkpt>
      <trkpt lat="40.245540" lon="-6.873310">
        <ele>879</ele>
        <time>2022-12-04T00:59:54Z</time>
      </trkpt>
      <trkpt lat="40.245850" lon="-6.873090">
        <ele>877</ele>
        <time>2022-12-04T01:00:00Z</time>
      </trkpt>
      <trkpt lat="40.246140" lon="-6.872930">
        <ele>877</ele>
        <time>2022-12-04T01:00:05Z</time>
      </trkpt>
      <trkpt lat="40.246600" lon="-6.872810">
        <ele>881</ele>
        <time>2022-12-04T01:00:14Z</time>
      </trkpt>
      <trkpt lat="40.247140" lon="-6.872740">
        <ele>890</ele>
        <time>2022-12-04T01:00:23Z</time>
      </trkpt>
      <trkpt lat="40.247340" lon="-6.872680">
        <ele>892</ele>
        <time>2022-12-04T01:00:27Z</time>
      </trkpt>
      <trkpt lat="40.247650" lon="-6.872520">
        <ele>895</ele>
        <time>2022-12-04T01:00:33Z</time>
      </trkpt>
      <trkpt lat="40.247770" lon="-6.872440">
        <ele>897</ele>
        <time>2022-12-04T01:00:35Z</time>
      </trkpt>
      <trkpt lat="40.247890" lon="-6.872330">
        <ele>898</ele>
        <time>2022-12-04T01:00:38Z</time>
      </trkpt>
      <trkpt lat="40.248120" lon="-6.872020">
        <ele>898</ele>
        <time>2022-12-04T01:00:44Z</time>
      </trkpt>
      <trkpt lat="40.248220" lon="-6.871750">
        <ele>894</ele>
        <time>2022-12-04T01:00:48Z</time>
      </trkpt>
      <trkpt lat="40.248300" lon="-6.871400">
        <ele>891</ele>
        <time>2022-12-04T01:00:53Z</time>
      </trkpt>
      <trkpt lat="40.248350" lon="-6.871240">
        <ele>890</ele>
        <time>2022-12-04T01:00:55Z</time>
      </trkpt>
      <trkpt lat="40.248410" lon="-6.871110">
        <ele>889</ele>
        <time>2022-12-04T01:00:57Z</time>
      </trkpt>
      <trkpt lat="40.248560" lon="-6.870920">
        <ele>891</ele>
        <time>2022-12-04T01:01:01Z</time>
      </trkpt>
      <trkpt lat="40.248760" lon="-6.870720">
        <ele>892</ele>
        <time>2022-12-04T01:01:06Z</time>
      </trkpt>
      <trkpt lat="40.249920" lon="-6.870170">
        <ele>905</ele>
        <time>2022-12-04T01:01:28Z</time>
      </trkpt>
      <trkpt lat="40.250100" lon="-6.870100">
        <ele>904</ele>
        <time>2022-12-04T01:01:31Z</time>
      </trkpt>
      <trkpt lat="40.250230" lon="-6.870090">
        <ele>904</ele>
        <time>2022-12-04T01:01:33Z</time>
      </trkpt>
      <trkpt lat="40.250410" lon="-6.870140">
        <ele>906</ele>
        <time>2022-12-04T01:01:36Z</time>
      </trkpt>
      <trkpt lat="40.251150" lon="-6.870600">
        <ele>928</ele>
        <time>2022-12-04T01:01:51Z</time>
      </trkpt>
      <trkpt lat="40.251280" lon="-6.870640">
        <ele>930</ele>
        <time>2022-12-04T01:01:53Z</time>
      </trkpt>
      <trkpt lat="40.251360" lon="-6.870640">
        <ele>931</ele>
        <time>2022-12-04T01:01:55Z</time>
      </trkpt>
      <trkpt lat="40.251440" lon="-6.870610">
        <ele>932</ele>
        <time>2022-12-04T01:01:56Z</time>
      </trkpt>
      <trkpt lat="40.251550" lon="-6.870480">
        <ele>931</ele>
        <time>2022-12-04T01:01:59Z</time>
      </trkpt>
      <trkpt lat="40.251580" lon="-6.870360">
        <ele>929</ele>
        <time>2022-12-04T01:02:01Z</time>
      </trkpt>
      <trkpt lat="40.251580" lon="-6.870240">
        <ele>927</ele>
        <time>2022-12-04T01:02:02Z</time>
      </trkpt>
      <trkpt lat="40.251470" lon="-6.869430">
        <ele>921</ele>
        <time>2022-12-04T01:02:13Z</time>
      </trkpt>
      <trkpt lat="40.251450" lon="-6.868900">
        <ele>922</ele>
        <time>2022-12-04T01:02:21Z</time>
      </trkpt>
      <trkpt lat="40.251420" lon="-6.868630">
        <ele>922</ele>
        <time>2022-12-04T01:02:24Z</time>
      </trkpt>
      <trkpt lat="40.251240" lon="-6.868040">
        <ele>917</ele>
        <time>2022-12-04T01:02:33Z</time>
      </trkpt>
      <trkpt lat="40.251210" lon="-6.867810">
        <ele>918</ele>
        <time>2022-12-04T01:02:36Z</time>
      </trkpt>
      <trkpt lat="40.251220" lon="-6.867700">
        <ele>919</ele>
        <time>2022-12-04T01:02:38Z</time>
      </trkpt>
      <trkpt lat="40.251240" lon="-6.867580">
        <ele>921</ele>
        <time>2022-12-04T01:02:39Z</time>
      </trkpt>
      <trkpt lat="40.251290" lon="-6.867480">
        <ele>923</ele>
        <time>2022-12-04T01:02:41Z</time>
      </trkpt>
      <trkpt lat="40.251680" lon="-6.866990">
        <ele>928</ele>
        <time>2022-12-04T01:02:51Z</time>
      </trkpt>
      <trkpt lat="40.251850" lon="-6.866720">
        <ele>928</ele>
        <time>2022-12-04T01:02:55Z</time>
      </trkpt>
      <trkpt lat="40.252000" lon="-6.866520">
        <ele>928</ele>
        <time>2022-12-04T01:02:59Z</time>
      </trkpt>
      <trkpt lat="40.252080" lon="-6.866440">
        <ele>928</ele>
        <time>2022-12-04T01:03:01Z</time>
      </trkpt>
      <trkpt lat="40.252210" lon="-6.866330">
        <ele>929</ele>
        <time>2022-12-04T01:03:04Z</time>
      </trkpt>
      <trkpt lat="40.252400" lon="-6.866250">
        <ele>932</ele>
        <time>2022-12-04T01:03:07Z</time>
      </trkpt>
      <trkpt lat="40.252500" lon="-6.866220">
        <ele>933</ele>
        <time>2022-12-04T01:03:09Z</time>
      </trkpt>
      <trkpt lat="40.252820" lon="-6.866240">
        <ele>937</ele>
        <time>2022-12-04T01:03:15Z</time>
      </trkpt>
      <trkpt lat="40.253470" lon="-6.866380">
        <ele>948</ele>
        <time>2022-12-04T01:03:26Z</time>
      </trkpt>
      <trkpt lat="40.253580" lon="-6.866380">
        <ele>950</ele>
        <time>2022-12-04T01:03:28Z</time>
      </trkpt>
      <trkpt lat="40.253770" lon="-6.866330">
        <ele>951</ele>
        <time>2022-12-04T01:03:32Z</time>
      </trkpt>
      <trkpt lat="40.254270" lon="-6.866090">
        <ele>950</ele>
        <time>2022-12-04T01:03:41Z</time>
      </trkpt>
      <trkpt lat="40.254680" lon="-6.865960">
        <ele>952</ele>
        <time>2022-12-04T01:03:49Z</time>
      </trkpt>
      <trkpt lat="40.255130" lon="-6.865890">
        <ele>955</ele>
        <time>2022-12-04T01:03:57Z</time>
      </trkpt>
      <trkpt lat="40.255320" lon="-6.865890">
        <ele>956</ele>
        <time>2022-12-04T01:04:00Z</time>
      </trkpt>
      <trkpt lat="40.256050" lon="-6.865970">
        <ele>963</ele>
        <time>2022-12-04T01:04:13Z</time>
      </trkpt>
      <trkpt lat="40.256160" lon="-6.865990">
        <ele>964</ele>
        <time>2022-12-04T01:04:15Z</time>
      </trkpt>
      <trkpt lat="40.256340" lon="-6.866070">
        <ele>967</ele>
        <time>2022-12-04T01:04:19Z</time>
      </trkpt>
      <trkpt lat="40.256440" lon="-6.866080">
        <ele>968</ele>
        <time>2022-12-04T01:04:20Z</time>
      </trkpt>
      <trkpt lat="40.256530" lon="-6.866070">
        <ele>969</ele>
        <time>2022-12-04T01:04:22Z</time>
      </trkpt>
      <trkpt lat="40.256730" lon="-6.865970">
        <ele>969</ele>
        <time>2022-12-04T01:04:26Z</time>
      </trkpt>
      <trkpt lat="40.256810" lon="-6.865900">
        <ele>969</ele>
        <time>2022-12-04T01:04:28Z</time>
      </trkpt>
      <trkpt lat="40.256880" lon="-6.865820">
        <ele>969</ele>
        <time>2022-12-04T01:04:29Z</time>
      </trkpt>
      <trkpt lat="40.257010" lon="-6.865590">
        <ele>968</ele>
        <time>2022-12-04T01:04:33Z</time>
      </trkpt>
      <trkpt lat="40.257080" lon="-6.865510">
        <ele>968</ele>
        <time>2022-12-04T01:04:35Z</time>
      </trkpt>
      <trkpt lat="40.257210" lon="-6.865430">
        <ele>970</ele>
        <time>2022-12-04T01:04:37Z</time>
      </trkpt>
      <trkpt lat="40.257630" lon="-6.865270">
        <ele>977</ele>
        <time>2022-12-04T01:04:45Z</time>
      </trkpt>
      <trkpt lat="40.257710" lon="-6.865210">
        <ele>979</ele>
        <time>2022-12-04T01:04:47Z</time>
      </trkpt>
      <trkpt lat="40.257840" lon="-6.865050">
        <ele>981</ele>
        <time>2022-12-04T01:04:50Z</time>
      </trkpt>
      <trkpt lat="40.257980" lon="-6.864690">
        <ele>982</ele>
        <time>2022-12-04T01:04:55Z</time>
      </trkpt>
      <trkpt lat="40.258210" lon="-6.864270">
        <ele>981</ele>
        <time>2022-12-04T01:05:02Z</time>
      </trkpt>
      <trkpt lat="40.258700" lon="-6.863590">
        <ele>991</ele>
        <time>2022-12-04T01:05:15Z</time>
      </trkpt>
      <trkpt lat="40.259230" lon="-6.862950">
        <ele>997</ele>
        <time>2022-12-04T01:05:28Z</time>
      </trkpt>
      <trkpt lat="40.259510" lon="-6.862260">
        <ele>998</ele>
        <time>2022-12-04T01:05:39Z</time>
      </trkpt>
      <trkpt lat="40.259620" lon="-6.862070">
        <ele>1000</ele>
        <time>2022-12-04T01:05:42Z</time>
      </trkpt>
      <trkpt lat="40.259820" lon="-6.861830">
        <ele>1001</ele>
        <time>2022-12-04T01:05:47Z</time>
      </trkpt>
      <trkpt lat="40.260070" lon="-6.861610">
        <ele>1002</ele>
        <time>2022-12-04T01:05:52Z</time>
      </trkpt>
      <trkpt lat="40.260160" lon="-6.861480">
        <ele>1004</ele>
        <time>2022-12-04T01:05:54Z</time>
      </trkpt>
      <trkpt lat="40.260230" lon="-6.861250">
        <ele>1005</ele>
        <time>2022-12-04T01:05:58Z</time>
      </trkpt>
      <trkpt lat="40.260240" lon="-6.861120">
        <ele>1005</ele>
        <time>2022-12-04T01:06:00Z</time>
      </trkpt>
      <trkpt lat="40.260220" lon="-6.860990">
        <ele>1004</ele>
        <time>2022-12-04T01:06:01Z</time>
      </trkpt>
      <trkpt lat="40.260190" lon="-6.860840">
        <ele>1004</ele>
        <time>2022-12-04T01:06:03Z</time>
      </trkpt>
      <trkpt lat="40.260090" lon="-6.860650">
        <ele>1007</ele>
        <time>2022-12-04T01:06:07Z</time>
      </trkpt>
      <trkpt lat="40.259940" lon="-6.860530">
        <ele>1010</ele>
        <time>2022-12-04T01:06:10Z</time>
      </trkpt>
      <trkpt lat="40.259830" lon="-6.860490">
        <ele>1012</ele>
        <time>2022-12-04T01:06:12Z</time>
      </trkpt>
      <trkpt lat="40.259690" lon="-6.860480">
        <ele>1015</ele>
        <time>2022-12-04T01:06:14Z</time>
      </trkpt>
      <trkpt lat="40.259580" lon="-6.860520">
        <ele>1015</ele>
        <time>2022-12-04T01:06:16Z</time>
      </trkpt>
      <trkpt lat="40.259500" lon="-6.860580">
        <ele>1015</ele>
        <time>2022-12-04T01:06:18Z</time>
      </trkpt>
      <trkpt lat="40.258330" lon="-6.861650">
        <ele>1013</ele>
        <time>2022-12-04T01:06:43Z</time>
      </trkpt>
      <trkpt lat="40.257160" lon="-6.862460">
        <ele>1010</ele>
        <time>2022-12-04T01:07:07Z</time>
      </trkpt>
      <trkpt lat="40.256990" lon="-6.862470">
        <ele>1010</ele>
        <time>2022-12-04T01:07:10Z</time>
      </trkpt>
      <trkpt lat="40.256880" lon="-6.862370">
        <ele>1012</ele>
        <time>2022-12-04T01:07:12Z</time>
      </trkpt>
      <trkpt lat="40.256840" lon="-6.862310">
        <ele>1013</ele>
        <time>2022-12-04T01:07:13Z</time>
      </trkpt>
      <trkpt lat="40.256800" lon="-6.862150">
        <ele>1016</ele>
        <time>2022-12-04T01:07:16Z</time>
      </trkpt>
      <trkpt lat="40.256820" lon="-6.862040">
        <ele>1018</ele>
        <time>2022-12-04T01:07:17Z</time>
      </trkpt>
      <trkpt lat="40.256850" lon="-6.861950">
        <ele>1020</ele>
        <time>2022-12-04T01:07:18Z</time>
      </trkpt>
      <trkpt lat="40.256950" lon="-6.861830">
        <ele>1022</ele>
        <time>2022-12-04T01:07:21Z</time>
      </trkpt>
      <trkpt lat="40.257040" lon="-6.861800">
        <ele>1023</ele>
        <time>2022-12-04T01:07:23Z</time>
      </trkpt>
      <trkpt lat="40.257170" lon="-6.861820">
        <ele>1023</ele>
        <time>2022-12-04T01:07:25Z</time>
      </trkpt>
      <trkpt lat="40.257370" lon="-6.861890">
        <ele>1021</ele>
        <time>2022-12-04T01:07:29Z</time>
      </trkpt>
      <trkpt lat="40.257450" lon="-6.861910">
        <ele>1021</ele>
        <time>2022-12-04T01:07:30Z</time>
      </trkpt>
      <trkpt lat="40.257600" lon="-6.861850">
        <ele>1020</ele>
        <time>2022-12-04T01:07:33Z</time>
      </trkpt>
      <trkpt lat="40.257670" lon="-6.861780">
        <ele>1021</ele>
        <time>2022-12-04T01:07:34Z</time>
      </trkpt>
      <trkpt lat="40.257890" lon="-6.861470">
        <ele>1024</ele>
        <time>2022-12-04T01:07:40Z</time>
      </trkpt>
      <trkpt lat="40.257960" lon="-6.861390">
        <ele>1024</ele>
        <time>2022-12-04T01:07:42Z</time>
      </trkpt>
      <trkpt lat="40.258190" lon="-6.861230">
        <ele>1025</ele>
        <time>2022-12-04T01:07:46Z</time>
      </trkpt>
      <trkpt lat="40.258290" lon="-6.861120">
        <ele>1026</ele>
        <time>2022-12-04T01:07:49Z</time>
      </trkpt>
      <trkpt lat="40.259120" lon="-6.859980">
        <ele>1035</ele>
        <time>2022-12-04T01:08:10Z</time>
      </trkpt>
      <trkpt lat="40.259300" lon="-6.859810">
        <ele>1036</ele>
        <time>2022-12-04T01:08:14Z</time>
      </trkpt>
      <trkpt lat="40.259820" lon="-6.859520">
        <ele>1038</ele>
        <time>2022-12-04T01:08:24Z</time>
      </trkpt>
      <trkpt lat="40.260100" lon="-6.859330">
        <ele>1041</ele>
        <time>2022-12-04T01:08:30Z</time>
      </trkpt>
      <trkpt lat="40.260210" lon="-6.859210">
        <ele>1042</ele>
        <time>2022-12-04T01:08:32Z</time>
      </trkpt>
      <trkpt lat="40.260970" lon="-6.858270">
        <ele>1051</ele>
        <time>2022-12-04T01:08:51Z</time>
      </trkpt>
      <trkpt lat="40.261280" lon="-6.858030">
        <ele>1052</ele>
        <time>2022-12-04T01:08:57Z</time>
      </trkpt>
      <trkpt lat="40.261360" lon="-6.857950">
        <ele>1052</ele>
        <time>2022-12-04T01:08:59Z</time>
      </trkpt>
      <trkpt lat="40.261460" lon="-6.857810">
        <ele>1053</ele>
        <time>2022-12-04T01:09:02Z</time>
      </trkpt>
      <trkpt lat="40.262040" lon="-6.856790">
        <ele>1061</ele>
        <time>2022-12-04T01:09:19Z</time>
      </trkpt>
      <trkpt lat="40.262260" lon="-6.856530">
        <ele>1061</ele>
        <time>2022-12-04T01:09:24Z</time>
      </trkpt>
      <trkpt lat="40.262490" lon="-6.856340">
        <ele>1060</ele>
        <time>2022-12-04T01:09:29Z</time>
      </trkpt>
      <trkpt lat="40.262630" lon="-6.856270">
        <ele>1061</ele>
        <time>2022-12-04T01:09:32Z</time>
      </trkpt>
      <trkpt lat="40.263930" lon="-6.855930">
        <ele>1063</ele>
        <time>2022-12-04T01:09:55Z</time>
      </trkpt>
      <trkpt lat="40.264380" lon="-6.855730">
        <ele>1064</ele>
        <time>2022-12-04T01:10:04Z</time>
      </trkpt>
      <trkpt lat="40.264610" lon="-6.855650">
        <ele>1066</ele>
        <time>2022-12-04T01:10:08Z</time>
      </trkpt>
      <trkpt lat="40.264810" lon="-6.855660">
        <ele>1068</ele>
        <time>2022-12-04T01:10:12Z</time>
      </trkpt>
      <trkpt lat="40.265510" lon="-6.855800">
        <ele>1072</ele>
        <time>2022-12-04T01:10:24Z</time>
      </trkpt>
      <trkpt lat="40.265680" lon="-6.855800">
        <ele>1072</ele>
        <time>2022-12-04T01:10:27Z</time>
      </trkpt>
      <trkpt lat="40.265800" lon="-6.855750">
        <ele>1073</ele>
        <time>2022-12-04T01:10:29Z</time>
      </trkpt>
      <trkpt lat="40.265950" lon="-6.855580">
        <ele>1073</ele>
        <time>2022-12-04T01:10:33Z</time>
      </trkpt>
      <trkpt lat="40.266840" lon="-6.854470">
        <ele>1073</ele>
        <time>2022-12-04T01:10:55Z</time>
      </trkpt>
      <trkpt lat="40.267510" lon="-6.853680">
        <ele>1070</ele>
        <time>2022-12-04T01:11:11Z</time>
      </trkpt>
      <trkpt lat="40.271280" lon="-6.849810">
        <ele>1043</ele>
        <time>2022-12-04T01:12:36Z</time>
      </trkpt>
      <trkpt lat="40.271710" lon="-6.849350">
        <ele>1040</ele>
        <time>2022-12-04T01:12:46Z</time>
      </trkpt>
      <trkpt lat="40.271860" lon="-6.849160">
        <ele>1038</ele>
        <time>2022-12-04T01:12:50Z</time>
      </trkpt>
      <trkpt lat="40.272080" lon="-6.848780">
        <ele>1037</ele>
        <time>2022-12-04T01:12:56Z</time>
      </trkpt>
      <trkpt lat="40.274250" lon="-6.843790">
        <ele>1012</ele>
        <time>2022-12-04T01:14:14Z</time>
      </trkpt>
      <trkpt lat="40.274350" lon="-6.843550">
        <ele>1011</ele>
        <time>2022-12-04T01:14:18Z</time>
      </trkpt>
      <trkpt lat="40.274720" lon="-6.842140">
        <ele>1008</ele>
        <time>2022-12-04T01:14:38Z</time>
      </trkpt>
      <trkpt lat="40.274880" lon="-6.841790">
        <ele>1007</ele>
        <time>2022-12-04T01:14:44Z</time>
      </trkpt>
      <trkpt lat="40.275170" lon="-6.841410">
        <ele>1006</ele>
        <time>2022-12-04T01:14:51Z</time>
      </trkpt>
      <trkpt lat="40.275370" lon="-6.841230">
        <ele>1006</ele>
        <time>2022-12-04T01:14:55Z</time>
      </trkpt>
      <trkpt lat="40.275610" lon="-6.841100">
        <ele>1005</ele>
        <time>2022-12-04T01:15:00Z</time>
      </trkpt>
      <trkpt lat="40.276050" lon="-6.840890">
        <ele>1002</ele>
        <time>2022-12-04T01:15:08Z</time>
      </trkpt>
      <trkpt lat="40.276140" lon="-6.840830">
        <ele>1002</ele>
        <time>2022-12-04T01:15:10Z</time>
      </trkpt>
      <trkpt lat="40.276240" lon="-6.840740">
        <ele>1001</ele>
        <time>2022-12-04T01:15:12Z</time>
      </trkpt>
      <trkpt lat="40.276500" lon="-6.840380">
        <ele>1001</ele>
        <time>2022-12-04T01:15:19Z</time>
      </trkpt>
      <trkpt lat="40.276790" lon="-6.839910">
        <ele>1001</ele>
        <time>2022-12-04T01:15:27Z</time>
      </trkpt>
      <trkpt lat="40.276880" lon="-6.839720">
        <ele>1000</ele>
        <time>2022-12-04T01:15:30Z</time>
      </trkpt>
      <trkpt lat="40.277580" lon="-6.837760">
        <ele>996</ele>
        <time>2022-12-04T01:15:59Z</time>
      </trkpt>
      <trkpt lat="40.277630" lon="-6.837650">
        <ele>995</ele>
        <time>2022-12-04T01:16:01Z</time>
      </trkpt>
      <trkpt lat="40.277700" lon="-6.837570">
        <ele>995</ele>
        <time>2022-12-04T01:16:03Z</time>
      </trkpt>
      <trkpt lat="40.277830" lon="-6.837470">
        <ele>994</ele>
        <time>2022-12-04T01:16:06Z</time>
      </trkpt>
      <trkpt lat="40.278550" lon="-6.837180">
        <ele>990</ele>
        <time>2022-12-04T01:16:19Z</time>
      </trkpt>
      <trkpt lat="40.278820" lon="-6.837050">
        <ele>987</ele>
        <time>2022-12-04T01:16:24Z</time>
      </trkpt>
      <trkpt lat="40.279070" lon="-6.836850">
        <ele>987</ele>
        <time>2022-12-04T01:16:29Z</time>
      </trkpt>
      <trkpt lat="40.281320" lon="-6.834640">
        <ele>972</ele>
        <time>2022-12-04T01:17:19Z</time>
      </trkpt>
      <trkpt lat="40.281450" lon="-6.834500">
        <ele>971</ele>
        <time>2022-12-04T01:17:22Z</time>
      </trkpt>
      <trkpt lat="40.281660" lon="-6.834160">
        <ele>970</ele>
        <time>2022-12-04T01:17:28Z</time>
      </trkpt>
      <trkpt lat="40.281920" lon="-6.833660">
        <ele>970</ele>
        <time>2022-12-04T01:17:36Z</time>
      </trkpt>
      <trkpt lat="40.282170" lon="-6.833280">
        <ele>968</ele>
        <time>2022-12-04T01:17:43Z</time>
      </trkpt>
      <trkpt lat="40.282460" lon="-6.832910">
        <ele>966</ele>
        <time>2022-12-04T01:17:50Z</time>
      </trkpt>
      <trkpt lat="40.282860" lon="-6.832460">
        <ele>964</ele>
        <time>2022-12-04T01:18:00Z</time>
      </trkpt>
      <trkpt lat="40.283190" lon="-6.832180">
        <ele>959</ele>
        <time>2022-12-04T01:18:07Z</time>
      </trkpt>
      <trkpt lat="40.284830" lon="-6.830990">
        <ele>946</ele>
        <time>2022-12-04T01:18:40Z</time>
      </trkpt>
      <trkpt lat="40.285120" lon="-6.830820">
        <ele>944</ele>
        <time>2022-12-04T01:18:46Z</time>
      </trkpt>
      <trkpt lat="40.285300" lon="-6.830760">
        <ele>944</ele>
        <time>2022-12-04T01:18:49Z</time>
      </trkpt>
      <trkpt lat="40.285440" lon="-6.830740">
        <ele>943</ele>
        <time>2022-12-04T01:18:52Z</time>
      </trkpt>
      <trkpt lat="40.285620" lon="-6.830750">
        <ele>941</ele>
        <time>2022-12-04T01:18:55Z</time>
      </trkpt>
      <trkpt lat="40.286930" lon="-6.831180">
        <ele>927</ele>
        <time>2022-12-04T01:19:19Z</time>
      </trkpt>
      <trkpt lat="40.287050" lon="-6.831200">
        <ele>926</ele>
        <time>2022-12-04T01:19:21Z</time>
      </trkpt>
      <trkpt lat="40.287170" lon="-6.831200">
        <ele>925</ele>
        <time>2022-12-04T01:19:23Z</time>
      </trkpt>
      <trkpt lat="40.287230" lon="-6.831160">
        <ele>925</ele>
        <time>2022-12-04T01:19:24Z</time>
      </trkpt>
      <trkpt lat="40.287290" lon="-6.831090">
        <ele>925</ele>
        <time>2022-12-04T01:19:26Z</time>
      </trkpt>
      <trkpt lat="40.287340" lon="-6.830990">
        <ele>925</ele>
        <time>2022-12-04T01:19:27Z</time>
      </trkpt>
      <trkpt lat="40.287380" lon="-6.830860">
        <ele>926</ele>
        <time>2022-12-04T01:19:29Z</time>
      </trkpt>
      <trkpt lat="40.287440" lon="-6.830390">
        <ele>927</ele>
        <time>2022-12-04T01:19:36Z</time>
      </trkpt>
      <trkpt lat="40.287480" lon="-6.830200">
        <ele>927</ele>
        <time>2022-12-04T01:19:38Z</time>
      </trkpt>
      <trkpt lat="40.287530" lon="-6.830080">
        <ele>926</ele>
        <time>2022-12-04T01:19:40Z</time>
      </trkpt>
      <trkpt lat="40.287590" lon="-6.830000">
        <ele>926</ele>
        <time>2022-12-04T01:19:42Z</time>
      </trkpt>
      <trkpt lat="40.287690" lon="-6.829930">
        <ele>924</ele>
        <time>2022-12-04T01:19:44Z</time>
      </trkpt>
      <trkpt lat="40.287830" lon="-6.829910">
        <ele>922</ele>
        <time>2022-12-04T01:19:46Z</time>
      </trkpt>
      <trkpt lat="40.288570" lon="-6.830110">
        <ele>912</ele>
        <time>2022-12-04T01:20:00Z</time>
      </trkpt>
      <trkpt lat="40.288700" lon="-6.830110">
        <ele>910</ele>
        <time>2022-12-04T01:20:02Z</time>
      </trkpt>
      <trkpt lat="40.288780" lon="-6.830070">
        <ele>909</ele>
        <time>2022-12-04T01:20:04Z</time>
      </trkpt>
      <trkpt lat="40.288960" lon="-6.829950">
        <ele>906</ele>
        <time>2022-12-04T01:20:07Z</time>
      </trkpt>
      <trkpt lat="40.290080" lon="-6.828950">
        <ele>900</ele>
        <time>2022-12-04T01:20:31Z</time>
      </trkpt>
      <trkpt lat="40.290230" lon="-6.828810">
        <ele>901</ele>
        <time>2022-12-04T01:20:35Z</time>
      </trkpt>
      <trkpt lat="40.291250" lon="-6.827880">
        <ele>910</ele>
        <time>2022-12-04T01:20:57Z</time>
      </trkpt>
      <trkpt lat="40.291370" lon="-6.827720">
        <ele>911</ele>
        <time>2022-12-04T01:21:00Z</time>
      </trkpt>
      <trkpt lat="40.291950" lon="-6.826700">
        <ele>915</ele>
        <time>2022-12-04T01:21:17Z</time>
      </trkpt>
      <trkpt lat="40.292100" lon="-6.826470">
        <ele>915</ele>
        <time>2022-12-04T01:21:21Z</time>
      </trkpt>
      <trkpt lat="40.292210" lon="-6.826340">
        <ele>914</ele>
        <time>2022-12-04T01:21:24Z</time>
      </trkpt>
      <trkpt lat="40.292300" lon="-6.826260">
        <ele>914</ele>
        <time>2022-12-04T01:21:26Z</time>
      </trkpt>
      <trkpt lat="40.293040" lon="-6.825860">
        <ele>908</ele>
        <time>2022-12-04T01:21:40Z</time>
      </trkpt>
      <trkpt lat="40.293150" lon="-6.825780">
        <ele>907</ele>
        <time>2022-12-04T01:21:42Z</time>
      </trkpt>
      <trkpt lat="40.293300" lon="-6.825620">
        <ele>905</ele>
        <time>2022-12-04T01:21:46Z</time>
      </trkpt>
      <trkpt lat="40.294100" lon="-6.824150">
        <ele>901</ele>
        <time>2022-12-04T01:22:10Z</time>
      </trkpt>
      <trkpt lat="40.294400" lon="-6.823640">
        <ele>898</ele>
        <time>2022-12-04T01:22:19Z</time>
      </trkpt>
      <trkpt lat="40.294590" lon="-6.823370">
        <ele>897</ele>
        <time>2022-12-04T01:22:24Z</time>
      </trkpt>
      <trkpt lat="40.294860" lon="-6.823140">
        <ele>898</ele>
        <time>2022-12-04T01:22:30Z</time>
      </trkpt>
      <trkpt lat="40.295020" lon="-6.823050">
        <ele>898</ele>
        <time>2022-12-04T01:22:33Z</time>
      </trkpt>
      <trkpt lat="40.295340" lon="-6.822970">
        <ele>899</ele>
        <time>2022-12-04T01:22:38Z</time>
      </trkpt>
      <trkpt lat="40.295580" lon="-6.822960">
        <ele>900</ele>
        <time>2022-12-04T01:22:43Z</time>
      </trkpt>
      <trkpt lat="40.295650" lon="-6.822950">
        <ele>900</ele>
        <time>2022-12-04T01:22:44Z</time>
      </trkpt>
      <trkpt lat="40.295720" lon="-6.822890">
        <ele>900</ele>
        <time>2022-12-04T01:22:45Z</time>
      </trkpt>
      <trkpt lat="40.295770" lon="-6.822800">
        <ele>900</ele>
        <time>2022-12-04T01:22:47Z</time>
      </trkpt>
      <trkpt lat="40.295800" lon="-6.822650">
        <ele>899</ele>
        <time>2022-12-04T01:22:49Z</time>
      </trkpt>
      <trkpt lat="40.295810" lon="-6.822180">
        <ele>899</ele>
        <time>2022-12-04T01:22:55Z</time>
      </trkpt>
      <trkpt lat="40.295780" lon="-6.822030">
        <ele>899</ele>
        <time>2022-12-04T01:22:58Z</time>
      </trkpt>
      <trkpt lat="40.295660" lon="-6.821830">
        <ele>898</ele>
        <time>2022-12-04T01:23:01Z</time>
      </trkpt>
      <trkpt lat="40.295700" lon="-6.821760">
        <ele>899</ele>
        <time>2022-12-04T01:23:02Z</time>
      </trkpt>
      <trkpt lat="40.295690" lon="-6.821420">
        <ele>900</ele>
        <time>2022-12-04T01:23:07Z</time>
      </trkpt>
      <trkpt lat="40.295680" lon="-6.821310">
        <ele>900</ele>
        <time>2022-12-04T01:23:08Z</time>
      </trkpt>
      <trkpt lat="40.295780" lon="-6.821020">
        <ele>902</ele>
        <time>2022-12-04T01:23:13Z</time>
      </trkpt>
      <trkpt lat="40.295840" lon="-6.820890">
        <ele>903</ele>
        <time>2022-12-04T01:23:15Z</time>
      </trkpt>
      <trkpt lat="40.295980" lon="-6.820690">
        <ele>904</ele>
        <time>2022-12-04T01:23:18Z</time>
      </trkpt>
      <trkpt lat="40.295950" lon="-6.820590">
        <ele>903</ele>
        <time>2022-12-04T01:23:20Z</time>
      </trkpt>
      <trkpt lat="40.295960" lon="-6.820420">
        <ele>902</ele>
        <time>2022-12-04T01:23:22Z</time>
      </trkpt>
      <trkpt lat="40.295940" lon="-6.820300">
        <ele>902</ele>
        <time>2022-12-04T01:23:24Z</time>
      </trkpt>
      <trkpt lat="40.295960" lon="-6.820120">
        <ele>901</ele>
        <time>2022-12-04T01:23:26Z</time>
      </trkpt>
      <trkpt lat="40.296010" lon="-6.819930">
        <ele>901</ele>
        <time>2022-12-04T01:23:29Z</time>
      </trkpt>
      <trkpt lat="40.296000" lon="-6.819870">
        <ele>900</ele>
        <time>2022-12-04T01:23:30Z</time>
      </trkpt>
      <trkpt lat="40.296050" lon="-6.819850">
        <ele>901</ele>
        <time>2022-12-04T01:23:31Z</time>
      </trkpt>
      <trkpt lat="40.296080" lon="-6.819780">
        <ele>900</ele>
        <time>2022-12-04T01:23:32Z</time>
      </trkpt>
      <trkpt lat="40.296080" lon="-6.819500">
        <ele>899</ele>
        <time>2022-12-04T01:23:36Z</time>
      </trkpt>
      <trkpt lat="40.296110" lon="-6.819460">
        <ele>899</ele>
        <time>2022-12-04T01:23:36Z</time>
      </trkpt>
      <trkpt lat="40.296530" lon="-6.819100">
        <ele>897</ele>
        <time>2022-12-04T01:23:45Z</time>
      </trkpt>
      <trkpt lat="40.296570" lon="-6.818990">
        <ele>896</ele>
        <time>2022-12-04T01:23:47Z</time>
      </trkpt>
      <trkpt lat="40.296580" lon="-6.818880">
        <ele>895</ele>
        <time>2022-12-04T01:23:49Z</time>
      </trkpt>
      <trkpt lat="40.296680" lon="-6.818860">
        <ele>895</ele>
        <time>2022-12-04T01:23:50Z</time>
      </trkpt>
      <trkpt lat="40.297390" lon="-6.818490">
        <ele>892</ele>
        <time>2022-12-04T01:24:04Z</time>
      </trkpt>
      <trkpt lat="40.297590" lon="-6.818360">
        <ele>891</ele>
        <time>2022-12-04T01:24:08Z</time>
      </trkpt>
      <trkpt lat="40.298140" lon="-6.817940">
        <ele>888</ele>
        <time>2022-12-04T01:24:19Z</time>
      </trkpt>
      <trkpt lat="40.298300" lon="-6.817750">
        <ele>887</ele>
        <time>2022-12-04T01:24:23Z</time>
      </trkpt>
      <trkpt lat="40.298340" lon="-6.817650">
        <ele>887</ele>
        <time>2022-12-04T01:24:25Z</time>
      </trkpt>
      <trkpt lat="40.298470" lon="-6.817120">
        <ele>884</ele>
        <time>2022-12-04T01:24:32Z</time>
      </trkpt>
      <trkpt lat="40.298590" lon="-6.816840">
        <ele>883</ele>
        <time>2022-12-04T01:24:37Z</time>
      </trkpt>
      <trkpt lat="40.299010" lon="-6.816280">
        <ele>880</ele>
        <time>2022-12-04T01:24:47Z</time>
      </trkpt>
      <trkpt lat="40.301290" lon="-6.813450">
        <ele>877</ele>
        <time>2022-12-04T01:25:43Z</time>
      </trkpt>
      <trkpt lat="40.301580" lon="-6.813040">
        <ele>878</ele>
        <time>2022-12-04T01:25:51Z</time>
      </trkpt>
      <trkpt lat="40.302190" lon="-6.812050">
        <ele>876</ele>
        <time>2022-12-04T01:26:08Z</time>
      </trkpt>
      <trkpt lat="40.302540" lon="-6.811580">
        <ele>873</ele>
        <time>2022-12-04T01:26:17Z</time>
      </trkpt>
      <trkpt lat="40.302820" lon="-6.811250">
        <ele>874</ele>
        <time>2022-12-04T01:26:24Z</time>
      </trkpt>
      <trkpt lat="40.303220" lon="-6.810870">
        <ele>873</ele>
        <time>2022-12-04T01:26:32Z</time>
      </trkpt>
      <trkpt lat="40.304450" lon="-6.809800">
        <ele>869</ele>
        <time>2022-12-04T01:26:59Z</time>
      </trkpt>
      <trkpt lat="40.305070" lon="-6.809370">
        <ele>871</ele>
        <time>2022-12-04T01:27:11Z</time>
      </trkpt>
      <trkpt lat="40.305480" lon="-6.809130">
        <ele>872</ele>
        <time>2022-12-04T01:27:19Z</time>
      </trkpt>
      <trkpt lat="40.305740" lon="-6.809010">
        <ele>872</ele>
        <time>2022-12-04T01:27:24Z</time>
      </trkpt>
      <trkpt lat="40.306260" lon="-6.808840">
        <ele>873</ele>
        <time>2022-12-04T01:27:33Z</time>
      </trkpt>
      <trkpt lat="40.309920" lon="-6.808030">
        <ele>874</ele>
        <time>2022-12-04T01:28:40Z</time>
      </trkpt>
      <trkpt lat="40.310220" lon="-6.807950">
        <ele>875</ele>
        <time>2022-12-04T01:28:45Z</time>
      </trkpt>
      <trkpt lat="40.310510" lon="-6.807830">
        <ele>876</ele>
        <time>2022-12-04T01:28:50Z</time>
      </trkpt>
      <trkpt lat="40.311130" lon="-6.807490">
        <ele>875</ele>
        <time>2022-12-04T01:29:02Z</time>
      </trkpt>
      <trkpt lat="40.311830" lon="-6.807060">
        <ele>873</ele>
        <time>2022-12-04T01:29:16Z</time>
      </trkpt>
      <trkpt lat="40.314420" lon="-6.805450">
        <ele>871</ele>
        <time>2022-12-04T01:30:07Z</time>
      </trkpt>
      <trkpt lat="40.315010" lon="-6.805110">
        <ele>873</ele>
        <time>2022-12-04T01:30:19Z</time>
      </trkpt>
      <trkpt lat="40.320570" lon="-6.802250">
        <ele>881</ele>
        <time>2022-12-04T01:32:05Z</time>
      </trkpt>
      <trkpt lat="40.324450" lon="-6.800220">
        <ele>873</ele>
        <time>2022-12-04T01:33:19Z</time>
      </trkpt>
      <trkpt lat="40.324650" lon="-6.800090">
        <ele>873</ele>
        <time>2022-12-04T01:33:23Z</time>
      </trkpt>
      <trkpt lat="40.325080" lon="-6.799690">
        <ele>873</ele>
        <time>2022-12-04T01:33:33Z</time>
      </trkpt>
      <trkpt lat="40.325420" lon="-6.799270">
        <ele>874</ele>
        <time>2022-12-04T01:33:41Z</time>
      </trkpt>
      <trkpt lat="40.325580" lon="-6.799020">
        <ele>875</ele>
        <time>2022-12-04T01:33:45Z</time>
      </trkpt>
      <trkpt lat="40.325740" lon="-6.798740">
        <ele>875</ele>
        <time>2022-12-04T01:33:50Z</time>
      </trkpt>
      <trkpt lat="40.325960" lon="-6.798220">
        <ele>876</ele>
        <time>2022-12-04T01:33:58Z</time>
      </trkpt>
      <trkpt lat="40.326470" lon="-6.796510">
        <ele>875</ele>
        <time>2022-12-04T01:34:23Z</time>
      </trkpt>
      <trkpt lat="40.326900" lon="-6.794990">
        <ele>873</ele>
        <time>2022-12-04T01:34:45Z</time>
      </trkpt>
      <trkpt lat="40.327290" lon="-6.793710">
        <ele>869</ele>
        <time>2022-12-04T01:35:04Z</time>
      </trkpt>
      <trkpt lat="40.327490" lon="-6.793220">
        <ele>866</ele>
        <time>2022-12-04T01:35:11Z</time>
      </trkpt>
      <trkpt lat="40.327760" lon="-6.792700">
        <ele>863</ele>
        <time>2022-12-04T01:35:20Z</time>
      </trkpt>
      <trkpt lat="40.328060" lon="-6.792250">
        <ele>863</ele>
        <time>2022-12-04T01:35:28Z</time>
      </trkpt>
      <trkpt lat="40.328330" lon="-6.791900">
        <ele>864</ele>
        <time>2022-12-04T01:35:35Z</time>
      </trkpt>
      <trkpt lat="40.328760" lon="-6.791480">
        <ele>865</ele>
        <time>2022-12-04T01:35:44Z</time>
      </trkpt>
      <trkpt lat="40.331640" lon="-6.789230">
        <ele>869</ele>
        <time>2022-12-04T01:36:44Z</time>
      </trkpt>
      <trkpt lat="40.332070" lon="-6.788930">
        <ele>866</ele>
        <time>2022-12-04T01:36:52Z</time>
      </trkpt>
      <trkpt lat="40.332560" lon="-6.788700">
        <ele>864</ele>
        <time>2022-12-04T01:37:02Z</time>
      </trkpt>
      <trkpt lat="40.333480" lon="-6.788370">
        <ele>864</ele>
        <time>2022-12-04T01:37:19Z</time>
      </trkpt>
      <trkpt lat="40.333690" lon="-6.788270">
        <ele>865</ele>
        <time>2022-12-04T01:37:23Z</time>
      </trkpt>
      <trkpt lat="40.333900" lon="-6.788180">
        <ele>866</ele>
        <time>2022-12-04T01:37:27Z</time>
      </trkpt>
      <trkpt lat="40.334290" lon="-6.787970">
        <ele>868</ele>
        <time>2022-12-04T01:37:34Z</time>
      </trkpt>
      <trkpt lat="40.335250" lon="-6.787380">
        <ele>869</ele>
        <time>2022-12-04T01:37:53Z</time>
      </trkpt>
      <trkpt lat="40.335700" lon="-6.787080">
        <ele>869</ele>
        <time>2022-12-04T01:38:02Z</time>
      </trkpt>
      <trkpt lat="40.336430" lon="-6.786530">
        <ele>870</ele>
        <time>2022-12-04T01:38:17Z</time>
      </trkpt>
      <trkpt lat="40.336960" lon="-6.786070">
        <ele>872</ele>
        <time>2022-12-04T01:38:28Z</time>
      </trkpt>
      <trkpt lat="40.337270" lon="-6.785790">
        <ele>874</ele>
        <time>2022-12-04T01:38:35Z</time>
      </trkpt>
      <trkpt lat="40.337570" lon="-6.785490">
        <ele>876</ele>
        <time>2022-12-04T01:38:42Z</time>
      </trkpt>
      <trkpt lat="40.338410" lon="-6.784560">
        <ele>879</ele>
        <time>2022-12-04T01:39:01Z</time>
      </trkpt>
      <trkpt lat="40.341220" lon="-6.781190">
        <ele>893</ele>
        <time>2022-12-04T01:40:09Z</time>
      </trkpt>
      <trkpt lat="40.341690" lon="-6.780720">
        <ele>896</ele>
        <time>2022-12-04T01:40:19Z</time>
      </trkpt>
      <trkpt lat="40.342010" lon="-6.780450">
        <ele>897</ele>
        <time>2022-12-04T01:40:26Z</time>
      </trkpt>
      <trkpt lat="40.342420" lon="-6.780160">
        <ele>898</ele>
        <time>2022-12-04T01:40:34Z</time>
      </trkpt>
      <trkpt lat="40.342860" lon="-6.779930">
        <ele>897</ele>
        <time>2022-12-04T01:40:43Z</time>
      </trkpt>
      <trkpt lat="40.343290" lon="-6.779760">
        <ele>896</ele>
        <time>2022-12-04T01:40:51Z</time>
      </trkpt>
      <trkpt lat="40.343740" lon="-6.779610">
        <ele>899</ele>
        <time>2022-12-04T01:40:59Z</time>
      </trkpt>
      <trkpt lat="40.353550" lon="-6.777030">
        <ele>882</ele>
        <time>2022-12-04T01:43:57Z</time>
      </trkpt>
      <trkpt lat="40.354210" lon="-6.776800">
        <ele>881</ele>
        <time>2022-12-04T01:44:09Z</time>
      </trkpt>
      <trkpt lat="40.354420" lon="-6.776700">
        <ele>882</ele>
        <time>2022-12-04T01:44:13Z</time>
      </trkpt>
      <trkpt lat="40.354700" lon="-6.776550">
        <ele>883</ele>
        <time>2022-12-04T01:44:19Z</time>
      </trkpt>
      <trkpt lat="40.355200" lon="-6.776220">
        <ele>886</ele>
        <time>2022-12-04T01:44:29Z</time>
      </trkpt>
      <trkpt lat="40.358170" lon="-6.774190">
        <ele>895</ele>
        <time>2022-12-04T01:45:28Z</time>
      </trkpt>
      <trkpt lat="40.358850" lon="-6.773660">
        <ele>894</ele>
        <time>2022-12-04T01:45:42Z</time>
      </trkpt>
      <trkpt lat="40.359260" lon="-6.773300">
        <ele>893</ele>
        <time>2022-12-04T01:45:51Z</time>
      </trkpt>
      <trkpt lat="40.359760" lon="-6.772830">
        <ele>892</ele>
        <time>2022-12-04T01:46:02Z</time>
      </trkpt>
      <trkpt lat="40.367030" lon="-6.765470">
        <ele>866</ele>
        <time>2022-12-04T01:48:45Z</time>
      </trkpt>
      <trkpt lat="40.367160" lon="-6.765340">
        <ele>866</ele>
        <time>2022-12-04T01:48:48Z</time>
      </trkpt>
      <trkpt lat="40.367640" lon="-6.764870">
        <ele>867</ele>
        <time>2022-12-04T01:48:59Z</time>
      </trkpt>
      <trkpt lat="40.369480" lon="-6.762970">
        <ele>870</ele>
        <time>2022-12-04T01:49:41Z</time>
      </trkpt>
      <trkpt lat="40.371170" lon="-6.761290">
        <ele>867</ele>
        <time>2022-12-04T01:50:18Z</time>
      </trkpt>
      <trkpt lat="40.371900" lon="-6.760580">
        <ele>865</ele>
        <time>2022-12-04T01:50:34Z</time>
      </trkpt>
      <trkpt lat="40.372350" lon="-6.760280">
        <ele>866</ele>
        <time>2022-12-04T01:50:43Z</time>
      </trkpt>
      <trkpt lat="40.372560" lon="-6.760190">
        <ele>866</ele>
        <time>2022-12-04T01:50:47Z</time>
      </trkpt>
      <trkpt lat="40.372960" lon="-6.760060">
        <ele>868</ele>
        <time>2022-12-04T01:50:55Z</time>
      </trkpt>
      <trkpt lat="40.373420" lon="-6.760000">
        <ele>869</ele>
        <time>2022-12-04T01:51:03Z</time>
      </trkpt>
      <trkpt lat="40.373770" lon="-6.760000">
        <ele>869</ele>
        <time>2022-12-04T01:51:09Z</time>
      </trkpt>
      <trkpt lat="40.374650" lon="-6.760060">
        <ele>867</ele>
        <time>2022-12-04T01:51:25Z</time>
      </trkpt>
      <trkpt lat="40.374910" lon="-6.760040">
        <ele>866</ele>
        <time>2022-12-04T01:51:30Z</time>
      </trkpt>
      <trkpt lat="40.375330" lon="-6.759960">
        <ele>866</ele>
        <time>2022-12-04T01:51:37Z</time>
      </trkpt>
      <trkpt lat="40.375770" lon="-6.759770">
        <ele>866</ele>
        <time>2022-12-04T01:51:45Z</time>
      </trkpt>
      <trkpt lat="40.378000" lon="-6.758410">
        <ele>874</ele>
        <time>2022-12-04T01:52:29Z</time>
      </trkpt>
      <trkpt lat="40.378460" lon="-6.758120">
        <ele>873</ele>
        <time>2022-12-04T01:52:38Z</time>
      </trkpt>
      <trkpt lat="40.378640" lon="-6.757980">
        <ele>873</ele>
        <time>2022-12-04T01:52:42Z</time>
      </trkpt>
      <trkpt lat="40.379010" lon="-6.757670">
        <ele>871</ele>
        <time>2022-12-04T01:52:50Z</time>
      </trkpt>
      <trkpt lat="40.379350" lon="-6.757330">
        <ele>868</ele>
        <time>2022-12-04T01:52:57Z</time>
      </trkpt>
      <trkpt lat="40.379880" lon="-6.756730">
        <ele>864</ele>
        <time>2022-12-04T01:53:10Z</time>
      </trkpt>
      <trkpt lat="40.380320" lon="-6.756200">
        <ele>862</ele>
        <time>2022-12-04T01:53:20Z</time>
      </trkpt>
      <trkpt lat="40.380660" lon="-6.755670">
        <ele>861</ele>
        <time>2022-12-04T01:53:30Z</time>
      </trkpt>
      <trkpt lat="40.381560" lon="-6.754020">
        <ele>857</ele>
        <time>2022-12-04T01:53:57Z</time>
      </trkpt>
      <trkpt lat="40.381610" lon="-6.753880">
        <ele>857</ele>
        <time>2022-12-04T01:53:59Z</time>
      </trkpt>
      <trkpt lat="40.381630" lon="-6.753800">
        <ele>857</ele>
        <time>2022-12-04T01:54:00Z</time>
      </trkpt>
      <trkpt lat="40.381640" lon="-6.753680">
        <ele>857</ele>
        <time>2022-12-04T01:54:02Z</time>
      </trkpt>
      <trkpt lat="40.381640" lon="-6.753430">
        <ele>857</ele>
        <time>2022-12-04T01:54:06Z</time>
      </trkpt>
      <trkpt lat="40.381730" lon="-6.752220">
        <ele>856</ele>
        <time>2022-12-04T01:54:22Z</time>
      </trkpt>
      <trkpt lat="40.381780" lon="-6.751940">
        <ele>857</ele>
        <time>2022-12-04T01:54:26Z</time>
      </trkpt>
      <trkpt lat="40.381940" lon="-6.751580">
        <ele>857</ele>
        <time>2022-12-04T01:54:32Z</time>
      </trkpt>
      <trkpt lat="40.382330" lon="-6.750980">
        <ele>856</ele>
        <time>2022-12-04T01:54:42Z</time>
      </trkpt>
      <trkpt lat="40.382430" lon="-6.750800">
        <ele>855</ele>
        <time>2022-12-04T01:54:45Z</time>
      </trkpt>
      <trkpt lat="40.383160" lon="-6.749290">
        <ele>850</ele>
        <time>2022-12-04T01:55:09Z</time>
      </trkpt>
      <trkpt lat="40.383510" lon="-6.748610">
        <ele>847</ele>
        <time>2022-12-04T01:55:21Z</time>
      </trkpt>
      <trkpt lat="40.384350" lon="-6.747200">
        <ele>841</ele>
        <time>2022-12-04T01:55:45Z</time>
      </trkpt>
      <trkpt lat="40.384760" lon="-6.746600">
        <ele>840</ele>
        <time>2022-12-04T01:55:56Z</time>
      </trkpt>
      <trkpt lat="40.386880" lon="-6.743650">
        <ele>836</ele>
        <time>2022-12-04T01:56:51Z</time>
      </trkpt>
      <trkpt lat="40.387410" lon="-6.742850">
        <ele>835</ele>
        <time>2022-12-04T01:57:05Z</time>
      </trkpt>
      <trkpt lat="40.387720" lon="-6.742270">
        <ele>833</ele>
        <time>2022-12-04T01:57:15Z</time>
      </trkpt>
      <trkpt lat="40.387980" lon="-6.741740">
        <ele>833</ele>
        <time>2022-12-04T01:57:23Z</time>
      </trkpt>
      <trkpt lat="40.389980" lon="-6.737270">
        <ele>812</ele>
        <time>2022-12-04T01:58:34Z</time>
      </trkpt>
      <trkpt lat="40.390370" lon="-6.736290">
        <ele>807</ele>
        <time>2022-12-04T01:58:49Z</time>
      </trkpt>
      <trkpt lat="40.390450" lon="-6.736070">
        <ele>806</ele>
        <time>2022-12-04T01:58:52Z</time>
      </trkpt>
      <trkpt lat="40.390800" lon="-6.735020">
        <ele>808</ele>
        <time>2022-12-04T01:59:07Z</time>
      </trkpt>
      <trkpt lat="40.390960" lon="-6.734440">
        <ele>812</ele>
        <time>2022-12-04T01:59:16Z</time>
      </trkpt>
      <trkpt lat="40.391730" lon="-6.731600">
        <ele>823</ele>
        <time>2022-12-04T01:59:57Z</time>
      </trkpt>
      <trkpt lat="40.392630" lon="-6.728360">
        <ele>835</ele>
        <time>2022-12-04T02:00:43Z</time>
      </trkpt>
      <trkpt lat="40.392890" lon="-6.727330">
        <ele>844</ele>
        <time>2022-12-04T02:00:58Z</time>
      </trkpt>
      <trkpt lat="40.393040" lon="-6.726700">
        <ele>848</ele>
        <time>2022-12-04T02:01:07Z</time>
      </trkpt>
      <trkpt lat="40.393680" lon="-6.723610">
        <ele>854</ele>
        <time>2022-12-04T02:01:50Z</time>
      </trkpt>
      <trkpt lat="40.393780" lon="-6.722820">
        <ele>856</ele>
        <time>2022-12-04T02:02:01Z</time>
      </trkpt>
      <trkpt lat="40.393800" lon="-6.722510">
        <ele>858</ele>
        <time>2022-12-04T02:02:05Z</time>
      </trkpt>
      <trkpt lat="40.393810" lon="-6.722110">
        <ele>860</ele>
        <time>2022-12-04T02:02:11Z</time>
      </trkpt>
      <trkpt lat="40.393780" lon="-6.721470">
        <ele>863</ele>
        <time>2022-12-04T02:02:20Z</time>
      </trkpt>
      <trkpt lat="40.393750" lon="-6.721180">
        <ele>864</ele>
        <time>2022-12-04T02:02:23Z</time>
      </trkpt>
      <trkpt lat="40.393500" lon="-6.719210">
        <ele>862</ele>
        <time>2022-12-04T02:02:51Z</time>
      </trkpt>
      <trkpt lat="40.393440" lon="-6.718560">
        <ele>863</ele>
        <time>2022-12-04T02:02:59Z</time>
      </trkpt>
      <trkpt lat="40.393420" lon="-6.718110">
        <ele>865</ele>
        <time>2022-12-04T02:03:06Z</time>
      </trkpt>
      <trkpt lat="40.393410" lon="-6.717630">
        <ele>866</ele>
        <time>2022-12-04T02:03:12Z</time>
      </trkpt>
      <trkpt lat="40.393450" lon="-6.714410">
        <ele>870</ele>
        <time>2022-12-04T02:03:56Z</time>
      </trkpt>
      <trkpt lat="40.393470" lon="-6.713750">
        <ele>870</ele>
        <time>2022-12-04T02:04:05Z</time>
      </trkpt>
      <trkpt lat="40.393530" lon="-6.713050">
        <ele>870</ele>
        <time>2022-12-04T02:04:14Z</time>
      </trkpt>
      <trkpt lat="40.393630" lon="-6.712450">
        <ele>871</ele>
        <time>2022-12-04T02:04:22Z</time>
      </trkpt>
      <trkpt lat="40.393750" lon="-6.711910">
        <ele>872</ele>
        <time>2022-12-04T02:04:30Z</time>
      </trkpt>
      <trkpt lat="40.393960" lon="-6.711170">
        <ele>873</ele>
        <time>2022-12-04T02:04:41Z</time>
      </trkpt>
      <trkpt lat="40.394120" lon="-6.710730">
        <ele>874</ele>
        <time>2022-12-04T02:04:47Z</time>
      </trkpt>
      <trkpt lat="40.394360" lon="-6.710140">
        <ele>877</ele>
        <time>2022-12-04T02:04:56Z</time>
      </trkpt>
      <trkpt lat="40.394760" lon="-6.709280">
        <ele>877</ele>
        <time>2022-12-04T02:05:10Z</time>
      </trkpt>
      <trkpt lat="40.395210" lon="-6.708440">
        <ele>878</ele>
        <time>2022-12-04T02:05:24Z</time>
      </trkpt>
      <trkpt lat="40.395670" lon="-6.707660">
        <ele>879</ele>
        <time>2022-12-04T02:05:37Z</time>
      </trkpt>
      <trkpt lat="40.398620" lon="-6.702660">
        <ele>875</ele>
        <time>2022-12-04T02:07:03Z</time>
      </trkpt>
      <trkpt lat="40.398960" lon="-6.702160">
        <ele>876</ele>
        <time>2022-12-04T02:07:12Z</time>
      </trkpt>
      <trkpt lat="40.399240" lon="-6.701760">
        <ele>877</ele>
        <time>2022-12-04T02:07:20Z</time>
      </trkpt>
      <trkpt lat="40.399660" lon="-6.701190">
        <ele>877</ele>
        <time>2022-12-04T02:07:30Z</time>
      </trkpt>
      <trkpt lat="40.400830" lon="-6.699770">
        <ele>874</ele>
        <time>2022-12-04T02:07:59Z</time>
      </trkpt>
      <trkpt lat="40.401210" lon="-6.699280">
        <ele>872</ele>
        <time>2022-12-04T02:08:08Z</time>
      </trkpt>
      <trkpt lat="40.401880" lon="-6.698350">
        <ele>870</ele>
        <time>2022-12-04T02:08:25Z</time>
      </trkpt>
      <trkpt lat="40.404830" lon="-6.694130">
        <ele>872</ele>
        <time>2022-12-04T02:09:43Z</time>
      </trkpt>
      <trkpt lat="40.405200" lon="-6.693630">
        <ele>875</ele>
        <time>2022-12-04T02:09:53Z</time>
      </trkpt>
      <trkpt lat="40.405490" lon="-6.693280">
        <ele>876</ele>
        <time>2022-12-04T02:10:00Z</time>
      </trkpt>
      <trkpt lat="40.405890" lon="-6.692880">
        <ele>874</ele>
        <time>2022-12-04T02:10:09Z</time>
      </trkpt>
      <trkpt lat="40.406130" lon="-6.692680">
        <ele>875</ele>
        <time>2022-12-04T02:10:14Z</time>
      </trkpt>
      <trkpt lat="40.406510" lon="-6.692440">
        <ele>876</ele>
        <time>2022-12-04T02:10:21Z</time>
      </trkpt>
      <trkpt lat="40.406960" lon="-6.692230">
        <ele>877</ele>
        <time>2022-12-04T02:10:30Z</time>
      </trkpt>
      <trkpt lat="40.407300" lon="-6.692130">
        <ele>878</ele>
        <time>2022-12-04T02:10:36Z</time>
      </trkpt>
      <trkpt lat="40.407590" lon="-6.692070">
        <ele>880</ele>
        <time>2022-12-04T02:10:41Z</time>
      </trkpt>
      <trkpt lat="40.408250" lon="-6.692020">
        <ele>886</ele>
        <time>2022-12-04T02:10:53Z</time>
      </trkpt>
      <trkpt lat="40.408830" lon="-6.692030">
        <ele>887</ele>
        <time>2022-12-04T02:11:03Z</time>
      </trkpt>
      <trkpt lat="40.417000" lon="-6.692350">
        <ele>888</ele>
        <time>2022-12-04T02:13:29Z</time>
      </trkpt>
      <trkpt lat="40.417680" lon="-6.692360">
        <ele>889</ele>
        <time>2022-12-04T02:13:41Z</time>
      </trkpt>
      <trkpt lat="40.418250" lon="-6.692310">
        <ele>892</ele>
        <time>2022-12-04T02:13:51Z</time>
      </trkpt>
      <trkpt lat="40.418700" lon="-6.692220">
        <ele>894</ele>
        <time>2022-12-04T02:13:59Z</time>
      </trkpt>
      <trkpt lat="40.419190" lon="-6.692040">
        <ele>895</ele>
        <time>2022-12-04T02:14:08Z</time>
      </trkpt>
      <trkpt lat="40.419400" lon="-6.691940">
        <ele>895</ele>
        <time>2022-12-04T02:14:12Z</time>
      </trkpt>
      <trkpt lat="40.419910" lon="-6.691610">
        <ele>894</ele>
        <time>2022-12-04T02:14:22Z</time>
      </trkpt>
      <trkpt lat="40.420250" lon="-6.691310">
        <ele>894</ele>
        <time>2022-12-04T02:14:29Z</time>
      </trkpt>
      <trkpt lat="40.420670" lon="-6.690870">
        <ele>894</ele>
        <time>2022-12-04T02:14:39Z</time>
      </trkpt>
      <trkpt lat="40.421280" lon="-6.690080">
        <ele>894</ele>
        <time>2022-12-04T02:14:54Z</time>
      </trkpt>
      <trkpt lat="40.424290" lon="-6.685900">
        <ele>877</ele>
        <time>2022-12-04T02:16:12Z</time>
      </trkpt>
      <trkpt lat="40.424810" lon="-6.685210">
        <ele>879</ele>
        <time>2022-12-04T02:16:25Z</time>
      </trkpt>
      <trkpt lat="40.425460" lon="-6.684450">
        <ele>879</ele>
        <time>2022-12-04T02:16:41Z</time>
      </trkpt>
      <trkpt lat="40.430250" lon="-6.679400">
        <ele>858</ele>
        <time>2022-12-04T02:18:30Z</time>
      </trkpt>
      <trkpt lat="40.430850" lon="-6.678760">
        <ele>856</ele>
        <time>2022-12-04T02:18:44Z</time>
      </trkpt>
      <trkpt lat="40.431280" lon="-6.678260">
        <ele>854</ele>
        <time>2022-12-04T02:18:54Z</time>
      </trkpt>
      <trkpt lat="40.431370" lon="-6.678130">
        <ele>853</ele>
        <time>2022-12-04T02:18:56Z</time>
      </trkpt>
      <trkpt lat="40.431610" lon="-6.677760">
        <ele>852</ele>
        <time>2022-12-04T02:19:03Z</time>
      </trkpt>
      <trkpt lat="40.431940" lon="-6.677150">
        <ele>851</ele>
        <time>2022-12-04T02:19:13Z</time>
      </trkpt>
      <trkpt lat="40.432140" lon="-6.676670">
        <ele>851</ele>
        <time>2022-12-04T02:19:20Z</time>
      </trkpt>
      <trkpt lat="40.432260" lon="-6.676320">
        <ele>851</ele>
        <time>2022-12-04T02:19:26Z</time>
      </trkpt>
      <trkpt lat="40.432860" lon="-6.676660">
        <ele>853</ele>
        <time>2022-12-04T02:19:37Z</time>
      </trkpt>
      <trkpt lat="40.433400" lon="-6.677140">
        <ele>857</ele>
        <time>2022-12-04T02:19:49Z</time>
      </trkpt>
      <trkpt lat="40.433540" lon="-6.677200">
        <ele>857</ele>
        <time>2022-12-04T02:19:51Z</time>
      </trkpt>
      <trkpt lat="40.433610" lon="-6.677210">
        <ele>858</ele>
        <time>2022-12-04T02:19:53Z</time>
      </trkpt>
      <trkpt lat="40.434160" lon="-6.677140">
        <ele>859</ele>
        <time>2022-12-04T02:20:03Z</time>
      </trkpt>
      <trkpt lat="40.434980" lon="-6.677160">
        <ele>862</ele>
        <time>2022-12-04T02:20:17Z</time>
      </trkpt>
      <trkpt lat="40.435090" lon="-6.677120">
        <ele>862</ele>
        <time>2022-12-04T02:20:19Z</time>
      </trkpt>
      <trkpt lat="40.435720" lon="-6.676400">
        <ele>863</ele>
        <time>2022-12-04T02:20:34Z</time>
      </trkpt>
      <trkpt lat="40.435910" lon="-6.676230">
        <ele>864</ele>
        <time>2022-12-04T02:20:38Z</time>
      </trkpt>
      <trkpt lat="40.437640" lon="-6.675020">
        <ele>864</ele>
        <time>2022-12-04T02:21:13Z</time>
      </trkpt>
      <trkpt lat="40.438020" lon="-6.674790">
        <ele>862</ele>
        <time>2022-12-04T02:21:20Z</time>
      </trkpt>
      <trkpt lat="40.439750" lon="-6.674070">
        <ele>865</ele>
        <time>2022-12-04T02:21:53Z</time>
      </trkpt>
      <trkpt lat="40.441020" lon="-6.673870">
        <ele>870</ele>
        <time>2022-12-04T02:22:16Z</time>
      </trkpt>
      <trkpt lat="40.441570" lon="-6.673710">
        <ele>872</ele>
        <time>2022-12-04T02:22:26Z</time>
      </trkpt>
      <trkpt lat="40.442200" lon="-6.673640">
        <ele>869</ele>
        <time>2022-12-04T02:22:37Z</time>
      </trkpt>
      <trkpt lat="40.442400" lon="-6.673710">
        <ele>867</ele>
        <time>2022-12-04T02:22:40Z</time>
      </trkpt>
      <trkpt lat="40.443660" lon="-6.674590">
        <ele>861</ele>
        <time>2022-12-04T02:23:06Z</time>
      </trkpt>
      <trkpt lat="40.444700" lon="-6.675250">
        <ele>858</ele>
        <time>2022-12-04T02:23:26Z</time>
      </trkpt>
      <trkpt lat="40.445360" lon="-6.675780">
        <ele>855</ele>
        <time>2022-12-04T02:23:40Z</time>
      </trkpt>
      <trkpt lat="40.445530" lon="-6.675890">
        <ele>854</ele>
        <time>2022-12-04T02:23:44Z</time>
      </trkpt>
      <trkpt lat="40.446950" lon="-6.676560">
        <ele>851</ele>
        <time>2022-12-04T02:24:10Z</time>
      </trkpt>
      <trkpt lat="40.448830" lon="-6.677340">
        <ele>856</ele>
        <time>2022-12-04T02:24:45Z</time>
      </trkpt>
      <trkpt lat="40.449670" lon="-6.677860">
        <ele>853</ele>
        <time>2022-12-04T02:25:02Z</time>
      </trkpt>
      <trkpt lat="40.450360" lon="-6.678200">
        <ele>847</ele>
        <time>2022-12-04T02:25:15Z</time>
      </trkpt>
      <trkpt lat="40.450650" lon="-6.678290">
        <ele>845</ele>
        <time>2022-12-04T02:25:20Z</time>
      </trkpt>
      <trkpt lat="40.450890" lon="-6.678300">
        <ele>844</ele>
        <time>2022-12-04T02:25:25Z</time>
      </trkpt>
      <trkpt lat="40.451070" lon="-6.678260">
        <ele>843</ele>
        <time>2022-12-04T02:25:28Z</time>
      </trkpt>
      <trkpt lat="40.451420" lon="-6.678110">
        <ele>841</ele>
        <time>2022-12-04T02:25:34Z</time>
      </trkpt>
      <trkpt lat="40.451590" lon="-6.677990">
        <ele>841</ele>
        <time>2022-12-04T02:25:38Z</time>
      </trkpt>
      <trkpt lat="40.451880" lon="-6.677650">
        <ele>840</ele>
        <time>2022-12-04T02:25:45Z</time>
      </trkpt>
      <trkpt lat="40.451990" lon="-6.677470">
        <ele>840</ele>
        <time>2022-12-04T02:25:48Z</time>
      </trkpt>
      <trkpt lat="40.452130" lon="-6.677150">
        <ele>841</ele>
        <time>2022-12-04T02:25:53Z</time>
      </trkpt>
      <trkpt lat="40.452190" lon="-6.677110">
        <ele>841</ele>
        <time>2022-12-04T02:25:54Z</time>
      </trkpt>
      <trkpt lat="40.452270" lon="-6.677090">
        <ele>840</ele>
        <time>2022-12-04T02:25:56Z</time>
      </trkpt>
      <trkpt lat="40.452590" lon="-6.677120">
        <ele>837</ele>
        <time>2022-12-04T02:26:01Z</time>
      </trkpt>
      <trkpt lat="40.452780" lon="-6.677090">
        <ele>835</ele>
        <time>2022-12-04T02:26:05Z</time>
      </trkpt>
      <trkpt lat="40.452930" lon="-6.677040">
        <ele>834</ele>
        <time>2022-12-04T02:26:07Z</time>
      </trkpt>
      <trkpt lat="40.453750" lon="-6.676460">
        <ele>834</ele>
        <time>2022-12-04T02:26:24Z</time>
      </trkpt>
      <trkpt lat="40.453850" lon="-6.676450">
        <ele>833</ele>
        <time>2022-12-04T02:26:26Z</time>
      </trkpt>
      <trkpt lat="40.453900" lon="-6.676470">
        <ele>833</ele>
        <time>2022-12-04T02:26:27Z</time>
      </trkpt>
      <trkpt lat="40.453990" lon="-6.676570">
        <ele>832</ele>
        <time>2022-12-04T02:26:29Z</time>
      </trkpt>
      <trkpt lat="40.454060" lon="-6.676770">
        <ele>830</ele>
        <time>2022-12-04T02:26:32Z</time>
      </trkpt>
      <trkpt lat="40.454120" lon="-6.677030">
        <ele>827</ele>
        <time>2022-12-04T02:26:35Z</time>
      </trkpt>
      <trkpt lat="40.454170" lon="-6.677420">
        <ele>822</ele>
        <time>2022-12-04T02:26:41Z</time>
      </trkpt>
      <trkpt lat="40.454210" lon="-6.677980">
        <ele>814</ele>
        <time>2022-12-04T02:26:48Z</time>
      </trkpt>
      <trkpt lat="40.454230" lon="-6.678090">
        <ele>813</ele>
        <time>2022-12-04T02:26:50Z</time>
      </trkpt>
      <trkpt lat="40.454300" lon="-6.678260">
        <ele>811</ele>
        <time>2022-12-04T02:26:53Z</time>
      </trkpt>
      <trkpt lat="40.454530" lon="-6.678630">
        <ele>808</ele>
        <time>2022-12-04T02:26:59Z</time>
      </trkpt>
      <trkpt lat="40.455210" lon="-6.679610">
        <ele>795</ele>
        <time>2022-12-04T02:27:17Z</time>
      </trkpt>
      <trkpt lat="40.455550" lon="-6.680010">
        <ele>790</ele>
        <time>2022-12-04T02:27:25Z</time>
      </trkpt>
      <trkpt lat="40.456120" lon="-6.680590">
        <ele>782</ele>
        <time>2022-12-04T02:27:38Z</time>
      </trkpt>
      <trkpt lat="40.456350" lon="-6.680940">
        <ele>776</ele>
        <time>2022-12-04T02:27:44Z</time>
      </trkpt>
      <trkpt lat="40.456480" lon="-6.681080">
        <ele>774</ele>
        <time>2022-12-04T02:27:47Z</time>
      </trkpt>
      <trkpt lat="40.456540" lon="-6.681140">
        <ele>773</ele>
        <time>2022-12-04T02:27:49Z</time>
      </trkpt>
      <trkpt lat="40.456700" lon="-6.681220">
        <ele>773</ele>
        <time>2022-12-04T02:27:52Z</time>
      </trkpt>
      <trkpt lat="40.456860" lon="-6.681260">
        <ele>771</ele>
        <time>2022-12-04T02:27:55Z</time>
      </trkpt>
      <trkpt lat="40.456950" lon="-6.681270">
        <ele>771</ele>
        <time>2022-12-04T02:27:56Z</time>
      </trkpt>
      <trkpt lat="40.457120" lon="-6.681230">
        <ele>770</ele>
        <time>2022-12-04T02:27:59Z</time>
      </trkpt>
      <trkpt lat="40.457320" lon="-6.681140">
        <ele>769</ele>
        <time>2022-12-04T02:28:03Z</time>
      </trkpt>
      <trkpt lat="40.457440" lon="-6.681110">
        <ele>769</ele>
        <time>2022-12-04T02:28:05Z</time>
      </trkpt>
      <trkpt lat="40.457690" lon="-6.681070">
        <ele>766</ele>
        <time>2022-12-04T02:28:10Z</time>
      </trkpt>
      <trkpt lat="40.458150" lon="-6.681040">
        <ele>759</ele>
        <time>2022-12-04T02:28:18Z</time>
      </trkpt>
      <trkpt lat="40.458470" lon="-6.681090">
        <ele>755</ele>
        <time>2022-12-04T02:28:24Z</time>
      </trkpt>
      <trkpt lat="40.458740" lon="-6.681200">
        <ele>752</ele>
        <time>2022-12-04T02:28:29Z</time>
      </trkpt>
      <trkpt lat="40.458900" lon="-6.681300">
        <ele>750</ele>
        <time>2022-12-04T02:28:32Z</time>
      </trkpt>
      <trkpt lat="40.458990" lon="-6.681440">
        <ele>748</ele>
        <time>2022-12-04T02:28:34Z</time>
      </trkpt>
      <trkpt lat="40.459010" lon="-6.681530">
        <ele>747</ele>
        <time>2022-12-04T02:28:35Z</time>
      </trkpt>
      <trkpt lat="40.459310" lon="-6.683530">
        <ele>730</ele>
        <time>2022-12-04T02:29:03Z</time>
      </trkpt>
      <trkpt lat="40.459770" lon="-6.685260">
        <ele>719</ele>
        <time>2022-12-04T02:29:28Z</time>
      </trkpt>
      <trkpt lat="40.459850" lon="-6.685470">
        <ele>717</ele>
        <time>2022-12-04T02:29:31Z</time>
      </trkpt>
      <trkpt lat="40.460210" lon="-6.686070">
        <ele>711</ele>
        <time>2022-12-04T02:29:41Z</time>
      </trkpt>
      <trkpt lat="40.460680" lon="-6.686840">
        <ele>705</ele>
        <time>2022-12-04T02:29:55Z</time>
      </trkpt>
      <trkpt lat="40.460860" lon="-6.687060">
        <ele>703</ele>
        <time>2022-12-04T02:29:59Z</time>
      </trkpt>
      <trkpt lat="40.462730" lon="-6.688310">
        <ele>696</ele>
        <time>2022-12-04T02:30:36Z</time>
      </trkpt>
      <trkpt lat="40.463230" lon="-6.688620">
        <ele>695</ele>
        <time>2022-12-04T02:30:46Z</time>
      </trkpt>
      <trkpt lat="40.464060" lon="-6.688740">
        <ele>694</ele>
        <time>2022-12-04T02:31:01Z</time>
      </trkpt>
      <trkpt lat="40.464590" lon="-6.688790">
        <ele>691</ele>
        <time>2022-12-04T02:31:11Z</time>
      </trkpt>
      <trkpt lat="40.466640" lon="-6.689400">
        <ele>684</ele>
        <time>2022-12-04T02:31:48Z</time>
      </trkpt>
      <trkpt lat="40.467790" lon="-6.689460">
        <ele>679</ele>
        <time>2022-12-04T02:32:08Z</time>
      </trkpt>
      <trkpt lat="40.467900" lon="-6.689490">
        <ele>678</ele>
        <time>2022-12-04T02:32:10Z</time>
      </trkpt>
      <trkpt lat="40.468040" lon="-6.689570">
        <ele>678</ele>
        <time>2022-12-04T02:32:13Z</time>
      </trkpt>
      <trkpt lat="40.468580" lon="-6.690080">
        <ele>677</ele>
        <time>2022-12-04T02:32:25Z</time>
      </trkpt>
      <trkpt lat="40.468680" lon="-6.690160">
        <ele>676</ele>
        <time>2022-12-04T02:32:27Z</time>
      </trkpt>
      <trkpt lat="40.468770" lon="-6.690190">
        <ele>676</ele>
        <time>2022-12-04T02:32:29Z</time>
      </trkpt>
      <trkpt lat="40.468900" lon="-6.690180">
        <ele>676</ele>
        <time>2022-12-04T02:32:31Z</time>
      </trkpt>
      <trkpt lat="40.469870" lon="-6.690020">
        <ele>675</ele>
        <time>2022-12-04T02:32:48Z</time>
      </trkpt>
      <trkpt lat="40.469980" lon="-6.690020">
        <ele>675</ele>
        <time>2022-12-04T02:32:50Z</time>
      </trkpt>
      <trkpt lat="40.471060" lon="-6.690310">
        <ele>674</ele>
        <time>2022-12-04T02:33:10Z</time>
      </trkpt>
      <trkpt lat="40.472630" lon="-6.690530">
        <ele>669</ele>
        <time>2022-12-04T02:33:38Z</time>
      </trkpt>
      <trkpt lat="40.473220" lon="-6.690600">
        <ele>668</ele>
        <time>2022-12-04T02:33:49Z</time>
      </trkpt>
      <trkpt lat="40.474450" lon="-6.690700">
        <ele>668</ele>
        <time>2022-12-04T02:34:11Z</time>
      </trkpt>
      <trkpt lat="40.474740" lon="-6.690750">
        <ele>668</ele>
        <time>2022-12-04T02:34:16Z</time>
      </trkpt>
      <trkpt lat="40.476060" lon="-6.691130">
        <ele>666</ele>
        <time>2022-12-04T02:34:40Z</time>
      </trkpt>
      <trkpt lat="40.476910" lon="-6.691250">
        <ele>665</ele>
        <time>2022-12-04T02:34:55Z</time>
      </trkpt>
      <trkpt lat="40.477280" lon="-6.691380">
        <ele>664</ele>
        <time>2022-12-04T02:35:02Z</time>
      </trkpt>
      <trkpt lat="40.479010" lon="-6.692040">
        <ele>664</ele>
        <time>2022-12-04T02:35:34Z</time>
      </trkpt>
      <trkpt lat="40.479290" lon="-6.692140">
        <ele>663</ele>
        <time>2022-12-04T02:35:39Z</time>
      </trkpt>
      <trkpt lat="40.479630" lon="-6.692240">
        <ele>662</ele>
        <time>2022-12-04T02:35:45Z</time>
      </trkpt>
      <trkpt lat="40.479740" lon="-6.692300">
        <ele>662</ele>
        <time>2022-12-04T02:35:47Z</time>
      </trkpt>
      <trkpt lat="40.479810" lon="-6.692370">
        <ele>662</ele>
        <time>2022-12-04T02:35:49Z</time>
      </trkpt>
      <trkpt lat="40.481530" lon="-6.694180">
        <ele>654</ele>
        <time>2022-12-04T02:36:28Z</time>
      </trkpt>
      <trkpt lat="40.482210" lon="-6.695340">
        <ele>650</ele>
        <time>2022-12-04T02:36:48Z</time>
      </trkpt>
      <trkpt lat="40.482280" lon="-6.695390">
        <ele>649</ele>
        <time>2022-12-04T02:36:49Z</time>
      </trkpt>
      <trkpt lat="40.482450" lon="-6.695440">
        <ele>649</ele>
        <time>2022-12-04T02:36:53Z</time>
      </trkpt>
      <trkpt lat="40.482540" lon="-6.695410">
        <ele>649</ele>
        <time>2022-12-04T02:36:54Z</time>
      </trkpt>
      <trkpt lat="40.485360" lon="-6.694670">
        <ele>654</ele>
        <time>2022-12-04T02:37:45Z</time>
      </trkpt>
      <trkpt lat="40.485450" lon="-6.694640">
        <ele>654</ele>
        <time>2022-12-04T02:37:47Z</time>
      </trkpt>
      <trkpt lat="40.485870" lon="-6.694430">
        <ele>653</ele>
        <time>2022-12-04T02:37:55Z</time>
      </trkpt>
      <trkpt lat="40.486690" lon="-6.693780">
        <ele>652</ele>
        <time>2022-12-04T02:38:12Z</time>
      </trkpt>
      <trkpt lat="40.493250" lon="-6.688460">
        <ele>648</ele>
        <time>2022-12-04T02:40:29Z</time>
      </trkpt>
      <trkpt lat="40.493580" lon="-6.688230">
        <ele>648</ele>
        <time>2022-12-04T02:40:36Z</time>
      </trkpt>
      <trkpt lat="40.493880" lon="-6.688140">
        <ele>647</ele>
        <time>2022-12-04T02:40:41Z</time>
      </trkpt>
      <trkpt lat="40.498130" lon="-6.687650">
        <ele>648</ele>
        <time>2022-12-04T02:41:57Z</time>
      </trkpt>
      <trkpt lat="40.498620" lon="-6.687580">
        <ele>648</ele>
        <time>2022-12-04T02:42:06Z</time>
      </trkpt>
      <trkpt lat="40.499100" lon="-6.687480">
        <ele>648</ele>
        <time>2022-12-04T02:42:15Z</time>
      </trkpt>
      <trkpt lat="40.499430" lon="-6.687390">
        <ele>649</ele>
        <time>2022-12-04T02:42:21Z</time>
      </trkpt>
      <trkpt lat="40.503110" lon="-6.686190">
        <ele>662</ele>
        <time>2022-12-04T02:43:28Z</time>
      </trkpt>
      <trkpt lat="40.503440" lon="-6.686060">
        <ele>665</ele>
        <time>2022-12-04T02:43:34Z</time>
      </trkpt>
      <trkpt lat="40.503670" lon="-6.685920">
        <ele>667</ele>
        <time>2022-12-04T02:43:39Z</time>
      </trkpt>
      <trkpt lat="40.503900" lon="-6.685710">
        <ele>668</ele>
        <time>2022-12-04T02:43:44Z</time>
      </trkpt>
      <trkpt lat="40.504010" lon="-6.685580">
        <ele>669</ele>
        <time>2022-12-04T02:43:46Z</time>
      </trkpt>
      <trkpt lat="40.506570" lon="-6.687050">
        <ele>667</ele>
        <time>2022-12-04T02:44:36Z</time>
      </trkpt>
      <trkpt lat="40.508390" lon="-6.688130">
        <ele>663</ele>
        <time>2022-12-04T02:45:12Z</time>
      </trkpt>
      <trkpt lat="40.509160" lon="-6.688580">
        <ele>664</ele>
        <time>2022-12-04T02:45:27Z</time>
      </trkpt>
      <trkpt lat="40.509260" lon="-6.688400">
        <ele>663</ele>
        <time>2022-12-04T02:45:30Z</time>
      </trkpt>
      <trkpt lat="40.509740" lon="-6.688670">
        <ele>661</ele>
        <time>2022-12-04T02:45:39Z</time>
      </trkpt>
      <trkpt lat="40.510030" lon="-6.688880">
        <ele>661</ele>
        <time>2022-12-04T02:45:45Z</time>
      </trkpt>
      <trkpt lat="40.510290" lon="-6.689100">
        <ele>660</ele>
        <time>2022-12-04T02:45:50Z</time>
      </trkpt>
      <trkpt lat="40.510310" lon="-6.689250">
        <ele>660</ele>
        <time>2022-12-04T02:45:52Z</time>
      </trkpt>
      <trkpt lat="40.510410" lon="-6.689290">
        <ele>660</ele>
        <time>2022-12-04T02:45:54Z</time>
      </trkpt>
      <trkpt lat="40.510740" lon="-6.689320">
        <ele>658</ele>
        <time>2022-12-04T02:46:00Z</time>
      </trkpt>
      <trkpt lat="40.510750" lon="-6.689270">
        <ele>658</ele>
        <time>2022-12-04T02:46:01Z</time>
      </trkpt>
      <trkpt lat="40.510790" lon="-6.689220">
        <ele>657</ele>
        <time>2022-12-04T02:46:02Z</time>
      </trkpt>
      <trkpt lat="40.510850" lon="-6.689230">
        <ele>657</ele>
        <time>2022-12-04T02:46:03Z</time>
      </trkpt>
      <trkpt lat="40.510880" lon="-6.689280">
        <ele>657</ele>
        <time>2022-12-04T02:46:04Z</time>
      </trkpt>
      <trkpt lat="40.510970" lon="-6.689250">
        <ele>657</ele>
        <time>2022-12-04T02:46:05Z</time>
      </trkpt>
      <trkpt lat="40.511300" lon="-6.689280">
        <ele>655</ele>
        <time>2022-12-04T02:46:11Z</time>
      </trkpt>
      <trkpt lat="40.511380" lon="-6.689530">
        <ele>655</ele>
        <time>2022-12-04T02:46:15Z</time>
      </trkpt>
      <trkpt lat="40.511960" lon="-6.689540">
        <ele>653</ele>
        <time>2022-12-04T02:46:25Z</time>
      </trkpt>
      <trkpt lat="40.512280" lon="-6.689380">
        <ele>652</ele>
        <time>2022-12-04T02:46:31Z</time>
      </trkpt>
      <trkpt lat="40.512780" lon="-6.689370">
        <ele>651</ele>
        <time>2022-12-04T02:46:40Z</time>
      </trkpt>
      <trkpt lat="40.513990" lon="-6.689940">
        <ele>648</ele>
        <time>2022-12-04T02:47:03Z</time>
      </trkpt>
      <trkpt lat="40.514190" lon="-6.689960">
        <ele>648</ele>
        <time>2022-12-04T02:47:07Z</time>
      </trkpt>
      <trkpt lat="40.514800" lon="-6.689820">
        <ele>646</ele>
        <time>2022-12-04T02:47:18Z</time>
      </trkpt>
      <trkpt lat="40.514970" lon="-6.689730">
        <ele>645</ele>
        <time>2022-12-04T02:47:21Z</time>
      </trkpt>
      <trkpt lat="40.515060" lon="-6.690400">
        <ele>646</ele>
        <time>2022-12-04T02:47:30Z</time>
      </trkpt>
      <trkpt lat="40.515160" lon="-6.692060">
        <ele>638</ele>
        <time>2022-12-04T02:47:53Z</time>
      </trkpt>
      <trkpt lat="40.515250" lon="-6.693740">
        <ele>637</ele>
        <time>2022-12-04T02:48:15Z</time>
      </trkpt>
      <trkpt lat="40.515560" lon="-6.699130">
        <ele>646</ele>
        <time>2022-12-04T02:49:29Z</time>
      </trkpt>
      <trkpt lat="40.515680" lon="-6.699950">
        <ele>647</ele>
        <time>2022-12-04T02:49:40Z</time>
      </trkpt>
      <trkpt lat="40.515780" lon="-6.700430">
        <ele>648</ele>
        <time>2022-12-04T02:49:47Z</time>
      </trkpt>
      <trkpt lat="40.515900" lon="-6.700890">
        <ele>648</ele>
        <time>2022-12-04T02:49:53Z</time>
      </trkpt>
      <trkpt lat="40.516060" lon="-6.701370">
        <ele>649</ele>
        <time>2022-12-04T02:50:00Z</time>
      </trkpt>
      <trkpt lat="40.516320" lon="-6.702020">
        <ele>651</ele>
        <time>2022-12-04T02:50:10Z</time>
      </trkpt>
      <trkpt lat="40.517240" lon="-6.704000">
        <ele>659</ele>
        <time>2022-12-04T02:50:42Z</time>
      </trkpt>
      <trkpt lat="40.518190" lon="-6.705920">
        <ele>662</ele>
        <time>2022-12-04T02:51:13Z</time>
      </trkpt>
      <trkpt lat="40.519630" lon="-6.708630">
        <ele>672</ele>
        <time>2022-12-04T02:51:57Z</time>
      </trkpt>
      <trkpt lat="40.520450" lon="-6.709890">
        <ele>679</ele>
        <time>2022-12-04T02:52:20Z</time>
      </trkpt>
      <trkpt lat="40.521210" lon="-6.710700">
        <ele>682</ele>
        <time>2022-12-04T02:52:37Z</time>
      </trkpt>
      <trkpt lat="40.529170" lon="-6.716920">
        <ele>716</ele>
        <time>2022-12-04T02:55:22Z</time>
      </trkpt>
      <trkpt lat="40.529880" lon="-6.717570">
        <ele>719</ele>
        <time>2022-12-04T02:55:37Z</time>
      </trkpt>
      <trkpt lat="40.530440" lon="-6.718230">
        <ele>721</ele>
        <time>2022-12-04T02:55:51Z</time>
      </trkpt>
      <trkpt lat="40.530880" lon="-6.718870">
        <ele>721</ele>
        <time>2022-12-04T02:56:02Z</time>
      </trkpt>
      <trkpt lat="40.531330" lon="-6.719670">
        <ele>723</ele>
        <time>2022-12-04T02:56:16Z</time>
      </trkpt>
      <trkpt lat="40.531770" lon="-6.720710">
        <ele>725</ele>
        <time>2022-12-04T02:56:32Z</time>
      </trkpt>
      <trkpt lat="40.532060" lon="-6.721630">
        <ele>729</ele>
        <time>2022-12-04T02:56:45Z</time>
      </trkpt>
      <trkpt lat="40.532350" lon="-6.723080">
        <ele>731</ele>
        <time>2022-12-04T02:57:06Z</time>
      </trkpt>
      <trkpt lat="40.532540" lon="-6.726080">
        <ele>743</ele>
        <time>2022-12-04T02:57:46Z</time>
      </trkpt>
      <trkpt lat="40.532720" lon="-6.726850">
        <ele>743</ele>
        <time>2022-12-04T02:57:57Z</time>
      </trkpt>
      <trkpt lat="40.533020" lon="-6.727450">
        <ele>744</ele>
        <time>2022-12-04T02:58:07Z</time>
      </trkpt>
      <trkpt lat="40.533260" lon="-6.727750">
        <ele>744</ele>
        <time>2022-12-04T02:58:13Z</time>
      </trkpt>
      <trkpt lat="40.533670" lon="-6.728080">
        <ele>741</ele>
        <time>2022-12-04T02:58:21Z</time>
      </trkpt>
      <trkpt lat="40.534220" lon="-6.728300">
        <ele>737</ele>
        <time>2022-12-04T02:58:32Z</time>
      </trkpt>
      <trkpt lat="40.534780" lon="-6.728300">
        <ele>736</ele>
        <time>2022-12-04T02:58:41Z</time>
      </trkpt>
      <trkpt lat="40.535400" lon="-6.728050">
        <ele>734</ele>
        <time>2022-12-04T02:58:53Z</time>
      </trkpt>
      <trkpt lat="40.537540" lon="-6.726450">
        <ele>728</ele>
        <time>2022-12-04T02:59:37Z</time>
      </trkpt>
      <trkpt lat="40.538550" lon="-6.725690">
        <ele>728</ele>
        <time>2022-12-04T02:59:58Z</time>
      </trkpt>
      <trkpt lat="40.541080" lon="-6.723890">
        <ele>728</ele>
        <time>2022-12-04T03:00:49Z</time>
      </trkpt>
      <trkpt lat="40.542400" lon="-6.723150">
        <ele>727</ele>
        <time>2022-12-04T03:01:14Z</time>
      </trkpt>
      <trkpt lat="40.543840" lon="-6.722430">
        <ele>723</ele>
        <time>2022-12-04T03:01:42Z</time>
      </trkpt>
      <trkpt lat="40.544490" lon="-6.722000">
        <ele>721</ele>
        <time>2022-12-04T03:01:55Z</time>
      </trkpt>
      <trkpt lat="40.544930" lon="-6.721620">
        <ele>720</ele>
        <time>2022-12-04T03:02:04Z</time>
      </trkpt>
      <trkpt lat="40.545450" lon="-6.721070">
        <ele>716</ele>
        <time>2022-12-04T03:02:16Z</time>
      </trkpt>
      <trkpt lat="40.548750" lon="-6.717030">
        <ele>716</ele>
        <time>2022-12-04T03:03:36Z</time>
      </trkpt>
      <trkpt lat="40.549490" lon="-6.716360">
        <ele>717</ele>
        <time>2022-12-04T03:03:52Z</time>
      </trkpt>
      <trkpt lat="40.550200" lon="-6.715940">
        <ele>716</ele>
        <time>2022-12-04T03:04:06Z</time>
      </trkpt>
      <trkpt lat="40.551020" lon="-6.715680">
        <ele>716</ele>
        <time>2022-12-04T03:04:21Z</time>
      </trkpt>
      <trkpt lat="40.554590" lon="-6.714890">
        <ele>713</ele>
        <time>2022-12-04T03:05:25Z</time>
      </trkpt>
      <trkpt lat="40.556840" lon="-6.714650">
        <ele>704</ele>
        <time>2022-12-04T03:06:05Z</time>
      </trkpt>
      <trkpt lat="40.558840" lon="-6.714010">
        <ele>703</ele>
        <time>2022-12-04T03:06:42Z</time>
      </trkpt>
      <trkpt lat="40.559510" lon="-6.713860">
        <ele>704</ele>
        <time>2022-12-04T03:06:54Z</time>
      </trkpt>
      <trkpt lat="40.560150" lon="-6.713850">
        <ele>704</ele>
        <time>2022-12-04T03:07:06Z</time>
      </trkpt>
      <trkpt lat="40.561420" lon="-6.714050">
        <ele>701</ele>
        <time>2022-12-04T03:07:28Z</time>
      </trkpt>
      <trkpt lat="40.562120" lon="-6.713980">
        <ele>700</ele>
        <time>2022-12-04T03:07:41Z</time>
      </trkpt>
      <trkpt lat="40.562430" lon="-6.713870">
        <ele>699</ele>
        <time>2022-12-04T03:07:47Z</time>
      </trkpt>
      <trkpt lat="40.562850" lon="-6.713620">
        <ele>699</ele>
        <time>2022-12-04T03:07:55Z</time>
      </trkpt>
      <trkpt lat="40.564700" lon="-6.712150">
        <ele>698</ele>
        <time>2022-12-04T03:08:33Z</time>
      </trkpt>
      <trkpt lat="40.565140" lon="-6.711940">
        <ele>698</ele>
        <time>2022-12-04T03:08:41Z</time>
      </trkpt>
      <trkpt lat="40.565480" lon="-6.711850">
        <ele>695</ele>
        <time>2022-12-04T03:08:48Z</time>
      </trkpt>
      <trkpt lat="40.565940" lon="-6.711790">
        <ele>692</ele>
        <time>2022-12-04T03:08:56Z</time>
      </trkpt>
      <trkpt lat="40.566340" lon="-6.711810">
        <ele>691</ele>
        <time>2022-12-04T03:09:03Z</time>
      </trkpt>
      <trkpt lat="40.568890" lon="-6.712200">
        <ele>687</ele>
        <time>2022-12-04T03:09:49Z</time>
      </trkpt>
      <trkpt lat="40.569030" lon="-6.712220">
        <ele>687</ele>
        <time>2022-12-04T03:09:51Z</time>
      </trkpt>
      <trkpt lat="40.569980" lon="-6.712290">
        <ele>686</ele>
        <time>2022-12-04T03:10:08Z</time>
      </trkpt>
      <trkpt lat="40.570580" lon="-6.712270">
        <ele>685</ele>
        <time>2022-12-04T03:10:19Z</time>
      </trkpt>
      <trkpt lat="40.571230" lon="-6.712200">
        <ele>684</ele>
        <time>2022-12-04T03:10:30Z</time>
      </trkpt>
      <trkpt lat="40.572330" lon="-6.711950">
        <ele>684</ele>
        <time>2022-12-04T03:10:50Z</time>
      </trkpt>
      <trkpt lat="40.576080" lon="-6.710990">
        <ele>682</ele>
        <time>2022-12-04T03:11:58Z</time>
      </trkpt>
      <trkpt lat="40.576380" lon="-6.710850">
        <ele>683</ele>
        <time>2022-12-04T03:12:04Z</time>
      </trkpt>
      <trkpt lat="40.584420" lon="-6.705670">
        <ele>677</ele>
        <time>2022-12-04T03:14:43Z</time>
      </trkpt>
      <trkpt lat="40.588450" lon="-6.704570">
        <ele>679</ele>
        <time>2022-12-04T03:15:56Z</time>
      </trkpt>
      <trkpt lat="40.588660" lon="-6.704570">
        <ele>679</ele>
        <time>2022-12-04T03:16:00Z</time>
      </trkpt>
      <trkpt lat="40.588970" lon="-6.704610">
        <ele>679</ele>
        <time>2022-12-04T03:16:06Z</time>
      </trkpt>
      <trkpt lat="40.589210" lon="-6.704520">
        <ele>678</ele>
        <time>2022-12-04T03:16:10Z</time>
      </trkpt>
      <trkpt lat="40.589300" lon="-6.704430">
        <ele>678</ele>
        <time>2022-12-04T03:16:12Z</time>
      </trkpt>
      <trkpt lat="40.589400" lon="-6.704400">
        <ele>678</ele>
        <time>2022-12-04T03:16:14Z</time>
      </trkpt>
      <trkpt lat="40.589500" lon="-6.704440">
        <ele>678</ele>
        <time>2022-12-04T03:16:16Z</time>
      </trkpt>
      <trkpt lat="40.589570" lon="-6.704530">
        <ele>678</ele>
        <time>2022-12-04T03:16:18Z</time>
      </trkpt>
      <trkpt lat="40.589610" lon="-6.704660">
        <ele>678</ele>
        <time>2022-12-04T03:16:19Z</time>
      </trkpt>
      <trkpt lat="40.589830" lon="-6.704790">
        <ele>678</ele>
        <time>2022-12-04T03:16:24Z</time>
      </trkpt>
      <trkpt lat="40.590890" lon="-6.705050">
        <ele>678</ele>
        <time>2022-12-04T03:16:43Z</time>
      </trkpt>
      <trkpt lat="40.591110" lon="-6.704990">
        <ele>678</ele>
        <time>2022-12-04T03:16:47Z</time>
      </trkpt>
      <trkpt lat="40.591160" lon="-6.704920">
        <ele>678</ele>
        <time>2022-12-04T03:16:48Z</time>
      </trkpt>
      <trkpt lat="40.591220" lon="-6.704880">
        <ele>678</ele>
        <time>2022-12-04T03:16:49Z</time>
      </trkpt>
      <trkpt lat="40.591290" lon="-6.704860">
        <ele>677</ele>
        <time>2022-12-04T03:16:51Z</time>
      </trkpt>
      <trkpt lat="40.591370" lon="-6.704870">
        <ele>677</ele>
        <time>2022-12-04T03:16:52Z</time>
      </trkpt>
      <trkpt lat="40.591440" lon="-6.704930">
        <ele>677</ele>
        <time>2022-12-04T03:16:54Z</time>
      </trkpt>
      <trkpt lat="40.591490" lon="-6.704990">
        <ele>677</ele>
        <time>2022-12-04T03:16:55Z</time>
      </trkpt>
      <trkpt lat="40.591510" lon="-6.705070">
        <ele>677</ele>
        <time>2022-12-04T03:16:56Z</time>
      </trkpt>
      <trkpt lat="40.591630" lon="-6.705210">
        <ele>678</ele>
        <time>2022-12-04T03:16:59Z</time>
      </trkpt>
      <trkpt lat="40.591730" lon="-6.705270">
        <ele>678</ele>
        <time>2022-12-04T03:17:01Z</time>
      </trkpt>
      <trkpt lat="40.592110" lon="-6.705330">
        <ele>678</ele>
        <time>2022-12-04T03:17:08Z</time>
      </trkpt>
      <trkpt lat="40.592310" lon="-6.705330">
        <ele>678</ele>
        <time>2022-12-04T03:17:11Z</time>
      </trkpt>
      <trkpt lat="40.592520" lon="-6.705290">
        <ele>678</ele>
        <time>2022-12-04T03:17:15Z</time>
      </trkpt>
      <trkpt lat="40.592660" lon="-6.705250">
        <ele>679</ele>
        <time>2022-12-04T03:17:17Z</time>
      </trkpt>
      <trkpt lat="40.594650" lon="-6.704360">
        <ele>677</ele>
        <time>2022-12-04T03:17:55Z</time>
      </trkpt>
      <trkpt lat="40.594810" lon="-6.704310">
        <ele>676</ele>
        <time>2022-12-04T03:17:58Z</time>
      </trkpt>
      <trkpt lat="40.595140" lon="-6.704230">
        <ele>676</ele>
        <time>2022-12-04T03:18:04Z</time>
      </trkpt>
      <trkpt lat="40.599130" lon="-6.703830">
        <ele>671</ele>
        <time>2022-12-04T03:19:15Z</time>
      </trkpt>
      <trkpt lat="40.599350" lon="-6.703830">
        <ele>671</ele>
        <time>2022-12-04T03:19:19Z</time>
      </trkpt>
      <trkpt lat="40.599640" lon="-6.703840">
        <ele>672</ele>
        <time>2022-12-04T03:19:24Z</time>
      </trkpt>
      <trkpt lat="40.599830" lon="-6.703870">
        <ele>672</ele>
        <time>2022-12-04T03:19:27Z</time>
      </trkpt>
      <trkpt lat="40.600820" lon="-6.704100">
        <ele>670</ele>
        <time>2022-12-04T03:19:45Z</time>
      </trkpt>
      <trkpt lat="40.604850" lon="-6.705050">
        <ele>663</ele>
        <time>2022-12-04T03:20:58Z</time>
      </trkpt>
      <trkpt lat="40.605220" lon="-6.705170">
        <ele>663</ele>
        <time>2022-12-04T03:21:05Z</time>
      </trkpt>
      <trkpt lat="40.605540" lon="-6.705330">
        <ele>664</ele>
        <time>2022-12-04T03:21:11Z</time>
      </trkpt>
      <trkpt lat="40.606670" lon="-6.706070">
        <ele>661</ele>
        <time>2022-12-04T03:21:33Z</time>
      </trkpt>
      <trkpt lat="40.607080" lon="-6.706300">
        <ele>662</ele>
        <time>2022-12-04T03:21:41Z</time>
      </trkpt>
      <trkpt lat="40.607410" lon="-6.706450">
        <ele>663</ele>
        <time>2022-12-04T03:21:48Z</time>
      </trkpt>
      <trkpt lat="40.607790" lon="-6.706580">
        <ele>663</ele>
        <time>2022-12-04T03:21:55Z</time>
      </trkpt>
      <trkpt lat="40.608140" lon="-6.706670">
        <ele>662</ele>
        <time>2022-12-04T03:22:01Z</time>
      </trkpt>
      <trkpt lat="40.608500" lon="-6.706730">
        <ele>662</ele>
        <time>2022-12-04T03:22:07Z</time>
      </trkpt>
      <trkpt lat="40.608850" lon="-6.706740">
        <ele>662</ele>
        <time>2022-12-04T03:22:14Z</time>
      </trkpt>
      <trkpt lat="40.609370" lon="-6.706720">
        <ele>661</ele>
        <time>2022-12-04T03:22:23Z</time>
      </trkpt>
      <trkpt lat="40.615480" lon="-6.706080">
        <ele>658</ele>
        <time>2022-12-04T03:24:12Z</time>
      </trkpt>
      <trkpt lat="40.619640" lon="-6.705780">
        <ele>655</ele>
        <time>2022-12-04T03:25:26Z</time>
      </trkpt>
      <trkpt lat="40.620370" lon="-6.705690">
        <ele>657</ele>
        <time>2022-12-04T03:25:39Z</time>
      </trkpt>
      <trkpt lat="40.621060" lon="-6.705530">
        <ele>658</ele>
        <time>2022-12-04T03:25:52Z</time>
      </trkpt>
      <trkpt lat="40.621630" lon="-6.705320">
        <ele>656</ele>
        <time>2022-12-04T03:26:02Z</time>
      </trkpt>
      <trkpt lat="40.622380" lon="-6.704950">
        <ele>655</ele>
        <time>2022-12-04T03:26:16Z</time>
      </trkpt>
      <trkpt lat="40.624000" lon="-6.703960">
        <ele>652</ele>
        <time>2022-12-04T03:26:48Z</time>
      </trkpt>
      <trkpt lat="40.624620" lon="-6.703710">
        <ele>652</ele>
        <time>2022-12-04T03:27:00Z</time>
      </trkpt>
      <trkpt lat="40.625150" lon="-6.703600">
        <ele>652</ele>
        <time>2022-12-04T03:27:09Z</time>
      </trkpt>
      <trkpt lat="40.625620" lon="-6.703580">
        <ele>652</ele>
        <time>2022-12-04T03:27:18Z</time>
      </trkpt>
      <trkpt lat="40.626180" lon="-6.703610">
        <ele>652</ele>
        <time>2022-12-04T03:27:28Z</time>
      </trkpt>
      <trkpt lat="40.627400" lon="-6.703720">
        <ele>654</ele>
        <time>2022-12-04T03:27:49Z</time>
      </trkpt>
      <trkpt lat="40.627570" lon="-6.703780">
        <ele>655</ele>
        <time>2022-12-04T03:27:52Z</time>
      </trkpt>
      <trkpt lat="40.627400" lon="-6.703720">
        <ele>654</ele>
        <time>2022-12-04T03:27:56Z</time>
      </trkpt>
      <trkpt lat="40.628760" lon="-6.703600">
        <ele>659</ele>
        <time>2022-12-04T03:28:20Z</time>
      </trkpt>
      <trkpt lat="40.629180" lon="-6.703590">
        <ele>660</ele>
        <time>2022-12-04T03:28:27Z</time>
      </trkpt>
      <trkpt lat="40.629750" lon="-6.703810">
        <ele>661</ele>
        <time>2022-12-04T03:28:38Z</time>
      </trkpt>
      <trkpt lat="40.629840" lon="-6.703870">
        <ele>662</ele>
        <time>2022-12-04T03:28:40Z</time>
      </trkpt>
      <trkpt lat="40.630720" lon="-6.704870">
        <ele>664</ele>
        <time>2022-12-04T03:29:00Z</time>
      </trkpt>
      <trkpt lat="40.631520" lon="-6.705560">
        <ele>665</ele>
        <time>2022-12-04T03:29:17Z</time>
      </trkpt>
      <trkpt lat="40.631700" lon="-6.705680">
        <ele>665</ele>
        <time>2022-12-04T03:29:21Z</time>
      </trkpt>
      <trkpt lat="40.631890" lon="-6.705860">
        <ele>666</ele>
        <time>2022-12-04T03:29:25Z</time>
      </trkpt>
      <trkpt lat="40.632180" lon="-6.706310">
        <ele>666</ele>
        <time>2022-12-04T03:29:33Z</time>
      </trkpt>
      <trkpt lat="40.632310" lon="-6.706390">
        <ele>667</ele>
        <time>2022-12-04T03:29:36Z</time>
      </trkpt>
      <trkpt lat="40.632400" lon="-6.706500">
        <ele>667</ele>
        <time>2022-12-04T03:29:38Z</time>
      </trkpt>
      <trkpt lat="40.632460" lon="-6.706610">
        <ele>667</ele>
        <time>2022-12-04T03:29:40Z</time>
      </trkpt>
      <trkpt lat="40.632500" lon="-6.706800">
        <ele>667</ele>
        <time>2022-12-04T03:29:42Z</time>
      </trkpt>
      <trkpt lat="40.632570" lon="-6.707350">
        <ele>668</ele>
        <time>2022-12-04T03:29:50Z</time>
      </trkpt>
      <trkpt lat="40.632620" lon="-6.707590">
        <ele>668</ele>
        <time>2022-12-04T03:29:53Z</time>
      </trkpt>
      <trkpt lat="40.632850" lon="-6.708220">
        <ele>667</ele>
        <time>2022-12-04T03:30:03Z</time>
      </trkpt>
      <trkpt lat="40.632870" lon="-6.708330">
        <ele>667</ele>
        <time>2022-12-04T03:30:04Z</time>
      </trkpt>
      <trkpt lat="40.632900" lon="-6.708480">
        <ele>668</ele>
        <time>2022-12-04T03:30:06Z</time>
      </trkpt>
      <trkpt lat="40.632940" lon="-6.709040">
        <ele>669</ele>
        <time>2022-12-04T03:30:14Z</time>
      </trkpt>
      <trkpt lat="40.633020" lon="-6.709230">
        <ele>669</ele>
        <time>2022-12-04T03:30:17Z</time>
      </trkpt>
      <trkpt lat="40.633190" lon="-6.709410">
        <ele>668</ele>
        <time>2022-12-04T03:30:21Z</time>
      </trkpt>
      <trkpt lat="40.633560" lon="-6.709940">
        <ele>670</ele>
        <time>2022-12-04T03:30:30Z</time>
      </trkpt>
      <trkpt lat="40.633710" lon="-6.710110">
        <ele>671</ele>
        <time>2022-12-04T03:30:34Z</time>
      </trkpt>
      <trkpt lat="40.633770" lon="-6.710040">
        <ele>671</ele>
        <time>2022-12-04T03:30:35Z</time>
      </trkpt>
      <trkpt lat="40.633840" lon="-6.710010">
        <ele>671</ele>
        <time>2022-12-04T03:30:37Z</time>
      </trkpt>
      <trkpt lat="40.635870" lon="-6.709710">
        <ele>679</ele>
        <time>2022-12-04T03:31:13Z</time>
      </trkpt>
      <trkpt lat="40.636120" lon="-6.709700">
        <ele>679</ele>
        <time>2022-12-04T03:31:17Z</time>
      </trkpt>
      <trkpt lat="40.636350" lon="-6.709750">
        <ele>679</ele>
        <time>2022-12-04T03:31:22Z</time>
      </trkpt>
      <trkpt lat="40.637040" lon="-6.709970">
        <ele>679</ele>
        <time>2022-12-04T03:31:34Z</time>
      </trkpt>
      <trkpt lat="40.637240" lon="-6.710100">
        <ele>679</ele>
        <time>2022-12-04T03:31:38Z</time>
      </trkpt>
      <trkpt lat="40.637380" lon="-6.710270">
        <ele>679</ele>
        <time>2022-12-04T03:31:42Z</time>
      </trkpt>
      <trkpt lat="40.637450" lon="-6.710420">
        <ele>679</ele>
        <time>2022-12-04T03:31:44Z</time>
      </trkpt>
      <trkpt lat="40.638220" lon="-6.712450">
        <ele>677</ele>
        <time>2022-12-04T03:32:15Z</time>
      </trkpt>
      <trkpt lat="40.638310" lon="-6.712600">
        <ele>676</ele>
        <time>2022-12-04T03:32:17Z</time>
      </trkpt>
      <trkpt lat="40.640420" lon="-6.714560">
        <ele>683</ele>
        <time>2022-12-04T03:33:03Z</time>
      </trkpt>
      <trkpt lat="40.640590" lon="-6.714750">
        <ele>685</ele>
        <time>2022-12-04T03:33:07Z</time>
      </trkpt>
      <trkpt lat="40.642350" lon="-6.717030">
        <ele>693</ele>
        <time>2022-12-04T03:33:51Z</time>
      </trkpt>
      <trkpt lat="40.642420" lon="-6.717080">
        <ele>693</ele>
        <time>2022-12-04T03:33:52Z</time>
      </trkpt>
      <trkpt lat="40.642570" lon="-6.717150">
        <ele>694</ele>
        <time>2022-12-04T03:33:55Z</time>
      </trkpt>
      <trkpt lat="40.644470" lon="-6.717580">
        <ele>701</ele>
        <time>2022-12-04T03:34:30Z</time>
      </trkpt>
      <trkpt lat="40.644570" lon="-6.717620">
        <ele>702</ele>
        <time>2022-12-04T03:34:31Z</time>
      </trkpt>
      <trkpt lat="40.644810" lon="-6.717790">
        <ele>703</ele>
        <time>2022-12-04T03:34:36Z</time>
      </trkpt>
      <trkpt lat="40.646110" lon="-6.718960">
        <ele>701</ele>
        <time>2022-12-04T03:35:04Z</time>
      </trkpt>
      <trkpt lat="40.646240" lon="-6.719090">
        <ele>700</ele>
        <time>2022-12-04T03:35:07Z</time>
      </trkpt>
      <trkpt lat="40.646470" lon="-6.719390">
        <ele>699</ele>
        <time>2022-12-04T03:35:13Z</time>
      </trkpt>
      <trkpt lat="40.648910" lon="-6.723040">
        <ele>709</ele>
        <time>2022-12-04T03:36:19Z</time>
      </trkpt>
      <trkpt lat="40.649040" lon="-6.723150">
        <ele>709</ele>
        <time>2022-12-04T03:36:21Z</time>
      </trkpt>
      <trkpt lat="40.649200" lon="-6.723210">
        <ele>710</ele>
        <time>2022-12-04T03:36:24Z</time>
      </trkpt>
      <trkpt lat="40.654700" lon="-6.724280">
        <ele>705</ele>
        <time>2022-12-04T03:38:03Z</time>
      </trkpt>
      <trkpt lat="40.654770" lon="-6.724310">
        <ele>704</ele>
        <time>2022-12-04T03:38:05Z</time>
      </trkpt>
      <trkpt lat="40.654840" lon="-6.724370">
        <ele>704</ele>
        <time>2022-12-04T03:38:06Z</time>
      </trkpt>
      <trkpt lat="40.655270" lon="-6.724930">
        <ele>706</ele>
        <time>2022-12-04T03:38:17Z</time>
      </trkpt>
      <trkpt lat="40.655380" lon="-6.725030">
        <ele>707</ele>
        <time>2022-12-04T03:38:19Z</time>
      </trkpt>
      <trkpt lat="40.655450" lon="-6.725050">
        <ele>707</ele>
        <time>2022-12-04T03:38:20Z</time>
      </trkpt>
      <trkpt lat="40.655570" lon="-6.725040">
        <ele>707</ele>
        <time>2022-12-04T03:38:23Z</time>
      </trkpt>
      <trkpt lat="40.655690" lon="-6.724990">
        <ele>707</ele>
        <time>2022-12-04T03:38:25Z</time>
      </trkpt>
      <trkpt lat="40.656910" lon="-6.724210">
        <ele>708</ele>
        <time>2022-12-04T03:38:49Z</time>
      </trkpt>
      <trkpt lat="40.657090" lon="-6.724140">
        <ele>710</ele>
        <time>2022-12-04T03:38:52Z</time>
      </trkpt>
      <trkpt lat="40.658010" lon="-6.723930">
        <ele>714</ele>
        <time>2022-12-04T03:39:09Z</time>
      </trkpt>
      <trkpt lat="40.659630" lon="-6.724020">
        <ele>707</ele>
        <time>2022-12-04T03:39:38Z</time>
      </trkpt>
      <trkpt lat="40.659690" lon="-6.724020">
        <ele>707</ele>
        <time>2022-12-04T03:39:39Z</time>
      </trkpt>
      <trkpt lat="40.659850" lon="-6.724030">
        <ele>706</ele>
        <time>2022-12-04T03:39:42Z</time>
      </trkpt>
      <trkpt lat="40.659940" lon="-6.724010">
        <ele>705</ele>
        <time>2022-12-04T03:39:43Z</time>
      </trkpt>
      <trkpt lat="40.660010" lon="-6.723980">
        <ele>705</ele>
        <time>2022-12-04T03:39:45Z</time>
      </trkpt>
      <trkpt lat="40.660090" lon="-6.723880">
        <ele>706</ele>
        <time>2022-12-04T03:39:47Z</time>
      </trkpt>
      <trkpt lat="40.660910" lon="-6.722030">
        <ele>711</ele>
        <time>2022-12-04T03:40:15Z</time>
      </trkpt>
      <trkpt lat="40.662270" lon="-6.720220">
        <ele>717</ele>
        <time>2022-12-04T03:40:50Z</time>
      </trkpt>
      <trkpt lat="40.662370" lon="-6.720130">
        <ele>717</ele>
        <time>2022-12-04T03:40:52Z</time>
      </trkpt>
      <trkpt lat="40.662490" lon="-6.720060">
        <ele>716</ele>
        <time>2022-12-04T03:40:54Z</time>
      </trkpt>
      <trkpt lat="40.665340" lon="-6.718970">
        <ele>714</ele>
        <time>2022-12-04T03:41:47Z</time>
      </trkpt>
      <trkpt lat="40.665620" lon="-6.718900">
        <ele>713</ele>
        <time>2022-12-04T03:41:52Z</time>
      </trkpt>
      <trkpt lat="40.667200" lon="-6.718690">
        <ele>708</ele>
        <time>2022-12-04T03:42:20Z</time>
      </trkpt>
      <trkpt lat="40.667650" lon="-6.718650">
        <ele>708</ele>
        <time>2022-12-04T03:42:28Z</time>
      </trkpt>
      <trkpt lat="40.668620" lon="-6.718700">
        <ele>712</ele>
        <time>2022-12-04T03:42:46Z</time>
      </trkpt>
      <trkpt lat="40.668750" lon="-6.718730">
        <ele>712</ele>
        <time>2022-12-04T03:42:48Z</time>
      </trkpt>
      <trkpt lat="40.669000" lon="-6.718910">
        <ele>713</ele>
        <time>2022-12-04T03:42:53Z</time>
      </trkpt>
      <trkpt lat="40.670340" lon="-6.719980">
        <ele>717</ele>
        <time>2022-12-04T03:43:21Z</time>
      </trkpt>
      <trkpt lat="40.670430" lon="-6.720030">
        <ele>717</ele>
        <time>2022-12-04T03:43:23Z</time>
      </trkpt>
      <trkpt lat="40.670630" lon="-6.720090">
        <ele>717</ele>
        <time>2022-12-04T03:43:26Z</time>
      </trkpt>
      <trkpt lat="40.670740" lon="-6.720070">
        <ele>716</ele>
        <time>2022-12-04T03:43:28Z</time>
      </trkpt>
      <trkpt lat="40.670920" lon="-6.719990">
        <ele>716</ele>
        <time>2022-12-04T03:43:32Z</time>
      </trkpt>
      <trkpt lat="40.671620" lon="-6.719620">
        <ele>714</ele>
        <time>2022-12-04T03:43:45Z</time>
      </trkpt>
      <trkpt lat="40.671810" lon="-6.719590">
        <ele>713</ele>
        <time>2022-12-04T03:43:49Z</time>
      </trkpt>
      <trkpt lat="40.672180" lon="-6.719590">
        <ele>712</ele>
        <time>2022-12-04T03:43:55Z</time>
      </trkpt>
      <trkpt lat="40.673210" lon="-6.719690">
        <ele>715</ele>
        <time>2022-12-04T03:44:14Z</time>
      </trkpt>
      <trkpt lat="40.674450" lon="-6.719470">
        <ele>718</ele>
        <time>2022-12-04T03:44:36Z</time>
      </trkpt>
      <trkpt lat="40.676270" lon="-6.719500">
        <ele>718</ele>
        <time>2022-12-04T03:45:08Z</time>
      </trkpt>
      <trkpt lat="40.676360" lon="-6.719520">
        <ele>718</ele>
        <time>2022-12-04T03:45:10Z</time>
      </trkpt>
      <trkpt lat="40.676490" lon="-6.719610">
        <ele>718</ele>
        <time>2022-12-04T03:45:12Z</time>
      </trkpt>
      <trkpt lat="40.677580" lon="-6.720720">
        <ele>717</ele>
        <time>2022-12-04T03:45:37Z</time>
      </trkpt>
      <trkpt lat="40.678470" lon="-6.721650">
        <ele>721</ele>
        <time>2022-12-04T03:45:57Z</time>
      </trkpt>
      <trkpt lat="40.678660" lon="-6.721890">
        <ele>721</ele>
        <time>2022-12-04T03:46:02Z</time>
      </trkpt>
      <trkpt lat="40.679580" lon="-6.723280">
        <ele>722</ele>
        <time>2022-12-04T03:46:27Z</time>
      </trkpt>
      <trkpt lat="40.679960" lon="-6.723890">
        <ele>721</ele>
        <time>2022-12-04T03:46:37Z</time>
      </trkpt>
      <trkpt lat="40.681230" lon="-6.726260">
        <ele>722</ele>
        <time>2022-12-04T03:47:17Z</time>
      </trkpt>
      <trkpt lat="40.681360" lon="-6.726430">
        <ele>721</ele>
        <time>2022-12-04T03:47:20Z</time>
      </trkpt>
      <trkpt lat="40.681480" lon="-6.726510">
        <ele>721</ele>
        <time>2022-12-04T03:47:22Z</time>
      </trkpt>
      <trkpt lat="40.684990" lon="-6.728230">
        <ele>724</ele>
        <time>2022-12-04T03:48:29Z</time>
      </trkpt>
      <trkpt lat="40.687290" lon="-6.729330">
        <ele>728</ele>
        <time>2022-12-04T03:49:12Z</time>
      </trkpt>
      <trkpt lat="40.687760" lon="-6.729490">
        <ele>728</ele>
        <time>2022-12-04T03:49:21Z</time>
      </trkpt>
      <trkpt lat="40.689750" lon="-6.730010">
        <ele>726</ele>
        <time>2022-12-04T03:49:57Z</time>
      </trkpt>
      <trkpt lat="40.690010" lon="-6.730150">
        <ele>726</ele>
        <time>2022-12-04T03:50:02Z</time>
      </trkpt>
      <trkpt lat="40.690160" lon="-6.730260">
        <ele>726</ele>
        <time>2022-12-04T03:50:05Z</time>
      </trkpt>
      <trkpt lat="40.690250" lon="-6.730340">
        <ele>726</ele>
        <time>2022-12-04T03:50:07Z</time>
      </trkpt>
      <trkpt lat="40.690400" lon="-6.730590">
        <ele>725</ele>
        <time>2022-12-04T03:50:11Z</time>
      </trkpt>
      <trkpt lat="40.690520" lon="-6.730730">
        <ele>725</ele>
        <time>2022-12-04T03:50:14Z</time>
      </trkpt>
      <trkpt lat="40.691230" lon="-6.731420">
        <ele>724</ele>
        <time>2022-12-04T03:50:30Z</time>
      </trkpt>
      <trkpt lat="40.691380" lon="-6.731540">
        <ele>724</ele>
        <time>2022-12-04T03:50:33Z</time>
      </trkpt>
      <trkpt lat="40.691560" lon="-6.731620">
        <ele>723</ele>
        <time>2022-12-04T03:50:36Z</time>
      </trkpt>
      <trkpt lat="40.691560" lon="-6.731700">
        <ele>723</ele>
        <time>2022-12-04T03:50:37Z</time>
      </trkpt>
      <trkpt lat="40.691530" lon="-6.731900">
        <ele>723</ele>
        <time>2022-12-04T03:50:40Z</time>
      </trkpt>
      <trkpt lat="40.691050" lon="-6.733710">
        <ele>728</ele>
        <time>2022-12-04T03:51:06Z</time>
      </trkpt>
      <trkpt lat="40.690890" lon="-6.734440">
        <ele>731</ele>
        <time>2022-12-04T03:51:16Z</time>
      </trkpt>
      <trkpt lat="40.690700" lon="-6.735600">
        <ele>735</ele>
        <time>2022-12-04T03:51:32Z</time>
      </trkpt>
      <trkpt lat="40.690670" lon="-6.735940">
        <ele>736</ele>
        <time>2022-12-04T03:51:37Z</time>
      </trkpt>
      <trkpt lat="40.690620" lon="-6.738010">
        <ele>739</ele>
        <time>2022-12-04T03:52:05Z</time>
      </trkpt>
      <trkpt lat="40.690560" lon="-6.738440">
        <ele>738</ele>
        <time>2022-12-04T03:52:11Z</time>
      </trkpt>
      <trkpt lat="40.690440" lon="-6.739180">
        <ele>738</ele>
        <time>2022-12-04T03:52:21Z</time>
      </trkpt>
      <trkpt lat="40.690320" lon="-6.739720">
        <ele>736</ele>
        <time>2022-12-04T03:52:29Z</time>
      </trkpt>
      <trkpt lat="40.690200" lon="-6.740550">
        <ele>732</ele>
        <time>2022-12-04T03:52:40Z</time>
      </trkpt>
      <trkpt lat="40.690200" lon="-6.740880">
        <ele>730</ele>
        <time>2022-12-04T03:52:44Z</time>
      </trkpt>
      <trkpt lat="40.690230" lon="-6.741030">
        <ele>730</ele>
        <time>2022-12-04T03:52:47Z</time>
      </trkpt>
      <trkpt lat="40.691560" lon="-6.744180">
        <ele>727</ele>
        <time>2022-12-04T03:53:35Z</time>
      </trkpt>
      <trkpt lat="40.691820" lon="-6.744730">
        <ele>726</ele>
        <time>2022-12-04T03:53:44Z</time>
      </trkpt>
      <trkpt lat="40.692100" lon="-6.745280">
        <ele>727</ele>
        <time>2022-12-04T03:53:53Z</time>
      </trkpt>
      <trkpt lat="40.692390" lon="-6.745770">
        <ele>729</ele>
        <time>2022-12-04T03:54:01Z</time>
      </trkpt>
      <trkpt lat="40.693230" lon="-6.747490">
        <ele>730</ele>
        <time>2022-12-04T03:54:29Z</time>
      </trkpt>
      <trkpt lat="40.693760" lon="-6.748480">
        <ele>730</ele>
        <time>2022-12-04T03:54:45Z</time>
      </trkpt>
      <trkpt lat="40.695080" lon="-6.751340">
        <ele>728</ele>
        <time>2022-12-04T03:55:30Z</time>
      </trkpt>
      <trkpt lat="40.695170" lon="-6.751630">
        <ele>728</ele>
        <time>2022-12-04T03:55:35Z</time>
      </trkpt>
      <trkpt lat="40.695410" lon="-6.752500">
        <ele>726</ele>
        <time>2022-12-04T03:55:47Z</time>
      </trkpt>
      <trkpt lat="40.696200" lon="-6.754490">
        <ele>719</ele>
        <time>2022-12-04T03:56:17Z</time>
      </trkpt>
      <trkpt lat="40.696480" lon="-6.755070">
        <ele>716</ele>
        <time>2022-12-04T03:56:27Z</time>
      </trkpt>
      <trkpt lat="40.698040" lon="-6.758080">
        <ele>706</ele>
        <time>2022-12-04T03:57:16Z</time>
      </trkpt>
      <trkpt lat="40.698650" lon="-6.759800">
        <ele>697</ele>
        <time>2022-12-04T03:57:42Z</time>
      </trkpt>
      <trkpt lat="40.699400" lon="-6.762470">
        <ele>685</ele>
        <time>2022-12-04T03:58:20Z</time>
      </trkpt>
      <trkpt lat="40.699540" lon="-6.763090">
        <ele>685</ele>
        <time>2022-12-04T03:58:29Z</time>
      </trkpt>
      <trkpt lat="40.699610" lon="-6.763290">
        <ele>685</ele>
        <time>2022-12-04T03:58:32Z</time>
      </trkpt>
      <trkpt lat="40.699700" lon="-6.763440">
        <ele>685</ele>
        <time>2022-12-04T03:58:34Z</time>
      </trkpt>
      <trkpt lat="40.700020" lon="-6.763830">
        <ele>683</ele>
        <time>2022-12-04T03:58:42Z</time>
      </trkpt>
      <trkpt lat="40.700160" lon="-6.764110">
        <ele>681</ele>
        <time>2022-12-04T03:58:46Z</time>
      </trkpt>
      <trkpt lat="40.700240" lon="-6.764410">
        <ele>680</ele>
        <time>2022-12-04T03:58:51Z</time>
      </trkpt>
      <trkpt lat="40.700300" lon="-6.764750">
        <ele>680</ele>
        <time>2022-12-04T03:58:55Z</time>
      </trkpt>
      <trkpt lat="40.700290" lon="-6.764940">
        <ele>680</ele>
        <time>2022-12-04T03:58:58Z</time>
      </trkpt>
      <trkpt lat="40.700220" lon="-6.765510">
        <ele>680</ele>
        <time>2022-12-04T03:59:06Z</time>
      </trkpt>
      <trkpt lat="40.700100" lon="-6.766180">
        <ele>679</ele>
        <time>2022-12-04T03:59:15Z</time>
      </trkpt>
      <trkpt lat="40.700040" lon="-6.766410">
        <ele>679</ele>
        <time>2022-12-04T03:59:18Z</time>
      </trkpt>
      <trkpt lat="40.699940" lon="-6.766620">
        <ele>678</ele>
        <time>2022-12-04T03:59:22Z</time>
      </trkpt>
      <trkpt lat="40.699550" lon="-6.767350">
        <ele>675</ele>
        <time>2022-12-04T03:59:34Z</time>
      </trkpt>
      <trkpt lat="40.699340" lon="-6.768020">
        <ele>673</ele>
        <time>2022-12-04T03:59:44Z</time>
      </trkpt>
      <trkpt lat="40.699220" lon="-6.768240">
        <ele>673</ele>
        <time>2022-12-04T03:59:47Z</time>
      </trkpt>
      <trkpt lat="40.699060" lon="-6.768590">
        <ele>672</ele>
        <time>2022-12-04T03:59:53Z</time>
      </trkpt>
      <trkpt lat="40.698880" lon="-6.769120">
        <ele>669</ele>
        <time>2022-12-04T04:00:01Z</time>
      </trkpt>
      <trkpt lat="40.698750" lon="-6.769350">
        <ele>667</ele>
        <time>2022-12-04T04:00:04Z</time>
      </trkpt>
      <trkpt lat="40.698600" lon="-6.769730">
        <ele>665</ele>
        <time>2022-12-04T04:00:10Z</time>
      </trkpt>
      <trkpt lat="40.698390" lon="-6.770390">
        <ele>661</ele>
        <time>2022-12-04T04:00:20Z</time>
      </trkpt>
      <trkpt lat="40.698230" lon="-6.771100">
        <ele>657</ele>
        <time>2022-12-04T04:00:30Z</time>
      </trkpt>
      <trkpt lat="40.698150" lon="-6.771250">
        <ele>655</ele>
        <time>2022-12-04T04:00:32Z</time>
      </trkpt>
      <trkpt lat="40.698070" lon="-6.771730">
        <ele>652</ele>
        <time>2022-12-04T04:00:39Z</time>
      </trkpt>
      <trkpt lat="40.698090" lon="-6.772000">
        <ele>649</ele>
        <time>2022-12-04T04:00:43Z</time>
      </trkpt>
      <trkpt lat="40.698210" lon="-6.772270">
        <ele>648</ele>
        <time>2022-12-04T04:00:47Z</time>
      </trkpt>
      <trkpt lat="40.698220" lon="-6.772310">
        <ele>647</ele>
        <time>2022-12-04T04:00:47Z</time>
      </trkpt>
      <trkpt lat="40.698200" lon="-6.772450">
        <ele>646</ele>
        <time>2022-12-04T04:00:49Z</time>
      </trkpt>
      <trkpt lat="40.698230" lon="-6.772560">
        <ele>645</ele>
        <time>2022-12-04T04:00:51Z</time>
      </trkpt>
      <trkpt lat="40.698370" lon="-6.772750">
        <ele>644</ele>
        <time>2022-12-04T04:00:54Z</time>
      </trkpt>
      <trkpt lat="40.698260" lon="-6.772900">
        <ele>643</ele>
        <time>2022-12-04T04:00:57Z</time>
      </trkpt>
      <trkpt lat="40.698190" lon="-6.773040">
        <ele>642</ele>
        <time>2022-12-04T04:01:00Z</time>
      </trkpt>
      <trkpt lat="40.698080" lon="-6.773280">
        <ele>640</ele>
        <time>2022-12-04T04:01:03Z</time>
      </trkpt>
      <trkpt lat="40.696980" lon="-6.775710">
        <ele>650</ele>
        <time>2022-12-04T04:01:42Z</time>
      </trkpt>
      <trkpt lat="40.696800" lon="-6.776160">
        <ele>650</ele>
        <time>2022-12-04T04:01:48Z</time>
      </trkpt>
      <trkpt lat="40.696070" lon="-6.778850">
        <ele>657</ele>
        <time>2022-12-04T04:02:27Z</time>
      </trkpt>
      <trkpt lat="40.696030" lon="-6.779040">
        <ele>657</ele>
        <time>2022-12-04T04:02:30Z</time>
      </trkpt>
      <trkpt lat="40.696000" lon="-6.779280">
        <ele>658</ele>
        <time>2022-12-04T04:02:33Z</time>
      </trkpt>
      <trkpt lat="40.696000" lon="-6.779510">
        <ele>659</ele>
        <time>2022-12-04T04:02:36Z</time>
      </trkpt>
      <trkpt lat="40.696110" lon="-6.781780">
        <ele>669</ele>
        <time>2022-12-04T04:03:07Z</time>
      </trkpt>
      <trkpt lat="40.696210" lon="-6.783630">
        <ele>678</ele>
        <time>2022-12-04T04:03:32Z</time>
      </trkpt>
      <trkpt lat="40.696290" lon="-6.785600">
        <ele>678</ele>
        <time>2022-12-04T04:03:58Z</time>
      </trkpt>
      <trkpt lat="40.696280" lon="-6.785770">
        <ele>677</ele>
        <time>2022-12-04T04:04:01Z</time>
      </trkpt>
      <trkpt lat="40.696240" lon="-6.785970">
        <ele>676</ele>
        <time>2022-12-04T04:04:03Z</time>
      </trkpt>
      <trkpt lat="40.696200" lon="-6.786090">
        <ele>676</ele>
        <time>2022-12-04T04:04:05Z</time>
      </trkpt>
      <trkpt lat="40.695670" lon="-6.787250">
        <ele>673</ele>
        <time>2022-12-04T04:04:23Z</time>
      </trkpt>
      <trkpt lat="40.695650" lon="-6.787310">
        <ele>673</ele>
        <time>2022-12-04T04:04:24Z</time>
      </trkpt>
      <trkpt lat="40.695630" lon="-6.787380">
        <ele>673</ele>
        <time>2022-12-04T04:04:25Z</time>
      </trkpt>
      <trkpt lat="40.695630" lon="-6.787550">
        <ele>673</ele>
        <time>2022-12-04T04:04:28Z</time>
      </trkpt>
      <trkpt lat="40.695690" lon="-6.787700">
        <ele>673</ele>
        <time>2022-12-04T04:04:30Z</time>
      </trkpt>
      <trkpt lat="40.696690" lon="-6.788840">
        <ele>682</ele>
        <time>2022-12-04T04:04:53Z</time>
      </trkpt>
      <trkpt lat="40.696780" lon="-6.789050">
        <ele>683</ele>
        <time>2022-12-04T04:04:57Z</time>
      </trkpt>
      <trkpt lat="40.696810" lon="-6.789180">
        <ele>684</ele>
        <time>2022-12-04T04:04:59Z</time>
      </trkpt>
      <trkpt lat="40.697060" lon="-6.790820">
        <ele>690</ele>
        <time>2022-12-04T04:05:21Z</time>
      </trkpt>
      <trkpt lat="40.697070" lon="-6.790950">
        <ele>691</ele>
        <time>2022-12-04T04:05:23Z</time>
      </trkpt>
      <trkpt lat="40.697000" lon="-6.791420">
        <ele>696</ele>
        <time>2022-12-04T04:05:29Z</time>
      </trkpt>
      <trkpt lat="40.697020" lon="-6.791620">
        <ele>697</ele>
        <time>2022-12-04T04:05:32Z</time>
      </trkpt>
      <trkpt lat="40.697100" lon="-6.791960">
        <ele>698</ele>
        <time>2022-12-04T04:05:37Z</time>
      </trkpt>
      <trkpt lat="40.697120" lon="-6.792340">
        <ele>700</ele>
        <time>2022-12-04T04:05:42Z</time>
      </trkpt>
      <trkpt lat="40.697090" lon="-6.792680">
        <ele>702</ele>
        <time>2022-12-04T04:05:47Z</time>
      </trkpt>
      <trkpt lat="40.697020" lon="-6.793240">
        <ele>705</ele>
        <time>2022-12-04T04:05:54Z</time>
      </trkpt>
      <trkpt lat="40.696840" lon="-6.794360">
        <ele>710</ele>
        <time>2022-12-04T04:06:10Z</time>
      </trkpt>
      <trkpt lat="40.697930" lon="-6.794260">
        <ele>705</ele>
        <time>2022-12-04T04:06:29Z</time>
      </trkpt>
      <trkpt lat="40.699070" lon="-6.794190">
        <ele>706</ele>
        <time>2022-12-04T04:06:49Z</time>
      </trkpt>
      <trkpt lat="40.701610" lon="-6.794200">
        <ele>689</ele>
        <time>2022-12-04T04:07:35Z</time>
      </trkpt>
      <trkpt lat="40.702030" lon="-6.794150">
        <ele>688</ele>
        <time>2022-12-04T04:07:42Z</time>
      </trkpt>
      <trkpt lat="40.702280" lon="-6.794090">
        <ele>688</ele>
        <time>2022-12-04T04:07:47Z</time>
      </trkpt>
      <trkpt lat="40.703330" lon="-6.793750">
        <ele>688</ele>
        <time>2022-12-04T04:08:06Z</time>
      </trkpt>
      <trkpt lat="40.703870" lon="-6.793620">
        <ele>689</ele>
        <time>2022-12-04T04:08:16Z</time>
      </trkpt>
      <trkpt lat="40.704220" lon="-6.793580">
        <ele>689</ele>
        <time>2022-12-04T04:08:22Z</time>
      </trkpt>
      <trkpt lat="40.704640" lon="-6.793620">
        <ele>689</ele>
        <time>2022-12-04T04:08:29Z</time>
      </trkpt>
      <trkpt lat="40.705160" lon="-6.793740">
        <ele>689</ele>
        <time>2022-12-04T04:08:39Z</time>
      </trkpt>
      <trkpt lat="40.705360" lon="-6.793840">
        <ele>690</ele>
        <time>2022-12-04T04:08:43Z</time>
      </trkpt>
      <trkpt lat="40.706380" lon="-6.794460">
        <ele>692</ele>
        <time>2022-12-04T04:09:03Z</time>
      </trkpt>
      <trkpt lat="40.706540" lon="-6.794440">
        <ele>691</ele>
        <time>2022-12-04T04:09:05Z</time>
      </trkpt>
      <trkpt lat="40.706600" lon="-6.794450">
        <ele>691</ele>
        <time>2022-12-04T04:09:07Z</time>
      </trkpt>
      <trkpt lat="40.706970" lon="-6.794650">
        <ele>691</ele>
        <time>2022-12-04T04:09:14Z</time>
      </trkpt>
      <trkpt lat="40.707180" lon="-6.794690">
        <ele>691</ele>
        <time>2022-12-04T04:09:17Z</time>
      </trkpt>
      <trkpt lat="40.707520" lon="-6.794790">
        <ele>692</ele>
        <time>2022-12-04T04:09:24Z</time>
      </trkpt>
      <trkpt lat="40.707770" lon="-6.794900">
        <ele>692</ele>
        <time>2022-12-04T04:09:28Z</time>
      </trkpt>
      <trkpt lat="40.708070" lon="-6.794990">
        <ele>693</ele>
        <time>2022-12-04T04:09:34Z</time>
      </trkpt>
      <trkpt lat="40.708330" lon="-6.794960">
        <ele>693</ele>
        <time>2022-12-04T04:09:38Z</time>
      </trkpt>
      <trkpt lat="40.708910" lon="-6.794750">
        <ele>690</ele>
        <time>2022-12-04T04:09:49Z</time>
      </trkpt>
      <trkpt lat="40.708990" lon="-6.794680">
        <ele>690</ele>
        <time>2022-12-04T04:09:51Z</time>
      </trkpt>
      <trkpt lat="40.709470" lon="-6.794140">
        <ele>686</ele>
        <time>2022-12-04T04:10:02Z</time>
      </trkpt>
      <trkpt lat="40.709590" lon="-6.794140">
        <ele>685</ele>
        <time>2022-12-04T04:10:04Z</time>
      </trkpt>
      <trkpt lat="40.709670" lon="-6.794160">
        <ele>685</ele>
        <time>2022-12-04T04:10:06Z</time>
      </trkpt>
      <trkpt lat="40.711370" lon="-6.794800">
        <ele>679</ele>
        <time>2022-12-04T04:10:37Z</time>
      </trkpt>
      <trkpt lat="40.711900" lon="-6.794940">
        <ele>679</ele>
        <time>2022-12-04T04:10:47Z</time>
      </trkpt>
      <trkpt lat="40.712340" lon="-6.794970">
        <ele>680</ele>
        <time>2022-12-04T04:10:55Z</time>
      </trkpt>
      <trkpt lat="40.712800" lon="-6.794960">
        <ele>680</ele>
        <time>2022-12-04T04:11:03Z</time>
      </trkpt>
      <trkpt lat="40.713010" lon="-6.794990">
        <ele>680</ele>
        <time>2022-12-04T04:11:06Z</time>
      </trkpt>
      <trkpt lat="40.715760" lon="-6.795530">
        <ele>684</ele>
        <time>2022-12-04T04:11:56Z</time>
      </trkpt>
      <trkpt lat="40.716160" lon="-6.795660">
        <ele>684</ele>
        <time>2022-12-04T04:12:03Z</time>
      </trkpt>
      <trkpt lat="40.716460" lon="-6.795890">
        <ele>683</ele>
        <time>2022-12-04T04:12:09Z</time>
      </trkpt>
      <trkpt lat="40.717140" lon="-6.796610">
        <ele>686</ele>
        <time>2022-12-04T04:12:25Z</time>
      </trkpt>
      <trkpt lat="40.718610" lon="-6.799370">
        <ele>695</ele>
        <time>2022-12-04T04:13:10Z</time>
      </trkpt>
      <trkpt lat="40.718950" lon="-6.799830">
        <ele>696</ele>
        <time>2022-12-04T04:13:19Z</time>
      </trkpt>
      <trkpt lat="40.719550" lon="-6.800300">
        <ele>698</ele>
        <time>2022-12-04T04:13:32Z</time>
      </trkpt>
      <trkpt lat="40.720010" lon="-6.800580">
        <ele>698</ele>
        <time>2022-12-04T04:13:41Z</time>
      </trkpt>
      <trkpt lat="40.721740" lon="-6.801150">
        <ele>691</ele>
        <time>2022-12-04T04:14:12Z</time>
      </trkpt>
      <trkpt lat="40.722080" lon="-6.801320">
        <ele>690</ele>
        <time>2022-12-04T04:14:19Z</time>
      </trkpt>
      <trkpt lat="40.723850" lon="-6.802760">
        <ele>688</ele>
        <time>2022-12-04T04:14:56Z</time>
      </trkpt>
      <trkpt lat="40.724110" lon="-6.802920">
        <ele>688</ele>
        <time>2022-12-04T04:15:01Z</time>
      </trkpt>
      <trkpt lat="40.725520" lon="-6.803270">
        <ele>693</ele>
        <time>2022-12-04T04:15:26Z</time>
      </trkpt>
      <trkpt lat="40.728600" lon="-6.803370">
        <ele>712</ele>
        <time>2022-12-04T04:16:21Z</time>
      </trkpt>
      <trkpt lat="40.731670" lon="-6.803070">
        <ele>728</ele>
        <time>2022-12-04T04:17:16Z</time>
      </trkpt>
      <trkpt lat="40.733450" lon="-6.803700">
        <ele>730</ele>
        <time>2022-12-04T04:17:49Z</time>
      </trkpt>
      <trkpt lat="40.733740" lon="-6.803820">
        <ele>731</ele>
        <time>2022-12-04T04:17:54Z</time>
      </trkpt>
      <trkpt lat="40.737310" lon="-6.805640">
        <ele>744</ele>
        <time>2022-12-04T04:19:02Z</time>
      </trkpt>
      <trkpt lat="40.737500" lon="-6.805780">
        <ele>744</ele>
        <time>2022-12-04T04:19:06Z</time>
      </trkpt>
      <trkpt lat="40.740730" lon="-6.810490">
        <ele>743</ele>
        <time>2022-12-04T04:20:32Z</time>
      </trkpt>
      <trkpt lat="40.741120" lon="-6.810830">
        <ele>744</ele>
        <time>2022-12-04T04:20:40Z</time>
      </trkpt>
      <trkpt lat="40.741430" lon="-6.810930">
        <ele>743</ele>
        <time>2022-12-04T04:20:46Z</time>
      </trkpt>
      <trkpt lat="40.747270" lon="-6.811950">
        <ele>738</ele>
        <time>2022-12-04T04:22:31Z</time>
      </trkpt>
      <trkpt lat="40.747590" lon="-6.811920">
        <ele>737</ele>
        <time>2022-12-04T04:22:36Z</time>
      </trkpt>
      <trkpt lat="40.751920" lon="-6.810980">
        <ele>732</ele>
        <time>2022-12-04T04:23:54Z</time>
      </trkpt>
      <trkpt lat="40.759650" lon="-6.811130">
        <ele>738</ele>
        <time>2022-12-04T04:26:12Z</time>
      </trkpt>
      <trkpt lat="40.759940" lon="-6.811080">
        <ele>738</ele>
        <time>2022-12-04T04:26:17Z</time>
      </trkpt>
      <trkpt lat="40.761290" lon="-6.810500">
        <ele>738</ele>
        <time>2022-12-04T04:26:42Z</time>
      </trkpt>
      <trkpt lat="40.762050" lon="-6.810500">
        <ele>737</ele>
        <time>2022-12-04T04:26:56Z</time>
      </trkpt>
      <trkpt lat="40.762260" lon="-6.810360">
        <ele>736</ele>
        <time>2022-12-04T04:27:00Z</time>
      </trkpt>
      <trkpt lat="40.763840" lon="-6.808730">
        <ele>730</ele>
        <time>2022-12-04T04:27:36Z</time>
      </trkpt>
      <trkpt lat="40.764750" lon="-6.807970">
        <ele>726</ele>
        <time>2022-12-04T04:27:55Z</time>
      </trkpt>
      <trkpt lat="40.766100" lon="-6.806630">
        <ele>725</ele>
        <time>2022-12-04T04:28:25Z</time>
      </trkpt>
      <trkpt lat="40.767540" lon="-6.804890">
        <ele>724</ele>
        <time>2022-12-04T04:29:00Z</time>
      </trkpt>
      <trkpt lat="40.771030" lon="-6.802090">
        <ele>735</ele>
        <time>2022-12-04T04:30:12Z</time>
      </trkpt>
      <trkpt lat="40.772420" lon="-6.801580">
        <ele>735</ele>
        <time>2022-12-04T04:30:38Z</time>
      </trkpt>
      <trkpt lat="40.780550" lon="-6.798600">
        <ele>717</ele>
        <time>2022-12-04T04:33:08Z</time>
      </trkpt>
      <trkpt lat="40.781050" lon="-6.798430">
        <ele>715</ele>
        <time>2022-12-04T04:33:17Z</time>
      </trkpt>
      <trkpt lat="40.781440" lon="-6.798400">
        <ele>714</ele>
        <time>2022-12-04T04:33:24Z</time>
      </trkpt>
      <trkpt lat="40.781650" lon="-6.798420">
        <ele>714</ele>
        <time>2022-12-04T04:33:28Z</time>
      </trkpt>
      <trkpt lat="40.782100" lon="-6.798560">
        <ele>713</ele>
        <time>2022-12-04T04:33:36Z</time>
      </trkpt>
      <trkpt lat="40.786070" lon="-6.800350">
        <ele>711</ele>
        <time>2022-12-04T04:34:51Z</time>
      </trkpt>
      <trkpt lat="40.791420" lon="-6.801950">
        <ele>712</ele>
        <time>2022-12-04T04:36:29Z</time>
      </trkpt>
      <trkpt lat="40.792180" lon="-6.802200">
        <ele>712</ele>
        <time>2022-12-04T04:36:42Z</time>
      </trkpt>
      <trkpt lat="40.792360" lon="-6.802300">
        <ele>713</ele>
        <time>2022-12-04T04:36:46Z</time>
      </trkpt>
      <trkpt lat="40.794560" lon="-6.803810">
        <ele>714</ele>
        <time>2022-12-04T04:37:30Z</time>
      </trkpt>
      <trkpt lat="40.796510" lon="-6.805120">
        <ele>714</ele>
        <time>2022-12-04T04:38:09Z</time>
      </trkpt>
      <trkpt lat="40.796630" lon="-6.805150">
        <ele>714</ele>
        <time>2022-12-04T04:38:11Z</time>
      </trkpt>
      <trkpt lat="40.796900" lon="-6.805120">
        <ele>713</ele>
        <time>2022-12-04T04:38:16Z</time>
      </trkpt>
      <trkpt lat="40.800440" lon="-6.804050">
        <ele>708</ele>
        <time>2022-12-04T04:39:21Z</time>
      </trkpt>
      <trkpt lat="40.801150" lon="-6.803870">
        <ele>708</ele>
        <time>2022-12-04T04:39:33Z</time>
      </trkpt>
      <trkpt lat="40.804400" lon="-6.803630">
        <ele>705</ele>
        <time>2022-12-04T04:40:31Z</time>
      </trkpt>
      <trkpt lat="40.804550" lon="-6.803660">
        <ele>706</ele>
        <time>2022-12-04T04:40:34Z</time>
      </trkpt>
      <trkpt lat="40.804690" lon="-6.803750">
        <ele>706</ele>
        <time>2022-12-04T04:40:37Z</time>
      </trkpt>
      <trkpt lat="40.806560" lon="-6.805230">
        <ele>706</ele>
        <time>2022-12-04T04:41:16Z</time>
      </trkpt>
      <trkpt lat="40.806840" lon="-6.805360">
        <ele>705</ele>
        <time>2022-12-04T04:41:21Z</time>
      </trkpt>
      <trkpt lat="40.813520" lon="-6.806270">
        <ele>688</ele>
        <time>2022-12-04T04:43:20Z</time>
      </trkpt>
      <trkpt lat="40.813970" lon="-6.806430">
        <ele>686</ele>
        <time>2022-12-04T04:43:29Z</time>
      </trkpt>
      <trkpt lat="40.815530" lon="-6.807180">
        <ele>684</ele>
        <time>2022-12-04T04:43:58Z</time>
      </trkpt>
      <trkpt lat="40.815960" lon="-6.807220">
        <ele>685</ele>
        <time>2022-12-04T04:44:06Z</time>
      </trkpt>
      <trkpt lat="40.816400" lon="-6.807050">
        <ele>686</ele>
        <time>2022-12-04T04:44:14Z</time>
      </trkpt>
      <trkpt lat="40.818580" lon="-6.805830">
        <ele>689</ele>
        <time>2022-12-04T04:44:56Z</time>
      </trkpt>
      <trkpt lat="40.819930" lon="-6.804700">
        <ele>687</ele>
        <time>2022-12-04T04:45:25Z</time>
      </trkpt>
      <trkpt lat="40.821130" lon="-6.804520">
        <ele>684</ele>
        <time>2022-12-04T04:45:46Z</time>
      </trkpt>
      <trkpt lat="40.821270" lon="-6.804370">
        <ele>684</ele>
        <time>2022-12-04T04:45:49Z</time>
      </trkpt>
      <trkpt lat="40.822000" lon="-6.802710">
        <ele>677</ele>
        <time>2022-12-04T04:46:15Z</time>
      </trkpt>
      <trkpt lat="40.822260" lon="-6.802460">
        <ele>676</ele>
        <time>2022-12-04T04:46:21Z</time>
      </trkpt>
      <trkpt lat="40.822880" lon="-6.802120">
        <ele>673</ele>
        <time>2022-12-04T04:46:33Z</time>
      </trkpt>
      <trkpt lat="40.823250" lon="-6.802030">
        <ele>673</ele>
        <time>2022-12-04T04:46:40Z</time>
      </trkpt>
      <trkpt lat="40.825160" lon="-6.802190">
        <ele>666</ele>
        <time>2022-12-04T04:47:14Z</time>
      </trkpt>
      <trkpt lat="40.825380" lon="-6.802200">
        <ele>665</ele>
        <time>2022-12-04T04:47:17Z</time>
      </trkpt>
      <trkpt lat="40.825540" lon="-6.802140">
        <ele>665</ele>
        <time>2022-12-04T04:47:20Z</time>
      </trkpt>
      <trkpt lat="40.825700" lon="-6.802040">
        <ele>665</ele>
        <time>2022-12-04T04:47:24Z</time>
      </trkpt>
      <trkpt lat="40.827300" lon="-6.800750">
        <ele>670</ele>
        <time>2022-12-04T04:47:57Z</time>
      </trkpt>
      <trkpt lat="40.827390" lon="-6.800630">
        <ele>671</ele>
        <time>2022-12-04T04:47:59Z</time>
      </trkpt>
      <trkpt lat="40.827490" lon="-6.800470">
        <ele>671</ele>
        <time>2022-12-04T04:48:02Z</time>
      </trkpt>
      <trkpt lat="40.827790" lon="-6.799860">
        <ele>668</ele>
        <time>2022-12-04T04:48:12Z</time>
      </trkpt>
      <trkpt lat="40.827970" lon="-6.799530">
        <ele>666</ele>
        <time>2022-12-04T04:48:17Z</time>
      </trkpt>
      <trkpt lat="40.828040" lon="-6.799450">
        <ele>665</ele>
        <time>2022-12-04T04:48:19Z</time>
      </trkpt>
      <trkpt lat="40.828380" lon="-6.799130">
        <ele>665</ele>
        <time>2022-12-04T04:48:26Z</time>
      </trkpt>
      <trkpt lat="40.828470" lon="-6.799000">
        <ele>665</ele>
        <time>2022-12-04T04:48:29Z</time>
      </trkpt>
      <trkpt lat="40.828550" lon="-6.798830">
        <ele>664</ele>
        <time>2022-12-04T04:48:31Z</time>
      </trkpt>
      <trkpt lat="40.828720" lon="-6.798200">
        <ele>660</ele>
        <time>2022-12-04T04:48:40Z</time>
      </trkpt>
      <trkpt lat="40.828770" lon="-6.798080">
        <ele>659</ele>
        <time>2022-12-04T04:48:42Z</time>
      </trkpt>
      <trkpt lat="40.828830" lon="-6.797970">
        <ele>659</ele>
        <time>2022-12-04T04:48:44Z</time>
      </trkpt>
      <trkpt lat="40.829520" lon="-6.797150">
        <ele>657</ele>
        <time>2022-12-04T04:49:01Z</time>
      </trkpt>
      <trkpt lat="40.829800" lon="-6.796870">
        <ele>657</ele>
        <time>2022-12-04T04:49:07Z</time>
      </trkpt>
      <trkpt lat="40.830300" lon="-6.796710">
        <ele>656</ele>
        <time>2022-12-04T04:49:16Z</time>
      </trkpt>
      <trkpt lat="40.830500" lon="-6.796740">
        <ele>656</ele>
        <time>2022-12-04T04:49:20Z</time>
      </trkpt>
      <trkpt lat="40.830860" lon="-6.796880">
        <ele>656</ele>
        <time>2022-12-04T04:49:26Z</time>
      </trkpt>
      <trkpt lat="40.831010" lon="-6.796880">
        <ele>654</ele>
        <time>2022-12-04T04:49:29Z</time>
      </trkpt>
      <trkpt lat="40.831100" lon="-6.796830">
        <ele>652</ele>
        <time>2022-12-04T04:49:31Z</time>
      </trkpt>
      <trkpt lat="40.831170" lon="-6.796760">
        <ele>651</ele>
        <time>2022-12-04T04:49:32Z</time>
      </trkpt>
      <trkpt lat="40.831650" lon="-6.795950">
        <ele>646</ele>
        <time>2022-12-04T04:49:46Z</time>
      </trkpt>
      <trkpt lat="40.831960" lon="-6.795650">
        <ele>643</ele>
        <time>2022-12-04T04:49:53Z</time>
      </trkpt>
      <trkpt lat="40.832130" lon="-6.795550">
        <ele>641</ele>
        <time>2022-12-04T04:49:56Z</time>
      </trkpt>
      <trkpt lat="40.832280" lon="-6.795550">
        <ele>639</ele>
        <time>2022-12-04T04:49:59Z</time>
      </trkpt>
      <trkpt lat="40.833450" lon="-6.795980">
        <ele>628</ele>
        <time>2022-12-04T04:50:21Z</time>
      </trkpt>
      <trkpt lat="40.833500" lon="-6.796040">
        <ele>627</ele>
        <time>2022-12-04T04:50:22Z</time>
      </trkpt>
      <trkpt lat="40.833520" lon="-6.796130">
        <ele>626</ele>
        <time>2022-12-04T04:50:23Z</time>
      </trkpt>
      <trkpt lat="40.833520" lon="-6.796230">
        <ele>625</ele>
        <time>2022-12-04T04:50:24Z</time>
      </trkpt>
      <trkpt lat="40.833490" lon="-6.796520">
        <ele>624</ele>
        <time>2022-12-04T04:50:28Z</time>
      </trkpt>
      <trkpt lat="40.833520" lon="-6.796640">
        <ele>623</ele>
        <time>2022-12-04T04:50:30Z</time>
      </trkpt>
      <trkpt lat="40.833570" lon="-6.796710">
        <ele>622</ele>
        <time>2022-12-04T04:50:31Z</time>
      </trkpt>
      <trkpt lat="40.833650" lon="-6.796750">
        <ele>621</ele>
        <time>2022-12-04T04:50:33Z</time>
      </trkpt>
      <trkpt lat="40.834110" lon="-6.796720">
        <ele>616</ele>
        <time>2022-12-04T04:50:41Z</time>
      </trkpt>
      <trkpt lat="40.834210" lon="-6.796680">
        <ele>615</ele>
        <time>2022-12-04T04:50:43Z</time>
      </trkpt>
      <trkpt lat="40.834290" lon="-6.796600">
        <ele>614</ele>
        <time>2022-12-04T04:50:45Z</time>
      </trkpt>
      <trkpt lat="40.834360" lon="-6.796470">
        <ele>614</ele>
        <time>2022-12-04T04:50:47Z</time>
      </trkpt>
      <trkpt lat="40.834490" lon="-6.795940">
        <ele>614</ele>
        <time>2022-12-04T04:50:54Z</time>
      </trkpt>
      <trkpt lat="40.834520" lon="-6.796240">
        <ele>612</ele>
        <time>2022-12-04T04:50:58Z</time>
      </trkpt>
      <trkpt lat="40.834500" lon="-6.797000">
        <ele>609</ele>
        <time>2022-12-04T04:51:09Z</time>
      </trkpt>
      <trkpt lat="40.834470" lon="-6.797130">
        <ele>608</ele>
        <time>2022-12-04T04:51:10Z</time>
      </trkpt>
      <trkpt lat="40.834400" lon="-6.797290">
        <ele>609</ele>
        <time>2022-12-04T04:51:13Z</time>
      </trkpt>
      <trkpt lat="40.834350" lon="-6.797450">
        <ele>608</ele>
        <time>2022-12-04T04:51:15Z</time>
      </trkpt>
      <trkpt lat="40.834340" lon="-6.797590">
        <ele>609</ele>
        <time>2022-12-04T04:51:17Z</time>
      </trkpt>
      <trkpt lat="40.834380" lon="-6.797840">
        <ele>609</ele>
        <time>2022-12-04T04:51:21Z</time>
      </trkpt>
      <trkpt lat="40.834470" lon="-6.798070">
        <ele>608</ele>
        <time>2022-12-04T04:51:24Z</time>
      </trkpt>
      <trkpt lat="40.834540" lon="-6.798300">
        <ele>607</ele>
        <time>2022-12-04T04:51:27Z</time>
      </trkpt>
      <trkpt lat="40.834560" lon="-6.798460">
        <ele>607</ele>
        <time>2022-12-04T04:51:30Z</time>
      </trkpt>
      <trkpt lat="40.834580" lon="-6.798640">
        <ele>607</ele>
        <time>2022-12-04T04:51:32Z</time>
      </trkpt>
      <trkpt lat="40.834570" lon="-6.798870">
        <ele>608</ele>
        <time>2022-12-04T04:51:35Z</time>
      </trkpt>
      <trkpt lat="40.834530" lon="-6.799360">
        <ele>609</ele>
        <time>2022-12-04T04:51:42Z</time>
      </trkpt>
      <trkpt lat="40.834450" lon="-6.799860">
        <ele>609</ele>
        <time>2022-12-04T04:51:49Z</time>
      </trkpt>
      <trkpt lat="40.834320" lon="-6.800380">
        <ele>609</ele>
        <time>2022-12-04T04:51:56Z</time>
      </trkpt>
      <trkpt lat="40.834010" lon="-6.801090">
        <ele>611</ele>
        <time>2022-12-04T04:52:07Z</time>
      </trkpt>
      <trkpt lat="40.833960" lon="-6.801260">
        <ele>613</ele>
        <time>2022-12-04T04:52:09Z</time>
      </trkpt>
      <trkpt lat="40.833920" lon="-6.801460">
        <ele>614</ele>
        <time>2022-12-04T04:52:12Z</time>
      </trkpt>
      <trkpt lat="40.833910" lon="-6.801770">
        <ele>615</ele>
        <time>2022-12-04T04:52:16Z</time>
      </trkpt>
      <trkpt lat="40.833930" lon="-6.801890">
        <ele>616</ele>
        <time>2022-12-04T04:52:18Z</time>
      </trkpt>
      <trkpt lat="40.834010" lon="-6.802120">
        <ele>617</ele>
        <time>2022-12-04T04:52:22Z</time>
      </trkpt>
      <trkpt lat="40.834410" lon="-6.802590">
        <ele>619</ele>
        <time>2022-12-04T04:52:31Z</time>
      </trkpt>
      <trkpt lat="40.834470" lon="-6.802740">
        <ele>619</ele>
        <time>2022-12-04T04:52:33Z</time>
      </trkpt>
      <trkpt lat="40.834630" lon="-6.803340">
        <ele>619</ele>
        <time>2022-12-04T04:52:42Z</time>
      </trkpt>
      <trkpt lat="40.834790" lon="-6.803780">
        <ele>617</ele>
        <time>2022-12-04T04:52:48Z</time>
      </trkpt>
      <trkpt lat="40.835230" lon="-6.804570">
        <ele>612</ele>
        <time>2022-12-04T04:53:02Z</time>
      </trkpt>
      <trkpt lat="40.835500" lon="-6.805110">
        <ele>609</ele>
        <time>2022-12-04T04:53:10Z</time>
      </trkpt>
      <trkpt lat="40.835590" lon="-6.805400">
        <ele>607</ele>
        <time>2022-12-04T04:53:15Z</time>
      </trkpt>
      <trkpt lat="40.835600" lon="-6.805530">
        <ele>607</ele>
        <time>2022-12-04T04:53:16Z</time>
      </trkpt>
      <trkpt lat="40.835550" lon="-6.805990">
        <ele>605</ele>
        <time>2022-12-04T04:53:23Z</time>
      </trkpt>
      <trkpt lat="40.835520" lon="-6.806270">
        <ele>603</ele>
        <time>2022-12-04T04:53:26Z</time>
      </trkpt>
      <trkpt lat="40.835470" lon="-6.806450">
        <ele>603</ele>
        <time>2022-12-04T04:53:29Z</time>
      </trkpt>
      <trkpt lat="40.835180" lon="-6.807180">
        <ele>599</ele>
        <time>2022-12-04T04:53:40Z</time>
      </trkpt>
      <trkpt lat="40.834810" lon="-6.807970">
        <ele>595</ele>
        <time>2022-12-04T04:53:53Z</time>
      </trkpt>
      <trkpt lat="40.834520" lon="-6.808460">
        <ele>596</ele>
        <time>2022-12-04T04:54:01Z</time>
      </trkpt>
      <trkpt lat="40.834480" lon="-6.808660">
        <ele>599</ele>
        <time>2022-12-04T04:54:04Z</time>
      </trkpt>
      <trkpt lat="40.834510" lon="-6.808800">
        <ele>601</ele>
        <time>2022-12-04T04:54:06Z</time>
      </trkpt>
      <trkpt lat="40.834560" lon="-6.808840">
        <ele>602</ele>
        <time>2022-12-04T04:54:07Z</time>
      </trkpt>
      <trkpt lat="40.834680" lon="-6.808850">
        <ele>601</ele>
        <time>2022-12-04T04:54:09Z</time>
      </trkpt>
      <trkpt lat="40.835000" lon="-6.808720">
        <ele>598</ele>
        <time>2022-12-04T04:54:15Z</time>
      </trkpt>
      <trkpt lat="40.835200" lon="-6.808670">
        <ele>597</ele>
        <time>2022-12-04T04:54:18Z</time>
      </trkpt>
      <trkpt lat="40.835380" lon="-6.808650">
        <ele>597</ele>
        <time>2022-12-04T04:54:22Z</time>
      </trkpt>
      <trkpt lat="40.835720" lon="-6.808650">
        <ele>597</ele>
        <time>2022-12-04T04:54:28Z</time>
      </trkpt>
      <trkpt lat="40.835880" lon="-6.808700">
        <ele>598</ele>
        <time>2022-12-04T04:54:31Z</time>
      </trkpt>
      <trkpt lat="40.837370" lon="-6.809230">
        <ele>600</ele>
        <time>2022-12-04T04:54:58Z</time>
      </trkpt>
      <trkpt lat="40.837480" lon="-6.809290">
        <ele>601</ele>
        <time>2022-12-04T04:55:00Z</time>
      </trkpt>
      <trkpt lat="40.837580" lon="-6.809400">
        <ele>601</ele>
        <time>2022-12-04T04:55:03Z</time>
      </trkpt>
      <trkpt lat="40.837690" lon="-6.809560">
        <ele>602</ele>
        <time>2022-12-04T04:55:05Z</time>
      </trkpt>
      <trkpt lat="40.837820" lon="-6.809860">
        <ele>603</ele>
        <time>2022-12-04T04:55:10Z</time>
      </trkpt>
      <trkpt lat="40.837990" lon="-6.810430">
        <ele>604</ele>
        <time>2022-12-04T04:55:18Z</time>
      </trkpt>
      <trkpt lat="40.838090" lon="-6.810800">
        <ele>604</ele>
        <time>2022-12-04T04:55:24Z</time>
      </trkpt>
      <trkpt lat="40.838140" lon="-6.811140">
        <ele>603</ele>
        <time>2022-12-04T04:55:28Z</time>
      </trkpt>
      <trkpt lat="40.838330" lon="-6.813460">
        <ele>594</ele>
        <time>2022-12-04T04:56:00Z</time>
      </trkpt>
      <trkpt lat="40.838340" lon="-6.813650">
        <ele>592</ele>
        <time>2022-12-04T04:56:02Z</time>
      </trkpt>
      <trkpt lat="40.838260" lon="-6.814270">
        <ele>589</ele>
        <time>2022-12-04T04:56:11Z</time>
      </trkpt>
      <trkpt lat="40.838240" lon="-6.814640">
        <ele>589</ele>
        <time>2022-12-04T04:56:16Z</time>
      </trkpt>
      <trkpt lat="40.838260" lon="-6.814840">
        <ele>588</ele>
        <time>2022-12-04T04:56:18Z</time>
      </trkpt>
      <trkpt lat="40.838340" lon="-6.815110">
        <ele>587</ele>
        <time>2022-12-04T04:56:22Z</time>
      </trkpt>
      <trkpt lat="40.838760" lon="-6.816000">
        <ele>588</ele>
        <time>2022-12-04T04:56:37Z</time>
      </trkpt>
      <trkpt lat="40.838990" lon="-6.816970">
        <ele>585</ele>
        <time>2022-12-04T04:56:50Z</time>
      </trkpt>
      <trkpt lat="40.839090" lon="-6.817250">
        <ele>584</ele>
        <time>2022-12-04T04:56:54Z</time>
      </trkpt>
      <trkpt lat="40.839160" lon="-6.817360">
        <ele>583</ele>
        <time>2022-12-04T04:56:56Z</time>
      </trkpt>
      <trkpt lat="40.839500" lon="-6.817710">
        <ele>583</ele>
        <time>2022-12-04T04:57:04Z</time>
      </trkpt>
      <trkpt lat="40.839620" lon="-6.817860">
        <ele>583</ele>
        <time>2022-12-04T04:57:07Z</time>
      </trkpt>
      <trkpt lat="40.839820" lon="-6.818200">
        <ele>582</ele>
        <time>2022-12-04T04:57:13Z</time>
      </trkpt>
      <trkpt lat="40.839910" lon="-6.818430">
        <ele>580</ele>
        <time>2022-12-04T04:57:16Z</time>
      </trkpt>
      <trkpt lat="40.840150" lon="-6.819330">
        <ele>576</ele>
        <time>2022-12-04T04:57:29Z</time>
      </trkpt>
      <trkpt lat="40.840240" lon="-6.819590">
        <ele>575</ele>
        <time>2022-12-04T04:57:33Z</time>
      </trkpt>
      <trkpt lat="40.840430" lon="-6.820000">
        <ele>573</ele>
        <time>2022-12-04T04:57:39Z</time>
      </trkpt>
      <trkpt lat="40.840650" lon="-6.820310">
        <ele>573</ele>
        <time>2022-12-04T04:57:45Z</time>
      </trkpt>
      <trkpt lat="40.840810" lon="-6.820500">
        <ele>573</ele>
        <time>2022-12-04T04:57:49Z</time>
      </trkpt>
      <trkpt lat="40.840950" lon="-6.820630">
        <ele>572</ele>
        <time>2022-12-04T04:57:52Z</time>
      </trkpt>
      <trkpt lat="40.841430" lon="-6.821010">
        <ele>572</ele>
        <time>2022-12-04T04:58:02Z</time>
      </trkpt>
      <trkpt lat="40.841570" lon="-6.821150">
        <ele>572</ele>
        <time>2022-12-04T04:58:05Z</time>
      </trkpt>
      <trkpt lat="40.841650" lon="-6.821270">
        <ele>572</ele>
        <time>2022-12-04T04:58:07Z</time>
      </trkpt>
      <trkpt lat="40.841690" lon="-6.821380">
        <ele>573</ele>
        <time>2022-12-04T04:58:09Z</time>
      </trkpt>
      <trkpt lat="40.841720" lon="-6.821570">
        <ele>574</ele>
        <time>2022-12-04T04:58:11Z</time>
      </trkpt>
      <trkpt lat="40.841740" lon="-6.822130">
        <ele>576</ele>
        <time>2022-12-04T04:58:19Z</time>
      </trkpt>
      <trkpt lat="40.841770" lon="-6.822370">
        <ele>575</ele>
        <time>2022-12-04T04:58:22Z</time>
      </trkpt>
      <trkpt lat="40.841820" lon="-6.822590">
        <ele>575</ele>
        <time>2022-12-04T04:58:25Z</time>
      </trkpt>
      <trkpt lat="40.841920" lon="-6.822920">
        <ele>574</ele>
        <time>2022-12-04T04:58:30Z</time>
      </trkpt>
      <trkpt lat="40.842120" lon="-6.823250">
        <ele>572</ele>
        <time>2022-12-04T04:58:36Z</time>
      </trkpt>
      <trkpt lat="40.842270" lon="-6.823430">
        <ele>570</ele>
        <time>2022-12-04T04:58:39Z</time>
      </trkpt>
      <trkpt lat="40.842620" lon="-6.823760">
        <ele>564</ele>
        <time>2022-12-04T04:58:47Z</time>
      </trkpt>
      <trkpt lat="40.843200" lon="-6.824420">
        <ele>557</ele>
        <time>2022-12-04T04:59:01Z</time>
      </trkpt>
      <trkpt lat="40.843260" lon="-6.824530">
        <ele>555</ele>
        <time>2022-12-04T04:59:03Z</time>
      </trkpt>
      <trkpt lat="40.843330" lon="-6.824790">
        <ele>554</ele>
        <time>2022-12-04T04:59:06Z</time>
      </trkpt>
      <trkpt lat="40.843350" lon="-6.825140">
        <ele>553</ele>
        <time>2022-12-04T04:59:11Z</time>
      </trkpt>
      <trkpt lat="40.843320" lon="-6.825370">
        <ele>552</ele>
        <time>2022-12-04T04:59:14Z</time>
      </trkpt>
      <trkpt lat="40.843210" lon="-6.825910">
        <ele>551</ele>
        <time>2022-12-04T04:59:22Z</time>
      </trkpt>
      <trkpt lat="40.843130" lon="-6.826260">
        <ele>555</ele>
        <time>2022-12-04T04:59:27Z</time>
      </trkpt>
      <trkpt lat="40.843010" lon="-6.826530">
        <ele>557</ele>
        <time>2022-12-04T04:59:31Z</time>
      </trkpt>
      <trkpt lat="40.842580" lon="-6.826930">
        <ele>560</ele>
        <time>2022-12-04T04:59:40Z</time>
      </trkpt>
      <trkpt lat="40.842510" lon="-6.827050">
        <ele>561</ele>
        <time>2022-12-04T04:59:42Z</time>
      </trkpt>
      <trkpt lat="40.842440" lon="-6.827310">
        <ele>564</ele>
        <time>2022-12-04T04:59:46Z</time>
      </trkpt>
      <trkpt lat="40.842450" lon="-6.827590">
        <ele>566</ele>
        <time>2022-12-04T04:59:50Z</time>
      </trkpt>
      <trkpt lat="40.842490" lon="-6.827860">
        <ele>566</ele>
        <time>2022-12-04T04:59:53Z</time>
      </trkpt>
      <trkpt lat="40.842610" lon="-6.828110">
        <ele>568</ele>
        <time>2022-12-04T04:59:57Z</time>
      </trkpt>
      <trkpt lat="40.842720" lon="-6.828230">
        <ele>569</ele>
        <time>2022-12-04T05:00:00Z</time>
      </trkpt>
      <trkpt lat="40.842900" lon="-6.828360">
        <ele>571</ele>
        <time>2022-12-04T05:00:04Z</time>
      </trkpt>
      <trkpt lat="40.843330" lon="-6.828630">
        <ele>577</ele>
        <time>2022-12-04T05:00:12Z</time>
      </trkpt>
      <trkpt lat="40.843590" lon="-6.828860">
        <ele>579</ele>
        <time>2022-12-04T05:00:18Z</time>
      </trkpt>
      <trkpt lat="40.843730" lon="-6.829040">
        <ele>581</ele>
        <time>2022-12-04T05:00:21Z</time>
      </trkpt>
      <trkpt lat="40.843790" lon="-6.829200">
        <ele>582</ele>
        <time>2022-12-04T05:00:23Z</time>
      </trkpt>
      <trkpt lat="40.843820" lon="-6.829450">
        <ele>583</ele>
        <time>2022-12-04T05:00:27Z</time>
      </trkpt>
      <trkpt lat="40.843840" lon="-6.829820">
        <ele>585</ele>
        <time>2022-12-04T05:00:32Z</time>
      </trkpt>
      <trkpt lat="40.844090" lon="-6.830830">
        <ele>593</ele>
        <time>2022-12-04T05:00:46Z</time>
      </trkpt>
      <trkpt lat="40.844540" lon="-6.832090">
        <ele>599</ele>
        <time>2022-12-04T05:01:05Z</time>
      </trkpt>
      <trkpt lat="40.844850" lon="-6.833010">
        <ele>603</ele>
        <time>2022-12-04T05:01:18Z</time>
      </trkpt>
      <trkpt lat="40.845000" lon="-6.833400">
        <ele>604</ele>
        <time>2022-12-04T05:01:24Z</time>
      </trkpt>
      <trkpt lat="40.845490" lon="-6.834190">
        <ele>605</ele>
        <time>2022-12-04T05:01:38Z</time>
      </trkpt>
      <trkpt lat="40.845640" lon="-6.834410">
        <ele>606</ele>
        <time>2022-12-04T05:01:42Z</time>
      </trkpt>
      <trkpt lat="40.847200" lon="-6.836200">
        <ele>612</ele>
        <time>2022-12-04T05:02:19Z</time>
      </trkpt>
      <trkpt lat="40.847520" lon="-6.836500">
        <ele>612</ele>
        <time>2022-12-04T05:02:26Z</time>
      </trkpt>
      <trkpt lat="40.848190" lon="-6.837010">
        <ele>611</ele>
        <time>2022-12-04T05:02:40Z</time>
      </trkpt>
      <trkpt lat="40.848660" lon="-6.837470">
        <ele>610</ele>
        <time>2022-12-04T05:02:50Z</time>
      </trkpt>
      <trkpt lat="40.848940" lon="-6.837820">
        <ele>611</ele>
        <time>2022-12-04T05:02:57Z</time>
      </trkpt>
      <trkpt lat="40.849470" lon="-6.838580">
        <ele>613</ele>
        <time>2022-12-04T05:03:11Z</time>
      </trkpt>
      <trkpt lat="40.850360" lon="-6.840200">
        <ele>618</ele>
        <time>2022-12-04T05:03:38Z</time>
      </trkpt>
      <trkpt lat="40.851020" lon="-6.840990">
        <ele>620</ele>
        <time>2022-12-04T05:03:54Z</time>
      </trkpt>
      <trkpt lat="40.852080" lon="-6.841910">
        <ele>629</ele>
        <time>2022-12-04T05:04:16Z</time>
      </trkpt>
      <trkpt lat="40.852460" lon="-6.842200">
        <ele>631</ele>
        <time>2022-12-04T05:04:24Z</time>
      </trkpt>
      <trkpt lat="40.852760" lon="-6.842380">
        <ele>634</ele>
        <time>2022-12-04T05:04:30Z</time>
      </trkpt>
      <trkpt lat="40.853090" lon="-6.842500">
        <ele>637</ele>
        <time>2022-12-04T05:04:36Z</time>
      </trkpt>
      <trkpt lat="40.853480" lon="-6.842590">
        <ele>641</ele>
        <time>2022-12-04T05:04:43Z</time>
      </trkpt>
      <trkpt lat="40.853570" lon="-6.842600">
        <ele>641</ele>
        <time>2022-12-04T05:04:44Z</time>
      </trkpt>
      <trkpt lat="40.853440" lon="-6.842330">
        <ele>642</ele>
        <time>2022-12-04T05:04:49Z</time>
      </trkpt>
      <trkpt lat="40.853280" lon="-6.841920">
        <ele>644</ele>
        <time>2022-12-04T05:04:55Z</time>
      </trkpt>
      <trkpt lat="40.853220" lon="-6.841660">
        <ele>645</ele>
        <time>2022-12-04T05:04:59Z</time>
      </trkpt>
      <trkpt lat="40.853160" lon="-6.841480">
        <ele>646</ele>
        <time>2022-12-04T05:05:01Z</time>
      </trkpt>
      <trkpt lat="40.852890" lon="-6.840990">
        <ele>646</ele>
        <time>2022-12-04T05:05:09Z</time>
      </trkpt>
      <trkpt lat="40.853160" lon="-6.841480">
        <ele>646</ele>
        <time>2022-12-04T05:05:18Z</time>
      </trkpt>
      <trkpt lat="40.853220" lon="-6.841660">
        <ele>645</ele>
        <time>2022-12-04T05:05:20Z</time>
      </trkpt>
      <trkpt lat="40.853280" lon="-6.841920">
        <ele>644</ele>
        <time>2022-12-04T05:05:24Z</time>
      </trkpt>
      <trkpt lat="40.853440" lon="-6.842330">
        <ele>642</ele>
        <time>2022-12-04T05:05:30Z</time>
      </trkpt>
      <trkpt lat="40.853570" lon="-6.842600">
        <ele>641</ele>
        <time>2022-12-04T05:05:34Z</time>
      </trkpt>
      <trkpt lat="40.853890" lon="-6.842610">
        <ele>643</ele>
        <time>2022-12-04T05:05:40Z</time>
      </trkpt>
      <trkpt lat="40.856050" lon="-6.842550">
        <ele>653</ele>
        <time>2022-12-04T05:06:19Z</time>
      </trkpt>
      <trkpt lat="40.856410" lon="-6.842500">
        <ele>652</ele>
        <time>2022-12-04T05:06:25Z</time>
      </trkpt>
      <trkpt lat="40.857170" lon="-6.842340">
        <ele>653</ele>
        <time>2022-12-04T05:06:39Z</time>
      </trkpt>
      <trkpt lat="40.857360" lon="-6.842340">
        <ele>653</ele>
        <time>2022-12-04T05:06:42Z</time>
      </trkpt>
      <trkpt lat="40.857530" lon="-6.842380">
        <ele>654</ele>
        <time>2022-12-04T05:06:45Z</time>
      </trkpt>
      <trkpt lat="40.857680" lon="-6.842460">
        <ele>654</ele>
        <time>2022-12-04T05:06:48Z</time>
      </trkpt>
      <trkpt lat="40.857910" lon="-6.842620">
        <ele>653</ele>
        <time>2022-12-04T05:06:53Z</time>
      </trkpt>
      <trkpt lat="40.858140" lon="-6.842810">
        <ele>652</ele>
        <time>2022-12-04T05:06:58Z</time>
      </trkpt>
      <trkpt lat="40.858490" lon="-6.843160">
        <ele>651</ele>
        <time>2022-12-04T05:07:05Z</time>
      </trkpt>
      <trkpt lat="40.858850" lon="-6.843770">
        <ele>650</ele>
        <time>2022-12-04T05:07:16Z</time>
      </trkpt>
      <trkpt lat="40.859370" lon="-6.844730">
        <ele>647</ele>
        <time>2022-12-04T05:07:32Z</time>
      </trkpt>
      <trkpt lat="40.859710" lon="-6.846330">
        <ele>650</ele>
        <time>2022-12-04T05:07:54Z</time>
      </trkpt>
      <trkpt lat="40.859970" lon="-6.846830">
        <ele>652</ele>
        <time>2022-12-04T05:08:02Z</time>
      </trkpt>
      <trkpt lat="40.860090" lon="-6.847160">
        <ele>653</ele>
        <time>2022-12-04T05:08:07Z</time>
      </trkpt>
      <trkpt lat="40.860360" lon="-6.848610">
        <ele>651</ele>
        <time>2022-12-04T05:08:27Z</time>
      </trkpt>
      <trkpt lat="40.860450" lon="-6.848980">
        <ele>649</ele>
        <time>2022-12-04T05:08:32Z</time>
      </trkpt>
      <trkpt lat="40.860460" lon="-6.849190">
        <ele>648</ele>
        <time>2022-12-04T05:08:35Z</time>
      </trkpt>
      <trkpt lat="40.860570" lon="-6.849510">
        <ele>648</ele>
        <time>2022-12-04T05:08:40Z</time>
      </trkpt>
      <trkpt lat="40.860750" lon="-6.849960">
        <ele>647</ele>
        <time>2022-12-04T05:08:47Z</time>
      </trkpt>
      <trkpt lat="40.860960" lon="-6.850360">
        <ele>647</ele>
        <time>2022-12-04T05:08:53Z</time>
      </trkpt>
      <trkpt lat="40.861080" lon="-6.850550">
        <ele>647</ele>
        <time>2022-12-04T05:08:57Z</time>
      </trkpt>
      <trkpt lat="40.861320" lon="-6.851490">
        <ele>649</ele>
        <time>2022-12-04T05:09:10Z</time>
      </trkpt>
      <trkpt lat="40.861420" lon="-6.852660">
        <ele>655</ele>
        <time>2022-12-04T05:09:26Z</time>
      </trkpt>
      <trkpt lat="40.861540" lon="-6.855260">
        <ele>659</ele>
        <time>2022-12-04T05:10:01Z</time>
      </trkpt>
      <trkpt lat="40.861800" lon="-6.856780">
        <ele>662</ele>
        <time>2022-12-04T05:10:22Z</time>
      </trkpt>
      <trkpt lat="40.862170" lon="-6.857840">
        <ele>666</ele>
        <time>2022-12-04T05:10:38Z</time>
      </trkpt>
      <trkpt lat="40.862760" lon="-6.859950">
        <ele>668</ele>
        <time>2022-12-04T05:11:08Z</time>
      </trkpt>
      <trkpt lat="40.863890" lon="-6.860010">
        <ele>669</ele>
        <time>2022-12-04T05:11:28Z</time>
      </trkpt>
      <trkpt lat="40.864220" lon="-6.859990">
        <ele>670</ele>
        <time>2022-12-04T05:11:34Z</time>
      </trkpt>
      <trkpt lat="40.865060" lon="-6.859830">
        <ele>674</ele>
        <time>2022-12-04T05:11:49Z</time>
      </trkpt>
      <trkpt lat="40.866390" lon="-6.859340">
        <ele>674</ele>
        <time>2022-12-04T05:12:14Z</time>
      </trkpt>
      <trkpt lat="40.868730" lon="-6.858320">
        <ele>683</ele>
        <time>2022-12-04T05:12:57Z</time>
      </trkpt>
      <trkpt lat="40.869000" lon="-6.858290">
        <ele>683</ele>
        <time>2022-12-04T05:13:02Z</time>
      </trkpt>
      <trkpt lat="40.869230" lon="-6.858340">
        <ele>683</ele>
        <time>2022-12-04T05:13:06Z</time>
      </trkpt>
      <trkpt lat="40.869570" lon="-6.858510">
        <ele>683</ele>
        <time>2022-12-04T05:13:13Z</time>
      </trkpt>
      <trkpt lat="40.870970" lon="-6.859360">
        <ele>684</ele>
        <time>2022-12-04T05:13:40Z</time>
      </trkpt>
      <trkpt lat="40.871170" lon="-6.859570">
        <ele>684</ele>
        <time>2022-12-04T05:13:45Z</time>
      </trkpt>
      <trkpt lat="40.871440" lon="-6.860110">
        <ele>683</ele>
        <time>2022-12-04T05:13:54Z</time>
      </trkpt>
      <trkpt lat="40.872020" lon="-6.861500">
        <ele>684</ele>
        <time>2022-12-04T05:14:15Z</time>
      </trkpt>
      <trkpt lat="40.872700" lon="-6.863360">
        <ele>682</ele>
        <time>2022-12-04T05:14:43Z</time>
      </trkpt>
      <trkpt lat="40.873340" lon="-6.865040">
        <ele>673</ele>
        <time>2022-12-04T05:15:08Z</time>
      </trkpt>
      <trkpt lat="40.873860" lon="-6.866200">
        <ele>673</ele>
        <time>2022-12-04T05:15:26Z</time>
      </trkpt>
      <trkpt lat="40.874340" lon="-6.866970">
        <ele>672</ele>
        <time>2022-12-04T05:15:40Z</time>
      </trkpt>
      <trkpt lat="40.874600" lon="-6.867470">
        <ele>672</ele>
        <time>2022-12-04T05:15:48Z</time>
      </trkpt>
      <trkpt lat="40.874920" lon="-6.868430">
        <ele>677</ele>
        <time>2022-12-04T05:16:02Z</time>
      </trkpt>
      <trkpt lat="40.875070" lon="-6.869030">
        <ele>676</ele>
        <time>2022-12-04T05:16:10Z</time>
      </trkpt>
      <trkpt lat="40.875270" lon="-6.870980">
        <ele>673</ele>
        <time>2022-12-04T05:16:37Z</time>
      </trkpt>
      <trkpt lat="40.875380" lon="-6.871590">
        <ele>672</ele>
        <time>2022-12-04T05:16:45Z</time>
      </trkpt>
      <trkpt lat="40.875540" lon="-6.872300">
        <ele>669</ele>
        <time>2022-12-04T05:16:55Z</time>
      </trkpt>
      <trkpt lat="40.876440" lon="-6.874820">
        <ele>663</ele>
        <time>2022-12-04T05:17:33Z</time>
      </trkpt>
      <trkpt lat="40.876690" lon="-6.875490">
        <ele>664</ele>
        <time>2022-12-04T05:17:43Z</time>
      </trkpt>
      <trkpt lat="40.877090" lon="-6.876240">
        <ele>667</ele>
        <time>2022-12-04T05:17:55Z</time>
      </trkpt>
      <trkpt lat="40.880590" lon="-6.881300">
        <ele>665</ele>
        <time>2022-12-04T05:19:27Z</time>
      </trkpt>
      <trkpt lat="40.883400" lon="-6.886610">
        <ele>643</ele>
        <time>2022-12-04T05:20:55Z</time>
      </trkpt>
      <trkpt lat="40.883760" lon="-6.887040">
        <ele>641</ele>
        <time>2022-12-04T05:21:03Z</time>
      </trkpt>
      <trkpt lat="40.884160" lon="-6.887250">
        <ele>639</ele>
        <time>2022-12-04T05:21:11Z</time>
      </trkpt>
      <trkpt lat="40.886880" lon="-6.887860">
        <ele>636</ele>
        <time>2022-12-04T05:22:00Z</time>
      </trkpt>
      <trkpt lat="40.888560" lon="-6.888770">
        <ele>640</ele>
        <time>2022-12-04T05:22:32Z</time>
      </trkpt>
      <trkpt lat="40.888880" lon="-6.889010">
        <ele>640</ele>
        <time>2022-12-04T05:22:39Z</time>
      </trkpt>
      <trkpt lat="40.891440" lon="-6.891310">
        <ele>634</ele>
        <time>2022-12-04T05:23:34Z</time>
      </trkpt>
      <trkpt lat="40.892330" lon="-6.891920">
        <ele>631</ele>
        <time>2022-12-04T05:23:52Z</time>
      </trkpt>
      <trkpt lat="40.892810" lon="-6.892330">
        <ele>630</ele>
        <time>2022-12-04T05:24:02Z</time>
      </trkpt>
      <trkpt lat="40.893690" lon="-6.893190">
        <ele>628</ele>
        <time>2022-12-04T05:24:21Z</time>
      </trkpt>
      <trkpt lat="40.894070" lon="-6.893320">
        <ele>627</ele>
        <time>2022-12-04T05:24:28Z</time>
      </trkpt>
      <trkpt lat="40.896040" lon="-6.893420">
        <ele>629</ele>
        <time>2022-12-04T05:25:03Z</time>
      </trkpt>
      <trkpt lat="40.896570" lon="-6.893320">
        <ele>632</ele>
        <time>2022-12-04T05:25:13Z</time>
      </trkpt>
      <trkpt lat="40.897010" lon="-6.893200">
        <ele>632</ele>
        <time>2022-12-04T05:25:21Z</time>
      </trkpt>
      <trkpt lat="40.898020" lon="-6.892770">
        <ele>631</ele>
        <time>2022-12-04T05:25:40Z</time>
      </trkpt>
      <trkpt lat="40.899820" lon="-6.892480">
        <ele>623</ele>
        <time>2022-12-04T05:26:12Z</time>
      </trkpt>
      <trkpt lat="40.900190" lon="-6.892500">
        <ele>624</ele>
        <time>2022-12-04T05:26:19Z</time>
      </trkpt>
      <trkpt lat="40.900460" lon="-6.892690">
        <ele>625</ele>
        <time>2022-12-04T05:26:24Z</time>
      </trkpt>
      <trkpt lat="40.900660" lon="-6.892980">
        <ele>625</ele>
        <time>2022-12-04T05:26:29Z</time>
      </trkpt>
      <trkpt lat="40.901020" lon="-6.894100">
        <ele>623</ele>
        <time>2022-12-04T05:26:46Z</time>
      </trkpt>
      <trkpt lat="40.901390" lon="-6.895330">
        <ele>626</ele>
        <time>2022-12-04T05:27:04Z</time>
      </trkpt>
      <trkpt lat="40.901600" lon="-6.896120">
        <ele>625</ele>
        <time>2022-12-04T05:27:15Z</time>
      </trkpt>
      <trkpt lat="40.902500" lon="-6.897140">
        <ele>624</ele>
        <time>2022-12-04T05:27:36Z</time>
      </trkpt>
      <trkpt lat="40.902820" lon="-6.897260">
        <ele>623</ele>
        <time>2022-12-04T05:27:42Z</time>
      </trkpt>
      <trkpt lat="40.903350" lon="-6.897350">
        <ele>623</ele>
        <time>2022-12-04T05:27:51Z</time>
      </trkpt>
      <trkpt lat="40.903600" lon="-6.897300">
        <ele>624</ele>
        <time>2022-12-04T05:27:56Z</time>
      </trkpt>
      <trkpt lat="40.903810" lon="-6.897140">
        <ele>624</ele>
        <time>2022-12-04T05:28:00Z</time>
      </trkpt>
      <trkpt lat="40.904540" lon="-6.896850">
        <ele>622</ele>
        <time>2022-12-04T05:28:14Z</time>
      </trkpt>
      <trkpt lat="40.904710" lon="-6.896880">
        <ele>621</ele>
        <time>2022-12-04T05:28:17Z</time>
      </trkpt>
      <trkpt lat="40.904950" lon="-6.896870">
        <ele>619</ele>
        <time>2022-12-04T05:28:21Z</time>
      </trkpt>
      <trkpt lat="40.905330" lon="-6.896900">
        <ele>618</ele>
        <time>2022-12-04T05:28:28Z</time>
      </trkpt>
      <trkpt lat="40.905460" lon="-6.897160">
        <ele>618</ele>
        <time>2022-12-04T05:28:32Z</time>
      </trkpt>
      <trkpt lat="40.905610" lon="-6.897760">
        <ele>616</ele>
        <time>2022-12-04T05:28:40Z</time>
      </trkpt>
      <trkpt lat="40.905700" lon="-6.898180">
        <ele>615</ele>
        <time>2022-12-04T05:28:46Z</time>
      </trkpt>
      <trkpt lat="40.905890" lon="-6.898460">
        <ele>615</ele>
        <time>2022-12-04T05:28:51Z</time>
      </trkpt>
      <trkpt lat="40.906230" lon="-6.898790">
        <ele>614</ele>
        <time>2022-12-04T05:28:59Z</time>
      </trkpt>
      <trkpt lat="40.906330" lon="-6.899030">
        <ele>614</ele>
        <time>2022-12-04T05:29:03Z</time>
      </trkpt>
      <trkpt lat="40.906550" lon="-6.899350">
        <ele>613</ele>
        <time>2022-12-04T05:29:08Z</time>
      </trkpt>
      <trkpt lat="40.906720" lon="-6.899460">
        <ele>613</ele>
        <time>2022-12-04T05:29:12Z</time>
      </trkpt>
      <trkpt lat="40.907100" lon="-6.899500">
        <ele>613</ele>
        <time>2022-12-04T05:29:19Z</time>
      </trkpt>
      <trkpt lat="40.907920" lon="-6.899490">
        <ele>613</ele>
        <time>2022-12-04T05:29:33Z</time>
      </trkpt>
      <trkpt lat="40.908950" lon="-6.899550">
        <ele>614</ele>
        <time>2022-12-04T05:29:51Z</time>
      </trkpt>
      <trkpt lat="40.909810" lon="-6.900120">
        <ele>615</ele>
        <time>2022-12-04T05:30:09Z</time>
      </trkpt>
      <trkpt lat="40.911810" lon="-6.901170">
        <ele>616</ele>
        <time>2022-12-04T05:30:47Z</time>
      </trkpt>
      <trkpt lat="40.912490" lon="-6.901430">
        <ele>617</ele>
        <time>2022-12-04T05:30:59Z</time>
      </trkpt>
      <trkpt lat="40.913560" lon="-6.902010">
        <ele>614</ele>
        <time>2022-12-04T05:31:20Z</time>
      </trkpt>
      <trkpt lat="40.914830" lon="-6.902850">
        <ele>616</ele>
        <time>2022-12-04T05:31:45Z</time>
      </trkpt>
      <trkpt lat="40.915590" lon="-6.903050">
        <ele>617</ele>
        <time>2022-12-04T05:31:59Z</time>
      </trkpt>
      <trkpt lat="40.916430" lon="-6.903330">
        <ele>617</ele>
        <time>2022-12-04T05:32:14Z</time>
      </trkpt>
      <trkpt lat="40.918170" lon="-6.905080">
        <ele>620</ele>
        <time>2022-12-04T05:32:53Z</time>
      </trkpt>
      <trkpt lat="40.924900" lon="-6.910620">
        <ele>621</ele>
        <time>2022-12-04T05:35:14Z</time>
      </trkpt>
      <trkpt lat="40.926440" lon="-6.912980">
        <ele>623</ele>
        <time>2022-12-04T05:35:56Z</time>
      </trkpt>
      <trkpt lat="40.926540" lon="-6.913110">
        <ele>624</ele>
        <time>2022-12-04T05:35:59Z</time>
      </trkpt>
      <trkpt lat="40.926990" lon="-6.913460">
        <ele>624</ele>
        <time>2022-12-04T05:36:08Z</time>
      </trkpt>
      <trkpt lat="40.936080" lon="-6.918240">
        <ele>634</ele>
        <time>2022-12-04T05:39:02Z</time>
      </trkpt>
      <trkpt lat="40.938110" lon="-6.919070">
        <ele>634</ele>
        <time>2022-12-04T05:39:40Z</time>
      </trkpt>
      <trkpt lat="40.940940" lon="-6.919930">
        <ele>630</ele>
        <time>2022-12-04T05:40:32Z</time>
      </trkpt>
      <trkpt lat="40.942470" lon="-6.919940">
        <ele>628</ele>
        <time>2022-12-04T05:40:59Z</time>
      </trkpt>
      <trkpt lat="40.943510" lon="-6.920190">
        <ele>622</ele>
        <time>2022-12-04T05:41:18Z</time>
      </trkpt>
      <trkpt lat="40.945150" lon="-6.921690">
        <ele>617</ele>
        <time>2022-12-04T05:41:53Z</time>
      </trkpt>
      <trkpt lat="40.947590" lon="-6.924230">
        <ele>615</ele>
        <time>2022-12-04T05:42:48Z</time>
      </trkpt>
      <trkpt lat="40.947700" lon="-6.924250">
        <ele>615</ele>
        <time>2022-12-04T05:42:50Z</time>
      </trkpt>
      <trkpt lat="40.947770" lon="-6.924190">
        <ele>615</ele>
        <time>2022-12-04T05:42:52Z</time>
      </trkpt>
      <trkpt lat="40.947870" lon="-6.924170">
        <ele>615</ele>
        <time>2022-12-04T05:42:54Z</time>
      </trkpt>
      <trkpt lat="40.947960" lon="-6.924220">
        <ele>615</ele>
        <time>2022-12-04T05:42:55Z</time>
      </trkpt>
      <trkpt lat="40.948390" lon="-6.925290">
        <ele>615</ele>
        <time>2022-12-04T05:43:12Z</time>
      </trkpt>
      <trkpt lat="40.948490" lon="-6.925450">
        <ele>616</ele>
        <time>2022-12-04T05:43:14Z</time>
      </trkpt>
      <trkpt lat="40.948670" lon="-6.925660">
        <ele>617</ele>
        <time>2022-12-04T05:43:19Z</time>
      </trkpt>
      <trkpt lat="40.948870" lon="-6.925740">
        <ele>618</ele>
        <time>2022-12-04T05:43:22Z</time>
      </trkpt>
      <trkpt lat="40.948990" lon="-6.925870">
        <ele>619</ele>
        <time>2022-12-04T05:43:25Z</time>
      </trkpt>
      <trkpt lat="40.949060" lon="-6.926070">
        <ele>619</ele>
        <time>2022-12-04T05:43:28Z</time>
      </trkpt>
      <trkpt lat="40.949180" lon="-6.926800">
        <ele>618</ele>
        <time>2022-12-04T05:43:38Z</time>
      </trkpt>
      <trkpt lat="40.949270" lon="-6.926920">
        <ele>617</ele>
        <time>2022-12-04T05:43:40Z</time>
      </trkpt>
      <trkpt lat="40.949620" lon="-6.927020">
        <ele>617</ele>
        <time>2022-12-04T05:43:47Z</time>
      </trkpt>
      <trkpt lat="40.951450" lon="-6.929610">
        <ele>605</ele>
        <time>2022-12-04T05:44:34Z</time>
      </trkpt>
      <trkpt lat="40.951650" lon="-6.929740">
        <ele>606</ele>
        <time>2022-12-04T05:44:38Z</time>
      </trkpt>
      <trkpt lat="40.958330" lon="-6.933510">
        <ele>592</ele>
        <time>2022-12-04T05:46:48Z</time>
      </trkpt>
      <trkpt lat="40.958590" lon="-6.933580">
        <ele>591</ele>
        <time>2022-12-04T05:46:52Z</time>
      </trkpt>
      <trkpt lat="40.958770" lon="-6.933560">
        <ele>589</ele>
        <time>2022-12-04T05:46:56Z</time>
      </trkpt>
      <trkpt lat="40.962980" lon="-6.932370">
        <ele>571</ele>
        <time>2022-12-04T05:48:12Z</time>
      </trkpt>
      <trkpt lat="40.966350" lon="-6.930010">
        <ele>558</ele>
        <time>2022-12-04T05:49:20Z</time>
      </trkpt>
      <trkpt lat="40.967490" lon="-6.929780">
        <ele>559</ele>
        <time>2022-12-04T05:49:40Z</time>
      </trkpt>
      <trkpt lat="40.968390" lon="-6.929620">
        <ele>555</ele>
        <time>2022-12-04T05:49:57Z</time>
      </trkpt>
      <trkpt lat="40.970620" lon="-6.929900">
        <ele>546</ele>
        <time>2022-12-04T05:50:37Z</time>
      </trkpt>
      <trkpt lat="40.970800" lon="-6.930030">
        <ele>544</ele>
        <time>2022-12-04T05:50:40Z</time>
      </trkpt>
      <trkpt lat="40.971310" lon="-6.930600">
        <ele>543</ele>
        <time>2022-12-04T05:50:52Z</time>
      </trkpt>
      <trkpt lat="40.971940" lon="-6.931600">
        <ele>540</ele>
        <time>2022-12-04T05:51:10Z</time>
      </trkpt>
      <trkpt lat="40.973780" lon="-6.932640">
        <ele>539</ele>
        <time>2022-12-04T05:51:45Z</time>
      </trkpt>
      <trkpt lat="40.974890" lon="-6.933840">
        <ele>530</ele>
        <time>2022-12-04T05:52:11Z</time>
      </trkpt>
      <trkpt lat="40.975110" lon="-6.933950">
        <ele>528</ele>
        <time>2022-12-04T05:52:15Z</time>
      </trkpt>
      <trkpt lat="40.976940" lon="-6.934560">
        <ele>517</ele>
        <time>2022-12-04T05:52:48Z</time>
      </trkpt>
      <trkpt lat="40.977140" lon="-6.934540">
        <ele>516</ele>
        <time>2022-12-04T05:52:52Z</time>
      </trkpt>
      <trkpt lat="40.977380" lon="-6.934410">
        <ele>513</ele>
        <time>2022-12-04T05:52:57Z</time>
      </trkpt>
      <trkpt lat="40.977550" lon="-6.934250">
        <ele>511</ele>
        <time>2022-12-04T05:53:00Z</time>
      </trkpt>
      <trkpt lat="40.978730" lon="-6.932870">
        <ele>506</ele>
        <time>2022-12-04T05:53:28Z</time>
      </trkpt>
      <trkpt lat="40.979190" lon="-6.932090">
        <ele>502</ele>
        <time>2022-12-04T05:53:42Z</time>
      </trkpt>
      <trkpt lat="40.979400" lon="-6.931840">
        <ele>502</ele>
        <time>2022-12-04T05:53:47Z</time>
      </trkpt>
      <trkpt lat="40.981840" lon="-6.929510">
        <ele>493</ele>
        <time>2022-12-04T05:54:40Z</time>
      </trkpt>
      <trkpt lat="40.982000" lon="-6.929410">
        <ele>493</ele>
        <time>2022-12-04T05:54:43Z</time>
      </trkpt>
      <trkpt lat="40.982250" lon="-6.929380">
        <ele>493</ele>
        <time>2022-12-04T05:54:48Z</time>
      </trkpt>
      <trkpt lat="40.983170" lon="-6.929380">
        <ele>493</ele>
        <time>2022-12-04T05:55:04Z</time>
      </trkpt>
      <trkpt lat="40.983460" lon="-6.929300">
        <ele>491</ele>
        <time>2022-12-04T05:55:09Z</time>
      </trkpt>
      <trkpt lat="40.983770" lon="-6.929150">
        <ele>487</ele>
        <time>2022-12-04T05:55:15Z</time>
      </trkpt>
      <trkpt lat="40.985370" lon="-6.927590">
        <ele>476</ele>
        <time>2022-12-04T05:55:51Z</time>
      </trkpt>
      <trkpt lat="40.985980" lon="-6.927200">
        <ele>469</ele>
        <time>2022-12-04T05:56:03Z</time>
      </trkpt>
      <trkpt lat="40.986120" lon="-6.927020">
        <ele>468</ele>
        <time>2022-12-04T05:56:06Z</time>
      </trkpt>
      <trkpt lat="40.986380" lon="-6.926390">
        <ele>469</ele>
        <time>2022-12-04T05:56:16Z</time>
      </trkpt>
      <trkpt lat="40.986490" lon="-6.926260">
        <ele>469</ele>
        <time>2022-12-04T05:56:18Z</time>
      </trkpt>
      <trkpt lat="40.986590" lon="-6.926200">
        <ele>468</ele>
        <time>2022-12-04T05:56:20Z</time>
      </trkpt>
      <trkpt lat="40.986900" lon="-6.926150">
        <ele>468</ele>
        <time>2022-12-04T05:56:26Z</time>
      </trkpt>
      <trkpt lat="40.987310" lon="-6.926120">
        <ele>469</ele>
        <time>2022-12-04T05:56:33Z</time>
      </trkpt>
      <trkpt lat="40.987540" lon="-6.926250">
        <ele>467</ele>
        <time>2022-12-04T05:56:38Z</time>
      </trkpt>
      <trkpt lat="40.987700" lon="-6.926510">
        <ele>465</ele>
        <time>2022-12-04T05:56:42Z</time>
      </trkpt>
      <trkpt lat="40.987990" lon="-6.927930">
        <ele>455</ele>
        <time>2022-12-04T05:57:02Z</time>
      </trkpt>
      <trkpt lat="40.988030" lon="-6.928300">
        <ele>452</ele>
        <time>2022-12-04T05:57:07Z</time>
      </trkpt>
      <trkpt lat="40.987820" lon="-6.929100">
        <ele>449</ele>
        <time>2022-12-04T05:57:18Z</time>
      </trkpt>
      <trkpt lat="40.987800" lon="-6.929380">
        <ele>449</ele>
        <time>2022-12-04T05:57:22Z</time>
      </trkpt>
      <trkpt lat="40.987850" lon="-6.929690">
        <ele>448</ele>
        <time>2022-12-04T05:57:26Z</time>
      </trkpt>
      <trkpt lat="40.987970" lon="-6.929950">
        <ele>446</ele>
        <time>2022-12-04T05:57:30Z</time>
      </trkpt>
      <trkpt lat="40.988640" lon="-6.930650">
        <ele>441</ele>
        <time>2022-12-04T05:57:46Z</time>
      </trkpt>
      <trkpt lat="40.988740" lon="-6.930800">
        <ele>439</ele>
        <time>2022-12-04T05:57:48Z</time>
      </trkpt>
      <trkpt lat="40.988810" lon="-6.931030">
        <ele>437</ele>
        <time>2022-12-04T05:57:52Z</time>
      </trkpt>
      <trkpt lat="40.988800" lon="-6.931250">
        <ele>437</ele>
        <time>2022-12-04T05:57:55Z</time>
      </trkpt>
      <trkpt lat="40.988510" lon="-6.932410">
        <ele>450</ele>
        <time>2022-12-04T05:58:11Z</time>
      </trkpt>
      <trkpt lat="40.988520" lon="-6.932630">
        <ele>452</ele>
        <time>2022-12-04T05:58:14Z</time>
      </trkpt>
      <trkpt lat="40.988580" lon="-6.932760">
        <ele>453</ele>
        <time>2022-12-04T05:58:16Z</time>
      </trkpt>
      <trkpt lat="40.988710" lon="-6.932870">
        <ele>451</ele>
        <time>2022-12-04T05:58:19Z</time>
      </trkpt>
      <trkpt lat="40.989770" lon="-6.933330">
        <ele>435</ele>
        <time>2022-12-04T05:58:39Z</time>
      </trkpt>
      <trkpt lat="40.989980" lon="-6.933550">
        <ele>432</ele>
        <time>2022-12-04T05:58:43Z</time>
      </trkpt>
      <trkpt lat="40.990050" lon="-6.933770">
        <ele>432</ele>
        <time>2022-12-04T05:58:47Z</time>
      </trkpt>
      <trkpt lat="40.989950" lon="-6.934550">
        <ele>438</ele>
        <time>2022-12-04T05:58:57Z</time>
      </trkpt>
      <trkpt lat="40.990010" lon="-6.934810">
        <ele>436</ele>
        <time>2022-12-04T05:59:01Z</time>
      </trkpt>
      <trkpt lat="40.990230" lon="-6.935230">
        <ele>431</ele>
        <time>2022-12-04T05:59:08Z</time>
      </trkpt>
      <trkpt lat="40.990500" lon="-6.935970">
        <ele>430</ele>
        <time>2022-12-04T05:59:19Z</time>
      </trkpt>
      <trkpt lat="40.990650" lon="-6.936220">
        <ele>429</ele>
        <time>2022-12-04T05:59:23Z</time>
      </trkpt>
      <trkpt lat="40.991070" lon="-6.936710">
        <ele>426</ele>
        <time>2022-12-04T05:59:33Z</time>
      </trkpt>
      <trkpt lat="40.991150" lon="-6.936920">
        <ele>426</ele>
        <time>2022-12-04T05:59:36Z</time>
      </trkpt>
      <trkpt lat="40.991320" lon="-6.937820">
        <ele>427</ele>
        <time>2022-12-04T05:59:49Z</time>
      </trkpt>
      <trkpt lat="40.991370" lon="-6.937950">
        <ele>426</ele>
        <time>2022-12-04T05:59:51Z</time>
      </trkpt>
      <trkpt lat="40.991530" lon="-6.938090">
        <ele>422</ele>
        <time>2022-12-04T05:59:54Z</time>
      </trkpt>
      <trkpt lat="40.991740" lon="-6.938070">
        <ele>420</ele>
        <time>2022-12-04T05:59:58Z</time>
      </trkpt>
      <trkpt lat="40.991880" lon="-6.937850">
        <ele>421</ele>
        <time>2022-12-04T06:00:02Z</time>
      </trkpt>
      <trkpt lat="40.991950" lon="-6.937280">
        <ele>419</ele>
        <time>2022-12-04T06:00:09Z</time>
      </trkpt>
      <trkpt lat="40.992050" lon="-6.937040">
        <ele>419</ele>
        <time>2022-12-04T06:00:13Z</time>
      </trkpt>
      <trkpt lat="40.992560" lon="-6.936430">
        <ele>419</ele>
        <time>2022-12-04T06:00:25Z</time>
      </trkpt>
      <trkpt lat="40.992750" lon="-6.936320">
        <ele>416</ele>
        <time>2022-12-04T06:00:29Z</time>
      </trkpt>
      <trkpt lat="40.992930" lon="-6.936350">
        <ele>416</ele>
        <time>2022-12-04T06:00:32Z</time>
      </trkpt>
      <trkpt lat="40.993390" lon="-6.936660">
        <ele>421</ele>
        <time>2022-12-04T06:00:41Z</time>
      </trkpt>
      <trkpt lat="40.993600" lon="-6.936650">
        <ele>422</ele>
        <time>2022-12-04T06:00:45Z</time>
      </trkpt>
      <trkpt lat="40.994040" lon="-6.936370">
        <ele>415</ele>
        <time>2022-12-04T06:00:54Z</time>
      </trkpt>
      <trkpt lat="40.994250" lon="-6.936360">
        <ele>414</ele>
        <time>2022-12-04T06:00:58Z</time>
      </trkpt>
      <trkpt lat="40.994420" lon="-6.936420">
        <ele>413</ele>
        <time>2022-12-04T06:01:01Z</time>
      </trkpt>
      <trkpt lat="40.994830" lon="-6.936840">
        <ele>420</ele>
        <time>2022-12-04T06:01:10Z</time>
      </trkpt>
      <trkpt lat="40.995560" lon="-6.937130">
        <ele>421</ele>
        <time>2022-12-04T06:01:23Z</time>
      </trkpt>
      <trkpt lat="40.995750" lon="-6.937130">
        <ele>420</ele>
        <time>2022-12-04T06:01:27Z</time>
      </trkpt>
      <trkpt lat="40.996330" lon="-6.936890">
        <ele>410</ele>
        <time>2022-12-04T06:01:38Z</time>
      </trkpt>
      <trkpt lat="40.996410" lon="-6.936880">
        <ele>410</ele>
        <time>2022-12-04T06:01:39Z</time>
      </trkpt>
      <trkpt lat="40.996570" lon="-6.936920">
        <ele>410</ele>
        <time>2022-12-04T06:01:42Z</time>
      </trkpt>
      <trkpt lat="40.996690" lon="-6.937030">
        <ele>410</ele>
        <time>2022-12-04T06:01:45Z</time>
      </trkpt>
      <trkpt lat="40.996740" lon="-6.937100">
        <ele>409</ele>
        <time>2022-12-04T06:01:46Z</time>
      </trkpt>
      <trkpt lat="40.996810" lon="-6.937300">
        <ele>409</ele>
        <time>2022-12-04T06:01:49Z</time>
      </trkpt>
      <trkpt lat="40.996970" lon="-6.937980">
        <ele>416</ele>
        <time>2022-12-04T06:01:58Z</time>
      </trkpt>
      <trkpt lat="40.997000" lon="-6.938230">
        <ele>419</ele>
        <time>2022-12-04T06:02:02Z</time>
      </trkpt>
      <trkpt lat="40.996940" lon="-6.938820">
        <ele>425</ele>
        <time>2022-12-04T06:02:10Z</time>
      </trkpt>
      <trkpt lat="40.996950" lon="-6.938940">
        <ele>426</ele>
        <time>2022-12-04T06:02:11Z</time>
      </trkpt>
      <trkpt lat="40.996990" lon="-6.939050">
        <ele>426</ele>
        <time>2022-12-04T06:02:13Z</time>
      </trkpt>
      <trkpt lat="40.997090" lon="-6.939200">
        <ele>426</ele>
        <time>2022-12-04T06:02:16Z</time>
      </trkpt>
      <trkpt lat="40.997160" lon="-6.939220">
        <ele>426</ele>
        <time>2022-12-04T06:02:17Z</time>
      </trkpt>
      <trkpt lat="40.997240" lon="-6.939220">
        <ele>425</ele>
        <time>2022-12-04T06:02:18Z</time>
      </trkpt>
      <trkpt lat="40.997320" lon="-6.939190">
        <ele>424</ele>
        <time>2022-12-04T06:02:20Z</time>
      </trkpt>
      <trkpt lat="40.997400" lon="-6.939130">
        <ele>423</ele>
        <time>2022-12-04T06:02:22Z</time>
      </trkpt>
      <trkpt lat="40.997790" lon="-6.938680">
        <ele>415</ele>
        <time>2022-12-04T06:02:31Z</time>
      </trkpt>
      <trkpt lat="40.998030" lon="-6.938510">
        <ele>413</ele>
        <time>2022-12-04T06:02:36Z</time>
      </trkpt>
      <trkpt lat="40.998250" lon="-6.938410">
        <ele>413</ele>
        <time>2022-12-04T06:02:40Z</time>
      </trkpt>
      <trkpt lat="40.998390" lon="-6.938370">
        <ele>412</ele>
        <time>2022-12-04T06:02:42Z</time>
      </trkpt>
      <trkpt lat="40.998500" lon="-6.938370">
        <ele>411</ele>
        <time>2022-12-04T06:02:44Z</time>
      </trkpt>
      <trkpt lat="40.998700" lon="-6.938420">
        <ele>410</ele>
        <time>2022-12-04T06:02:48Z</time>
      </trkpt>
      <trkpt lat="40.998800" lon="-6.938520">
        <ele>410</ele>
        <time>2022-12-04T06:02:50Z</time>
      </trkpt>
      <trkpt lat="40.998890" lon="-6.938720">
        <ele>410</ele>
        <time>2022-12-04T06:02:53Z</time>
      </trkpt>
      <trkpt lat="40.998970" lon="-6.939220">
        <ele>413</ele>
        <time>2022-12-04T06:03:00Z</time>
      </trkpt>
      <trkpt lat="40.999040" lon="-6.939370">
        <ele>413</ele>
        <time>2022-12-04T06:03:02Z</time>
      </trkpt>
      <trkpt lat="40.999110" lon="-6.939480">
        <ele>413</ele>
        <time>2022-12-04T06:03:04Z</time>
      </trkpt>
      <trkpt lat="40.999180" lon="-6.939530">
        <ele>413</ele>
        <time>2022-12-04T06:03:06Z</time>
      </trkpt>
      <trkpt lat="40.999250" lon="-6.939570">
        <ele>413</ele>
        <time>2022-12-04T06:03:07Z</time>
      </trkpt>
      <trkpt lat="40.999420" lon="-6.939590">
        <ele>411</ele>
        <time>2022-12-04T06:03:10Z</time>
      </trkpt>
      <trkpt lat="40.999950" lon="-6.939490">
        <ele>403</ele>
        <time>2022-12-04T06:03:20Z</time>
      </trkpt>
      <trkpt lat="41.000050" lon="-6.939510">
        <ele>400</ele>
        <time>2022-12-04T06:03:21Z</time>
      </trkpt>
      <trkpt lat="41.000150" lon="-6.939570">
        <ele>397</ele>
        <time>2022-12-04T06:03:23Z</time>
      </trkpt>
      <trkpt lat="41.000230" lon="-6.939660">
        <ele>395</ele>
        <time>2022-12-04T06:03:25Z</time>
      </trkpt>
      <trkpt lat="41.000290" lon="-6.939810">
        <ele>395</ele>
        <time>2022-12-04T06:03:28Z</time>
      </trkpt>
      <trkpt lat="41.000360" lon="-6.940120">
        <ele>395</ele>
        <time>2022-12-04T06:03:32Z</time>
      </trkpt>
      <trkpt lat="41.000390" lon="-6.940370">
        <ele>395</ele>
        <time>2022-12-04T06:03:35Z</time>
      </trkpt>
      <trkpt lat="41.000390" lon="-6.940670">
        <ele>395</ele>
        <time>2022-12-04T06:03:39Z</time>
      </trkpt>
      <trkpt lat="41.000350" lon="-6.940950">
        <ele>396</ele>
        <time>2022-12-04T06:03:43Z</time>
      </trkpt>
      <trkpt lat="40.999220" lon="-6.943430">
        <ele>389</ele>
        <time>2022-12-04T06:04:22Z</time>
      </trkpt>
      <trkpt lat="40.999000" lon="-6.943690">
        <ele>387</ele>
        <time>2022-12-04T06:04:27Z</time>
      </trkpt>
      <trkpt lat="40.998420" lon="-6.944000">
        <ele>387</ele>
        <time>2022-12-04T06:04:38Z</time>
      </trkpt>
      <trkpt lat="40.998270" lon="-6.944210">
        <ele>386</ele>
        <time>2022-12-04T06:04:42Z</time>
      </trkpt>
      <trkpt lat="40.998190" lon="-6.944490">
        <ele>387</ele>
        <time>2022-12-04T06:04:46Z</time>
      </trkpt>
      <trkpt lat="40.998210" lon="-6.944800">
        <ele>386</ele>
        <time>2022-12-04T06:04:51Z</time>
      </trkpt>
      <trkpt lat="40.998320" lon="-6.945060">
        <ele>384</ele>
        <time>2022-12-04T06:04:55Z</time>
      </trkpt>
      <trkpt lat="40.998460" lon="-6.945200">
        <ele>384</ele>
        <time>2022-12-04T06:04:58Z</time>
      </trkpt>
      <trkpt lat="40.998680" lon="-6.945270">
        <ele>382</ele>
        <time>2022-12-04T06:05:02Z</time>
      </trkpt>
      <trkpt lat="40.999530" lon="-6.945190">
        <ele>369</ele>
        <time>2022-12-04T06:05:17Z</time>
      </trkpt>
      <trkpt lat="40.999720" lon="-6.945270">
        <ele>368</ele>
        <time>2022-12-04T06:05:20Z</time>
      </trkpt>
      <trkpt lat="40.999840" lon="-6.945420">
        <ele>368</ele>
        <time>2022-12-04T06:05:23Z</time>
      </trkpt>
      <trkpt lat="41.000010" lon="-6.946030">
        <ele>371</ele>
        <time>2022-12-04T06:05:32Z</time>
      </trkpt>
      <trkpt lat="41.000100" lon="-6.946190">
        <ele>373</ele>
        <time>2022-12-04T06:05:35Z</time>
      </trkpt>
      <trkpt lat="41.000220" lon="-6.946240">
        <ele>374</ele>
        <time>2022-12-04T06:05:37Z</time>
      </trkpt>
      <trkpt lat="41.000360" lon="-6.946210">
        <ele>375</ele>
        <time>2022-12-04T06:05:40Z</time>
      </trkpt>
      <trkpt lat="41.000490" lon="-6.946020">
        <ele>374</ele>
        <time>2022-12-04T06:05:43Z</time>
      </trkpt>
      <trkpt lat="41.000770" lon="-6.944720">
        <ele>358</ele>
        <time>2022-12-04T06:06:01Z</time>
      </trkpt>
      <trkpt lat="41.000900" lon="-6.944370">
        <ele>353</ele>
        <time>2022-12-04T06:06:06Z</time>
      </trkpt>
      <trkpt lat="41.001120" lon="-6.944150">
        <ele>352</ele>
        <time>2022-12-04T06:06:11Z</time>
      </trkpt>
      <trkpt lat="41.002000" lon="-6.943740">
        <ele>349</ele>
        <time>2022-12-04T06:06:28Z</time>
      </trkpt>
      <trkpt lat="41.002900" lon="-6.943240">
        <ele>338</ele>
        <time>2022-12-04T06:06:45Z</time>
      </trkpt>
      <trkpt lat="41.003100" lon="-6.943260">
        <ele>339</ele>
        <time>2022-12-04T06:06:49Z</time>
      </trkpt>
      <trkpt lat="41.003490" lon="-6.943510">
        <ele>342</ele>
        <time>2022-12-04T06:06:56Z</time>
      </trkpt>
      <trkpt lat="41.003640" lon="-6.943540">
        <ele>340</ele>
        <time>2022-12-04T06:06:59Z</time>
      </trkpt>
      <trkpt lat="41.003810" lon="-6.943520">
        <ele>338</ele>
        <time>2022-12-04T06:07:02Z</time>
      </trkpt>
      <trkpt lat="41.004190" lon="-6.943180">
        <ele>330</ele>
        <time>2022-12-04T06:07:10Z</time>
      </trkpt>
      <trkpt lat="41.004310" lon="-6.943180">
        <ele>326</ele>
        <time>2022-12-04T06:07:13Z</time>
      </trkpt>
      <trkpt lat="41.004430" lon="-6.943270">
        <ele>323</ele>
        <time>2022-12-04T06:07:15Z</time>
      </trkpt>
      <trkpt lat="41.004500" lon="-6.943420">
        <ele>321</ele>
        <time>2022-12-04T06:07:17Z</time>
      </trkpt>
      <trkpt lat="41.004530" lon="-6.943640">
        <ele>319</ele>
        <time>2022-12-04T06:07:20Z</time>
      </trkpt>
      <trkpt lat="41.004480" lon="-6.944560">
        <ele>316</ele>
        <time>2022-12-04T06:07:33Z</time>
      </trkpt>
      <trkpt lat="41.004370" lon="-6.944840">
        <ele>317</ele>
        <time>2022-12-04T06:07:37Z</time>
      </trkpt>
      <trkpt lat="41.003840" lon="-6.945600">
        <ele>324</ele>
        <time>2022-12-04T06:07:51Z</time>
      </trkpt>
      <trkpt lat="41.003730" lon="-6.946020">
        <ele>323</ele>
        <time>2022-12-04T06:07:57Z</time>
      </trkpt>
      <trkpt lat="41.003740" lon="-6.946310">
        <ele>322</ele>
        <time>2022-12-04T06:08:01Z</time>
      </trkpt>
      <trkpt lat="41.003880" lon="-6.946920">
        <ele>320</ele>
        <time>2022-12-04T06:08:09Z</time>
      </trkpt>
      <trkpt lat="41.004000" lon="-6.947100">
        <ele>319</ele>
        <time>2022-12-04T06:08:13Z</time>
      </trkpt>
      <trkpt lat="41.004190" lon="-6.947210">
        <ele>318</ele>
        <time>2022-12-04T06:08:16Z</time>
      </trkpt>
      <trkpt lat="41.004390" lon="-6.947210">
        <ele>315</ele>
        <time>2022-12-04T06:08:20Z</time>
      </trkpt>
      <trkpt lat="41.004810" lon="-6.947020">
        <ele>306</ele>
        <time>2022-12-04T06:08:28Z</time>
      </trkpt>
      <trkpt lat="41.004990" lon="-6.947010">
        <ele>304</ele>
        <time>2022-12-04T06:08:31Z</time>
      </trkpt>
      <trkpt lat="41.005170" lon="-6.947100">
        <ele>301</ele>
        <time>2022-12-04T06:08:34Z</time>
      </trkpt>
      <trkpt lat="41.005310" lon="-6.947260">
        <ele>301</ele>
        <time>2022-12-04T06:08:38Z</time>
      </trkpt>
      <trkpt lat="41.005380" lon="-6.947490">
        <ele>302</ele>
        <time>2022-12-04T06:08:41Z</time>
      </trkpt>
      <trkpt lat="41.005450" lon="-6.948320">
        <ele>305</ele>
        <time>2022-12-04T06:08:52Z</time>
      </trkpt>
      <trkpt lat="41.005540" lon="-6.948610">
        <ele>302</ele>
        <time>2022-12-04T06:08:56Z</time>
      </trkpt>
      <trkpt lat="41.005720" lon="-6.948830">
        <ele>297</ele>
        <time>2022-12-04T06:09:01Z</time>
      </trkpt>
      <trkpt lat="41.006010" lon="-6.948940">
        <ele>292</ele>
        <time>2022-12-04T06:09:06Z</time>
      </trkpt>
      <trkpt lat="41.006270" lon="-6.948930">
        <ele>291</ele>
        <time>2022-12-04T06:09:11Z</time>
      </trkpt>
      <trkpt lat="41.006520" lon="-6.948760">
        <ele>289</ele>
        <time>2022-12-04T06:09:16Z</time>
      </trkpt>
      <trkpt lat="41.006660" lon="-6.948530">
        <ele>287</ele>
        <time>2022-12-04T06:09:20Z</time>
      </trkpt>
      <trkpt lat="41.007060" lon="-6.947250">
        <ele>285</ele>
        <time>2022-12-04T06:09:38Z</time>
      </trkpt>
      <trkpt lat="41.007070" lon="-6.947050">
        <ele>284</ele>
        <time>2022-12-04T06:09:41Z</time>
      </trkpt>
      <trkpt lat="41.006940" lon="-6.946600">
        <ele>278</ele>
        <time>2022-12-04T06:09:47Z</time>
      </trkpt>
      <trkpt lat="41.006950" lon="-6.946360">
        <ele>276</ele>
        <time>2022-12-04T06:09:51Z</time>
      </trkpt>
      <trkpt lat="41.007500" lon="-6.944920">
        <ele>267</ele>
        <time>2022-12-04T06:10:12Z</time>
      </trkpt>
      <trkpt lat="41.007620" lon="-6.944750">
        <ele>265</ele>
        <time>2022-12-04T06:10:15Z</time>
      </trkpt>
      <trkpt lat="41.007810" lon="-6.944660">
        <ele>265</ele>
        <time>2022-12-04T06:10:19Z</time>
      </trkpt>
      <trkpt lat="41.008390" lon="-6.944720">
        <ele>274</ele>
        <time>2022-12-04T06:10:29Z</time>
      </trkpt>
      <trkpt lat="41.008500" lon="-6.944660">
        <ele>274</ele>
        <time>2022-12-04T06:10:31Z</time>
      </trkpt>
      <trkpt lat="41.008630" lon="-6.944570">
        <ele>274</ele>
        <time>2022-12-04T06:10:34Z</time>
      </trkpt>
      <trkpt lat="41.009180" lon="-6.943880">
        <ele>272</ele>
        <time>2022-12-04T06:10:48Z</time>
      </trkpt>
      <trkpt lat="41.009230" lon="-6.943660">
        <ele>271</ele>
        <time>2022-12-04T06:10:51Z</time>
      </trkpt>
      <trkpt lat="41.009210" lon="-6.943430">
        <ele>269</ele>
        <time>2022-12-04T06:10:54Z</time>
      </trkpt>
      <trkpt lat="41.009140" lon="-6.943270">
        <ele>267</ele>
        <time>2022-12-04T06:10:56Z</time>
      </trkpt>
      <trkpt lat="41.008950" lon="-6.943090">
        <ele>264</ele>
        <time>2022-12-04T06:11:00Z</time>
      </trkpt>
      <trkpt lat="41.008450" lon="-6.942830">
        <ele>252</ele>
        <time>2022-12-04T06:11:10Z</time>
      </trkpt>
      <trkpt lat="41.008340" lon="-6.942640">
        <ele>251</ele>
        <time>2022-12-04T06:11:13Z</time>
      </trkpt>
      <trkpt lat="41.008320" lon="-6.942410">
        <ele>250</ele>
        <time>2022-12-04T06:11:16Z</time>
      </trkpt>
      <trkpt lat="41.008380" lon="-6.942160">
        <ele>249</ele>
        <time>2022-12-04T06:11:20Z</time>
      </trkpt>
      <trkpt lat="41.009040" lon="-6.941160">
        <ele>247</ele>
        <time>2022-12-04T06:11:38Z</time>
      </trkpt>
      <trkpt lat="41.009260" lon="-6.941030">
        <ele>247</ele>
        <time>2022-12-04T06:11:42Z</time>
      </trkpt>
      <trkpt lat="41.009850" lon="-6.940860">
        <ele>247</ele>
        <time>2022-12-04T06:11:53Z</time>
      </trkpt>
      <trkpt lat="41.010270" lon="-6.940510">
        <ele>239</ele>
        <time>2022-12-04T06:12:02Z</time>
      </trkpt>
      <trkpt lat="41.010940" lon="-6.940460">
        <ele>240</ele>
        <time>2022-12-04T06:12:13Z</time>
      </trkpt>
      <trkpt lat="41.011280" lon="-6.940330">
        <ele>235</ele>
        <time>2022-12-04T06:12:20Z</time>
      </trkpt>
      <trkpt lat="41.011610" lon="-6.940370">
        <ele>233</ele>
        <time>2022-12-04T06:12:26Z</time>
      </trkpt>
      <trkpt lat="41.011750" lon="-6.940510">
        <ele>234</ele>
        <time>2022-12-04T06:12:29Z</time>
      </trkpt>
      <trkpt lat="41.012120" lon="-6.941140">
        <ele>232</ele>
        <time>2022-12-04T06:12:39Z</time>
      </trkpt>
      <trkpt lat="41.012220" lon="-6.941510">
        <ele>233</ele>
        <time>2022-12-04T06:12:45Z</time>
      </trkpt>
      <trkpt lat="41.012310" lon="-6.942320">
        <ele>236</ele>
        <time>2022-12-04T06:12:56Z</time>
      </trkpt>
      <trkpt lat="41.012600" lon="-6.942960">
        <ele>232</ele>
        <time>2022-12-04T06:13:06Z</time>
      </trkpt>
      <trkpt lat="41.012740" lon="-6.943170">
        <ele>230</ele>
        <time>2022-12-04T06:13:10Z</time>
      </trkpt>
      <trkpt lat="41.013700" lon="-6.944080">
        <ele>224</ele>
        <time>2022-12-04T06:13:31Z</time>
      </trkpt>
      <trkpt lat="41.013880" lon="-6.944180">
        <ele>223</ele>
        <time>2022-12-04T06:13:34Z</time>
      </trkpt>
      <trkpt lat="41.014140" lon="-6.944240">
        <ele>221</ele>
        <time>2022-12-04T06:13:39Z</time>
      </trkpt>
      <trkpt lat="41.014490" lon="-6.944170">
        <ele>220</ele>
        <time>2022-12-04T06:13:45Z</time>
      </trkpt>
      <trkpt lat="41.015870" lon="-6.943060">
        <ele>210</ele>
        <time>2022-12-04T06:14:14Z</time>
      </trkpt>
      <trkpt lat="41.016050" lon="-6.943020">
        <ele>208</ele>
        <time>2022-12-04T06:14:17Z</time>
      </trkpt>
      <trkpt lat="41.016230" lon="-6.943030">
        <ele>207</ele>
        <time>2022-12-04T06:14:20Z</time>
      </trkpt>
      <trkpt lat="41.016680" lon="-6.943300">
        <ele>204</ele>
        <time>2022-12-04T06:14:29Z</time>
      </trkpt>
      <trkpt lat="41.016900" lon="-6.943310">
        <ele>205</ele>
        <time>2022-12-04T06:14:33Z</time>
      </trkpt>
      <trkpt lat="41.017110" lon="-6.943130">
        <ele>204</ele>
        <time>2022-12-04T06:14:37Z</time>
      </trkpt>
      <trkpt lat="41.017540" lon="-6.942380">
        <ele>197</ele>
        <time>2022-12-04T06:14:50Z</time>
      </trkpt>
      <trkpt lat="41.017680" lon="-6.942220">
        <ele>195</ele>
        <time>2022-12-04T06:14:53Z</time>
      </trkpt>
      <trkpt lat="41.018970" lon="-6.941400">
        <ele>182</ele>
        <time>2022-12-04T06:15:19Z</time>
      </trkpt>
      <trkpt lat="41.019130" lon="-6.941350">
        <ele>181</ele>
        <time>2022-12-04T06:15:22Z</time>
      </trkpt>
      <trkpt lat="41.020090" lon="-6.941240">
        <ele>174</ele>
        <time>2022-12-04T06:15:39Z</time>
      </trkpt>
      <trkpt lat="41.020520" lon="-6.941210">
        <ele>172</ele>
        <time>2022-12-04T06:15:46Z</time>
      </trkpt>
      <trkpt lat="41.021560" lon="-6.941390">
        <ele>165</ele>
        <time>2022-12-04T06:16:05Z</time>
      </trkpt>
      <trkpt lat="41.022090" lon="-6.941360">
        <ele>162</ele>
        <time>2022-12-04T06:16:15Z</time>
      </trkpt>
      <trkpt lat="41.022860" lon="-6.941280">
        <ele>159</ele>
        <time>2022-12-04T06:16:28Z</time>
      </trkpt>
      <trkpt lat="41.023150" lon="-6.941170">
        <ele>158</ele>
        <time>2022-12-04T06:16:34Z</time>
      </trkpt>
      <trkpt lat="41.024000" lon="-6.940500">
        <ele>154</ele>
        <time>2022-12-04T06:16:51Z</time>
      </trkpt>
      <trkpt lat="41.024200" lon="-6.940440">
        <ele>153</ele>
        <time>2022-12-04T06:16:55Z</time>
      </trkpt>
      <trkpt lat="41.024680" lon="-6.940490">
        <ele>152</ele>
        <time>2022-12-04T06:17:03Z</time>
      </trkpt>
      <trkpt lat="41.025340" lon="-6.940290">
        <ele>148</ele>
        <time>2022-12-04T06:17:16Z</time>
      </trkpt>
      <trkpt lat="41.025910" lon="-6.940310">
        <ele>146</ele>
        <time>2022-12-04T06:17:26Z</time>
      </trkpt>
      <trkpt lat="41.026850" lon="-6.940040">
        <ele>139</ele>
        <time>2022-12-04T06:17:43Z</time>
      </trkpt>
      <trkpt lat="41.026900" lon="-6.940030">
        <ele>139</ele>
        <time>2022-12-04T06:17:44Z</time>
      </trkpt>
      <trkpt lat="41.026990" lon="-6.940010">
        <ele>138</ele>
        <time>2022-12-04T06:17:45Z</time>
      </trkpt>
      <trkpt lat="41.027130" lon="-6.940120">
        <ele>138</ele>
        <time>2022-12-04T06:17:48Z</time>
      </trkpt>
      <trkpt lat="41.027860" lon="-6.941460">
        <ele>137</ele>
        <time>2022-12-04T06:18:10Z</time>
      </trkpt>
      <trkpt lat="41.027930" lon="-6.941550">
        <ele>137</ele>
        <time>2022-12-04T06:18:12Z</time>
      </trkpt>
      <trkpt lat="41.028030" lon="-6.941610">
        <ele>136</ele>
        <time>2022-12-04T06:18:14Z</time>
      </trkpt>
      <trkpt lat="41.028210" lon="-6.941640">
        <ele>134</ele>
        <time>2022-12-04T06:18:17Z</time>
      </trkpt>
      <trkpt lat="41.030280" lon="-6.941320">
        <ele>137</ele>
        <time>2022-12-04T06:18:54Z</time>
      </trkpt>
      <trkpt lat="41.030460" lon="-6.941260">
        <ele>140</ele>
        <time>2022-12-04T06:18:58Z</time>
      </trkpt>
      <trkpt lat="41.030640" lon="-6.941160">
        <ele>143</ele>
        <time>2022-12-04T06:19:01Z</time>
      </trkpt>
      <trkpt lat="41.030730" lon="-6.941060">
        <ele>145</ele>
        <time>2022-12-04T06:19:03Z</time>
      </trkpt>
      <trkpt lat="41.030820" lon="-6.940770">
        <ele>148</ele>
        <time>2022-12-04T06:19:07Z</time>
      </trkpt>
      <trkpt lat="41.030840" lon="-6.940600">
        <ele>148</ele>
        <time>2022-12-04T06:19:10Z</time>
      </trkpt>
      <trkpt lat="41.030810" lon="-6.939890">
        <ele>147</ele>
        <time>2022-12-04T06:19:19Z</time>
      </trkpt>
      <trkpt lat="41.030840" lon="-6.939690">
        <ele>147</ele>
        <time>2022-12-04T06:19:22Z</time>
      </trkpt>
      <trkpt lat="41.031000" lon="-6.939040">
        <ele>150</ele>
        <time>2022-12-04T06:19:31Z</time>
      </trkpt>
      <trkpt lat="41.031010" lon="-6.938830">
        <ele>151</ele>
        <time>2022-12-04T06:19:34Z</time>
      </trkpt>
      <trkpt lat="41.030840" lon="-6.938060">
        <ele>149</ele>
        <time>2022-12-04T06:19:45Z</time>
      </trkpt>
      <trkpt lat="41.030870" lon="-6.937690">
        <ele>149</ele>
        <time>2022-12-04T06:19:50Z</time>
      </trkpt>
      <trkpt lat="41.031260" lon="-6.936660">
        <ele>150</ele>
        <time>2022-12-04T06:20:05Z</time>
      </trkpt>
      <trkpt lat="41.031540" lon="-6.936190">
        <ele>151</ele>
        <time>2022-12-04T06:20:13Z</time>
      </trkpt>
      <trkpt lat="41.031590" lon="-6.935930">
        <ele>150</ele>
        <time>2022-12-04T06:20:17Z</time>
      </trkpt>
      <trkpt lat="41.031570" lon="-6.935740">
        <ele>149</ele>
        <time>2022-12-04T06:20:19Z</time>
      </trkpt>
      <trkpt lat="41.031460" lon="-6.935300">
        <ele>148</ele>
        <time>2022-12-04T06:20:26Z</time>
      </trkpt>
      <trkpt lat="41.031450" lon="-6.935090">
        <ele>148</ele>
        <time>2022-12-04T06:20:29Z</time>
      </trkpt>
      <trkpt lat="41.031490" lon="-6.934840">
        <ele>147</ele>
        <time>2022-12-04T06:20:32Z</time>
      </trkpt>
      <trkpt lat="41.031770" lon="-6.934220">
        <ele>148</ele>
        <time>2022-12-04T06:20:42Z</time>
      </trkpt>
      <trkpt lat="41.031780" lon="-6.934000">
        <ele>148</ele>
        <time>2022-12-04T06:20:45Z</time>
      </trkpt>
      <trkpt lat="41.031750" lon="-6.933790">
        <ele>149</ele>
        <time>2022-12-04T06:20:48Z</time>
      </trkpt>
      <trkpt lat="41.031540" lon="-6.933460">
        <ele>148</ele>
        <time>2022-12-04T06:20:53Z</time>
      </trkpt>
      <trkpt lat="41.031480" lon="-6.933250">
        <ele>148</ele>
        <time>2022-12-04T06:20:56Z</time>
      </trkpt>
      <trkpt lat="41.031470" lon="-6.932040">
        <ele>146</ele>
        <time>2022-12-04T06:21:13Z</time>
      </trkpt>
      <trkpt lat="41.031590" lon="-6.931410">
        <ele>145</ele>
        <time>2022-12-04T06:21:21Z</time>
      </trkpt>
      <trkpt lat="41.031830" lon="-6.930570">
        <ele>142</ele>
        <time>2022-12-04T06:21:33Z</time>
      </trkpt>
      <trkpt lat="41.032140" lon="-6.929890">
        <ele>140</ele>
        <time>2022-12-04T06:21:44Z</time>
      </trkpt>
      <trkpt lat="41.032340" lon="-6.929660">
        <ele>141</ele>
        <time>2022-12-04T06:21:49Z</time>
      </trkpt>
      <trkpt lat="41.032540" lon="-6.929490">
        <ele>142</ele>
        <time>2022-12-04T06:21:53Z</time>
      </trkpt>
      <trkpt lat="41.032650" lon="-6.929320">
        <ele>141</ele>
        <time>2022-12-04T06:21:56Z</time>
      </trkpt>
      <trkpt lat="41.032710" lon="-6.929130">
        <ele>141</ele>
        <time>2022-12-04T06:21:59Z</time>
      </trkpt>
      <trkpt lat="41.032730" lon="-6.928650">
        <ele>139</ele>
        <time>2022-12-04T06:22:05Z</time>
      </trkpt>
      <trkpt lat="41.032860" lon="-6.928310">
        <ele>140</ele>
        <time>2022-12-04T06:22:10Z</time>
      </trkpt>
      <trkpt lat="41.033140" lon="-6.927880">
        <ele>141</ele>
        <time>2022-12-04T06:22:18Z</time>
      </trkpt>
      <trkpt lat="41.033400" lon="-6.927640">
        <ele>141</ele>
        <time>2022-12-04T06:22:24Z</time>
      </trkpt>
      <trkpt lat="41.033530" lon="-6.927400">
        <ele>142</ele>
        <time>2022-12-04T06:22:27Z</time>
      </trkpt>
      <trkpt lat="41.033590" lon="-6.926950">
        <ele>141</ele>
        <time>2022-12-04T06:22:34Z</time>
      </trkpt>
      <trkpt lat="41.034140" lon="-6.926070">
        <ele>143</ele>
        <time>2022-12-04T06:22:49Z</time>
      </trkpt>
      <trkpt lat="41.034600" lon="-6.925660">
        <ele>141</ele>
        <time>2022-12-04T06:22:59Z</time>
      </trkpt>
      <trkpt lat="41.034710" lon="-6.925480">
        <ele>141</ele>
        <time>2022-12-04T06:23:02Z</time>
      </trkpt>
      <trkpt lat="41.034730" lon="-6.925420">
        <ele>141</ele>
        <time>2022-12-04T06:23:03Z</time>
      </trkpt>
      <trkpt lat="41.034820" lon="-6.924980">
        <ele>141</ele>
        <time>2022-12-04T06:23:09Z</time>
      </trkpt>
      <trkpt lat="41.035010" lon="-6.924700">
        <ele>140</ele>
        <time>2022-12-04T06:23:14Z</time>
      </trkpt>
      <trkpt lat="41.035720" lon="-6.923870">
        <ele>143</ele>
        <time>2022-12-04T06:23:31Z</time>
      </trkpt>
      <trkpt lat="41.036590" lon="-6.923200">
        <ele>144</ele>
        <time>2022-12-04T06:23:49Z</time>
      </trkpt>
      <trkpt lat="41.037120" lon="-6.922910">
        <ele>144</ele>
        <time>2022-12-04T06:23:59Z</time>
      </trkpt>
      <trkpt lat="41.038140" lon="-6.921870">
        <ele>145</ele>
        <time>2022-12-04T06:24:22Z</time>
      </trkpt>
      <trkpt lat="41.038710" lon="-6.920610">
        <ele>145</ele>
        <time>2022-12-04T06:24:42Z</time>
      </trkpt>
      <trkpt lat="41.038730" lon="-6.920420">
        <ele>145</ele>
        <time>2022-12-04T06:24:44Z</time>
      </trkpt>
      <trkpt lat="41.038690" lon="-6.919910">
        <ele>142</ele>
        <time>2022-12-04T06:24:51Z</time>
      </trkpt>
      <trkpt lat="41.038740" lon="-6.919740">
        <ele>142</ele>
        <time>2022-12-04T06:24:53Z</time>
      </trkpt>
      <trkpt lat="41.038860" lon="-6.919520">
        <ele>142</ele>
        <time>2022-12-04T06:24:57Z</time>
      </trkpt>
      <trkpt lat="41.039610" lon="-6.918740">
        <ele>145</ele>
        <time>2022-12-04T06:25:14Z</time>
      </trkpt>
      <trkpt lat="41.039750" lon="-6.918450">
        <ele>145</ele>
        <time>2022-12-04T06:25:19Z</time>
      </trkpt>
      <trkpt lat="41.039830" lon="-6.917960">
        <ele>145</ele>
        <time>2022-12-04T06:25:25Z</time>
      </trkpt>
      <trkpt lat="41.039850" lon="-6.917620">
        <ele>144</ele>
        <time>2022-12-04T06:25:30Z</time>
      </trkpt>
      <trkpt lat="41.039820" lon="-6.917060">
        <ele>143</ele>
        <time>2022-12-04T06:25:38Z</time>
      </trkpt>
      <trkpt lat="41.039980" lon="-6.916230">
        <ele>144</ele>
        <time>2022-12-04T06:25:49Z</time>
      </trkpt>
      <trkpt lat="41.039910" lon="-6.915860">
        <ele>143</ele>
        <time>2022-12-04T06:25:54Z</time>
      </trkpt>
      <trkpt lat="41.039460" lon="-6.914730">
        <ele>145</ele>
        <time>2022-12-04T06:26:11Z</time>
      </trkpt>
      <trkpt lat="41.039320" lon="-6.912890">
        <ele>141</ele>
        <time>2022-12-04T06:26:36Z</time>
      </trkpt>
      <trkpt lat="41.039360" lon="-6.912160">
        <ele>142</ele>
        <time>2022-12-04T06:26:46Z</time>
      </trkpt>
      <trkpt lat="41.039340" lon="-6.912050">
        <ele>141</ele>
        <time>2022-12-04T06:26:47Z</time>
      </trkpt>
      <trkpt lat="41.038980" lon="-6.911320">
        <ele>139</ele>
        <time>2022-12-04T06:26:59Z</time>
      </trkpt>
      <trkpt lat="41.038920" lon="-6.910900">
        <ele>141</ele>
        <time>2022-12-04T06:27:05Z</time>
      </trkpt>
      <trkpt lat="41.038940" lon="-6.910280">
        <ele>143</ele>
        <time>2022-12-04T06:27:13Z</time>
      </trkpt>
      <trkpt lat="41.038910" lon="-6.910110">
        <ele>142</ele>
        <time>2022-12-04T06:27:16Z</time>
      </trkpt>
      <trkpt lat="41.038850" lon="-6.909970">
        <ele>142</ele>
        <time>2022-12-04T06:27:18Z</time>
      </trkpt>
      <trkpt lat="41.038720" lon="-6.909760">
        <ele>141</ele>
        <time>2022-12-04T06:27:21Z</time>
      </trkpt>
      <trkpt lat="41.037980" lon="-6.908220">
        <ele>138</ele>
        <time>2022-12-04T06:27:46Z</time>
      </trkpt>
      <trkpt lat="41.037900" lon="-6.907960">
        <ele>136</ele>
        <time>2022-12-04T06:27:50Z</time>
      </trkpt>
      <trkpt lat="41.037840" lon="-6.907470">
        <ele>133</ele>
        <time>2022-12-04T06:27:56Z</time>
      </trkpt>
      <trkpt lat="41.037770" lon="-6.906700">
        <ele>133</ele>
        <time>2022-12-04T06:28:07Z</time>
      </trkpt>
      <trkpt lat="41.037690" lon="-6.906460">
        <ele>137</ele>
        <time>2022-12-04T06:28:10Z</time>
      </trkpt>
      <trkpt lat="41.037590" lon="-6.906430">
        <ele>137</ele>
        <time>2022-12-04T06:28:12Z</time>
      </trkpt>
      <trkpt lat="41.037120" lon="-6.906510">
        <ele>134</ele>
        <time>2022-12-04T06:28:20Z</time>
      </trkpt>
      <trkpt lat="41.036950" lon="-6.906490">
        <ele>134</ele>
        <time>2022-12-04T06:28:24Z</time>
      </trkpt>
      <trkpt lat="41.036780" lon="-6.906360">
        <ele>135</ele>
        <time>2022-12-04T06:28:27Z</time>
      </trkpt>
      <trkpt lat="41.035140" lon="-6.903640">
        <ele>141</ele>
        <time>2022-12-04T06:29:14Z</time>
      </trkpt>
      <trkpt lat="41.034680" lon="-6.901390">
        <ele>146</ele>
        <time>2022-12-04T06:29:45Z</time>
      </trkpt>
      <trkpt lat="41.034130" lon="-6.897860">
        <ele>163</ele>
        <time>2022-12-04T06:30:33Z</time>
      </trkpt>
      <trkpt lat="41.034060" lon="-6.896940">
        <ele>166</ele>
        <time>2022-12-04T06:30:46Z</time>
      </trkpt>
      <trkpt lat="41.034070" lon="-6.896440">
        <ele>165</ele>
        <time>2022-12-04T06:30:53Z</time>
      </trkpt>
      <trkpt lat="41.034160" lon="-6.896150">
        <ele>166</ele>
        <time>2022-12-04T06:30:57Z</time>
      </trkpt>
      <trkpt lat="41.034370" lon="-6.895890">
        <ele>175</ele>
        <time>2022-12-04T06:31:02Z</time>
      </trkpt>
      <trkpt lat="41.034390" lon="-6.895610">
        <ele>179</ele>
        <time>2022-12-04T06:31:06Z</time>
      </trkpt>
      <trkpt lat="41.034270" lon="-6.895400">
        <ele>177</ele>
        <time>2022-12-04T06:31:09Z</time>
      </trkpt>
      <trkpt lat="41.033930" lon="-6.895240">
        <ele>168</ele>
        <time>2022-12-04T06:31:16Z</time>
      </trkpt>
      <trkpt lat="41.033700" lon="-6.894970">
        <ele>165</ele>
        <time>2022-12-04T06:31:21Z</time>
      </trkpt>
      <trkpt lat="41.033410" lon="-6.893790">
        <ele>167</ele>
        <time>2022-12-04T06:31:38Z</time>
      </trkpt>
      <trkpt lat="41.033430" lon="-6.892870">
        <ele>173</ele>
        <time>2022-12-04T06:31:50Z</time>
      </trkpt>
      <trkpt lat="41.033330" lon="-6.892440">
        <ele>168</ele>
        <time>2022-12-04T06:31:56Z</time>
      </trkpt>
      <trkpt lat="41.033360" lon="-6.892240">
        <ele>169</ele>
        <time>2022-12-04T06:31:59Z</time>
      </trkpt>
      <trkpt lat="41.033560" lon="-6.891920">
        <ele>178</ele>
        <time>2022-12-04T06:32:04Z</time>
      </trkpt>
      <trkpt lat="41.033590" lon="-6.891670">
        <ele>177</ele>
        <time>2022-12-04T06:32:08Z</time>
      </trkpt>
      <trkpt lat="41.033510" lon="-6.891430">
        <ele>178</ele>
        <time>2022-12-04T06:32:11Z</time>
      </trkpt>
      <trkpt lat="41.032850" lon="-6.890620">
        <ele>165</ele>
        <time>2022-12-04T06:32:27Z</time>
      </trkpt>
      <trkpt lat="41.032740" lon="-6.890190">
        <ele>163</ele>
        <time>2022-12-04T06:32:33Z</time>
      </trkpt>
      <trkpt lat="41.032830" lon="-6.889930">
        <ele>167</ele>
        <time>2022-12-04T06:32:37Z</time>
      </trkpt>
      <trkpt lat="41.033240" lon="-6.889730">
        <ele>180</ele>
        <time>2022-12-04T06:32:45Z</time>
      </trkpt>
      <trkpt lat="41.033310" lon="-6.889610">
        <ele>181</ele>
        <time>2022-12-04T06:32:47Z</time>
      </trkpt>
      <trkpt lat="41.033310" lon="-6.889440">
        <ele>181</ele>
        <time>2022-12-04T06:32:49Z</time>
      </trkpt>
      <trkpt lat="41.033280" lon="-6.889320">
        <ele>179</ele>
        <time>2022-12-04T06:32:51Z</time>
      </trkpt>
      <trkpt lat="41.032790" lon="-6.888570">
        <ele>170</ele>
        <time>2022-12-04T06:33:04Z</time>
      </trkpt>
      <trkpt lat="41.032740" lon="-6.888420">
        <ele>170</ele>
        <time>2022-12-04T06:33:07Z</time>
      </trkpt>
      <trkpt lat="41.032750" lon="-6.887930">
        <ele>175</ele>
        <time>2022-12-04T06:33:13Z</time>
      </trkpt>
      <trkpt lat="41.032700" lon="-6.887810">
        <ele>176</ele>
        <time>2022-12-04T06:33:15Z</time>
      </trkpt>
      <trkpt lat="41.032540" lon="-6.887690">
        <ele>173</ele>
        <time>2022-12-04T06:33:18Z</time>
      </trkpt>
      <trkpt lat="41.032190" lon="-6.887610">
        <ele>163</ele>
        <time>2022-12-04T06:33:25Z</time>
      </trkpt>
      <trkpt lat="41.032060" lon="-6.887390">
        <ele>160</ele>
        <time>2022-12-04T06:33:28Z</time>
      </trkpt>
      <trkpt lat="41.032080" lon="-6.887110">
        <ele>162</ele>
        <time>2022-12-04T06:33:32Z</time>
      </trkpt>
      <trkpt lat="41.032290" lon="-6.886800">
        <ele>169</ele>
        <time>2022-12-04T06:33:38Z</time>
      </trkpt>
      <trkpt lat="41.032340" lon="-6.886570">
        <ele>171</ele>
        <time>2022-12-04T06:33:41Z</time>
      </trkpt>
      <trkpt lat="41.032270" lon="-6.886370">
        <ele>169</ele>
        <time>2022-12-04T06:33:44Z</time>
      </trkpt>
      <trkpt lat="41.031940" lon="-6.886110">
        <ele>161</ele>
        <time>2022-12-04T06:33:51Z</time>
      </trkpt>
      <trkpt lat="41.031860" lon="-6.885850">
        <ele>160</ele>
        <time>2022-12-04T06:33:54Z</time>
      </trkpt>
      <trkpt lat="41.031860" lon="-6.885700">
        <ele>160</ele>
        <time>2022-12-04T06:33:56Z</time>
      </trkpt>
      <trkpt lat="41.031930" lon="-6.885550">
        <ele>162</ele>
        <time>2022-12-04T06:33:59Z</time>
      </trkpt>
      <trkpt lat="41.032430" lon="-6.884930">
        <ele>171</ele>
        <time>2022-12-04T06:34:11Z</time>
      </trkpt>
      <trkpt lat="41.032510" lon="-6.884710">
        <ele>173</ele>
        <time>2022-12-04T06:34:14Z</time>
      </trkpt>
      <trkpt lat="41.032530" lon="-6.883930">
        <ele>176</ele>
        <time>2022-12-04T06:34:25Z</time>
      </trkpt>
      <trkpt lat="41.032220" lon="-6.883020">
        <ele>183</ele>
        <time>2022-12-04T06:34:38Z</time>
      </trkpt>
      <trkpt lat="41.031510" lon="-6.881980">
        <ele>176</ele>
        <time>2022-12-04T06:34:57Z</time>
      </trkpt>
      <trkpt lat="41.031420" lon="-6.881660">
        <ele>176</ele>
        <time>2022-12-04T06:35:02Z</time>
      </trkpt>
      <trkpt lat="41.031370" lon="-6.881000">
        <ele>179</ele>
        <time>2022-12-04T06:35:11Z</time>
      </trkpt>
      <trkpt lat="41.031300" lon="-6.880710">
        <ele>179</ele>
        <time>2022-12-04T06:35:15Z</time>
      </trkpt>
      <trkpt lat="41.030570" lon="-6.879810">
        <ele>173</ele>
        <time>2022-12-04T06:35:32Z</time>
      </trkpt>
      <trkpt lat="41.030410" lon="-6.879540">
        <ele>171</ele>
        <time>2022-12-04T06:35:37Z</time>
      </trkpt>
      <trkpt lat="41.030380" lon="-6.879390">
        <ele>172</ele>
        <time>2022-12-04T06:35:39Z</time>
      </trkpt>
      <trkpt lat="41.030410" lon="-6.879060">
        <ele>173</ele>
        <time>2022-12-04T06:35:43Z</time>
      </trkpt>
      <trkpt lat="41.031150" lon="-6.877260">
        <ele>180</ele>
        <time>2022-12-04T06:36:11Z</time>
      </trkpt>
      <trkpt lat="41.031140" lon="-6.877120">
        <ele>181</ele>
        <time>2022-12-04T06:36:13Z</time>
      </trkpt>
      <trkpt lat="41.031040" lon="-6.876900">
        <ele>181</ele>
        <time>2022-12-04T06:36:16Z</time>
      </trkpt>
      <trkpt lat="41.030560" lon="-6.876760">
        <ele>176</ele>
        <time>2022-12-04T06:36:25Z</time>
      </trkpt>
      <trkpt lat="41.030350" lon="-6.876620">
        <ele>175</ele>
        <time>2022-12-04T06:36:29Z</time>
      </trkpt>
      <trkpt lat="41.030290" lon="-6.876480">
        <ele>174</ele>
        <time>2022-12-04T06:36:31Z</time>
      </trkpt>
      <trkpt lat="41.030290" lon="-6.876210">
        <ele>175</ele>
        <time>2022-12-04T06:36:35Z</time>
      </trkpt>
      <trkpt lat="41.030420" lon="-6.875980">
        <ele>176</ele>
        <time>2022-12-04T06:36:39Z</time>
      </trkpt>
      <trkpt lat="41.030970" lon="-6.875430">
        <ele>178</ele>
        <time>2022-12-04T06:36:51Z</time>
      </trkpt>
      <trkpt lat="41.031120" lon="-6.875340">
        <ele>179</ele>
        <time>2022-12-04T06:36:54Z</time>
      </trkpt>
      <trkpt lat="41.031570" lon="-6.875260">
        <ele>183</ele>
        <time>2022-12-04T06:37:02Z</time>
      </trkpt>
      <trkpt lat="41.031680" lon="-6.875130">
        <ele>182</ele>
        <time>2022-12-04T06:37:05Z</time>
      </trkpt>
      <trkpt lat="41.031710" lon="-6.875000">
        <ele>182</ele>
        <time>2022-12-04T06:37:07Z</time>
      </trkpt>
      <trkpt lat="41.031700" lon="-6.874840">
        <ele>183</ele>
        <time>2022-12-04T06:37:09Z</time>
      </trkpt>
      <trkpt lat="41.031470" lon="-6.874100">
        <ele>181</ele>
        <time>2022-12-04T06:37:20Z</time>
      </trkpt>
      <trkpt lat="41.031320" lon="-6.872350">
        <ele>181</ele>
        <time>2022-12-04T06:37:43Z</time>
      </trkpt>
      <trkpt lat="41.030730" lon="-6.871490">
        <ele>177</ele>
        <time>2022-12-04T06:37:59Z</time>
      </trkpt>
      <trkpt lat="41.030630" lon="-6.871220">
        <ele>176</ele>
        <time>2022-12-04T06:38:03Z</time>
      </trkpt>
      <trkpt lat="41.030700" lon="-6.870860">
        <ele>179</ele>
        <time>2022-12-04T06:38:08Z</time>
      </trkpt>
      <trkpt lat="41.030920" lon="-6.870170">
        <ele>183</ele>
        <time>2022-12-04T06:38:18Z</time>
      </trkpt>
      <trkpt lat="41.030930" lon="-6.869890">
        <ele>184</ele>
        <time>2022-12-04T06:38:22Z</time>
      </trkpt>
      <trkpt lat="41.030880" lon="-6.869750">
        <ele>184</ele>
        <time>2022-12-04T06:38:24Z</time>
      </trkpt>
      <trkpt lat="41.030420" lon="-6.869290">
        <ele>180</ele>
        <time>2022-12-04T06:38:34Z</time>
      </trkpt>
      <trkpt lat="41.030280" lon="-6.868860">
        <ele>180</ele>
        <time>2022-12-04T06:38:40Z</time>
      </trkpt>
      <trkpt lat="41.030280" lon="-6.868720">
        <ele>181</ele>
        <time>2022-12-04T06:38:42Z</time>
      </trkpt>
      <trkpt lat="41.030380" lon="-6.868470">
        <ele>183</ele>
        <time>2022-12-04T06:38:46Z</time>
      </trkpt>
      <trkpt lat="41.030620" lon="-6.868330">
        <ele>184</ele>
        <time>2022-12-04T06:38:51Z</time>
      </trkpt>
      <trkpt lat="41.030770" lon="-6.868320">
        <ele>185</ele>
        <time>2022-12-04T06:38:53Z</time>
      </trkpt>
      <trkpt lat="41.031310" lon="-6.868500">
        <ele>188</ele>
        <time>2022-12-04T06:39:03Z</time>
      </trkpt>
      <trkpt lat="41.031400" lon="-6.868490">
        <ele>188</ele>
        <time>2022-12-04T06:39:05Z</time>
      </trkpt>
      <trkpt lat="41.031550" lon="-6.868350">
        <ele>188</ele>
        <time>2022-12-04T06:39:08Z</time>
      </trkpt>
      <trkpt lat="41.031610" lon="-6.868070">
        <ele>191</ele>
        <time>2022-12-04T06:39:12Z</time>
      </trkpt>
      <trkpt lat="41.031580" lon="-6.867930">
        <ele>192</ele>
        <time>2022-12-04T06:39:14Z</time>
      </trkpt>
      <trkpt lat="41.031520" lon="-6.867730">
        <ele>192</ele>
        <time>2022-12-04T06:39:17Z</time>
      </trkpt>
      <trkpt lat="41.031360" lon="-6.867450">
        <ele>191</ele>
        <time>2022-12-04T06:39:21Z</time>
      </trkpt>
      <trkpt lat="41.030930" lon="-6.867070">
        <ele>184</ele>
        <time>2022-12-04T06:39:31Z</time>
      </trkpt>
      <trkpt lat="41.030870" lon="-6.866980">
        <ele>183</ele>
        <time>2022-12-04T06:39:32Z</time>
      </trkpt>
      <trkpt lat="41.030850" lon="-6.866900">
        <ele>183</ele>
        <time>2022-12-04T06:39:33Z</time>
      </trkpt>
      <trkpt lat="41.030840" lon="-6.866810">
        <ele>183</ele>
        <time>2022-12-04T06:39:35Z</time>
      </trkpt>
      <trkpt lat="41.030870" lon="-6.866610">
        <ele>184</ele>
        <time>2022-12-04T06:39:37Z</time>
      </trkpt>
      <trkpt lat="41.030900" lon="-6.866530">
        <ele>184</ele>
        <time>2022-12-04T06:39:39Z</time>
      </trkpt>
      <trkpt lat="41.030970" lon="-6.866470">
        <ele>185</ele>
        <time>2022-12-04T06:39:40Z</time>
      </trkpt>
      <trkpt lat="41.031620" lon="-6.866080">
        <ele>193</ele>
        <time>2022-12-04T06:39:53Z</time>
      </trkpt>
      <trkpt lat="41.031690" lon="-6.866020">
        <ele>194</ele>
        <time>2022-12-04T06:39:54Z</time>
      </trkpt>
      <trkpt lat="41.031730" lon="-6.865950">
        <ele>193</ele>
        <time>2022-12-04T06:39:55Z</time>
      </trkpt>
      <trkpt lat="41.031760" lon="-6.865860">
        <ele>193</ele>
        <time>2022-12-04T06:39:57Z</time>
      </trkpt>
      <trkpt lat="41.031760" lon="-6.865690">
        <ele>194</ele>
        <time>2022-12-04T06:39:59Z</time>
      </trkpt>
      <trkpt lat="41.031720" lon="-6.865540">
        <ele>194</ele>
        <time>2022-12-04T06:40:01Z</time>
      </trkpt>
      <trkpt lat="41.031330" lon="-6.865140">
        <ele>190</ele>
        <time>2022-12-04T06:40:10Z</time>
      </trkpt>
      <trkpt lat="41.031230" lon="-6.865000">
        <ele>189</ele>
        <time>2022-12-04T06:40:13Z</time>
      </trkpt>
      <trkpt lat="41.030750" lon="-6.864240">
        <ele>191</ele>
        <time>2022-12-04T06:40:26Z</time>
      </trkpt>
      <trkpt lat="41.030680" lon="-6.864080">
        <ele>190</ele>
        <time>2022-12-04T06:40:28Z</time>
      </trkpt>
      <trkpt lat="41.030380" lon="-6.863020">
        <ele>188</ele>
        <time>2022-12-04T06:40:44Z</time>
      </trkpt>
      <trkpt lat="41.030370" lon="-6.862900">
        <ele>187</ele>
        <time>2022-12-04T06:40:45Z</time>
      </trkpt>
      <trkpt lat="41.030380" lon="-6.862810">
        <ele>188</ele>
        <time>2022-12-04T06:40:46Z</time>
      </trkpt>
      <trkpt lat="41.030410" lon="-6.862720">
        <ele>188</ele>
        <time>2022-12-04T06:40:48Z</time>
      </trkpt>
      <trkpt lat="41.030460" lon="-6.862640">
        <ele>189</ele>
        <time>2022-12-04T06:40:49Z</time>
      </trkpt>
      <trkpt lat="41.030530" lon="-6.862570">
        <ele>190</ele>
        <time>2022-12-04T06:40:51Z</time>
      </trkpt>
      <trkpt lat="41.030630" lon="-6.862520">
        <ele>191</ele>
        <time>2022-12-04T06:40:53Z</time>
      </trkpt>
      <trkpt lat="41.031550" lon="-6.862270">
        <ele>200</ele>
        <time>2022-12-04T06:41:09Z</time>
      </trkpt>
      <trkpt lat="41.031670" lon="-6.862220">
        <ele>201</ele>
        <time>2022-12-04T06:41:11Z</time>
      </trkpt>
      <trkpt lat="41.031770" lon="-6.862160">
        <ele>202</ele>
        <time>2022-12-04T06:41:13Z</time>
      </trkpt>
      <trkpt lat="41.031860" lon="-6.862070">
        <ele>202</ele>
        <time>2022-12-04T06:41:15Z</time>
      </trkpt>
      <trkpt lat="41.032140" lon="-6.861680">
        <ele>201</ele>
        <time>2022-12-04T06:41:23Z</time>
      </trkpt>
      <trkpt lat="41.032200" lon="-6.861510">
        <ele>202</ele>
        <time>2022-12-04T06:41:25Z</time>
      </trkpt>
      <trkpt lat="41.032210" lon="-6.861420">
        <ele>202</ele>
        <time>2022-12-04T06:41:26Z</time>
      </trkpt>
      <trkpt lat="41.032190" lon="-6.861330">
        <ele>202</ele>
        <time>2022-12-04T06:41:28Z</time>
      </trkpt>
      <trkpt lat="41.032150" lon="-6.861230">
        <ele>201</ele>
        <time>2022-12-04T06:41:29Z</time>
      </trkpt>
      <trkpt lat="41.032050" lon="-6.861110">
        <ele>200</ele>
        <time>2022-12-04T06:41:32Z</time>
      </trkpt>
      <trkpt lat="41.031590" lon="-6.860700">
        <ele>193</ele>
        <time>2022-12-04T06:41:41Z</time>
      </trkpt>
      <trkpt lat="41.031510" lon="-6.860600">
        <ele>192</ele>
        <time>2022-12-04T06:41:43Z</time>
      </trkpt>
      <trkpt lat="41.031450" lon="-6.860410">
        <ele>191</ele>
        <time>2022-12-04T06:41:46Z</time>
      </trkpt>
      <trkpt lat="41.031450" lon="-6.860290">
        <ele>191</ele>
        <time>2022-12-04T06:41:48Z</time>
      </trkpt>
      <trkpt lat="41.031470" lon="-6.860180">
        <ele>192</ele>
        <time>2022-12-04T06:41:49Z</time>
      </trkpt>
      <trkpt lat="41.031530" lon="-6.860070">
        <ele>193</ele>
        <time>2022-12-04T06:41:51Z</time>
      </trkpt>
      <trkpt lat="41.031660" lon="-6.859940">
        <ele>195</ele>
        <time>2022-12-04T06:41:54Z</time>
      </trkpt>
      <trkpt lat="41.032610" lon="-6.859230">
        <ele>198</ele>
        <time>2022-12-04T06:42:13Z</time>
      </trkpt>
      <trkpt lat="41.032690" lon="-6.859150">
        <ele>199</ele>
        <time>2022-12-04T06:42:15Z</time>
      </trkpt>
      <trkpt lat="41.032730" lon="-6.859060">
        <ele>200</ele>
        <time>2022-12-04T06:42:17Z</time>
      </trkpt>
      <trkpt lat="41.032750" lon="-6.858960">
        <ele>201</ele>
        <time>2022-12-04T06:42:18Z</time>
      </trkpt>
      <trkpt lat="41.032760" lon="-6.858850">
        <ele>201</ele>
        <time>2022-12-04T06:42:19Z</time>
      </trkpt>
      <trkpt lat="41.032740" lon="-6.858730">
        <ele>201</ele>
        <time>2022-12-04T06:42:21Z</time>
      </trkpt>
      <trkpt lat="41.032480" lon="-6.858090">
        <ele>200</ele>
        <time>2022-12-04T06:42:31Z</time>
      </trkpt>
      <trkpt lat="41.032390" lon="-6.857960">
        <ele>201</ele>
        <time>2022-12-04T06:42:33Z</time>
      </trkpt>
      <trkpt lat="41.032200" lon="-6.857890">
        <ele>200</ele>
        <time>2022-12-04T06:42:37Z</time>
      </trkpt>
      <trkpt lat="41.031050" lon="-6.857810">
        <ele>190</ele>
        <time>2022-12-04T06:42:57Z</time>
      </trkpt>
      <trkpt lat="41.030940" lon="-6.857780">
        <ele>189</ele>
        <time>2022-12-04T06:42:59Z</time>
      </trkpt>
      <trkpt lat="41.030850" lon="-6.857700">
        <ele>190</ele>
        <time>2022-12-04T06:43:01Z</time>
      </trkpt>
      <trkpt lat="41.030800" lon="-6.857620">
        <ele>191</ele>
        <time>2022-12-04T06:43:03Z</time>
      </trkpt>
      <trkpt lat="41.030770" lon="-6.857510">
        <ele>192</ele>
        <time>2022-12-04T06:43:04Z</time>
      </trkpt>
      <trkpt lat="41.030760" lon="-6.857360">
        <ele>192</ele>
        <time>2022-12-04T06:43:06Z</time>
      </trkpt>
      <trkpt lat="41.030780" lon="-6.856990">
        <ele>193</ele>
        <time>2022-12-04T06:43:11Z</time>
      </trkpt>
      <trkpt lat="41.030810" lon="-6.856780">
        <ele>194</ele>
        <time>2022-12-04T06:43:14Z</time>
      </trkpt>
      <trkpt lat="41.030870" lon="-6.856540">
        <ele>195</ele>
        <time>2022-12-04T06:43:17Z</time>
      </trkpt>
      <trkpt lat="41.030960" lon="-6.856300">
        <ele>196</ele>
        <time>2022-12-04T06:43:21Z</time>
      </trkpt>
      <trkpt lat="41.031090" lon="-6.856020">
        <ele>198</ele>
        <time>2022-12-04T06:43:25Z</time>
      </trkpt>
      <trkpt lat="41.031400" lon="-6.855450">
        <ele>204</ele>
        <time>2022-12-04T06:43:35Z</time>
      </trkpt>
      <trkpt lat="41.031430" lon="-6.855180">
        <ele>202</ele>
        <time>2022-12-04T06:43:39Z</time>
      </trkpt>
      <trkpt lat="41.031160" lon="-6.854890">
        <ele>199</ele>
        <time>2022-12-04T06:43:45Z</time>
      </trkpt>
      <trkpt lat="41.030290" lon="-6.854680">
        <ele>192</ele>
        <time>2022-12-04T06:44:00Z</time>
      </trkpt>
      <trkpt lat="41.030160" lon="-6.854550">
        <ele>192</ele>
        <time>2022-12-04T06:44:03Z</time>
      </trkpt>
      <trkpt lat="41.030110" lon="-6.854410">
        <ele>192</ele>
        <time>2022-12-04T06:44:05Z</time>
      </trkpt>
      <trkpt lat="41.030090" lon="-6.854240">
        <ele>194</ele>
        <time>2022-12-04T06:44:08Z</time>
      </trkpt>
      <trkpt lat="41.030280" lon="-6.853900">
        <ele>195</ele>
        <time>2022-12-04T06:44:13Z</time>
      </trkpt>
      <trkpt lat="41.031080" lon="-6.853280">
        <ele>203</ele>
        <time>2022-12-04T06:44:30Z</time>
      </trkpt>
      <trkpt lat="41.031310" lon="-6.853010">
        <ele>206</ele>
        <time>2022-12-04T06:44:35Z</time>
      </trkpt>
      <trkpt lat="41.031310" lon="-6.852550">
        <ele>204</ele>
        <time>2022-12-04T06:44:42Z</time>
      </trkpt>
      <trkpt lat="41.030950" lon="-6.851390">
        <ele>200</ele>
        <time>2022-12-04T06:44:58Z</time>
      </trkpt>
      <trkpt lat="41.031010" lon="-6.850890">
        <ele>202</ele>
        <time>2022-12-04T06:45:05Z</time>
      </trkpt>
      <trkpt lat="41.031110" lon="-6.850640">
        <ele>205</ele>
        <time>2022-12-04T06:45:09Z</time>
      </trkpt>
      <trkpt lat="41.031220" lon="-6.850130">
        <ele>206</ele>
        <time>2022-12-04T06:45:16Z</time>
      </trkpt>
      <trkpt lat="41.031270" lon="-6.849490">
        <ele>204</ele>
        <time>2022-12-04T06:45:25Z</time>
      </trkpt>
      <trkpt lat="41.031540" lon="-6.849210">
        <ele>206</ele>
        <time>2022-12-04T06:45:31Z</time>
      </trkpt>
      <trkpt lat="41.031890" lon="-6.849020">
        <ele>211</ele>
        <time>2022-12-04T06:45:38Z</time>
      </trkpt>
      <trkpt lat="41.031990" lon="-6.848730">
        <ele>213</ele>
        <time>2022-12-04T06:45:42Z</time>
      </trkpt>
      <trkpt lat="41.031790" lon="-6.848390">
        <ele>209</ele>
        <time>2022-12-04T06:45:48Z</time>
      </trkpt>
      <trkpt lat="41.031460" lon="-6.848140">
        <ele>207</ele>
        <time>2022-12-04T06:45:54Z</time>
      </trkpt>
      <trkpt lat="41.031050" lon="-6.847600">
        <ele>209</ele>
        <time>2022-12-04T06:46:05Z</time>
      </trkpt>
      <trkpt lat="41.030890" lon="-6.847340">
        <ele>210</ele>
        <time>2022-12-04T06:46:09Z</time>
      </trkpt>
      <trkpt lat="41.030180" lon="-6.846230">
        <ele>208</ele>
        <time>2022-12-04T06:46:29Z</time>
      </trkpt>
      <trkpt lat="41.029920" lon="-6.845440">
        <ele>206</ele>
        <time>2022-12-04T06:46:40Z</time>
      </trkpt>
      <trkpt lat="41.029840" lon="-6.844920">
        <ele>203</ele>
        <time>2022-12-04T06:46:47Z</time>
      </trkpt>
      <trkpt lat="41.029940" lon="-6.844590">
        <ele>204</ele>
        <time>2022-12-04T06:46:52Z</time>
      </trkpt>
      <trkpt lat="41.030690" lon="-6.844560">
        <ele>212</ele>
        <time>2022-12-04T06:47:05Z</time>
      </trkpt>
      <trkpt lat="41.030890" lon="-6.844190">
        <ele>211</ele>
        <time>2022-12-04T06:47:12Z</time>
      </trkpt>
      <trkpt lat="41.031050" lon="-6.843260">
        <ele>212</ele>
        <time>2022-12-04T06:47:24Z</time>
      </trkpt>
      <trkpt lat="41.030870" lon="-6.842860">
        <ele>205</ele>
        <time>2022-12-04T06:47:31Z</time>
      </trkpt>
      <trkpt lat="41.030590" lon="-6.842450">
        <ele>199</ele>
        <time>2022-12-04T06:47:38Z</time>
      </trkpt>
      <trkpt lat="41.030530" lon="-6.842330">
        <ele>197</ele>
        <time>2022-12-04T06:47:40Z</time>
      </trkpt>
      <trkpt lat="41.030510" lon="-6.842240">
        <ele>196</ele>
        <time>2022-12-04T06:47:41Z</time>
      </trkpt>
      <trkpt lat="41.030500" lon="-6.842130">
        <ele>195</ele>
        <time>2022-12-04T06:47:43Z</time>
      </trkpt>
      <trkpt lat="41.030520" lon="-6.842030">
        <ele>195</ele>
        <time>2022-12-04T06:47:44Z</time>
      </trkpt>
      <trkpt lat="41.030560" lon="-6.841930">
        <ele>195</ele>
        <time>2022-12-04T06:47:46Z</time>
      </trkpt>
      <trkpt lat="41.030620" lon="-6.841860">
        <ele>196</ele>
        <time>2022-12-04T06:47:47Z</time>
      </trkpt>
      <trkpt lat="41.030710" lon="-6.841810">
        <ele>197</ele>
        <time>2022-12-04T06:47:49Z</time>
      </trkpt>
      <trkpt lat="41.031010" lon="-6.841750">
        <ele>204</ele>
        <time>2022-12-04T06:47:54Z</time>
      </trkpt>
      <trkpt lat="41.031110" lon="-6.841710">
        <ele>207</ele>
        <time>2022-12-04T06:47:56Z</time>
      </trkpt>
      <trkpt lat="41.031210" lon="-6.841580">
        <ele>210</ele>
        <time>2022-12-04T06:47:59Z</time>
      </trkpt>
      <trkpt lat="41.031240" lon="-6.841470">
        <ele>210</ele>
        <time>2022-12-04T06:48:00Z</time>
      </trkpt>
      <trkpt lat="41.031240" lon="-6.841320">
        <ele>210</ele>
        <time>2022-12-04T06:48:02Z</time>
      </trkpt>
      <trkpt lat="41.031120" lon="-6.840260">
        <ele>197</ele>
        <time>2022-12-04T06:48:17Z</time>
      </trkpt>
      <trkpt lat="41.031140" lon="-6.840150">
        <ele>197</ele>
        <time>2022-12-04T06:48:18Z</time>
      </trkpt>
      <trkpt lat="41.031180" lon="-6.840040">
        <ele>197</ele>
        <time>2022-12-04T06:48:20Z</time>
      </trkpt>
      <trkpt lat="41.031460" lon="-6.839650">
        <ele>204</ele>
        <time>2022-12-04T06:48:27Z</time>
      </trkpt>
      <trkpt lat="41.031490" lon="-6.839580">
        <ele>205</ele>
        <time>2022-12-04T06:48:28Z</time>
      </trkpt>
      <trkpt lat="41.031500" lon="-6.839480">
        <ele>204</ele>
        <time>2022-12-04T06:48:29Z</time>
      </trkpt>
      <trkpt lat="41.031480" lon="-6.839350">
        <ele>203</ele>
        <time>2022-12-04T06:48:31Z</time>
      </trkpt>
      <trkpt lat="41.031450" lon="-6.839260">
        <ele>202</ele>
        <time>2022-12-04T06:48:32Z</time>
      </trkpt>
      <trkpt lat="41.031150" lon="-6.838880">
        <ele>198</ele>
        <time>2022-12-04T06:48:40Z</time>
      </trkpt>
      <trkpt lat="41.031070" lon="-6.838770">
        <ele>197</ele>
        <time>2022-12-04T06:48:42Z</time>
      </trkpt>
      <trkpt lat="41.031030" lon="-6.838650">
        <ele>198</ele>
        <time>2022-12-04T06:48:44Z</time>
      </trkpt>
      <trkpt lat="41.030770" lon="-6.837670">
        <ele>202</ele>
        <time>2022-12-04T06:48:58Z</time>
      </trkpt>
      <trkpt lat="41.030740" lon="-6.837500">
        <ele>202</ele>
        <time>2022-12-04T06:49:00Z</time>
      </trkpt>
      <trkpt lat="41.030740" lon="-6.837360">
        <ele>202</ele>
        <time>2022-12-04T06:49:02Z</time>
      </trkpt>
      <trkpt lat="41.030760" lon="-6.837220">
        <ele>202</ele>
        <time>2022-12-04T06:49:04Z</time>
      </trkpt>
      <trkpt lat="41.031460" lon="-6.835440">
        <ele>203</ele>
        <time>2022-12-04T06:49:31Z</time>
      </trkpt>
      <trkpt lat="41.031530" lon="-6.835300">
        <ele>202</ele>
        <time>2022-12-04T06:49:33Z</time>
      </trkpt>
      <trkpt lat="41.031620" lon="-6.835200">
        <ele>203</ele>
        <time>2022-12-04T06:49:35Z</time>
      </trkpt>
      <trkpt lat="41.031720" lon="-6.835140">
        <ele>204</ele>
        <time>2022-12-04T06:49:37Z</time>
      </trkpt>
      <trkpt lat="41.032330" lon="-6.835080">
        <ele>211</ele>
        <time>2022-12-04T06:49:48Z</time>
      </trkpt>
      <trkpt lat="41.032410" lon="-6.835040">
        <ele>211</ele>
        <time>2022-12-04T06:49:49Z</time>
      </trkpt>
      <trkpt lat="41.032470" lon="-6.834970">
        <ele>211</ele>
        <time>2022-12-04T06:49:51Z</time>
      </trkpt>
      <trkpt lat="41.032510" lon="-6.834890">
        <ele>211</ele>
        <time>2022-12-04T06:49:52Z</time>
      </trkpt>
      <trkpt lat="41.032540" lon="-6.834750">
        <ele>211</ele>
        <time>2022-12-04T06:49:54Z</time>
      </trkpt>
      <trkpt lat="41.032560" lon="-6.833940">
        <ele>212</ele>
        <time>2022-12-04T06:50:05Z</time>
      </trkpt>
      <trkpt lat="41.032550" lon="-6.833810">
        <ele>213</ele>
        <time>2022-12-04T06:50:07Z</time>
      </trkpt>
      <trkpt lat="41.032510" lon="-6.833700">
        <ele>213</ele>
        <time>2022-12-04T06:50:08Z</time>
      </trkpt>
      <trkpt lat="41.032470" lon="-6.833630">
        <ele>213</ele>
        <time>2022-12-04T06:50:09Z</time>
      </trkpt>
      <trkpt lat="41.032410" lon="-6.833570">
        <ele>212</ele>
        <time>2022-12-04T06:50:11Z</time>
      </trkpt>
      <trkpt lat="41.032120" lon="-6.833440">
        <ele>208</ele>
        <time>2022-12-04T06:50:16Z</time>
      </trkpt>
      <trkpt lat="41.032050" lon="-6.833400">
        <ele>207</ele>
        <time>2022-12-04T06:50:18Z</time>
      </trkpt>
      <trkpt lat="41.031990" lon="-6.833330">
        <ele>206</ele>
        <time>2022-12-04T06:50:19Z</time>
      </trkpt>
      <trkpt lat="41.031920" lon="-6.833150">
        <ele>205</ele>
        <time>2022-12-04T06:50:22Z</time>
      </trkpt>
      <trkpt lat="41.031920" lon="-6.833010">
        <ele>206</ele>
        <time>2022-12-04T06:50:24Z</time>
      </trkpt>
      <trkpt lat="41.031920" lon="-6.832840">
        <ele>207</ele>
        <time>2022-12-04T06:50:26Z</time>
      </trkpt>
      <trkpt lat="41.031960" lon="-6.832670">
        <ele>209</ele>
        <time>2022-12-04T06:50:28Z</time>
      </trkpt>
      <trkpt lat="41.032050" lon="-6.832480">
        <ele>211</ele>
        <time>2022-12-04T06:50:31Z</time>
      </trkpt>
      <trkpt lat="41.032160" lon="-6.832300">
        <ele>210</ele>
        <time>2022-12-04T06:50:34Z</time>
      </trkpt>
      <trkpt lat="41.032290" lon="-6.832140">
        <ele>211</ele>
        <time>2022-12-04T06:50:38Z</time>
      </trkpt>
      <trkpt lat="41.032460" lon="-6.832000">
        <ele>211</ele>
        <time>2022-12-04T06:50:41Z</time>
      </trkpt>
      <trkpt lat="41.033050" lon="-6.831640">
        <ele>215</ele>
        <time>2022-12-04T06:50:53Z</time>
      </trkpt>
      <trkpt lat="41.033450" lon="-6.831570">
        <ele>222</ele>
        <time>2022-12-04T06:51:00Z</time>
      </trkpt>
      <trkpt lat="41.033540" lon="-6.831530">
        <ele>225</ele>
        <time>2022-12-04T06:51:02Z</time>
      </trkpt>
      <trkpt lat="41.033610" lon="-6.831460">
        <ele>226</ele>
        <time>2022-12-04T06:51:03Z</time>
      </trkpt>
      <trkpt lat="41.033660" lon="-6.831370">
        <ele>227</ele>
        <time>2022-12-04T06:51:05Z</time>
      </trkpt>
      <trkpt lat="41.033690" lon="-6.831260">
        <ele>226</ele>
        <time>2022-12-04T06:51:06Z</time>
      </trkpt>
      <trkpt lat="41.033740" lon="-6.830650">
        <ele>220</ele>
        <time>2022-12-04T06:51:14Z</time>
      </trkpt>
      <trkpt lat="41.033770" lon="-6.830480">
        <ele>220</ele>
        <time>2022-12-04T06:51:17Z</time>
      </trkpt>
      <trkpt lat="41.033820" lon="-6.830330">
        <ele>221</ele>
        <time>2022-12-04T06:51:19Z</time>
      </trkpt>
      <trkpt lat="41.034320" lon="-6.829150">
        <ele>223</ele>
        <time>2022-12-04T06:51:37Z</time>
      </trkpt>
      <trkpt lat="41.034640" lon="-6.828670">
        <ele>230</ele>
        <time>2022-12-04T06:51:46Z</time>
      </trkpt>
      <trkpt lat="41.034690" lon="-6.828550">
        <ele>230</ele>
        <time>2022-12-04T06:51:48Z</time>
      </trkpt>
      <trkpt lat="41.034720" lon="-6.828430">
        <ele>230</ele>
        <time>2022-12-04T06:51:49Z</time>
      </trkpt>
      <trkpt lat="41.034700" lon="-6.827150">
        <ele>228</ele>
        <time>2022-12-04T06:52:06Z</time>
      </trkpt>
      <trkpt lat="41.034770" lon="-6.825970">
        <ele>230</ele>
        <time>2022-12-04T06:52:22Z</time>
      </trkpt>
      <trkpt lat="41.034800" lon="-6.825770">
        <ele>230</ele>
        <time>2022-12-04T06:52:25Z</time>
      </trkpt>
      <trkpt lat="41.034840" lon="-6.825630">
        <ele>230</ele>
        <time>2022-12-04T06:52:27Z</time>
      </trkpt>
      <trkpt lat="41.034900" lon="-6.825490">
        <ele>231</ele>
        <time>2022-12-04T06:52:29Z</time>
      </trkpt>
      <trkpt lat="41.035160" lon="-6.825060">
        <ele>241</ele>
        <time>2022-12-04T06:52:37Z</time>
      </trkpt>
      <trkpt lat="41.035210" lon="-6.824950">
        <ele>243</ele>
        <time>2022-12-04T06:52:38Z</time>
      </trkpt>
      <trkpt lat="41.035510" lon="-6.823510">
        <ele>237</ele>
        <time>2022-12-04T06:52:58Z</time>
      </trkpt>
      <trkpt lat="41.035630" lon="-6.823210">
        <ele>238</ele>
        <time>2022-12-04T06:53:03Z</time>
      </trkpt>
      <trkpt lat="41.036030" lon="-6.822380">
        <ele>239</ele>
        <time>2022-12-04T06:53:16Z</time>
      </trkpt>
      <trkpt lat="41.036120" lon="-6.822230">
        <ele>238</ele>
        <time>2022-12-04T06:53:19Z</time>
      </trkpt>
      <trkpt lat="41.036200" lon="-6.822140">
        <ele>238</ele>
        <time>2022-12-04T06:53:21Z</time>
      </trkpt>
      <trkpt lat="41.036300" lon="-6.822080">
        <ele>239</ele>
        <time>2022-12-04T06:53:23Z</time>
      </trkpt>
      <trkpt lat="41.036460" lon="-6.822020">
        <ele>241</ele>
        <time>2022-12-04T06:53:26Z</time>
      </trkpt>
      <trkpt lat="41.036860" lon="-6.821920">
        <ele>246</ele>
        <time>2022-12-04T06:53:33Z</time>
      </trkpt>
      <trkpt lat="41.037080" lon="-6.821920">
        <ele>250</ele>
        <time>2022-12-04T06:53:37Z</time>
      </trkpt>
      <trkpt lat="41.037510" lon="-6.822040">
        <ele>262</ele>
        <time>2022-12-04T06:53:45Z</time>
      </trkpt>
      <trkpt lat="41.037650" lon="-6.822030">
        <ele>265</ele>
        <time>2022-12-04T06:53:47Z</time>
      </trkpt>
      <trkpt lat="41.037730" lon="-6.821960">
        <ele>266</ele>
        <time>2022-12-04T06:53:49Z</time>
      </trkpt>
      <trkpt lat="41.037770" lon="-6.821890">
        <ele>265</ele>
        <time>2022-12-04T06:53:50Z</time>
      </trkpt>
      <trkpt lat="41.037810" lon="-6.821780">
        <ele>263</ele>
        <time>2022-12-04T06:53:52Z</time>
      </trkpt>
      <trkpt lat="41.037950" lon="-6.821190">
        <ele>253</ele>
        <time>2022-12-04T06:54:00Z</time>
      </trkpt>
      <trkpt lat="41.037990" lon="-6.821050">
        <ele>251</ele>
        <time>2022-12-04T06:54:02Z</time>
      </trkpt>
      <trkpt lat="41.038070" lon="-6.820920">
        <ele>251</ele>
        <time>2022-12-04T06:54:04Z</time>
      </trkpt>
      <trkpt lat="41.038170" lon="-6.820820">
        <ele>252</ele>
        <time>2022-12-04T06:54:06Z</time>
      </trkpt>
      <trkpt lat="41.038600" lon="-6.820630">
        <ele>264</ele>
        <time>2022-12-04T06:54:14Z</time>
      </trkpt>
      <trkpt lat="41.038690" lon="-6.820570">
        <ele>265</ele>
        <time>2022-12-04T06:54:16Z</time>
      </trkpt>
      <trkpt lat="41.038780" lon="-6.820470">
        <ele>266</ele>
        <time>2022-12-04T06:54:18Z</time>
      </trkpt>
      <trkpt lat="41.038830" lon="-6.820360">
        <ele>266</ele>
        <time>2022-12-04T06:54:20Z</time>
      </trkpt>
      <trkpt lat="41.038990" lon="-6.819960">
        <ele>264</ele>
        <time>2022-12-04T06:54:26Z</time>
      </trkpt>
      <trkpt lat="41.039040" lon="-6.819720">
        <ele>265</ele>
        <time>2022-12-04T06:54:29Z</time>
      </trkpt>
      <trkpt lat="41.038990" lon="-6.819210">
        <ele>264</ele>
        <time>2022-12-04T06:54:36Z</time>
      </trkpt>
      <trkpt lat="41.038990" lon="-6.819080">
        <ele>264</ele>
        <time>2022-12-04T06:54:38Z</time>
      </trkpt>
      <trkpt lat="41.039010" lon="-6.818980">
        <ele>265</ele>
        <time>2022-12-04T06:54:39Z</time>
      </trkpt>
      <trkpt lat="41.039280" lon="-6.818400">
        <ele>273</ele>
        <time>2022-12-04T06:54:49Z</time>
      </trkpt>
      <trkpt lat="41.039330" lon="-6.818240">
        <ele>275</ele>
        <time>2022-12-04T06:54:51Z</time>
      </trkpt>
      <trkpt lat="41.039350" lon="-6.818100">
        <ele>276</ele>
        <time>2022-12-04T06:54:53Z</time>
      </trkpt>
      <trkpt lat="41.039340" lon="-6.817960">
        <ele>276</ele>
        <time>2022-12-04T06:54:55Z</time>
      </trkpt>
      <trkpt lat="41.039310" lon="-6.817810">
        <ele>276</ele>
        <time>2022-12-04T06:54:57Z</time>
      </trkpt>
      <trkpt lat="41.039210" lon="-6.817520">
        <ele>274</ele>
        <time>2022-12-04T06:55:01Z</time>
      </trkpt>
      <trkpt lat="41.039170" lon="-6.817280">
        <ele>273</ele>
        <time>2022-12-04T06:55:04Z</time>
      </trkpt>
      <trkpt lat="41.039170" lon="-6.817170">
        <ele>273</ele>
        <time>2022-12-04T06:55:06Z</time>
      </trkpt>
      <trkpt lat="41.039210" lon="-6.817070">
        <ele>274</ele>
        <time>2022-12-04T06:55:07Z</time>
      </trkpt>
      <trkpt lat="41.039280" lon="-6.816970">
        <ele>276</ele>
        <time>2022-12-04T06:55:09Z</time>
      </trkpt>
      <trkpt lat="41.039410" lon="-6.816860">
        <ele>278</ele>
        <time>2022-12-04T06:55:12Z</time>
      </trkpt>
      <trkpt lat="41.039650" lon="-6.816720">
        <ele>280</ele>
        <time>2022-12-04T06:55:17Z</time>
      </trkpt>
      <trkpt lat="41.039820" lon="-6.816660">
        <ele>282</ele>
        <time>2022-12-04T06:55:20Z</time>
      </trkpt>
      <trkpt lat="41.040140" lon="-6.816600">
        <ele>284</ele>
        <time>2022-12-04T06:55:26Z</time>
      </trkpt>
      <trkpt lat="41.040540" lon="-6.816620">
        <ele>290</ele>
        <time>2022-12-04T06:55:33Z</time>
      </trkpt>
      <trkpt lat="41.040670" lon="-6.816600">
        <ele>291</ele>
        <time>2022-12-04T06:55:35Z</time>
      </trkpt>
      <trkpt lat="41.040950" lon="-6.816490">
        <ele>293</ele>
        <time>2022-12-04T06:55:40Z</time>
      </trkpt>
      <trkpt lat="41.041510" lon="-6.816200">
        <ele>297</ele>
        <time>2022-12-04T06:55:51Z</time>
      </trkpt>
      <trkpt lat="41.041680" lon="-6.816090">
        <ele>298</ele>
        <time>2022-12-04T06:55:54Z</time>
      </trkpt>
      <trkpt lat="41.041830" lon="-6.815950">
        <ele>300</ele>
        <time>2022-12-04T06:55:57Z</time>
      </trkpt>
      <trkpt lat="41.041980" lon="-6.815770">
        <ele>301</ele>
        <time>2022-12-04T06:56:01Z</time>
      </trkpt>
      <trkpt lat="41.042620" lon="-6.814890">
        <ele>302</ele>
        <time>2022-12-04T06:56:18Z</time>
      </trkpt>
      <trkpt lat="41.042960" lon="-6.814280">
        <ele>302</ele>
        <time>2022-12-04T06:56:28Z</time>
      </trkpt>
      <trkpt lat="41.043100" lon="-6.813650">
        <ele>295</ele>
        <time>2022-12-04T06:56:36Z</time>
      </trkpt>
      <trkpt lat="41.043290" lon="-6.813330">
        <ele>294</ele>
        <time>2022-12-04T06:56:42Z</time>
      </trkpt>
      <trkpt lat="41.043380" lon="-6.813280">
        <ele>294</ele>
        <time>2022-12-04T06:56:44Z</time>
      </trkpt>
      <trkpt lat="41.043660" lon="-6.813340">
        <ele>298</ele>
        <time>2022-12-04T06:56:49Z</time>
      </trkpt>
      <trkpt lat="41.044180" lon="-6.813560">
        <ele>310</ele>
        <time>2022-12-04T06:56:58Z</time>
      </trkpt>
      <trkpt lat="41.044740" lon="-6.813590">
        <ele>316</ele>
        <time>2022-12-04T06:57:08Z</time>
      </trkpt>
      <trkpt lat="41.045310" lon="-6.813510">
        <ele>319</ele>
        <time>2022-12-04T06:57:19Z</time>
      </trkpt>
      <trkpt lat="41.046080" lon="-6.813110">
        <ele>317</ele>
        <time>2022-12-04T06:57:33Z</time>
      </trkpt>
      <trkpt lat="41.047570" lon="-6.812530">
        <ele>324</ele>
        <time>2022-12-04T06:58:01Z</time>
      </trkpt>
      <trkpt lat="41.047960" lon="-6.812400">
        <ele>322</ele>
        <time>2022-12-04T06:58:08Z</time>
      </trkpt>
      <trkpt lat="41.048110" lon="-6.812390">
        <ele>323</ele>
        <time>2022-12-04T06:58:11Z</time>
      </trkpt>
      <trkpt lat="41.048770" lon="-6.812480">
        <ele>327</ele>
        <time>2022-12-04T06:58:23Z</time>
      </trkpt>
      <trkpt lat="41.048780" lon="-6.812370">
        <ele>324</ele>
        <time>2022-12-04T06:58:24Z</time>
      </trkpt>
      <trkpt lat="41.048820" lon="-6.812330">
        <ele>323</ele>
        <time>2022-12-04T06:58:25Z</time>
      </trkpt>
      <trkpt lat="41.048870" lon="-6.812300">
        <ele>322</ele>
        <time>2022-12-04T06:58:26Z</time>
      </trkpt>
      <trkpt lat="41.049280" lon="-6.812310">
        <ele>324</ele>
        <time>2022-12-04T06:58:33Z</time>
      </trkpt>
      <trkpt lat="41.049470" lon="-6.812280">
        <ele>326</ele>
        <time>2022-12-04T06:58:37Z</time>
      </trkpt>
      <trkpt lat="41.049530" lon="-6.812220">
        <ele>325</ele>
        <time>2022-12-04T06:58:38Z</time>
      </trkpt>
      <trkpt lat="41.049580" lon="-6.812140">
        <ele>324</ele>
        <time>2022-12-04T06:58:39Z</time>
      </trkpt>
      <trkpt lat="41.049700" lon="-6.811770">
        <ele>315</ele>
        <time>2022-12-04T06:58:45Z</time>
      </trkpt>
      <trkpt lat="41.049750" lon="-6.811640">
        <ele>313</ele>
        <time>2022-12-04T06:58:47Z</time>
      </trkpt>
      <trkpt lat="41.049820" lon="-6.811520">
        <ele>310</ele>
        <time>2022-12-04T06:58:49Z</time>
      </trkpt>
      <trkpt lat="41.049900" lon="-6.811450">
        <ele>309</ele>
        <time>2022-12-04T06:58:50Z</time>
      </trkpt>
      <trkpt lat="41.050490" lon="-6.811190">
        <ele>310</ele>
        <time>2022-12-04T06:59:02Z</time>
      </trkpt>
      <trkpt lat="41.050610" lon="-6.811120">
        <ele>310</ele>
        <time>2022-12-04T06:59:04Z</time>
      </trkpt>
      <trkpt lat="41.050680" lon="-6.810980">
        <ele>307</ele>
        <time>2022-12-04T06:59:06Z</time>
      </trkpt>
      <trkpt lat="41.050680" lon="-6.810900">
        <ele>305</ele>
        <time>2022-12-04T06:59:07Z</time>
      </trkpt>
      <trkpt lat="41.050610" lon="-6.810060">
        <ele>288</ele>
        <time>2022-12-04T06:59:19Z</time>
      </trkpt>
      <trkpt lat="41.050620" lon="-6.809820">
        <ele>285</ele>
        <time>2022-12-04T06:59:22Z</time>
      </trkpt>
      <trkpt lat="41.050710" lon="-6.809490">
        <ele>282</ele>
        <time>2022-12-04T06:59:26Z</time>
      </trkpt>
      <trkpt lat="41.050790" lon="-6.809230">
        <ele>280</ele>
        <time>2022-12-04T06:59:30Z</time>
      </trkpt>
      <trkpt lat="41.050880" lon="-6.809030">
        <ele>277</ele>
        <time>2022-12-04T06:59:33Z</time>
      </trkpt>
      <trkpt lat="41.050970" lon="-6.808940">
        <ele>275</ele>
        <time>2022-12-04T06:59:35Z</time>
      </trkpt>
      <trkpt lat="41.051060" lon="-6.808890">
        <ele>273</ele>
        <time>2022-12-04T06:59:37Z</time>
      </trkpt>
      <trkpt lat="41.051170" lon="-6.808870">
        <ele>273</ele>
        <time>2022-12-04T06:59:39Z</time>
      </trkpt>
      <trkpt lat="41.051280" lon="-6.808920">
        <ele>275</ele>
        <time>2022-12-04T06:59:41Z</time>
      </trkpt>
      <trkpt lat="41.051750" lon="-6.809180">
        <ele>281</ele>
        <time>2022-12-04T06:59:50Z</time>
      </trkpt>
      <trkpt lat="41.051870" lon="-6.809210">
        <ele>281</ele>
        <time>2022-12-04T06:59:52Z</time>
      </trkpt>
      <trkpt lat="41.051970" lon="-6.809200">
        <ele>281</ele>
        <time>2022-12-04T06:59:54Z</time>
      </trkpt>
      <trkpt lat="41.052330" lon="-6.809030">
        <ele>276</ele>
        <time>2022-12-04T07:00:01Z</time>
      </trkpt>
      <trkpt lat="41.052610" lon="-6.808880">
        <ele>276</ele>
        <time>2022-12-04T07:00:06Z</time>
      </trkpt>
      <trkpt lat="41.052660" lon="-6.808840">
        <ele>276</ele>
        <time>2022-12-04T07:00:07Z</time>
      </trkpt>
      <trkpt lat="41.052710" lon="-6.808770">
        <ele>276</ele>
        <time>2022-12-04T07:00:09Z</time>
      </trkpt>
      <trkpt lat="41.052760" lon="-6.808530">
        <ele>273</ele>
        <time>2022-12-04T07:00:12Z</time>
      </trkpt>
      <trkpt lat="41.052750" lon="-6.808410">
        <ele>271</ele>
        <time>2022-12-04T07:00:14Z</time>
      </trkpt>
      <trkpt lat="41.052710" lon="-6.808300">
        <ele>270</ele>
        <time>2022-12-04T07:00:15Z</time>
      </trkpt>
      <trkpt lat="41.052630" lon="-6.808200">
        <ele>271</ele>
        <time>2022-12-04T07:00:17Z</time>
      </trkpt>
      <trkpt lat="41.051550" lon="-6.807670">
        <ele>255</ele>
        <time>2022-12-04T07:00:38Z</time>
      </trkpt>
      <trkpt lat="41.051360" lon="-6.807620">
        <ele>251</ele>
        <time>2022-12-04T07:00:41Z</time>
      </trkpt>
      <trkpt lat="41.050870" lon="-6.807660">
        <ele>242</ele>
        <time>2022-12-04T07:00:50Z</time>
      </trkpt>
      <trkpt lat="41.050040" lon="-6.807870">
        <ele>228</ele>
        <time>2022-12-04T07:01:05Z</time>
      </trkpt>
      <trkpt lat="41.049900" lon="-6.807970">
        <ele>228</ele>
        <time>2022-12-04T07:01:08Z</time>
      </trkpt>
      <trkpt lat="41.049640" lon="-6.808210">
        <ele>228</ele>
        <time>2022-12-04T07:01:13Z</time>
      </trkpt>
      <trkpt lat="41.049550" lon="-6.808270">
        <ele>228</ele>
        <time>2022-12-04T07:01:15Z</time>
      </trkpt>
      <trkpt lat="41.049460" lon="-6.808280">
        <ele>227</ele>
        <time>2022-12-04T07:01:17Z</time>
      </trkpt>
      <trkpt lat="41.049380" lon="-6.808270">
        <ele>225</ele>
        <time>2022-12-04T07:01:18Z</time>
      </trkpt>
      <trkpt lat="41.049290" lon="-6.808220">
        <ele>223</ele>
        <time>2022-12-04T07:01:20Z</time>
      </trkpt>
      <trkpt lat="41.049240" lon="-6.808100">
        <ele>219</ele>
        <time>2022-12-04T07:01:22Z</time>
      </trkpt>
      <trkpt lat="41.049230" lon="-6.807990">
        <ele>217</ele>
        <time>2022-12-04T07:01:23Z</time>
      </trkpt>
      <trkpt lat="41.049250" lon="-6.807870">
        <ele>215</ele>
        <time>2022-12-04T07:01:25Z</time>
      </trkpt>
      <trkpt lat="41.049290" lon="-6.807800">
        <ele>214</ele>
        <time>2022-12-04T07:01:26Z</time>
      </trkpt>
      <trkpt lat="41.049640" lon="-6.807460">
        <ele>214</ele>
        <time>2022-12-04T07:01:34Z</time>
      </trkpt>
      <trkpt lat="41.049700" lon="-6.807350">
        <ele>216</ele>
        <time>2022-12-04T07:01:36Z</time>
      </trkpt>
      <trkpt lat="41.049740" lon="-6.807250">
        <ele>217</ele>
        <time>2022-12-04T07:01:37Z</time>
      </trkpt>
      <trkpt lat="41.049740" lon="-6.807140">
        <ele>218</ele>
        <time>2022-12-04T07:01:39Z</time>
      </trkpt>
      <trkpt lat="41.049710" lon="-6.807040">
        <ele>218</ele>
        <time>2022-12-04T07:01:40Z</time>
      </trkpt>
      <trkpt lat="41.049630" lon="-6.806930">
        <ele>217</ele>
        <time>2022-12-04T07:01:42Z</time>
      </trkpt>
      <trkpt lat="41.048790" lon="-6.806380">
        <ele>203</ele>
        <time>2022-12-04T07:01:59Z</time>
      </trkpt>
      <trkpt lat="41.048560" lon="-6.806160">
        <ele>200</ele>
        <time>2022-12-04T07:02:04Z</time>
      </trkpt>
      <trkpt lat="41.048310" lon="-6.805780">
        <ele>195</ele>
        <time>2022-12-04T07:02:11Z</time>
      </trkpt>
      <trkpt lat="41.048180" lon="-6.805610">
        <ele>192</ele>
        <time>2022-12-04T07:02:14Z</time>
      </trkpt>
      <trkpt lat="41.048060" lon="-6.805320">
        <ele>190</ele>
        <time>2022-12-04T07:02:18Z</time>
      </trkpt>
      <trkpt lat="41.048000" lon="-6.804950">
        <ele>190</ele>
        <time>2022-12-04T07:02:23Z</time>
      </trkpt>
      <trkpt lat="41.047760" lon="-6.804560">
        <ele>181</ele>
        <time>2022-12-04T07:02:30Z</time>
      </trkpt>
      <trkpt lat="41.047540" lon="-6.804310">
        <ele>171</ele>
        <time>2022-12-04T07:02:35Z</time>
      </trkpt>
      <trkpt lat="41.047290" lon="-6.804120">
        <ele>176</ele>
        <time>2022-12-04T07:02:40Z</time>
      </trkpt>
      <trkpt lat="41.047140" lon="-6.804040">
        <ele>182</ele>
        <time>2022-12-04T07:02:43Z</time>
      </trkpt>
      <trkpt lat="41.046950" lon="-6.803970">
        <ele>188</ele>
        <time>2022-12-04T07:02:47Z</time>
      </trkpt>
      <trkpt lat="41.046650" lon="-6.803910">
        <ele>197</ele>
        <time>2022-12-04T07:02:52Z</time>
      </trkpt>
      <trkpt lat="41.046540" lon="-6.803920">
        <ele>202</ele>
        <time>2022-12-04T07:02:54Z</time>
      </trkpt>
      <trkpt lat="41.046500" lon="-6.803970">
        <ele>203</ele>
        <time>2022-12-04T07:02:55Z</time>
      </trkpt>
      <trkpt lat="41.046460" lon="-6.804040">
        <ele>204</ele>
        <time>2022-12-04T07:02:56Z</time>
      </trkpt>
      <trkpt lat="41.046410" lon="-6.804240">
        <ele>202</ele>
        <time>2022-12-04T07:02:59Z</time>
      </trkpt>
      <trkpt lat="41.046330" lon="-6.804450">
        <ele>198</ele>
        <time>2022-12-04T07:03:02Z</time>
      </trkpt>
      <trkpt lat="41.046140" lon="-6.804850">
        <ele>191</ele>
        <time>2022-12-04T07:03:09Z</time>
      </trkpt>
      <trkpt lat="41.046010" lon="-6.805060">
        <ele>188</ele>
        <time>2022-12-04T07:03:12Z</time>
      </trkpt>
      <trkpt lat="41.045920" lon="-6.805170">
        <ele>187</ele>
        <time>2022-12-04T07:03:15Z</time>
      </trkpt>
      <trkpt lat="41.045250" lon="-6.805820">
        <ele>183</ele>
        <time>2022-12-04T07:03:29Z</time>
      </trkpt>
      <trkpt lat="41.045090" lon="-6.805910">
        <ele>185</ele>
        <time>2022-12-04T07:03:32Z</time>
      </trkpt>
      <trkpt lat="41.044780" lon="-6.806030">
        <ele>183</ele>
        <time>2022-12-04T07:03:38Z</time>
      </trkpt>
      <trkpt lat="41.044560" lon="-6.806040">
        <ele>184</ele>
        <time>2022-12-04T07:03:42Z</time>
      </trkpt>
      <trkpt lat="41.044450" lon="-6.805990">
        <ele>185</ele>
        <time>2022-12-04T07:03:44Z</time>
      </trkpt>
      <trkpt lat="41.044450" lon="-6.805810">
        <ele>191</ele>
        <time>2022-12-04T07:03:47Z</time>
      </trkpt>
      <trkpt lat="41.044420" lon="-6.805760">
        <ele>192</ele>
        <time>2022-12-04T07:03:47Z</time>
      </trkpt>
      <trkpt lat="41.044120" lon="-6.805610">
        <ele>196</ele>
        <time>2022-12-04T07:03:53Z</time>
      </trkpt>
      <trkpt lat="41.044040" lon="-6.805530">
        <ele>196</ele>
        <time>2022-12-04T07:03:55Z</time>
      </trkpt>
      <trkpt lat="41.043890" lon="-6.805290">
        <ele>198</ele>
        <time>2022-12-04T07:03:59Z</time>
      </trkpt>
      <trkpt lat="41.043750" lon="-6.804970">
        <ele>200</ele>
        <time>2022-12-04T07:04:04Z</time>
      </trkpt>
      <trkpt lat="41.043620" lon="-6.804460">
        <ele>199</ele>
        <time>2022-12-04T07:04:11Z</time>
      </trkpt>
      <trkpt lat="41.043600" lon="-6.804350">
        <ele>199</ele>
        <time>2022-12-04T07:04:13Z</time>
      </trkpt>
      <trkpt lat="41.043610" lon="-6.804270">
        <ele>200</ele>
        <time>2022-12-04T07:04:14Z</time>
      </trkpt>
      <trkpt lat="41.043630" lon="-6.804200">
        <ele>201</ele>
        <time>2022-12-04T07:04:15Z</time>
      </trkpt>
      <trkpt lat="41.043700" lon="-6.804110">
        <ele>204</ele>
        <time>2022-12-04T07:04:17Z</time>
      </trkpt>
      <trkpt lat="41.044500" lon="-6.803250">
        <ele>222</ele>
        <time>2022-12-04T07:04:35Z</time>
      </trkpt>
      <trkpt lat="41.044690" lon="-6.803060">
        <ele>227</ele>
        <time>2022-12-04T07:04:39Z</time>
      </trkpt>
      <trkpt lat="41.044780" lon="-6.802880">
        <ele>228</ele>
        <time>2022-12-04T07:04:42Z</time>
      </trkpt>
      <trkpt lat="41.044860" lon="-6.802360">
        <ele>231</ele>
        <time>2022-12-04T07:04:49Z</time>
      </trkpt>
      <trkpt lat="41.044930" lon="-6.802240">
        <ele>236</ele>
        <time>2022-12-04T07:04:51Z</time>
      </trkpt>
      <trkpt lat="41.044990" lon="-6.802200">
        <ele>239</ele>
        <time>2022-12-04T07:04:52Z</time>
      </trkpt>
      <trkpt lat="41.045060" lon="-6.802190">
        <ele>240</ele>
        <time>2022-12-04T07:04:54Z</time>
      </trkpt>
      <trkpt lat="41.045130" lon="-6.802230">
        <ele>240</ele>
        <time>2022-12-04T07:04:55Z</time>
      </trkpt>
      <trkpt lat="41.045180" lon="-6.802290">
        <ele>240</ele>
        <time>2022-12-04T07:04:56Z</time>
      </trkpt>
      <trkpt lat="41.045240" lon="-6.802670">
        <ele>237</ele>
        <time>2022-12-04T07:05:01Z</time>
      </trkpt>
      <trkpt lat="41.045350" lon="-6.802840">
        <ele>239</ele>
        <time>2022-12-04T07:05:04Z</time>
      </trkpt>
      <trkpt lat="41.045410" lon="-6.802900">
        <ele>240</ele>
        <time>2022-12-04T07:05:06Z</time>
      </trkpt>
      <trkpt lat="41.045470" lon="-6.802940">
        <ele>241</ele>
        <time>2022-12-04T07:05:07Z</time>
      </trkpt>
      <trkpt lat="41.045610" lon="-6.802940">
        <ele>242</ele>
        <time>2022-12-04T07:05:09Z</time>
      </trkpt>
      <trkpt lat="41.045770" lon="-6.802840">
        <ele>244</ele>
        <time>2022-12-04T07:05:13Z</time>
      </trkpt>
      <trkpt lat="41.045820" lon="-6.802760">
        <ele>245</ele>
        <time>2022-12-04T07:05:14Z</time>
      </trkpt>
      <trkpt lat="41.045870" lon="-6.802650">
        <ele>245</ele>
        <time>2022-12-04T07:05:16Z</time>
      </trkpt>
      <trkpt lat="41.045890" lon="-6.802530">
        <ele>245</ele>
        <time>2022-12-04T07:05:17Z</time>
      </trkpt>
      <trkpt lat="41.045940" lon="-6.801890">
        <ele>252</ele>
        <time>2022-12-04T07:05:26Z</time>
      </trkpt>
      <trkpt lat="41.045920" lon="-6.801810">
        <ele>254</ele>
        <time>2022-12-04T07:05:27Z</time>
      </trkpt>
      <trkpt lat="41.045890" lon="-6.801750">
        <ele>256</ele>
        <time>2022-12-04T07:05:28Z</time>
      </trkpt>
      <trkpt lat="41.045810" lon="-6.801660">
        <ele>260</ele>
        <time>2022-12-04T07:05:30Z</time>
      </trkpt>
      <trkpt lat="41.045730" lon="-6.801630">
        <ele>260</ele>
        <time>2022-12-04T07:05:31Z</time>
      </trkpt>
      <trkpt lat="41.044930" lon="-6.801550">
        <ele>257</ele>
        <time>2022-12-04T07:05:46Z</time>
      </trkpt>
      <trkpt lat="41.044440" lon="-6.801270">
        <ele>259</ele>
        <time>2022-12-04T07:05:55Z</time>
      </trkpt>
      <trkpt lat="41.044290" lon="-6.801160">
        <ele>261</ele>
        <time>2022-12-04T07:05:58Z</time>
      </trkpt>
      <trkpt lat="41.044220" lon="-6.801080">
        <ele>263</ele>
        <time>2022-12-04T07:06:00Z</time>
      </trkpt>
      <trkpt lat="41.044080" lon="-6.800810">
        <ele>271</ele>
        <time>2022-12-04T07:06:04Z</time>
      </trkpt>
      <trkpt lat="41.043990" lon="-6.800660">
        <ele>273</ele>
        <time>2022-12-04T07:06:07Z</time>
      </trkpt>
      <trkpt lat="41.043740" lon="-6.800390">
        <ele>276</ele>
        <time>2022-12-04T07:06:13Z</time>
      </trkpt>
      <trkpt lat="41.043660" lon="-6.800330">
        <ele>277</ele>
        <time>2022-12-04T07:06:14Z</time>
      </trkpt>
      <trkpt lat="41.043460" lon="-6.800240">
        <ele>275</ele>
        <time>2022-12-04T07:06:18Z</time>
      </trkpt>
      <trkpt lat="41.043080" lon="-6.800100">
        <ele>275</ele>
        <time>2022-12-04T07:06:25Z</time>
      </trkpt>
      <trkpt lat="41.042970" lon="-6.800000">
        <ele>278</ele>
        <time>2022-12-04T07:06:27Z</time>
      </trkpt>
      <trkpt lat="41.042840" lon="-6.799700">
        <ele>288</ele>
        <time>2022-12-04T07:06:32Z</time>
      </trkpt>
      <trkpt lat="41.042740" lon="-6.799600">
        <ele>290</ele>
        <time>2022-12-04T07:06:34Z</time>
      </trkpt>
      <trkpt lat="41.041840" lon="-6.799110">
        <ele>293</ele>
        <time>2022-12-04T07:06:52Z</time>
      </trkpt>
      <trkpt lat="41.041490" lon="-6.799060">
        <ele>291</ele>
        <time>2022-12-04T07:06:58Z</time>
      </trkpt>
      <trkpt lat="41.041230" lon="-6.798910">
        <ele>296</ele>
        <time>2022-12-04T07:07:03Z</time>
      </trkpt>
      <trkpt lat="41.040900" lon="-6.798780">
        <ele>300</ele>
        <time>2022-12-04T07:07:09Z</time>
      </trkpt>
      <trkpt lat="41.040770" lon="-6.798760">
        <ele>299</ele>
        <time>2022-12-04T07:07:11Z</time>
      </trkpt>
      <trkpt lat="41.040020" lon="-6.798680">
        <ele>298</ele>
        <time>2022-12-04T07:07:25Z</time>
      </trkpt>
      <trkpt lat="41.039810" lon="-6.798570">
        <ele>304</ele>
        <time>2022-12-04T07:07:29Z</time>
      </trkpt>
      <trkpt lat="41.039680" lon="-6.798540">
        <ele>307</ele>
        <time>2022-12-04T07:07:31Z</time>
      </trkpt>
      <trkpt lat="41.039560" lon="-6.798530">
        <ele>308</ele>
        <time>2022-12-04T07:07:33Z</time>
      </trkpt>
      <trkpt lat="41.038720" lon="-6.798680">
        <ele>302</ele>
        <time>2022-12-04T07:07:48Z</time>
      </trkpt>
      <trkpt lat="41.038590" lon="-6.798670">
        <ele>302</ele>
        <time>2022-12-04T07:07:51Z</time>
      </trkpt>
      <trkpt lat="41.038520" lon="-6.798630">
        <ele>304</ele>
        <time>2022-12-04T07:07:52Z</time>
      </trkpt>
      <trkpt lat="41.038480" lon="-6.798570">
        <ele>306</ele>
        <time>2022-12-04T07:07:53Z</time>
      </trkpt>
      <trkpt lat="41.038380" lon="-6.798370">
        <ele>311</ele>
        <time>2022-12-04T07:07:56Z</time>
      </trkpt>
      <trkpt lat="41.038350" lon="-6.798240">
        <ele>314</ele>
        <time>2022-12-04T07:07:58Z</time>
      </trkpt>
      <trkpt lat="41.038350" lon="-6.798150">
        <ele>316</ele>
        <time>2022-12-04T07:07:59Z</time>
      </trkpt>
      <trkpt lat="41.038360" lon="-6.798050">
        <ele>318</ele>
        <time>2022-12-04T07:08:01Z</time>
      </trkpt>
      <trkpt lat="41.038440" lon="-6.797810">
        <ele>324</ele>
        <time>2022-12-04T07:08:04Z</time>
      </trkpt>
      <trkpt lat="41.038440" lon="-6.797700">
        <ele>326</ele>
        <time>2022-12-04T07:08:06Z</time>
      </trkpt>
      <trkpt lat="41.038410" lon="-6.797600">
        <ele>327</ele>
        <time>2022-12-04T07:08:07Z</time>
      </trkpt>
      <trkpt lat="41.038360" lon="-6.797530">
        <ele>328</ele>
        <time>2022-12-04T07:08:08Z</time>
      </trkpt>
      <trkpt lat="41.038300" lon="-6.797480">
        <ele>329</ele>
        <time>2022-12-04T07:08:10Z</time>
      </trkpt>
      <trkpt lat="41.038170" lon="-6.797450">
        <ele>329</ele>
        <time>2022-12-04T07:08:12Z</time>
      </trkpt>
      <trkpt lat="41.037780" lon="-6.797420">
        <ele>329</ele>
        <time>2022-12-04T07:08:19Z</time>
      </trkpt>
      <trkpt lat="41.036640" lon="-6.797780">
        <ele>325</ele>
        <time>2022-12-04T07:08:40Z</time>
      </trkpt>
      <trkpt lat="41.035670" lon="-6.798190">
        <ele>318</ele>
        <time>2022-12-04T07:08:58Z</time>
      </trkpt>
      <trkpt lat="41.035610" lon="-6.798180">
        <ele>318</ele>
        <time>2022-12-04T07:08:59Z</time>
      </trkpt>
      <trkpt lat="41.035550" lon="-6.798150">
        <ele>319</ele>
        <time>2022-12-04T07:09:00Z</time>
      </trkpt>
      <trkpt lat="41.035500" lon="-6.798070">
        <ele>323</ele>
        <time>2022-12-04T07:09:02Z</time>
      </trkpt>
      <trkpt lat="41.035490" lon="-6.797980">
        <ele>328</ele>
        <time>2022-12-04T07:09:03Z</time>
      </trkpt>
      <trkpt lat="41.035540" lon="-6.797830">
        <ele>336</ele>
        <time>2022-12-04T07:09:05Z</time>
      </trkpt>
      <trkpt lat="41.035580" lon="-6.797770">
        <ele>339</ele>
        <time>2022-12-04T07:09:06Z</time>
      </trkpt>
      <trkpt lat="41.035730" lon="-6.797750">
        <ele>341</ele>
        <time>2022-12-04T07:09:09Z</time>
      </trkpt>
      <trkpt lat="41.035980" lon="-6.797800">
        <ele>337</ele>
        <time>2022-12-04T07:09:13Z</time>
      </trkpt>
      <trkpt lat="41.036200" lon="-6.797790">
        <ele>333</ele>
        <time>2022-12-04T07:09:17Z</time>
      </trkpt>
      <trkpt lat="41.036320" lon="-6.797740">
        <ele>333</ele>
        <time>2022-12-04T07:09:19Z</time>
      </trkpt>
      <trkpt lat="41.036500" lon="-6.797620">
        <ele>335</ele>
        <time>2022-12-04T07:09:23Z</time>
      </trkpt>
      <trkpt lat="41.037260" lon="-6.797060">
        <ele>349</ele>
        <time>2022-12-04T07:09:38Z</time>
      </trkpt>
      <trkpt lat="41.037560" lon="-6.796910">
        <ele>353</ele>
        <time>2022-12-04T07:09:44Z</time>
      </trkpt>
      <trkpt lat="41.037790" lon="-6.796820">
        <ele>358</ele>
        <time>2022-12-04T07:09:48Z</time>
      </trkpt>
      <trkpt lat="41.038030" lon="-6.796770">
        <ele>360</ele>
        <time>2022-12-04T07:09:53Z</time>
      </trkpt>
      <trkpt lat="41.038220" lon="-6.796750">
        <ele>361</ele>
        <time>2022-12-04T07:09:56Z</time>
      </trkpt>
      <trkpt lat="41.039080" lon="-6.796760">
        <ele>365</ele>
        <time>2022-12-04T07:10:11Z</time>
      </trkpt>
      <trkpt lat="41.039560" lon="-6.796810">
        <ele>369</ele>
        <time>2022-12-04T07:10:20Z</time>
      </trkpt>
      <trkpt lat="41.039640" lon="-6.796860">
        <ele>369</ele>
        <time>2022-12-04T07:10:22Z</time>
      </trkpt>
      <trkpt lat="41.039680" lon="-6.796910">
        <ele>368</ele>
        <time>2022-12-04T07:10:23Z</time>
      </trkpt>
      <trkpt lat="41.039870" lon="-6.797350">
        <ele>359</ele>
        <time>2022-12-04T07:10:29Z</time>
      </trkpt>
      <trkpt lat="41.039920" lon="-6.797400">
        <ele>359</ele>
        <time>2022-12-04T07:10:30Z</time>
      </trkpt>
      <trkpt lat="41.040000" lon="-6.797420">
        <ele>360</ele>
        <time>2022-12-04T07:10:32Z</time>
      </trkpt>
      <trkpt lat="41.040370" lon="-6.797450">
        <ele>362</ele>
        <time>2022-12-04T07:10:38Z</time>
      </trkpt>
      <trkpt lat="41.040700" lon="-6.797400">
        <ele>367</ele>
        <time>2022-12-04T07:10:44Z</time>
      </trkpt>
      <trkpt lat="41.040870" lon="-6.797410">
        <ele>368</ele>
        <time>2022-12-04T07:10:47Z</time>
      </trkpt>
      <trkpt lat="41.040940" lon="-6.797430">
        <ele>368</ele>
        <time>2022-12-04T07:10:49Z</time>
      </trkpt>
      <trkpt lat="41.041020" lon="-6.797490">
        <ele>367</ele>
        <time>2022-12-04T07:10:50Z</time>
      </trkpt>
      <trkpt lat="41.041160" lon="-6.797630">
        <ele>362</ele>
        <time>2022-12-04T07:10:53Z</time>
      </trkpt>
      <trkpt lat="41.041300" lon="-6.797710">
        <ele>359</ele>
        <time>2022-12-04T07:10:56Z</time>
      </trkpt>
      <trkpt lat="41.041430" lon="-6.797710">
        <ele>360</ele>
        <time>2022-12-04T07:10:58Z</time>
      </trkpt>
      <trkpt lat="41.041740" lon="-6.797610">
        <ele>368</ele>
        <time>2022-12-04T07:11:04Z</time>
      </trkpt>
      <trkpt lat="41.041930" lon="-6.797640">
        <ele>369</ele>
        <time>2022-12-04T07:11:08Z</time>
      </trkpt>
      <trkpt lat="41.042630" lon="-6.797810">
        <ele>370</ele>
        <time>2022-12-04T07:11:20Z</time>
      </trkpt>
      <trkpt lat="41.042990" lon="-6.797840">
        <ele>371</ele>
        <time>2022-12-04T07:11:27Z</time>
      </trkpt>
      <trkpt lat="41.043840" lon="-6.797830">
        <ele>372</ele>
        <time>2022-12-04T07:11:42Z</time>
      </trkpt>
      <trkpt lat="41.043950" lon="-6.797820">
        <ele>372</ele>
        <time>2022-12-04T07:11:44Z</time>
      </trkpt>
      <trkpt lat="41.044030" lon="-6.797770">
        <ele>374</ele>
        <time>2022-12-04T07:11:45Z</time>
      </trkpt>
      <trkpt lat="41.044160" lon="-6.797610">
        <ele>378</ele>
        <time>2022-12-04T07:11:48Z</time>
      </trkpt>
      <trkpt lat="41.044280" lon="-6.797550">
        <ele>380</ele>
        <time>2022-12-04T07:11:51Z</time>
      </trkpt>
      <trkpt lat="41.044720" lon="-6.797650">
        <ele>377</ele>
        <time>2022-12-04T07:11:59Z</time>
      </trkpt>
      <trkpt lat="41.044830" lon="-6.797640">
        <ele>377</ele>
        <time>2022-12-04T07:12:01Z</time>
      </trkpt>
      <trkpt lat="41.044960" lon="-6.797610">
        <ele>378</ele>
        <time>2022-12-04T07:12:03Z</time>
      </trkpt>
      <trkpt lat="41.045020" lon="-6.797550">
        <ele>379</ele>
        <time>2022-12-04T07:12:04Z</time>
      </trkpt>
      <trkpt lat="41.045080" lon="-6.797380">
        <ele>381</ele>
        <time>2022-12-04T07:12:07Z</time>
      </trkpt>
      <trkpt lat="41.045090" lon="-6.797110">
        <ele>386</ele>
        <time>2022-12-04T07:12:10Z</time>
      </trkpt>
      <trkpt lat="41.045060" lon="-6.796890">
        <ele>391</ele>
        <time>2022-12-04T07:12:13Z</time>
      </trkpt>
      <trkpt lat="41.045020" lon="-6.796820">
        <ele>393</ele>
        <time>2022-12-04T07:12:15Z</time>
      </trkpt>
      <trkpt lat="41.044740" lon="-6.796520">
        <ele>400</ele>
        <time>2022-12-04T07:12:21Z</time>
      </trkpt>
      <trkpt lat="41.044680" lon="-6.796500">
        <ele>401</ele>
        <time>2022-12-04T07:12:22Z</time>
      </trkpt>
      <trkpt lat="41.044600" lon="-6.796510">
        <ele>401</ele>
        <time>2022-12-04T07:12:24Z</time>
      </trkpt>
      <trkpt lat="41.044570" lon="-6.796540">
        <ele>401</ele>
        <time>2022-12-04T07:12:24Z</time>
      </trkpt>
      <trkpt lat="41.044390" lon="-6.796870">
        <ele>396</ele>
        <time>2022-12-04T07:12:30Z</time>
      </trkpt>
      <trkpt lat="41.044340" lon="-6.796910">
        <ele>395</ele>
        <time>2022-12-04T07:12:31Z</time>
      </trkpt>
      <trkpt lat="41.044290" lon="-6.796920">
        <ele>395</ele>
        <time>2022-12-04T07:12:32Z</time>
      </trkpt>
      <trkpt lat="41.044230" lon="-6.796900">
        <ele>396</ele>
        <time>2022-12-04T07:12:33Z</time>
      </trkpt>
      <trkpt lat="41.044190" lon="-6.796850">
        <ele>397</ele>
        <time>2022-12-04T07:12:34Z</time>
      </trkpt>
      <trkpt lat="41.044180" lon="-6.796750">
        <ele>400</ele>
        <time>2022-12-04T07:12:35Z</time>
      </trkpt>
      <trkpt lat="41.044230" lon="-6.796480">
        <ele>404</ele>
        <time>2022-12-04T07:12:39Z</time>
      </trkpt>
      <trkpt lat="41.044210" lon="-6.796380">
        <ele>405</ele>
        <time>2022-12-04T07:12:40Z</time>
      </trkpt>
      <trkpt lat="41.044170" lon="-6.796290">
        <ele>407</ele>
        <time>2022-12-04T07:12:42Z</time>
      </trkpt>
      <trkpt lat="41.044020" lon="-6.796120">
        <ele>409</ele>
        <time>2022-12-04T07:12:45Z</time>
      </trkpt>
      <trkpt lat="41.043990" lon="-6.796040">
        <ele>411</ele>
        <time>2022-12-04T07:12:46Z</time>
      </trkpt>
      <trkpt lat="41.043980" lon="-6.795980">
        <ele>411</ele>
        <time>2022-12-04T07:12:47Z</time>
      </trkpt>
      <trkpt lat="41.044030" lon="-6.795840">
        <ele>413</ele>
        <time>2022-12-04T07:12:49Z</time>
      </trkpt>
      <trkpt lat="41.044100" lon="-6.795800">
        <ele>413</ele>
        <time>2022-12-04T07:12:51Z</time>
      </trkpt>
      <trkpt lat="41.044290" lon="-6.795740">
        <ele>413</ele>
        <time>2022-12-04T07:12:54Z</time>
      </trkpt>
      <trkpt lat="41.044350" lon="-6.795700">
        <ele>414</ele>
        <time>2022-12-04T07:12:55Z</time>
      </trkpt>
      <trkpt lat="41.044450" lon="-6.795460">
        <ele>416</ele>
        <time>2022-12-04T07:12:59Z</time>
      </trkpt>
      <trkpt lat="41.044460" lon="-6.795320">
        <ele>418</ele>
        <time>2022-12-04T07:13:01Z</time>
      </trkpt>
      <trkpt lat="41.044410" lon="-6.795180">
        <ele>420</ele>
        <time>2022-12-04T07:13:03Z</time>
      </trkpt>
      <trkpt lat="41.044270" lon="-6.794960">
        <ele>423</ele>
        <time>2022-12-04T07:13:07Z</time>
      </trkpt>
      <trkpt lat="41.044250" lon="-6.794860">
        <ele>424</ele>
        <time>2022-12-04T07:13:08Z</time>
      </trkpt>
      <trkpt lat="41.044290" lon="-6.794620">
        <ele>426</ele>
        <time>2022-12-04T07:13:11Z</time>
      </trkpt>
      <trkpt lat="41.044280" lon="-6.794520">
        <ele>427</ele>
        <time>2022-12-04T07:13:13Z</time>
      </trkpt>
      <trkpt lat="41.044240" lon="-6.794360">
        <ele>429</ele>
        <time>2022-12-04T07:13:15Z</time>
      </trkpt>
      <trkpt lat="41.044140" lon="-6.794200">
        <ele>431</ele>
        <time>2022-12-04T07:13:18Z</time>
      </trkpt>
      <trkpt lat="41.043980" lon="-6.794100">
        <ele>435</ele>
        <time>2022-12-04T07:13:21Z</time>
      </trkpt>
      <trkpt lat="41.043810" lon="-6.794110">
        <ele>438</ele>
        <time>2022-12-04T07:13:24Z</time>
      </trkpt>
      <trkpt lat="41.043450" lon="-6.794260">
        <ele>440</ele>
        <time>2022-12-04T07:13:31Z</time>
      </trkpt>
      <trkpt lat="41.042760" lon="-6.794400">
        <ele>445</ele>
        <time>2022-12-04T07:13:43Z</time>
      </trkpt>
      <trkpt lat="41.042320" lon="-6.794310">
        <ele>454</ele>
        <time>2022-12-04T07:13:51Z</time>
      </trkpt>
      <trkpt lat="41.042220" lon="-6.794340">
        <ele>455</ele>
        <time>2022-12-04T07:13:53Z</time>
      </trkpt>
      <trkpt lat="41.041950" lon="-6.794470">
        <ele>456</ele>
        <time>2022-12-04T07:13:58Z</time>
      </trkpt>
      <trkpt lat="41.041760" lon="-6.794580">
        <ele>455</ele>
        <time>2022-12-04T07:14:02Z</time>
      </trkpt>
      <trkpt lat="41.041430" lon="-6.794920">
        <ele>448</ele>
        <time>2022-12-04T07:14:09Z</time>
      </trkpt>
      <trkpt lat="41.041330" lon="-6.794980">
        <ele>449</ele>
        <time>2022-12-04T07:14:11Z</time>
      </trkpt>
      <trkpt lat="41.040790" lon="-6.795160">
        <ele>455</ele>
        <time>2022-12-04T07:14:21Z</time>
      </trkpt>
      <trkpt lat="41.040340" lon="-6.795190">
        <ele>452</ele>
        <time>2022-12-04T07:14:29Z</time>
      </trkpt>
      <trkpt lat="41.040280" lon="-6.795170">
        <ele>453</ele>
        <time>2022-12-04T07:14:30Z</time>
      </trkpt>
      <trkpt lat="41.039890" lon="-6.794900">
        <ele>464</ele>
        <time>2022-12-04T07:14:38Z</time>
      </trkpt>
      <trkpt lat="41.039160" lon="-6.794640">
        <ele>472</ele>
        <time>2022-12-04T07:14:51Z</time>
      </trkpt>
      <trkpt lat="41.038610" lon="-6.794640">
        <ele>470</ele>
        <time>2022-12-04T07:15:01Z</time>
      </trkpt>
      <trkpt lat="41.038090" lon="-6.794420">
        <ele>481</ele>
        <time>2022-12-04T07:15:11Z</time>
      </trkpt>
      <trkpt lat="41.037960" lon="-6.794390">
        <ele>483</ele>
        <time>2022-12-04T07:15:13Z</time>
      </trkpt>
      <trkpt lat="41.037650" lon="-6.794360">
        <ele>484</ele>
        <time>2022-12-04T07:15:19Z</time>
      </trkpt>
      <trkpt lat="41.037390" lon="-6.794210">
        <ele>490</ele>
        <time>2022-12-04T07:15:24Z</time>
      </trkpt>
      <trkpt lat="41.037270" lon="-6.794200">
        <ele>491</ele>
        <time>2022-12-04T07:15:26Z</time>
      </trkpt>
      <trkpt lat="41.036580" lon="-6.794270">
        <ele>486</ele>
        <time>2022-12-04T07:15:38Z</time>
      </trkpt>
      <trkpt lat="41.036510" lon="-6.794260">
        <ele>486</ele>
        <time>2022-12-04T07:15:40Z</time>
      </trkpt>
      <trkpt lat="41.036460" lon="-6.794220">
        <ele>486</ele>
        <time>2022-12-04T07:15:41Z</time>
      </trkpt>
      <trkpt lat="41.036430" lon="-6.794160">
        <ele>488</ele>
        <time>2022-12-04T07:15:42Z</time>
      </trkpt>
      <trkpt lat="41.036440" lon="-6.794030">
        <ele>490</ele>
        <time>2022-12-04T07:15:43Z</time>
      </trkpt>
      <trkpt lat="41.036480" lon="-6.793960">
        <ele>492</ele>
        <time>2022-12-04T07:15:44Z</time>
      </trkpt>
      <trkpt lat="41.036550" lon="-6.793930">
        <ele>494</ele>
        <time>2022-12-04T07:15:46Z</time>
      </trkpt>
      <trkpt lat="41.037210" lon="-6.793830">
        <ele>502</ele>
        <time>2022-12-04T07:15:58Z</time>
      </trkpt>
      <trkpt lat="41.037500" lon="-6.793730">
        <ele>508</ele>
        <time>2022-12-04T07:16:03Z</time>
      </trkpt>
      <trkpt lat="41.037600" lon="-6.793740">
        <ele>508</ele>
        <time>2022-12-04T07:16:05Z</time>
      </trkpt>
      <trkpt lat="41.038040" lon="-6.793930">
        <ele>505</ele>
        <time>2022-12-04T07:16:13Z</time>
      </trkpt>
      <trkpt lat="41.038300" lon="-6.793930">
        <ele>507</ele>
        <time>2022-12-04T07:16:18Z</time>
      </trkpt>
      <trkpt lat="41.038810" lon="-6.793990">
        <ele>507</ele>
        <time>2022-12-04T07:16:27Z</time>
      </trkpt>
      <trkpt lat="41.038960" lon="-6.793990">
        <ele>508</ele>
        <time>2022-12-04T07:16:29Z</time>
      </trkpt>
      <trkpt lat="41.039230" lon="-6.793900">
        <ele>513</ele>
        <time>2022-12-04T07:16:34Z</time>
      </trkpt>
      <trkpt lat="41.040270" lon="-6.793680">
        <ele>520</ele>
        <time>2022-12-04T07:16:53Z</time>
      </trkpt>
      <trkpt lat="41.040950" lon="-6.793410">
        <ele>524</ele>
        <time>2022-12-04T07:17:06Z</time>
      </trkpt>
      <trkpt lat="41.041290" lon="-6.793050">
        <ele>526</ele>
        <time>2022-12-04T07:17:13Z</time>
      </trkpt>
      <trkpt lat="41.041500" lon="-6.792770">
        <ele>531</ele>
        <time>2022-12-04T07:17:19Z</time>
      </trkpt>
      <trkpt lat="41.041630" lon="-6.792670">
        <ele>533</ele>
        <time>2022-12-04T07:17:21Z</time>
      </trkpt>
      <trkpt lat="41.042510" lon="-6.792110">
        <ele>538</ele>
        <time>2022-12-04T07:17:39Z</time>
      </trkpt>
      <trkpt lat="41.042570" lon="-6.792040">
        <ele>539</ele>
        <time>2022-12-04T07:17:40Z</time>
      </trkpt>
      <trkpt lat="41.042590" lon="-6.791950">
        <ele>541</ele>
        <time>2022-12-04T07:17:41Z</time>
      </trkpt>
      <trkpt lat="41.042580" lon="-6.791880">
        <ele>544</ele>
        <time>2022-12-04T07:17:42Z</time>
      </trkpt>
      <trkpt lat="41.042550" lon="-6.791820">
        <ele>546</ele>
        <time>2022-12-04T07:17:43Z</time>
      </trkpt>
      <trkpt lat="41.042480" lon="-6.791800">
        <ele>548</ele>
        <time>2022-12-04T07:17:45Z</time>
      </trkpt>
      <trkpt lat="41.042390" lon="-6.791800">
        <ele>549</ele>
        <time>2022-12-04T07:17:46Z</time>
      </trkpt>
      <trkpt lat="41.041520" lon="-6.792030">
        <ele>553</ele>
        <time>2022-12-04T07:18:02Z</time>
      </trkpt>
      <trkpt lat="41.041380" lon="-6.792040">
        <ele>555</ele>
        <time>2022-12-04T07:18:05Z</time>
      </trkpt>
      <trkpt lat="41.040920" lon="-6.791960">
        <ele>561</ele>
        <time>2022-12-04T07:18:13Z</time>
      </trkpt>
      <trkpt lat="41.040540" lon="-6.791920">
        <ele>564</ele>
        <time>2022-12-04T07:18:20Z</time>
      </trkpt>
      <trkpt lat="41.040480" lon="-6.791880">
        <ele>565</ele>
        <time>2022-12-04T07:18:21Z</time>
      </trkpt>
      <trkpt lat="41.040440" lon="-6.791830">
        <ele>566</ele>
        <time>2022-12-04T07:18:22Z</time>
      </trkpt>
      <trkpt lat="41.040420" lon="-6.791770">
        <ele>567</ele>
        <time>2022-12-04T07:18:23Z</time>
      </trkpt>
      <trkpt lat="41.040430" lon="-6.791720">
        <ele>568</ele>
        <time>2022-12-04T07:18:23Z</time>
      </trkpt>
      <trkpt lat="41.040450" lon="-6.791650">
        <ele>569</ele>
        <time>2022-12-04T07:18:24Z</time>
      </trkpt>
      <trkpt lat="41.040490" lon="-6.791610">
        <ele>569</ele>
        <time>2022-12-04T07:18:25Z</time>
      </trkpt>
      <trkpt lat="41.040740" lon="-6.791560">
        <ele>569</ele>
        <time>2022-12-04T07:18:30Z</time>
      </trkpt>
      <trkpt lat="41.040850" lon="-6.791500">
        <ele>570</ele>
        <time>2022-12-04T07:18:32Z</time>
      </trkpt>
      <trkpt lat="41.041000" lon="-6.791380">
        <ele>571</ele>
        <time>2022-12-04T07:18:35Z</time>
      </trkpt>
      <trkpt lat="41.041290" lon="-6.791060">
        <ele>576</ele>
        <time>2022-12-04T07:18:42Z</time>
      </trkpt>
      <trkpt lat="41.041380" lon="-6.791010">
        <ele>577</ele>
        <time>2022-12-04T07:18:43Z</time>
      </trkpt>
      <trkpt lat="41.041760" lon="-6.790870">
        <ele>577</ele>
        <time>2022-12-04T07:18:50Z</time>
      </trkpt>
      <trkpt lat="41.041840" lon="-6.790800">
        <ele>577</ele>
        <time>2022-12-04T07:18:52Z</time>
      </trkpt>
      <trkpt lat="41.041890" lon="-6.790660">
        <ele>577</ele>
        <time>2022-12-04T07:18:54Z</time>
      </trkpt>
      <trkpt lat="41.041940" lon="-6.790380">
        <ele>579</ele>
        <time>2022-12-04T07:18:58Z</time>
      </trkpt>
      <trkpt lat="41.041950" lon="-6.790260">
        <ele>580</ele>
        <time>2022-12-04T07:19:00Z</time>
      </trkpt>
      <trkpt lat="41.041910" lon="-6.790160">
        <ele>581</ele>
        <time>2022-12-04T07:19:01Z</time>
      </trkpt>
      <trkpt lat="41.041860" lon="-6.790090">
        <ele>582</ele>
        <time>2022-12-04T07:19:02Z</time>
      </trkpt>
      <trkpt lat="41.041070" lon="-6.789630">
        <ele>589</ele>
        <time>2022-12-04T07:19:18Z</time>
      </trkpt>
      <trkpt lat="41.040990" lon="-6.789560">
        <ele>590</ele>
        <time>2022-12-04T07:19:20Z</time>
      </trkpt>
      <trkpt lat="41.040920" lon="-6.789450">
        <ele>591</ele>
        <time>2022-12-04T07:19:21Z</time>
      </trkpt>
      <trkpt lat="41.040850" lon="-6.789220">
        <ele>592</ele>
        <time>2022-12-04T07:19:25Z</time>
      </trkpt>
      <trkpt lat="41.040800" lon="-6.788950">
        <ele>594</ele>
        <time>2022-12-04T07:19:29Z</time>
      </trkpt>
      <trkpt lat="41.040800" lon="-6.788790">
        <ele>596</ele>
        <time>2022-12-04T07:19:31Z</time>
      </trkpt>
      <trkpt lat="41.040970" lon="-6.787870">
        <ele>601</ele>
        <time>2022-12-04T07:19:43Z</time>
      </trkpt>
      <trkpt lat="41.041000" lon="-6.787690">
        <ele>601</ele>
        <time>2022-12-04T07:19:46Z</time>
      </trkpt>
      <trkpt lat="41.041000" lon="-6.787590">
        <ele>602</ele>
        <time>2022-12-04T07:19:47Z</time>
      </trkpt>
      <trkpt lat="41.040940" lon="-6.787410">
        <ele>603</ele>
        <time>2022-12-04T07:19:50Z</time>
      </trkpt>
      <trkpt lat="41.040820" lon="-6.787200">
        <ele>604</ele>
        <time>2022-12-04T07:19:53Z</time>
      </trkpt>
      <trkpt lat="41.040760" lon="-6.787030">
        <ele>604</ele>
        <time>2022-12-04T07:19:56Z</time>
      </trkpt>
      <trkpt lat="41.040680" lon="-6.786750">
        <ele>605</ele>
        <time>2022-12-04T07:20:00Z</time>
      </trkpt>
      <trkpt lat="41.040670" lon="-6.786600">
        <ele>605</ele>
        <time>2022-12-04T07:20:02Z</time>
      </trkpt>
      <trkpt lat="41.040680" lon="-6.785720">
        <ele>607</ele>
        <time>2022-12-04T07:20:14Z</time>
      </trkpt>
      <trkpt lat="41.040670" lon="-6.785540">
        <ele>608</ele>
        <time>2022-12-04T07:20:16Z</time>
      </trkpt>
      <trkpt lat="41.040480" lon="-6.784830">
        <ele>610</ele>
        <time>2022-12-04T07:20:26Z</time>
      </trkpt>
      <trkpt lat="41.040380" lon="-6.784530">
        <ele>611</ele>
        <time>2022-12-04T07:20:31Z</time>
      </trkpt>
      <trkpt lat="41.040100" lon="-6.783890">
        <ele>611</ele>
        <time>2022-12-04T07:20:41Z</time>
      </trkpt>
      <trkpt lat="41.039680" lon="-6.783170">
        <ele>608</ele>
        <time>2022-12-04T07:20:53Z</time>
      </trkpt>
      <trkpt lat="41.039630" lon="-6.783000">
        <ele>608</ele>
        <time>2022-12-04T07:20:55Z</time>
      </trkpt>
      <trkpt lat="41.039390" lon="-6.780950">
        <ele>615</ele>
        <time>2022-12-04T07:21:23Z</time>
      </trkpt>
      <trkpt lat="41.039350" lon="-6.780770">
        <ele>615</ele>
        <time>2022-12-04T07:21:26Z</time>
      </trkpt>
      <trkpt lat="41.039280" lon="-6.780570">
        <ele>615</ele>
        <time>2022-12-04T07:21:29Z</time>
      </trkpt>
      <trkpt lat="41.038910" lon="-6.779720">
        <ele>613</ele>
        <time>2022-12-04T07:21:42Z</time>
      </trkpt>
      <trkpt lat="41.038800" lon="-6.779450">
        <ele>613</ele>
        <time>2022-12-04T07:21:46Z</time>
      </trkpt>
      <trkpt lat="41.038740" lon="-6.779180">
        <ele>613</ele>
        <time>2022-12-04T07:21:50Z</time>
      </trkpt>
      <trkpt lat="41.038690" lon="-6.778840">
        <ele>613</ele>
        <time>2022-12-04T07:21:54Z</time>
      </trkpt>
      <trkpt lat="41.038680" lon="-6.778590">
        <ele>614</ele>
        <time>2022-12-04T07:21:58Z</time>
      </trkpt>
      <trkpt lat="41.038770" lon="-6.777390">
        <ele>615</ele>
        <time>2022-12-04T07:22:14Z</time>
      </trkpt>
      <trkpt lat="41.038830" lon="-6.776060">
        <ele>621</ele>
        <time>2022-12-04T07:22:32Z</time>
      </trkpt>
      <trkpt lat="41.038930" lon="-6.775040">
        <ele>625</ele>
        <time>2022-12-04T07:22:46Z</time>
      </trkpt>
      <trkpt lat="41.039030" lon="-6.774310">
        <ele>628</ele>
        <time>2022-12-04T07:22:55Z</time>
      </trkpt>
      <trkpt lat="41.039280" lon="-6.773070">
        <ele>629</ele>
        <time>2022-12-04T07:23:13Z</time>
      </trkpt>
      <trkpt lat="41.039380" lon="-6.772720">
        <ele>631</ele>
        <time>2022-12-04T07:23:18Z</time>
      </trkpt>
      <trkpt lat="41.039540" lon="-6.772300">
        <ele>632</ele>
        <time>2022-12-04T07:23:24Z</time>
      </trkpt>
      <trkpt lat="41.039790" lon="-6.771760">
        <ele>632</ele>
        <time>2022-12-04T07:23:33Z</time>
      </trkpt>
      <trkpt lat="41.039870" lon="-6.771650">
        <ele>632</ele>
        <time>2022-12-04T07:23:35Z</time>
      </trkpt>
      <trkpt lat="41.040110" lon="-6.771430">
        <ele>633</ele>
        <time>2022-12-04T07:23:40Z</time>
      </trkpt>
      <trkpt lat="41.040220" lon="-6.771290">
        <ele>634</ele>
        <time>2022-12-04T07:23:43Z</time>
      </trkpt>
      <trkpt lat="41.040280" lon="-6.771150">
        <ele>635</ele>
        <time>2022-12-04T07:23:45Z</time>
      </trkpt>
      <trkpt lat="41.041200" lon="-6.768690">
        <ele>645</ele>
        <time>2022-12-04T07:24:22Z</time>
      </trkpt>
      <trkpt lat="41.041290" lon="-6.768410">
        <ele>647</ele>
        <time>2022-12-04T07:24:26Z</time>
      </trkpt>
      <trkpt lat="41.041330" lon="-6.768140">
        <ele>647</ele>
        <time>2022-12-04T07:24:29Z</time>
      </trkpt>
      <trkpt lat="41.041330" lon="-6.767830">
        <ele>646</ele>
        <time>2022-12-04T07:24:33Z</time>
      </trkpt>
      <trkpt lat="41.041070" lon="-6.765720">
        <ele>641</ele>
        <time>2022-12-04T07:25:02Z</time>
      </trkpt>
      <trkpt lat="41.040910" lon="-6.764490">
        <ele>637</ele>
        <time>2022-12-04T07:25:19Z</time>
      </trkpt>
      <trkpt lat="41.040810" lon="-6.764040">
        <ele>638</ele>
        <time>2022-12-04T07:25:25Z</time>
      </trkpt>
      <trkpt lat="41.040480" lon="-6.762910">
        <ele>646</ele>
        <time>2022-12-04T07:25:41Z</time>
      </trkpt>
      <trkpt lat="41.040450" lon="-6.762750">
        <ele>646</ele>
        <time>2022-12-04T07:25:44Z</time>
      </trkpt>
      <trkpt lat="41.040460" lon="-6.762580">
        <ele>647</ele>
        <time>2022-12-04T07:25:46Z</time>
      </trkpt>
      <trkpt lat="41.040940" lon="-6.761150">
        <ele>651</ele>
        <time>2022-12-04T07:26:07Z</time>
      </trkpt>
      <trkpt lat="41.041010" lon="-6.760880">
        <ele>651</ele>
        <time>2022-12-04T07:26:11Z</time>
      </trkpt>
      <trkpt lat="41.041050" lon="-6.760630">
        <ele>651</ele>
        <time>2022-12-04T07:26:14Z</time>
      </trkpt>
      <trkpt lat="41.042360" lon="-6.758300">
        <ele>656</ele>
        <time>2022-12-04T07:26:53Z</time>
      </trkpt>
      <trkpt lat="41.042560" lon="-6.757880">
        <ele>658</ele>
        <time>2022-12-04T07:27:00Z</time>
      </trkpt>
      <trkpt lat="41.043150" lon="-6.756410">
        <ele>660</ele>
        <time>2022-12-04T07:27:22Z</time>
      </trkpt>
      <trkpt lat="41.044210" lon="-6.753860">
        <ele>662</ele>
        <time>2022-12-04T07:28:01Z</time>
      </trkpt>
      <trkpt lat="41.044280" lon="-6.753730">
        <ele>663</ele>
        <time>2022-12-04T07:28:03Z</time>
      </trkpt>
      <trkpt lat="41.044470" lon="-6.753500">
        <ele>664</ele>
        <time>2022-12-04T07:28:08Z</time>
      </trkpt>
      <trkpt lat="41.044610" lon="-6.753410">
        <ele>664</ele>
        <time>2022-12-04T07:28:11Z</time>
      </trkpt>
      <trkpt lat="41.044780" lon="-6.753340">
        <ele>664</ele>
        <time>2022-12-04T07:28:14Z</time>
      </trkpt>
      <trkpt lat="41.044930" lon="-6.753320">
        <ele>663</ele>
        <time>2022-12-04T07:28:17Z</time>
      </trkpt>
      <trkpt lat="41.045820" lon="-6.753340">
        <ele>662</ele>
        <time>2022-12-04T07:28:32Z</time>
      </trkpt>
      <trkpt lat="41.045900" lon="-6.753320">
        <ele>662</ele>
        <time>2022-12-04T07:28:34Z</time>
      </trkpt>
      <trkpt lat="41.046960" lon="-6.752170">
        <ele>660</ele>
        <time>2022-12-04T07:28:58Z</time>
      </trkpt>
      <trkpt lat="41.047010" lon="-6.752090">
        <ele>659</ele>
        <time>2022-12-04T07:29:00Z</time>
      </trkpt>
      <trkpt lat="41.047080" lon="-6.751950">
        <ele>658</ele>
        <time>2022-12-04T07:29:02Z</time>
      </trkpt>
      <trkpt lat="41.047130" lon="-6.751810">
        <ele>657</ele>
        <time>2022-12-04T07:29:04Z</time>
      </trkpt>
      <trkpt lat="41.047360" lon="-6.750000">
        <ele>643</ele>
        <time>2022-12-04T07:29:29Z</time>
      </trkpt>
      <trkpt lat="41.047450" lon="-6.749600">
        <ele>641</ele>
        <time>2022-12-04T07:29:34Z</time>
      </trkpt>
      <trkpt lat="41.047600" lon="-6.749160">
        <ele>639</ele>
        <time>2022-12-04T07:29:41Z</time>
      </trkpt>
      <trkpt lat="41.047770" lon="-6.748800">
        <ele>637</ele>
        <time>2022-12-04T07:29:46Z</time>
      </trkpt>
      <trkpt lat="41.048020" lon="-6.748440">
        <ele>633</ele>
        <time>2022-12-04T07:29:53Z</time>
      </trkpt>
      <trkpt lat="41.048160" lon="-6.748280">
        <ele>632</ele>
        <time>2022-12-04T07:29:56Z</time>
      </trkpt>
      <trkpt lat="41.048970" lon="-6.747560">
        <ele>627</ele>
        <time>2022-12-04T07:30:14Z</time>
      </trkpt>
      <trkpt lat="41.050870" lon="-6.745940">
        <ele>614</ele>
        <time>2022-12-04T07:30:54Z</time>
      </trkpt>
      <trkpt lat="41.054280" lon="-6.742990">
        <ele>605</ele>
        <time>2022-12-04T07:32:06Z</time>
      </trkpt>
      <trkpt lat="41.054560" lon="-6.742710">
        <ele>606</ele>
        <time>2022-12-04T07:32:13Z</time>
      </trkpt>
      <trkpt lat="41.054700" lon="-6.742540">
        <ele>605</ele>
        <time>2022-12-04T07:32:16Z</time>
      </trkpt>
      <trkpt lat="41.054900" lon="-6.742220">
        <ele>603</ele>
        <time>2022-12-04T07:32:21Z</time>
      </trkpt>
      <trkpt lat="41.057480" lon="-6.736210">
        <ele>600</ele>
        <time>2022-12-04T07:33:54Z</time>
      </trkpt>
      <trkpt lat="41.057920" lon="-6.735260">
        <ele>599</ele>
        <time>2022-12-04T07:34:09Z</time>
      </trkpt>
      <trkpt lat="41.058090" lon="-6.734980">
        <ele>600</ele>
        <time>2022-12-04T07:34:14Z</time>
      </trkpt>
      <trkpt lat="41.058250" lon="-6.734780">
        <ele>600</ele>
        <time>2022-12-04T07:34:18Z</time>
      </trkpt>
      <trkpt lat="41.058480" lon="-6.734540">
        <ele>601</ele>
        <time>2022-12-04T07:34:23Z</time>
      </trkpt>
      <trkpt lat="41.060180" lon="-6.732970">
        <ele>601</ele>
        <time>2022-12-04T07:35:00Z</time>
      </trkpt>
      <trkpt lat="41.060420" lon="-6.732650">
        <ele>599</ele>
        <time>2022-12-04T07:35:06Z</time>
      </trkpt>
      <trkpt lat="41.060670" lon="-6.732270">
        <ele>598</ele>
        <time>2022-12-04T07:35:13Z</time>
      </trkpt>
      <trkpt lat="41.060720" lon="-6.732280">
        <ele>598</ele>
        <time>2022-12-04T07:35:14Z</time>
      </trkpt>
      <trkpt lat="41.060850" lon="-6.732390">
        <ele>598</ele>
        <time>2022-12-04T07:35:16Z</time>
      </trkpt>
      <trkpt lat="41.060920" lon="-6.732400">
        <ele>598</ele>
        <time>2022-12-04T07:35:18Z</time>
      </trkpt>
      <trkpt lat="41.061070" lon="-6.732350">
        <ele>598</ele>
        <time>2022-12-04T07:35:20Z</time>
      </trkpt>
      <trkpt lat="41.064730" lon="-6.730810">
        <ele>602</ele>
        <time>2022-12-04T07:36:29Z</time>
      </trkpt>
      <trkpt lat="41.065120" lon="-6.730590">
        <ele>604</ele>
        <time>2022-12-04T07:36:36Z</time>
      </trkpt>
      <trkpt lat="41.066840" lon="-6.729260">
        <ele>608</ele>
        <time>2022-12-04T07:37:12Z</time>
      </trkpt>
      <trkpt lat="41.080290" lon="-6.719120">
        <ele>614</ele>
        <time>2022-12-04T07:41:47Z</time>
      </trkpt>
      <trkpt lat="41.083630" lon="-6.716620">
        <ele>614</ele>
        <time>2022-12-04T07:42:55Z</time>
      </trkpt>
      <trkpt lat="41.085830" lon="-6.715430">
        <ele>607</ele>
        <time>2022-12-04T07:43:38Z</time>
      </trkpt>
      <trkpt lat="41.086030" lon="-6.715340">
        <ele>607</ele>
        <time>2022-12-04T07:43:41Z</time>
      </trkpt>
      <trkpt lat="41.086330" lon="-6.715290">
        <ele>606</ele>
        <time>2022-12-04T07:43:47Z</time>
      </trkpt>
      <trkpt lat="41.086460" lon="-6.715320">
        <ele>605</ele>
        <time>2022-12-04T07:43:49Z</time>
      </trkpt>
      <trkpt lat="41.086580" lon="-6.715350">
        <ele>605</ele>
        <time>2022-12-04T07:43:51Z</time>
      </trkpt>
      <trkpt lat="41.086870" lon="-6.715490">
        <ele>603</ele>
        <time>2022-12-04T07:43:57Z</time>
      </trkpt>
      <trkpt lat="41.087180" lon="-6.715660">
        <ele>602</ele>
        <time>2022-12-04T07:44:03Z</time>
      </trkpt>
      <trkpt lat="41.087430" lon="-6.715790">
        <ele>600</ele>
        <time>2022-12-04T07:44:07Z</time>
      </trkpt>
      <trkpt lat="41.087750" lon="-6.715930">
        <ele>600</ele>
        <time>2022-12-04T07:44:13Z</time>
      </trkpt>
      <trkpt lat="41.088030" lon="-6.715970">
        <ele>601</ele>
        <time>2022-12-04T07:44:18Z</time>
      </trkpt>
      <trkpt lat="41.088150" lon="-6.715960">
        <ele>601</ele>
        <time>2022-12-04T07:44:21Z</time>
      </trkpt>
      <trkpt lat="41.088450" lon="-6.715870">
        <ele>601</ele>
        <time>2022-12-04T07:44:26Z</time>
      </trkpt>
      <trkpt lat="41.090020" lon="-6.715140">
        <ele>595</ele>
        <time>2022-12-04T07:44:56Z</time>
      </trkpt>
      <trkpt lat="41.090710" lon="-6.714560">
        <ele>591</ele>
        <time>2022-12-04T07:45:10Z</time>
      </trkpt>
      <trkpt lat="41.090770" lon="-6.714510">
        <ele>590</ele>
        <time>2022-12-04T07:45:11Z</time>
      </trkpt>
      <trkpt lat="41.092960" lon="-6.712600">
        <ele>586</ele>
        <time>2022-12-04T07:45:58Z</time>
      </trkpt>
      <trkpt lat="41.093130" lon="-6.712500">
        <ele>584</ele>
        <time>2022-12-04T07:46:01Z</time>
      </trkpt>
      <trkpt lat="41.093200" lon="-6.712500">
        <ele>584</ele>
        <time>2022-12-04T07:46:03Z</time>
      </trkpt>
      <trkpt lat="41.093290" lon="-6.712510">
        <ele>582</ele>
        <time>2022-12-04T07:46:04Z</time>
      </trkpt>
      <trkpt lat="41.093580" lon="-6.712600">
        <ele>583</ele>
        <time>2022-12-04T07:46:10Z</time>
      </trkpt>
      <trkpt lat="41.094230" lon="-6.712840">
        <ele>587</ele>
        <time>2022-12-04T07:46:22Z</time>
      </trkpt>
      <trkpt lat="41.094550" lon="-6.713010">
        <ele>591</ele>
        <time>2022-12-04T07:46:28Z</time>
      </trkpt>
      <trkpt lat="41.095690" lon="-6.713750">
        <ele>595</ele>
        <time>2022-12-04T07:46:50Z</time>
      </trkpt>
      <trkpt lat="41.098120" lon="-6.714920">
        <ele>584</ele>
        <time>2022-12-04T07:47:36Z</time>
      </trkpt>
      <trkpt lat="41.099670" lon="-6.715630">
        <ele>577</ele>
        <time>2022-12-04T07:48:05Z</time>
      </trkpt>
      <trkpt lat="41.099900" lon="-6.715770">
        <ele>577</ele>
        <time>2022-12-04T07:48:10Z</time>
      </trkpt>
      <trkpt lat="41.099990" lon="-6.715830">
        <ele>577</ele>
        <time>2022-12-04T07:48:12Z</time>
      </trkpt>
      <trkpt lat="41.101640" lon="-6.716850">
        <ele>584</ele>
        <time>2022-12-04T07:48:44Z</time>
      </trkpt>
      <trkpt lat="41.101860" lon="-6.716790">
        <ele>585</ele>
        <time>2022-12-04T07:48:48Z</time>
      </trkpt>
      <trkpt lat="41.101910" lon="-6.716810">
        <ele>585</ele>
        <time>2022-12-04T07:48:49Z</time>
      </trkpt>
      <trkpt lat="41.102120" lon="-6.717150">
        <ele>584</ele>
        <time>2022-12-04T07:48:55Z</time>
      </trkpt>
      <trkpt lat="41.102730" lon="-6.718240">
        <ele>582</ele>
        <time>2022-12-04T07:49:13Z</time>
      </trkpt>
      <trkpt lat="41.102920" lon="-6.718510">
        <ele>582</ele>
        <time>2022-12-04T07:49:18Z</time>
      </trkpt>
      <trkpt lat="41.104530" lon="-6.720100">
        <ele>588</ele>
        <time>2022-12-04T07:49:54Z</time>
      </trkpt>
      <trkpt lat="41.104570" lon="-6.720050">
        <ele>589</ele>
        <time>2022-12-04T07:49:55Z</time>
      </trkpt>
      <trkpt lat="41.104660" lon="-6.720130">
        <ele>588</ele>
        <time>2022-12-04T07:49:57Z</time>
      </trkpt>
      <trkpt lat="41.104920" lon="-6.720390">
        <ele>587</ele>
        <time>2022-12-04T07:50:03Z</time>
      </trkpt>
      <trkpt lat="41.105000" lon="-6.720540">
        <ele>586</ele>
        <time>2022-12-04T07:50:05Z</time>
      </trkpt>
      <trkpt lat="41.105070" lon="-6.720620">
        <ele>586</ele>
        <time>2022-12-04T07:50:07Z</time>
      </trkpt>
      <trkpt lat="41.105200" lon="-6.720710">
        <ele>585</ele>
        <time>2022-12-04T07:50:09Z</time>
      </trkpt>
      <trkpt lat="41.105300" lon="-6.720700">
        <ele>586</ele>
        <time>2022-12-04T07:50:11Z</time>
      </trkpt>
      <trkpt lat="41.105380" lon="-6.720650">
        <ele>586</ele>
        <time>2022-12-04T07:50:13Z</time>
      </trkpt>
      <trkpt lat="41.105450" lon="-6.720550">
        <ele>587</ele>
        <time>2022-12-04T07:50:14Z</time>
      </trkpt>
      <trkpt lat="41.105710" lon="-6.719070">
        <ele>596</ele>
        <time>2022-12-04T07:50:35Z</time>
      </trkpt>
      <trkpt lat="41.105830" lon="-6.718180">
        <ele>597</ele>
        <time>2022-12-04T07:50:47Z</time>
      </trkpt>
      <trkpt lat="41.105820" lon="-6.717310">
        <ele>599</ele>
        <time>2022-12-04T07:50:59Z</time>
      </trkpt>
      <trkpt lat="41.105840" lon="-6.716970">
        <ele>600</ele>
        <time>2022-12-04T07:51:03Z</time>
      </trkpt>
      <trkpt lat="41.105900" lon="-6.716630">
        <ele>601</ele>
        <time>2022-12-04T07:51:08Z</time>
      </trkpt>
      <trkpt lat="41.106460" lon="-6.714270">
        <ele>607</ele>
        <time>2022-12-04T07:51:41Z</time>
      </trkpt>
      <trkpt lat="41.106580" lon="-6.713500">
        <ele>610</ele>
        <time>2022-12-04T07:51:52Z</time>
      </trkpt>
      <trkpt lat="41.107050" lon="-6.708970">
        <ele>633</ele>
        <time>2022-12-04T07:52:53Z</time>
      </trkpt>
      <trkpt lat="41.107050" lon="-6.708490">
        <ele>634</ele>
        <time>2022-12-04T07:52:59Z</time>
      </trkpt>
      <trkpt lat="41.106990" lon="-6.707470">
        <ele>633</ele>
        <time>2022-12-04T07:53:13Z</time>
      </trkpt>
      <trkpt lat="41.107000" lon="-6.707330">
        <ele>633</ele>
        <time>2022-12-04T07:53:15Z</time>
      </trkpt>
      <trkpt lat="41.107670" lon="-6.705500">
        <ele>635</ele>
        <time>2022-12-04T07:53:42Z</time>
      </trkpt>
      <trkpt lat="41.108420" lon="-6.704180">
        <ele>634</ele>
        <time>2022-12-04T07:54:04Z</time>
      </trkpt>
      <trkpt lat="41.109240" lon="-6.703000">
        <ele>629</ele>
        <time>2022-12-04T07:54:26Z</time>
      </trkpt>
      <trkpt lat="41.109340" lon="-6.702860">
        <ele>629</ele>
        <time>2022-12-04T07:54:28Z</time>
      </trkpt>
      <trkpt lat="41.110070" lon="-6.701850">
        <ele>633</ele>
        <time>2022-12-04T07:54:47Z</time>
      </trkpt>
      <trkpt lat="41.110160" lon="-6.701670">
        <ele>634</ele>
        <time>2022-12-04T07:54:50Z</time>
      </trkpt>
      <trkpt lat="41.110340" lon="-6.701100">
        <ele>637</ele>
        <time>2022-12-04T07:54:58Z</time>
      </trkpt>
      <trkpt lat="41.110390" lon="-6.700840">
        <ele>639</ele>
        <time>2022-12-04T07:55:02Z</time>
      </trkpt>
      <trkpt lat="41.110480" lon="-6.700150">
        <ele>644</ele>
        <time>2022-12-04T07:55:11Z</time>
      </trkpt>
      <trkpt lat="41.110660" lon="-6.698290">
        <ele>658</ele>
        <time>2022-12-04T07:55:36Z</time>
      </trkpt>
      <trkpt lat="41.110750" lon="-6.697840">
        <ele>660</ele>
        <time>2022-12-04T07:55:43Z</time>
      </trkpt>
      <trkpt lat="41.110820" lon="-6.697620">
        <ele>662</ele>
        <time>2022-12-04T07:55:46Z</time>
      </trkpt>
      <trkpt lat="41.113060" lon="-6.691990">
        <ele>683</ele>
        <time>2022-12-04T07:57:11Z</time>
      </trkpt>
      <trkpt lat="41.113260" lon="-6.691580">
        <ele>683</ele>
        <time>2022-12-04T07:57:18Z</time>
      </trkpt>
      <trkpt lat="41.115650" lon="-6.687990">
        <ele>679</ele>
        <time>2022-12-04T07:58:22Z</time>
      </trkpt>
      <trkpt lat="41.117680" lon="-6.685790">
        <ele>685</ele>
        <time>2022-12-04T07:59:09Z</time>
      </trkpt>
      <trkpt lat="41.117810" lon="-6.685590">
        <ele>685</ele>
        <time>2022-12-04T07:59:12Z</time>
      </trkpt>
      <trkpt lat="41.117870" lon="-6.685420">
        <ele>685</ele>
        <time>2022-12-04T07:59:15Z</time>
      </trkpt>
      <trkpt lat="41.118240" lon="-6.683780">
        <ele>686</ele>
        <time>2022-12-04T07:59:38Z</time>
      </trkpt>
      <trkpt lat="41.118320" lon="-6.683540">
        <ele>687</ele>
        <time>2022-12-04T07:59:41Z</time>
      </trkpt>
      <trkpt lat="41.118380" lon="-6.683410">
        <ele>687</ele>
        <time>2022-12-04T07:59:43Z</time>
      </trkpt>
      <trkpt lat="41.119540" lon="-6.681770">
        <ele>686</ele>
        <time>2022-12-04T08:00:13Z</time>
      </trkpt>
      <trkpt lat="41.119670" lon="-6.681560">
        <ele>686</ele>
        <time>2022-12-04T08:00:17Z</time>
      </trkpt>
      <trkpt lat="41.119810" lon="-6.681280">
        <ele>686</ele>
        <time>2022-12-04T08:00:22Z</time>
      </trkpt>
      <trkpt lat="41.120170" lon="-6.680410">
        <ele>684</ele>
        <time>2022-12-04T08:00:35Z</time>
      </trkpt>
      <trkpt lat="41.121260" lon="-6.678460">
        <ele>677</ele>
        <time>2022-12-04T08:01:07Z</time>
      </trkpt>
      <trkpt lat="41.122510" lon="-6.675660">
        <ele>680</ele>
        <time>2022-12-04T08:01:51Z</time>
      </trkpt>
      <trkpt lat="41.122580" lon="-6.675550">
        <ele>681</ele>
        <time>2022-12-04T08:01:53Z</time>
      </trkpt>
      <trkpt lat="41.122700" lon="-6.675420">
        <ele>681</ele>
        <time>2022-12-04T08:01:56Z</time>
      </trkpt>
      <trkpt lat="41.122830" lon="-6.675310">
        <ele>681</ele>
        <time>2022-12-04T08:01:58Z</time>
      </trkpt>
      <trkpt lat="41.123280" lon="-6.675020">
        <ele>681</ele>
        <time>2022-12-04T08:02:07Z</time>
      </trkpt>
      <trkpt lat="41.123400" lon="-6.674900">
        <ele>681</ele>
        <time>2022-12-04T08:02:10Z</time>
      </trkpt>
      <trkpt lat="41.123590" lon="-6.674610">
        <ele>681</ele>
        <time>2022-12-04T08:02:15Z</time>
      </trkpt>
      <trkpt lat="41.123990" lon="-6.673930">
        <ele>683</ele>
        <time>2022-12-04T08:02:27Z</time>
      </trkpt>
      <trkpt lat="41.124220" lon="-6.673440">
        <ele>685</ele>
        <time>2022-12-04T08:02:34Z</time>
      </trkpt>
      <trkpt lat="41.124970" lon="-6.671090">
        <ele>692</ele>
        <time>2022-12-04T08:03:09Z</time>
      </trkpt>
      <trkpt lat="41.125130" lon="-6.670640">
        <ele>694</ele>
        <time>2022-12-04T08:03:15Z</time>
      </trkpt>
      <trkpt lat="41.125210" lon="-6.670490">
        <ele>694</ele>
        <time>2022-12-04T08:03:18Z</time>
      </trkpt>
      <trkpt lat="41.125890" lon="-6.669400">
        <ele>695</ele>
        <time>2022-12-04T08:03:37Z</time>
      </trkpt>
      <trkpt lat="41.126040" lon="-6.669210">
        <ele>695</ele>
        <time>2022-12-04T08:03:40Z</time>
      </trkpt>
      <trkpt lat="41.126630" lon="-6.668670">
        <ele>697</ele>
        <time>2022-12-04T08:03:53Z</time>
      </trkpt>
      <trkpt lat="41.126750" lon="-6.668520">
        <ele>698</ele>
        <time>2022-12-04T08:03:56Z</time>
      </trkpt>
      <trkpt lat="41.126870" lon="-6.668320">
        <ele>698</ele>
        <time>2022-12-04T08:04:00Z</time>
      </trkpt>
      <trkpt lat="41.128670" lon="-6.664640">
        <ele>707</ele>
        <time>2022-12-04T08:04:58Z</time>
      </trkpt>
      <trkpt lat="41.128810" lon="-6.664320">
        <ele>707</ele>
        <time>2022-12-04T08:05:03Z</time>
      </trkpt>
      <trkpt lat="41.129510" lon="-6.661630">
        <ele>704</ele>
        <time>2022-12-04T08:05:42Z</time>
      </trkpt>
      <trkpt lat="41.129560" lon="-6.661410">
        <ele>703</ele>
        <time>2022-12-04T08:05:45Z</time>
      </trkpt>
      <trkpt lat="41.130040" lon="-6.656540">
        <ele>699</ele>
        <time>2022-12-04T08:06:50Z</time>
      </trkpt>
      <trkpt lat="41.130500" lon="-6.657840">
        <ele>697</ele>
        <time>2022-12-04T08:07:10Z</time>
      </trkpt>
      <trkpt lat="41.130700" lon="-6.658340">
        <ele>695</ele>
        <time>2022-12-04T08:07:17Z</time>
      </trkpt>
      <trkpt lat="41.130820" lon="-6.658530">
        <ele>694</ele>
        <time>2022-12-04T08:07:21Z</time>
      </trkpt>
      <trkpt lat="41.130910" lon="-6.658630">
        <ele>694</ele>
        <time>2022-12-04T08:07:23Z</time>
      </trkpt>
      <trkpt lat="41.131340" lon="-6.658980">
        <ele>694</ele>
        <time>2022-12-04T08:07:32Z</time>
      </trkpt>
      <trkpt lat="41.131610" lon="-6.659200">
        <ele>694</ele>
        <time>2022-12-04T08:07:37Z</time>
      </trkpt>
      <trkpt lat="41.132070" lon="-6.659600">
        <ele>694</ele>
        <time>2022-12-04T08:07:47Z</time>
      </trkpt>
      <trkpt lat="41.132250" lon="-6.659850">
        <ele>694</ele>
        <time>2022-12-04T08:07:52Z</time>
      </trkpt>
      <trkpt lat="41.133270" lon="-6.661760">
        <ele>692</ele>
        <time>2022-12-04T08:08:23Z</time>
      </trkpt>
      <trkpt lat="41.133380" lon="-6.661950">
        <ele>691</ele>
        <time>2022-12-04T08:08:26Z</time>
      </trkpt>
      <trkpt lat="41.137600" lon="-6.667220">
        <ele>691</ele>
        <time>2022-12-04T08:10:09Z</time>
      </trkpt>
      <trkpt lat="41.137770" lon="-6.667400">
        <ele>690</ele>
        <time>2022-12-04T08:10:13Z</time>
      </trkpt>
      <trkpt lat="41.137880" lon="-6.667490">
        <ele>690</ele>
        <time>2022-12-04T08:10:16Z</time>
      </trkpt>
      <trkpt lat="41.138080" lon="-6.667610">
        <ele>689</ele>
        <time>2022-12-04T08:10:19Z</time>
      </trkpt>
      <trkpt lat="41.138340" lon="-6.667670">
        <ele>688</ele>
        <time>2022-12-04T08:10:24Z</time>
      </trkpt>
      <trkpt lat="41.139100" lon="-6.667770">
        <ele>686</ele>
        <time>2022-12-04T08:10:38Z</time>
      </trkpt>
      <trkpt lat="41.139250" lon="-6.667830">
        <ele>685</ele>
        <time>2022-12-04T08:10:41Z</time>
      </trkpt>
      <trkpt lat="41.139350" lon="-6.667890">
        <ele>684</ele>
        <time>2022-12-04T08:10:42Z</time>
      </trkpt>
      <trkpt lat="41.139430" lon="-6.667980">
        <ele>684</ele>
        <time>2022-12-04T08:10:44Z</time>
      </trkpt>
      <trkpt lat="41.139580" lon="-6.668170">
        <ele>683</ele>
        <time>2022-12-04T08:10:48Z</time>
      </trkpt>
      <trkpt lat="41.140710" lon="-6.670070">
        <ele>685</ele>
        <time>2022-12-04T08:11:20Z</time>
      </trkpt>
      <trkpt lat="41.140790" lon="-6.670240">
        <ele>685</ele>
        <time>2022-12-04T08:11:23Z</time>
      </trkpt>
      <trkpt lat="41.143930" lon="-6.675620">
        <ele>690</ele>
        <time>2022-12-04T08:12:54Z</time>
      </trkpt>
      <trkpt lat="41.144110" lon="-6.675870">
        <ele>690</ele>
        <time>2022-12-04T08:12:59Z</time>
      </trkpt>
      <trkpt lat="41.144340" lon="-6.676110">
        <ele>689</ele>
        <time>2022-12-04T08:13:04Z</time>
      </trkpt>
      <trkpt lat="41.144600" lon="-6.676280">
        <ele>689</ele>
        <time>2022-12-04T08:13:09Z</time>
      </trkpt>
      <trkpt lat="41.148520" lon="-6.678050">
        <ele>685</ele>
        <time>2022-12-04T08:14:23Z</time>
      </trkpt>
      <trkpt lat="41.148960" lon="-6.678350">
        <ele>685</ele>
        <time>2022-12-04T08:14:32Z</time>
      </trkpt>
      <trkpt lat="41.152070" lon="-6.680790">
        <ele>695</ele>
        <time>2022-12-04T08:15:36Z</time>
      </trkpt>
      <trkpt lat="41.156370" lon="-6.683710">
        <ele>688</ele>
        <time>2022-12-04T08:17:02Z</time>
      </trkpt>
      <trkpt lat="41.158190" lon="-6.684960">
        <ele>683</ele>
        <time>2022-12-04T08:17:38Z</time>
      </trkpt>
      <trkpt lat="41.158580" lon="-6.685250">
        <ele>680</ele>
        <time>2022-12-04T08:17:46Z</time>
      </trkpt>
      <trkpt lat="41.158700" lon="-6.685390">
        <ele>679</ele>
        <time>2022-12-04T08:17:49Z</time>
      </trkpt>
      <trkpt lat="41.160220" lon="-6.687160">
        <ele>671</ele>
        <time>2022-12-04T08:18:25Z</time>
      </trkpt>
      <trkpt lat="41.160410" lon="-6.687300">
        <ele>670</ele>
        <time>2022-12-04T08:18:29Z</time>
      </trkpt>
      <trkpt lat="41.160510" lon="-6.687350">
        <ele>669</ele>
        <time>2022-12-04T08:18:31Z</time>
      </trkpt>
      <trkpt lat="41.160980" lon="-6.687440">
        <ele>666</ele>
        <time>2022-12-04T08:18:39Z</time>
      </trkpt>
      <trkpt lat="41.161790" lon="-6.687560">
        <ele>663</ele>
        <time>2022-12-03T19:11:12Z</time>
      </trkpt>
      <trkpt lat="41.162180" lon="-6.687610">
        <ele>662</ele>
        <time>2022-12-03T19:11:19Z</time>
      </trkpt>
      <trkpt lat="41.162390" lon="-6.687620">
        <ele>662</ele>
        <time>2022-12-03T19:11:23Z</time>
      </trkpt>
      <trkpt lat="41.162400" lon="-6.686980">
        <ele>665</ele>
        <time>2022-12-03T19:11:31Z</time>
      </trkpt>
      <trkpt lat="41.162540" lon="-6.686070">
        <ele>669</ele>
        <time>2022-12-03T19:11:44Z</time>
      </trkpt>
      <trkpt lat="41.162800" lon="-6.685090">
        <ele>673</ele>
        <time>2022-12-03T19:11:58Z</time>
      </trkpt>
      <trkpt lat="41.162860" lon="-6.684650">
        <ele>676</ele>
        <time>2022-12-03T19:12:04Z</time>
      </trkpt>
      <trkpt lat="41.163030" lon="-6.684090">
        <ele>680</ele>
        <time>2022-12-03T19:12:12Z</time>
      </trkpt>
      <trkpt lat="41.163550" lon="-6.682500">
        <ele>689</ele>
        <time>2022-12-03T19:12:35Z</time>
      </trkpt>
      <trkpt lat="41.163590" lon="-6.681920">
        <ele>691</ele>
        <time>2022-12-03T19:12:43Z</time>
      </trkpt>
      <trkpt lat="41.163590" lon="-6.681220">
        <ele>695</ele>
        <time>2022-12-03T19:12:52Z</time>
      </trkpt>
      <trkpt lat="41.163640" lon="-6.680420">
        <ele>698</ele>
        <time>2022-12-03T19:13:03Z</time>
      </trkpt>
      <trkpt lat="41.163640" lon="-6.679690">
        <ele>699</ele>
        <time>2022-12-03T19:13:13Z</time>
      </trkpt>
      <trkpt lat="41.163270" lon="-6.678760">
        <ele>700</ele>
        <time>2022-12-03T19:13:27Z</time>
      </trkpt>
      <trkpt lat="41.163010" lon="-6.678320">
        <ele>700</ele>
        <time>2022-12-03T19:13:34Z</time>
      </trkpt>
      <trkpt lat="41.162770" lon="-6.677210">
        <ele>701</ele>
        <time>2022-12-03T19:13:50Z</time>
      </trkpt>
      <trkpt lat="41.162770" lon="-6.676810">
        <ele>701</ele>
        <time>2022-12-03T19:13:55Z</time>
      </trkpt>
      <trkpt lat="41.162930" lon="-6.676010">
        <ele>702</ele>
        <time>2022-12-03T19:14:06Z</time>
      </trkpt>
      <trkpt lat="41.163420" lon="-6.673950">
        <ele>701</ele>
        <time>2022-12-03T19:14:35Z</time>
      </trkpt>
      <trkpt lat="41.163680" lon="-6.672330">
        <ele>701</ele>
        <time>2022-12-03T19:14:57Z</time>
      </trkpt>
      <trkpt lat="41.163820" lon="-6.670540">
        <ele>698</ele>
        <time>2022-12-03T19:15:21Z</time>
      </trkpt>
      <trkpt lat="41.163900" lon="-6.669890">
        <ele>697</ele>
        <time>2022-12-03T19:15:30Z</time>
      </trkpt>
      <trkpt lat="41.164020" lon="-6.669190">
        <ele>694</ele>
        <time>2022-12-03T19:15:40Z</time>
      </trkpt>
      <trkpt lat="41.164060" lon="-6.668600">
        <ele>692</ele>
        <time>2022-12-03T19:15:48Z</time>
      </trkpt>
      <trkpt lat="41.164040" lon="-6.668060">
        <ele>691</ele>
        <time>2022-12-03T19:15:55Z</time>
      </trkpt>
      <trkpt lat="41.164070" lon="-6.667210">
        <ele>688</ele>
        <time>2022-12-03T19:16:06Z</time>
      </trkpt>
      <trkpt lat="41.164010" lon="-6.665940">
        <ele>687</ele>
        <time>2022-12-03T19:16:23Z</time>
      </trkpt>
      <trkpt lat="41.163730" lon="-6.664810">
        <ele>687</ele>
        <time>2022-12-03T19:16:39Z</time>
      </trkpt>
      <trkpt lat="41.163670" lon="-6.664310">
        <ele>687</ele>
        <time>2022-12-03T19:16:46Z</time>
      </trkpt>
      <trkpt lat="41.163700" lon="-6.663440">
        <ele>689</ele>
        <time>2022-12-03T19:16:58Z</time>
      </trkpt>
      <trkpt lat="41.163830" lon="-6.661690">
        <ele>688</ele>
        <time>2022-12-03T19:17:21Z</time>
      </trkpt>
      <trkpt lat="41.164370" lon="-6.659580">
        <ele>686</ele>
        <time>2022-12-03T19:17:51Z</time>
      </trkpt>
      <trkpt lat="41.164500" lon="-6.658780">
        <ele>684</ele>
        <time>2022-12-03T19:18:02Z</time>
      </trkpt>
      <trkpt lat="41.164510" lon="-6.657560">
        <ele>684</ele>
        <time>2022-12-03T19:18:19Z</time>
      </trkpt>
      <trkpt lat="41.164420" lon="-6.654330">
        <ele>686</ele>
        <time>2022-12-03T19:19:02Z</time>
      </trkpt>
      <trkpt lat="41.164460" lon="-6.653340">
        <ele>690</ele>
        <time>2022-12-03T19:19:15Z</time>
      </trkpt>
      <trkpt lat="41.164590" lon="-6.651820">
        <ele>692</ele>
        <time>2022-12-03T19:19:36Z</time>
      </trkpt>
      <trkpt lat="41.164690" lon="-6.650240">
        <ele>694</ele>
        <time>2022-12-03T19:19:57Z</time>
      </trkpt>
      <trkpt lat="41.164650" lon="-6.649530">
        <ele>692</ele>
        <time>2022-12-03T19:20:06Z</time>
      </trkpt>
      <trkpt lat="41.164440" lon="-6.648420">
        <ele>689</ele>
        <time>2022-12-03T19:20:22Z</time>
      </trkpt>
      <trkpt lat="41.164380" lon="-6.647890">
        <ele>687</ele>
        <time>2022-12-03T19:20:29Z</time>
      </trkpt>
      <trkpt lat="41.164400" lon="-6.647310">
        <ele>685</ele>
        <time>2022-12-03T19:20:37Z</time>
      </trkpt>
      <trkpt lat="41.164490" lon="-6.646780">
        <ele>684</ele>
        <time>2022-12-03T19:20:44Z</time>
      </trkpt>
      <trkpt lat="41.165110" lon="-6.645090">
        <ele>676</ele>
        <time>2022-12-03T19:21:09Z</time>
      </trkpt>
      <trkpt lat="41.165240" lon="-6.644540">
        <ele>673</ele>
        <time>2022-12-03T19:21:17Z</time>
      </trkpt>
      <trkpt lat="41.165270" lon="-6.644220">
        <ele>671</ele>
        <time>2022-12-03T19:21:21Z</time>
      </trkpt>
      <trkpt lat="41.165260" lon="-6.644130">
        <ele>671</ele>
        <time>2022-12-03T19:21:22Z</time>
      </trkpt>
      <trkpt lat="41.165230" lon="-6.644050">
        <ele>671</ele>
        <time>2022-12-03T19:21:24Z</time>
      </trkpt>
      <trkpt lat="41.164570" lon="-6.641100">
        <ele>681</ele>
        <time>2022-12-03T19:22:05Z</time>
      </trkpt>
      <trkpt lat="41.164270" lon="-6.639870">
        <ele>679</ele>
        <time>2022-12-03T19:22:22Z</time>
      </trkpt>
      <trkpt lat="41.163860" lon="-6.637990">
        <ele>681</ele>
        <time>2022-12-03T19:22:48Z</time>
      </trkpt>
      <trkpt lat="41.163490" lon="-6.636530">
        <ele>685</ele>
        <time>2022-12-03T19:23:09Z</time>
      </trkpt>
      <trkpt lat="41.163260" lon="-6.635170">
        <ele>687</ele>
        <time>2022-12-03T19:23:28Z</time>
      </trkpt>
      <trkpt lat="41.162820" lon="-6.631180">
        <ele>694</ele>
        <time>2022-12-03T19:24:22Z</time>
      </trkpt>
      <trkpt lat="41.162750" lon="-6.630970">
        <ele>694</ele>
        <time>2022-12-03T19:24:25Z</time>
      </trkpt>
      <trkpt lat="41.162660" lon="-6.630800">
        <ele>695</ele>
        <time>2022-12-03T19:24:28Z</time>
      </trkpt>
      <trkpt lat="41.162550" lon="-6.630680">
        <ele>695</ele>
        <time>2022-12-03T19:24:30Z</time>
      </trkpt>
      <trkpt lat="41.162450" lon="-6.630610">
        <ele>695</ele>
        <time>2022-12-03T19:24:32Z</time>
      </trkpt>
      <trkpt lat="41.162380" lon="-6.630570">
        <ele>696</ele>
        <time>2022-12-03T19:24:33Z</time>
      </trkpt>
      <trkpt lat="41.162310" lon="-6.630570">
        <ele>696</ele>
        <time>2022-12-03T19:24:35Z</time>
      </trkpt>
      <trkpt lat="41.162430" lon="-6.630380">
        <ele>696</ele>
        <time>2022-12-03T19:24:38Z</time>
      </trkpt>
      <trkpt lat="41.162430" lon="-6.630330">
        <ele>696</ele>
        <time>2022-12-03T19:24:39Z</time>
      </trkpt>
      <trkpt lat="41.162190" lon="-6.629750">
        <ele>699</ele>
        <time>2022-12-03T19:24:48Z</time>
      </trkpt>
      <trkpt lat="41.162250" lon="-6.629680">
        <ele>699</ele>
        <time>2022-12-03T19:24:49Z</time>
      </trkpt>
      <trkpt lat="41.162350" lon="-6.629520">
        <ele>700</ele>
        <time>2022-12-03T19:24:52Z</time>
      </trkpt>
      <trkpt lat="41.162960" lon="-6.628030">
        <ele>703</ele>
        <time>2022-12-03T19:25:14Z</time>
      </trkpt>
      <trkpt lat="41.162970" lon="-6.627790">
        <ele>703</ele>
        <time>2022-12-03T19:25:18Z</time>
      </trkpt>
      <trkpt lat="41.162950" lon="-6.627650">
        <ele>703</ele>
        <time>2022-12-03T19:25:20Z</time>
      </trkpt>
      <trkpt lat="41.162870" lon="-6.627530">
        <ele>703</ele>
        <time>2022-12-03T19:25:22Z</time>
      </trkpt>
      <trkpt lat="41.162900" lon="-6.627370">
        <ele>702</ele>
        <time>2022-12-03T19:25:24Z</time>
      </trkpt>
      <trkpt lat="41.162890" lon="-6.627050">
        <ele>702</ele>
        <time>2022-12-03T19:25:28Z</time>
      </trkpt>
      <trkpt lat="41.162820" lon="-6.626580">
        <ele>701</ele>
        <time>2022-12-03T19:25:35Z</time>
      </trkpt>
      <trkpt lat="41.163160" lon="-6.626300">
        <ele>701</ele>
        <time>2022-12-03T19:25:42Z</time>
      </trkpt>
      <trkpt lat="41.163330" lon="-6.626200">
        <ele>701</ele>
        <time>2022-12-03T19:25:45Z</time>
      </trkpt>
      <trkpt lat="41.163520" lon="-6.625810">
        <ele>702</ele>
        <time>2022-12-03T19:25:51Z</time>
      </trkpt>
      <trkpt lat="41.163650" lon="-6.625150">
        <ele>702</ele>
        <time>2022-12-03T19:26:00Z</time>
      </trkpt>
      <trkpt lat="41.163700" lon="-6.625000">
        <ele>703</ele>
        <time>2022-12-03T19:26:03Z</time>
      </trkpt>
      <trkpt lat="41.164210" lon="-6.624320">
        <ele>705</ele>
        <time>2022-12-03T19:26:15Z</time>
      </trkpt>
      <trkpt lat="41.164770" lon="-6.623630">
        <ele>708</ele>
        <time>2022-12-03T19:26:29Z</time>
      </trkpt>
      <trkpt lat="41.165280" lon="-6.622980">
        <ele>711</ele>
        <time>2022-12-03T19:26:42Z</time>
      </trkpt>
      <trkpt lat="41.165780" lon="-6.622390">
        <ele>713</ele>
        <time>2022-12-03T19:26:54Z</time>
      </trkpt>
      <trkpt lat="41.166140" lon="-6.622010">
        <ele>713</ele>
        <time>2022-12-03T19:27:02Z</time>
      </trkpt>
      <trkpt lat="41.166290" lon="-6.621760">
        <ele>713</ele>
        <time>2022-12-03T19:27:06Z</time>
      </trkpt>
      <trkpt lat="41.167120" lon="-6.620240">
        <ele>715</ele>
        <time>2022-12-03T19:27:31Z</time>
      </trkpt>
      <trkpt lat="41.167270" lon="-6.620080">
        <ele>715</ele>
        <time>2022-12-03T19:27:35Z</time>
      </trkpt>
      <trkpt lat="41.167820" lon="-6.619640">
        <ele>716</ele>
        <time>2022-12-03T19:27:46Z</time>
      </trkpt>
      <trkpt lat="41.168250" lon="-6.619260">
        <ele>716</ele>
        <time>2022-12-03T19:27:55Z</time>
      </trkpt>
      <trkpt lat="41.168710" lon="-6.618740">
        <ele>718</ele>
        <time>2022-12-03T19:28:06Z</time>
      </trkpt>
      <trkpt lat="41.169170" lon="-6.618250">
        <ele>721</ele>
        <time>2022-12-03T19:28:16Z</time>
      </trkpt>
      <trkpt lat="41.169530" lon="-6.618020">
        <ele>723</ele>
        <time>2022-12-03T19:28:24Z</time>
      </trkpt>
      <trkpt lat="41.169780" lon="-6.617840">
        <ele>725</ele>
        <time>2022-12-03T19:28:29Z</time>
      </trkpt>
      <trkpt lat="41.169890" lon="-6.617700">
        <ele>726</ele>
        <time>2022-12-03T19:28:31Z</time>
      </trkpt>
      <trkpt lat="41.170720" lon="-6.616040">
        <ele>729</ele>
        <time>2022-12-03T19:28:58Z</time>
      </trkpt>
      <trkpt lat="41.170860" lon="-6.615820">
        <ele>729</ele>
        <time>2022-12-03T19:29:02Z</time>
      </trkpt>
      <trkpt lat="41.170950" lon="-6.615730">
        <ele>729</ele>
        <time>2022-12-03T19:29:04Z</time>
      </trkpt>
      <trkpt lat="41.171180" lon="-6.615660">
        <ele>730</ele>
        <time>2022-12-03T19:29:08Z</time>
      </trkpt>
      <trkpt lat="41.171370" lon="-6.615580">
        <ele>731</ele>
        <time>2022-12-03T19:29:12Z</time>
      </trkpt>
      <trkpt lat="41.171820" lon="-6.615060">
        <ele>733</ele>
        <time>2022-12-03T19:29:22Z</time>
      </trkpt>
      <trkpt lat="41.172040" lon="-6.614690">
        <ele>733</ele>
        <time>2022-12-03T19:29:29Z</time>
      </trkpt>
      <trkpt lat="41.173730" lon="-6.611780">
        <ele>736</ele>
        <time>2022-12-03T19:30:18Z</time>
      </trkpt>
      <trkpt lat="41.173950" lon="-6.611520">
        <ele>737</ele>
        <time>2022-12-03T19:30:23Z</time>
      </trkpt>
      <trkpt lat="41.174710" lon="-6.610770">
        <ele>737</ele>
        <time>2022-12-03T19:30:40Z</time>
      </trkpt>
      <trkpt lat="41.174890" lon="-6.610650">
        <ele>737</ele>
        <time>2022-12-03T19:30:43Z</time>
      </trkpt>
      <trkpt lat="41.175580" lon="-6.610260">
        <ele>736</ele>
        <time>2022-12-03T19:30:57Z</time>
      </trkpt>
      <trkpt lat="41.176400" lon="-6.609810">
        <ele>734</ele>
        <time>2022-12-03T19:31:13Z</time>
      </trkpt>
      <trkpt lat="41.176640" lon="-6.609690">
        <ele>733</ele>
        <time>2022-12-03T19:31:17Z</time>
      </trkpt>
      <trkpt lat="41.176830" lon="-6.609640">
        <ele>733</ele>
        <time>2022-12-03T19:31:21Z</time>
      </trkpt>
      <trkpt lat="41.177110" lon="-6.609650">
        <ele>733</ele>
        <time>2022-12-03T19:31:26Z</time>
      </trkpt>
      <trkpt lat="41.182130" lon="-6.609470">
        <ele>736</ele>
        <time>2022-12-03T19:32:55Z</time>
      </trkpt>
      <trkpt lat="41.183580" lon="-6.609410">
        <ele>740</ele>
        <time>2022-12-03T19:33:21Z</time>
      </trkpt>
      <trkpt lat="41.186250" lon="-6.609330">
        <ele>739</ele>
        <time>2022-12-03T19:34:08Z</time>
      </trkpt>
      <trkpt lat="41.186610" lon="-6.609250">
        <ele>739</ele>
        <time>2022-12-03T19:34:15Z</time>
      </trkpt>
      <trkpt lat="41.187390" lon="-6.609040">
        <ele>740</ele>
        <time>2022-12-03T19:34:29Z</time>
      </trkpt>
      <trkpt lat="41.188060" lon="-6.608750">
        <ele>736</ele>
        <time>2022-12-03T19:34:41Z</time>
      </trkpt>
      <trkpt lat="41.188310" lon="-6.608580">
        <ele>735</ele>
        <time>2022-12-03T19:34:46Z</time>
      </trkpt>
      <trkpt lat="41.188440" lon="-6.608460">
        <ele>734</ele>
        <time>2022-12-03T19:34:49Z</time>
      </trkpt>
      <trkpt lat="41.188650" lon="-6.608160">
        <ele>733</ele>
        <time>2022-12-03T19:34:55Z</time>
      </trkpt>
      <trkpt lat="41.189930" lon="-6.606250">
        <ele>731</ele>
        <time>2022-12-03T19:35:29Z</time>
      </trkpt>
      <trkpt lat="41.190370" lon="-6.605860">
        <ele>731</ele>
        <time>2022-12-03T19:35:38Z</time>
      </trkpt>
      <trkpt lat="41.190530" lon="-6.605700">
        <ele>730</ele>
        <time>2022-12-03T19:35:42Z</time>
      </trkpt>
      <trkpt lat="41.191100" lon="-6.604760">
        <ele>727</ele>
        <time>2022-12-03T19:35:58Z</time>
      </trkpt>
      <trkpt lat="41.191240" lon="-6.604580">
        <ele>727</ele>
        <time>2022-12-03T19:36:02Z</time>
      </trkpt>
      <trkpt lat="41.191440" lon="-6.604420">
        <ele>728</ele>
        <time>2022-12-03T19:36:06Z</time>
      </trkpt>
      <trkpt lat="41.191930" lon="-6.604150">
        <ele>729</ele>
        <time>2022-12-03T19:36:15Z</time>
      </trkpt>
      <trkpt lat="41.192110" lon="-6.604020">
        <ele>729</ele>
        <time>2022-12-03T19:36:19Z</time>
      </trkpt>
      <trkpt lat="41.192250" lon="-6.603890">
        <ele>729</ele>
        <time>2022-12-03T19:36:22Z</time>
      </trkpt>
      <trkpt lat="41.192500" lon="-6.603550">
        <ele>731</ele>
        <time>2022-12-03T19:36:28Z</time>
      </trkpt>
      <trkpt lat="41.192770" lon="-6.603100">
        <ele>732</ele>
        <time>2022-12-03T19:36:36Z</time>
      </trkpt>
      <trkpt lat="41.192920" lon="-6.602790">
        <ele>732</ele>
        <time>2022-12-03T19:36:41Z</time>
      </trkpt>
      <trkpt lat="41.193000" lon="-6.602480">
        <ele>733</ele>
        <time>2022-12-03T19:36:45Z</time>
      </trkpt>
      <trkpt lat="41.193440" lon="-6.600170">
        <ele>734</ele>
        <time>2022-12-03T19:37:17Z</time>
      </trkpt>
      <trkpt lat="41.193540" lon="-6.599720">
        <ele>734</ele>
        <time>2022-12-03T19:37:23Z</time>
      </trkpt>
      <trkpt lat="41.193660" lon="-6.599450">
        <ele>733</ele>
        <time>2022-12-03T19:37:28Z</time>
      </trkpt>
      <trkpt lat="41.193880" lon="-6.599120">
        <ele>733</ele>
        <time>2022-12-03T19:37:34Z</time>
      </trkpt>
      <trkpt lat="41.194980" lon="-6.597770">
        <ele>733</ele>
        <time>2022-12-03T19:38:00Z</time>
      </trkpt>
      <trkpt lat="41.195210" lon="-6.597410">
        <ele>733</ele>
        <time>2022-12-03T19:38:07Z</time>
      </trkpt>
      <trkpt lat="41.195770" lon="-6.595890">
        <ele>727</ele>
        <time>2022-12-03T19:38:29Z</time>
      </trkpt>
      <trkpt lat="41.195900" lon="-6.595570">
        <ele>726</ele>
        <time>2022-12-03T19:38:34Z</time>
      </trkpt>
      <trkpt lat="41.196070" lon="-6.595340">
        <ele>725</ele>
        <time>2022-12-03T19:38:38Z</time>
      </trkpt>
      <trkpt lat="41.196350" lon="-6.595110">
        <ele>724</ele>
        <time>2022-12-03T19:38:44Z</time>
      </trkpt>
      <trkpt lat="41.198260" lon="-6.593790">
        <ele>714</ele>
        <time>2022-12-03T19:39:23Z</time>
      </trkpt>
      <trkpt lat="41.198570" lon="-6.593540">
        <ele>713</ele>
        <time>2022-12-03T19:39:29Z</time>
      </trkpt>
      <trkpt lat="41.199250" lon="-6.592700">
        <ele>714</ele>
        <time>2022-12-03T19:39:45Z</time>
      </trkpt>
      <trkpt lat="41.199310" lon="-6.592630">
        <ele>714</ele>
        <time>2022-12-03T19:39:47Z</time>
      </trkpt>
      <trkpt lat="41.199540" lon="-6.592590">
        <ele>714</ele>
        <time>2022-12-03T19:39:51Z</time>
      </trkpt>
      <trkpt lat="41.199870" lon="-6.592590">
        <ele>713</ele>
        <time>2022-12-03T19:39:57Z</time>
      </trkpt>
      <trkpt lat="41.200320" lon="-6.592420">
        <ele>712</ele>
        <time>2022-12-03T19:40:05Z</time>
      </trkpt>
      <trkpt lat="41.200770" lon="-6.592220">
        <ele>710</ele>
        <time>2022-12-03T19:40:14Z</time>
      </trkpt>
      <trkpt lat="41.200860" lon="-6.592100">
        <ele>710</ele>
        <time>2022-12-03T19:40:16Z</time>
      </trkpt>
      <trkpt lat="41.200910" lon="-6.591960">
        <ele>710</ele>
        <time>2022-12-03T19:40:18Z</time>
      </trkpt>
      <trkpt lat="41.200980" lon="-6.591610">
        <ele>710</ele>
        <time>2022-12-03T19:40:23Z</time>
      </trkpt>
      <trkpt lat="41.200960" lon="-6.591420">
        <ele>709</ele>
        <time>2022-12-03T19:40:25Z</time>
      </trkpt>
      <trkpt lat="41.201480" lon="-6.590940">
        <ele>705</ele>
        <time>2022-12-03T19:40:37Z</time>
      </trkpt>
      <trkpt lat="41.201620" lon="-6.590890">
        <ele>703</ele>
        <time>2022-12-03T19:40:39Z</time>
      </trkpt>
      <trkpt lat="41.201770" lon="-6.590660">
        <ele>701</ele>
        <time>2022-12-03T19:40:43Z</time>
      </trkpt>
      <trkpt lat="41.201790" lon="-6.590550">
        <ele>701</ele>
        <time>2022-12-03T19:40:45Z</time>
      </trkpt>
      <trkpt lat="41.201940" lon="-6.590510">
        <ele>700</ele>
        <time>2022-12-03T19:40:48Z</time>
      </trkpt>
      <trkpt lat="41.202070" lon="-6.590380">
        <ele>699</ele>
        <time>2022-12-03T19:40:50Z</time>
      </trkpt>
      <trkpt lat="41.202420" lon="-6.589920">
        <ele>695</ele>
        <time>2022-12-03T19:40:59Z</time>
      </trkpt>
      <trkpt lat="41.203050" lon="-6.589200">
        <ele>689</ele>
        <time>2022-12-03T19:41:14Z</time>
      </trkpt>
      <trkpt lat="41.203160" lon="-6.589130">
        <ele>689</ele>
        <time>2022-12-03T19:41:16Z</time>
      </trkpt>
      <trkpt lat="41.203330" lon="-6.588800">
        <ele>686</ele>
        <time>2022-12-03T19:41:22Z</time>
      </trkpt>
      <trkpt lat="41.203400" lon="-6.588530">
        <ele>684</ele>
        <time>2022-12-03T19:41:25Z</time>
      </trkpt>
      <trkpt lat="41.203310" lon="-6.588270">
        <ele>683</ele>
        <time>2022-12-03T19:41:29Z</time>
      </trkpt>
      <trkpt lat="41.202190" lon="-6.585800">
        <ele>677</ele>
        <time>2022-12-03T19:42:08Z</time>
      </trkpt>
      <trkpt lat="41.202050" lon="-6.585540">
        <ele>677</ele>
        <time>2022-12-03T19:42:12Z</time>
      </trkpt>
      <trkpt lat="41.201940" lon="-6.585390">
        <ele>677</ele>
        <time>2022-12-03T19:42:15Z</time>
      </trkpt>
      <trkpt lat="41.201450" lon="-6.584790">
        <ele>674</ele>
        <time>2022-12-03T19:42:27Z</time>
      </trkpt>
      <trkpt lat="41.201240" lon="-6.584470">
        <ele>672</ele>
        <time>2022-12-03T19:42:32Z</time>
      </trkpt>
      <trkpt lat="41.200250" lon="-6.582370">
        <ele>667</ele>
        <time>2022-12-03T19:43:06Z</time>
      </trkpt>
      <trkpt lat="41.199490" lon="-6.580140">
        <ele>658</ele>
        <time>2022-12-03T19:43:38Z</time>
      </trkpt>
      <trkpt lat="41.199460" lon="-6.579980">
        <ele>657</ele>
        <time>2022-12-03T19:43:41Z</time>
      </trkpt>
      <trkpt lat="41.199450" lon="-6.579810">
        <ele>656</ele>
        <time>2022-12-03T19:43:43Z</time>
      </trkpt>
      <trkpt lat="41.199460" lon="-6.579660">
        <ele>656</ele>
        <time>2022-12-03T19:43:45Z</time>
      </trkpt>
      <trkpt lat="41.199500" lon="-6.579480">
        <ele>656</ele>
        <time>2022-12-03T19:43:47Z</time>
      </trkpt>
      <trkpt lat="41.199580" lon="-6.579260">
        <ele>655</ele>
        <time>2022-12-03T19:43:51Z</time>
      </trkpt>
      <trkpt lat="41.201180" lon="-6.575510">
        <ele>641</ele>
        <time>2022-12-03T19:44:48Z</time>
      </trkpt>
      <trkpt lat="41.201220" lon="-6.575330">
        <ele>641</ele>
        <time>2022-12-03T19:44:51Z</time>
      </trkpt>
      <trkpt lat="41.201210" lon="-6.575020">
        <ele>640</ele>
        <time>2022-12-03T19:44:55Z</time>
      </trkpt>
      <trkpt lat="41.201190" lon="-6.574890">
        <ele>638</ele>
        <time>2022-12-03T19:44:57Z</time>
      </trkpt>
      <trkpt lat="41.201120" lon="-6.574700">
        <ele>636</ele>
        <time>2022-12-03T19:45:00Z</time>
      </trkpt>
      <trkpt lat="41.201010" lon="-6.574520">
        <ele>633</ele>
        <time>2022-12-03T19:45:03Z</time>
      </trkpt>
      <trkpt lat="41.200870" lon="-6.574400">
        <ele>632</ele>
        <time>2022-12-03T19:45:06Z</time>
      </trkpt>
      <trkpt lat="41.200160" lon="-6.573960">
        <ele>632</ele>
        <time>2022-12-03T19:45:20Z</time>
      </trkpt>
      <trkpt lat="41.199960" lon="-6.573780">
        <ele>631</ele>
        <time>2022-12-03T19:45:24Z</time>
      </trkpt>
      <trkpt lat="41.199660" lon="-6.573350">
        <ele>626</ele>
        <time>2022-12-03T19:45:32Z</time>
      </trkpt>
      <trkpt lat="41.199520" lon="-6.573190">
        <ele>624</ele>
        <time>2022-12-03T19:45:35Z</time>
      </trkpt>
      <trkpt lat="41.199420" lon="-6.573100">
        <ele>622</ele>
        <time>2022-12-03T19:45:37Z</time>
      </trkpt>
      <trkpt lat="41.199280" lon="-6.573040">
        <ele>621</ele>
        <time>2022-12-03T19:45:40Z</time>
      </trkpt>
      <trkpt lat="41.199110" lon="-6.573010">
        <ele>620</ele>
        <time>2022-12-03T19:45:43Z</time>
      </trkpt>
      <trkpt lat="41.198550" lon="-6.573050">
        <ele>618</ele>
        <time>2022-12-03T19:45:53Z</time>
      </trkpt>
      <trkpt lat="41.198340" lon="-6.573120">
        <ele>617</ele>
        <time>2022-12-03T19:45:57Z</time>
      </trkpt>
      <trkpt lat="41.197990" lon="-6.573390">
        <ele>619</ele>
        <time>2022-12-03T19:46:04Z</time>
      </trkpt>
      <trkpt lat="41.197810" lon="-6.573450">
        <ele>619</ele>
        <time>2022-12-03T19:46:07Z</time>
      </trkpt>
      <trkpt lat="41.197650" lon="-6.573440">
        <ele>618</ele>
        <time>2022-12-03T19:46:10Z</time>
      </trkpt>
      <trkpt lat="41.197500" lon="-6.573390">
        <ele>617</ele>
        <time>2022-12-03T19:46:13Z</time>
      </trkpt>
      <trkpt lat="41.197370" lon="-6.573300">
        <ele>616</ele>
        <time>2022-12-03T19:46:15Z</time>
      </trkpt>
      <trkpt lat="41.197260" lon="-6.573190">
        <ele>615</ele>
        <time>2022-12-03T19:46:18Z</time>
      </trkpt>
      <trkpt lat="41.196500" lon="-6.572130">
        <ele>604</ele>
        <time>2022-12-03T19:46:38Z</time>
      </trkpt>
      <trkpt lat="41.196670" lon="-6.571740">
        <ele>602</ele>
        <time>2022-12-03T19:46:44Z</time>
      </trkpt>
      <trkpt lat="41.196740" lon="-6.571460">
        <ele>600</ele>
        <time>2022-12-03T19:46:47Z</time>
      </trkpt>
      <trkpt lat="41.196870" lon="-6.571090">
        <ele>599</ele>
        <time>2022-12-03T19:46:53Z</time>
      </trkpt>
      <trkpt lat="41.196990" lon="-6.570840">
        <ele>598</ele>
        <time>2022-12-03T19:46:57Z</time>
      </trkpt>
      <trkpt lat="41.197190" lon="-6.570490">
        <ele>598</ele>
        <time>2022-12-03T19:47:03Z</time>
      </trkpt>
      <trkpt lat="41.197420" lon="-6.570210">
        <ele>596</ele>
        <time>2022-12-03T19:47:08Z</time>
      </trkpt>
      <trkpt lat="41.197690" lon="-6.569940">
        <ele>593</ele>
        <time>2022-12-03T19:47:14Z</time>
      </trkpt>
      <trkpt lat="41.198020" lon="-6.569710">
        <ele>590</ele>
        <time>2022-12-03T19:47:21Z</time>
      </trkpt>
      <trkpt lat="41.198270" lon="-6.569650">
        <ele>590</ele>
        <time>2022-12-03T19:47:26Z</time>
      </trkpt>
      <trkpt lat="41.198630" lon="-6.569660">
        <ele>590</ele>
        <time>2022-12-03T19:47:32Z</time>
      </trkpt>
      <trkpt lat="41.198730" lon="-6.569630">
        <ele>590</ele>
        <time>2022-12-03T19:47:34Z</time>
      </trkpt>
      <trkpt lat="41.198820" lon="-6.569560">
        <ele>589</ele>
        <time>2022-12-03T19:47:36Z</time>
      </trkpt>
      <trkpt lat="41.198920" lon="-6.569360">
        <ele>588</ele>
        <time>2022-12-03T19:47:39Z</time>
      </trkpt>
      <trkpt lat="41.198930" lon="-6.569130">
        <ele>586</ele>
        <time>2022-12-03T19:47:42Z</time>
      </trkpt>
      <trkpt lat="41.198450" lon="-6.568100">
        <ele>575</ele>
        <time>2022-12-03T19:47:58Z</time>
      </trkpt>
      <trkpt lat="41.198240" lon="-6.567550">
        <ele>574</ele>
        <time>2022-12-03T19:48:06Z</time>
      </trkpt>
      <trkpt lat="41.198030" lon="-6.566900">
        <ele>569</ele>
        <time>2022-12-03T19:48:16Z</time>
      </trkpt>
      <trkpt lat="41.197960" lon="-6.566620">
        <ele>567</ele>
        <time>2022-12-03T19:48:20Z</time>
      </trkpt>
      <trkpt lat="41.197950" lon="-6.566380">
        <ele>565</ele>
        <time>2022-12-03T19:48:23Z</time>
      </trkpt>
      <trkpt lat="41.198000" lon="-6.566170">
        <ele>563</ele>
        <time>2022-12-03T19:48:26Z</time>
      </trkpt>
      <trkpt lat="41.198070" lon="-6.566000">
        <ele>562</ele>
        <time>2022-12-03T19:48:29Z</time>
      </trkpt>
      <trkpt lat="41.198200" lon="-6.565850">
        <ele>562</ele>
        <time>2022-12-03T19:48:32Z</time>
      </trkpt>
      <trkpt lat="41.198380" lon="-6.565760">
        <ele>560</ele>
        <time>2022-12-03T19:48:35Z</time>
      </trkpt>
      <trkpt lat="41.198520" lon="-6.565760">
        <ele>560</ele>
        <time>2022-12-03T19:48:38Z</time>
      </trkpt>
      <trkpt lat="41.198660" lon="-6.565780">
        <ele>560</ele>
        <time>2022-12-03T19:48:40Z</time>
      </trkpt>
      <trkpt lat="41.198940" lon="-6.565950">
        <ele>562</ele>
        <time>2022-12-03T19:48:46Z</time>
      </trkpt>
      <trkpt lat="41.199070" lon="-6.565960">
        <ele>562</ele>
        <time>2022-12-03T19:48:48Z</time>
      </trkpt>
      <trkpt lat="41.199220" lon="-6.565900">
        <ele>560</ele>
        <time>2022-12-03T19:48:51Z</time>
      </trkpt>
      <trkpt lat="41.199680" lon="-6.565450">
        <ele>552</ele>
        <time>2022-12-03T19:49:01Z</time>
      </trkpt>
      <trkpt lat="41.199800" lon="-6.565380">
        <ele>551</ele>
        <time>2022-12-03T19:49:03Z</time>
      </trkpt>
      <trkpt lat="41.199930" lon="-6.565380">
        <ele>551</ele>
        <time>2022-12-03T19:49:05Z</time>
      </trkpt>
      <trkpt lat="41.200050" lon="-6.565470">
        <ele>551</ele>
        <time>2022-12-03T19:49:08Z</time>
      </trkpt>
      <trkpt lat="41.200140" lon="-6.565600">
        <ele>551</ele>
        <time>2022-12-03T19:49:10Z</time>
      </trkpt>
      <trkpt lat="41.200260" lon="-6.565940">
        <ele>551</ele>
        <time>2022-12-03T19:49:15Z</time>
      </trkpt>
      <trkpt lat="41.200440" lon="-6.566220">
        <ele>548</ele>
        <time>2022-12-03T19:49:20Z</time>
      </trkpt>
      <trkpt lat="41.200560" lon="-6.566460">
        <ele>545</ele>
        <time>2022-12-03T19:49:24Z</time>
      </trkpt>
      <trkpt lat="41.200630" lon="-6.567120">
        <ele>548</ele>
        <time>2022-12-03T19:49:33Z</time>
      </trkpt>
      <trkpt lat="41.200670" lon="-6.567230">
        <ele>548</ele>
        <time>2022-12-03T19:49:35Z</time>
      </trkpt>
      <trkpt lat="41.200730" lon="-6.567340">
        <ele>547</ele>
        <time>2022-12-03T19:49:36Z</time>
      </trkpt>
      <trkpt lat="41.201000" lon="-6.567630">
        <ele>546</ele>
        <time>2022-12-03T19:49:43Z</time>
      </trkpt>
      <trkpt lat="41.201060" lon="-6.567650">
        <ele>546</ele>
        <time>2022-12-03T19:49:44Z</time>
      </trkpt>
      <trkpt lat="41.201150" lon="-6.567630">
        <ele>545</ele>
        <time>2022-12-03T19:49:45Z</time>
      </trkpt>
      <trkpt lat="41.201180" lon="-6.567600">
        <ele>544</ele>
        <time>2022-12-03T19:49:46Z</time>
      </trkpt>
      <trkpt lat="41.201310" lon="-6.567350">
        <ele>541</ele>
        <time>2022-12-03T19:49:50Z</time>
      </trkpt>
      <trkpt lat="41.201490" lon="-6.566930">
        <ele>541</ele>
        <time>2022-12-03T19:49:57Z</time>
      </trkpt>
      <trkpt lat="41.201530" lon="-6.566790">
        <ele>541</ele>
        <time>2022-12-03T19:49:59Z</time>
      </trkpt>
      <trkpt lat="41.201530" lon="-6.566680">
        <ele>541</ele>
        <time>2022-12-03T19:50:00Z</time>
      </trkpt>
      <trkpt lat="41.201410" lon="-6.566150">
        <ele>545</ele>
        <time>2022-12-03T19:50:07Z</time>
      </trkpt>
      <trkpt lat="41.201180" lon="-6.564420">
        <ele>552</ele>
        <time>2022-12-03T19:50:31Z</time>
      </trkpt>
      <trkpt lat="41.201180" lon="-6.564330">
        <ele>552</ele>
        <time>2022-12-03T19:50:32Z</time>
      </trkpt>
      <trkpt lat="41.201200" lon="-6.564250">
        <ele>553</ele>
        <time>2022-12-03T19:50:33Z</time>
      </trkpt>
      <trkpt lat="41.201260" lon="-6.564210">
        <ele>555</ele>
        <time>2022-12-03T19:50:34Z</time>
      </trkpt>
      <trkpt lat="41.201310" lon="-6.564230">
        <ele>556</ele>
        <time>2022-12-03T19:50:35Z</time>
      </trkpt>
      <trkpt lat="41.201330" lon="-6.564300">
        <ele>557</ele>
        <time>2022-12-03T19:50:36Z</time>
      </trkpt>
      <trkpt lat="41.201340" lon="-6.564650">
        <ele>555</ele>
        <time>2022-12-03T19:50:41Z</time>
      </trkpt>
      <trkpt lat="41.201400" lon="-6.564810">
        <ele>556</ele>
        <time>2022-12-03T19:50:44Z</time>
      </trkpt>
      <trkpt lat="41.201890" lon="-6.565640">
        <ele>561</ele>
        <time>2022-12-03T19:50:58Z</time>
      </trkpt>
      <trkpt lat="41.202130" lon="-6.566150">
        <ele>561</ele>
        <time>2022-12-03T19:51:06Z</time>
      </trkpt>
      <trkpt lat="41.202400" lon="-6.566450">
        <ele>563</ele>
        <time>2022-12-03T19:51:12Z</time>
      </trkpt>
      <trkpt lat="41.202600" lon="-6.566590">
        <ele>563</ele>
        <time>2022-12-03T19:51:16Z</time>
      </trkpt>
      <trkpt lat="41.202700" lon="-6.566610">
        <ele>562</ele>
        <time>2022-12-03T19:51:18Z</time>
      </trkpt>
      <trkpt lat="41.202820" lon="-6.566570">
        <ele>562</ele>
        <time>2022-12-03T19:51:20Z</time>
      </trkpt>
      <trkpt lat="41.203020" lon="-6.566350">
        <ele>566</ele>
        <time>2022-12-03T19:51:25Z</time>
      </trkpt>
      <trkpt lat="41.203220" lon="-6.566240">
        <ele>568</ele>
        <time>2022-12-03T19:51:28Z</time>
      </trkpt>
      <trkpt lat="41.203760" lon="-6.565770">
        <ele>573</ele>
        <time>2022-12-03T19:51:40Z</time>
      </trkpt>
      <trkpt lat="41.204000" lon="-6.565730">
        <ele>571</ele>
        <time>2022-12-03T19:51:44Z</time>
      </trkpt>
      <trkpt lat="41.204140" lon="-6.565680">
        <ele>570</ele>
        <time>2022-12-03T19:51:47Z</time>
      </trkpt>
      <trkpt lat="41.204240" lon="-6.565620">
        <ele>568</ele>
        <time>2022-12-03T19:51:49Z</time>
      </trkpt>
      <trkpt lat="41.204360" lon="-6.565510">
        <ele>568</ele>
        <time>2022-12-03T19:51:51Z</time>
      </trkpt>
      <trkpt lat="41.204630" lon="-6.564980">
        <ele>577</ele>
        <time>2022-12-03T19:52:00Z</time>
      </trkpt>
      <trkpt lat="41.204690" lon="-6.564900">
        <ele>577</ele>
        <time>2022-12-03T19:52:01Z</time>
      </trkpt>
      <trkpt lat="41.204800" lon="-6.564840">
        <ele>576</ele>
        <time>2022-12-03T19:52:04Z</time>
      </trkpt>
      <trkpt lat="41.205940" lon="-6.564470">
        <ele>582</ele>
        <time>2022-12-03T19:52:24Z</time>
      </trkpt>
      <trkpt lat="41.206250" lon="-6.564490">
        <ele>587</ele>
        <time>2022-12-03T19:52:30Z</time>
      </trkpt>
      <trkpt lat="41.206550" lon="-6.564550">
        <ele>591</ele>
        <time>2022-12-03T19:52:35Z</time>
      </trkpt>
      <trkpt lat="41.207270" lon="-6.564820">
        <ele>592</ele>
        <time>2022-12-03T19:52:49Z</time>
      </trkpt>
      <trkpt lat="41.207470" lon="-6.564850">
        <ele>594</ele>
        <time>2022-12-03T19:52:52Z</time>
      </trkpt>
      <trkpt lat="41.207710" lon="-6.564860">
        <ele>593</ele>
        <time>2022-12-03T19:52:57Z</time>
      </trkpt>
      <trkpt lat="41.208030" lon="-6.564710">
        <ele>598</ele>
        <time>2022-12-03T19:53:03Z</time>
      </trkpt>
      <trkpt lat="41.208180" lon="-6.564680">
        <ele>598</ele>
        <time>2022-12-03T19:53:05Z</time>
      </trkpt>
      <trkpt lat="41.208550" lon="-6.564760">
        <ele>595</ele>
        <time>2022-12-03T19:53:12Z</time>
      </trkpt>
      <trkpt lat="41.208680" lon="-6.564750">
        <ele>596</ele>
        <time>2022-12-03T19:53:14Z</time>
      </trkpt>
      <trkpt lat="41.208910" lon="-6.564640">
        <ele>599</ele>
        <time>2022-12-03T19:53:19Z</time>
      </trkpt>
      <trkpt lat="41.209100" lon="-6.564460">
        <ele>604</ele>
        <time>2022-12-03T19:53:23Z</time>
      </trkpt>
      <trkpt lat="41.209640" lon="-6.563680">
        <ele>614</ele>
        <time>2022-12-03T19:53:37Z</time>
      </trkpt>
      <trkpt lat="41.210180" lon="-6.562750">
        <ele>617</ele>
        <time>2022-12-03T19:53:53Z</time>
      </trkpt>
      <trkpt lat="41.210280" lon="-6.562550">
        <ele>619</ele>
        <time>2022-12-03T19:53:56Z</time>
      </trkpt>
      <trkpt lat="41.210390" lon="-6.562220">
        <ele>621</ele>
        <time>2022-12-03T19:54:01Z</time>
      </trkpt>
      <trkpt lat="41.210420" lon="-6.562030">
        <ele>622</ele>
        <time>2022-12-03T19:54:03Z</time>
      </trkpt>
      <trkpt lat="41.210440" lon="-6.561460">
        <ele>628</ele>
        <time>2022-12-03T19:54:11Z</time>
      </trkpt>
      <trkpt lat="41.210510" lon="-6.561260">
        <ele>630</ele>
        <time>2022-12-03T19:54:14Z</time>
      </trkpt>
      <trkpt lat="41.210630" lon="-6.561080">
        <ele>630</ele>
        <time>2022-12-03T19:54:17Z</time>
      </trkpt>
      <trkpt lat="41.210950" lon="-6.560770">
        <ele>630</ele>
        <time>2022-12-03T19:54:24Z</time>
      </trkpt>
      <trkpt lat="41.211220" lon="-6.560820">
        <ele>627</ele>
        <time>2022-12-03T19:54:29Z</time>
      </trkpt>
      <trkpt lat="41.211330" lon="-6.560810">
        <ele>626</ele>
        <time>2022-12-03T19:54:31Z</time>
      </trkpt>
      <trkpt lat="41.211430" lon="-6.560740">
        <ele>626</ele>
        <time>2022-12-03T19:54:33Z</time>
      </trkpt>
      <trkpt lat="41.211520" lon="-6.560550">
        <ele>630</ele>
        <time>2022-12-03T19:54:36Z</time>
      </trkpt>
      <trkpt lat="41.211740" lon="-6.560210">
        <ele>635</ele>
        <time>2022-12-03T19:54:42Z</time>
      </trkpt>
      <trkpt lat="41.211920" lon="-6.559990">
        <ele>636</ele>
        <time>2022-12-03T19:54:46Z</time>
      </trkpt>
      <trkpt lat="41.212170" lon="-6.559420">
        <ele>640</ele>
        <time>2022-12-03T19:54:55Z</time>
      </trkpt>
      <trkpt lat="41.212240" lon="-6.559210">
        <ele>642</ele>
        <time>2022-12-03T19:54:58Z</time>
      </trkpt>
      <trkpt lat="41.212270" lon="-6.559060">
        <ele>642</ele>
        <time>2022-12-03T19:55:00Z</time>
      </trkpt>
      <trkpt lat="41.212230" lon="-6.558240">
        <ele>649</ele>
        <time>2022-12-03T19:55:11Z</time>
      </trkpt>
      <trkpt lat="41.212250" lon="-6.558010">
        <ele>651</ele>
        <time>2022-12-03T19:55:14Z</time>
      </trkpt>
      <trkpt lat="41.212350" lon="-6.557850">
        <ele>651</ele>
        <time>2022-12-03T19:55:17Z</time>
      </trkpt>
      <trkpt lat="41.213030" lon="-6.557190">
        <ele>648</ele>
        <time>2022-12-03T19:55:32Z</time>
      </trkpt>
      <trkpt lat="41.213120" lon="-6.557000">
        <ele>649</ele>
        <time>2022-12-03T19:55:35Z</time>
      </trkpt>
      <trkpt lat="41.213150" lon="-6.556800">
        <ele>652</ele>
        <time>2022-12-03T19:55:38Z</time>
      </trkpt>
      <trkpt lat="41.213150" lon="-6.556430">
        <ele>656</ele>
        <time>2022-12-03T19:55:43Z</time>
      </trkpt>
      <trkpt lat="41.213010" lon="-6.554750">
        <ele>667</ele>
        <time>2022-12-03T19:56:05Z</time>
      </trkpt>
      <trkpt lat="41.212930" lon="-6.554310">
        <ele>670</ele>
        <time>2022-12-03T19:56:12Z</time>
      </trkpt>
      <trkpt lat="41.212830" lon="-6.553960">
        <ele>673</ele>
        <time>2022-12-03T19:56:17Z</time>
      </trkpt>
      <trkpt lat="41.212700" lon="-6.553630">
        <ele>676</ele>
        <time>2022-12-03T19:56:22Z</time>
      </trkpt>
      <trkpt lat="41.212380" lon="-6.552920">
        <ele>682</ele>
        <time>2022-12-03T19:56:33Z</time>
      </trkpt>
      <trkpt lat="41.212280" lon="-6.552620">
        <ele>684</ele>
        <time>2022-12-03T19:56:37Z</time>
      </trkpt>
      <trkpt lat="41.212240" lon="-6.552400">
        <ele>686</ele>
        <time>2022-12-03T19:56:40Z</time>
      </trkpt>
      <trkpt lat="41.212250" lon="-6.552240">
        <ele>687</ele>
        <time>2022-12-03T19:56:42Z</time>
      </trkpt>
      <trkpt lat="41.212310" lon="-6.551970">
        <ele>688</ele>
        <time>2022-12-03T19:56:46Z</time>
      </trkpt>
      <trkpt lat="41.212400" lon="-6.551710">
        <ele>689</ele>
        <time>2022-12-03T19:56:50Z</time>
      </trkpt>
      <trkpt lat="41.212520" lon="-6.551500">
        <ele>690</ele>
        <time>2022-12-03T19:56:53Z</time>
      </trkpt>
      <trkpt lat="41.212750" lon="-6.551260">
        <ele>690</ele>
        <time>2022-12-03T19:56:59Z</time>
      </trkpt>
      <trkpt lat="41.214060" lon="-6.550050">
        <ele>698</ele>
        <time>2022-12-03T19:57:27Z</time>
      </trkpt>
      <trkpt lat="41.214270" lon="-6.549790">
        <ele>699</ele>
        <time>2022-12-03T19:57:32Z</time>
      </trkpt>
      <trkpt lat="41.214380" lon="-6.549620">
        <ele>700</ele>
        <time>2022-12-03T19:57:35Z</time>
      </trkpt>
      <trkpt lat="41.214530" lon="-6.549290">
        <ele>701</ele>
        <time>2022-12-03T19:57:40Z</time>
      </trkpt>
      <trkpt lat="41.214610" lon="-6.549030">
        <ele>702</ele>
        <time>2022-12-03T19:57:44Z</time>
      </trkpt>
      <trkpt lat="41.214660" lon="-6.548680">
        <ele>703</ele>
        <time>2022-12-03T19:57:49Z</time>
      </trkpt>
      <trkpt lat="41.214680" lon="-6.548410">
        <ele>703</ele>
        <time>2022-12-03T19:57:52Z</time>
      </trkpt>
      <trkpt lat="41.214610" lon="-6.547370">
        <ele>706</ele>
        <time>2022-12-03T19:58:06Z</time>
      </trkpt>
      <trkpt lat="41.214600" lon="-6.546660">
        <ele>709</ele>
        <time>2022-12-03T19:58:16Z</time>
      </trkpt>
      <trkpt lat="41.214630" lon="-6.546400">
        <ele>710</ele>
        <time>2022-12-03T19:58:19Z</time>
      </trkpt>
      <trkpt lat="41.214700" lon="-6.546000">
        <ele>712</ele>
        <time>2022-12-03T19:58:25Z</time>
      </trkpt>
      <trkpt lat="41.214810" lon="-6.545650">
        <ele>713</ele>
        <time>2022-12-03T19:58:30Z</time>
      </trkpt>
      <trkpt lat="41.214880" lon="-6.545500">
        <ele>713</ele>
        <time>2022-12-03T19:58:32Z</time>
      </trkpt>
      <trkpt lat="41.216070" lon="-6.543080">
        <ele>721</ele>
        <time>2022-12-03T19:59:11Z</time>
      </trkpt>
      <trkpt lat="41.216280" lon="-6.542580">
        <ele>721</ele>
        <time>2022-12-03T19:59:19Z</time>
      </trkpt>
      <trkpt lat="41.216400" lon="-6.542120">
        <ele>720</ele>
        <time>2022-12-03T19:59:25Z</time>
      </trkpt>
      <trkpt lat="41.216450" lon="-6.541420">
        <ele>718</ele>
        <time>2022-12-03T19:59:35Z</time>
      </trkpt>
      <trkpt lat="41.216480" lon="-6.541200">
        <ele>716</ele>
        <time>2022-12-03T19:59:38Z</time>
      </trkpt>
      <trkpt lat="41.216540" lon="-6.540970">
        <ele>715</ele>
        <time>2022-12-03T19:59:41Z</time>
      </trkpt>
      <trkpt lat="41.216620" lon="-6.540770">
        <ele>714</ele>
        <time>2022-12-03T19:59:44Z</time>
      </trkpt>
      <trkpt lat="41.216750" lon="-6.540580">
        <ele>714</ele>
        <time>2022-12-03T19:59:47Z</time>
      </trkpt>
      <trkpt lat="41.217270" lon="-6.540060">
        <ele>709</ele>
        <time>2022-12-03T19:59:59Z</time>
      </trkpt>
      <trkpt lat="41.217420" lon="-6.539870">
        <ele>707</ele>
        <time>2022-12-03T20:00:03Z</time>
      </trkpt>
      <trkpt lat="41.217520" lon="-6.539700">
        <ele>706</ele>
        <time>2022-12-03T20:00:05Z</time>
      </trkpt>
      <trkpt lat="41.217590" lon="-6.539540">
        <ele>705</ele>
        <time>2022-12-03T20:00:08Z</time>
      </trkpt>
      <trkpt lat="41.217660" lon="-6.539280">
        <ele>705</ele>
        <time>2022-12-03T20:00:12Z</time>
      </trkpt>
      <trkpt lat="41.217780" lon="-6.538460">
        <ele>701</ele>
        <time>2022-12-03T20:00:23Z</time>
      </trkpt>
      <trkpt lat="41.218100" lon="-6.536040">
        <ele>688</ele>
        <time>2022-12-03T20:00:56Z</time>
      </trkpt>
      <trkpt lat="41.218180" lon="-6.535670">
        <ele>686</ele>
        <time>2022-12-03T20:01:01Z</time>
      </trkpt>
      <trkpt lat="41.218300" lon="-6.535350">
        <ele>685</ele>
        <time>2022-12-03T20:01:06Z</time>
      </trkpt>
      <trkpt lat="41.218440" lon="-6.535060">
        <ele>684</ele>
        <time>2022-12-03T20:01:10Z</time>
      </trkpt>
      <trkpt lat="41.219050" lon="-6.534040">
        <ele>679</ele>
        <time>2022-12-03T20:01:28Z</time>
      </trkpt>
      <trkpt lat="41.220040" lon="-6.531990">
        <ele>670</ele>
        <time>2022-12-03T20:02:00Z</time>
      </trkpt>
      <trkpt lat="41.220150" lon="-6.531810">
        <ele>670</ele>
        <time>2022-12-03T20:02:03Z</time>
      </trkpt>
      <trkpt lat="41.220340" lon="-6.531570">
        <ele>671</ele>
        <time>2022-12-03T20:02:08Z</time>
      </trkpt>
      <trkpt lat="41.220700" lon="-6.531340">
        <ele>672</ele>
        <time>2022-12-03T20:02:15Z</time>
      </trkpt>
      <trkpt lat="41.220860" lon="-6.531270">
        <ele>672</ele>
        <time>2022-12-03T20:02:18Z</time>
      </trkpt>
      <trkpt lat="41.221340" lon="-6.531160">
        <ele>668</ele>
        <time>2022-12-03T20:02:27Z</time>
      </trkpt>
      <trkpt lat="41.221560" lon="-6.531080">
        <ele>667</ele>
        <time>2022-12-03T20:02:31Z</time>
      </trkpt>
      <trkpt lat="41.221780" lon="-6.530960">
        <ele>666</ele>
        <time>2022-12-03T20:02:35Z</time>
      </trkpt>
      <trkpt lat="41.222010" lon="-6.530770">
        <ele>667</ele>
        <time>2022-12-03T20:02:40Z</time>
      </trkpt>
      <trkpt lat="41.222220" lon="-6.530540">
        <ele>667</ele>
        <time>2022-12-03T20:02:45Z</time>
      </trkpt>
      <trkpt lat="41.222290" lon="-6.530440">
        <ele>667</ele>
        <time>2022-12-03T20:02:47Z</time>
      </trkpt>
      <trkpt lat="41.223220" lon="-6.528720">
        <ele>659</ele>
        <time>2022-12-03T20:03:15Z</time>
      </trkpt>
      <trkpt lat="41.223400" lon="-6.528500">
        <ele>658</ele>
        <time>2022-12-03T20:03:19Z</time>
      </trkpt>
      <trkpt lat="41.223640" lon="-6.528300">
        <ele>656</ele>
        <time>2022-12-03T20:03:24Z</time>
      </trkpt>
      <trkpt lat="41.223830" lon="-6.528180">
        <ele>656</ele>
        <time>2022-12-03T20:03:28Z</time>
      </trkpt>
      <trkpt lat="41.224460" lon="-6.527930">
        <ele>654</ele>
        <time>2022-12-03T20:03:40Z</time>
      </trkpt>
      <trkpt lat="41.224760" lon="-6.527390">
        <ele>658</ele>
        <time>2022-12-03T20:03:49Z</time>
      </trkpt>
      <trkpt lat="41.224990" lon="-6.527190">
        <ele>658</ele>
        <time>2022-12-03T20:03:54Z</time>
      </trkpt>
      <trkpt lat="41.226310" lon="-6.526920">
        <ele>663</ele>
        <time>2022-12-03T20:04:17Z</time>
      </trkpt>
      <trkpt lat="41.226490" lon="-6.526920">
        <ele>663</ele>
        <time>2022-12-03T20:04:21Z</time>
      </trkpt>
      <trkpt lat="41.226570" lon="-6.527000">
        <ele>663</ele>
        <time>2022-12-03T20:04:22Z</time>
      </trkpt>
      <trkpt lat="41.227000" lon="-6.526790">
        <ele>662</ele>
        <time>2022-12-03T20:04:31Z</time>
      </trkpt>
      <trkpt lat="41.228100" lon="-6.526240">
        <ele>659</ele>
        <time>2022-12-03T20:04:51Z</time>
      </trkpt>
      <trkpt lat="41.228250" lon="-6.526150">
        <ele>658</ele>
        <time>2022-12-03T20:04:54Z</time>
      </trkpt>
      <trkpt lat="41.228520" lon="-6.525880">
        <ele>658</ele>
        <time>2022-12-03T20:05:00Z</time>
      </trkpt>
      <trkpt lat="41.228640" lon="-6.525740">
        <ele>658</ele>
        <time>2022-12-03T20:05:03Z</time>
      </trkpt>
      <trkpt lat="41.229150" lon="-6.524840">
        <ele>662</ele>
        <time>2022-12-03T20:05:18Z</time>
      </trkpt>
      <trkpt lat="41.229290" lon="-6.524700">
        <ele>662</ele>
        <time>2022-12-03T20:05:21Z</time>
      </trkpt>
      <trkpt lat="41.231240" lon="-6.523560">
        <ele>660</ele>
        <time>2022-12-03T20:05:59Z</time>
      </trkpt>
      <trkpt lat="41.231720" lon="-6.523240">
        <ele>661</ele>
        <time>2022-12-03T20:06:09Z</time>
      </trkpt>
      <trkpt lat="41.232850" lon="-6.522380">
        <ele>665</ele>
        <time>2022-12-03T20:06:32Z</time>
      </trkpt>
      <trkpt lat="41.234050" lon="-6.521280">
        <ele>669</ele>
        <time>2022-12-03T20:06:58Z</time>
      </trkpt>
      <trkpt lat="41.234320" lon="-6.521010">
        <ele>671</ele>
        <time>2022-12-03T20:07:04Z</time>
      </trkpt>
      <trkpt lat="41.236300" lon="-6.518970">
        <ele>681</ele>
        <time>2022-12-03T20:07:49Z</time>
      </trkpt>
      <trkpt lat="41.236720" lon="-6.518510">
        <ele>685</ele>
        <time>2022-12-03T20:07:58Z</time>
      </trkpt>
      <trkpt lat="41.236910" lon="-6.518270">
        <ele>686</ele>
        <time>2022-12-03T20:08:03Z</time>
      </trkpt>
      <trkpt lat="41.237310" lon="-6.517550">
        <ele>686</ele>
        <time>2022-12-03T20:08:15Z</time>
      </trkpt>
      <trkpt lat="41.238200" lon="-6.515720">
        <ele>695</ele>
        <time>2022-12-03T20:08:44Z</time>
      </trkpt>
      <trkpt lat="41.238640" lon="-6.515000">
        <ele>697</ele>
        <time>2022-12-03T20:08:56Z</time>
      </trkpt>
      <trkpt lat="41.242090" lon="-6.510410">
        <ele>714</ele>
        <time>2022-12-03T20:10:23Z</time>
      </trkpt>
      <trkpt lat="41.242700" lon="-6.509520">
        <ele>719</ele>
        <time>2022-12-03T20:10:39Z</time>
      </trkpt>
      <trkpt lat="41.243210" lon="-6.508690">
        <ele>723</ele>
        <time>2022-12-03T20:10:54Z</time>
      </trkpt>
      <trkpt lat="41.243450" lon="-6.508180">
        <ele>724</ele>
        <time>2022-12-03T20:11:02Z</time>
      </trkpt>
      <trkpt lat="41.243660" lon="-6.507610">
        <ele>727</ele>
        <time>2022-12-03T20:11:10Z</time>
      </trkpt>
      <trkpt lat="41.244420" lon="-6.504970">
        <ele>736</ele>
        <time>2022-12-03T20:11:48Z</time>
      </trkpt>
      <trkpt lat="41.245030" lon="-6.502920">
        <ele>740</ele>
        <time>2022-12-03T20:12:18Z</time>
      </trkpt>
      <trkpt lat="41.245180" lon="-6.502480">
        <ele>740</ele>
        <time>2022-12-03T20:12:24Z</time>
      </trkpt>
      <trkpt lat="41.245450" lon="-6.501940">
        <ele>743</ele>
        <time>2022-12-03T20:12:33Z</time>
      </trkpt>
      <trkpt lat="41.245790" lon="-6.501370">
        <ele>742</ele>
        <time>2022-12-03T20:12:42Z</time>
      </trkpt>
      <trkpt lat="41.246660" lon="-6.500020">
        <ele>738</ele>
        <time>2022-12-03T20:13:06Z</time>
      </trkpt>
      <trkpt lat="41.246840" lon="-6.499700">
        <ele>738</ele>
        <time>2022-12-03T20:13:12Z</time>
      </trkpt>
      <trkpt lat="41.247000" lon="-6.499350">
        <ele>736</ele>
        <time>2022-12-03T20:13:17Z</time>
      </trkpt>
      <trkpt lat="41.247160" lon="-6.498810">
        <ele>733</ele>
        <time>2022-12-03T20:13:25Z</time>
      </trkpt>
      <trkpt lat="41.247300" lon="-6.497710">
        <ele>729</ele>
        <time>2022-12-03T20:13:40Z</time>
      </trkpt>
      <trkpt lat="41.247430" lon="-6.496950">
        <ele>728</ele>
        <time>2022-12-03T20:13:50Z</time>
      </trkpt>
      <trkpt lat="41.247530" lon="-6.496580">
        <ele>728</ele>
        <time>2022-12-03T20:13:55Z</time>
      </trkpt>
      <trkpt lat="41.247670" lon="-6.496150">
        <ele>726</ele>
        <time>2022-12-03T20:14:02Z</time>
      </trkpt>
      <trkpt lat="41.247930" lon="-6.495600">
        <ele>726</ele>
        <time>2022-12-03T20:14:10Z</time>
      </trkpt>
      <trkpt lat="41.248160" lon="-6.495210">
        <ele>727</ele>
        <time>2022-12-03T20:14:17Z</time>
      </trkpt>
      <trkpt lat="41.248480" lon="-6.494780">
        <ele>728</ele>
        <time>2022-12-03T20:14:25Z</time>
      </trkpt>
      <trkpt lat="41.248770" lon="-6.494470">
        <ele>730</ele>
        <time>2022-12-03T20:14:32Z</time>
      </trkpt>
      <trkpt lat="41.249140" lon="-6.494160">
        <ele>731</ele>
        <time>2022-12-03T20:14:40Z</time>
      </trkpt>
      <trkpt lat="41.249750" lon="-6.493680">
        <ele>733</ele>
        <time>2022-12-03T20:14:52Z</time>
      </trkpt>
      <trkpt lat="41.250630" lon="-6.492880">
        <ele>734</ele>
        <time>2022-12-03T20:15:11Z</time>
      </trkpt>
      <trkpt lat="41.252080" lon="-6.491390">
        <ele>731</ele>
        <time>2022-12-03T20:15:44Z</time>
      </trkpt>
      <trkpt lat="41.252300" lon="-6.491130">
        <ele>731</ele>
        <time>2022-12-03T20:15:49Z</time>
      </trkpt>
      <trkpt lat="41.252550" lon="-6.490810">
        <ele>731</ele>
        <time>2022-12-03T20:15:55Z</time>
      </trkpt>
      <trkpt lat="41.252800" lon="-6.490420">
        <ele>729</ele>
        <time>2022-12-03T20:16:02Z</time>
      </trkpt>
      <trkpt lat="41.253120" lon="-6.489790">
        <ele>728</ele>
        <time>2022-12-03T20:16:12Z</time>
      </trkpt>
      <trkpt lat="41.253240" lon="-6.489500">
        <ele>728</ele>
        <time>2022-12-03T20:16:17Z</time>
      </trkpt>
      <trkpt lat="41.254110" lon="-6.487140">
        <ele>729</ele>
        <time>2022-12-03T20:16:52Z</time>
      </trkpt>
      <trkpt lat="41.254420" lon="-6.486110">
        <ele>725</ele>
        <time>2022-12-03T20:17:07Z</time>
      </trkpt>
      <trkpt lat="41.254990" lon="-6.483300">
        <ele>713</ele>
        <time>2022-12-03T20:17:46Z</time>
      </trkpt>
      <trkpt lat="41.255180" lon="-6.482730">
        <ele>710</ele>
        <time>2022-12-03T20:17:54Z</time>
      </trkpt>
      <trkpt lat="41.255450" lon="-6.482180">
        <ele>708</ele>
        <time>2022-12-03T20:18:03Z</time>
      </trkpt>
      <trkpt lat="41.256190" lon="-6.481020">
        <ele>704</ele>
        <time>2022-12-03T20:18:23Z</time>
      </trkpt>
      <trkpt lat="41.256400" lon="-6.480650">
        <ele>701</ele>
        <time>2022-12-03T20:18:29Z</time>
      </trkpt>
      <trkpt lat="41.256620" lon="-6.480190">
        <ele>697</ele>
        <time>2022-12-03T20:18:36Z</time>
      </trkpt>
      <trkpt lat="41.257840" lon="-6.476400">
        <ele>688</ele>
        <time>2022-12-03T20:19:32Z</time>
      </trkpt>
      <trkpt lat="41.257990" lon="-6.475750">
        <ele>687</ele>
        <time>2022-12-03T20:19:41Z</time>
      </trkpt>
      <trkpt lat="41.258090" lon="-6.475690">
        <ele>686</ele>
        <time>2022-12-03T20:19:43Z</time>
      </trkpt>
      <trkpt lat="41.258170" lon="-6.475560">
        <ele>685</ele>
        <time>2022-12-03T20:19:45Z</time>
      </trkpt>
      <trkpt lat="41.258460" lon="-6.474970">
        <ele>681</ele>
        <time>2022-12-03T20:19:54Z</time>
      </trkpt>
      <trkpt lat="41.258820" lon="-6.474200">
        <ele>676</ele>
        <time>2022-12-03T20:20:06Z</time>
      </trkpt>
      <trkpt lat="41.259510" lon="-6.473870">
        <ele>666</ele>
        <time>2022-12-03T20:20:20Z</time>
      </trkpt>
      <trkpt lat="41.259630" lon="-6.473720">
        <ele>665</ele>
        <time>2022-12-03T20:20:22Z</time>
      </trkpt>
      <trkpt lat="41.259670" lon="-6.473480">
        <ele>664</ele>
        <time>2022-12-03T20:20:26Z</time>
      </trkpt>
      <trkpt lat="41.259440" lon="-6.472320">
        <ele>663</ele>
        <time>2022-12-03T20:20:42Z</time>
      </trkpt>
      <trkpt lat="41.259450" lon="-6.472110">
        <ele>663</ele>
        <time>2022-12-03T20:20:45Z</time>
      </trkpt>
      <trkpt lat="41.259700" lon="-6.471970">
        <ele>661</ele>
        <time>2022-12-03T20:20:49Z</time>
      </trkpt>
      <trkpt lat="41.260020" lon="-6.471840">
        <ele>657</ele>
        <time>2022-12-03T20:20:55Z</time>
      </trkpt>
      <trkpt lat="41.260290" lon="-6.471760">
        <ele>655</ele>
        <time>2022-12-03T20:21:00Z</time>
      </trkpt>
      <trkpt lat="41.261660" lon="-6.471580">
        <ele>645</ele>
        <time>2022-12-03T20:21:25Z</time>
      </trkpt>
      <trkpt lat="41.262020" lon="-6.471590">
        <ele>645</ele>
        <time>2022-12-03T20:21:31Z</time>
      </trkpt>
      <trkpt lat="41.263200" lon="-6.471830">
        <ele>641</ele>
        <time>2022-12-03T20:21:52Z</time>
      </trkpt>
      <trkpt lat="41.263440" lon="-6.471830">
        <ele>641</ele>
        <time>2022-12-03T20:21:57Z</time>
      </trkpt>
      <trkpt lat="41.263770" lon="-6.471750">
        <ele>640</ele>
        <time>2022-12-03T20:22:03Z</time>
      </trkpt>
      <trkpt lat="41.264140" lon="-6.471590">
        <ele>639</ele>
        <time>2022-12-03T20:22:10Z</time>
      </trkpt>
      <trkpt lat="41.264210" lon="-6.471540">
        <ele>639</ele>
        <time>2022-12-03T20:22:11Z</time>
      </trkpt>
      <trkpt lat="41.264350" lon="-6.471360">
        <ele>638</ele>
        <time>2022-12-03T20:22:14Z</time>
      </trkpt>
      <trkpt lat="41.264550" lon="-6.470950">
        <ele>638</ele>
        <time>2022-12-03T20:22:21Z</time>
      </trkpt>
      <trkpt lat="41.265560" lon="-6.468360">
        <ele>633</ele>
        <time>2022-12-03T20:23:00Z</time>
      </trkpt>
      <trkpt lat="41.265630" lon="-6.468220">
        <ele>633</ele>
        <time>2022-12-03T20:23:02Z</time>
      </trkpt>
      <trkpt lat="41.265930" lon="-6.467950">
        <ele>633</ele>
        <time>2022-12-03T20:23:09Z</time>
      </trkpt>
      <trkpt lat="41.266100" lon="-6.467750">
        <ele>633</ele>
        <time>2022-12-03T20:23:13Z</time>
      </trkpt>
      <trkpt lat="41.266870" lon="-6.467080">
        <ele>629</ele>
        <time>2022-12-03T20:23:29Z</time>
      </trkpt>
      <trkpt lat="41.267100" lon="-6.466910">
        <ele>627</ele>
        <time>2022-12-03T20:23:34Z</time>
      </trkpt>
      <trkpt lat="41.267200" lon="-6.466880">
        <ele>627</ele>
        <time>2022-12-03T20:23:36Z</time>
      </trkpt>
      <trkpt lat="41.267500" lon="-6.466870">
        <ele>624</ele>
        <time>2022-12-03T20:23:41Z</time>
      </trkpt>
      <trkpt lat="41.267630" lon="-6.466840">
        <ele>623</ele>
        <time>2022-12-03T20:23:43Z</time>
      </trkpt>
      <trkpt lat="41.267830" lon="-6.466650">
        <ele>623</ele>
        <time>2022-12-03T20:23:48Z</time>
      </trkpt>
      <trkpt lat="41.267950" lon="-6.466410">
        <ele>623</ele>
        <time>2022-12-03T20:23:52Z</time>
      </trkpt>
      <trkpt lat="41.268160" lon="-6.465710">
        <ele>625</ele>
        <time>2022-12-03T20:24:02Z</time>
      </trkpt>
      <trkpt lat="41.268320" lon="-6.465250">
        <ele>626</ele>
        <time>2022-12-03T20:24:08Z</time>
      </trkpt>
      <trkpt lat="41.268380" lon="-6.465120">
        <ele>626</ele>
        <time>2022-12-03T20:24:10Z</time>
      </trkpt>
      <trkpt lat="41.268470" lon="-6.465070">
        <ele>626</ele>
        <time>2022-12-03T20:24:12Z</time>
      </trkpt>
      <trkpt lat="41.268670" lon="-6.465050">
        <ele>626</ele>
        <time>2022-12-03T20:24:16Z</time>
      </trkpt>
      <trkpt lat="41.268770" lon="-6.464990">
        <ele>625</ele>
        <time>2022-12-03T20:24:18Z</time>
      </trkpt>
      <trkpt lat="41.268810" lon="-6.464840">
        <ele>625</ele>
        <time>2022-12-03T20:24:20Z</time>
      </trkpt>
      <trkpt lat="41.268820" lon="-6.464680">
        <ele>625</ele>
        <time>2022-12-03T20:24:22Z</time>
      </trkpt>
      <trkpt lat="41.268820" lon="-6.464480">
        <ele>625</ele>
        <time>2022-12-03T20:24:25Z</time>
      </trkpt>
      <trkpt lat="41.268450" lon="-6.460790">
        <ele>641</ele>
        <time>2022-12-03T20:25:14Z</time>
      </trkpt>
      <trkpt lat="41.268290" lon="-6.459660">
        <ele>646</ele>
        <time>2022-12-03T20:25:30Z</time>
      </trkpt>
      <trkpt lat="41.268200" lon="-6.459190">
        <ele>647</ele>
        <time>2022-12-03T20:25:36Z</time>
      </trkpt>
      <trkpt lat="41.267880" lon="-6.457910">
        <ele>653</ele>
        <time>2022-12-03T20:25:54Z</time>
      </trkpt>
      <trkpt lat="41.266940" lon="-6.454610">
        <ele>653</ele>
        <time>2022-12-03T20:26:42Z</time>
      </trkpt>
      <trkpt lat="41.266450" lon="-6.453120">
        <ele>656</ele>
        <time>2022-12-03T20:27:03Z</time>
      </trkpt>
      <trkpt lat="41.266040" lon="-6.452000">
        <ele>655</ele>
        <time>2022-12-03T20:27:20Z</time>
      </trkpt>
      <trkpt lat="41.265950" lon="-6.451790">
        <ele>654</ele>
        <time>2022-12-03T20:27:23Z</time>
      </trkpt>
      <trkpt lat="41.265770" lon="-6.451510">
        <ele>652</ele>
        <time>2022-12-03T20:27:28Z</time>
      </trkpt>
      <trkpt lat="41.265570" lon="-6.451320">
        <ele>650</ele>
        <time>2022-12-03T20:27:33Z</time>
      </trkpt>
      <trkpt lat="41.265310" lon="-6.451170">
        <ele>649</ele>
        <time>2022-12-03T20:27:38Z</time>
      </trkpt>
      <trkpt lat="41.265050" lon="-6.451110">
        <ele>648</ele>
        <time>2022-12-03T20:27:42Z</time>
      </trkpt>
      <trkpt lat="41.264580" lon="-6.451060">
        <ele>648</ele>
        <time>2022-12-03T20:27:51Z</time>
      </trkpt>
      <trkpt lat="41.264360" lon="-6.450970">
        <ele>648</ele>
        <time>2022-12-03T20:27:55Z</time>
      </trkpt>
      <trkpt lat="41.264180" lon="-6.450810">
        <ele>647</ele>
        <time>2022-12-03T20:27:59Z</time>
      </trkpt>
      <trkpt lat="41.264100" lon="-6.450630">
        <ele>648</ele>
        <time>2022-12-03T20:28:01Z</time>
      </trkpt>
      <trkpt lat="41.264040" lon="-6.450470">
        <ele>649</ele>
        <time>2022-12-03T20:28:04Z</time>
      </trkpt>
      <trkpt lat="41.264000" lon="-6.450180">
        <ele>650</ele>
        <time>2022-12-03T20:28:08Z</time>
      </trkpt>
      <trkpt lat="41.263960" lon="-6.449070">
        <ele>658</ele>
        <time>2022-12-03T20:28:23Z</time>
      </trkpt>
      <trkpt lat="41.263930" lon="-6.447510">
        <ele>666</ele>
        <time>2022-12-03T20:28:43Z</time>
      </trkpt>
      <trkpt lat="41.263940" lon="-6.447210">
        <ele>667</ele>
        <time>2022-12-03T20:28:47Z</time>
      </trkpt>
      <trkpt lat="41.263990" lon="-6.446840">
        <ele>667</ele>
        <time>2022-12-03T20:28:52Z</time>
      </trkpt>
      <trkpt lat="41.264300" lon="-6.445160">
        <ele>672</ele>
        <time>2022-12-03T20:29:16Z</time>
      </trkpt>
      <trkpt lat="41.264340" lon="-6.444700">
        <ele>674</ele>
        <time>2022-12-03T20:29:22Z</time>
      </trkpt>
      <trkpt lat="41.264340" lon="-6.444250">
        <ele>676</ele>
        <time>2022-12-03T20:29:28Z</time>
      </trkpt>
      <trkpt lat="41.264230" lon="-6.442570">
        <ele>683</ele>
        <time>2022-12-03T20:29:50Z</time>
      </trkpt>
      <trkpt lat="41.264180" lon="-6.442240">
        <ele>684</ele>
        <time>2022-12-03T20:29:55Z</time>
      </trkpt>
      <trkpt lat="41.264130" lon="-6.441990">
        <ele>685</ele>
        <time>2022-12-03T20:29:58Z</time>
      </trkpt>
      <trkpt lat="41.264020" lon="-6.441660">
        <ele>687</ele>
        <time>2022-12-03T20:30:03Z</time>
      </trkpt>
      <trkpt lat="41.263780" lon="-6.441110">
        <ele>686</ele>
        <time>2022-12-03T20:30:12Z</time>
      </trkpt>
      <trkpt lat="41.263630" lon="-6.440640">
        <ele>685</ele>
        <time>2022-12-03T20:30:19Z</time>
      </trkpt>
      <trkpt lat="41.263570" lon="-6.440300">
        <ele>684</ele>
        <time>2022-12-03T20:30:23Z</time>
      </trkpt>
      <trkpt lat="41.263560" lon="-6.440080">
        <ele>683</ele>
        <time>2022-12-03T20:30:26Z</time>
      </trkpt>
      <trkpt lat="41.263590" lon="-6.436900">
        <ele>674</ele>
        <time>2022-12-03T20:31:09Z</time>
      </trkpt>
      <trkpt lat="41.263560" lon="-6.436520">
        <ele>672</ele>
        <time>2022-12-03T20:31:14Z</time>
      </trkpt>
      <trkpt lat="41.263510" lon="-6.436170">
        <ele>671</ele>
        <time>2022-12-03T20:31:19Z</time>
      </trkpt>
      <trkpt lat="41.263430" lon="-6.435830">
        <ele>669</ele>
        <time>2022-12-03T20:31:23Z</time>
      </trkpt>
      <trkpt lat="41.263340" lon="-6.435530">
        <ele>668</ele>
        <time>2022-12-03T20:31:28Z</time>
      </trkpt>
      <trkpt lat="41.263240" lon="-6.435270">
        <ele>667</ele>
        <time>2022-12-03T20:31:32Z</time>
      </trkpt>
      <trkpt lat="41.263030" lon="-6.434830">
        <ele>667</ele>
        <time>2022-12-03T20:31:39Z</time>
      </trkpt>
      <trkpt lat="41.262340" lon="-6.433720">
        <ele>674</ele>
        <time>2022-12-03T20:31:58Z</time>
      </trkpt>
      <trkpt lat="41.262170" lon="-6.433370">
        <ele>677</ele>
        <time>2022-12-03T20:32:03Z</time>
      </trkpt>
      <trkpt lat="41.262060" lon="-6.433030">
        <ele>681</ele>
        <time>2022-12-03T20:32:08Z</time>
      </trkpt>
      <trkpt lat="41.262030" lon="-6.432860">
        <ele>683</ele>
        <time>2022-12-03T20:32:11Z</time>
      </trkpt>
      <trkpt lat="41.261990" lon="-6.432430">
        <ele>687</ele>
        <time>2022-12-03T20:32:16Z</time>
      </trkpt>
      <trkpt lat="41.262010" lon="-6.431940">
        <ele>691</ele>
        <time>2022-12-03T20:32:23Z</time>
      </trkpt>
      <trkpt lat="41.262160" lon="-6.430240">
        <ele>701</ele>
        <time>2022-12-03T20:32:46Z</time>
      </trkpt>
      <trkpt lat="41.262260" lon="-6.429600">
        <ele>706</ele>
        <time>2022-12-03T20:32:55Z</time>
      </trkpt>
      <trkpt lat="41.262410" lon="-6.429080">
        <ele>708</ele>
        <time>2022-12-03T20:33:02Z</time>
      </trkpt>
      <trkpt lat="41.262530" lon="-6.428770">
        <ele>709</ele>
        <time>2022-12-03T20:33:07Z</time>
      </trkpt>
      <trkpt lat="41.262990" lon="-6.427790">
        <ele>714</ele>
        <time>2022-12-03T20:33:22Z</time>
      </trkpt>
      <trkpt lat="41.263130" lon="-6.427430">
        <ele>715</ele>
        <time>2022-12-03T20:33:28Z</time>
      </trkpt>
      <trkpt lat="41.263170" lon="-6.427260">
        <ele>715</ele>
        <time>2022-12-03T20:33:30Z</time>
      </trkpt>
      <trkpt lat="41.263190" lon="-6.427110">
        <ele>715</ele>
        <time>2022-12-03T20:33:32Z</time>
      </trkpt>
      <trkpt lat="41.263150" lon="-6.426840">
        <ele>716</ele>
        <time>2022-12-03T20:33:36Z</time>
      </trkpt>
      <trkpt lat="41.263110" lon="-6.426720">
        <ele>717</ele>
        <time>2022-12-03T20:33:37Z</time>
      </trkpt>
      <trkpt lat="41.263030" lon="-6.426580">
        <ele>718</ele>
        <time>2022-12-03T20:33:40Z</time>
      </trkpt>
      <trkpt lat="41.262880" lon="-6.426420">
        <ele>719</ele>
        <time>2022-12-03T20:33:43Z</time>
      </trkpt>
      <trkpt lat="41.262680" lon="-6.426250">
        <ele>721</ele>
        <time>2022-12-03T20:33:47Z</time>
      </trkpt>
      <trkpt lat="41.262390" lon="-6.426040">
        <ele>722</ele>
        <time>2022-12-03T20:33:53Z</time>
      </trkpt>
      <trkpt lat="41.262190" lon="-6.425930">
        <ele>721</ele>
        <time>2022-12-03T20:33:57Z</time>
      </trkpt>
      <trkpt lat="41.261910" lon="-6.425850">
        <ele>719</ele>
        <time>2022-12-03T20:34:02Z</time>
      </trkpt>
      <trkpt lat="41.261470" lon="-6.425780">
        <ele>717</ele>
        <time>2022-12-03T20:34:10Z</time>
      </trkpt>
      <trkpt lat="41.261210" lon="-6.425710">
        <ele>716</ele>
        <time>2022-12-03T20:34:15Z</time>
      </trkpt>
      <trkpt lat="41.260730" lon="-6.425560">
        <ele>714</ele>
        <time>2022-12-03T20:34:24Z</time>
      </trkpt>
      <trkpt lat="41.259790" lon="-6.425150">
        <ele>715</ele>
        <time>2022-12-03T20:34:41Z</time>
      </trkpt>
      <trkpt lat="41.259590" lon="-6.425030">
        <ele>715</ele>
        <time>2022-12-03T20:34:45Z</time>
      </trkpt>
      <trkpt lat="41.259420" lon="-6.424910">
        <ele>715</ele>
        <time>2022-12-03T20:34:49Z</time>
      </trkpt>
      <trkpt lat="41.259300" lon="-6.424780">
        <ele>715</ele>
        <time>2022-12-03T20:34:51Z</time>
      </trkpt>
      <trkpt lat="41.258840" lon="-6.424110">
        <ele>713</ele>
        <time>2022-12-03T20:35:03Z</time>
      </trkpt>
      <trkpt lat="41.258690" lon="-6.423920">
        <ele>713</ele>
        <time>2022-12-03T20:35:07Z</time>
      </trkpt>
      <trkpt lat="41.258340" lon="-6.423520">
        <ele>713</ele>
        <time>2022-12-03T20:35:15Z</time>
      </trkpt>
      <trkpt lat="41.257850" lon="-6.423080">
        <ele>711</ele>
        <time>2022-12-03T20:35:26Z</time>
      </trkpt>
      <trkpt lat="41.257640" lon="-6.422790">
        <ele>709</ele>
        <time>2022-12-03T20:35:31Z</time>
      </trkpt>
      <trkpt lat="41.257280" lon="-6.421910">
        <ele>704</ele>
        <time>2022-12-03T20:35:45Z</time>
      </trkpt>
      <trkpt lat="41.256920" lon="-6.420900">
        <ele>698</ele>
        <time>2022-12-03T20:36:00Z</time>
      </trkpt>
      <trkpt lat="41.256870" lon="-6.420610">
        <ele>698</ele>
        <time>2022-12-03T20:36:04Z</time>
      </trkpt>
      <trkpt lat="41.256860" lon="-6.420270">
        <ele>698</ele>
        <time>2022-12-03T20:36:08Z</time>
      </trkpt>
      <trkpt lat="41.256930" lon="-6.419910">
        <ele>699</ele>
        <time>2022-12-03T20:36:13Z</time>
      </trkpt>
      <trkpt lat="41.257200" lon="-6.419060">
        <ele>699</ele>
        <time>2022-12-03T20:36:25Z</time>
      </trkpt>
      <trkpt lat="41.257240" lon="-6.418890">
        <ele>699</ele>
        <time>2022-12-03T20:36:28Z</time>
      </trkpt>
      <trkpt lat="41.257250" lon="-6.418470">
        <ele>701</ele>
        <time>2022-12-03T20:36:33Z</time>
      </trkpt>
      <trkpt lat="41.257180" lon="-6.418180">
        <ele>702</ele>
        <time>2022-12-03T20:36:38Z</time>
      </trkpt>
      <trkpt lat="41.257030" lon="-6.417890">
        <ele>702</ele>
        <time>2022-12-03T20:36:42Z</time>
      </trkpt>
      <trkpt lat="41.255810" lon="-6.416140">
        <ele>705</ele>
        <time>2022-12-03T20:37:14Z</time>
      </trkpt>
      <trkpt lat="41.255590" lon="-6.415770">
        <ele>705</ele>
        <time>2022-12-03T20:37:21Z</time>
      </trkpt>
      <trkpt lat="41.255210" lon="-6.414740">
        <ele>706</ele>
        <time>2022-12-03T20:37:36Z</time>
      </trkpt>
      <trkpt lat="41.255110" lon="-6.414510">
        <ele>706</ele>
        <time>2022-12-03T20:37:39Z</time>
      </trkpt>
      <trkpt lat="41.255010" lon="-6.414330">
        <ele>706</ele>
        <time>2022-12-03T20:37:42Z</time>
      </trkpt>
      <trkpt lat="41.254550" lon="-6.413630">
        <ele>706</ele>
        <time>2022-12-03T20:37:55Z</time>
      </trkpt>
      <trkpt lat="41.253600" lon="-6.411960">
        <ele>707</ele>
        <time>2022-12-03T20:38:23Z</time>
      </trkpt>
      <trkpt lat="41.253370" lon="-6.411620">
        <ele>706</ele>
        <time>2022-12-03T20:38:29Z</time>
      </trkpt>
      <trkpt lat="41.253150" lon="-6.411330">
        <ele>705</ele>
        <time>2022-12-03T20:38:34Z</time>
      </trkpt>
      <trkpt lat="41.252830" lon="-6.410950">
        <ele>705</ele>
        <time>2022-12-03T20:38:42Z</time>
      </trkpt>
      <trkpt lat="41.251000" lon="-6.409330">
        <ele>710</ele>
        <time>2022-12-03T20:39:21Z</time>
      </trkpt>
      <trkpt lat="41.250790" lon="-6.409070">
        <ele>710</ele>
        <time>2022-12-03T20:39:26Z</time>
      </trkpt>
      <trkpt lat="41.249900" lon="-6.407580">
        <ele>706</ele>
        <time>2022-12-03T20:39:52Z</time>
      </trkpt>
      <trkpt lat="41.249670" lon="-6.407240">
        <ele>705</ele>
        <time>2022-12-03T20:39:58Z</time>
      </trkpt>
      <trkpt lat="41.249550" lon="-6.407120">
        <ele>705</ele>
        <time>2022-12-03T20:40:01Z</time>
      </trkpt>
      <trkpt lat="41.249390" lon="-6.407000">
        <ele>706</ele>
        <time>2022-12-03T20:40:04Z</time>
      </trkpt>
      <trkpt lat="41.248790" lon="-6.406690">
        <ele>707</ele>
        <time>2022-12-03T20:40:15Z</time>
      </trkpt>
      <trkpt lat="41.248540" lon="-6.406530">
        <ele>707</ele>
        <time>2022-12-03T20:40:20Z</time>
      </trkpt>
      <trkpt lat="41.246360" lon="-6.404970">
        <ele>706</ele>
        <time>2022-12-03T20:41:04Z</time>
      </trkpt>
      <trkpt lat="41.246170" lon="-6.404810">
        <ele>707</ele>
        <time>2022-12-03T20:41:08Z</time>
      </trkpt>
      <trkpt lat="41.246080" lon="-6.404710">
        <ele>707</ele>
        <time>2022-12-03T20:41:10Z</time>
      </trkpt>
      <trkpt lat="41.245930" lon="-6.404480">
        <ele>708</ele>
        <time>2022-12-03T20:41:14Z</time>
      </trkpt>
      <trkpt lat="41.245830" lon="-6.404270">
        <ele>708</ele>
        <time>2022-12-03T20:41:18Z</time>
      </trkpt>
      <trkpt lat="41.245570" lon="-6.403590">
        <ele>710</ele>
        <time>2022-12-03T20:41:28Z</time>
      </trkpt>
      <trkpt lat="41.245480" lon="-6.403430">
        <ele>710</ele>
        <time>2022-12-03T20:41:31Z</time>
      </trkpt>
      <trkpt lat="41.245340" lon="-6.403230">
        <ele>711</ele>
        <time>2022-12-03T20:41:34Z</time>
      </trkpt>
      <trkpt lat="41.243710" lon="-6.401490">
        <ele>717</ele>
        <time>2022-12-03T20:42:11Z</time>
      </trkpt>
      <trkpt lat="41.243480" lon="-6.401200">
        <ele>718</ele>
        <time>2022-12-03T20:42:17Z</time>
      </trkpt>
      <trkpt lat="41.243280" lon="-6.400910">
        <ele>718</ele>
        <time>2022-12-03T20:42:22Z</time>
      </trkpt>
      <trkpt lat="41.242970" lon="-6.400400">
        <ele>718</ele>
        <time>2022-12-03T20:42:31Z</time>
      </trkpt>
      <trkpt lat="41.241940" lon="-6.398260">
        <ele>719</ele>
        <time>2022-12-03T20:43:05Z</time>
      </trkpt>
      <trkpt lat="41.241790" lon="-6.397970">
        <ele>719</ele>
        <time>2022-12-03T20:43:10Z</time>
      </trkpt>
      <trkpt lat="41.241520" lon="-6.397520">
        <ele>719</ele>
        <time>2022-12-03T20:43:18Z</time>
      </trkpt>
      <trkpt lat="41.241310" lon="-6.397230">
        <ele>719</ele>
        <time>2022-12-03T20:43:23Z</time>
      </trkpt>
      <trkpt lat="41.240140" lon="-6.395810">
        <ele>724</ele>
        <time>2022-12-03T20:43:51Z</time>
      </trkpt>
      <trkpt lat="41.239950" lon="-6.395540">
        <ele>725</ele>
        <time>2022-12-03T20:43:56Z</time>
      </trkpt>
      <trkpt lat="41.239700" lon="-6.395130">
        <ele>725</ele>
        <time>2022-12-03T20:44:03Z</time>
      </trkpt>
      <trkpt lat="41.239040" lon="-6.393960">
        <ele>724</ele>
        <time>2022-12-03T20:44:23Z</time>
      </trkpt>
      <trkpt lat="41.238660" lon="-6.393370">
        <ele>723</ele>
        <time>2022-12-03T20:44:33Z</time>
      </trkpt>
      <trkpt lat="41.237670" lon="-6.392160">
        <ele>728</ele>
        <time>2022-12-03T20:44:57Z</time>
      </trkpt>
      <trkpt lat="41.237460" lon="-6.391880">
        <ele>728</ele>
        <time>2022-12-03T20:45:02Z</time>
      </trkpt>
      <trkpt lat="41.237290" lon="-6.391620">
        <ele>729</ele>
        <time>2022-12-03T20:45:07Z</time>
      </trkpt>
      <trkpt lat="41.236960" lon="-6.391010">
        <ele>729</ele>
        <time>2022-12-03T20:45:17Z</time>
      </trkpt>
      <trkpt lat="41.236750" lon="-6.390510">
        <ele>729</ele>
        <time>2022-12-03T20:45:25Z</time>
      </trkpt>
      <trkpt lat="41.236590" lon="-6.390010">
        <ele>730</ele>
        <time>2022-12-03T20:45:32Z</time>
      </trkpt>
      <trkpt lat="41.236350" lon="-6.389090">
        <ele>733</ele>
        <time>2022-12-03T20:45:45Z</time>
      </trkpt>
      <trkpt lat="41.236250" lon="-6.388770">
        <ele>733</ele>
        <time>2022-12-03T20:45:50Z</time>
      </trkpt>
      <trkpt lat="41.236140" lon="-6.388580">
        <ele>733</ele>
        <time>2022-12-03T20:45:53Z</time>
      </trkpt>
      <trkpt lat="41.235860" lon="-6.388140">
        <ele>733</ele>
        <time>2022-12-03T20:46:01Z</time>
      </trkpt>
      <trkpt lat="41.235730" lon="-6.387890">
        <ele>734</ele>
        <time>2022-12-03T20:46:05Z</time>
      </trkpt>
      <trkpt lat="41.235610" lon="-6.387590">
        <ele>735</ele>
        <time>2022-12-03T20:46:09Z</time>
      </trkpt>
      <trkpt lat="41.235530" lon="-6.387230">
        <ele>736</ele>
        <time>2022-12-03T20:46:14Z</time>
      </trkpt>
      <trkpt lat="41.235490" lon="-6.386950">
        <ele>737</ele>
        <time>2022-12-03T20:46:18Z</time>
      </trkpt>
      <trkpt lat="41.235480" lon="-6.386700">
        <ele>738</ele>
        <time>2022-12-03T20:46:21Z</time>
      </trkpt>
      <trkpt lat="41.235490" lon="-6.386410">
        <ele>739</ele>
        <time>2022-12-03T20:46:25Z</time>
      </trkpt>
      <trkpt lat="41.235610" lon="-6.385160">
        <ele>742</ele>
        <time>2022-12-03T20:46:42Z</time>
      </trkpt>
      <trkpt lat="41.235630" lon="-6.384830">
        <ele>742</ele>
        <time>2022-12-03T20:46:47Z</time>
      </trkpt>
      <trkpt lat="41.235570" lon="-6.383620">
        <ele>745</ele>
        <time>2022-12-03T20:47:03Z</time>
      </trkpt>
      <trkpt lat="41.235440" lon="-6.382990">
        <ele>746</ele>
        <time>2022-12-03T20:47:11Z</time>
      </trkpt>
      <trkpt lat="41.235360" lon="-6.382880">
        <ele>746</ele>
        <time>2022-12-03T20:47:14Z</time>
      </trkpt>
      <trkpt lat="41.235360" lon="-6.382560">
        <ele>747</ele>
        <time>2022-12-03T20:47:18Z</time>
      </trkpt>
      <trkpt lat="41.235070" lon="-6.380510">
        <ele>752</ele>
        <time>2022-12-03T20:47:46Z</time>
      </trkpt>
      <trkpt lat="41.234840" lon="-6.378160">
        <ele>753</ele>
        <time>2022-12-03T20:48:17Z</time>
      </trkpt>
      <trkpt lat="41.234720" lon="-6.377280">
        <ele>755</ele>
        <time>2022-12-03T20:48:29Z</time>
      </trkpt>
      <trkpt lat="41.229880" lon="-6.351670">
        <ele>768</ele>
        <time>2022-12-03T20:54:23Z</time>
      </trkpt>
      <trkpt lat="41.229450" lon="-6.349360">
        <ele>771</ele>
        <time>2022-12-03T20:54:55Z</time>
      </trkpt>
      <trkpt lat="41.229250" lon="-6.348340">
        <ele>771</ele>
        <time>2022-12-03T20:55:09Z</time>
      </trkpt>
      <trkpt lat="41.228760" lon="-6.345970">
        <ele>770</ele>
        <time>2022-12-03T20:55:42Z</time>
      </trkpt>
      <trkpt lat="41.225120" lon="-6.331200">
        <ele>766</ele>
        <time>2022-12-03T20:59:10Z</time>
      </trkpt>
      <trkpt lat="41.225060" lon="-6.330940">
        <ele>767</ele>
        <time>2022-12-03T20:59:13Z</time>
      </trkpt>
      <trkpt lat="41.224750" lon="-6.330090">
        <ele>768</ele>
        <time>2022-12-03T20:59:26Z</time>
      </trkpt>
      <trkpt lat="41.224520" lon="-6.329700">
        <ele>768</ele>
        <time>2022-12-03T20:59:32Z</time>
      </trkpt>
      <trkpt lat="41.224270" lon="-6.329380">
        <ele>768</ele>
        <time>2022-12-03T20:59:39Z</time>
      </trkpt>
      <trkpt lat="41.222620" lon="-6.327990">
        <ele>764</ele>
        <time>2022-12-03T21:00:13Z</time>
      </trkpt>
      <trkpt lat="41.214630" lon="-6.321540">
        <ele>740</ele>
        <time>2022-12-03T21:03:00Z</time>
      </trkpt>
      <trkpt lat="41.205280" lon="-6.313940">
        <ele>740</ele>
        <time>2022-12-03T21:06:15Z</time>
      </trkpt>
      <trkpt lat="41.204150" lon="-6.313060">
        <ele>741</ele>
        <time>2022-12-03T21:06:38Z</time>
      </trkpt>
      <trkpt lat="41.203700" lon="-6.312860">
        <ele>739</ele>
        <time>2022-12-03T21:06:46Z</time>
      </trkpt>
      <trkpt lat="41.203310" lon="-6.312790">
        <ele>738</ele>
        <time>2022-12-03T21:06:53Z</time>
      </trkpt>
      <trkpt lat="41.202880" lon="-6.312820">
        <ele>737</ele>
        <time>2022-12-03T21:07:01Z</time>
      </trkpt>
      <trkpt lat="41.202450" lon="-6.312950">
        <ele>736</ele>
        <time>2022-12-03T21:07:09Z</time>
      </trkpt>
      <trkpt lat="41.195970" lon="-6.315700">
        <ele>738</ele>
        <time>2022-12-03T21:09:10Z</time>
      </trkpt>
      <trkpt lat="41.194070" lon="-6.316840">
        <ele>739</ele>
        <time>2022-12-03T21:09:47Z</time>
      </trkpt>
      <trkpt lat="41.193730" lon="-6.316970">
        <ele>738</ele>
        <time>2022-12-03T21:09:53Z</time>
      </trkpt>
      <trkpt lat="41.193290" lon="-6.317040">
        <ele>736</ele>
        <time>2022-12-03T21:10:01Z</time>
      </trkpt>
      <trkpt lat="41.192700" lon="-6.316970">
        <ele>736</ele>
        <time>2022-12-03T21:10:12Z</time>
      </trkpt>
      <trkpt lat="41.192170" lon="-6.316710">
        <ele>736</ele>
        <time>2022-12-03T21:10:22Z</time>
      </trkpt>
      <trkpt lat="41.190460" lon="-6.315270">
        <ele>736</ele>
        <time>2022-12-03T21:10:58Z</time>
      </trkpt>
      <trkpt lat="41.189990" lon="-6.314750">
        <ele>735</ele>
        <time>2022-12-03T21:11:09Z</time>
      </trkpt>
      <trkpt lat="41.189320" lon="-6.313540">
        <ele>734</ele>
        <time>2022-12-03T21:11:29Z</time>
      </trkpt>
      <trkpt lat="41.189240" lon="-6.313380">
        <ele>734</ele>
        <time>2022-12-03T21:11:31Z</time>
      </trkpt>
      <trkpt lat="41.186830" lon="-6.308690">
        <ele>749</ele>
        <time>2022-12-03T21:12:48Z</time>
      </trkpt>
      <trkpt lat="41.186450" lon="-6.307900">
        <ele>750</ele>
        <time>2022-12-03T21:13:00Z</time>
      </trkpt>
      <trkpt lat="41.186290" lon="-6.307410">
        <ele>750</ele>
        <time>2022-12-03T21:13:07Z</time>
      </trkpt>
      <trkpt lat="41.186230" lon="-6.307110">
        <ele>749</ele>
        <time>2022-12-03T21:13:11Z</time>
      </trkpt>
      <trkpt lat="41.186200" lon="-6.306870">
        <ele>749</ele>
        <time>2022-12-03T21:13:15Z</time>
      </trkpt>
      <trkpt lat="41.186170" lon="-6.306390">
        <ele>748</ele>
        <time>2022-12-03T21:13:21Z</time>
      </trkpt>
      <trkpt lat="41.186220" lon="-6.305830">
        <ele>747</ele>
        <time>2022-12-03T21:13:29Z</time>
      </trkpt>
      <trkpt lat="41.186280" lon="-6.305510">
        <ele>747</ele>
        <time>2022-12-03T21:13:33Z</time>
      </trkpt>
      <trkpt lat="41.186390" lon="-6.305140">
        <ele>746</ele>
        <time>2022-12-03T21:13:38Z</time>
      </trkpt>
      <trkpt lat="41.189520" lon="-6.295680">
        <ele>736</ele>
        <time>2022-12-03T21:15:57Z</time>
      </trkpt>
      <trkpt lat="41.189570" lon="-6.295510">
        <ele>736</ele>
        <time>2022-12-03T21:15:59Z</time>
      </trkpt>
      <trkpt lat="41.192580" lon="-6.286480">
        <ele>761</ele>
        <time>2022-12-03T21:18:11Z</time>
      </trkpt>
      <trkpt lat="41.192820" lon="-6.285950">
        <ele>760</ele>
        <time>2022-12-03T21:18:20Z</time>
      </trkpt>
      <trkpt lat="41.192940" lon="-6.285740">
        <ele>759</ele>
        <time>2022-12-03T21:18:23Z</time>
      </trkpt>
      <trkpt lat="41.193060" lon="-6.285570">
        <ele>759</ele>
        <time>2022-12-03T21:18:26Z</time>
      </trkpt>
      <trkpt lat="41.193340" lon="-6.285250">
        <ele>757</ele>
        <time>2022-12-03T21:18:33Z</time>
      </trkpt>
      <trkpt lat="41.193690" lon="-6.284980">
        <ele>755</ele>
        <time>2022-12-03T21:18:40Z</time>
      </trkpt>
      <trkpt lat="41.194050" lon="-6.284780">
        <ele>755</ele>
        <time>2022-12-03T21:18:47Z</time>
      </trkpt>
      <trkpt lat="41.206010" lon="-6.278470">
        <ele>744</ele>
        <time>2022-12-03T21:22:36Z</time>
      </trkpt>
      <trkpt lat="41.206420" lon="-6.278250">
        <ele>743</ele>
        <time>2022-12-03T21:22:44Z</time>
      </trkpt>
      <trkpt lat="41.206640" lon="-6.278110">
        <ele>743</ele>
        <time>2022-12-03T21:22:48Z</time>
      </trkpt>
      <trkpt lat="41.206790" lon="-6.278000">
        <ele>743</ele>
        <time>2022-12-03T21:22:51Z</time>
      </trkpt>
      <trkpt lat="41.207090" lon="-6.277690">
        <ele>741</ele>
        <time>2022-12-03T21:22:58Z</time>
      </trkpt>
      <trkpt lat="41.207270" lon="-6.277470">
        <ele>740</ele>
        <time>2022-12-03T21:23:02Z</time>
      </trkpt>
      <trkpt lat="41.207520" lon="-6.277050">
        <ele>738</ele>
        <time>2022-12-03T21:23:10Z</time>
      </trkpt>
      <trkpt lat="41.207760" lon="-6.276420">
        <ele>737</ele>
        <time>2022-12-03T21:23:19Z</time>
      </trkpt>
      <trkpt lat="41.207820" lon="-6.276150">
        <ele>736</ele>
        <time>2022-12-03T21:23:23Z</time>
      </trkpt>
      <trkpt lat="41.207890" lon="-6.275660">
        <ele>735</ele>
        <time>2022-12-03T21:23:29Z</time>
      </trkpt>
      <trkpt lat="41.207900" lon="-6.275360">
        <ele>734</ele>
        <time>2022-12-03T21:23:33Z</time>
      </trkpt>
      <trkpt lat="41.207860" lon="-6.274650">
        <ele>733</ele>
        <time>2022-12-03T21:23:43Z</time>
      </trkpt>
      <trkpt lat="41.207750" lon="-6.273110">
        <ele>733</ele>
        <time>2022-12-03T21:24:04Z</time>
      </trkpt>
      <trkpt lat="41.207580" lon="-6.271220">
        <ele>740</ele>
        <time>2022-12-03T21:24:29Z</time>
      </trkpt>
      <trkpt lat="41.207510" lon="-6.270900">
        <ele>742</ele>
        <time>2022-12-03T21:24:34Z</time>
      </trkpt>
      <trkpt lat="41.207440" lon="-6.270640">
        <ele>743</ele>
        <time>2022-12-03T21:24:37Z</time>
      </trkpt>
      <trkpt lat="41.207290" lon="-6.270260">
        <ele>744</ele>
        <time>2022-12-03T21:24:43Z</time>
      </trkpt>
      <trkpt lat="41.207170" lon="-6.270000">
        <ele>746</ele>
        <time>2022-12-03T21:24:47Z</time>
      </trkpt>
      <trkpt lat="41.198830" lon="-6.256030">
        <ele>762</ele>
        <time>2022-12-03T21:28:46Z</time>
      </trkpt>
      <trkpt lat="41.195260" lon="-6.250120">
        <ele>751</ele>
        <time>2022-12-03T21:30:27Z</time>
      </trkpt>
      <trkpt lat="41.194970" lon="-6.249690">
        <ele>749</ele>
        <time>2022-12-03T21:30:35Z</time>
      </trkpt>
      <trkpt lat="41.194810" lon="-6.249490">
        <ele>749</ele>
        <time>2022-12-03T21:30:39Z</time>
      </trkpt>
      <trkpt lat="41.191360" lon="-6.245600">
        <ele>731</ele>
        <time>2022-12-03T21:32:00Z</time>
      </trkpt>
      <trkpt lat="41.190980" lon="-6.245250">
        <ele>729</ele>
        <time>2022-12-03T21:32:08Z</time>
      </trkpt>
      <trkpt lat="41.190610" lon="-6.244990">
        <ele>727</ele>
        <time>2022-12-03T21:32:15Z</time>
      </trkpt>
      <trkpt lat="41.189090" lon="-6.244030">
        <ele>728</ele>
        <time>2022-12-03T21:32:45Z</time>
      </trkpt>
      <trkpt lat="41.187750" lon="-6.243190">
        <ele>734</ele>
        <time>2022-12-03T21:33:12Z</time>
      </trkpt>
      <trkpt lat="41.187440" lon="-6.242970">
        <ele>734</ele>
        <time>2022-12-03T21:33:18Z</time>
      </trkpt>
      <trkpt lat="41.187230" lon="-6.242790">
        <ele>735</ele>
        <time>2022-12-03T21:33:22Z</time>
      </trkpt>
      <trkpt lat="41.187060" lon="-6.242610">
        <ele>735</ele>
        <time>2022-12-03T21:33:26Z</time>
      </trkpt>
      <trkpt lat="41.186900" lon="-6.242410">
        <ele>736</ele>
        <time>2022-12-03T21:33:30Z</time>
      </trkpt>
      <trkpt lat="41.186680" lon="-6.242070">
        <ele>736</ele>
        <time>2022-12-03T21:33:36Z</time>
      </trkpt>
      <trkpt lat="41.186570" lon="-6.241860">
        <ele>736</ele>
        <time>2022-12-03T21:33:39Z</time>
      </trkpt>
      <trkpt lat="41.186440" lon="-6.241550">
        <ele>736</ele>
        <time>2022-12-03T21:33:44Z</time>
      </trkpt>
      <trkpt lat="41.186360" lon="-6.241320">
        <ele>736</ele>
        <time>2022-12-03T21:33:48Z</time>
      </trkpt>
      <trkpt lat="41.186250" lon="-6.240880">
        <ele>737</ele>
        <time>2022-12-03T21:33:54Z</time>
      </trkpt>
      <trkpt lat="41.186170" lon="-6.240340">
        <ele>736</ele>
        <time>2022-12-03T21:34:01Z</time>
      </trkpt>
      <trkpt lat="41.186160" lon="-6.240040">
        <ele>736</ele>
        <time>2022-12-03T21:34:05Z</time>
      </trkpt>
      <trkpt lat="41.186170" lon="-6.239710">
        <ele>736</ele>
        <time>2022-12-03T21:34:10Z</time>
      </trkpt>
      <trkpt lat="41.186200" lon="-6.239410">
        <ele>737</ele>
        <time>2022-12-03T21:34:14Z</time>
      </trkpt>
      <trkpt lat="41.186280" lon="-6.238910">
        <ele>737</ele>
        <time>2022-12-03T21:34:20Z</time>
      </trkpt>
      <trkpt lat="41.186690" lon="-6.237370">
        <ele>735</ele>
        <time>2022-12-03T21:34:42Z</time>
      </trkpt>
      <trkpt lat="41.186750" lon="-6.237040">
        <ele>735</ele>
        <time>2022-12-03T21:34:47Z</time>
      </trkpt>
      <trkpt lat="41.186770" lon="-6.236790">
        <ele>735</ele>
        <time>2022-12-03T21:34:50Z</time>
      </trkpt>
      <trkpt lat="41.186780" lon="-6.236290">
        <ele>736</ele>
        <time>2022-12-03T21:34:57Z</time>
      </trkpt>
      <trkpt lat="41.186760" lon="-6.235990">
        <ele>736</ele>
        <time>2022-12-03T21:35:01Z</time>
      </trkpt>
      <trkpt lat="41.186720" lon="-6.235730">
        <ele>736</ele>
        <time>2022-12-03T21:35:05Z</time>
      </trkpt>
      <trkpt lat="41.186620" lon="-6.235280">
        <ele>737</ele>
        <time>2022-12-03T21:35:11Z</time>
      </trkpt>
      <trkpt lat="41.183370" lon="-6.226490">
        <ele>754</ele>
        <time>2022-12-03T21:37:22Z</time>
      </trkpt>
      <trkpt lat="41.183220" lon="-6.226040">
        <ele>756</ele>
        <time>2022-12-03T21:37:29Z</time>
      </trkpt>
      <trkpt lat="41.181050" lon="-6.218390">
        <ele>770</ele>
        <time>2022-12-03T21:39:18Z</time>
      </trkpt>
      <trkpt lat="41.180820" lon="-6.217790">
        <ele>770</ele>
        <time>2022-12-03T21:39:27Z</time>
      </trkpt>
      <trkpt lat="41.180720" lon="-6.217560">
        <ele>770</ele>
        <time>2022-12-03T21:39:31Z</time>
      </trkpt>
      <trkpt lat="41.169570" lon="-6.196080">
        <ele>767</ele>
        <time>2022-12-03T21:45:20Z</time>
      </trkpt>
      <trkpt lat="41.163100" lon="-6.183500">
        <ele>770</ele>
        <time>2022-12-03T21:48:44Z</time>
      </trkpt>
      <trkpt lat="41.162850" lon="-6.182950">
        <ele>771</ele>
        <time>2022-12-03T21:48:53Z</time>
      </trkpt>
      <trkpt lat="41.162680" lon="-6.182350">
        <ele>770</ele>
        <time>2022-12-03T21:49:01Z</time>
      </trkpt>
      <trkpt lat="41.162110" lon="-6.180230">
        <ele>769</ele>
        <time>2022-12-03T21:49:31Z</time>
      </trkpt>
      <trkpt lat="41.161110" lon="-6.176620">
        <ele>775</ele>
        <time>2022-12-03T21:50:23Z</time>
      </trkpt>
      <trkpt lat="41.160970" lon="-6.176170">
        <ele>776</ele>
        <time>2022-12-03T21:50:30Z</time>
      </trkpt>
      <trkpt lat="41.159380" lon="-6.171680">
        <ele>782</ele>
        <time>2022-12-03T21:51:36Z</time>
      </trkpt>
      <trkpt lat="41.152300" lon="-6.151630">
        <ele>776</ele>
        <time>2022-12-03T21:56:33Z</time>
      </trkpt>
      <trkpt lat="41.150190" lon="-6.145570">
        <ele>758</ele>
        <time>2022-12-03T21:58:02Z</time>
      </trkpt>
      <trkpt lat="41.149120" lon="-6.142410">
        <ele>749</ele>
        <time>2022-12-03T21:58:49Z</time>
      </trkpt>
      <trkpt lat="41.148960" lon="-6.142040">
        <ele>748</ele>
        <time>2022-12-03T21:58:54Z</time>
      </trkpt>
      <trkpt lat="41.148730" lon="-6.141670">
        <ele>747</ele>
        <time>2022-12-03T21:59:01Z</time>
      </trkpt>
      <trkpt lat="41.148580" lon="-6.141450">
        <ele>746</ele>
        <time>2022-12-03T21:59:05Z</time>
      </trkpt>
      <trkpt lat="41.148410" lon="-6.141270">
        <ele>746</ele>
        <time>2022-12-03T21:59:09Z</time>
      </trkpt>
      <trkpt lat="41.148220" lon="-6.141090">
        <ele>745</ele>
        <time>2022-12-03T21:59:13Z</time>
      </trkpt>
      <trkpt lat="41.147980" lon="-6.140920">
        <ele>743</ele>
        <time>2022-12-03T21:59:18Z</time>
      </trkpt>
      <trkpt lat="41.147170" lon="-6.140460">
        <ele>739</ele>
        <time>2022-12-03T21:59:33Z</time>
      </trkpt>
      <trkpt lat="41.146940" lon="-6.140290">
        <ele>737</ele>
        <time>2022-12-03T21:59:38Z</time>
      </trkpt>
      <trkpt lat="41.146610" lon="-6.139970">
        <ele>735</ele>
        <time>2022-12-03T21:59:45Z</time>
      </trkpt>
      <trkpt lat="41.145970" lon="-6.139220">
        <ele>731</ele>
        <time>2022-12-03T22:00:00Z</time>
      </trkpt>
      <trkpt lat="41.145710" lon="-6.138890">
        <ele>731</ele>
        <time>2022-12-03T22:00:07Z</time>
      </trkpt>
      <trkpt lat="41.145480" lon="-6.138540">
        <ele>732</ele>
        <time>2022-12-03T22:00:13Z</time>
      </trkpt>
      <trkpt lat="41.145330" lon="-6.138230">
        <ele>733</ele>
        <time>2022-12-03T22:00:18Z</time>
      </trkpt>
      <trkpt lat="41.145170" lon="-6.137860">
        <ele>735</ele>
        <time>2022-12-03T22:00:24Z</time>
      </trkpt>
      <trkpt lat="41.145020" lon="-6.137440">
        <ele>737</ele>
        <time>2022-12-03T22:00:30Z</time>
      </trkpt>
      <trkpt lat="41.142310" lon="-6.127580">
        <ele>755</ele>
        <time>2022-12-03T22:02:51Z</time>
      </trkpt>
      <trkpt lat="41.135730" lon="-6.104170">
        <ele>791</ele>
        <time>2022-12-03T22:08:25Z</time>
      </trkpt>
      <trkpt lat="41.135520" lon="-6.103440">
        <ele>793</ele>
        <time>2022-12-03T22:08:36Z</time>
      </trkpt>
      <trkpt lat="41.135380" lon="-6.103060">
        <ele>794</ele>
        <time>2022-12-03T22:08:41Z</time>
      </trkpt>
      <trkpt lat="41.135230" lon="-6.102770">
        <ele>794</ele>
        <time>2022-12-03T22:08:46Z</time>
      </trkpt>
      <trkpt lat="41.135100" lon="-6.102530">
        <ele>794</ele>
        <time>2022-12-03T22:08:50Z</time>
      </trkpt>
      <trkpt lat="41.131900" lon="-6.097520">
        <ele>782</ele>
        <time>2022-12-03T22:10:18Z</time>
      </trkpt>
      <trkpt lat="41.130920" lon="-6.096030">
        <ele>782</ele>
        <time>2022-12-03T22:10:45Z</time>
      </trkpt>
      <trkpt lat="41.130160" lon="-6.094950">
        <ele>780</ele>
        <time>2022-12-03T22:11:05Z</time>
      </trkpt>
      <trkpt lat="41.129420" lon="-6.093850">
        <ele>775</ele>
        <time>2022-12-03T22:11:24Z</time>
      </trkpt>
      <trkpt lat="41.128870" lon="-6.092940">
        <ele>772</ele>
        <time>2022-12-03T22:11:40Z</time>
      </trkpt>
      <trkpt lat="41.121130" lon="-6.079130">
        <ele>778</ele>
        <time>2022-12-03T22:15:31Z</time>
      </trkpt>
      <trkpt lat="41.117300" lon="-6.072440">
        <ele>780</ele>
        <time>2022-12-03T22:17:23Z</time>
      </trkpt>
      <trkpt lat="41.116960" lon="-6.071800">
        <ele>781</ele>
        <time>2022-12-03T22:17:34Z</time>
      </trkpt>
      <trkpt lat="41.116860" lon="-6.071560">
        <ele>781</ele>
        <time>2022-12-03T22:17:37Z</time>
      </trkpt>
      <trkpt lat="41.116730" lon="-6.071160">
        <ele>780</ele>
        <time>2022-12-03T22:17:43Z</time>
      </trkpt>
      <trkpt lat="41.115260" lon="-6.066090">
        <ele>776</ele>
        <time>2022-12-03T22:18:56Z</time>
      </trkpt>
      <trkpt lat="41.115040" lon="-6.065280">
        <ele>777</ele>
        <time>2022-12-03T22:19:08Z</time>
      </trkpt>
      <trkpt lat="41.114950" lon="-6.064760">
        <ele>778</ele>
        <time>2022-12-03T22:19:15Z</time>
      </trkpt>
      <trkpt lat="41.114790" lon="-6.063490">
        <ele>780</ele>
        <time>2022-12-03T22:19:32Z</time>
      </trkpt>
      <trkpt lat="41.114720" lon="-6.063180">
        <ele>781</ele>
        <time>2022-12-03T22:19:36Z</time>
      </trkpt>
      <trkpt lat="41.114570" lon="-6.062690">
        <ele>781</ele>
        <time>2022-12-03T22:19:43Z</time>
      </trkpt>
      <trkpt lat="41.114430" lon="-6.062400">
        <ele>780</ele>
        <time>2022-12-03T22:19:48Z</time>
      </trkpt>
      <trkpt lat="41.114250" lon="-6.062090">
        <ele>778</ele>
        <time>2022-12-03T22:19:53Z</time>
      </trkpt>
      <trkpt lat="41.114110" lon="-6.061880">
        <ele>776</ele>
        <time>2022-12-03T22:19:57Z</time>
      </trkpt>
      <trkpt lat="41.112040" lon="-6.059240">
        <ele>763</ele>
        <time>2022-12-03T22:20:48Z</time>
      </trkpt>
      <trkpt lat="41.111860" lon="-6.059030">
        <ele>762</ele>
        <time>2022-12-03T22:20:52Z</time>
      </trkpt>
      <trkpt lat="41.111540" lon="-6.058720">
        <ele>760</ele>
        <time>2022-12-03T22:20:59Z</time>
      </trkpt>
      <trkpt lat="41.111190" lon="-6.058450">
        <ele>756</ele>
        <time>2022-12-03T22:21:07Z</time>
      </trkpt>
      <trkpt lat="41.110240" lon="-6.057910">
        <ele>751</ele>
        <time>2022-12-03T22:21:25Z</time>
      </trkpt>
      <trkpt lat="41.110050" lon="-6.057790">
        <ele>750</ele>
        <time>2022-12-03T22:21:29Z</time>
      </trkpt>
      <trkpt lat="41.109720" lon="-6.057500">
        <ele>748</ele>
        <time>2022-12-03T22:21:36Z</time>
      </trkpt>
      <trkpt lat="41.109550" lon="-6.057340">
        <ele>747</ele>
        <time>2022-12-03T22:21:40Z</time>
      </trkpt>
      <trkpt lat="41.109330" lon="-6.057080">
        <ele>746</ele>
        <time>2022-12-03T22:21:45Z</time>
      </trkpt>
      <trkpt lat="41.108470" lon="-6.055910">
        <ele>740</ele>
        <time>2022-12-03T22:22:07Z</time>
      </trkpt>
      <trkpt lat="41.108290" lon="-6.055640">
        <ele>739</ele>
        <time>2022-12-03T22:22:12Z</time>
      </trkpt>
      <trkpt lat="41.108100" lon="-6.055270">
        <ele>736</ele>
        <time>2022-12-03T22:22:18Z</time>
      </trkpt>
      <trkpt lat="41.108020" lon="-6.055070">
        <ele>735</ele>
        <time>2022-12-03T22:22:21Z</time>
      </trkpt>
      <trkpt lat="41.107650" lon="-6.054040">
        <ele>732</ele>
        <time>2022-12-03T22:22:36Z</time>
      </trkpt>
      <trkpt lat="41.107610" lon="-6.053910">
        <ele>732</ele>
        <time>2022-12-03T22:22:38Z</time>
      </trkpt>
      <trkpt lat="41.106350" lon="-6.050320">
        <ele>730</ele>
        <time>2022-12-03T22:23:31Z</time>
      </trkpt>
      <trkpt lat="41.106250" lon="-6.050030">
        <ele>730</ele>
        <time>2022-12-03T22:23:35Z</time>
      </trkpt>
      <trkpt lat="41.104220" lon="-6.044230">
        <ele>751</ele>
        <time>2022-12-03T22:25:01Z</time>
      </trkpt>
      <trkpt lat="41.103740" lon="-6.042820">
        <ele>756</ele>
        <time>2022-12-03T22:25:22Z</time>
      </trkpt>
      <trkpt lat="41.103430" lon="-6.041770">
        <ele>754</ele>
        <time>2022-12-03T22:25:37Z</time>
      </trkpt>
      <trkpt lat="41.101590" lon="-6.035100">
        <ele>743</ele>
        <time>2022-12-03T22:27:12Z</time>
      </trkpt>
      <trkpt lat="41.101190" lon="-6.033710">
        <ele>748</ele>
        <time>2022-12-03T22:27:32Z</time>
      </trkpt>
      <trkpt lat="41.101070" lon="-6.033370">
        <ele>749</ele>
        <time>2022-12-03T22:27:37Z</time>
      </trkpt>
      <trkpt lat="41.100680" lon="-6.032340">
        <ele>744</ele>
        <time>2022-12-03T22:27:52Z</time>
      </trkpt>
      <trkpt lat="41.099110" lon="-6.028380">
        <ele>741</ele>
        <time>2022-12-03T22:28:52Z</time>
      </trkpt>
      <trkpt lat="41.098940" lon="-6.028010">
        <ele>741</ele>
        <time>2022-12-03T22:28:58Z</time>
      </trkpt>
      <trkpt lat="41.098760" lon="-6.027700">
        <ele>741</ele>
        <time>2022-12-03T22:29:03Z</time>
      </trkpt>
      <trkpt lat="41.098550" lon="-6.027410">
        <ele>741</ele>
        <time>2022-12-03T22:29:09Z</time>
      </trkpt>
      <trkpt lat="41.098350" lon="-6.027200">
        <ele>740</ele>
        <time>2022-12-03T22:29:13Z</time>
      </trkpt>
      <trkpt lat="41.098170" lon="-6.027050">
        <ele>739</ele>
        <time>2022-12-03T22:29:17Z</time>
      </trkpt>
      <trkpt lat="41.097280" lon="-6.026470">
        <ele>737</ele>
        <time>2022-12-03T22:29:35Z</time>
      </trkpt>
      <trkpt lat="41.096890" lon="-6.026180">
        <ele>737</ele>
        <time>2022-12-03T22:29:43Z</time>
      </trkpt>
      <trkpt lat="41.096640" lon="-6.025910">
        <ele>737</ele>
        <time>2022-12-03T22:29:49Z</time>
      </trkpt>
      <trkpt lat="41.096510" lon="-6.025740">
        <ele>737</ele>
        <time>2022-12-03T22:29:52Z</time>
      </trkpt>
      <trkpt lat="41.096370" lon="-6.025530">
        <ele>737</ele>
        <time>2022-12-03T22:29:56Z</time>
      </trkpt>
      <trkpt lat="41.096230" lon="-6.025260">
        <ele>737</ele>
        <time>2022-12-03T22:30:00Z</time>
      </trkpt>
      <trkpt lat="41.096020" lon="-6.024780">
        <ele>735</ele>
        <time>2022-12-03T22:30:07Z</time>
      </trkpt>
      <trkpt lat="41.091390" lon="-6.013210">
        <ele>739</ele>
        <time>2022-12-03T22:33:03Z</time>
      </trkpt>
      <trkpt lat="41.091100" lon="-6.012480">
        <ele>739</ele>
        <time>2022-12-03T22:33:14Z</time>
      </trkpt>
      <trkpt lat="41.090960" lon="-6.012070">
        <ele>738</ele>
        <time>2022-12-03T22:33:20Z</time>
      </trkpt>
      <trkpt lat="41.090800" lon="-6.011350">
        <ele>737</ele>
        <time>2022-12-03T22:33:30Z</time>
      </trkpt>
      <trkpt lat="41.089840" lon="-6.004820">
        <ele>740</ele>
        <time>2022-12-03T22:34:59Z</time>
      </trkpt>
      <trkpt lat="41.089830" lon="-6.004610">
        <ele>740</ele>
        <time>2022-12-03T22:35:02Z</time>
      </trkpt>
      <trkpt lat="41.089860" lon="-6.004390">
        <ele>740</ele>
        <time>2022-12-03T22:35:05Z</time>
      </trkpt>
      <trkpt lat="41.089920" lon="-6.004220">
        <ele>739</ele>
        <time>2022-12-03T22:35:08Z</time>
      </trkpt>
      <trkpt lat="41.090010" lon="-6.004060">
        <ele>739</ele>
        <time>2022-12-03T22:35:10Z</time>
      </trkpt>
      <trkpt lat="41.092280" lon="-6.000660">
        <ele>751</ele>
        <time>2022-12-03T22:36:11Z</time>
      </trkpt>
      <trkpt lat="41.092550" lon="-6.000220">
        <ele>752</ele>
        <time>2022-12-03T22:36:19Z</time>
      </trkpt>
      <trkpt lat="41.092690" lon="-5.999840">
        <ele>753</ele>
        <time>2022-12-03T22:36:25Z</time>
      </trkpt>
      <trkpt lat="41.092920" lon="-5.998980">
        <ele>753</ele>
        <time>2022-12-03T22:36:37Z</time>
      </trkpt>
      <trkpt lat="41.092950" lon="-5.998790">
        <ele>753</ele>
        <time>2022-12-03T22:36:39Z</time>
      </trkpt>
      <trkpt lat="41.092910" lon="-5.998440">
        <ele>754</ele>
        <time>2022-12-03T22:36:44Z</time>
      </trkpt>
      <trkpt lat="41.092850" lon="-5.998170">
        <ele>754</ele>
        <time>2022-12-03T22:36:48Z</time>
      </trkpt>
      <trkpt lat="41.092820" lon="-5.997960">
        <ele>752</ele>
        <time>2022-12-03T22:36:51Z</time>
      </trkpt>
      <trkpt lat="41.092820" lon="-5.997850">
        <ele>750</ele>
        <time>2022-12-03T22:36:52Z</time>
      </trkpt>
      <trkpt lat="41.092870" lon="-5.997710">
        <ele>748</ele>
        <time>2022-12-03T22:36:54Z</time>
      </trkpt>
      <trkpt lat="41.093360" lon="-5.996550">
        <ele>742</ele>
        <time>2022-12-03T22:37:12Z</time>
      </trkpt>
      <trkpt lat="41.093420" lon="-5.996390">
        <ele>745</ele>
        <time>2022-12-03T22:37:15Z</time>
      </trkpt>
      <trkpt lat="41.093430" lon="-5.996290">
        <ele>747</ele>
        <time>2022-12-03T22:37:16Z</time>
      </trkpt>
      <trkpt lat="41.093420" lon="-5.996180">
        <ele>748</ele>
        <time>2022-12-03T22:37:17Z</time>
      </trkpt>
      <trkpt lat="41.093390" lon="-5.996090">
        <ele>749</ele>
        <time>2022-12-03T22:37:19Z</time>
      </trkpt>
      <trkpt lat="41.093240" lon="-5.995810">
        <ele>752</ele>
        <time>2022-12-03T22:37:23Z</time>
      </trkpt>
      <trkpt lat="41.092820" lon="-5.995180">
        <ele>759</ele>
        <time>2022-12-03T22:37:35Z</time>
      </trkpt>
      <trkpt lat="41.092590" lon="-5.994790">
        <ele>764</ele>
        <time>2022-12-03T22:37:41Z</time>
      </trkpt>
      <trkpt lat="41.092480" lon="-5.994550">
        <ele>766</ele>
        <time>2022-12-03T22:37:45Z</time>
      </trkpt>
      <trkpt lat="41.092440" lon="-5.994360">
        <ele>767</ele>
        <time>2022-12-03T22:37:48Z</time>
      </trkpt>
      <trkpt lat="41.092790" lon="-5.993750">
        <ele>770</ele>
        <time>2022-12-03T22:37:58Z</time>
      </trkpt>
      <trkpt lat="41.092960" lon="-5.993270">
        <ele>771</ele>
        <time>2022-12-03T22:38:05Z</time>
      </trkpt>
      <trkpt lat="41.093060" lon="-5.993220">
        <ele>771</ele>
        <time>2022-12-03T22:38:07Z</time>
      </trkpt>
      <trkpt lat="41.093220" lon="-5.993030">
        <ele>772</ele>
        <time>2022-12-03T22:38:11Z</time>
      </trkpt>
      <trkpt lat="41.093320" lon="-5.992900">
        <ele>772</ele>
        <time>2022-12-03T22:38:13Z</time>
      </trkpt>
      <trkpt lat="41.093520" lon="-5.992540">
        <ele>773</ele>
        <time>2022-12-03T22:38:19Z</time>
      </trkpt>
      <trkpt lat="41.093610" lon="-5.992430">
        <ele>773</ele>
        <time>2022-12-03T22:38:21Z</time>
      </trkpt>
      <trkpt lat="41.094060" lon="-5.992110">
        <ele>775</ele>
        <time>2022-12-03T22:38:31Z</time>
      </trkpt>
      <trkpt lat="41.094190" lon="-5.992000">
        <ele>776</ele>
        <time>2022-12-03T22:38:33Z</time>
      </trkpt>
      <trkpt lat="41.094560" lon="-5.991520">
        <ele>775</ele>
        <time>2022-12-03T22:38:43Z</time>
      </trkpt>
      <trkpt lat="41.094820" lon="-5.991240">
        <ele>774</ele>
        <time>2022-12-03T22:38:48Z</time>
      </trkpt>
      <trkpt lat="41.096890" lon="-5.989360">
        <ele>777</ele>
        <time>2022-12-03T22:39:33Z</time>
      </trkpt>
      <trkpt lat="41.097530" lon="-5.988760">
        <ele>779</ele>
        <time>2022-12-03T22:39:47Z</time>
      </trkpt>
      <trkpt lat="41.098320" lon="-5.988160">
        <ele>782</ele>
        <time>2022-12-03T22:40:03Z</time>
      </trkpt>
      <trkpt lat="41.098930" lon="-5.987760">
        <ele>783</ele>
        <time>2022-12-03T22:40:15Z</time>
      </trkpt>
      <trkpt lat="41.100190" lon="-5.986970">
        <ele>784</ele>
        <time>2022-12-03T22:40:40Z</time>
      </trkpt>
      <trkpt lat="41.101030" lon="-5.986410">
        <ele>783</ele>
        <time>2022-12-03T22:40:57Z</time>
      </trkpt>
      <trkpt lat="41.101310" lon="-5.986110">
        <ele>783</ele>
        <time>2022-12-03T22:41:03Z</time>
      </trkpt>
      <trkpt lat="41.103990" lon="-5.982850">
        <ele>773</ele>
        <time>2022-12-03T22:42:08Z</time>
      </trkpt>
      <trkpt lat="41.104100" lon="-5.982740">
        <ele>772</ele>
        <time>2022-12-03T22:42:10Z</time>
      </trkpt>
      <trkpt lat="41.104290" lon="-5.982610">
        <ele>770</ele>
        <time>2022-12-03T22:42:14Z</time>
      </trkpt>
      <trkpt lat="41.104560" lon="-5.982500">
        <ele>769</ele>
        <time>2022-12-03T22:42:19Z</time>
      </trkpt>
      <trkpt lat="41.105910" lon="-5.982330">
        <ele>761</ele>
        <time>2022-12-03T22:42:43Z</time>
      </trkpt>
      <trkpt lat="41.106360" lon="-5.982290">
        <ele>759</ele>
        <time>2022-12-03T22:42:51Z</time>
      </trkpt>
      <trkpt lat="41.106500" lon="-5.982310">
        <ele>758</ele>
        <time>2022-12-03T22:42:54Z</time>
      </trkpt>
      <trkpt lat="41.107090" lon="-5.982470">
        <ele>755</ele>
        <time>2022-12-03T22:43:05Z</time>
      </trkpt>
      <trkpt lat="41.107290" lon="-5.982540">
        <ele>753</ele>
        <time>2022-12-03T22:43:08Z</time>
      </trkpt>
      <trkpt lat="41.107760" lon="-5.982850">
        <ele>752</ele>
        <time>2022-12-03T22:43:18Z</time>
      </trkpt>
      <trkpt lat="41.107860" lon="-5.982880">
        <ele>751</ele>
        <time>2022-12-03T22:43:19Z</time>
      </trkpt>
      <trkpt lat="41.108220" lon="-5.982880">
        <ele>750</ele>
        <time>2022-12-03T22:43:26Z</time>
      </trkpt>
      <trkpt lat="41.108350" lon="-5.982910">
        <ele>749</ele>
        <time>2022-12-03T22:43:28Z</time>
      </trkpt>
      <trkpt lat="41.108460" lon="-5.982970">
        <ele>751</ele>
        <time>2022-12-03T22:43:30Z</time>
      </trkpt>
      <trkpt lat="41.108630" lon="-5.983170">
        <ele>753</ele>
        <time>2022-12-03T22:43:34Z</time>
      </trkpt>
      <trkpt lat="41.108930" lon="-5.983580">
        <ele>756</ele>
        <time>2022-12-03T22:43:42Z</time>
      </trkpt>
      <trkpt lat="41.109060" lon="-5.983710">
        <ele>757</ele>
        <time>2022-12-03T22:43:45Z</time>
      </trkpt>
      <trkpt lat="41.109200" lon="-5.983740">
        <ele>758</ele>
        <time>2022-12-03T22:43:47Z</time>
      </trkpt>
      <trkpt lat="41.109450" lon="-5.983700">
        <ele>761</ele>
        <time>2022-12-03T22:43:52Z</time>
      </trkpt>
      <trkpt lat="41.109530" lon="-5.983690">
        <ele>762</ele>
        <time>2022-12-03T22:43:53Z</time>
      </trkpt>
      <trkpt lat="41.109620" lon="-5.983720">
        <ele>762</ele>
        <time>2022-12-03T22:43:55Z</time>
      </trkpt>
      <trkpt lat="41.109780" lon="-5.983830">
        <ele>764</ele>
        <time>2022-12-03T22:43:58Z</time>
      </trkpt>
      <trkpt lat="41.110030" lon="-5.984080">
        <ele>765</ele>
        <time>2022-12-03T22:44:04Z</time>
      </trkpt>
      <trkpt lat="41.110210" lon="-5.984200">
        <ele>765</ele>
        <time>2022-12-03T22:44:07Z</time>
      </trkpt>
      <trkpt lat="41.110300" lon="-5.984210">
        <ele>765</ele>
        <time>2022-12-03T22:44:09Z</time>
      </trkpt>
      <trkpt lat="41.110780" lon="-5.984130">
        <ele>767</ele>
        <time>2022-12-03T22:44:18Z</time>
      </trkpt>
      <trkpt lat="41.110890" lon="-5.984140">
        <ele>768</ele>
        <time>2022-12-03T22:44:20Z</time>
      </trkpt>
      <trkpt lat="41.110990" lon="-5.984180">
        <ele>768</ele>
        <time>2022-12-03T22:44:21Z</time>
      </trkpt>
      <trkpt lat="41.111360" lon="-5.984500">
        <ele>771</ele>
        <time>2022-12-03T22:44:29Z</time>
      </trkpt>
      <trkpt lat="41.111470" lon="-5.984550">
        <ele>772</ele>
        <time>2022-12-03T22:44:31Z</time>
      </trkpt>
      <trkpt lat="41.111590" lon="-5.984520">
        <ele>773</ele>
        <time>2022-12-03T22:44:34Z</time>
      </trkpt>
      <trkpt lat="41.111670" lon="-5.984450">
        <ele>774</ele>
        <time>2022-12-03T22:44:35Z</time>
      </trkpt>
      <trkpt lat="41.112830" lon="-5.982340">
        <ele>785</ele>
        <time>2022-12-03T22:45:10Z</time>
      </trkpt>
      <trkpt lat="41.112900" lon="-5.982270">
        <ele>786</ele>
        <time>2022-12-03T22:45:12Z</time>
      </trkpt>
      <trkpt lat="41.113030" lon="-5.982220">
        <ele>787</ele>
        <time>2022-12-03T22:45:14Z</time>
      </trkpt>
      <trkpt lat="41.114230" lon="-5.982030">
        <ele>796</ele>
        <time>2022-12-03T22:45:36Z</time>
      </trkpt>
      <trkpt lat="41.116330" lon="-5.981670">
        <ele>803</ele>
        <time>2022-12-03T22:46:13Z</time>
      </trkpt>
      <trkpt lat="41.121970" lon="-5.981070">
        <ele>796</ele>
        <time>2022-12-03T22:47:54Z</time>
      </trkpt>
      <trkpt lat="41.122070" lon="-5.981040">
        <ele>796</ele>
        <time>2022-12-03T22:47:56Z</time>
      </trkpt>
      <trkpt lat="41.122200" lon="-5.980970">
        <ele>796</ele>
        <time>2022-12-03T22:47:58Z</time>
      </trkpt>
      <trkpt lat="41.124090" lon="-5.979700">
        <ele>796</ele>
        <time>2022-12-03T22:48:36Z</time>
      </trkpt>
      <trkpt lat="41.126880" lon="-5.977880">
        <ele>802</ele>
        <time>2022-12-03T22:49:31Z</time>
      </trkpt>
      <trkpt lat="41.128220" lon="-5.977030">
        <ele>804</ele>
        <time>2022-12-03T22:49:58Z</time>
      </trkpt>
      <trkpt lat="41.134910" lon="-5.974340">
        <ele>813</ele>
        <time>2022-12-03T22:52:02Z</time>
      </trkpt>
      <trkpt lat="41.135090" lon="-5.974220">
        <ele>813</ele>
        <time>2022-12-03T22:52:06Z</time>
      </trkpt>
      <trkpt lat="41.135370" lon="-5.973960">
        <ele>814</ele>
        <time>2022-12-03T22:52:12Z</time>
      </trkpt>
      <trkpt lat="41.137690" lon="-5.971510">
        <ele>823</ele>
        <time>2022-12-03T22:53:05Z</time>
      </trkpt>
      <trkpt lat="41.142690" lon="-5.966330">
        <ele>825</ele>
        <time>2022-12-03T22:54:57Z</time>
      </trkpt>
      <trkpt lat="41.145140" lon="-5.963720">
        <ele>824</ele>
        <time>2022-12-03T22:55:53Z</time>
      </trkpt>
      <trkpt lat="41.146050" lon="-5.962920">
        <ele>823</ele>
        <time>2022-12-03T22:56:13Z</time>
      </trkpt>
      <trkpt lat="41.150000" lon="-5.959340">
        <ele>828</ele>
        <time>2022-12-03T22:57:38Z</time>
      </trkpt>
      <trkpt lat="41.150610" lon="-5.958970">
        <ele>824</ele>
        <time>2022-12-03T22:57:50Z</time>
      </trkpt>
      <trkpt lat="41.157650" lon="-5.954910">
        <ele>816</ele>
        <time>2022-12-03T23:00:06Z</time>
      </trkpt>
      <trkpt lat="41.158020" lon="-5.954740">
        <ele>814</ele>
        <time>2022-12-03T23:00:13Z</time>
      </trkpt>
      <trkpt lat="41.158360" lon="-5.954640">
        <ele>813</ele>
        <time>2022-12-03T23:00:19Z</time>
      </trkpt>
      <trkpt lat="41.159020" lon="-5.954510">
        <ele>814</ele>
        <time>2022-12-03T23:00:31Z</time>
      </trkpt>
      <trkpt lat="41.159490" lon="-5.954390">
        <ele>814</ele>
        <time>2022-12-03T23:00:40Z</time>
      </trkpt>
      <trkpt lat="41.159940" lon="-5.954190">
        <ele>813</ele>
        <time>2022-12-03T23:00:48Z</time>
      </trkpt>
      <trkpt lat="41.160750" lon="-5.953710">
        <ele>811</ele>
        <time>2022-12-03T23:01:04Z</time>
      </trkpt>
      <trkpt lat="41.163610" lon="-5.951810">
        <ele>818</ele>
        <time>2022-12-03T23:02:01Z</time>
      </trkpt>
      <trkpt lat="41.166470" lon="-5.949870">
        <ele>830</ele>
        <time>2022-12-03T23:02:58Z</time>
      </trkpt>
      <trkpt lat="41.167440" lon="-5.949180">
        <ele>833</ele>
        <time>2022-12-03T23:03:18Z</time>
      </trkpt>
      <trkpt lat="41.178750" lon="-5.940230">
        <ele>853</ele>
        <time>2022-12-03T23:07:12Z</time>
      </trkpt>
      <trkpt lat="41.181700" lon="-5.938270">
        <ele>849</ele>
        <time>2022-12-03T23:08:11Z</time>
      </trkpt>
      <trkpt lat="41.182280" lon="-5.937780">
        <ele>850</ele>
        <time>2022-12-03T23:08:23Z</time>
      </trkpt>
      <trkpt lat="41.184090" lon="-5.936670">
        <ele>853</ele>
        <time>2022-12-03T23:08:58Z</time>
      </trkpt>
      <trkpt lat="41.184430" lon="-5.936500">
        <ele>854</ele>
        <time>2022-12-03T23:09:05Z</time>
      </trkpt>
      <trkpt lat="41.190490" lon="-5.934140">
        <ele>867</ele>
        <time>2022-12-03T23:10:57Z</time>
      </trkpt>
      <trkpt lat="41.190930" lon="-5.933930">
        <ele>866</ele>
        <time>2022-12-03T23:11:05Z</time>
      </trkpt>
      <trkpt lat="41.191270" lon="-5.933730">
        <ele>866</ele>
        <time>2022-12-03T23:11:12Z</time>
      </trkpt>
      <trkpt lat="41.195030" lon="-5.930930">
        <ele>852</ele>
        <time>2022-12-03T23:12:29Z</time>
      </trkpt>
      <trkpt lat="41.195280" lon="-5.930700">
        <ele>852</ele>
        <time>2022-12-03T23:12:34Z</time>
      </trkpt>
      <trkpt lat="41.195610" lon="-5.930330">
        <ele>853</ele>
        <time>2022-12-03T23:12:42Z</time>
      </trkpt>
      <trkpt lat="41.195860" lon="-5.929930">
        <ele>854</ele>
        <time>2022-12-03T23:12:49Z</time>
      </trkpt>
      <trkpt lat="41.196330" lon="-5.929010">
        <ele>858</ele>
        <time>2022-12-03T23:13:04Z</time>
      </trkpt>
      <trkpt lat="41.196600" lon="-5.928620">
        <ele>860</ele>
        <time>2022-12-03T23:13:11Z</time>
      </trkpt>
      <trkpt lat="41.197800" lon="-5.927250">
        <ele>867</ele>
        <time>2022-12-03T23:13:39Z</time>
      </trkpt>
      <trkpt lat="41.198640" lon="-5.926580">
        <ele>870</ele>
        <time>2022-12-03T23:13:56Z</time>
      </trkpt>
      <trkpt lat="41.199890" lon="-5.925680">
        <ele>875</ele>
        <time>2022-12-03T23:14:22Z</time>
      </trkpt>
      <trkpt lat="41.200250" lon="-5.925390">
        <ele>876</ele>
        <time>2022-12-03T23:14:29Z</time>
      </trkpt>
      <trkpt lat="41.202890" lon="-5.922690">
        <ele>871</ele>
        <time>2022-12-03T23:15:28Z</time>
      </trkpt>
      <trkpt lat="41.203770" lon="-5.921810">
        <ele>865</ele>
        <time>2022-12-03T23:15:48Z</time>
      </trkpt>
      <trkpt lat="41.204110" lon="-5.921560">
        <ele>862</ele>
        <time>2022-12-03T23:15:55Z</time>
      </trkpt>
      <trkpt lat="41.204370" lon="-5.921440">
        <ele>861</ele>
        <time>2022-12-03T23:16:00Z</time>
      </trkpt>
      <trkpt lat="41.206340" lon="-5.920800">
        <ele>854</ele>
        <time>2022-12-03T23:16:36Z</time>
      </trkpt>
      <trkpt lat="41.206810" lon="-5.920630">
        <ele>854</ele>
        <time>2022-12-03T23:16:45Z</time>
      </trkpt>
      <trkpt lat="41.207230" lon="-5.920370">
        <ele>854</ele>
        <time>2022-12-03T23:16:53Z</time>
      </trkpt>
      <trkpt lat="41.207450" lon="-5.920200">
        <ele>855</ele>
        <time>2022-12-03T23:16:57Z</time>
      </trkpt>
      <trkpt lat="41.208500" lon="-5.919160">
        <ele>855</ele>
        <time>2022-12-03T23:17:21Z</time>
      </trkpt>
      <trkpt lat="41.208670" lon="-5.919030">
        <ele>856</ele>
        <time>2022-12-03T23:17:24Z</time>
      </trkpt>
      <trkpt lat="41.208900" lon="-5.918880">
        <ele>856</ele>
        <time>2022-12-03T23:17:29Z</time>
      </trkpt>
      <trkpt lat="41.209140" lon="-5.918770">
        <ele>856</ele>
        <time>2022-12-03T23:17:33Z</time>
      </trkpt>
      <trkpt lat="41.209570" lon="-5.918630">
        <ele>857</ele>
        <time>2022-12-03T23:17:41Z</time>
      </trkpt>
      <trkpt lat="41.211650" lon="-5.918210">
        <ele>861</ele>
        <time>2022-12-03T23:18:19Z</time>
      </trkpt>
      <trkpt lat="41.212120" lon="-5.918140">
        <ele>862</ele>
        <time>2022-12-03T23:18:27Z</time>
      </trkpt>
      <trkpt lat="41.213160" lon="-5.918060">
        <ele>865</ele>
        <time>2022-12-03T23:18:45Z</time>
      </trkpt>
      <trkpt lat="41.215050" lon="-5.917950">
        <ele>872</ele>
        <time>2022-12-03T23:19:19Z</time>
      </trkpt>
      <trkpt lat="41.221810" lon="-5.917730">
        <ele>886</ele>
        <time>2022-12-03T23:21:19Z</time>
      </trkpt>
      <trkpt lat="41.222270" lon="-5.917650">
        <ele>885</ele>
        <time>2022-12-03T23:21:28Z</time>
      </trkpt>
      <trkpt lat="41.223140" lon="-5.917320">
        <ele>886</ele>
        <time>2022-12-03T23:21:44Z</time>
      </trkpt>
      <trkpt lat="41.223460" lon="-5.917170">
        <ele>887</ele>
        <time>2022-12-03T23:21:50Z</time>
      </trkpt>
      <trkpt lat="41.223710" lon="-5.917030">
        <ele>887</ele>
        <time>2022-12-03T23:21:55Z</time>
      </trkpt>
      <trkpt lat="41.225130" lon="-5.915990">
        <ele>888</ele>
        <time>2022-12-03T23:22:24Z</time>
      </trkpt>
      <trkpt lat="41.225620" lon="-5.915600">
        <ele>889</ele>
        <time>2022-12-03T23:22:34Z</time>
      </trkpt>
      <trkpt lat="41.226270" lon="-5.914950">
        <ele>892</ele>
        <time>2022-12-03T23:22:48Z</time>
      </trkpt>
      <trkpt lat="41.227970" lon="-5.913010">
        <ele>895</ele>
        <time>2022-12-03T23:23:28Z</time>
      </trkpt>
      <trkpt lat="41.227940" lon="-5.912910">
        <ele>895</ele>
        <time>2022-12-03T23:23:29Z</time>
      </trkpt>
      <trkpt lat="41.227760" lon="-5.912810">
        <ele>894</ele>
        <time>2022-12-03T23:23:33Z</time>
      </trkpt>
      <trkpt lat="41.227240" lon="-5.912680">
        <ele>893</ele>
        <time>2022-12-03T23:23:42Z</time>
      </trkpt>
      <trkpt lat="41.227060" lon="-5.912600">
        <ele>893</ele>
        <time>2022-12-03T23:23:46Z</time>
      </trkpt>
      <trkpt lat="41.226390" lon="-5.912200">
        <ele>892</ele>
        <time>2022-12-03T23:23:59Z</time>
      </trkpt>
      <trkpt lat="41.226010" lon="-5.911930">
        <ele>891</ele>
        <time>2022-12-03T23:24:06Z</time>
      </trkpt>
      <trkpt lat="41.224030" lon="-5.910400">
        <ele>884</ele>
        <time>2022-12-03T23:24:47Z</time>
      </trkpt>
      <trkpt lat="41.223970" lon="-5.910350">
        <ele>884</ele>
        <time>2022-12-03T23:24:48Z</time>
      </trkpt>
      <trkpt lat="41.222940" lon="-5.909520">
        <ele>885</ele>
        <time>2022-12-03T23:25:10Z</time>
      </trkpt>
      <trkpt lat="41.222670" lon="-5.909270">
        <ele>886</ele>
        <time>2022-12-03T23:25:16Z</time>
      </trkpt>
      <trkpt lat="41.221910" lon="-5.908380">
        <ele>882</ele>
        <time>2022-12-03T23:25:34Z</time>
      </trkpt>
      <trkpt lat="41.221650" lon="-5.908120">
        <ele>880</ele>
        <time>2022-12-03T23:25:40Z</time>
      </trkpt>
      <trkpt lat="41.221380" lon="-5.907940">
        <ele>880</ele>
        <time>2022-12-03T23:25:45Z</time>
      </trkpt>
      <trkpt lat="41.219700" lon="-5.907130">
        <ele>875</ele>
        <time>2022-12-03T23:26:17Z</time>
      </trkpt>
      <trkpt lat="41.219650" lon="-5.907110">
        <ele>875</ele>
        <time>2022-12-03T23:26:18Z</time>
      </trkpt>
      <trkpt lat="41.218970" lon="-5.906800">
        <ele>877</ele>
        <time>2022-12-03T23:26:30Z</time>
      </trkpt>
      <trkpt lat="41.217880" lon="-5.906490">
        <ele>879</ele>
        <time>2022-12-03T23:26:50Z</time>
      </trkpt>
      <trkpt lat="41.217650" lon="-5.906390">
        <ele>879</ele>
        <time>2022-12-03T23:26:55Z</time>
      </trkpt>
      <trkpt lat="41.217360" lon="-5.906220">
        <ele>879</ele>
        <time>2022-12-03T23:27:00Z</time>
      </trkpt>
      <trkpt lat="41.216060" lon="-5.905240">
        <ele>875</ele>
        <time>2022-12-03T23:27:27Z</time>
      </trkpt>
      <trkpt lat="41.215520" lon="-5.904780">
        <ele>873</ele>
        <time>2022-12-03T23:27:38Z</time>
      </trkpt>
      <trkpt lat="41.214630" lon="-5.903820">
        <ele>872</ele>
        <time>2022-12-03T23:27:59Z</time>
      </trkpt>
      <trkpt lat="41.214580" lon="-5.903770">
        <ele>872</ele>
        <time>2022-12-03T23:28:00Z</time>
      </trkpt>
      <trkpt lat="41.213190" lon="-5.902250">
        <ele>874</ele>
        <time>2022-12-03T23:28:32Z</time>
      </trkpt>
      <trkpt lat="41.212710" lon="-5.901790">
        <ele>878</ele>
        <time>2022-12-03T23:28:42Z</time>
      </trkpt>
      <trkpt lat="41.212140" lon="-5.901300">
        <ele>879</ele>
        <time>2022-12-03T23:28:54Z</time>
      </trkpt>
      <trkpt lat="41.211680" lon="-5.900960">
        <ele>879</ele>
        <time>2022-12-03T23:29:04Z</time>
      </trkpt>
      <trkpt lat="41.211300" lon="-5.900720">
        <ele>880</ele>
        <time>2022-12-03T23:29:11Z</time>
      </trkpt>
      <trkpt lat="41.211040" lon="-5.900490">
        <ele>880</ele>
        <time>2022-12-03T23:29:17Z</time>
      </trkpt>
      <trkpt lat="41.210730" lon="-5.900150">
        <ele>879</ele>
        <time>2022-12-03T23:29:24Z</time>
      </trkpt>
      <trkpt lat="41.210360" lon="-5.899690">
        <ele>879</ele>
        <time>2022-12-03T23:29:33Z</time>
      </trkpt>
      <trkpt lat="41.210140" lon="-5.899480">
        <ele>879</ele>
        <time>2022-12-03T23:29:38Z</time>
      </trkpt>
      <trkpt lat="41.208330" lon="-5.898320">
        <ele>883</ele>
        <time>2022-12-03T23:30:14Z</time>
      </trkpt>
      <trkpt lat="41.207520" lon="-5.897690">
        <ele>887</ele>
        <time>2022-12-03T23:30:30Z</time>
      </trkpt>
      <trkpt lat="41.207190" lon="-5.897390">
        <ele>890</ele>
        <time>2022-12-03T23:30:37Z</time>
      </trkpt>
      <trkpt lat="41.206700" lon="-5.896860">
        <ele>893</ele>
        <time>2022-12-03T23:30:49Z</time>
      </trkpt>
      <trkpt lat="41.205480" lon="-5.895900">
        <ele>892</ele>
        <time>2022-12-03T23:31:14Z</time>
      </trkpt>
      <trkpt lat="41.205240" lon="-5.895820">
        <ele>892</ele>
        <time>2022-12-03T23:31:18Z</time>
      </trkpt>
      <trkpt lat="41.204880" lon="-5.895780">
        <ele>892</ele>
        <time>2022-12-03T23:31:25Z</time>
      </trkpt>
      <trkpt lat="41.204490" lon="-5.895490">
        <ele>892</ele>
        <time>2022-12-03T23:31:33Z</time>
      </trkpt>
      <trkpt lat="41.204150" lon="-5.895210">
        <ele>892</ele>
        <time>2022-12-03T23:31:40Z</time>
      </trkpt>
      <trkpt lat="41.203990" lon="-5.894980">
        <ele>892</ele>
        <time>2022-12-03T23:31:44Z</time>
      </trkpt>
      <trkpt lat="41.203820" lon="-5.894610">
        <ele>891</ele>
        <time>2022-12-03T23:31:50Z</time>
      </trkpt>
      <trkpt lat="41.203760" lon="-5.894540">
        <ele>891</ele>
        <time>2022-12-03T23:31:51Z</time>
      </trkpt>
      <trkpt lat="41.203600" lon="-5.894450">
        <ele>891</ele>
        <time>2022-12-03T23:31:54Z</time>
      </trkpt>
      <trkpt lat="41.203350" lon="-5.894350">
        <ele>890</ele>
        <time>2022-12-03T23:31:59Z</time>
      </trkpt>
      <trkpt lat="41.202760" lon="-5.894220">
        <ele>889</ele>
        <time>2022-12-03T23:32:09Z</time>
      </trkpt>
      <trkpt lat="41.202200" lon="-5.894190">
        <ele>888</ele>
        <time>2022-12-03T23:32:19Z</time>
      </trkpt>
      <trkpt lat="41.201050" lon="-5.893960">
        <ele>884</ele>
        <time>2022-12-03T23:32:40Z</time>
      </trkpt>
      <trkpt lat="41.197010" lon="-5.893330">
        <ele>863</ele>
        <time>2022-12-03T23:33:53Z</time>
      </trkpt>
      <trkpt lat="41.196920" lon="-5.893320">
        <ele>863</ele>
        <time>2022-12-03T23:33:54Z</time>
      </trkpt>
      <trkpt lat="41.195630" lon="-5.893110">
        <ele>867</ele>
        <time>2022-12-03T23:34:17Z</time>
      </trkpt>
      <trkpt lat="41.195350" lon="-5.893020">
        <ele>866</ele>
        <time>2022-12-03T23:34:22Z</time>
      </trkpt>
      <trkpt lat="41.195110" lon="-5.892890">
        <ele>866</ele>
        <time>2022-12-03T23:34:27Z</time>
      </trkpt>
      <trkpt lat="41.187700" lon="-5.887830">
        <ele>850</ele>
        <time>2022-12-03T23:36:55Z</time>
      </trkpt>
      <trkpt lat="41.187280" lon="-5.887620">
        <ele>850</ele>
        <time>2022-12-03T23:37:03Z</time>
      </trkpt>
      <trkpt lat="41.184440" lon="-5.886340">
        <ele>847</ele>
        <time>2022-12-03T23:37:57Z</time>
      </trkpt>
      <trkpt lat="41.182890" lon="-5.885620">
        <ele>842</ele>
        <time>2022-12-03T23:38:26Z</time>
      </trkpt>
      <trkpt lat="41.182540" lon="-5.885380">
        <ele>841</ele>
        <time>2022-12-03T23:38:33Z</time>
      </trkpt>
      <trkpt lat="41.182380" lon="-5.885240">
        <ele>841</ele>
        <time>2022-12-03T23:38:36Z</time>
      </trkpt>
      <trkpt lat="41.182230" lon="-5.885070">
        <ele>841</ele>
        <time>2022-12-03T23:38:40Z</time>
      </trkpt>
      <trkpt lat="41.182150" lon="-5.884980">
        <ele>841</ele>
        <time>2022-12-03T23:38:42Z</time>
      </trkpt>
      <trkpt lat="41.181970" lon="-5.884830">
        <ele>841</ele>
        <time>2022-12-03T23:38:45Z</time>
      </trkpt>
      <trkpt lat="41.181800" lon="-5.884760">
        <ele>841</ele>
        <time>2022-12-03T23:38:49Z</time>
      </trkpt>
      <trkpt lat="41.181310" lon="-5.884630">
        <ele>840</ele>
        <time>2022-12-03T23:38:57Z</time>
      </trkpt>
      <trkpt lat="41.181080" lon="-5.884500">
        <ele>840</ele>
        <time>2022-12-03T23:39:02Z</time>
      </trkpt>
      <trkpt lat="41.180890" lon="-5.884320">
        <ele>839</ele>
        <time>2022-12-03T23:39:06Z</time>
      </trkpt>
      <trkpt lat="41.179330" lon="-5.882550">
        <ele>837</ele>
        <time>2022-12-03T23:39:43Z</time>
      </trkpt>
      <trkpt lat="41.179110" lon="-5.882390">
        <ele>837</ele>
        <time>2022-12-03T23:39:47Z</time>
      </trkpt>
      <trkpt lat="41.178910" lon="-5.882340">
        <ele>836</ele>
        <time>2022-12-03T23:39:51Z</time>
      </trkpt>
      <trkpt lat="41.177400" lon="-5.882350">
        <ele>837</ele>
        <time>2022-12-03T23:40:17Z</time>
      </trkpt>
      <trkpt lat="41.177240" lon="-5.882330">
        <ele>837</ele>
        <time>2022-12-03T23:40:20Z</time>
      </trkpt>
      <trkpt lat="41.177070" lon="-5.882250">
        <ele>837</ele>
        <time>2022-12-03T23:40:24Z</time>
      </trkpt>
      <trkpt lat="41.174830" lon="-5.880350">
        <ele>846</ele>
        <time>2022-12-03T23:41:11Z</time>
      </trkpt>
      <trkpt lat="41.174380" lon="-5.879910">
        <ele>848</ele>
        <time>2022-12-03T23:41:21Z</time>
      </trkpt>
      <trkpt lat="41.171670" lon="-5.876890">
        <ele>839</ele>
        <time>2022-12-03T23:42:24Z</time>
      </trkpt>
      <trkpt lat="41.171530" lon="-5.876740">
        <ele>838</ele>
        <time>2022-12-03T23:42:27Z</time>
      </trkpt>
      <trkpt lat="41.171350" lon="-5.876600">
        <ele>838</ele>
        <time>2022-12-03T23:42:31Z</time>
      </trkpt>
      <trkpt lat="41.169020" lon="-5.875630">
        <ele>834</ele>
        <time>2022-12-03T23:43:14Z</time>
      </trkpt>
      <trkpt lat="41.168000" lon="-5.875240">
        <ele>829</ele>
        <time>2022-12-03T23:43:33Z</time>
      </trkpt>
      <trkpt lat="41.167780" lon="-5.874970">
        <ele>828</ele>
        <time>2022-12-03T23:43:38Z</time>
      </trkpt>
      <trkpt lat="41.167540" lon="-5.871870">
        <ele>824</ele>
        <time>2022-12-03T23:44:20Z</time>
      </trkpt>
      <trkpt lat="41.167390" lon="-5.871390">
        <ele>824</ele>
        <time>2022-12-03T23:44:27Z</time>
      </trkpt>
      <trkpt lat="41.166200" lon="-5.869930">
        <ele>824</ele>
        <time>2022-12-03T23:44:56Z</time>
      </trkpt>
      <trkpt lat="41.166080" lon="-5.869520">
        <ele>822</ele>
        <time>2022-12-03T23:45:02Z</time>
      </trkpt>
      <trkpt lat="41.165890" lon="-5.867250">
        <ele>822</ele>
        <time>2022-12-03T23:45:32Z</time>
      </trkpt>
      <trkpt lat="41.165790" lon="-5.866560">
        <ele>824</ele>
        <time>2022-12-03T23:45:42Z</time>
      </trkpt>
      <trkpt lat="41.165200" lon="-5.864050">
        <ele>820</ele>
        <time>2022-12-03T23:46:17Z</time>
      </trkpt>
      <trkpt lat="41.164600" lon="-5.862330">
        <ele>826</ele>
        <time>2022-12-03T23:46:42Z</time>
      </trkpt>
      <trkpt lat="41.164460" lon="-5.862050">
        <ele>827</ele>
        <time>2022-12-03T23:46:47Z</time>
      </trkpt>
      <trkpt lat="41.163890" lon="-5.861200">
        <ele>830</ele>
        <time>2022-12-03T23:47:02Z</time>
      </trkpt>
      <trkpt lat="41.163830" lon="-5.860990">
        <ele>830</ele>
        <time>2022-12-03T23:47:05Z</time>
      </trkpt>
      <trkpt lat="41.163630" lon="-5.859530">
        <ele>836</ele>
        <time>2022-12-03T23:47:25Z</time>
      </trkpt>
      <trkpt lat="41.163570" lon="-5.859290">
        <ele>837</ele>
        <time>2022-12-03T23:47:28Z</time>
      </trkpt>
      <trkpt lat="41.163450" lon="-5.859020">
        <ele>838</ele>
        <time>2022-12-03T23:47:33Z</time>
      </trkpt>
      <trkpt lat="41.162580" lon="-5.857540">
        <ele>845</ele>
        <time>2022-12-03T23:47:58Z</time>
      </trkpt>
      <trkpt lat="41.161510" lon="-5.855790">
        <ele>850</ele>
        <time>2022-12-03T23:48:28Z</time>
      </trkpt>
      <trkpt lat="41.161310" lon="-5.855290">
        <ele>848</ele>
        <time>2022-12-03T23:48:35Z</time>
      </trkpt>
      <trkpt lat="41.160780" lon="-5.853700">
        <ele>841</ele>
        <time>2022-12-03T23:48:59Z</time>
      </trkpt>
      <trkpt lat="41.160620" lon="-5.853300">
        <ele>841</ele>
        <time>2022-12-03T23:49:05Z</time>
      </trkpt>
      <trkpt lat="41.160360" lon="-5.852860">
        <ele>840</ele>
        <time>2022-12-03T23:49:12Z</time>
      </trkpt>
      <trkpt lat="41.159310" lon="-5.851230">
        <ele>834</ele>
        <time>2022-12-03T23:49:41Z</time>
      </trkpt>
      <trkpt lat="41.159180" lon="-5.851010">
        <ele>833</ele>
        <time>2022-12-03T23:49:45Z</time>
      </trkpt>
      <trkpt lat="41.159100" lon="-5.850800">
        <ele>832</ele>
        <time>2022-12-03T23:49:48Z</time>
      </trkpt>
      <trkpt lat="41.159070" lon="-5.850490">
        <ele>832</ele>
        <time>2022-12-03T23:49:52Z</time>
      </trkpt>
      <trkpt lat="41.159330" lon="-5.848400">
        <ele>828</ele>
        <time>2022-12-03T23:50:21Z</time>
      </trkpt>
      <trkpt lat="41.159320" lon="-5.848160">
        <ele>827</ele>
        <time>2022-12-03T23:50:24Z</time>
      </trkpt>
      <trkpt lat="41.159270" lon="-5.847920">
        <ele>827</ele>
        <time>2022-12-03T23:50:27Z</time>
      </trkpt>
      <trkpt lat="41.159100" lon="-5.847590">
        <ele>826</ele>
        <time>2022-12-03T23:50:32Z</time>
      </trkpt>
      <trkpt lat="41.157310" lon="-5.844840">
        <ele>824</ele>
        <time>2022-12-03T23:51:21Z</time>
      </trkpt>
      <trkpt lat="41.157150" lon="-5.844640">
        <ele>824</ele>
        <time>2022-12-03T23:51:25Z</time>
      </trkpt>
      <trkpt lat="41.156930" lon="-5.844450">
        <ele>823</ele>
        <time>2022-12-03T23:51:30Z</time>
      </trkpt>
      <trkpt lat="41.154240" lon="-5.842600">
        <ele>820</ele>
        <time>2022-12-03T23:52:24Z</time>
      </trkpt>
      <trkpt lat="41.153920" lon="-5.842320">
        <ele>821</ele>
        <time>2022-12-03T23:52:30Z</time>
      </trkpt>
      <trkpt lat="41.153000" lon="-5.840830">
        <ele>821</ele>
        <time>2022-12-03T23:52:56Z</time>
      </trkpt>
      <trkpt lat="41.152740" lon="-5.840520">
        <ele>821</ele>
        <time>2022-12-03T23:53:02Z</time>
      </trkpt>
      <trkpt lat="41.151980" lon="-5.839870">
        <ele>819</ele>
        <time>2022-12-03T23:53:19Z</time>
      </trkpt>
      <trkpt lat="41.151490" lon="-5.839400">
        <ele>816</ele>
        <time>2022-12-03T23:53:29Z</time>
      </trkpt>
      <trkpt lat="41.151340" lon="-5.839190">
        <ele>815</ele>
        <time>2022-12-03T23:53:33Z</time>
      </trkpt>
      <trkpt lat="41.151160" lon="-5.838750">
        <ele>815</ele>
        <time>2022-12-03T23:53:40Z</time>
      </trkpt>
      <trkpt lat="41.150820" lon="-5.837460">
        <ele>813</ele>
        <time>2022-12-03T23:53:58Z</time>
      </trkpt>
      <trkpt lat="41.150310" lon="-5.835860">
        <ele>812</ele>
        <time>2022-12-03T23:54:21Z</time>
      </trkpt>
      <trkpt lat="41.150120" lon="-5.835290">
        <ele>810</ele>
        <time>2022-12-03T23:54:30Z</time>
      </trkpt>
      <trkpt lat="41.149970" lon="-5.834980">
        <ele>809</ele>
        <time>2022-12-03T23:54:35Z</time>
      </trkpt>
      <trkpt lat="41.149820" lon="-5.834690">
        <ele>808</ele>
        <time>2022-12-03T23:54:39Z</time>
      </trkpt>
      <trkpt lat="41.149710" lon="-5.834520">
        <ele>808</ele>
        <time>2022-12-03T23:54:42Z</time>
      </trkpt>
      <trkpt lat="41.149540" lon="-5.834330">
        <ele>807</ele>
        <time>2022-12-03T23:54:46Z</time>
      </trkpt>
      <trkpt lat="41.147720" lon="-5.832560">
        <ele>804</ele>
        <time>2022-12-03T23:55:27Z</time>
      </trkpt>
      <trkpt lat="41.147550" lon="-5.832410">
        <ele>804</ele>
        <time>2022-12-03T23:55:30Z</time>
      </trkpt>
      <trkpt lat="41.146800" lon="-5.831680">
        <ele>803</ele>
        <time>2022-12-03T23:55:47Z</time>
      </trkpt>
      <trkpt lat="41.147200" lon="-5.831320">
        <ele>805</ele>
        <time>2022-12-03T23:55:55Z</time>
      </trkpt>
      <trkpt lat="41.147390" lon="-5.831170">
        <ele>807</ele>
        <time>2022-12-03T23:55:59Z</time>
      </trkpt>
      <trkpt lat="41.147290" lon="-5.831020">
        <ele>807</ele>
        <time>2022-12-03T23:56:02Z</time>
      </trkpt>
      <trkpt lat="41.147280" lon="-5.830920">
        <ele>808</ele>
        <time>2022-12-03T23:56:03Z</time>
      </trkpt>
      <trkpt lat="41.147330" lon="-5.830610">
        <ele>809</ele>
        <time>2022-12-03T23:56:08Z</time>
      </trkpt>
      <trkpt lat="41.147350" lon="-5.830400">
        <ele>810</ele>
        <time>2022-12-03T23:56:10Z</time>
      </trkpt>
      <trkpt lat="41.147390" lon="-5.830340">
        <ele>810</ele>
        <time>2022-12-03T23:56:11Z</time>
      </trkpt>
      <trkpt lat="41.147650" lon="-5.830170">
        <ele>812</ele>
        <time>2022-12-03T23:56:17Z</time>
      </trkpt>
      <trkpt lat="41.147870" lon="-5.829670">
        <ele>812</ele>
        <time>2022-12-03T23:56:24Z</time>
      </trkpt>
      <trkpt lat="41.148070" lon="-5.829380">
        <ele>812</ele>
        <time>2022-12-03T23:56:30Z</time>
      </trkpt>
      <trkpt lat="41.148290" lon="-5.829210">
        <ele>812</ele>
        <time>2022-12-03T23:56:34Z</time>
      </trkpt>
      <trkpt lat="41.148420" lon="-5.829000">
        <ele>812</ele>
        <time>2022-12-03T23:56:38Z</time>
      </trkpt>
      <trkpt lat="41.148530" lon="-5.828750">
        <ele>812</ele>
        <time>2022-12-03T23:56:42Z</time>
      </trkpt>
      <trkpt lat="41.148600" lon="-5.828190">
        <ele>811</ele>
        <time>2022-12-03T23:56:49Z</time>
      </trkpt>
      <trkpt lat="41.148630" lon="-5.827320">
        <ele>807</ele>
        <time>2022-12-03T23:57:01Z</time>
      </trkpt>
      <trkpt lat="41.148670" lon="-5.826900">
        <ele>807</ele>
        <time>2022-12-03T23:57:07Z</time>
      </trkpt>
      <trkpt lat="41.148730" lon="-5.826650">
        <ele>806</ele>
        <time>2022-12-03T23:57:10Z</time>
      </trkpt>
      <trkpt lat="41.148810" lon="-5.826380">
        <ele>807</ele>
        <time>2022-12-03T23:57:14Z</time>
      </trkpt>
      <trkpt lat="41.149150" lon="-5.825570">
        <ele>807</ele>
        <time>2022-12-03T23:57:26Z</time>
      </trkpt>
      <trkpt lat="41.149300" lon="-5.825160">
        <ele>808</ele>
        <time>2022-12-03T23:57:33Z</time>
      </trkpt>
      <trkpt lat="41.149610" lon="-5.824120">
        <ele>809</ele>
        <time>2022-12-03T23:57:48Z</time>
      </trkpt>
      <trkpt lat="41.150190" lon="-5.822890">
        <ele>810</ele>
        <time>2022-12-03T23:58:07Z</time>
      </trkpt>
      <trkpt lat="41.150330" lon="-5.822640">
        <ele>810</ele>
        <time>2022-12-03T23:58:11Z</time>
      </trkpt>
      <trkpt lat="41.150810" lon="-5.821940">
        <ele>811</ele>
        <time>2022-12-03T23:58:24Z</time>
      </trkpt>
      <trkpt lat="41.151110" lon="-5.821320">
        <ele>812</ele>
        <time>2022-12-03T23:58:34Z</time>
      </trkpt>
      <trkpt lat="41.151450" lon="-5.820570">
        <ele>812</ele>
        <time>2022-12-03T23:58:45Z</time>
      </trkpt>
      <trkpt lat="41.151580" lon="-5.820230">
        <ele>812</ele>
        <time>2022-12-03T23:58:51Z</time>
      </trkpt>
      <trkpt lat="41.151740" lon="-5.819720">
        <ele>813</ele>
        <time>2022-12-03T23:58:58Z</time>
      </trkpt>
      <trkpt lat="41.152020" lon="-5.818570">
        <ele>815</ele>
        <time>2022-12-03T23:59:14Z</time>
      </trkpt>
      <trkpt lat="41.152140" lon="-5.818200">
        <ele>814</ele>
        <time>2022-12-03T23:59:20Z</time>
      </trkpt>
      <trkpt lat="41.152310" lon="-5.817790">
        <ele>814</ele>
        <time>2022-12-03T23:59:26Z</time>
      </trkpt>
      <trkpt lat="41.152750" lon="-5.816790">
        <ele>815</ele>
        <time>2022-12-03T23:59:41Z</time>
      </trkpt>
      <trkpt lat="41.152840" lon="-5.816560">
        <ele>815</ele>
        <time>2022-12-03T23:59:45Z</time>
      </trkpt>
      <trkpt lat="41.152900" lon="-5.816420">
        <ele>815</ele>
        <time>2022-12-03T23:59:47Z</time>
      </trkpt>
      <trkpt lat="41.153510" lon="-5.814030">
        <ele>818</ele>
        <time>2022-12-04T00:00:21Z</time>
      </trkpt>
      <trkpt lat="41.153610" lon="-5.813800">
        <ele>818</ele>
        <time>2022-12-04T00:00:24Z</time>
      </trkpt>
      <trkpt lat="41.154010" lon="-5.813070">
        <ele>820</ele>
        <time>2022-12-04T00:00:36Z</time>
      </trkpt>
      <trkpt lat="41.154390" lon="-5.811940">
        <ele>819</ele>
        <time>2022-12-04T00:00:53Z</time>
      </trkpt>
      <trkpt lat="41.154530" lon="-5.811620">
        <ele>820</ele>
        <time>2022-12-04T00:00:58Z</time>
      </trkpt>
      <trkpt lat="41.155360" lon="-5.810080">
        <ele>826</ele>
        <time>2022-12-04T00:01:23Z</time>
      </trkpt>
      <trkpt lat="41.155750" lon="-5.809190">
        <ele>829</ele>
        <time>2022-12-04T00:01:37Z</time>
      </trkpt>
      <trkpt lat="41.155900" lon="-5.808930">
        <ele>829</ele>
        <time>2022-12-04T00:01:42Z</time>
      </trkpt>
      <trkpt lat="41.156150" lon="-5.808560">
        <ele>831</ele>
        <time>2022-12-04T00:01:48Z</time>
      </trkpt>
      <trkpt lat="41.157770" lon="-5.806420">
        <ele>843</ele>
        <time>2022-12-04T00:02:29Z</time>
      </trkpt>
      <trkpt lat="41.157910" lon="-5.806190">
        <ele>844</ele>
        <time>2022-12-04T00:02:33Z</time>
      </trkpt>
      <trkpt lat="41.158000" lon="-5.805980">
        <ele>846</ele>
        <time>2022-12-04T00:02:36Z</time>
      </trkpt>
      <trkpt lat="41.158750" lon="-5.803790">
        <ele>848</ele>
        <time>2022-12-04T00:03:08Z</time>
      </trkpt>
      <trkpt lat="41.159260" lon="-5.802410">
        <ele>852</ele>
        <time>2022-12-04T00:03:29Z</time>
      </trkpt>
      <trkpt lat="41.159430" lon="-5.802020">
        <ele>852</ele>
        <time>2022-12-04T00:03:35Z</time>
      </trkpt>
      <trkpt lat="41.159880" lon="-5.801400">
        <ele>851</ele>
        <time>2022-12-04T00:03:46Z</time>
      </trkpt>
      <trkpt lat="41.160330" lon="-5.800880">
        <ele>849</ele>
        <time>2022-12-04T00:03:57Z</time>
      </trkpt>
      <trkpt lat="41.160520" lon="-5.800700">
        <ele>848</ele>
        <time>2022-12-04T00:04:01Z</time>
      </trkpt>
      <trkpt lat="41.161160" lon="-5.800210">
        <ele>849</ele>
        <time>2022-12-04T00:04:14Z</time>
      </trkpt>
      <trkpt lat="41.161300" lon="-5.800080">
        <ele>850</ele>
        <time>2022-12-04T00:04:17Z</time>
      </trkpt>
      <trkpt lat="41.161370" lon="-5.799970">
        <ele>850</ele>
        <time>2022-12-04T00:04:19Z</time>
      </trkpt>
      <trkpt lat="41.161550" lon="-5.799610">
        <ele>850</ele>
        <time>2022-12-04T00:04:25Z</time>
      </trkpt>
      <trkpt lat="41.162020" lon="-5.798360">
        <ele>846</ele>
        <time>2022-12-04T00:04:44Z</time>
      </trkpt>
      <trkpt lat="41.163680" lon="-5.795060">
        <ele>843</ele>
        <time>2022-12-04T00:05:37Z</time>
      </trkpt>
      <trkpt lat="41.163950" lon="-5.794690">
        <ele>843</ele>
        <time>2022-12-04T00:05:44Z</time>
      </trkpt>
      <trkpt lat="41.164170" lon="-5.794330">
        <ele>843</ele>
        <time>2022-12-04T00:05:50Z</time>
      </trkpt>
      <trkpt lat="41.164560" lon="-5.793240">
        <ele>844</ele>
        <time>2022-12-04T00:06:06Z</time>
      </trkpt>
      <trkpt lat="41.165570" lon="-5.790950">
        <ele>841</ele>
        <time>2022-12-04T00:06:42Z</time>
      </trkpt>
      <trkpt lat="41.165720" lon="-5.790630">
        <ele>840</ele>
        <time>2022-12-04T00:06:47Z</time>
      </trkpt>
      <trkpt lat="41.166130" lon="-5.789880">
        <ele>838</ele>
        <time>2022-12-04T00:06:59Z</time>
      </trkpt>
      <trkpt lat="41.166920" lon="-5.788350">
        <ele>832</ele>
        <time>2022-12-04T00:07:24Z</time>
      </trkpt>
      <trkpt lat="41.168070" lon="-5.786040">
        <ele>828</ele>
        <time>2022-12-04T00:08:01Z</time>
      </trkpt>
      <trkpt lat="41.168220" lon="-5.785830">
        <ele>827</ele>
        <time>2022-12-04T00:08:05Z</time>
      </trkpt>
      <trkpt lat="41.168340" lon="-5.785700">
        <ele>827</ele>
        <time>2022-12-04T00:08:08Z</time>
      </trkpt>
      <trkpt lat="41.168550" lon="-5.785570">
        <ele>828</ele>
        <time>2022-12-04T00:08:12Z</time>
      </trkpt>
      <trkpt lat="41.168610" lon="-5.785550">
        <ele>828</ele>
        <time>2022-12-04T00:08:13Z</time>
      </trkpt>
      <trkpt lat="41.169040" lon="-5.785710">
        <ele>830</ele>
        <time>2022-12-04T00:08:21Z</time>
      </trkpt>
      <trkpt lat="41.169120" lon="-5.785670">
        <ele>830</ele>
        <time>2022-12-04T00:08:23Z</time>
      </trkpt>
      <trkpt lat="41.169210" lon="-5.785610">
        <ele>831</ele>
        <time>2022-12-04T00:08:24Z</time>
      </trkpt>
      <trkpt lat="41.169370" lon="-5.785360">
        <ele>833</ele>
        <time>2022-12-04T00:08:29Z</time>
      </trkpt>
      <trkpt lat="41.169470" lon="-5.785260">
        <ele>834</ele>
        <time>2022-12-04T00:08:31Z</time>
      </trkpt>
      <trkpt lat="41.170220" lon="-5.784770">
        <ele>842</ele>
        <time>2022-12-04T00:08:46Z</time>
      </trkpt>
      <trkpt lat="41.170530" lon="-5.784530">
        <ele>842</ele>
        <time>2022-12-04T00:08:52Z</time>
      </trkpt>
      <trkpt lat="41.170840" lon="-5.784320">
        <ele>843</ele>
        <time>2022-12-04T00:08:58Z</time>
      </trkpt>
      <trkpt lat="41.170720" lon="-5.784140">
        <ele>843</ele>
        <time>2022-12-04T00:09:02Z</time>
      </trkpt>
      <trkpt lat="41.170680" lon="-5.783640">
        <ele>842</ele>
        <time>2022-12-04T00:09:08Z</time>
      </trkpt>
      <trkpt lat="41.170750" lon="-5.783330">
        <ele>842</ele>
        <time>2022-12-04T00:09:13Z</time>
      </trkpt>
      <trkpt lat="41.170800" lon="-5.782940">
        <ele>842</ele>
        <time>2022-12-04T00:09:18Z</time>
      </trkpt>
      <trkpt lat="41.170850" lon="-5.782200">
        <ele>841</ele>
        <time>2022-12-04T00:09:28Z</time>
      </trkpt>
      <trkpt lat="41.170930" lon="-5.781320">
        <ele>839</ele>
        <time>2022-12-04T00:09:40Z</time>
      </trkpt>
      <trkpt lat="41.170950" lon="-5.780730">
        <ele>837</ele>
        <time>2022-12-04T00:09:48Z</time>
      </trkpt>
      <trkpt lat="41.170920" lon="-5.779880">
        <ele>838</ele>
        <time>2022-12-04T00:09:59Z</time>
      </trkpt>
      <trkpt lat="41.170800" lon="-5.779020">
        <ele>836</ele>
        <time>2022-12-04T00:10:11Z</time>
      </trkpt>
      <trkpt lat="41.170220" lon="-5.776690">
        <ele>836</ele>
        <time>2022-12-04T00:10:44Z</time>
      </trkpt>
      <trkpt lat="41.170120" lon="-5.776180">
        <ele>836</ele>
        <time>2022-12-04T00:10:51Z</time>
      </trkpt>
      <trkpt lat="41.170050" lon="-5.775750">
        <ele>835</ele>
        <time>2022-12-04T00:10:57Z</time>
      </trkpt>
      <trkpt lat="41.169990" lon="-5.775210">
        <ele>832</ele>
        <time>2022-12-04T00:11:04Z</time>
      </trkpt>
      <trkpt lat="41.169950" lon="-5.774520">
        <ele>830</ele>
        <time>2022-12-04T00:11:13Z</time>
      </trkpt>
      <trkpt lat="41.169970" lon="-5.774030">
        <ele>829</ele>
        <time>2022-12-04T00:11:20Z</time>
      </trkpt>
      <trkpt lat="41.170000" lon="-5.773570">
        <ele>830</ele>
        <time>2022-12-04T00:11:26Z</time>
      </trkpt>
      <trkpt lat="41.170480" lon="-5.769300">
        <ele>827</ele>
        <time>2022-12-04T00:12:24Z</time>
      </trkpt>
      <trkpt lat="41.170600" lon="-5.768030">
        <ele>825</ele>
        <time>2022-12-04T00:12:41Z</time>
      </trkpt>
      <trkpt lat="41.170620" lon="-5.767570">
        <ele>824</ele>
        <time>2022-12-04T00:12:47Z</time>
      </trkpt>
      <trkpt lat="41.170610" lon="-5.767030">
        <ele>823</ele>
        <time>2022-12-04T00:12:54Z</time>
      </trkpt>
      <trkpt lat="41.170550" lon="-5.766220">
        <ele>821</ele>
        <time>2022-12-04T00:13:05Z</time>
      </trkpt>
      <trkpt lat="41.170440" lon="-5.764830">
        <ele>820</ele>
        <time>2022-12-04T00:13:24Z</time>
      </trkpt>
      <trkpt lat="41.170380" lon="-5.764330">
        <ele>819</ele>
        <time>2022-12-04T00:13:31Z</time>
      </trkpt>
      <trkpt lat="41.170310" lon="-5.763990">
        <ele>820</ele>
        <time>2022-12-04T00:13:36Z</time>
      </trkpt>
      <trkpt lat="41.170130" lon="-5.763480">
        <ele>821</ele>
        <time>2022-12-04T00:13:43Z</time>
      </trkpt>
      <trkpt lat="41.170020" lon="-5.763250">
        <ele>821</ele>
        <time>2022-12-04T00:13:47Z</time>
      </trkpt>
      <trkpt lat="41.169890" lon="-5.763020">
        <ele>823</ele>
        <time>2022-12-04T00:13:51Z</time>
      </trkpt>
      <trkpt lat="41.168580" lon="-5.761210">
        <ele>831</ele>
        <time>2022-12-04T00:14:24Z</time>
      </trkpt>
      <trkpt lat="41.168380" lon="-5.760920">
        <ele>833</ele>
        <time>2022-12-04T00:14:29Z</time>
      </trkpt>
      <trkpt lat="41.168140" lon="-5.760490">
        <ele>834</ele>
        <time>2022-12-04T00:14:37Z</time>
      </trkpt>
      <trkpt lat="41.168000" lon="-5.760160">
        <ele>836</ele>
        <time>2022-12-04T00:14:42Z</time>
      </trkpt>
      <trkpt lat="41.167880" lon="-5.759830">
        <ele>837</ele>
        <time>2022-12-04T00:14:47Z</time>
      </trkpt>
      <trkpt lat="41.167760" lon="-5.759360">
        <ele>838</ele>
        <time>2022-12-04T00:14:53Z</time>
      </trkpt>
      <trkpt lat="41.167680" lon="-5.758930">
        <ele>838</ele>
        <time>2022-12-04T00:14:59Z</time>
      </trkpt>
      <trkpt lat="41.167540" lon="-5.757850">
        <ele>837</ele>
        <time>2022-12-04T00:15:14Z</time>
      </trkpt>
      <trkpt lat="41.167450" lon="-5.757360">
        <ele>836</ele>
        <time>2022-12-04T00:15:21Z</time>
      </trkpt>
      <trkpt lat="41.167340" lon="-5.756940">
        <ele>837</ele>
        <time>2022-12-04T00:15:27Z</time>
      </trkpt>
      <trkpt lat="41.167230" lon="-5.756610">
        <ele>837</ele>
        <time>2022-12-04T00:15:31Z</time>
      </trkpt>
      <trkpt lat="41.167100" lon="-5.756280">
        <ele>840</ele>
        <time>2022-12-04T00:15:36Z</time>
      </trkpt>
      <trkpt lat="41.166970" lon="-5.756020">
        <ele>841</ele>
        <time>2022-12-04T00:15:41Z</time>
      </trkpt>
      <trkpt lat="41.166580" lon="-5.755390">
        <ele>846</ele>
        <time>2022-12-04T00:15:52Z</time>
      </trkpt>
      <trkpt lat="41.165590" lon="-5.754100">
        <ele>853</ele>
        <time>2022-12-04T00:16:16Z</time>
      </trkpt>
      <trkpt lat="41.165330" lon="-5.753670">
        <ele>853</ele>
        <time>2022-12-04T00:16:24Z</time>
      </trkpt>
      <trkpt lat="41.164510" lon="-5.752050">
        <ele>856</ele>
        <time>2022-12-04T00:16:50Z</time>
      </trkpt>
      <trkpt lat="41.162150" lon="-5.747230">
        <ele>850</ele>
        <time>2022-12-04T00:18:07Z</time>
      </trkpt>
      <trkpt lat="41.161660" lon="-5.746150">
        <ele>852</ele>
        <time>2022-12-04T00:18:24Z</time>
      </trkpt>
      <trkpt lat="41.161450" lon="-5.745580">
        <ele>854</ele>
        <time>2022-12-04T00:18:32Z</time>
      </trkpt>
      <trkpt lat="41.161170" lon="-5.744660">
        <ele>857</ele>
        <time>2022-12-04T00:18:45Z</time>
      </trkpt>
      <trkpt lat="41.158760" lon="-5.736200">
        <ele>849</ele>
        <time>2022-12-04T00:20:47Z</time>
      </trkpt>
      <trkpt lat="41.158580" lon="-5.735710">
        <ele>847</ele>
        <time>2022-12-04T00:20:54Z</time>
      </trkpt>
      <trkpt lat="41.158310" lon="-5.735170">
        <ele>844</ele>
        <time>2022-12-04T00:21:03Z</time>
      </trkpt>
      <trkpt lat="41.157630" lon="-5.733940">
        <ele>839</ele>
        <time>2022-12-04T00:21:23Z</time>
      </trkpt>
      <trkpt lat="41.157440" lon="-5.733540">
        <ele>838</ele>
        <time>2022-12-04T00:21:29Z</time>
      </trkpt>
      <trkpt lat="41.157300" lon="-5.733160">
        <ele>838</ele>
        <time>2022-12-04T00:21:35Z</time>
      </trkpt>
      <trkpt lat="41.157170" lon="-5.732700">
        <ele>838</ele>
        <time>2022-12-04T00:21:42Z</time>
      </trkpt>
      <trkpt lat="41.157100" lon="-5.732300">
        <ele>838</ele>
        <time>2022-12-04T00:21:47Z</time>
      </trkpt>
      <trkpt lat="41.157040" lon="-5.731820">
        <ele>841</ele>
        <time>2022-12-04T00:21:54Z</time>
      </trkpt>
      <trkpt lat="41.157030" lon="-5.731240">
        <ele>843</ele>
        <time>2022-12-04T00:22:01Z</time>
      </trkpt>
      <trkpt lat="41.157090" lon="-5.729750">
        <ele>849</ele>
        <time>2022-12-04T00:22:21Z</time>
      </trkpt>
      <trkpt lat="41.157070" lon="-5.729380">
        <ele>849</ele>
        <time>2022-12-04T00:22:26Z</time>
      </trkpt>
      <trkpt lat="41.157040" lon="-5.729020">
        <ele>850</ele>
        <time>2022-12-04T00:22:31Z</time>
      </trkpt>
      <trkpt lat="41.156970" lon="-5.728620">
        <ele>849</ele>
        <time>2022-12-04T00:22:37Z</time>
      </trkpt>
      <trkpt lat="41.156860" lon="-5.728210">
        <ele>849</ele>
        <time>2022-12-04T00:22:43Z</time>
      </trkpt>
      <trkpt lat="41.156470" lon="-5.727160">
        <ele>845</ele>
        <time>2022-12-04T00:22:58Z</time>
      </trkpt>
      <trkpt lat="41.155780" lon="-5.725400">
        <ele>846</ele>
        <time>2022-12-04T00:23:25Z</time>
      </trkpt>
      <trkpt lat="41.155140" lon="-5.723780">
        <ele>847</ele>
        <time>2022-12-04T00:23:49Z</time>
      </trkpt>
      <trkpt lat="41.154940" lon="-5.723300">
        <ele>846</ele>
        <time>2022-12-04T00:23:57Z</time>
      </trkpt>
      <trkpt lat="41.154690" lon="-5.722880">
        <ele>845</ele>
        <time>2022-12-04T00:24:04Z</time>
      </trkpt>
      <trkpt lat="41.154450" lon="-5.722550">
        <ele>844</ele>
        <time>2022-12-04T00:24:10Z</time>
      </trkpt>
      <trkpt lat="41.154160" lon="-5.722240">
        <ele>841</ele>
        <time>2022-12-04T00:24:17Z</time>
      </trkpt>
      <trkpt lat="41.153280" lon="-5.721420">
        <ele>838</ele>
        <time>2022-12-04T00:24:36Z</time>
      </trkpt>
      <trkpt lat="41.153020" lon="-5.721130">
        <ele>839</ele>
        <time>2022-12-04T00:24:42Z</time>
      </trkpt>
      <trkpt lat="41.152800" lon="-5.720850">
        <ele>839</ele>
        <time>2022-12-04T00:24:47Z</time>
      </trkpt>
      <trkpt lat="41.152490" lon="-5.720300">
        <ele>836</ele>
        <time>2022-12-04T00:24:56Z</time>
      </trkpt>
      <trkpt lat="41.150680" lon="-5.716930">
        <ele>828</ele>
        <time>2022-12-04T00:25:52Z</time>
      </trkpt>
      <trkpt lat="41.150490" lon="-5.716540">
        <ele>828</ele>
        <time>2022-12-04T00:25:58Z</time>
      </trkpt>
      <trkpt lat="41.150370" lon="-5.716260">
        <ele>828</ele>
        <time>2022-12-04T00:26:02Z</time>
      </trkpt>
      <trkpt lat="41.149700" lon="-5.714030">
        <ele>839</ele>
        <time>2022-12-04T00:26:35Z</time>
      </trkpt>
      <trkpt lat="41.149550" lon="-5.713660">
        <ele>838</ele>
        <time>2022-12-04T00:26:40Z</time>
      </trkpt>
      <trkpt lat="41.149390" lon="-5.713320">
        <ele>837</ele>
        <time>2022-12-04T00:26:46Z</time>
      </trkpt>
      <trkpt lat="41.149190" lon="-5.712980">
        <ele>835</ele>
        <time>2022-12-04T00:26:51Z</time>
      </trkpt>
      <trkpt lat="41.148800" lon="-5.712410">
        <ele>831</ele>
        <time>2022-12-04T00:27:02Z</time>
      </trkpt>
      <trkpt lat="41.148590" lon="-5.712160">
        <ele>830</ele>
        <time>2022-12-04T00:27:07Z</time>
      </trkpt>
      <trkpt lat="41.148250" lon="-5.711800">
        <ele>829</ele>
        <time>2022-12-04T00:27:14Z</time>
      </trkpt>
      <trkpt lat="41.143440" lon="-5.707770">
        <ele>830</ele>
        <time>2022-12-04T00:28:56Z</time>
      </trkpt>
      <trkpt lat="41.142720" lon="-5.706990">
        <ele>827</ele>
        <time>2022-12-04T00:29:12Z</time>
      </trkpt>
      <trkpt lat="41.142440" lon="-5.706610">
        <ele>826</ele>
        <time>2022-12-04T00:29:19Z</time>
      </trkpt>
      <trkpt lat="41.139900" lon="-5.702390">
        <ele>821</ele>
        <time>2022-12-04T00:30:32Z</time>
      </trkpt>
      <trkpt lat="41.139630" lon="-5.701850">
        <ele>820</ele>
        <time>2022-12-04T00:30:40Z</time>
      </trkpt>
      <trkpt lat="41.139400" lon="-5.701120">
        <ele>819</ele>
        <time>2022-12-04T00:30:51Z</time>
      </trkpt>
      <trkpt lat="41.139090" lon="-5.699910">
        <ele>816</ele>
        <time>2022-12-04T00:31:08Z</time>
      </trkpt>
      <trkpt lat="41.138930" lon="-5.699440">
        <ele>815</ele>
        <time>2022-12-04T00:31:15Z</time>
      </trkpt>
      <trkpt lat="41.138790" lon="-5.699130">
        <ele>815</ele>
        <time>2022-12-04T00:31:20Z</time>
      </trkpt>
      <trkpt lat="41.138560" lon="-5.698700">
        <ele>815</ele>
        <time>2022-12-04T00:31:27Z</time>
      </trkpt>
      <trkpt lat="41.137810" lon="-5.697350">
        <ele>811</ele>
        <time>2022-12-04T00:31:49Z</time>
      </trkpt>
      <trkpt lat="41.137380" lon="-5.696600">
        <ele>810</ele>
        <time>2022-12-04T00:32:02Z</time>
      </trkpt>
      <trkpt lat="41.137260" lon="-5.696470">
        <ele>810</ele>
        <time>2022-12-04T00:32:05Z</time>
      </trkpt>
      <trkpt lat="41.137180" lon="-5.696410">
        <ele>809</ele>
        <time>2022-12-04T00:32:06Z</time>
      </trkpt>
      <trkpt lat="41.137060" lon="-5.696360">
        <ele>809</ele>
        <time>2022-12-04T00:32:09Z</time>
      </trkpt>
      <trkpt lat="41.136910" lon="-5.696320">
        <ele>808</ele>
        <time>2022-12-04T00:32:11Z</time>
      </trkpt>
      <trkpt lat="41.131810" lon="-5.696830">
        <ele>797</ele>
        <time>2022-12-04T00:33:42Z</time>
      </trkpt>
      <trkpt lat="41.131550" lon="-5.696870">
        <ele>796</ele>
        <time>2022-12-04T00:33:47Z</time>
      </trkpt>
      <trkpt lat="41.129470" lon="-5.697060">
        <ele>800</ele>
        <time>2022-12-04T00:34:24Z</time>
      </trkpt>
      <trkpt lat="41.129350" lon="-5.697130">
        <ele>800</ele>
        <time>2022-12-04T00:34:26Z</time>
      </trkpt>
      <trkpt lat="41.128710" lon="-5.697300">
        <ele>800</ele>
        <time>2022-12-04T00:34:38Z</time>
      </trkpt>
      <trkpt lat="41.128700" lon="-5.696950">
        <ele>800</ele>
        <time>2022-12-04T00:34:43Z</time>
      </trkpt>
      <trkpt lat="41.128730" lon="-5.696690">
        <ele>800</ele>
        <time>2022-12-04T00:34:46Z</time>
      </trkpt>
      <trkpt lat="41.128760" lon="-5.696520">
        <ele>801</ele>
        <time>2022-12-04T00:34:49Z</time>
      </trkpt>
      <trkpt lat="41.130120" lon="-5.692670">
        <ele>802</ele>
        <time>2022-12-04T00:35:46Z</time>
      </trkpt>
      <trkpt lat="41.130190" lon="-5.692460">
        <ele>802</ele>
        <time>2022-12-04T00:35:49Z</time>
      </trkpt>
      <trkpt lat="41.130240" lon="-5.692230">
        <ele>802</ele>
        <time>2022-12-04T00:35:52Z</time>
      </trkpt>
      <trkpt lat="41.130250" lon="-5.691950">
        <ele>802</ele>
        <time>2022-12-04T00:35:56Z</time>
      </trkpt>
      <trkpt lat="41.130200" lon="-5.690190">
        <ele>801</ele>
        <time>2022-12-04T00:36:19Z</time>
      </trkpt>
      <trkpt lat="41.130160" lon="-5.689670">
        <ele>801</ele>
        <time>2022-12-04T00:36:26Z</time>
      </trkpt>
      <trkpt lat="41.130060" lon="-5.689120">
        <ele>803</ele>
        <time>2022-12-04T00:36:34Z</time>
      </trkpt>
      <trkpt lat="41.130180" lon="-5.689030">
        <ele>802</ele>
        <time>2022-12-04T00:36:36Z</time>
      </trkpt>
      <trkpt lat="41.130290" lon="-5.689000">
        <ele>802</ele>
        <time>2022-12-04T00:36:38Z</time>
      </trkpt>
      <trkpt lat="41.130370" lon="-5.688920">
        <ele>802</ele>
        <time>2022-12-04T00:36:40Z</time>
      </trkpt>
      <trkpt lat="41.132680" lon="-5.681950">
        <ele>802</ele>
        <time>2022-12-04T00:38:22Z</time>
      </trkpt>
      <trkpt lat="41.133640" lon="-5.678870">
        <ele>801</ele>
        <time>2022-12-04T00:39:07Z</time>
      </trkpt>
      <trkpt lat="41.133740" lon="-5.678650">
        <ele>802</ele>
        <time>2022-12-04T00:39:10Z</time>
      </trkpt>
      <trkpt lat="41.134000" lon="-5.678180">
        <ele>801</ele>
        <time>2022-12-04T00:39:18Z</time>
      </trkpt>
      <trkpt lat="41.134100" lon="-5.677990">
        <ele>801</ele>
        <time>2022-12-04T00:39:21Z</time>
      </trkpt>
      <trkpt lat="41.134530" lon="-5.677190">
        <ele>800</ele>
        <time>2022-12-04T00:39:34Z</time>
      </trkpt>
      <trkpt lat="41.134670" lon="-5.676920">
        <ele>801</ele>
        <time>2022-12-04T00:39:39Z</time>
      </trkpt>
      <trkpt lat="41.135370" lon="-5.675060">
        <ele>804</ele>
        <time>2022-12-04T00:40:07Z</time>
      </trkpt>
      <trkpt lat="41.135500" lon="-5.674380">
        <ele>805</ele>
        <time>2022-12-04T00:40:16Z</time>
      </trkpt>
      <trkpt lat="41.135760" lon="-5.672690">
        <ele>806</ele>
        <time>2022-12-04T00:40:39Z</time>
      </trkpt>
      <trkpt lat="41.136250" lon="-5.670360">
        <ele>808</ele>
        <time>2022-12-04T00:41:12Z</time>
      </trkpt>
      <trkpt lat="41.136370" lon="-5.669900">
        <ele>808</ele>
        <time>2022-12-04T00:41:18Z</time>
      </trkpt>
      <trkpt lat="41.137080" lon="-5.667410">
        <ele>807</ele>
        <time>2022-12-04T00:41:54Z</time>
      </trkpt>
      <trkpt lat="41.137530" lon="-5.665800">
        <ele>808</ele>
        <time>2022-12-04T00:42:17Z</time>
      </trkpt>
      <trkpt lat="41.137840" lon="-5.664290">
        <ele>810</ele>
        <time>2022-12-04T00:42:38Z</time>
      </trkpt>
      <trkpt lat="41.137920" lon="-5.664010">
        <ele>810</ele>
        <time>2022-12-04T00:42:42Z</time>
      </trkpt>
      <trkpt lat="41.138840" lon="-5.661570">
        <ele>812</ele>
        <time>2022-12-04T00:43:18Z</time>
      </trkpt>
      <trkpt lat="41.139290" lon="-5.659860">
        <ele>812</ele>
        <time>2022-12-04T00:43:43Z</time>
      </trkpt>
      <trkpt lat="41.140620" lon="-5.656470">
        <ele>810</ele>
        <time>2022-12-04T00:44:34Z</time>
      </trkpt>
      <trkpt lat="41.140790" lon="-5.656060">
        <ele>809</ele>
        <time>2022-12-04T00:44:40Z</time>
      </trkpt>
      <trkpt lat="41.141600" lon="-5.654410">
        <ele>812</ele>
        <time>2022-12-04T00:45:06Z</time>
      </trkpt>
      <trkpt lat="41.142190" lon="-5.653060">
        <ele>812</ele>
        <time>2022-12-04T00:45:27Z</time>
      </trkpt>
      <trkpt lat="41.142880" lon="-5.651340">
        <ele>813</ele>
        <time>2022-12-04T00:45:53Z</time>
      </trkpt>
      <trkpt lat="41.143020" lon="-5.651040">
        <ele>812</ele>
        <time>2022-12-04T00:45:58Z</time>
      </trkpt>
      <trkpt lat="41.147700" lon="-5.643970">
        <ele>816</ele>
        <time>2022-12-04T00:48:04Z</time>
      </trkpt>
      <trkpt lat="41.149540" lon="-5.641490">
        <ele>817</ele>
        <time>2022-12-04T00:48:51Z</time>
      </trkpt>
      <trkpt lat="41.149800" lon="-5.641210">
        <ele>817</ele>
        <time>2022-12-04T00:48:57Z</time>
      </trkpt>
      <trkpt lat="41.150600" lon="-5.640430">
        <ele>818</ele>
        <time>2022-12-04T00:49:15Z</time>
      </trkpt>
      <trkpt lat="41.152380" lon="-5.638730">
        <ele>820</ele>
        <time>2022-12-04T00:49:54Z</time>
      </trkpt>
      <trkpt lat="41.152600" lon="-5.638540">
        <ele>820</ele>
        <time>2022-12-04T00:49:58Z</time>
      </trkpt>
      <trkpt lat="41.152860" lon="-5.638340">
        <ele>821</ele>
        <time>2022-12-04T00:50:04Z</time>
      </trkpt>
      <trkpt lat="41.154500" lon="-5.637300">
        <ele>823</ele>
        <time>2022-12-04T00:50:36Z</time>
      </trkpt>
      <trkpt lat="41.154630" lon="-5.637180">
        <ele>824</ele>
        <time>2022-12-04T00:50:39Z</time>
      </trkpt>
      <trkpt lat="41.154770" lon="-5.636990">
        <ele>824</ele>
        <time>2022-12-04T00:50:42Z</time>
      </trkpt>
      <trkpt lat="41.155420" lon="-5.635860">
        <ele>823</ele>
        <time>2022-12-04T00:51:01Z</time>
      </trkpt>
      <trkpt lat="41.155770" lon="-5.635390">
        <ele>823</ele>
        <time>2022-12-04T00:51:10Z</time>
      </trkpt>
      <trkpt lat="41.156210" lon="-5.634700">
        <ele>824</ele>
        <time>2022-12-04T00:51:22Z</time>
      </trkpt>
      <trkpt lat="41.156450" lon="-5.634280">
        <ele>824</ele>
        <time>2022-12-04T00:51:29Z</time>
      </trkpt>
      <trkpt lat="41.156600" lon="-5.634090">
        <ele>824</ele>
        <time>2022-12-04T00:51:33Z</time>
      </trkpt>
      <trkpt lat="41.156730" lon="-5.633950">
        <ele>824</ele>
        <time>2022-12-04T00:51:36Z</time>
      </trkpt>
      <trkpt lat="41.156800" lon="-5.634050">
        <ele>824</ele>
        <time>2022-12-04T00:51:38Z</time>
      </trkpt>
      <trkpt lat="41.156730" lon="-5.633950">
        <ele>824</ele>
        <time>2022-12-04T00:51:40Z</time>
      </trkpt>
      <trkpt lat="41.156840" lon="-5.633840">
        <ele>824</ele>
        <time>2022-12-04T00:51:42Z</time>
      </trkpt>
      <trkpt lat="41.156690" lon="-5.633690">
        <ele>823</ele>
        <time>2022-12-04T00:51:46Z</time>
      </trkpt>
      <trkpt lat="41.156490" lon="-5.633570">
        <ele>823</ele>
        <time>2022-12-04T00:51:49Z</time>
      </trkpt>
      <trkpt lat="41.156210" lon="-5.633350">
        <ele>822</ele>
        <time>2022-12-04T00:51:55Z</time>
      </trkpt>
      <trkpt lat="41.156090" lon="-5.633230">
        <ele>822</ele>
        <time>2022-12-04T00:51:58Z</time>
      </trkpt>
      <trkpt lat="41.155860" lon="-5.632970">
        <ele>822</ele>
        <time>2022-12-04T00:52:03Z</time>
      </trkpt>
      <trkpt lat="41.155790" lon="-5.632880">
        <ele>822</ele>
        <time>2022-12-04T00:52:05Z</time>
      </trkpt>
      <trkpt lat="41.155540" lon="-5.632130">
        <ele>821</ele>
        <time>2022-12-04T00:52:16Z</time>
      </trkpt>
      <trkpt lat="41.155550" lon="-5.632090">
        <ele>821</ele>
        <time>2022-12-04T00:52:17Z</time>
      </trkpt>
      <trkpt lat="41.155150" lon="-5.631780">
        <ele>820</ele>
        <time>2022-12-04T00:52:25Z</time>
      </trkpt>
      <trkpt lat="41.155030" lon="-5.631690">
        <ele>820</ele>
        <time>2022-12-04T00:52:27Z</time>
      </trkpt>
      <trkpt lat="41.154730" lon="-5.631470">
        <ele>820</ele>
        <time>2022-12-04T00:52:33Z</time>
      </trkpt>
      <trkpt lat="41.154170" lon="-5.631140">
        <ele>821</ele>
        <time>2022-12-04T00:52:44Z</time>
      </trkpt>
      <trkpt lat="41.152260" lon="-5.629720">
        <ele>829</ele>
        <time>2022-12-04T00:53:23Z</time>
      </trkpt>
      <trkpt lat="41.151910" lon="-5.629400">
        <ele>832</ele>
        <time>2022-12-04T00:53:31Z</time>
      </trkpt>
      <trkpt lat="41.151390" lon="-5.628740">
        <ele>837</ele>
        <time>2022-12-04T00:53:44Z</time>
      </trkpt>
      <trkpt lat="41.151240" lon="-5.628580">
        <ele>838</ele>
        <time>2022-12-04T00:53:47Z</time>
      </trkpt>
      <trkpt lat="41.150670" lon="-5.628100">
        <ele>841</ele>
        <time>2022-12-04T00:53:59Z</time>
      </trkpt>
      <trkpt lat="41.149510" lon="-5.626930">
        <ele>841</ele>
        <time>2022-12-04T00:54:25Z</time>
      </trkpt>
      <trkpt lat="41.149200" lon="-5.626640">
        <ele>842</ele>
        <time>2022-12-04T00:54:32Z</time>
      </trkpt>
      <trkpt lat="41.148760" lon="-5.626160">
        <ele>843</ele>
        <time>2022-12-04T00:54:42Z</time>
      </trkpt>
      <trkpt lat="41.147790" lon="-5.625020">
        <ele>843</ele>
        <time>2022-12-04T00:55:05Z</time>
      </trkpt>
      <trkpt lat="41.147680" lon="-5.624930">
        <ele>843</ele>
        <time>2022-12-04T00:55:07Z</time>
      </trkpt>
      <trkpt lat="41.147080" lon="-5.624480">
        <ele>842</ele>
        <time>2022-12-04T00:55:19Z</time>
      </trkpt>
      <trkpt lat="41.146690" lon="-5.624220">
        <ele>842</ele>
        <time>2022-12-04T00:55:27Z</time>
      </trkpt>
      <trkpt lat="41.146060" lon="-5.623910">
        <ele>841</ele>
        <time>2022-12-04T00:55:39Z</time>
      </trkpt>
      <trkpt lat="41.145730" lon="-5.623730">
        <ele>840</ele>
        <time>2022-12-04T00:55:45Z</time>
      </trkpt>
      <trkpt lat="41.145440" lon="-5.623510">
        <ele>840</ele>
        <time>2022-12-04T00:55:51Z</time>
      </trkpt>
      <trkpt lat="41.145280" lon="-5.623330">
        <ele>839</ele>
        <time>2022-12-04T00:55:55Z</time>
      </trkpt>
      <trkpt lat="41.144290" lon="-5.622080">
        <ele>839</ele>
        <time>2022-12-04T00:56:19Z</time>
      </trkpt>
      <trkpt lat="41.143020" lon="-5.620500">
        <ele>834</ele>
        <time>2022-12-04T00:56:50Z</time>
      </trkpt>
      <trkpt lat="41.142360" lon="-5.619650">
        <ele>835</ele>
        <time>2022-12-04T00:57:07Z</time>
      </trkpt>
      <trkpt lat="41.140760" lon="-5.617190">
        <ele>837</ele>
        <time>2022-12-04T00:57:50Z</time>
      </trkpt>
      <trkpt lat="41.140580" lon="-5.616960">
        <ele>837</ele>
        <time>2022-12-04T00:57:55Z</time>
      </trkpt>
      <trkpt lat="41.140480" lon="-5.616860">
        <ele>838</ele>
        <time>2022-12-04T00:57:57Z</time>
      </trkpt>
      <trkpt lat="41.137530" lon="-5.614750">
        <ele>825</ele>
        <time>2022-12-04T00:58:57Z</time>
      </trkpt>
      <trkpt lat="41.135830" lon="-5.613620">
        <ele>822</ele>
        <time>2022-12-04T00:59:30Z</time>
      </trkpt>
      <trkpt lat="41.135640" lon="-5.613540">
        <ele>822</ele>
        <time>2022-12-04T00:59:34Z</time>
      </trkpt>
      <trkpt lat="41.135480" lon="-5.613570">
        <ele>823</ele>
        <time>2022-12-04T00:59:37Z</time>
      </trkpt>
      <trkpt lat="41.134400" lon="-5.614090">
        <ele>820</ele>
        <time>2022-12-04T00:59:57Z</time>
      </trkpt>
      <trkpt lat="41.134240" lon="-5.614110">
        <ele>819</ele>
        <time>2022-12-04T01:00:00Z</time>
      </trkpt>
      <trkpt lat="41.134080" lon="-5.614070">
        <ele>819</ele>
        <time>2022-12-04T01:00:03Z</time>
      </trkpt>
      <trkpt lat="41.132980" lon="-5.613610">
        <ele>816</ele>
        <time>2022-12-04T01:00:24Z</time>
      </trkpt>
      <trkpt lat="41.132800" lon="-5.613560">
        <ele>816</ele>
        <time>2022-12-04T01:00:27Z</time>
      </trkpt>
      <trkpt lat="41.130200" lon="-5.613130">
        <ele>818</ele>
        <time>2022-12-04T01:01:13Z</time>
      </trkpt>
      <trkpt lat="41.124150" lon="-5.613430">
        <ele>831</ele>
        <time>2022-12-04T01:03:01Z</time>
      </trkpt>
      <trkpt lat="41.123880" lon="-5.613420">
        <ele>832</ele>
        <time>2022-12-04T01:03:06Z</time>
      </trkpt>
      <trkpt lat="41.123700" lon="-5.613390">
        <ele>832</ele>
        <time>2022-12-04T01:03:09Z</time>
      </trkpt>
      <trkpt lat="41.122720" lon="-5.613150">
        <ele>834</ele>
        <time>2022-12-04T01:03:27Z</time>
      </trkpt>
      <trkpt lat="41.122500" lon="-5.613130">
        <ele>834</ele>
        <time>2022-12-04T01:03:31Z</time>
      </trkpt>
      <trkpt lat="41.121200" lon="-5.613220">
        <ele>835</ele>
        <time>2022-12-04T01:03:54Z</time>
      </trkpt>
      <trkpt lat="41.120340" lon="-5.613140">
        <ele>834</ele>
        <time>2022-12-04T01:04:09Z</time>
      </trkpt>
      <trkpt lat="41.120100" lon="-5.613100">
        <ele>834</ele>
        <time>2022-12-04T01:04:14Z</time>
      </trkpt>
      <trkpt lat="41.117990" lon="-5.612340">
        <ele>835</ele>
        <time>2022-12-04T01:04:53Z</time>
      </trkpt>
      <trkpt lat="41.116590" lon="-5.611520">
        <ele>834</ele>
        <time>2022-12-04T01:05:20Z</time>
      </trkpt>
      <trkpt lat="41.116390" lon="-5.611440">
        <ele>834</ele>
        <time>2022-12-04T01:05:24Z</time>
      </trkpt>
      <trkpt lat="41.112880" lon="-5.610800">
        <ele>835</ele>
        <time>2022-12-04T01:06:27Z</time>
      </trkpt>
      <trkpt lat="41.111330" lon="-5.610370">
        <ele>833</ele>
        <time>2022-12-04T01:06:55Z</time>
      </trkpt>
      <trkpt lat="41.110730" lon="-5.610180">
        <ele>832</ele>
        <time>2022-12-04T01:07:06Z</time>
      </trkpt>
      <trkpt lat="41.108220" lon="-5.609260">
        <ele>832</ele>
        <time>2022-12-04T01:07:52Z</time>
      </trkpt>
      <trkpt lat="41.106670" lon="-5.608720">
        <ele>832</ele>
        <time>2022-12-04T01:08:21Z</time>
      </trkpt>
      <trkpt lat="41.105330" lon="-5.608280">
        <ele>830</ele>
        <time>2022-12-04T01:08:45Z</time>
      </trkpt>
      <trkpt lat="41.103240" lon="-5.607370">
        <ele>828</ele>
        <time>2022-12-04T01:09:24Z</time>
      </trkpt>
      <trkpt lat="41.099530" lon="-5.605260">
        <ele>827</ele>
        <time>2022-12-04T01:10:36Z</time>
      </trkpt>
      <trkpt lat="41.099250" lon="-5.605160">
        <ele>828</ele>
        <time>2022-12-04T01:10:41Z</time>
      </trkpt>
      <trkpt lat="41.098550" lon="-5.605010">
        <ele>827</ele>
        <time>2022-12-04T01:10:54Z</time>
      </trkpt>
      <trkpt lat="41.097270" lon="-5.604830">
        <ele>825</ele>
        <time>2022-12-04T01:11:17Z</time>
      </trkpt>
      <trkpt lat="41.095640" lon="-5.600680">
        <ele>824</ele>
        <time>2022-12-04T01:12:20Z</time>
      </trkpt>
      <trkpt lat="41.095450" lon="-5.600280">
        <ele>825</ele>
        <time>2022-12-04T01:12:26Z</time>
      </trkpt>
      <trkpt lat="41.095100" lon="-5.599710">
        <ele>826</ele>
        <time>2022-12-04T01:12:36Z</time>
      </trkpt>
      <trkpt lat="41.081830" lon="-5.581590">
        <ele>821</ele>
        <time>2022-12-04T01:18:15Z</time>
      </trkpt>
      <trkpt lat="41.074480" lon="-5.571530">
        <ele>811</ele>
        <time>2022-12-04T01:21:22Z</time>
      </trkpt>
      <trkpt lat="41.067350" lon="-5.578310">
        <ele>813</ele>
        <time>2022-12-04T01:23:59Z</time>
      </trkpt>
      <trkpt lat="41.064340" lon="-5.581160">
        <ele>808</ele>
        <time>2022-12-04T01:25:04Z</time>
      </trkpt>
      <trkpt lat="41.064240" lon="-5.581250">
        <ele>808</ele>
        <time>2022-12-04T01:25:06Z</time>
      </trkpt>
      <trkpt lat="41.063220" lon="-5.582240">
        <ele>806</ele>
        <time>2022-12-04T01:25:29Z</time>
      </trkpt>
      <trkpt lat="41.062650" lon="-5.582850">
        <ele>808</ele>
        <time>2022-12-04T01:25:42Z</time>
      </trkpt>
      <trkpt lat="41.058450" lon="-5.588190">
        <ele>811</ele>
        <time>2022-12-04T01:27:26Z</time>
      </trkpt>
      <trkpt lat="41.058080" lon="-5.588700">
        <ele>810</ele>
        <time>2022-12-04T01:27:35Z</time>
      </trkpt>
      <trkpt lat="41.055870" lon="-5.591560">
        <ele>806</ele>
        <time>2022-12-04T01:28:30Z</time>
      </trkpt>
      <trkpt lat="41.055430" lon="-5.592090">
        <ele>805</ele>
        <time>2022-12-04T01:28:41Z</time>
      </trkpt>
      <trkpt lat="41.048870" lon="-5.600520">
        <ele>803</ele>
        <time>2022-12-04T01:31:23Z</time>
      </trkpt>
      <trkpt lat="41.048830" lon="-5.600580">
        <ele>803</ele>
        <time>2022-12-04T01:31:24Z</time>
      </trkpt>
      <trkpt lat="41.045690" lon="-5.604610">
        <ele>805</ele>
        <time>2022-12-04T01:32:42Z</time>
      </trkpt>
      <trkpt lat="41.044590" lon="-5.606050">
        <ele>804</ele>
        <time>2022-12-04T01:33:09Z</time>
      </trkpt>
      <trkpt lat="41.044330" lon="-5.606370">
        <ele>804</ele>
        <time>2022-12-04T01:33:16Z</time>
      </trkpt>
      <trkpt lat="41.044030" lon="-5.606700">
        <ele>803</ele>
        <time>2022-12-04T01:33:23Z</time>
      </trkpt>
      <trkpt lat="41.043790" lon="-5.606930">
        <ele>804</ele>
        <time>2022-12-04T01:33:28Z</time>
      </trkpt>
      <trkpt lat="41.043280" lon="-5.607350">
        <ele>803</ele>
        <time>2022-12-04T01:33:39Z</time>
      </trkpt>
      <trkpt lat="41.041150" lon="-5.608970">
        <ele>805</ele>
        <time>2022-12-04T01:34:22Z</time>
      </trkpt>
      <trkpt lat="41.035310" lon="-5.613460">
        <ele>807</ele>
        <time>2022-12-04T01:36:22Z</time>
      </trkpt>
      <trkpt lat="41.029660" lon="-5.617250">
        <ele>816</ele>
        <time>2022-12-04T01:38:15Z</time>
      </trkpt>
      <trkpt lat="41.029270" lon="-5.617570">
        <ele>818</ele>
        <time>2022-12-04T01:38:23Z</time>
      </trkpt>
      <trkpt lat="41.029070" lon="-5.617760">
        <ele>819</ele>
        <time>2022-12-04T01:38:28Z</time>
      </trkpt>
      <trkpt lat="41.028690" lon="-5.618270">
        <ele>820</ele>
        <time>2022-12-04T01:38:37Z</time>
      </trkpt>
      <trkpt lat="41.028120" lon="-5.618820">
        <ele>821</ele>
        <time>2022-12-04T01:38:50Z</time>
      </trkpt>
      <trkpt lat="41.027490" lon="-5.619470">
        <ele>824</ele>
        <time>2022-12-04T01:39:04Z</time>
      </trkpt>
      <trkpt lat="41.025880" lon="-5.621070">
        <ele>829</ele>
        <time>2022-12-04T01:39:40Z</time>
      </trkpt>
      <trkpt lat="41.025600" lon="-5.621400">
        <ele>830</ele>
        <time>2022-12-04T01:39:46Z</time>
      </trkpt>
      <trkpt lat="41.025290" lon="-5.621870">
        <ele>830</ele>
        <time>2022-12-04T01:39:55Z</time>
      </trkpt>
      <trkpt lat="41.024610" lon="-5.623140">
        <ele>833</ele>
        <time>2022-12-04T01:40:16Z</time>
      </trkpt>
      <trkpt lat="41.024260" lon="-5.623680">
        <ele>837</ele>
        <time>2022-12-04T01:40:25Z</time>
      </trkpt>
      <trkpt lat="41.023980" lon="-5.623990">
        <ele>838</ele>
        <time>2022-12-04T01:40:32Z</time>
      </trkpt>
      <trkpt lat="41.023760" lon="-5.624190">
        <ele>839</ele>
        <time>2022-12-04T01:40:37Z</time>
      </trkpt>
      <trkpt lat="41.023520" lon="-5.624380">
        <ele>840</ele>
        <time>2022-12-04T01:40:42Z</time>
      </trkpt>
      <trkpt lat="41.022390" lon="-5.625150">
        <ele>843</ele>
        <time>2022-12-04T01:41:04Z</time>
      </trkpt>
      <trkpt lat="41.022130" lon="-5.625380">
        <ele>844</ele>
        <time>2022-12-04T01:41:10Z</time>
      </trkpt>
      <trkpt lat="41.021470" lon="-5.626040">
        <ele>847</ele>
        <time>2022-12-04T01:41:24Z</time>
      </trkpt>
      <trkpt lat="41.019580" lon="-5.628040">
        <ele>853</ele>
        <time>2022-12-04T01:42:07Z</time>
      </trkpt>
      <trkpt lat="41.019120" lon="-5.628550">
        <ele>853</ele>
        <time>2022-12-04T01:42:18Z</time>
      </trkpt>
      <trkpt lat="41.018820" lon="-5.628970">
        <ele>855</ele>
        <time>2022-12-04T01:42:26Z</time>
      </trkpt>
      <trkpt lat="41.018630" lon="-5.629300">
        <ele>856</ele>
        <time>2022-12-04T01:42:31Z</time>
      </trkpt>
      <trkpt lat="41.017690" lon="-5.631130">
        <ele>860</ele>
        <time>2022-12-04T01:43:01Z</time>
      </trkpt>
      <trkpt lat="41.017390" lon="-5.631580">
        <ele>860</ele>
        <time>2022-12-04T01:43:09Z</time>
      </trkpt>
      <trkpt lat="41.017090" lon="-5.631920">
        <ele>858</ele>
        <time>2022-12-04T01:43:16Z</time>
      </trkpt>
      <trkpt lat="41.016840" lon="-5.632140">
        <ele>857</ele>
        <time>2022-12-04T01:43:22Z</time>
      </trkpt>
      <trkpt lat="41.015920" lon="-5.632880">
        <ele>853</ele>
        <time>2022-12-04T01:43:41Z</time>
      </trkpt>
      <trkpt lat="41.015570" lon="-5.633220">
        <ele>852</ele>
        <time>2022-12-04T01:43:48Z</time>
      </trkpt>
      <trkpt lat="41.015390" lon="-5.633440">
        <ele>852</ele>
        <time>2022-12-04T01:43:53Z</time>
      </trkpt>
      <trkpt lat="41.015010" lon="-5.634000">
        <ele>851</ele>
        <time>2022-12-04T01:44:03Z</time>
      </trkpt>
      <trkpt lat="41.014770" lon="-5.634400">
        <ele>850</ele>
        <time>2022-12-04T01:44:10Z</time>
      </trkpt>
      <trkpt lat="41.009490" lon="-5.643530">
        <ele>820</ele>
        <time>2022-12-04T01:46:44Z</time>
      </trkpt>
      <trkpt lat="41.009430" lon="-5.643710">
        <ele>819</ele>
        <time>2022-12-04T01:46:47Z</time>
      </trkpt>
      <trkpt lat="41.009380" lon="-5.643900">
        <ele>819</ele>
        <time>2022-12-04T01:46:50Z</time>
      </trkpt>
      <trkpt lat="41.009390" lon="-5.644010">
        <ele>819</ele>
        <time>2022-12-04T01:46:51Z</time>
      </trkpt>
      <trkpt lat="41.009370" lon="-5.644090">
        <ele>819</ele>
        <time>2022-12-04T01:46:52Z</time>
      </trkpt>
      <trkpt lat="41.009330" lon="-5.644160">
        <ele>818</ele>
        <time>2022-12-04T01:46:53Z</time>
      </trkpt>
      <trkpt lat="41.009260" lon="-5.644220">
        <ele>818</ele>
        <time>2022-12-04T01:46:55Z</time>
      </trkpt>
      <trkpt lat="41.009170" lon="-5.644240">
        <ele>818</ele>
        <time>2022-12-04T01:46:56Z</time>
      </trkpt>
      <trkpt lat="41.008990" lon="-5.644390">
        <ele>818</ele>
        <time>2022-12-04T01:47:00Z</time>
      </trkpt>
      <trkpt lat="41.007840" lon="-5.646330">
        <ele>817</ele>
        <time>2022-12-04T01:47:33Z</time>
      </trkpt>
      <trkpt lat="41.007440" lon="-5.646820">
        <ele>818</ele>
        <time>2022-12-04T01:47:43Z</time>
      </trkpt>
      <trkpt lat="41.007110" lon="-5.647110">
        <ele>818</ele>
        <time>2022-12-04T01:47:50Z</time>
      </trkpt>
      <trkpt lat="41.006990" lon="-5.647210">
        <ele>818</ele>
        <time>2022-12-04T01:47:53Z</time>
      </trkpt>
      <trkpt lat="41.004440" lon="-5.649340">
        <ele>818</ele>
        <time>2022-12-04T01:48:46Z</time>
      </trkpt>
      <trkpt lat="41.004320" lon="-5.649510">
        <ele>818</ele>
        <time>2022-12-04T01:48:49Z</time>
      </trkpt>
      <trkpt lat="41.004320" lon="-5.649560">
        <ele>818</ele>
        <time>2022-12-04T01:48:50Z</time>
      </trkpt>
      <trkpt lat="41.004290" lon="-5.649660">
        <ele>818</ele>
        <time>2022-12-04T01:48:52Z</time>
      </trkpt>
      <trkpt lat="41.004210" lon="-5.649720">
        <ele>818</ele>
        <time>2022-12-04T01:48:53Z</time>
      </trkpt>
      <trkpt lat="41.004130" lon="-5.649710">
        <ele>818</ele>
        <time>2022-12-04T01:48:55Z</time>
      </trkpt>
      <trkpt lat="41.003920" lon="-5.649760">
        <ele>818</ele>
        <time>2022-12-04T01:48:58Z</time>
      </trkpt>
      <trkpt lat="41.002030" lon="-5.651340">
        <ele>820</ele>
        <time>2022-12-04T01:49:38Z</time>
      </trkpt>
      <trkpt lat="41.001730" lon="-5.651620">
        <ele>821</ele>
        <time>2022-12-04T01:49:45Z</time>
      </trkpt>
      <trkpt lat="40.999050" lon="-5.654330">
        <ele>813</ele>
        <time>2022-12-04T01:50:45Z</time>
      </trkpt>
      <trkpt lat="40.998920" lon="-5.654540">
        <ele>812</ele>
        <time>2022-12-04T01:50:48Z</time>
      </trkpt>
      <trkpt lat="40.998870" lon="-5.654670">
        <ele>812</ele>
        <time>2022-12-04T01:50:50Z</time>
      </trkpt>
      <trkpt lat="40.998860" lon="-5.654820">
        <ele>812</ele>
        <time>2022-12-04T01:50:52Z</time>
      </trkpt>
      <trkpt lat="40.998810" lon="-5.654960">
        <ele>811</ele>
        <time>2022-12-04T01:50:54Z</time>
      </trkpt>
      <trkpt lat="40.998750" lon="-5.655030">
        <ele>811</ele>
        <time>2022-12-04T01:50:56Z</time>
      </trkpt>
      <trkpt lat="40.998680" lon="-5.655070">
        <ele>811</ele>
        <time>2022-12-04T01:50:57Z</time>
      </trkpt>
      <trkpt lat="40.998600" lon="-5.655090">
        <ele>810</ele>
        <time>2022-12-04T01:50:59Z</time>
      </trkpt>
      <trkpt lat="40.998490" lon="-5.655060">
        <ele>810</ele>
        <time>2022-12-04T01:51:01Z</time>
      </trkpt>
      <trkpt lat="40.998240" lon="-5.655230">
        <ele>809</ele>
        <time>2022-12-04T01:51:06Z</time>
      </trkpt>
      <trkpt lat="40.998110" lon="-5.655490">
        <ele>810</ele>
        <time>2022-12-04T01:51:10Z</time>
      </trkpt>
      <trkpt lat="40.997860" lon="-5.656240">
        <ele>809</ele>
        <time>2022-12-04T01:51:21Z</time>
      </trkpt>
      <trkpt lat="40.997770" lon="-5.656560">
        <ele>807</ele>
        <time>2022-12-04T01:51:25Z</time>
      </trkpt>
      <trkpt lat="40.997750" lon="-5.656900">
        <ele>807</ele>
        <time>2022-12-04T01:51:30Z</time>
      </trkpt>
      <trkpt lat="40.997770" lon="-5.656990">
        <ele>807</ele>
        <time>2022-12-04T01:51:31Z</time>
      </trkpt>
      <trkpt lat="40.997760" lon="-5.657080">
        <ele>807</ele>
        <time>2022-12-04T01:51:32Z</time>
      </trkpt>
      <trkpt lat="40.997730" lon="-5.657160">
        <ele>807</ele>
        <time>2022-12-04T01:51:34Z</time>
      </trkpt>
      <trkpt lat="40.997670" lon="-5.657220">
        <ele>807</ele>
        <time>2022-12-04T01:51:35Z</time>
      </trkpt>
      <trkpt lat="40.997610" lon="-5.657240">
        <ele>806</ele>
        <time>2022-12-04T01:51:36Z</time>
      </trkpt>
      <trkpt lat="40.997540" lon="-5.657230">
        <ele>806</ele>
        <time>2022-12-04T01:51:37Z</time>
      </trkpt>
      <trkpt lat="40.997460" lon="-5.657160">
        <ele>806</ele>
        <time>2022-12-04T01:51:39Z</time>
      </trkpt>
      <trkpt lat="40.997230" lon="-5.657100">
        <ele>807</ele>
        <time>2022-12-04T01:51:43Z</time>
      </trkpt>
      <trkpt lat="40.993560" lon="-5.657960">
        <ele>820</ele>
        <time>2022-12-04T01:52:50Z</time>
      </trkpt>
      <trkpt lat="40.992810" lon="-5.658130">
        <ele>821</ele>
        <time>2022-12-04T01:53:03Z</time>
      </trkpt>
      <trkpt lat="40.992460" lon="-5.658180">
        <ele>821</ele>
        <time>2022-12-04T01:53:09Z</time>
      </trkpt>
      <trkpt lat="40.982530" lon="-5.660570">
        <ele>830</ele>
        <time>2022-12-04T01:56:09Z</time>
      </trkpt>
      <trkpt lat="40.982540" lon="-5.660660">
        <ele>830</ele>
        <time>2022-12-04T01:56:10Z</time>
      </trkpt>
      <trkpt lat="40.982370" lon="-5.660700">
        <ele>829</ele>
        <time>2022-12-04T01:56:13Z</time>
      </trkpt>
      <trkpt lat="40.982290" lon="-5.660760">
        <ele>829</ele>
        <time>2022-12-04T01:56:15Z</time>
      </trkpt>
      <trkpt lat="40.982210" lon="-5.660770">
        <ele>829</ele>
        <time>2022-12-04T01:56:16Z</time>
      </trkpt>
      <trkpt lat="40.981240" lon="-5.661040">
        <ele>827</ele>
        <time>2022-12-04T01:56:34Z</time>
      </trkpt>
      <trkpt lat="40.981190" lon="-5.661050">
        <ele>827</ele>
        <time>2022-12-04T01:56:35Z</time>
      </trkpt>
      <trkpt lat="40.981130" lon="-5.661050">
        <ele>827</ele>
        <time>2022-12-04T01:56:36Z</time>
      </trkpt>
      <trkpt lat="40.979540" lon="-5.661530">
        <ele>821</ele>
        <time>2022-12-04T01:57:05Z</time>
      </trkpt>
      <trkpt lat="40.979520" lon="-5.661550">
        <ele>821</ele>
        <time>2022-12-04T01:57:05Z</time>
      </trkpt>
    </trkseg>
  </trk>
</gpx>
